<?xml version="1.0" encoding="UTF-8" standalone="no" ?>
<gpx xmlns="http://www.topografix.com/GPX/1/1" xmlns:xsi="http://www.w3.org/2001/XMLSchema-instance" xsi:schemaLocation="http://www.topografix.com/GPX/1/1 http://www.topografix.com/GPX/1/1/gpx.xsd" version="1.1" creator="VisuGPX - https://www.visugpx.com">
  <metadata>
    <name>Lac de Tuissier / pointe basse de Mary</name>
    <desc><![CDATA[18 fev 2020 .  Deuxième rando  caf SLV  , une partie du groupe  se dirige vers la  pointe basse de Mary , le reste patiente  au soleil  au niveau du lac de tuissier . 
L'accès par  l'arrête  très  large et en pente douce   vers la pointe de Mary  semble plus  facile  ( ?  pas tenté  ) 
]]></desc>
  </metadata>
  <trk>
    <name><![CDATA[Saint-Paul-sur-Ubaye Ascension]]></name>
    <trkseg>
      <trkpt lat="44.59391" lon="6.85234">
        <ele>1915</ele>
        <time>2020-02-18T07:17:59.000Z</time>
      </trkpt>
      <trkpt lat="44.59386" lon="6.85238">
        <ele>1915</ele>
        <time>2020-02-18T07:18:06.000Z</time>
      </trkpt>
      <trkpt lat="44.59381" lon="6.85243">
        <ele>1916</ele>
        <time>2020-02-18T07:18:13.000Z</time>
      </trkpt>
      <trkpt lat="44.59378" lon="6.85247">
        <ele>1916</ele>
        <time>2020-02-18T07:18:17.000Z</time>
      </trkpt>
      <trkpt lat="44.59375" lon="6.85252">
        <ele>1920</ele>
        <time>2020-02-18T07:18:22.000Z</time>
      </trkpt>
      <trkpt lat="44.59372" lon="6.85256">
        <ele>1920</ele>
        <time>2020-02-18T07:18:27.000Z</time>
      </trkpt>
      <trkpt lat="44.59371" lon="6.85259">
        <ele>1920</ele>
        <time>2020-02-18T07:18:30.000Z</time>
      </trkpt>
      <trkpt lat="44.5937" lon="6.85262">
        <ele>1920</ele>
        <time>2020-02-18T07:18:33.000Z</time>
      </trkpt>
      <trkpt lat="44.59369" lon="6.85263">
        <ele>1920</ele>
        <time>2020-02-18T07:18:34.000Z</time>
      </trkpt>
      <trkpt lat="44.59369" lon="6.85265">
        <ele>1920</ele>
        <time>2020-02-18T07:18:37.000Z</time>
      </trkpt>
      <trkpt lat="44.59369" lon="6.85266">
        <ele>1920</ele>
        <time>2020-02-18T07:18:39.000Z</time>
      </trkpt>
      <trkpt lat="44.59366" lon="6.85272">
        <ele>1921</ele>
        <time>2020-02-18T07:18:45.000Z</time>
      </trkpt>
      <trkpt lat="44.59366" lon="6.85273">
        <ele>1921</ele>
        <time>2020-02-18T07:18:46.000Z</time>
      </trkpt>
      <trkpt lat="44.59365" lon="6.85275">
        <ele>1921</ele>
        <time>2020-02-18T07:18:47.000Z</time>
      </trkpt>
      <trkpt lat="44.59363" lon="6.85283">
        <ele>1921</ele>
        <time>2020-02-18T07:18:53.000Z</time>
      </trkpt>
      <trkpt lat="44.59361" lon="6.85292">
        <ele>1921</ele>
        <time>2020-02-18T07:19:00.000Z</time>
      </trkpt>
      <trkpt lat="44.5936" lon="6.85296">
        <ele>1922</ele>
        <time>2020-02-18T07:19:03.000Z</time>
      </trkpt>
      <trkpt lat="44.5936" lon="6.85298">
        <ele>1922</ele>
        <time>2020-02-18T07:19:05.000Z</time>
      </trkpt>
      <trkpt lat="44.59358" lon="6.85306">
        <ele>1922</ele>
        <time>2020-02-18T07:19:12.000Z</time>
      </trkpt>
      <trkpt lat="44.59358" lon="6.8531">
        <ele>1922</ele>
        <time>2020-02-18T07:19:16.000Z</time>
      </trkpt>
      <trkpt lat="44.59357" lon="6.85312">
        <ele>1922</ele>
        <time>2020-02-18T07:19:18.000Z</time>
      </trkpt>
      <trkpt lat="44.59356" lon="6.85318">
        <ele>1923</ele>
        <time>2020-02-18T07:19:24.000Z</time>
      </trkpt>
      <trkpt lat="44.59356" lon="6.85319">
        <ele>1923</ele>
        <time>2020-02-18T07:19:25.000Z</time>
      </trkpt>
      <trkpt lat="44.59355" lon="6.85321">
        <ele>1923</ele>
        <time>2020-02-18T07:19:26.000Z</time>
      </trkpt>
      <trkpt lat="44.59355" lon="6.85322">
        <ele>1923</ele>
        <time>2020-02-18T07:19:27.000Z</time>
      </trkpt>
      <trkpt lat="44.59355" lon="6.85323">
        <ele>1923</ele>
        <time>2020-02-18T07:19:28.000Z</time>
      </trkpt>
      <trkpt lat="44.59355" lon="6.85324">
        <ele>1923</ele>
        <time>2020-02-18T07:19:29.000Z</time>
      </trkpt>
      <trkpt lat="44.59353" lon="6.85326">
        <ele>1923</ele>
        <time>2020-02-18T07:19:31.000Z</time>
      </trkpt>
      <trkpt lat="44.59352" lon="6.85328">
        <ele>1923</ele>
        <time>2020-02-18T07:19:33.000Z</time>
      </trkpt>
      <trkpt lat="44.59351" lon="6.85329">
        <ele>1923</ele>
        <time>2020-02-18T07:19:34.000Z</time>
      </trkpt>
      <trkpt lat="44.59351" lon="6.85332">
        <ele>1923</ele>
        <time>2020-02-18T07:19:37.000Z</time>
      </trkpt>
      <trkpt lat="44.59349" lon="6.85338">
        <ele>1927</ele>
        <time>2020-02-18T07:19:44.000Z</time>
      </trkpt>
      <trkpt lat="44.59348" lon="6.8534">
        <ele>1927</ele>
        <time>2020-02-18T07:19:46.000Z</time>
      </trkpt>
      <trkpt lat="44.59346" lon="6.8535">
        <ele>1928</ele>
        <time>2020-02-18T07:19:55.000Z</time>
      </trkpt>
      <trkpt lat="44.59343" lon="6.85361">
        <ele>1928</ele>
        <time>2020-02-18T07:20:05.000Z</time>
      </trkpt>
      <trkpt lat="44.59341" lon="6.85365">
        <ele>1929</ele>
        <time>2020-02-18T07:20:09.000Z</time>
      </trkpt>
      <trkpt lat="44.5934" lon="6.85369">
        <ele>1929</ele>
        <time>2020-02-18T07:20:13.000Z</time>
      </trkpt>
      <trkpt lat="44.59338" lon="6.85374">
        <ele>1929</ele>
        <time>2020-02-18T07:20:17.000Z</time>
      </trkpt>
      <trkpt lat="44.59338" lon="6.85376">
        <ele>1930</ele>
        <time>2020-02-18T07:20:20.000Z</time>
      </trkpt>
      <trkpt lat="44.59337" lon="6.8538">
        <ele>1930</ele>
        <time>2020-02-18T07:20:23.000Z</time>
      </trkpt>
      <trkpt lat="44.59335" lon="6.85382">
        <ele>1930</ele>
        <time>2020-02-18T07:20:25.000Z</time>
      </trkpt>
      <trkpt lat="44.59334" lon="6.85385">
        <ele>1930</ele>
        <time>2020-02-18T07:20:27.000Z</time>
      </trkpt>
      <trkpt lat="44.59334" lon="6.85386">
        <ele>1930</ele>
        <time>2020-02-18T07:20:28.000Z</time>
      </trkpt>
      <trkpt lat="44.59333" lon="6.85387">
        <ele>1930</ele>
        <time>2020-02-18T07:20:29.000Z</time>
      </trkpt>
      <trkpt lat="44.59333" lon="6.85388">
        <ele>1931</ele>
        <time>2020-02-18T07:20:30.000Z</time>
      </trkpt>
      <trkpt lat="44.59333" lon="6.85389">
        <ele>1931</ele>
        <time>2020-02-18T07:20:31.000Z</time>
      </trkpt>
      <trkpt lat="44.59329" lon="6.85398">
        <ele>1932</ele>
        <time>2020-02-18T07:20:41.000Z</time>
      </trkpt>
      <trkpt lat="44.59328" lon="6.85398">
        <ele>1932</ele>
        <time>2020-02-18T07:20:42.000Z</time>
      </trkpt>
      <trkpt lat="44.59327" lon="6.85405">
        <ele>1932</ele>
        <time>2020-02-18T07:20:48.000Z</time>
      </trkpt>
      <trkpt lat="44.59328" lon="6.85406">
        <ele>1932</ele>
        <time>2020-02-18T07:20:50.000Z</time>
      </trkpt>
      <trkpt lat="44.5933" lon="6.85409">
        <ele>1932</ele>
        <time>2020-02-18T07:20:53.000Z</time>
      </trkpt>
      <trkpt lat="44.5933" lon="6.85414">
        <ele>1933</ele>
        <time>2020-02-18T07:20:58.000Z</time>
      </trkpt>
      <trkpt lat="44.5933" lon="6.8542">
        <ele>1934</ele>
        <time>2020-02-18T07:21:04.000Z</time>
      </trkpt>
      <trkpt lat="44.59327" lon="6.85431">
        <ele>1937</ele>
        <time>2020-02-18T07:21:16.000Z</time>
      </trkpt>
      <trkpt lat="44.59323" lon="6.85444">
        <ele>1939</ele>
        <time>2020-02-18T07:21:28.000Z</time>
      </trkpt>
      <trkpt lat="44.59322" lon="6.85447">
        <ele>1939</ele>
        <time>2020-02-18T07:21:32.000Z</time>
      </trkpt>
      <trkpt lat="44.59317" lon="6.85458">
        <ele>1940</ele>
        <time>2020-02-18T07:21:44.000Z</time>
      </trkpt>
      <trkpt lat="44.59316" lon="6.85458">
        <ele>1940</ele>
        <time>2020-02-18T07:21:46.000Z</time>
      </trkpt>
      <trkpt lat="44.59316" lon="6.85459">
        <ele>1940</ele>
        <time>2020-02-18T07:21:47.000Z</time>
      </trkpt>
      <trkpt lat="44.59316" lon="6.8546">
        <ele>1940</ele>
        <time>2020-02-18T07:21:51.000Z</time>
      </trkpt>
      <trkpt lat="44.59316" lon="6.85459">
        <ele>1940</ele>
        <time>2020-02-18T07:21:54.000Z</time>
      </trkpt>
      <trkpt lat="44.59316" lon="6.8546">
        <ele>1940</ele>
        <time>2020-02-18T07:21:55.000Z</time>
      </trkpt>
      <trkpt lat="44.59315" lon="6.8546">
        <ele>1940</ele>
        <time>2020-02-18T07:22:00.000Z</time>
      </trkpt>
      <trkpt lat="44.59315" lon="6.8546">
        <ele>1940</ele>
        <time>2020-02-18T07:22:02.000Z</time>
      </trkpt>
      <trkpt lat="44.59313" lon="6.85461">
        <ele>1941</ele>
        <time>2020-02-18T07:22:10.000Z</time>
      </trkpt>
      <trkpt lat="44.59313" lon="6.85461">
        <ele>1941</ele>
        <time>2020-02-18T07:22:11.000Z</time>
      </trkpt>
      <trkpt lat="44.59314" lon="6.8546">
        <ele>1941</ele>
        <time>2020-02-18T07:22:15.000Z</time>
      </trkpt>
      <trkpt lat="44.59315" lon="6.8546">
        <ele>1940</ele>
        <time>2020-02-18T07:22:17.000Z</time>
      </trkpt>
      <trkpt lat="44.59319" lon="6.85459">
        <ele>1940</ele>
        <time>2020-02-18T07:22:26.000Z</time>
      </trkpt>
      <trkpt lat="44.5932" lon="6.85458">
        <ele>1940</ele>
        <time>2020-02-18T07:22:27.000Z</time>
      </trkpt>
      <trkpt lat="44.5932" lon="6.85458">
        <ele>1940</ele>
        <time>2020-02-18T07:22:31.000Z</time>
      </trkpt>
      <trkpt lat="44.59321" lon="6.85458">
        <ele>1940</ele>
        <time>2020-02-18T07:22:33.000Z</time>
      </trkpt>
      <trkpt lat="44.59321" lon="6.85459">
        <ele>1940</ele>
        <time>2020-02-18T07:22:35.000Z</time>
      </trkpt>
      <trkpt lat="44.59322" lon="6.85457">
        <ele>1940</ele>
        <time>2020-02-18T07:22:49.000Z</time>
      </trkpt>
      <trkpt lat="44.59324" lon="6.85458">
        <ele>1940</ele>
        <time>2020-02-18T07:22:53.000Z</time>
      </trkpt>
      <trkpt lat="44.59325" lon="6.85458">
        <ele>1940</ele>
        <time>2020-02-18T07:22:56.000Z</time>
      </trkpt>
      <trkpt lat="44.59326" lon="6.85457">
        <ele>1940</ele>
        <time>2020-02-18T07:22:58.000Z</time>
      </trkpt>
      <trkpt lat="44.59327" lon="6.85457">
        <ele>1940</ele>
        <time>2020-02-18T07:23:00.000Z</time>
      </trkpt>
      <trkpt lat="44.59327" lon="6.85457">
        <ele>1940</ele>
        <time>2020-02-18T07:23:02.000Z</time>
      </trkpt>
      <trkpt lat="44.59326" lon="6.85458">
        <ele>1940</ele>
        <time>2020-02-18T07:23:06.000Z</time>
      </trkpt>
      <trkpt lat="44.59327" lon="6.85458">
        <ele>1940</ele>
        <time>2020-02-18T07:23:09.000Z</time>
      </trkpt>
      <trkpt lat="44.59327" lon="6.85459">
        <ele>1940</ele>
        <time>2020-02-18T07:23:11.000Z</time>
      </trkpt>
      <trkpt lat="44.59326" lon="6.85459">
        <ele>1940</ele>
        <time>2020-02-18T07:23:13.000Z</time>
      </trkpt>
      <trkpt lat="44.59326" lon="6.8546">
        <ele>1940</ele>
        <time>2020-02-18T07:23:16.000Z</time>
      </trkpt>
      <trkpt lat="44.59326" lon="6.8546">
        <ele>1940</ele>
        <time>2020-02-18T07:23:19.000Z</time>
      </trkpt>
      <trkpt lat="44.59324" lon="6.85459">
        <ele>1940</ele>
        <time>2020-02-18T07:23:21.000Z</time>
      </trkpt>
      <trkpt lat="44.59324" lon="6.85458">
        <ele>1940</ele>
        <time>2020-02-18T07:23:22.000Z</time>
      </trkpt>
      <trkpt lat="44.59323" lon="6.85459">
        <ele>1940</ele>
        <time>2020-02-18T07:23:26.000Z</time>
      </trkpt>
      <trkpt lat="44.59322" lon="6.85459">
        <ele>1940</ele>
        <time>2020-02-18T07:23:28.000Z</time>
      </trkpt>
      <trkpt lat="44.59324" lon="6.8546">
        <ele>1940</ele>
        <time>2020-02-18T07:23:33.000Z</time>
      </trkpt>
      <trkpt lat="44.59325" lon="6.8546">
        <ele>1940</ele>
        <time>2020-02-18T07:23:36.000Z</time>
      </trkpt>
      <trkpt lat="44.59327" lon="6.85461">
        <ele>1940</ele>
        <time>2020-02-18T07:23:41.000Z</time>
      </trkpt>
      <trkpt lat="44.59329" lon="6.8546">
        <ele>1940</ele>
        <time>2020-02-18T07:23:45.000Z</time>
      </trkpt>
      <trkpt lat="44.59327" lon="6.8546">
        <ele>1940</ele>
        <time>2020-02-18T07:23:47.000Z</time>
      </trkpt>
      <trkpt lat="44.59326" lon="6.8546">
        <ele>1940</ele>
        <time>2020-02-18T07:23:50.000Z</time>
      </trkpt>
      <trkpt lat="44.59322" lon="6.85463">
        <ele>1940</ele>
        <time>2020-02-18T07:23:59.000Z</time>
      </trkpt>
      <trkpt lat="44.59322" lon="6.85463">
        <ele>1940</ele>
        <time>2020-02-18T07:24:01.000Z</time>
      </trkpt>
      <trkpt lat="44.59319" lon="6.85466">
        <ele>1941</ele>
        <time>2020-02-18T07:24:04.000Z</time>
      </trkpt>
      <trkpt lat="44.59319" lon="6.85465">
        <ele>1941</ele>
        <time>2020-02-18T07:24:07.000Z</time>
      </trkpt>
      <trkpt lat="44.59316" lon="6.85466">
        <ele>1941</ele>
        <time>2020-02-18T07:24:09.000Z</time>
      </trkpt>
      <trkpt lat="44.59316" lon="6.85466">
        <ele>1941</ele>
        <time>2020-02-18T07:24:12.000Z</time>
      </trkpt>
      <trkpt lat="44.59317" lon="6.85465">
        <ele>1941</ele>
        <time>2020-02-18T07:24:14.000Z</time>
      </trkpt>
      <trkpt lat="44.59318" lon="6.85465">
        <ele>1941</ele>
        <time>2020-02-18T07:24:16.000Z</time>
      </trkpt>
      <trkpt lat="44.59322" lon="6.85467">
        <ele>1941</ele>
        <time>2020-02-18T07:24:21.000Z</time>
      </trkpt>
      <trkpt lat="44.59322" lon="6.85467">
        <ele>1941</ele>
        <time>2020-02-18T07:24:22.000Z</time>
      </trkpt>
      <trkpt lat="44.59325" lon="6.85467">
        <ele>1940</ele>
        <time>2020-02-18T07:24:27.000Z</time>
      </trkpt>
      <trkpt lat="44.59324" lon="6.85466">
        <ele>1941</ele>
        <time>2020-02-18T07:24:28.000Z</time>
      </trkpt>
      <trkpt lat="44.59325" lon="6.85463">
        <ele>1940</ele>
        <time>2020-02-18T07:24:31.000Z</time>
      </trkpt>
      <trkpt lat="44.59326" lon="6.85462">
        <ele>1940</ele>
        <time>2020-02-18T07:24:32.000Z</time>
      </trkpt>
      <trkpt lat="44.59325" lon="6.85462">
        <ele>1940</ele>
        <time>2020-02-18T07:24:33.000Z</time>
      </trkpt>
      <trkpt lat="44.59323" lon="6.85461">
        <ele>1940</ele>
        <time>2020-02-18T07:24:34.000Z</time>
      </trkpt>
      <trkpt lat="44.59319" lon="6.85459">
        <ele>1940</ele>
        <time>2020-02-18T07:24:37.000Z</time>
      </trkpt>
      <trkpt lat="44.59317" lon="6.85459">
        <ele>1940</ele>
        <time>2020-02-18T07:24:39.000Z</time>
      </trkpt>
      <trkpt lat="44.59316" lon="6.85458">
        <ele>1940</ele>
        <time>2020-02-18T07:24:41.000Z</time>
      </trkpt>
      <trkpt lat="44.59315" lon="6.85455">
        <ele>1940</ele>
        <time>2020-02-18T07:24:48.000Z</time>
      </trkpt>
      <trkpt lat="44.59315" lon="6.85456">
        <ele>1940</ele>
        <time>2020-02-18T07:24:49.000Z</time>
      </trkpt>
      <trkpt lat="44.59313" lon="6.85459">
        <ele>1941</ele>
        <time>2020-02-18T07:24:52.000Z</time>
      </trkpt>
      <trkpt lat="44.59312" lon="6.85462">
        <ele>1941</ele>
        <time>2020-02-18T07:24:54.000Z</time>
      </trkpt>
      <trkpt lat="44.5931" lon="6.85469">
        <ele>1941</ele>
        <time>2020-02-18T07:24:58.000Z</time>
      </trkpt>
      <trkpt lat="44.5931" lon="6.85471">
        <ele>1941</ele>
        <time>2020-02-18T07:25:00.000Z</time>
      </trkpt>
      <trkpt lat="44.59309" lon="6.85472">
        <ele>1941</ele>
        <time>2020-02-18T07:25:01.000Z</time>
      </trkpt>
      <trkpt lat="44.59309" lon="6.85474">
        <ele>1942</ele>
        <time>2020-02-18T07:25:02.000Z</time>
      </trkpt>
      <trkpt lat="44.59308" lon="6.85478">
        <ele>1942</ele>
        <time>2020-02-18T07:25:05.000Z</time>
      </trkpt>
      <trkpt lat="44.59307" lon="6.85483">
        <ele>1942</ele>
        <time>2020-02-18T07:25:10.000Z</time>
      </trkpt>
      <trkpt lat="44.59304" lon="6.85493">
        <ele>1942</ele>
        <time>2020-02-18T07:25:18.000Z</time>
      </trkpt>
      <trkpt lat="44.59303" lon="6.85497">
        <ele>1943</ele>
        <time>2020-02-18T07:25:22.000Z</time>
      </trkpt>
      <trkpt lat="44.59303" lon="6.85498">
        <ele>1943</ele>
        <time>2020-02-18T07:25:23.000Z</time>
      </trkpt>
      <trkpt lat="44.59303" lon="6.85498">
        <ele>1943</ele>
        <time>2020-02-18T07:25:24.000Z</time>
      </trkpt>
      <trkpt lat="44.59303" lon="6.85499">
        <ele>1943</ele>
        <time>2020-02-18T07:25:25.000Z</time>
      </trkpt>
      <trkpt lat="44.59302" lon="6.85501">
        <ele>1948</ele>
        <time>2020-02-18T07:25:27.000Z</time>
      </trkpt>
      <trkpt lat="44.593" lon="6.85503">
        <ele>1948</ele>
        <time>2020-02-18T07:25:28.000Z</time>
      </trkpt>
      <trkpt lat="44.59298" lon="6.85506">
        <ele>1948</ele>
        <time>2020-02-18T07:25:31.000Z</time>
      </trkpt>
      <trkpt lat="44.59298" lon="6.85508">
        <ele>1948</ele>
        <time>2020-02-18T07:25:34.000Z</time>
      </trkpt>
      <trkpt lat="44.59297" lon="6.85509">
        <ele>1948</ele>
        <time>2020-02-18T07:25:36.000Z</time>
      </trkpt>
      <trkpt lat="44.59296" lon="6.8551">
        <ele>1949</ele>
        <time>2020-02-18T07:25:37.000Z</time>
      </trkpt>
      <trkpt lat="44.59294" lon="6.85513">
        <ele>1949</ele>
        <time>2020-02-18T07:25:41.000Z</time>
      </trkpt>
      <trkpt lat="44.59294" lon="6.85515">
        <ele>1949</ele>
        <time>2020-02-18T07:25:43.000Z</time>
      </trkpt>
      <trkpt lat="44.59294" lon="6.85516">
        <ele>1949</ele>
        <time>2020-02-18T07:25:45.000Z</time>
      </trkpt>
      <trkpt lat="44.59293" lon="6.85518">
        <ele>1949</ele>
        <time>2020-02-18T07:25:50.000Z</time>
      </trkpt>
      <trkpt lat="44.59292" lon="6.8552">
        <ele>1949</ele>
        <time>2020-02-18T07:25:53.000Z</time>
      </trkpt>
      <trkpt lat="44.59286" lon="6.85529">
        <ele>1950</ele>
        <time>2020-02-18T07:26:04.000Z</time>
      </trkpt>
      <trkpt lat="44.59279" lon="6.85538">
        <ele>1951</ele>
        <time>2020-02-18T07:26:13.000Z</time>
      </trkpt>
      <trkpt lat="44.59279" lon="6.85539">
        <ele>1951</ele>
        <time>2020-02-18T07:26:14.000Z</time>
      </trkpt>
      <trkpt lat="44.59279" lon="6.8554">
        <ele>1951</ele>
        <time>2020-02-18T07:26:16.000Z</time>
      </trkpt>
      <trkpt lat="44.59278" lon="6.85544">
        <ele>1951</ele>
        <time>2020-02-18T07:26:22.000Z</time>
      </trkpt>
      <trkpt lat="44.59277" lon="6.85544">
        <ele>1951</ele>
        <time>2020-02-18T07:26:23.000Z</time>
      </trkpt>
      <trkpt lat="44.59272" lon="6.85552">
        <ele>1952</ele>
        <time>2020-02-18T07:26:36.000Z</time>
      </trkpt>
      <trkpt lat="44.59269" lon="6.85558">
        <ele>1952</ele>
        <time>2020-02-18T07:26:45.000Z</time>
      </trkpt>
      <trkpt lat="44.59263" lon="6.85564">
        <ele>1954</ele>
        <time>2020-02-18T07:26:54.000Z</time>
      </trkpt>
      <trkpt lat="44.59262" lon="6.85566">
        <ele>1954</ele>
        <time>2020-02-18T07:26:57.000Z</time>
      </trkpt>
      <trkpt lat="44.59257" lon="6.85575">
        <ele>1956</ele>
        <time>2020-02-18T07:27:09.000Z</time>
      </trkpt>
      <trkpt lat="44.59256" lon="6.85579">
        <ele>1957</ele>
        <time>2020-02-18T07:27:14.000Z</time>
      </trkpt>
      <trkpt lat="44.59256" lon="6.85579">
        <ele>1957</ele>
        <time>2020-02-18T07:27:16.000Z</time>
      </trkpt>
      <trkpt lat="44.59256" lon="6.85581">
        <ele>1957</ele>
        <time>2020-02-18T07:27:18.000Z</time>
      </trkpt>
      <trkpt lat="44.59255" lon="6.85582">
        <ele>1957</ele>
        <time>2020-02-18T07:27:21.000Z</time>
      </trkpt>
      <trkpt lat="44.59254" lon="6.85583">
        <ele>1957</ele>
        <time>2020-02-18T07:27:23.000Z</time>
      </trkpt>
      <trkpt lat="44.59259" lon="6.85584">
        <ele>1957</ele>
        <time>2020-02-18T07:27:29.000Z</time>
      </trkpt>
      <trkpt lat="44.59259" lon="6.85587">
        <ele>1957</ele>
        <time>2020-02-18T07:27:32.000Z</time>
      </trkpt>
      <trkpt lat="44.59258" lon="6.85592">
        <ele>1957</ele>
        <time>2020-02-18T07:27:37.000Z</time>
      </trkpt>
      <trkpt lat="44.59252" lon="6.85604">
        <ele>1956</ele>
        <time>2020-02-18T07:27:46.000Z</time>
      </trkpt>
      <trkpt lat="44.59245" lon="6.85614">
        <ele>1970</ele>
        <time>2020-02-18T07:27:56.000Z</time>
      </trkpt>
      <trkpt lat="44.59245" lon="6.85615">
        <ele>1970</ele>
        <time>2020-02-18T07:27:57.000Z</time>
      </trkpt>
      <trkpt lat="44.59238" lon="6.85618">
        <ele>1971</ele>
        <time>2020-02-18T07:28:04.000Z</time>
      </trkpt>
      <trkpt lat="44.59233" lon="6.85622">
        <ele>1972</ele>
        <time>2020-02-18T07:28:08.000Z</time>
      </trkpt>
      <trkpt lat="44.59227" lon="6.85627">
        <ele>1973</ele>
        <time>2020-02-18T07:28:16.000Z</time>
      </trkpt>
      <trkpt lat="44.59221" lon="6.85633">
        <ele>1974</ele>
        <time>2020-02-18T07:28:27.000Z</time>
      </trkpt>
      <trkpt lat="44.59218" lon="6.85635">
        <ele>1974</ele>
        <time>2020-02-18T07:28:37.000Z</time>
      </trkpt>
      <trkpt lat="44.59215" lon="6.8564">
        <ele>1975</ele>
        <time>2020-02-18T07:28:46.000Z</time>
      </trkpt>
      <trkpt lat="44.59214" lon="6.85645">
        <ele>1975</ele>
        <time>2020-02-18T07:28:51.000Z</time>
      </trkpt>
      <trkpt lat="44.59212" lon="6.8565">
        <ele>1975</ele>
        <time>2020-02-18T07:28:57.000Z</time>
      </trkpt>
      <trkpt lat="44.59212" lon="6.85652">
        <ele>1975</ele>
        <time>2020-02-18T07:29:00.000Z</time>
      </trkpt>
      <trkpt lat="44.59208" lon="6.85659">
        <ele>1976</ele>
        <time>2020-02-18T07:29:08.000Z</time>
      </trkpt>
      <trkpt lat="44.59208" lon="6.8566">
        <ele>1976</ele>
        <time>2020-02-18T07:29:09.000Z</time>
      </trkpt>
      <trkpt lat="44.59204" lon="6.85667">
        <ele>1978</ele>
        <time>2020-02-18T07:29:19.000Z</time>
      </trkpt>
      <trkpt lat="44.59196" lon="6.85674">
        <ele>1980</ele>
        <time>2020-02-18T07:29:30.000Z</time>
      </trkpt>
      <trkpt lat="44.59187" lon="6.85681">
        <ele>1981</ele>
        <time>2020-02-18T07:29:41.000Z</time>
      </trkpt>
      <trkpt lat="44.59185" lon="6.85684">
        <ele>1981</ele>
        <time>2020-02-18T07:29:50.000Z</time>
      </trkpt>
      <trkpt lat="44.59184" lon="6.85684">
        <ele>1981</ele>
        <time>2020-02-18T07:29:51.000Z</time>
      </trkpt>
      <trkpt lat="44.59183" lon="6.85686">
        <ele>1982</ele>
        <time>2020-02-18T07:29:54.000Z</time>
      </trkpt>
      <trkpt lat="44.59181" lon="6.85688">
        <ele>1982</ele>
        <time>2020-02-18T07:29:58.000Z</time>
      </trkpt>
      <trkpt lat="44.5918" lon="6.8569">
        <ele>1982</ele>
        <time>2020-02-18T07:30:01.000Z</time>
      </trkpt>
      <trkpt lat="44.59177" lon="6.85695">
        <ele>1982</ele>
        <time>2020-02-18T07:30:09.000Z</time>
      </trkpt>
      <trkpt lat="44.59174" lon="6.857">
        <ele>1982</ele>
        <time>2020-02-18T07:30:15.000Z</time>
      </trkpt>
      <trkpt lat="44.59174" lon="6.85706">
        <ele>1981</ele>
        <time>2020-02-18T07:30:24.000Z</time>
      </trkpt>
      <trkpt lat="44.5917" lon="6.85713">
        <ele>1982</ele>
        <time>2020-02-18T07:30:31.000Z</time>
      </trkpt>
      <trkpt lat="44.5917" lon="6.85719">
        <ele>1982</ele>
        <time>2020-02-18T07:30:38.000Z</time>
      </trkpt>
      <trkpt lat="44.59172" lon="6.85724">
        <ele>1982</ele>
        <time>2020-02-18T07:30:44.000Z</time>
      </trkpt>
      <trkpt lat="44.59171" lon="6.85729">
        <ele>1983</ele>
        <time>2020-02-18T07:30:51.000Z</time>
      </trkpt>
      <trkpt lat="44.59169" lon="6.8573">
        <ele>1983</ele>
        <time>2020-02-18T07:30:54.000Z</time>
      </trkpt>
      <trkpt lat="44.59168" lon="6.85731">
        <ele>1983</ele>
        <time>2020-02-18T07:30:55.000Z</time>
      </trkpt>
      <trkpt lat="44.59167" lon="6.85732">
        <ele>1983</ele>
        <time>2020-02-18T07:30:57.000Z</time>
      </trkpt>
      <trkpt lat="44.59165" lon="6.85734">
        <ele>1995</ele>
        <time>2020-02-18T07:31:00.000Z</time>
      </trkpt>
      <trkpt lat="44.5916" lon="6.85737">
        <ele>1995</ele>
        <time>2020-02-18T07:31:06.000Z</time>
      </trkpt>
      <trkpt lat="44.59151" lon="6.85723">
        <ele>2000</ele>
        <time>2020-02-18T07:31:23.000Z</time>
      </trkpt>
      <trkpt lat="44.59149" lon="6.85713">
        <ele>2001</ele>
        <time>2020-02-18T07:31:30.000Z</time>
      </trkpt>
      <trkpt lat="44.59149" lon="6.85708">
        <ele>2001</ele>
        <time>2020-02-18T07:31:34.000Z</time>
      </trkpt>
      <trkpt lat="44.59148" lon="6.85703">
        <ele>2001</ele>
        <time>2020-02-18T07:31:39.000Z</time>
      </trkpt>
      <trkpt lat="44.59149" lon="6.85701">
        <ele>2001</ele>
        <time>2020-02-18T07:31:42.000Z</time>
      </trkpt>
      <trkpt lat="44.59149" lon="6.85699">
        <ele>2001</ele>
        <time>2020-02-18T07:31:43.000Z</time>
      </trkpt>
      <trkpt lat="44.59149" lon="6.85696">
        <ele>2001</ele>
        <time>2020-02-18T07:31:46.000Z</time>
      </trkpt>
      <trkpt lat="44.59149" lon="6.85693">
        <ele>2000</ele>
        <time>2020-02-18T07:31:48.000Z</time>
      </trkpt>
      <trkpt lat="44.5915" lon="6.85688">
        <ele>2000</ele>
        <time>2020-02-18T07:31:53.000Z</time>
      </trkpt>
      <trkpt lat="44.5915" lon="6.85682">
        <ele>1999</ele>
        <time>2020-02-18T07:31:58.000Z</time>
      </trkpt>
      <trkpt lat="44.5915" lon="6.8568">
        <ele>1998</ele>
        <time>2020-02-18T07:32:00.000Z</time>
      </trkpt>
      <trkpt lat="44.59152" lon="6.85671">
        <ele>1996</ele>
        <time>2020-02-18T07:32:08.000Z</time>
      </trkpt>
      <trkpt lat="44.59153" lon="6.85668">
        <ele>1996</ele>
        <time>2020-02-18T07:32:11.000Z</time>
      </trkpt>
      <trkpt lat="44.59155" lon="6.8566">
        <ele>1994</ele>
        <time>2020-02-18T07:32:18.000Z</time>
      </trkpt>
      <trkpt lat="44.59157" lon="6.85656">
        <ele>1994</ele>
        <time>2020-02-18T07:32:22.000Z</time>
      </trkpt>
      <trkpt lat="44.59156" lon="6.85649">
        <ele>1995</ele>
        <time>2020-02-18T07:32:26.000Z</time>
      </trkpt>
      <trkpt lat="44.59157" lon="6.85648">
        <ele>1995</ele>
        <time>2020-02-18T07:32:27.000Z</time>
      </trkpt>
      <trkpt lat="44.59157" lon="6.85648">
        <ele>1995</ele>
        <time>2020-02-18T07:32:28.000Z</time>
      </trkpt>
      <trkpt lat="44.5916" lon="6.85644">
        <ele>1995</ele>
        <time>2020-02-18T07:32:34.000Z</time>
      </trkpt>
      <trkpt lat="44.59163" lon="6.85639">
        <ele>1996</ele>
        <time>2020-02-18T07:32:40.000Z</time>
      </trkpt>
      <trkpt lat="44.59166" lon="6.85634">
        <ele>1996</ele>
        <time>2020-02-18T07:32:47.000Z</time>
      </trkpt>
      <trkpt lat="44.59166" lon="6.85633">
        <ele>1996</ele>
        <time>2020-02-18T07:32:48.000Z</time>
      </trkpt>
      <trkpt lat="44.59165" lon="6.85628">
        <ele>1997</ele>
        <time>2020-02-18T07:32:52.000Z</time>
      </trkpt>
      <trkpt lat="44.59164" lon="6.85627">
        <ele>1997</ele>
        <time>2020-02-18T07:32:53.000Z</time>
      </trkpt>
      <trkpt lat="44.59164" lon="6.85626">
        <ele>1997</ele>
        <time>2020-02-18T07:32:54.000Z</time>
      </trkpt>
      <trkpt lat="44.59162" lon="6.85631">
        <ele>1997</ele>
        <time>2020-02-18T07:33:02.000Z</time>
      </trkpt>
      <trkpt lat="44.59161" lon="6.85634">
        <ele>1997</ele>
        <time>2020-02-18T07:33:04.000Z</time>
      </trkpt>
      <trkpt lat="44.59158" lon="6.8564">
        <ele>1996</ele>
        <time>2020-02-18T07:33:09.000Z</time>
      </trkpt>
      <trkpt lat="44.59157" lon="6.85643">
        <ele>1996</ele>
        <time>2020-02-18T07:33:12.000Z</time>
      </trkpt>
      <trkpt lat="44.59152" lon="6.85648">
        <ele>1996</ele>
        <time>2020-02-18T07:33:17.000Z</time>
      </trkpt>
      <trkpt lat="44.59151" lon="6.85649">
        <ele>1996</ele>
        <time>2020-02-18T07:33:20.000Z</time>
      </trkpt>
      <trkpt lat="44.59146" lon="6.85654">
        <ele>1997</ele>
        <time>2020-02-18T07:33:28.000Z</time>
      </trkpt>
      <trkpt lat="44.59145" lon="6.85654">
        <ele>1997</ele>
        <time>2020-02-18T07:33:30.000Z</time>
      </trkpt>
      <trkpt lat="44.59144" lon="6.85655">
        <ele>1997</ele>
        <time>2020-02-18T07:33:31.000Z</time>
      </trkpt>
      <trkpt lat="44.5914" lon="6.85658">
        <ele>1998</ele>
        <time>2020-02-18T07:33:39.000Z</time>
      </trkpt>
      <trkpt lat="44.59139" lon="6.85667">
        <ele>2001</ele>
        <time>2020-02-18T07:33:48.000Z</time>
      </trkpt>
      <trkpt lat="44.59135" lon="6.85679">
        <ele>2003</ele>
        <time>2020-02-18T07:33:59.000Z</time>
      </trkpt>
      <trkpt lat="44.59135" lon="6.85685">
        <ele>2003</ele>
        <time>2020-02-18T07:34:06.000Z</time>
      </trkpt>
      <trkpt lat="44.59134" lon="6.85692">
        <ele>2004</ele>
        <time>2020-02-18T07:34:14.000Z</time>
      </trkpt>
      <trkpt lat="44.59132" lon="6.85695">
        <ele>2004</ele>
        <time>2020-02-18T07:34:17.000Z</time>
      </trkpt>
      <trkpt lat="44.59129" lon="6.85699">
        <ele>2005</ele>
        <time>2020-02-18T07:34:21.000Z</time>
      </trkpt>
      <trkpt lat="44.59127" lon="6.85703">
        <ele>2005</ele>
        <time>2020-02-18T07:34:25.000Z</time>
      </trkpt>
      <trkpt lat="44.59122" lon="6.85714">
        <ele>2007</ele>
        <time>2020-02-18T07:34:34.000Z</time>
      </trkpt>
      <trkpt lat="44.59121" lon="6.85716">
        <ele>2007</ele>
        <time>2020-02-18T07:34:36.000Z</time>
      </trkpt>
      <trkpt lat="44.5912" lon="6.85718">
        <ele>2007</ele>
        <time>2020-02-18T07:34:38.000Z</time>
      </trkpt>
      <trkpt lat="44.59119" lon="6.85723">
        <ele>2008</ele>
        <time>2020-02-18T07:34:42.000Z</time>
      </trkpt>
      <trkpt lat="44.59119" lon="6.85724">
        <ele>2008</ele>
        <time>2020-02-18T07:34:43.000Z</time>
      </trkpt>
      <trkpt lat="44.5912" lon="6.85727">
        <ele>2008</ele>
        <time>2020-02-18T07:34:48.000Z</time>
      </trkpt>
      <trkpt lat="44.5912" lon="6.8573">
        <ele>2008</ele>
        <time>2020-02-18T07:34:51.000Z</time>
      </trkpt>
      <trkpt lat="44.59121" lon="6.85736">
        <ele>2008</ele>
        <time>2020-02-18T07:34:57.000Z</time>
      </trkpt>
      <trkpt lat="44.59121" lon="6.85739">
        <ele>2008</ele>
        <time>2020-02-18T07:35:00.000Z</time>
      </trkpt>
      <trkpt lat="44.5912" lon="6.85742">
        <ele>2008</ele>
        <time>2020-02-18T07:35:02.000Z</time>
      </trkpt>
      <trkpt lat="44.59116" lon="6.85748">
        <ele>2010</ele>
        <time>2020-02-18T07:35:07.000Z</time>
      </trkpt>
      <trkpt lat="44.59112" lon="6.85751">
        <ele>2015</ele>
        <time>2020-02-18T07:35:14.000Z</time>
      </trkpt>
      <trkpt lat="44.59114" lon="6.85762">
        <ele>2014</ele>
        <time>2020-02-18T07:35:26.000Z</time>
      </trkpt>
      <trkpt lat="44.59114" lon="6.8577">
        <ele>2014</ele>
        <time>2020-02-18T07:35:33.000Z</time>
      </trkpt>
      <trkpt lat="44.59114" lon="6.85779">
        <ele>2014</ele>
        <time>2020-02-18T07:35:42.000Z</time>
      </trkpt>
      <trkpt lat="44.59111" lon="6.85784">
        <ele>2015</ele>
        <time>2020-02-18T07:35:48.000Z</time>
      </trkpt>
      <trkpt lat="44.59112" lon="6.85792">
        <ele>2015</ele>
        <time>2020-02-18T07:35:57.000Z</time>
      </trkpt>
      <trkpt lat="44.59114" lon="6.858">
        <ele>2015</ele>
        <time>2020-02-18T07:36:06.000Z</time>
      </trkpt>
      <trkpt lat="44.59113" lon="6.85806">
        <ele>2016</ele>
        <time>2020-02-18T07:36:13.000Z</time>
      </trkpt>
      <trkpt lat="44.59111" lon="6.85811">
        <ele>2017</ele>
        <time>2020-02-18T07:36:20.000Z</time>
      </trkpt>
      <trkpt lat="44.59115" lon="6.85818">
        <ele>2016</ele>
        <time>2020-02-18T07:36:29.000Z</time>
      </trkpt>
      <trkpt lat="44.59116" lon="6.85825">
        <ele>2017</ele>
        <time>2020-02-18T07:36:38.000Z</time>
      </trkpt>
      <trkpt lat="44.59119" lon="6.8583">
        <ele>2016</ele>
        <time>2020-02-18T07:36:44.000Z</time>
      </trkpt>
      <trkpt lat="44.59119" lon="6.85831">
        <ele>2016</ele>
        <time>2020-02-18T07:36:45.000Z</time>
      </trkpt>
      <trkpt lat="44.59119" lon="6.85837">
        <ele>2024</ele>
        <time>2020-02-18T07:36:53.000Z</time>
      </trkpt>
      <trkpt lat="44.59121" lon="6.85845">
        <ele>2024</ele>
        <time>2020-02-18T07:37:00.000Z</time>
      </trkpt>
      <trkpt lat="44.59121" lon="6.85847">
        <ele>2024</ele>
        <time>2020-02-18T07:37:02.000Z</time>
      </trkpt>
      <trkpt lat="44.59122" lon="6.85852">
        <ele>2024</ele>
        <time>2020-02-18T07:37:08.000Z</time>
      </trkpt>
      <trkpt lat="44.59123" lon="6.85855">
        <ele>2024</ele>
        <time>2020-02-18T07:37:11.000Z</time>
      </trkpt>
      <trkpt lat="44.59122" lon="6.85863">
        <ele>2024</ele>
        <time>2020-02-18T07:37:18.000Z</time>
      </trkpt>
      <trkpt lat="44.59121" lon="6.8587">
        <ele>2025</ele>
        <time>2020-02-18T07:37:25.000Z</time>
      </trkpt>
      <trkpt lat="44.59119" lon="6.85877">
        <ele>2026</ele>
        <time>2020-02-18T07:37:32.000Z</time>
      </trkpt>
      <trkpt lat="44.59117" lon="6.85883">
        <ele>2027</ele>
        <time>2020-02-18T07:37:41.000Z</time>
      </trkpt>
      <trkpt lat="44.59114" lon="6.85889">
        <ele>2028</ele>
        <time>2020-02-18T07:37:48.000Z</time>
      </trkpt>
      <trkpt lat="44.59112" lon="6.8589">
        <ele>2028</ele>
        <time>2020-02-18T07:37:51.000Z</time>
      </trkpt>
      <trkpt lat="44.59112" lon="6.85891">
        <ele>2028</ele>
        <time>2020-02-18T07:37:52.000Z</time>
      </trkpt>
      <trkpt lat="44.59109" lon="6.85893">
        <ele>2029</ele>
        <time>2020-02-18T07:37:56.000Z</time>
      </trkpt>
      <trkpt lat="44.59108" lon="6.859">
        <ele>2030</ele>
        <time>2020-02-18T07:38:06.000Z</time>
      </trkpt>
      <trkpt lat="44.591" lon="6.85907">
        <ele>2033</ele>
        <time>2020-02-18T07:38:16.000Z</time>
      </trkpt>
      <trkpt lat="44.59099" lon="6.85913">
        <ele>2034</ele>
        <time>2020-02-18T07:38:25.000Z</time>
      </trkpt>
      <trkpt lat="44.59094" lon="6.85919">
        <ele>2042</ele>
        <time>2020-02-18T07:38:33.000Z</time>
      </trkpt>
      <trkpt lat="44.59087" lon="6.85922">
        <ele>2042</ele>
        <time>2020-02-18T07:38:41.000Z</time>
      </trkpt>
      <trkpt lat="44.59082" lon="6.85924">
        <ele>2046</ele>
        <time>2020-02-18T07:38:48.000Z</time>
      </trkpt>
      <trkpt lat="44.5907" lon="6.85926">
        <ele>2049</ele>
        <time>2020-02-18T07:39:01.000Z</time>
      </trkpt>
      <trkpt lat="44.5906" lon="6.85922">
        <ele>2051</ele>
        <time>2020-02-18T07:39:13.000Z</time>
      </trkpt>
      <trkpt lat="44.59057" lon="6.85919">
        <ele>2051</ele>
        <time>2020-02-18T07:39:17.000Z</time>
      </trkpt>
      <trkpt lat="44.59054" lon="6.85917">
        <ele>2051</ele>
        <time>2020-02-18T07:39:22.000Z</time>
      </trkpt>
      <trkpt lat="44.59053" lon="6.85917">
        <ele>2052</ele>
        <time>2020-02-18T07:39:23.000Z</time>
      </trkpt>
      <trkpt lat="44.59052" lon="6.85917">
        <ele>2052</ele>
        <time>2020-02-18T07:39:24.000Z</time>
      </trkpt>
      <trkpt lat="44.5905" lon="6.85915">
        <ele>2043</ele>
        <time>2020-02-18T07:39:26.000Z</time>
      </trkpt>
      <trkpt lat="44.59048" lon="6.85914">
        <ele>2043</ele>
        <time>2020-02-18T07:39:27.000Z</time>
      </trkpt>
      <trkpt lat="44.59045" lon="6.85912">
        <ele>2043</ele>
        <time>2020-02-18T07:39:30.000Z</time>
      </trkpt>
      <trkpt lat="44.5904" lon="6.8591">
        <ele>2043</ele>
        <time>2020-02-18T07:39:36.000Z</time>
      </trkpt>
      <trkpt lat="44.59033" lon="6.85905">
        <ele>2044</ele>
        <time>2020-02-18T07:39:47.000Z</time>
      </trkpt>
      <trkpt lat="44.59026" lon="6.85898">
        <ele>2044</ele>
        <time>2020-02-18T07:39:57.000Z</time>
      </trkpt>
      <trkpt lat="44.59021" lon="6.85889">
        <ele>2044</ele>
        <time>2020-02-18T07:40:06.000Z</time>
      </trkpt>
      <trkpt lat="44.59017" lon="6.85882">
        <ele>2043</ele>
        <time>2020-02-18T07:40:16.000Z</time>
      </trkpt>
      <trkpt lat="44.5901" lon="6.85882">
        <ele>2044</ele>
        <time>2020-02-18T07:40:25.000Z</time>
      </trkpt>
      <trkpt lat="44.59008" lon="6.85881">
        <ele>2044</ele>
        <time>2020-02-18T07:40:26.000Z</time>
      </trkpt>
      <trkpt lat="44.59001" lon="6.85878">
        <ele>2043</ele>
        <time>2020-02-18T07:40:35.000Z</time>
      </trkpt>
      <trkpt lat="44.58997" lon="6.85875">
        <ele>2048</ele>
        <time>2020-02-18T07:40:40.000Z</time>
      </trkpt>
      <trkpt lat="44.58994" lon="6.85874">
        <ele>2049</ele>
        <time>2020-02-18T07:40:45.000Z</time>
      </trkpt>
      <trkpt lat="44.58995" lon="6.85874">
        <ele>2049</ele>
        <time>2020-02-18T07:40:51.000Z</time>
      </trkpt>
      <trkpt lat="44.58992" lon="6.85878">
        <ele>2049</ele>
        <time>2020-02-18T07:41:01.000Z</time>
      </trkpt>
      <trkpt lat="44.58989" lon="6.85881">
        <ele>2049</ele>
        <time>2020-02-18T07:41:04.000Z</time>
      </trkpt>
      <trkpt lat="44.58988" lon="6.85882">
        <ele>2049</ele>
        <time>2020-02-18T07:41:07.000Z</time>
      </trkpt>
      <trkpt lat="44.58985" lon="6.85885">
        <ele>2049</ele>
        <time>2020-02-18T07:41:10.000Z</time>
      </trkpt>
      <trkpt lat="44.58979" lon="6.8589">
        <ele>2050</ele>
        <time>2020-02-18T07:41:17.000Z</time>
      </trkpt>
      <trkpt lat="44.58977" lon="6.85891">
        <ele>2050</ele>
        <time>2020-02-18T07:41:21.000Z</time>
      </trkpt>
      <trkpt lat="44.58975" lon="6.85893">
        <ele>2050</ele>
        <time>2020-02-18T07:41:26.000Z</time>
      </trkpt>
      <trkpt lat="44.5897" lon="6.85898">
        <ele>2050</ele>
        <time>2020-02-18T07:41:34.000Z</time>
      </trkpt>
      <trkpt lat="44.58968" lon="6.859">
        <ele>2050</ele>
        <time>2020-02-18T07:41:42.000Z</time>
      </trkpt>
      <trkpt lat="44.58961" lon="6.85905">
        <ele>2051</ele>
        <time>2020-02-18T07:42:00.000Z</time>
      </trkpt>
      <trkpt lat="44.5896" lon="6.85906">
        <ele>2051</ele>
        <time>2020-02-18T07:42:01.000Z</time>
      </trkpt>
      <trkpt lat="44.58956" lon="6.85907">
        <ele>2051</ele>
        <time>2020-02-18T07:42:07.000Z</time>
      </trkpt>
      <trkpt lat="44.58954" lon="6.85908">
        <ele>2051</ele>
        <time>2020-02-18T07:42:10.000Z</time>
      </trkpt>
      <trkpt lat="44.58951" lon="6.85908">
        <ele>2051</ele>
        <time>2020-02-18T07:42:13.000Z</time>
      </trkpt>
      <trkpt lat="44.58949" lon="6.85909">
        <ele>2052</ele>
        <time>2020-02-18T07:42:16.000Z</time>
      </trkpt>
      <trkpt lat="44.58947" lon="6.8591">
        <ele>2052</ele>
        <time>2020-02-18T07:42:18.000Z</time>
      </trkpt>
      <trkpt lat="44.58944" lon="6.85911">
        <ele>2052</ele>
        <time>2020-02-18T07:42:21.000Z</time>
      </trkpt>
      <trkpt lat="44.58942" lon="6.85912">
        <ele>2052</ele>
        <time>2020-02-18T07:42:22.000Z</time>
      </trkpt>
      <trkpt lat="44.58941" lon="6.85913">
        <ele>2052</ele>
        <time>2020-02-18T07:42:24.000Z</time>
      </trkpt>
      <trkpt lat="44.5894" lon="6.85912">
        <ele>2052</ele>
        <time>2020-02-18T07:42:26.000Z</time>
      </trkpt>
      <trkpt lat="44.58938" lon="6.85913">
        <ele>2053</ele>
        <time>2020-02-18T07:42:31.000Z</time>
      </trkpt>
      <trkpt lat="44.58937" lon="6.85911">
        <ele>2053</ele>
        <time>2020-02-18T07:42:44.000Z</time>
      </trkpt>
      <trkpt lat="44.58938" lon="6.8591">
        <ele>2053</ele>
        <time>2020-02-18T07:42:47.000Z</time>
      </trkpt>
      <trkpt lat="44.58939" lon="6.8591">
        <ele>2052</ele>
        <time>2020-02-18T07:42:49.000Z</time>
      </trkpt>
      <trkpt lat="44.58938" lon="6.8591">
        <ele>2053</ele>
        <time>2020-02-18T07:42:51.000Z</time>
      </trkpt>
      <trkpt lat="44.58938" lon="6.8591">
        <ele>2053</ele>
        <time>2020-02-18T07:42:53.000Z</time>
      </trkpt>
      <trkpt lat="44.58938" lon="6.8591">
        <ele>2053</ele>
        <time>2020-02-18T07:42:55.000Z</time>
      </trkpt>
      <trkpt lat="44.58938" lon="6.85911">
        <ele>2053</ele>
        <time>2020-02-18T07:42:59.000Z</time>
      </trkpt>
      <trkpt lat="44.58933" lon="6.85912">
        <ele>2053</ele>
        <time>2020-02-18T07:43:06.000Z</time>
      </trkpt>
      <trkpt lat="44.58933" lon="6.85912">
        <ele>2053</ele>
        <time>2020-02-18T07:43:10.000Z</time>
      </trkpt>
      <trkpt lat="44.58933" lon="6.85913">
        <ele>2053</ele>
        <time>2020-02-18T07:43:15.000Z</time>
      </trkpt>
      <trkpt lat="44.58933" lon="6.85913">
        <ele>2053</ele>
        <time>2020-02-18T07:43:19.000Z</time>
      </trkpt>
      <trkpt lat="44.58932" lon="6.85913">
        <ele>2053</ele>
        <time>2020-02-18T07:43:25.000Z</time>
      </trkpt>
      <trkpt lat="44.58931" lon="6.85911">
        <ele>2053</ele>
        <time>2020-02-18T07:43:54.000Z</time>
      </trkpt>
      <trkpt lat="44.58931" lon="6.85911">
        <ele>2053</ele>
        <time>2020-02-18T07:43:56.000Z</time>
      </trkpt>
      <trkpt lat="44.58932" lon="6.8591">
        <ele>2053</ele>
        <time>2020-02-18T07:43:59.000Z</time>
      </trkpt>
      <trkpt lat="44.58932" lon="6.8591">
        <ele>2053</ele>
        <time>2020-02-18T07:44:00.000Z</time>
      </trkpt>
      <trkpt lat="44.58932" lon="6.8591">
        <ele>2053</ele>
        <time>2020-02-18T07:44:01.000Z</time>
      </trkpt>
      <trkpt lat="44.58932" lon="6.8591">
        <ele>2053</ele>
        <time>2020-02-18T07:44:02.000Z</time>
      </trkpt>
      <trkpt lat="44.58932" lon="6.8591">
        <ele>2053</ele>
        <time>2020-02-18T07:44:07.000Z</time>
      </trkpt>
      <trkpt lat="44.58932" lon="6.8591">
        <ele>2053</ele>
        <time>2020-02-18T07:44:09.000Z</time>
      </trkpt>
      <trkpt lat="44.58932" lon="6.8591">
        <ele>2053</ele>
        <time>2020-02-18T07:44:13.000Z</time>
      </trkpt>
      <trkpt lat="44.58932" lon="6.8591">
        <ele>2053</ele>
        <time>2020-02-18T07:44:14.000Z</time>
      </trkpt>
      <trkpt lat="44.58932" lon="6.8591">
        <ele>2053</ele>
        <time>2020-02-18T07:44:15.000Z</time>
      </trkpt>
      <trkpt lat="44.58932" lon="6.8591">
        <ele>2053</ele>
        <time>2020-02-18T07:44:18.000Z</time>
      </trkpt>
      <trkpt lat="44.58932" lon="6.8591">
        <ele>2053</ele>
        <time>2020-02-18T07:44:22.000Z</time>
      </trkpt>
      <trkpt lat="44.58932" lon="6.8591">
        <ele>2053</ele>
        <time>2020-02-18T07:44:25.000Z</time>
      </trkpt>
      <trkpt lat="44.58932" lon="6.8591">
        <ele>2053</ele>
        <time>2020-02-18T07:44:32.000Z</time>
      </trkpt>
      <trkpt lat="44.58932" lon="6.8591">
        <ele>2053</ele>
        <time>2020-02-18T07:44:35.000Z</time>
      </trkpt>
      <trkpt lat="44.58932" lon="6.8591">
        <ele>2053</ele>
        <time>2020-02-18T07:44:37.000Z</time>
      </trkpt>
      <trkpt lat="44.58932" lon="6.85909">
        <ele>2053</ele>
        <time>2020-02-18T07:44:44.000Z</time>
      </trkpt>
      <trkpt lat="44.58933" lon="6.85908">
        <ele>2053</ele>
        <time>2020-02-18T07:44:47.000Z</time>
      </trkpt>
      <trkpt lat="44.58934" lon="6.85907">
        <ele>2053</ele>
        <time>2020-02-18T07:44:49.000Z</time>
      </trkpt>
      <trkpt lat="44.58936" lon="6.85911">
        <ele>2053</ele>
        <time>2020-02-18T07:44:53.000Z</time>
      </trkpt>
      <trkpt lat="44.58936" lon="6.85912">
        <ele>2053</ele>
        <time>2020-02-18T07:44:59.000Z</time>
      </trkpt>
      <trkpt lat="44.58937" lon="6.85911">
        <ele>2053</ele>
        <time>2020-02-18T07:45:05.000Z</time>
      </trkpt>
      <trkpt lat="44.58936" lon="6.85911">
        <ele>2053</ele>
        <time>2020-02-18T07:45:15.000Z</time>
      </trkpt>
      <trkpt lat="44.58935" lon="6.85912">
        <ele>2053</ele>
        <time>2020-02-18T07:45:24.000Z</time>
      </trkpt>
      <trkpt lat="44.58934" lon="6.85911">
        <ele>2053</ele>
        <time>2020-02-18T07:45:40.000Z</time>
      </trkpt>
      <trkpt lat="44.58933" lon="6.8591">
        <ele>2053</ele>
        <time>2020-02-18T07:45:45.000Z</time>
      </trkpt>
      <trkpt lat="44.58935" lon="6.85909">
        <ele>2053</ele>
        <time>2020-02-18T07:45:51.000Z</time>
      </trkpt>
      <trkpt lat="44.58935" lon="6.8591">
        <ele>2053</ele>
        <time>2020-02-18T07:45:56.000Z</time>
      </trkpt>
      <trkpt lat="44.58935" lon="6.85911">
        <ele>2053</ele>
        <time>2020-02-18T07:45:58.000Z</time>
      </trkpt>
      <trkpt lat="44.58935" lon="6.85903">
        <ele>2052</ele>
        <time>2020-02-18T07:46:09.000Z</time>
      </trkpt>
      <trkpt lat="44.58935" lon="6.85901">
        <ele>2052</ele>
        <time>2020-02-18T07:46:13.000Z</time>
      </trkpt>
      <trkpt lat="44.58931" lon="6.85897">
        <ele>2052</ele>
        <time>2020-02-18T07:46:23.000Z</time>
      </trkpt>
      <trkpt lat="44.5893" lon="6.85893">
        <ele>2052</ele>
        <time>2020-02-18T07:46:30.000Z</time>
      </trkpt>
      <trkpt lat="44.58933" lon="6.85911">
        <ele>2053</ele>
        <time>2020-02-18T07:46:34.000Z</time>
      </trkpt>
      <trkpt lat="44.58934" lon="6.85912">
        <ele>2053</ele>
        <time>2020-02-18T07:46:36.000Z</time>
      </trkpt>
      <trkpt lat="44.58934" lon="6.85913">
        <ele>2053</ele>
        <time>2020-02-18T07:46:40.000Z</time>
      </trkpt>
      <trkpt lat="44.58934" lon="6.85913">
        <ele>2053</ele>
        <time>2020-02-18T07:46:41.000Z</time>
      </trkpt>
      <trkpt lat="44.58937" lon="6.85913">
        <ele>2053</ele>
        <time>2020-02-18T07:46:52.000Z</time>
      </trkpt>
      <trkpt lat="44.58939" lon="6.85912">
        <ele>2053</ele>
        <time>2020-02-18T07:46:55.000Z</time>
      </trkpt>
      <trkpt lat="44.5894" lon="6.85912">
        <ele>2052</ele>
        <time>2020-02-18T07:46:57.000Z</time>
      </trkpt>
      <trkpt lat="44.58938" lon="6.85913">
        <ele>2053</ele>
        <time>2020-02-18T07:46:59.000Z</time>
      </trkpt>
      <trkpt lat="44.5894" lon="6.85913">
        <ele>2052</ele>
        <time>2020-02-18T07:47:01.000Z</time>
      </trkpt>
      <trkpt lat="44.58939" lon="6.85912">
        <ele>2053</ele>
        <time>2020-02-18T07:47:05.000Z</time>
      </trkpt>
      <trkpt lat="44.58939" lon="6.85912">
        <ele>2053</ele>
        <time>2020-02-18T07:47:06.000Z</time>
      </trkpt>
      <trkpt lat="44.58939" lon="6.85912">
        <ele>2053</ele>
        <time>2020-02-18T07:47:07.000Z</time>
      </trkpt>
      <trkpt lat="44.58939" lon="6.85912">
        <ele>2053</ele>
        <time>2020-02-18T07:47:08.000Z</time>
      </trkpt>
      <trkpt lat="44.58936" lon="6.85914">
        <ele>2053</ele>
        <time>2020-02-18T07:47:19.000Z</time>
      </trkpt>
      <trkpt lat="44.58936" lon="6.85914">
        <ele>2053</ele>
        <time>2020-02-18T07:47:20.000Z</time>
      </trkpt>
      <trkpt lat="44.58936" lon="6.85914">
        <ele>2053</ele>
        <time>2020-02-18T07:47:21.000Z</time>
      </trkpt>
      <trkpt lat="44.58935" lon="6.85914">
        <ele>2053</ele>
        <time>2020-02-18T07:47:24.000Z</time>
      </trkpt>
      <trkpt lat="44.58934" lon="6.85913">
        <ele>2053</ele>
        <time>2020-02-18T07:47:26.000Z</time>
      </trkpt>
      <trkpt lat="44.58934" lon="6.85913">
        <ele>2053</ele>
        <time>2020-02-18T07:47:27.000Z</time>
      </trkpt>
      <trkpt lat="44.58934" lon="6.85912">
        <ele>2053</ele>
        <time>2020-02-18T07:47:29.000Z</time>
      </trkpt>
      <trkpt lat="44.58933" lon="6.85911">
        <ele>2053</ele>
        <time>2020-02-18T07:47:30.000Z</time>
      </trkpt>
      <trkpt lat="44.58933" lon="6.8591">
        <ele>2053</ele>
        <time>2020-02-18T07:47:32.000Z</time>
      </trkpt>
      <trkpt lat="44.58933" lon="6.85909">
        <ele>2053</ele>
        <time>2020-02-18T07:47:38.000Z</time>
      </trkpt>
      <trkpt lat="44.58933" lon="6.85909">
        <ele>2053</ele>
        <time>2020-02-18T07:47:42.000Z</time>
      </trkpt>
      <trkpt lat="44.58933" lon="6.85909">
        <ele>2053</ele>
        <time>2020-02-18T07:47:43.000Z</time>
      </trkpt>
      <trkpt lat="44.58933" lon="6.85909">
        <ele>2053</ele>
        <time>2020-02-18T07:47:54.000Z</time>
      </trkpt>
      <trkpt lat="44.58934" lon="6.85909">
        <ele>2053</ele>
        <time>2020-02-18T07:47:55.000Z</time>
      </trkpt>
      <trkpt lat="44.58933" lon="6.85908">
        <ele>2053</ele>
        <time>2020-02-18T07:47:58.000Z</time>
      </trkpt>
      <trkpt lat="44.58933" lon="6.85908">
        <ele>2053</ele>
        <time>2020-02-18T07:48:00.000Z</time>
      </trkpt>
      <trkpt lat="44.58934" lon="6.85908">
        <ele>2053</ele>
        <time>2020-02-18T07:48:07.000Z</time>
      </trkpt>
      <trkpt lat="44.58934" lon="6.85908">
        <ele>2053</ele>
        <time>2020-02-18T07:48:08.000Z</time>
      </trkpt>
      <trkpt lat="44.58936" lon="6.85909">
        <ele>2053</ele>
        <time>2020-02-18T07:48:18.000Z</time>
      </trkpt>
      <trkpt lat="44.58934" lon="6.8591">
        <ele>2053</ele>
        <time>2020-02-18T07:48:21.000Z</time>
      </trkpt>
      <trkpt lat="44.58933" lon="6.85911">
        <ele>2053</ele>
        <time>2020-02-18T07:48:26.000Z</time>
      </trkpt>
      <trkpt lat="44.5893" lon="6.85913">
        <ele>2053</ele>
        <time>2020-02-18T07:48:32.000Z</time>
      </trkpt>
      <trkpt lat="44.5893" lon="6.85913">
        <ele>2054</ele>
        <time>2020-02-18T07:48:35.000Z</time>
      </trkpt>
      <trkpt lat="44.58932" lon="6.85913">
        <ele>2053</ele>
        <time>2020-02-18T07:48:39.000Z</time>
      </trkpt>
      <trkpt lat="44.58934" lon="6.85914">
        <ele>2053</ele>
        <time>2020-02-18T07:48:50.000Z</time>
      </trkpt>
      <trkpt lat="44.58935" lon="6.85914">
        <ele>2053</ele>
        <time>2020-02-18T07:48:53.000Z</time>
      </trkpt>
      <trkpt lat="44.58935" lon="6.85913">
        <ele>2053</ele>
        <time>2020-02-18T07:48:57.000Z</time>
      </trkpt>
      <trkpt lat="44.58933" lon="6.85911">
        <ele>2053</ele>
        <time>2020-02-18T07:49:01.000Z</time>
      </trkpt>
      <trkpt lat="44.58934" lon="6.85912">
        <ele>2053</ele>
        <time>2020-02-18T07:49:04.000Z</time>
      </trkpt>
      <trkpt lat="44.58933" lon="6.85912">
        <ele>2053</ele>
        <time>2020-02-18T07:49:10.000Z</time>
      </trkpt>
      <trkpt lat="44.58934" lon="6.85913">
        <ele>2053</ele>
        <time>2020-02-18T07:49:14.000Z</time>
      </trkpt>
      <trkpt lat="44.58933" lon="6.85913">
        <ele>2053</ele>
        <time>2020-02-18T07:49:15.000Z</time>
      </trkpt>
      <trkpt lat="44.58934" lon="6.85913">
        <ele>2053</ele>
        <time>2020-02-18T07:49:19.000Z</time>
      </trkpt>
      <trkpt lat="44.58934" lon="6.85913">
        <ele>2053</ele>
        <time>2020-02-18T07:49:22.000Z</time>
      </trkpt>
      <trkpt lat="44.58934" lon="6.85913">
        <ele>2053</ele>
        <time>2020-02-18T07:49:23.000Z</time>
      </trkpt>
      <trkpt lat="44.58934" lon="6.85913">
        <ele>2053</ele>
        <time>2020-02-18T07:49:24.000Z</time>
      </trkpt>
      <trkpt lat="44.58934" lon="6.85913">
        <ele>2053</ele>
        <time>2020-02-18T07:49:28.000Z</time>
      </trkpt>
      <trkpt lat="44.58934" lon="6.85913">
        <ele>2053</ele>
        <time>2020-02-18T07:49:29.000Z</time>
      </trkpt>
      <trkpt lat="44.58934" lon="6.85913">
        <ele>2053</ele>
        <time>2020-02-18T07:49:31.000Z</time>
      </trkpt>
      <trkpt lat="44.5893" lon="6.85921">
        <ele>2059</ele>
        <time>2020-02-18T07:49:38.000Z</time>
      </trkpt>
      <trkpt lat="44.58929" lon="6.85921">
        <ele>2059</ele>
        <time>2020-02-18T07:49:39.000Z</time>
      </trkpt>
      <trkpt lat="44.58927" lon="6.85924">
        <ele>2059</ele>
        <time>2020-02-18T07:49:41.000Z</time>
      </trkpt>
      <trkpt lat="44.58925" lon="6.85926">
        <ele>2059</ele>
        <time>2020-02-18T07:49:45.000Z</time>
      </trkpt>
      <trkpt lat="44.58924" lon="6.85927">
        <ele>2059</ele>
        <time>2020-02-18T07:49:46.000Z</time>
      </trkpt>
      <trkpt lat="44.58923" lon="6.85928">
        <ele>2059</ele>
        <time>2020-02-18T07:49:48.000Z</time>
      </trkpt>
      <trkpt lat="44.58922" lon="6.85928">
        <ele>2059</ele>
        <time>2020-02-18T07:49:49.000Z</time>
      </trkpt>
      <trkpt lat="44.58921" lon="6.85929">
        <ele>2059</ele>
        <time>2020-02-18T07:49:50.000Z</time>
      </trkpt>
      <trkpt lat="44.58921" lon="6.85929">
        <ele>2059</ele>
        <time>2020-02-18T07:49:51.000Z</time>
      </trkpt>
      <trkpt lat="44.58916" lon="6.85933">
        <ele>2063</ele>
        <time>2020-02-18T07:50:00.000Z</time>
      </trkpt>
      <trkpt lat="44.58912" lon="6.85934">
        <ele>2063</ele>
        <time>2020-02-18T07:50:05.000Z</time>
      </trkpt>
      <trkpt lat="44.58908" lon="6.85936">
        <ele>2064</ele>
        <time>2020-02-18T07:50:11.000Z</time>
      </trkpt>
      <trkpt lat="44.58903" lon="6.8594">
        <ele>2066</ele>
        <time>2020-02-18T07:50:17.000Z</time>
      </trkpt>
      <trkpt lat="44.58899" lon="6.85942">
        <ele>2066</ele>
        <time>2020-02-18T07:50:22.000Z</time>
      </trkpt>
      <trkpt lat="44.58897" lon="6.85945">
        <ele>2067</ele>
        <time>2020-02-18T07:50:27.000Z</time>
      </trkpt>
      <trkpt lat="44.58892" lon="6.8595">
        <ele>2068</ele>
        <time>2020-02-18T07:50:33.000Z</time>
      </trkpt>
      <trkpt lat="44.58892" lon="6.85951">
        <ele>2068</ele>
        <time>2020-02-18T07:50:34.000Z</time>
      </trkpt>
      <trkpt lat="44.58891" lon="6.85952">
        <ele>2068</ele>
        <time>2020-02-18T07:50:35.000Z</time>
      </trkpt>
      <trkpt lat="44.58888" lon="6.85953">
        <ele>2069</ele>
        <time>2020-02-18T07:50:42.000Z</time>
      </trkpt>
      <trkpt lat="44.58885" lon="6.85956">
        <ele>2069</ele>
        <time>2020-02-18T07:50:45.000Z</time>
      </trkpt>
      <trkpt lat="44.58883" lon="6.85957">
        <ele>2069</ele>
        <time>2020-02-18T07:50:47.000Z</time>
      </trkpt>
      <trkpt lat="44.58882" lon="6.85957">
        <ele>2069</ele>
        <time>2020-02-18T07:50:48.000Z</time>
      </trkpt>
      <trkpt lat="44.58879" lon="6.85958">
        <ele>2070</ele>
        <time>2020-02-18T07:50:53.000Z</time>
      </trkpt>
      <trkpt lat="44.58879" lon="6.85958">
        <ele>2070</ele>
        <time>2020-02-18T07:50:54.000Z</time>
      </trkpt>
      <trkpt lat="44.58879" lon="6.85958">
        <ele>2070</ele>
        <time>2020-02-18T07:50:55.000Z</time>
      </trkpt>
      <trkpt lat="44.5888" lon="6.85959">
        <ele>2070</ele>
        <time>2020-02-18T07:51:00.000Z</time>
      </trkpt>
      <trkpt lat="44.58879" lon="6.85961">
        <ele>2070</ele>
        <time>2020-02-18T07:51:02.000Z</time>
      </trkpt>
      <trkpt lat="44.58876" lon="6.85964">
        <ele>2070</ele>
        <time>2020-02-18T07:51:06.000Z</time>
      </trkpt>
      <trkpt lat="44.58872" lon="6.85971">
        <ele>2071</ele>
        <time>2020-02-18T07:51:13.000Z</time>
      </trkpt>
      <trkpt lat="44.58873" lon="6.85973">
        <ele>2071</ele>
        <time>2020-02-18T07:51:15.000Z</time>
      </trkpt>
      <trkpt lat="44.5887" lon="6.85973">
        <ele>2071</ele>
        <time>2020-02-18T07:51:19.000Z</time>
      </trkpt>
      <trkpt lat="44.58867" lon="6.85973">
        <ele>2072</ele>
        <time>2020-02-18T07:51:24.000Z</time>
      </trkpt>
      <trkpt lat="44.58865" lon="6.85973">
        <ele>2072</ele>
        <time>2020-02-18T07:51:28.000Z</time>
      </trkpt>
      <trkpt lat="44.58859" lon="6.85977">
        <ele>2073</ele>
        <time>2020-02-18T07:51:37.000Z</time>
      </trkpt>
      <trkpt lat="44.58858" lon="6.85979">
        <ele>2073</ele>
        <time>2020-02-18T07:51:39.000Z</time>
      </trkpt>
      <trkpt lat="44.58858" lon="6.85979">
        <ele>2073</ele>
        <time>2020-02-18T07:51:40.000Z</time>
      </trkpt>
      <trkpt lat="44.58855" lon="6.85983">
        <ele>2073</ele>
        <time>2020-02-18T07:51:47.000Z</time>
      </trkpt>
      <trkpt lat="44.58851" lon="6.85985">
        <ele>2074</ele>
        <time>2020-02-18T07:51:55.000Z</time>
      </trkpt>
      <trkpt lat="44.58846" lon="6.85984">
        <ele>2075</ele>
        <time>2020-02-18T07:52:03.000Z</time>
      </trkpt>
      <trkpt lat="44.58842" lon="6.85986">
        <ele>2075</ele>
        <time>2020-02-18T07:52:11.000Z</time>
      </trkpt>
      <trkpt lat="44.58833" lon="6.85989">
        <ele>2081</ele>
        <time>2020-02-18T07:52:22.000Z</time>
      </trkpt>
      <trkpt lat="44.5883" lon="6.85987">
        <ele>2082</ele>
        <time>2020-02-18T07:52:28.000Z</time>
      </trkpt>
      <trkpt lat="44.58829" lon="6.85988">
        <ele>2082</ele>
        <time>2020-02-18T07:52:29.000Z</time>
      </trkpt>
      <trkpt lat="44.58825" lon="6.85989">
        <ele>2082</ele>
        <time>2020-02-18T07:52:40.000Z</time>
      </trkpt>
      <trkpt lat="44.58824" lon="6.85989">
        <ele>2082</ele>
        <time>2020-02-18T07:52:41.000Z</time>
      </trkpt>
      <trkpt lat="44.58827" lon="6.85988">
        <ele>2082</ele>
        <time>2020-02-18T07:52:44.000Z</time>
      </trkpt>
      <trkpt lat="44.58831" lon="6.85988">
        <ele>2082</ele>
        <time>2020-02-18T07:52:47.000Z</time>
      </trkpt>
      <trkpt lat="44.58828" lon="6.85989">
        <ele>2082</ele>
        <time>2020-02-18T07:52:52.000Z</time>
      </trkpt>
      <trkpt lat="44.58827" lon="6.85989">
        <ele>2082</ele>
        <time>2020-02-18T07:52:53.000Z</time>
      </trkpt>
      <trkpt lat="44.58826" lon="6.85989">
        <ele>2082</ele>
        <time>2020-02-18T07:52:54.000Z</time>
      </trkpt>
      <trkpt lat="44.58825" lon="6.85989">
        <ele>2082</ele>
        <time>2020-02-18T07:52:56.000Z</time>
      </trkpt>
      <trkpt lat="44.58822" lon="6.85988">
        <ele>2082</ele>
        <time>2020-02-18T07:53:03.000Z</time>
      </trkpt>
      <trkpt lat="44.58815" lon="6.85988">
        <ele>2083</ele>
        <time>2020-02-18T07:53:15.000Z</time>
      </trkpt>
      <trkpt lat="44.58814" lon="6.85988">
        <ele>2083</ele>
        <time>2020-02-18T07:53:21.000Z</time>
      </trkpt>
      <trkpt lat="44.58813" lon="6.85988">
        <ele>2083</ele>
        <time>2020-02-18T07:53:24.000Z</time>
      </trkpt>
      <trkpt lat="44.58815" lon="6.85986">
        <ele>2083</ele>
        <time>2020-02-18T07:53:32.000Z</time>
      </trkpt>
      <trkpt lat="44.58814" lon="6.85986">
        <ele>2083</ele>
        <time>2020-02-18T07:53:35.000Z</time>
      </trkpt>
      <trkpt lat="44.58814" lon="6.85985">
        <ele>2083</ele>
        <time>2020-02-18T07:53:39.000Z</time>
      </trkpt>
      <trkpt lat="44.58814" lon="6.85987">
        <ele>2083</ele>
        <time>2020-02-18T07:53:43.000Z</time>
      </trkpt>
      <trkpt lat="44.58813" lon="6.85987">
        <ele>2083</ele>
        <time>2020-02-18T07:53:45.000Z</time>
      </trkpt>
      <trkpt lat="44.58807" lon="6.85984">
        <ele>2084</ele>
        <time>2020-02-18T07:53:51.000Z</time>
      </trkpt>
      <trkpt lat="44.58806" lon="6.85982">
        <ele>2084</ele>
        <time>2020-02-18T07:53:53.000Z</time>
      </trkpt>
      <trkpt lat="44.58806" lon="6.85981">
        <ele>2084</ele>
        <time>2020-02-18T07:53:54.000Z</time>
      </trkpt>
      <trkpt lat="44.58805" lon="6.8598">
        <ele>2084</ele>
        <time>2020-02-18T07:53:55.000Z</time>
      </trkpt>
      <trkpt lat="44.58805" lon="6.85979">
        <ele>2084</ele>
        <time>2020-02-18T07:53:56.000Z</time>
      </trkpt>
      <trkpt lat="44.58805" lon="6.85978">
        <ele>2084</ele>
        <time>2020-02-18T07:53:57.000Z</time>
      </trkpt>
      <trkpt lat="44.58803" lon="6.85973">
        <ele>2084</ele>
        <time>2020-02-18T07:54:02.000Z</time>
      </trkpt>
      <trkpt lat="44.58803" lon="6.85973">
        <ele>2084</ele>
        <time>2020-02-18T07:54:03.000Z</time>
      </trkpt>
      <trkpt lat="44.58803" lon="6.85966">
        <ele>2084</ele>
        <time>2020-02-18T07:54:08.000Z</time>
      </trkpt>
      <trkpt lat="44.58801" lon="6.85963">
        <ele>2084</ele>
        <time>2020-02-18T07:54:11.000Z</time>
      </trkpt>
      <trkpt lat="44.58797" lon="6.85956">
        <ele>2084</ele>
        <time>2020-02-18T07:54:18.000Z</time>
      </trkpt>
      <trkpt lat="44.58792" lon="6.85952">
        <ele>2084</ele>
        <time>2020-02-18T07:54:23.000Z</time>
      </trkpt>
      <trkpt lat="44.58788" lon="6.85946">
        <ele>2084</ele>
        <time>2020-02-18T07:54:31.000Z</time>
      </trkpt>
      <trkpt lat="44.58787" lon="6.85942">
        <ele>2084</ele>
        <time>2020-02-18T07:54:36.000Z</time>
      </trkpt>
      <trkpt lat="44.58786" lon="6.85937">
        <ele>2084</ele>
        <time>2020-02-18T07:54:42.000Z</time>
      </trkpt>
      <trkpt lat="44.58785" lon="6.85935">
        <ele>2084</ele>
        <time>2020-02-18T07:54:46.000Z</time>
      </trkpt>
      <trkpt lat="44.58783" lon="6.85932">
        <ele>2084</ele>
        <time>2020-02-18T07:54:55.000Z</time>
      </trkpt>
      <trkpt lat="44.58779" lon="6.85936">
        <ele>2085</ele>
        <time>2020-02-18T07:55:06.000Z</time>
      </trkpt>
      <trkpt lat="44.58775" lon="6.85936">
        <ele>2085</ele>
        <time>2020-02-18T07:55:13.000Z</time>
      </trkpt>
      <trkpt lat="44.58773" lon="6.85937">
        <ele>2086</ele>
        <time>2020-02-18T07:55:15.000Z</time>
      </trkpt>
      <trkpt lat="44.58769" lon="6.85941">
        <ele>2086</ele>
        <time>2020-02-18T07:55:26.000Z</time>
      </trkpt>
      <trkpt lat="44.58768" lon="6.85942">
        <ele>2086</ele>
        <time>2020-02-18T07:55:28.000Z</time>
      </trkpt>
      <trkpt lat="44.5876" lon="6.85941">
        <ele>2087</ele>
        <time>2020-02-18T07:55:39.000Z</time>
      </trkpt>
      <trkpt lat="44.58757" lon="6.85941">
        <ele>2087</ele>
        <time>2020-02-18T07:55:42.000Z</time>
      </trkpt>
      <trkpt lat="44.58753" lon="6.85941">
        <ele>2087</ele>
        <time>2020-02-18T07:55:47.000Z</time>
      </trkpt>
      <trkpt lat="44.58752" lon="6.85942">
        <ele>2087</ele>
        <time>2020-02-18T07:55:48.000Z</time>
      </trkpt>
      <trkpt lat="44.5875" lon="6.85942">
        <ele>2087</ele>
        <time>2020-02-18T07:55:49.000Z</time>
      </trkpt>
      <trkpt lat="44.58749" lon="6.85942">
        <ele>2098</ele>
        <time>2020-02-18T07:55:50.000Z</time>
      </trkpt>
      <trkpt lat="44.58746" lon="6.85943">
        <ele>2098</ele>
        <time>2020-02-18T07:55:53.000Z</time>
      </trkpt>
      <trkpt lat="44.58743" lon="6.85945">
        <ele>2098</ele>
        <time>2020-02-18T07:55:58.000Z</time>
      </trkpt>
      <trkpt lat="44.5874" lon="6.85944">
        <ele>2099</ele>
        <time>2020-02-18T07:56:02.000Z</time>
      </trkpt>
      <trkpt lat="44.58738" lon="6.85943">
        <ele>2099</ele>
        <time>2020-02-18T07:56:04.000Z</time>
      </trkpt>
      <trkpt lat="44.58733" lon="6.85941">
        <ele>2099</ele>
        <time>2020-02-18T07:56:10.000Z</time>
      </trkpt>
      <trkpt lat="44.58732" lon="6.85941">
        <ele>2099</ele>
        <time>2020-02-18T07:56:11.000Z</time>
      </trkpt>
      <trkpt lat="44.58731" lon="6.8594">
        <ele>2099</ele>
        <time>2020-02-18T07:56:13.000Z</time>
      </trkpt>
      <trkpt lat="44.5873" lon="6.8594">
        <ele>2099</ele>
        <time>2020-02-18T07:56:14.000Z</time>
      </trkpt>
      <trkpt lat="44.58729" lon="6.8594">
        <ele>2099</ele>
        <time>2020-02-18T07:56:15.000Z</time>
      </trkpt>
      <trkpt lat="44.58728" lon="6.8594">
        <ele>2100</ele>
        <time>2020-02-18T07:56:16.000Z</time>
      </trkpt>
      <trkpt lat="44.58727" lon="6.85939">
        <ele>2100</ele>
        <time>2020-02-18T07:56:17.000Z</time>
      </trkpt>
      <trkpt lat="44.58724" lon="6.85938">
        <ele>2100</ele>
        <time>2020-02-18T07:56:21.000Z</time>
      </trkpt>
      <trkpt lat="44.58723" lon="6.85939">
        <ele>2100</ele>
        <time>2020-02-18T07:56:25.000Z</time>
      </trkpt>
      <trkpt lat="44.58722" lon="6.85943">
        <ele>2101</ele>
        <time>2020-02-18T07:56:33.000Z</time>
      </trkpt>
      <trkpt lat="44.5872" lon="6.85944">
        <ele>2101</ele>
        <time>2020-02-18T07:56:39.000Z</time>
      </trkpt>
      <trkpt lat="44.58717" lon="6.85943">
        <ele>2102</ele>
        <time>2020-02-18T07:56:47.000Z</time>
      </trkpt>
      <trkpt lat="44.58717" lon="6.85941">
        <ele>2101</ele>
        <time>2020-02-18T07:57:00.000Z</time>
      </trkpt>
      <trkpt lat="44.58717" lon="6.8594">
        <ele>2101</ele>
        <time>2020-02-18T07:57:04.000Z</time>
      </trkpt>
      <trkpt lat="44.58716" lon="6.85937">
        <ele>2101</ele>
        <time>2020-02-18T07:57:09.000Z</time>
      </trkpt>
      <trkpt lat="44.58716" lon="6.85935">
        <ele>2101</ele>
        <time>2020-02-18T07:57:10.000Z</time>
      </trkpt>
      <trkpt lat="44.58717" lon="6.85935">
        <ele>2101</ele>
        <time>2020-02-18T07:57:15.000Z</time>
      </trkpt>
      <trkpt lat="44.58719" lon="6.85936">
        <ele>2101</ele>
        <time>2020-02-18T07:57:17.000Z</time>
      </trkpt>
      <trkpt lat="44.5872" lon="6.85936">
        <ele>2100</ele>
        <time>2020-02-18T07:57:20.000Z</time>
      </trkpt>
      <trkpt lat="44.58721" lon="6.85935">
        <ele>2100</ele>
        <time>2020-02-18T07:57:21.000Z</time>
      </trkpt>
      <trkpt lat="44.58723" lon="6.85936">
        <ele>2100</ele>
        <time>2020-02-18T07:57:23.000Z</time>
      </trkpt>
      <trkpt lat="44.58719" lon="6.85933">
        <ele>2100</ele>
        <time>2020-02-18T07:57:30.000Z</time>
      </trkpt>
      <trkpt lat="44.58706" lon="6.8594">
        <ele>2103</ele>
        <time>2020-02-18T07:57:48.000Z</time>
      </trkpt>
      <trkpt lat="44.58703" lon="6.85944">
        <ele>2104</ele>
        <time>2020-02-18T07:57:52.000Z</time>
      </trkpt>
      <trkpt lat="44.58702" lon="6.85944">
        <ele>2104</ele>
        <time>2020-02-18T07:57:53.000Z</time>
      </trkpt>
      <trkpt lat="44.58703" lon="6.85944">
        <ele>2103</ele>
        <time>2020-02-18T07:57:57.000Z</time>
      </trkpt>
      <trkpt lat="44.58703" lon="6.85943">
        <ele>2103</ele>
        <time>2020-02-18T07:57:59.000Z</time>
      </trkpt>
      <trkpt lat="44.58702" lon="6.85943">
        <ele>2104</ele>
        <time>2020-02-18T07:58:03.000Z</time>
      </trkpt>
      <trkpt lat="44.58706" lon="6.85941">
        <ele>2103</ele>
        <time>2020-02-18T07:58:10.000Z</time>
      </trkpt>
      <trkpt lat="44.58706" lon="6.85942">
        <ele>2103</ele>
        <time>2020-02-18T07:58:12.000Z</time>
      </trkpt>
      <trkpt lat="44.58707" lon="6.85942">
        <ele>2103</ele>
        <time>2020-02-18T07:58:14.000Z</time>
      </trkpt>
      <trkpt lat="44.58706" lon="6.85943">
        <ele>2103</ele>
        <time>2020-02-18T07:58:15.000Z</time>
      </trkpt>
      <trkpt lat="44.58705" lon="6.85944">
        <ele>2103</ele>
        <time>2020-02-18T07:58:18.000Z</time>
      </trkpt>
      <trkpt lat="44.58705" lon="6.85944">
        <ele>2103</ele>
        <time>2020-02-18T07:58:19.000Z</time>
      </trkpt>
      <trkpt lat="44.58705" lon="6.85945">
        <ele>2103</ele>
        <time>2020-02-18T07:58:25.000Z</time>
      </trkpt>
      <trkpt lat="44.58706" lon="6.85945">
        <ele>2103</ele>
        <time>2020-02-18T07:58:29.000Z</time>
      </trkpt>
      <trkpt lat="44.58697" lon="6.85956">
        <ele>2105</ele>
        <time>2020-02-18T07:58:43.000Z</time>
      </trkpt>
      <trkpt lat="44.58693" lon="6.85961">
        <ele>2106</ele>
        <time>2020-02-18T07:58:47.000Z</time>
      </trkpt>
      <trkpt lat="44.58694" lon="6.85955">
        <ele>2105</ele>
        <time>2020-02-18T07:58:53.000Z</time>
      </trkpt>
      <trkpt lat="44.58693" lon="6.85953">
        <ele>2105</ele>
        <time>2020-02-18T07:58:55.000Z</time>
      </trkpt>
      <trkpt lat="44.58692" lon="6.8595">
        <ele>2105</ele>
        <time>2020-02-18T07:58:59.000Z</time>
      </trkpt>
      <trkpt lat="44.58692" lon="6.85948">
        <ele>2105</ele>
        <time>2020-02-18T07:59:03.000Z</time>
      </trkpt>
      <trkpt lat="44.58694" lon="6.85947">
        <ele>2105</ele>
        <time>2020-02-18T07:59:06.000Z</time>
      </trkpt>
      <trkpt lat="44.58696" lon="6.85947">
        <ele>2104</ele>
        <time>2020-02-18T07:59:10.000Z</time>
      </trkpt>
      <trkpt lat="44.58697" lon="6.85947">
        <ele>2104</ele>
        <time>2020-02-18T07:59:11.000Z</time>
      </trkpt>
      <trkpt lat="44.58679" lon="6.85959">
        <ele>2107</ele>
        <time>2020-02-18T07:59:24.000Z</time>
      </trkpt>
      <trkpt lat="44.58686" lon="6.85959">
        <ele>2106</ele>
        <time>2020-02-18T07:59:31.000Z</time>
      </trkpt>
      <trkpt lat="44.58687" lon="6.85957">
        <ele>2106</ele>
        <time>2020-02-18T07:59:34.000Z</time>
      </trkpt>
      <trkpt lat="44.58687" lon="6.85956">
        <ele>2106</ele>
        <time>2020-02-18T07:59:35.000Z</time>
      </trkpt>
      <trkpt lat="44.58688" lon="6.85956">
        <ele>2106</ele>
        <time>2020-02-18T07:59:36.000Z</time>
      </trkpt>
      <trkpt lat="44.58688" lon="6.85955">
        <ele>2106</ele>
        <time>2020-02-18T07:59:37.000Z</time>
      </trkpt>
      <trkpt lat="44.58688" lon="6.85954">
        <ele>2106</ele>
        <time>2020-02-18T07:59:40.000Z</time>
      </trkpt>
      <trkpt lat="44.58689" lon="6.85952">
        <ele>2105</ele>
        <time>2020-02-18T07:59:43.000Z</time>
      </trkpt>
      <trkpt lat="44.58702" lon="6.85937">
        <ele>2103</ele>
        <time>2020-02-18T08:00:05.000Z</time>
      </trkpt>
      <trkpt lat="44.58702" lon="6.85938">
        <ele>2103</ele>
        <time>2020-02-18T08:00:06.000Z</time>
      </trkpt>
      <trkpt lat="44.58702" lon="6.85939">
        <ele>2103</ele>
        <time>2020-02-18T08:00:08.000Z</time>
      </trkpt>
      <trkpt lat="44.58703" lon="6.85939">
        <ele>2103</ele>
        <time>2020-02-18T08:00:09.000Z</time>
      </trkpt>
      <trkpt lat="44.58704" lon="6.8594">
        <ele>2103</ele>
        <time>2020-02-18T08:00:10.000Z</time>
      </trkpt>
      <trkpt lat="44.58706" lon="6.8594">
        <ele>2103</ele>
        <time>2020-02-18T08:00:12.000Z</time>
      </trkpt>
      <trkpt lat="44.58702" lon="6.85949">
        <ele>2104</ele>
        <time>2020-02-18T08:00:24.000Z</time>
      </trkpt>
      <trkpt lat="44.58694" lon="6.85953">
        <ele>2105</ele>
        <time>2020-02-18T08:00:43.000Z</time>
      </trkpt>
      <trkpt lat="44.58695" lon="6.85949">
        <ele>2105</ele>
        <time>2020-02-18T08:00:53.000Z</time>
      </trkpt>
      <trkpt lat="44.58689" lon="6.8595">
        <ele>2105</ele>
        <time>2020-02-18T08:00:59.000Z</time>
      </trkpt>
      <trkpt lat="44.58692" lon="6.8595">
        <ele>2105</ele>
        <time>2020-02-18T08:01:13.000Z</time>
      </trkpt>
      <trkpt lat="44.58687" lon="6.8595">
        <ele>2106</ele>
        <time>2020-02-18T08:01:26.000Z</time>
      </trkpt>
      <trkpt lat="44.58686" lon="6.85949">
        <ele>2106</ele>
        <time>2020-02-18T08:01:27.000Z</time>
      </trkpt>
      <trkpt lat="44.58685" lon="6.85948">
        <ele>2106</ele>
        <time>2020-02-18T08:01:28.000Z</time>
      </trkpt>
      <trkpt lat="44.58695" lon="6.85926">
        <ele>2104</ele>
        <time>2020-02-18T08:01:46.000Z</time>
      </trkpt>
      <trkpt lat="44.58692" lon="6.8593">
        <ele>2104</ele>
        <time>2020-02-18T08:01:48.000Z</time>
      </trkpt>
      <trkpt lat="44.58691" lon="6.85931">
        <ele>2105</ele>
        <time>2020-02-18T08:01:49.000Z</time>
      </trkpt>
      <trkpt lat="44.58689" lon="6.85933">
        <ele>2105</ele>
        <time>2020-02-18T08:01:50.000Z</time>
      </trkpt>
      <trkpt lat="44.58688" lon="6.85937">
        <ele>2105</ele>
        <time>2020-02-18T08:01:53.000Z</time>
      </trkpt>
      <trkpt lat="44.58686" lon="6.85941">
        <ele>2105</ele>
        <time>2020-02-18T08:01:55.000Z</time>
      </trkpt>
      <trkpt lat="44.58682" lon="6.85947">
        <ele>2106</ele>
        <time>2020-02-18T08:01:57.000Z</time>
      </trkpt>
      <trkpt lat="44.58682" lon="6.85949">
        <ele>2106</ele>
        <time>2020-02-18T08:01:58.000Z</time>
      </trkpt>
      <trkpt lat="44.58683" lon="6.85953">
        <ele>2106</ele>
        <time>2020-02-18T08:02:01.000Z</time>
      </trkpt>
      <trkpt lat="44.58685" lon="6.85955">
        <ele>2106</ele>
        <time>2020-02-18T08:02:03.000Z</time>
      </trkpt>
      <trkpt lat="44.58685" lon="6.85956">
        <ele>2106</ele>
        <time>2020-02-18T08:02:04.000Z</time>
      </trkpt>
      <trkpt lat="44.58686" lon="6.85958">
        <ele>2106</ele>
        <time>2020-02-18T08:02:06.000Z</time>
      </trkpt>
      <trkpt lat="44.58689" lon="6.85959">
        <ele>2106</ele>
        <time>2020-02-18T08:02:08.000Z</time>
      </trkpt>
      <trkpt lat="44.5869" lon="6.85959">
        <ele>2106</ele>
        <time>2020-02-18T08:02:09.000Z</time>
      </trkpt>
      <trkpt lat="44.5869" lon="6.8596">
        <ele>2106</ele>
        <time>2020-02-18T08:02:10.000Z</time>
      </trkpt>
      <trkpt lat="44.58688" lon="6.85962">
        <ele>2106</ele>
        <time>2020-02-18T08:02:13.000Z</time>
      </trkpt>
      <trkpt lat="44.58687" lon="6.85963">
        <ele>2106</ele>
        <time>2020-02-18T08:02:14.000Z</time>
      </trkpt>
      <trkpt lat="44.58685" lon="6.85966">
        <ele>2107</ele>
        <time>2020-02-18T08:02:19.000Z</time>
      </trkpt>
      <trkpt lat="44.58682" lon="6.85971">
        <ele>2108</ele>
        <time>2020-02-18T08:02:22.000Z</time>
      </trkpt>
      <trkpt lat="44.58677" lon="6.85974">
        <ele>2109</ele>
        <time>2020-02-18T08:02:28.000Z</time>
      </trkpt>
      <trkpt lat="44.58673" lon="6.85974">
        <ele>2109</ele>
        <time>2020-02-18T08:02:31.000Z</time>
      </trkpt>
      <trkpt lat="44.5867" lon="6.85974">
        <ele>2109</ele>
        <time>2020-02-18T08:02:33.000Z</time>
      </trkpt>
      <trkpt lat="44.58669" lon="6.85972">
        <ele>2109</ele>
        <time>2020-02-18T08:02:35.000Z</time>
      </trkpt>
      <trkpt lat="44.58668" lon="6.85971">
        <ele>2109</ele>
        <time>2020-02-18T08:02:36.000Z</time>
      </trkpt>
      <trkpt lat="44.58667" lon="6.8597">
        <ele>2122</ele>
        <time>2020-02-18T08:02:38.000Z</time>
      </trkpt>
      <trkpt lat="44.58665" lon="6.85971">
        <ele>2122</ele>
        <time>2020-02-18T08:02:39.000Z</time>
      </trkpt>
      <trkpt lat="44.58659" lon="6.8597">
        <ele>2122</ele>
        <time>2020-02-18T08:02:43.000Z</time>
      </trkpt>
      <trkpt lat="44.58657" lon="6.8597">
        <ele>2122</ele>
        <time>2020-02-18T08:02:46.000Z</time>
      </trkpt>
      <trkpt lat="44.58652" lon="6.85968">
        <ele>2123</ele>
        <time>2020-02-18T08:02:50.000Z</time>
      </trkpt>
      <trkpt lat="44.5865" lon="6.85968">
        <ele>2123</ele>
        <time>2020-02-18T08:02:52.000Z</time>
      </trkpt>
      <trkpt lat="44.58646" lon="6.85968">
        <ele>2123</ele>
        <time>2020-02-18T08:02:56.000Z</time>
      </trkpt>
      <trkpt lat="44.58645" lon="6.85968">
        <ele>2124</ele>
        <time>2020-02-18T08:02:57.000Z</time>
      </trkpt>
      <trkpt lat="44.58644" lon="6.85967">
        <ele>2124</ele>
        <time>2020-02-18T08:02:58.000Z</time>
      </trkpt>
      <trkpt lat="44.58643" lon="6.85967">
        <ele>2124</ele>
        <time>2020-02-18T08:02:59.000Z</time>
      </trkpt>
      <trkpt lat="44.58642" lon="6.85967">
        <ele>2124</ele>
        <time>2020-02-18T08:03:01.000Z</time>
      </trkpt>
      <trkpt lat="44.58641" lon="6.85966">
        <ele>2124</ele>
        <time>2020-02-18T08:03:03.000Z</time>
      </trkpt>
      <trkpt lat="44.5864" lon="6.85966">
        <ele>2124</ele>
        <time>2020-02-18T08:03:05.000Z</time>
      </trkpt>
      <trkpt lat="44.58638" lon="6.85964">
        <ele>2124</ele>
        <time>2020-02-18T08:03:10.000Z</time>
      </trkpt>
      <trkpt lat="44.58633" lon="6.85963">
        <ele>2125</ele>
        <time>2020-02-18T08:03:16.000Z</time>
      </trkpt>
      <trkpt lat="44.58632" lon="6.85958">
        <ele>2124</ele>
        <time>2020-02-18T08:03:20.000Z</time>
      </trkpt>
      <trkpt lat="44.58632" lon="6.85956">
        <ele>2124</ele>
        <time>2020-02-18T08:03:22.000Z</time>
      </trkpt>
      <trkpt lat="44.58631" lon="6.85951">
        <ele>2124</ele>
        <time>2020-02-18T08:03:26.000Z</time>
      </trkpt>
      <trkpt lat="44.5863" lon="6.8595">
        <ele>2124</ele>
        <time>2020-02-18T08:03:28.000Z</time>
      </trkpt>
      <trkpt lat="44.58625" lon="6.85946">
        <ele>2124</ele>
        <time>2020-02-18T08:03:33.000Z</time>
      </trkpt>
      <trkpt lat="44.58623" lon="6.85946">
        <ele>2125</ele>
        <time>2020-02-18T08:03:35.000Z</time>
      </trkpt>
      <trkpt lat="44.58622" lon="6.85945">
        <ele>2125</ele>
        <time>2020-02-18T08:03:36.000Z</time>
      </trkpt>
      <trkpt lat="44.5862" lon="6.85943">
        <ele>2125</ele>
        <time>2020-02-18T08:03:41.000Z</time>
      </trkpt>
      <trkpt lat="44.5862" lon="6.85943">
        <ele>2125</ele>
        <time>2020-02-18T08:03:43.000Z</time>
      </trkpt>
      <trkpt lat="44.5862" lon="6.85944">
        <ele>2125</ele>
        <time>2020-02-18T08:03:44.000Z</time>
      </trkpt>
      <trkpt lat="44.5862" lon="6.85945">
        <ele>2125</ele>
        <time>2020-02-18T08:03:47.000Z</time>
      </trkpt>
      <trkpt lat="44.58617" lon="6.85945">
        <ele>2125</ele>
        <time>2020-02-18T08:03:50.000Z</time>
      </trkpt>
      <trkpt lat="44.58614" lon="6.85945">
        <ele>2126</ele>
        <time>2020-02-18T08:03:54.000Z</time>
      </trkpt>
      <trkpt lat="44.58613" lon="6.85945">
        <ele>2126</ele>
        <time>2020-02-18T08:03:56.000Z</time>
      </trkpt>
      <trkpt lat="44.58612" lon="6.85945">
        <ele>2126</ele>
        <time>2020-02-18T08:03:57.000Z</time>
      </trkpt>
      <trkpt lat="44.58606" lon="6.85941">
        <ele>2126</ele>
        <time>2020-02-18T08:04:03.000Z</time>
      </trkpt>
      <trkpt lat="44.58603" lon="6.85938">
        <ele>2126</ele>
        <time>2020-02-18T08:04:06.000Z</time>
      </trkpt>
      <trkpt lat="44.58602" lon="6.85935">
        <ele>2126</ele>
        <time>2020-02-18T08:04:11.000Z</time>
      </trkpt>
      <trkpt lat="44.58603" lon="6.85935">
        <ele>2126</ele>
        <time>2020-02-18T08:04:13.000Z</time>
      </trkpt>
      <trkpt lat="44.58602" lon="6.85934">
        <ele>2126</ele>
        <time>2020-02-18T08:04:20.000Z</time>
      </trkpt>
      <trkpt lat="44.58597" lon="6.85938">
        <ele>2127</ele>
        <time>2020-02-18T08:04:26.000Z</time>
      </trkpt>
      <trkpt lat="44.58593" lon="6.85942">
        <ele>2127</ele>
        <time>2020-02-18T08:04:34.000Z</time>
      </trkpt>
      <trkpt lat="44.58583" lon="6.85947">
        <ele>2128</ele>
        <time>2020-02-18T08:04:41.000Z</time>
      </trkpt>
      <trkpt lat="44.5858" lon="6.85943">
        <ele>2139</ele>
        <time>2020-02-18T08:04:48.000Z</time>
      </trkpt>
      <trkpt lat="44.58578" lon="6.85942">
        <ele>2139</ele>
        <time>2020-02-18T08:04:50.000Z</time>
      </trkpt>
      <trkpt lat="44.58573" lon="6.85941">
        <ele>2140</ele>
        <time>2020-02-18T08:04:58.000Z</time>
      </trkpt>
      <trkpt lat="44.58573" lon="6.85943">
        <ele>2140</ele>
        <time>2020-02-18T08:05:02.000Z</time>
      </trkpt>
      <trkpt lat="44.58569" lon="6.85943">
        <ele>2140</ele>
        <time>2020-02-18T08:05:10.000Z</time>
      </trkpt>
      <trkpt lat="44.58569" lon="6.85943">
        <ele>2140</ele>
        <time>2020-02-18T08:05:11.000Z</time>
      </trkpt>
      <trkpt lat="44.58565" lon="6.85935">
        <ele>2139</ele>
        <time>2020-02-18T08:05:23.000Z</time>
      </trkpt>
      <trkpt lat="44.58563" lon="6.85931">
        <ele>2139</ele>
        <time>2020-02-18T08:05:30.000Z</time>
      </trkpt>
      <trkpt lat="44.58564" lon="6.85932">
        <ele>2139</ele>
        <time>2020-02-18T08:05:37.000Z</time>
      </trkpt>
      <trkpt lat="44.58566" lon="6.85931">
        <ele>2138</ele>
        <time>2020-02-18T08:05:44.000Z</time>
      </trkpt>
      <trkpt lat="44.58571" lon="6.8594">
        <ele>2139</ele>
        <time>2020-02-18T08:05:55.000Z</time>
      </trkpt>
      <trkpt lat="44.58569" lon="6.85946">
        <ele>2141</ele>
        <time>2020-02-18T08:06:02.000Z</time>
      </trkpt>
      <trkpt lat="44.58565" lon="6.85949">
        <ele>2142</ele>
        <time>2020-02-18T08:06:13.000Z</time>
      </trkpt>
      <trkpt lat="44.58563" lon="6.85949">
        <ele>2143</ele>
        <time>2020-02-18T08:06:16.000Z</time>
      </trkpt>
      <trkpt lat="44.58561" lon="6.85949">
        <ele>2143</ele>
        <time>2020-02-18T08:06:19.000Z</time>
      </trkpt>
      <trkpt lat="44.5856" lon="6.8595">
        <ele>2143</ele>
        <time>2020-02-18T08:06:20.000Z</time>
      </trkpt>
      <trkpt lat="44.58559" lon="6.85949">
        <ele>2143</ele>
        <time>2020-02-18T08:06:22.000Z</time>
      </trkpt>
      <trkpt lat="44.58559" lon="6.85947">
        <ele>2143</ele>
        <time>2020-02-18T08:06:30.000Z</time>
      </trkpt>
      <trkpt lat="44.58561" lon="6.85947">
        <ele>2142</ele>
        <time>2020-02-18T08:06:33.000Z</time>
      </trkpt>
      <trkpt lat="44.58563" lon="6.85947">
        <ele>2142</ele>
        <time>2020-02-18T08:06:38.000Z</time>
      </trkpt>
      <trkpt lat="44.58562" lon="6.85949">
        <ele>2143</ele>
        <time>2020-02-18T08:06:42.000Z</time>
      </trkpt>
      <trkpt lat="44.58562" lon="6.85949">
        <ele>2143</ele>
        <time>2020-02-18T08:06:50.000Z</time>
      </trkpt>
      <trkpt lat="44.58563" lon="6.85948">
        <ele>2142</ele>
        <time>2020-02-18T08:06:52.000Z</time>
      </trkpt>
      <trkpt lat="44.58561" lon="6.85948">
        <ele>2143</ele>
        <time>2020-02-18T08:06:56.000Z</time>
      </trkpt>
      <trkpt lat="44.58559" lon="6.85949">
        <ele>2143</ele>
        <time>2020-02-18T08:07:00.000Z</time>
      </trkpt>
      <trkpt lat="44.58558" lon="6.8595">
        <ele>2143</ele>
        <time>2020-02-18T08:07:02.000Z</time>
      </trkpt>
      <trkpt lat="44.58559" lon="6.8595">
        <ele>2143</ele>
        <time>2020-02-18T08:07:06.000Z</time>
      </trkpt>
      <trkpt lat="44.58557" lon="6.85947">
        <ele>2143</ele>
        <time>2020-02-18T08:07:11.000Z</time>
      </trkpt>
      <trkpt lat="44.58558" lon="6.85948">
        <ele>2143</ele>
        <time>2020-02-18T08:07:12.000Z</time>
      </trkpt>
      <trkpt lat="44.58558" lon="6.85948">
        <ele>2143</ele>
        <time>2020-02-18T08:07:13.000Z</time>
      </trkpt>
      <trkpt lat="44.58558" lon="6.85949">
        <ele>2143</ele>
        <time>2020-02-18T08:07:16.000Z</time>
      </trkpt>
      <trkpt lat="44.58557" lon="6.85951">
        <ele>2144</ele>
        <time>2020-02-18T08:07:19.000Z</time>
      </trkpt>
      <trkpt lat="44.5856" lon="6.85951">
        <ele>2143</ele>
        <time>2020-02-18T08:07:25.000Z</time>
      </trkpt>
      <trkpt lat="44.58561" lon="6.85951">
        <ele>2143</ele>
        <time>2020-02-18T08:07:28.000Z</time>
      </trkpt>
      <trkpt lat="44.58563" lon="6.85948">
        <ele>2142</ele>
        <time>2020-02-18T08:07:32.000Z</time>
      </trkpt>
      <trkpt lat="44.58563" lon="6.85948">
        <ele>2142</ele>
        <time>2020-02-18T08:07:33.000Z</time>
      </trkpt>
      <trkpt lat="44.58561" lon="6.85949">
        <ele>2143</ele>
        <time>2020-02-18T08:07:37.000Z</time>
      </trkpt>
      <trkpt lat="44.58561" lon="6.85949">
        <ele>2143</ele>
        <time>2020-02-18T08:07:38.000Z</time>
      </trkpt>
      <trkpt lat="44.58561" lon="6.85948">
        <ele>2143</ele>
        <time>2020-02-18T08:07:40.000Z</time>
      </trkpt>
      <trkpt lat="44.5856" lon="6.85949">
        <ele>2143</ele>
        <time>2020-02-18T08:07:43.000Z</time>
      </trkpt>
      <trkpt lat="44.58556" lon="6.85951">
        <ele>2144</ele>
        <time>2020-02-18T08:07:50.000Z</time>
      </trkpt>
      <trkpt lat="44.58555" lon="6.85953">
        <ele>2144</ele>
        <time>2020-02-18T08:07:51.000Z</time>
      </trkpt>
      <trkpt lat="44.58554" lon="6.85953">
        <ele>2144</ele>
        <time>2020-02-18T08:07:52.000Z</time>
      </trkpt>
      <trkpt lat="44.58555" lon="6.85953">
        <ele>2144</ele>
        <time>2020-02-18T08:07:53.000Z</time>
      </trkpt>
      <trkpt lat="44.58555" lon="6.85952">
        <ele>2144</ele>
        <time>2020-02-18T08:07:54.000Z</time>
      </trkpt>
      <trkpt lat="44.58556" lon="6.85951">
        <ele>2144</ele>
        <time>2020-02-18T08:07:56.000Z</time>
      </trkpt>
      <trkpt lat="44.58556" lon="6.85951">
        <ele>2144</ele>
        <time>2020-02-18T08:07:57.000Z</time>
      </trkpt>
      <trkpt lat="44.58557" lon="6.85951">
        <ele>2144</ele>
        <time>2020-02-18T08:08:00.000Z</time>
      </trkpt>
      <trkpt lat="44.58558" lon="6.8595">
        <ele>2143</ele>
        <time>2020-02-18T08:08:03.000Z</time>
      </trkpt>
      <trkpt lat="44.58559" lon="6.85949">
        <ele>2143</ele>
        <time>2020-02-18T08:08:06.000Z</time>
      </trkpt>
      <trkpt lat="44.58559" lon="6.85944">
        <ele>2142</ele>
        <time>2020-02-18T08:08:22.000Z</time>
      </trkpt>
      <trkpt lat="44.58561" lon="6.85944">
        <ele>2142</ele>
        <time>2020-02-18T08:08:24.000Z</time>
      </trkpt>
      <trkpt lat="44.58563" lon="6.85945">
        <ele>2142</ele>
        <time>2020-02-18T08:08:28.000Z</time>
      </trkpt>
      <trkpt lat="44.58563" lon="6.85945">
        <ele>2142</ele>
        <time>2020-02-18T08:08:41.000Z</time>
      </trkpt>
      <trkpt lat="44.58564" lon="6.85944">
        <ele>2141</ele>
        <time>2020-02-18T08:08:43.000Z</time>
      </trkpt>
      <trkpt lat="44.58564" lon="6.85944">
        <ele>2141</ele>
        <time>2020-02-18T08:08:45.000Z</time>
      </trkpt>
      <trkpt lat="44.58564" lon="6.85944">
        <ele>2141</ele>
        <time>2020-02-18T08:08:46.000Z</time>
      </trkpt>
      <trkpt lat="44.58565" lon="6.85945">
        <ele>2141</ele>
        <time>2020-02-18T08:08:50.000Z</time>
      </trkpt>
      <trkpt lat="44.58564" lon="6.85945">
        <ele>2142</ele>
        <time>2020-02-18T08:08:51.000Z</time>
      </trkpt>
      <trkpt lat="44.58564" lon="6.85946">
        <ele>2142</ele>
        <time>2020-02-18T08:08:52.000Z</time>
      </trkpt>
      <trkpt lat="44.58563" lon="6.85947">
        <ele>2142</ele>
        <time>2020-02-18T08:08:53.000Z</time>
      </trkpt>
      <trkpt lat="44.58562" lon="6.85947">
        <ele>2142</ele>
        <time>2020-02-18T08:08:54.000Z</time>
      </trkpt>
      <trkpt lat="44.5856" lon="6.85948">
        <ele>2143</ele>
        <time>2020-02-18T08:08:56.000Z</time>
      </trkpt>
      <trkpt lat="44.58559" lon="6.85948">
        <ele>2143</ele>
        <time>2020-02-18T08:08:57.000Z</time>
      </trkpt>
      <trkpt lat="44.58559" lon="6.85948">
        <ele>2143</ele>
        <time>2020-02-18T08:08:58.000Z</time>
      </trkpt>
      <trkpt lat="44.58558" lon="6.85948">
        <ele>2143</ele>
        <time>2020-02-18T08:08:59.000Z</time>
      </trkpt>
      <trkpt lat="44.58558" lon="6.85948">
        <ele>2143</ele>
        <time>2020-02-18T08:09:00.000Z</time>
      </trkpt>
      <trkpt lat="44.58557" lon="6.85948">
        <ele>2143</ele>
        <time>2020-02-18T08:09:01.000Z</time>
      </trkpt>
      <trkpt lat="44.58554" lon="6.85946">
        <ele>2143</ele>
        <time>2020-02-18T08:09:07.000Z</time>
      </trkpt>
      <trkpt lat="44.58553" lon="6.85944">
        <ele>2143</ele>
        <time>2020-02-18T08:09:11.000Z</time>
      </trkpt>
      <trkpt lat="44.58549" lon="6.85944">
        <ele>2143</ele>
        <time>2020-02-18T08:09:22.000Z</time>
      </trkpt>
      <trkpt lat="44.58549" lon="6.85945">
        <ele>2143</ele>
        <time>2020-02-18T08:09:33.000Z</time>
      </trkpt>
      <trkpt lat="44.58549" lon="6.85945">
        <ele>2144</ele>
        <time>2020-02-18T08:09:35.000Z</time>
      </trkpt>
      <trkpt lat="44.58547" lon="6.85946">
        <ele>2144</ele>
        <time>2020-02-18T08:09:37.000Z</time>
      </trkpt>
      <trkpt lat="44.58549" lon="6.85946">
        <ele>2144</ele>
        <time>2020-02-18T08:09:40.000Z</time>
      </trkpt>
      <trkpt lat="44.58552" lon="6.85942">
        <ele>2143</ele>
        <time>2020-02-18T08:09:47.000Z</time>
      </trkpt>
      <trkpt lat="44.58553" lon="6.85942">
        <ele>2143</ele>
        <time>2020-02-18T08:09:49.000Z</time>
      </trkpt>
      <trkpt lat="44.58558" lon="6.8594">
        <ele>2141</ele>
        <time>2020-02-18T08:09:51.000Z</time>
      </trkpt>
      <trkpt lat="44.58559" lon="6.85939">
        <ele>2141</ele>
        <time>2020-02-18T08:09:52.000Z</time>
      </trkpt>
      <trkpt lat="44.5856" lon="6.85939">
        <ele>2141</ele>
        <time>2020-02-18T08:09:55.000Z</time>
      </trkpt>
      <trkpt lat="44.58558" lon="6.8594">
        <ele>2141</ele>
        <time>2020-02-18T08:09:57.000Z</time>
      </trkpt>
      <trkpt lat="44.58556" lon="6.85941">
        <ele>2142</ele>
        <time>2020-02-18T08:09:59.000Z</time>
      </trkpt>
      <trkpt lat="44.58556" lon="6.85942">
        <ele>2142</ele>
        <time>2020-02-18T08:10:00.000Z</time>
      </trkpt>
      <trkpt lat="44.58554" lon="6.85944">
        <ele>2143</ele>
        <time>2020-02-18T08:10:03.000Z</time>
      </trkpt>
      <trkpt lat="44.5855" lon="6.85945">
        <ele>2143</ele>
        <time>2020-02-18T08:10:06.000Z</time>
      </trkpt>
      <trkpt lat="44.58541" lon="6.85942">
        <ele>2144</ele>
        <time>2020-02-18T08:10:44.000Z</time>
      </trkpt>
      <trkpt lat="44.58544" lon="6.85941">
        <ele>2144</ele>
        <time>2020-02-18T08:10:54.000Z</time>
      </trkpt>
      <trkpt lat="44.58544" lon="6.85941">
        <ele>2143</ele>
        <time>2020-02-18T08:10:55.000Z</time>
      </trkpt>
      <trkpt lat="44.58545" lon="6.85941">
        <ele>2143</ele>
        <time>2020-02-18T08:10:57.000Z</time>
      </trkpt>
      <trkpt lat="44.58546" lon="6.85941">
        <ele>2143</ele>
        <time>2020-02-18T08:10:59.000Z</time>
      </trkpt>
      <trkpt lat="44.58548" lon="6.85941">
        <ele>2143</ele>
        <time>2020-02-18T08:11:07.000Z</time>
      </trkpt>
      <trkpt lat="44.58548" lon="6.85941">
        <ele>2143</ele>
        <time>2020-02-18T08:11:09.000Z</time>
      </trkpt>
      <trkpt lat="44.58548" lon="6.85941">
        <ele>2143</ele>
        <time>2020-02-18T08:11:10.000Z</time>
      </trkpt>
      <trkpt lat="44.58549" lon="6.85941">
        <ele>2143</ele>
        <time>2020-02-18T08:11:11.000Z</time>
      </trkpt>
      <trkpt lat="44.58555" lon="6.8594">
        <ele>2142</ele>
        <time>2020-02-18T08:11:25.000Z</time>
      </trkpt>
      <trkpt lat="44.58555" lon="6.8594">
        <ele>2142</ele>
        <time>2020-02-18T08:11:26.000Z</time>
      </trkpt>
      <trkpt lat="44.58565" lon="6.85939">
        <ele>2140</ele>
        <time>2020-02-18T08:11:36.000Z</time>
      </trkpt>
      <trkpt lat="44.58583" lon="6.85928">
        <ele>2134</ele>
        <time>2020-02-18T08:11:38.000Z</time>
      </trkpt>
      <trkpt lat="44.58572" lon="6.8593">
        <ele>2136</ele>
        <time>2020-02-18T08:11:41.000Z</time>
      </trkpt>
      <trkpt lat="44.58567" lon="6.85931">
        <ele>2138</ele>
        <time>2020-02-18T08:11:42.000Z</time>
      </trkpt>
      <trkpt lat="44.58564" lon="6.85932">
        <ele>2139</ele>
        <time>2020-02-18T08:11:43.000Z</time>
      </trkpt>
      <trkpt lat="44.58561" lon="6.85932">
        <ele>2139</ele>
        <time>2020-02-18T08:11:44.000Z</time>
      </trkpt>
      <trkpt lat="44.5856" lon="6.85932">
        <ele>2140</ele>
        <time>2020-02-18T08:11:45.000Z</time>
      </trkpt>
      <trkpt lat="44.58556" lon="6.85933">
        <ele>2140</ele>
        <time>2020-02-18T08:11:47.000Z</time>
      </trkpt>
      <trkpt lat="44.58551" lon="6.85933">
        <ele>2141</ele>
        <time>2020-02-18T08:11:52.000Z</time>
      </trkpt>
      <trkpt lat="44.58545" lon="6.85935">
        <ele>2143</ele>
        <time>2020-02-18T08:11:55.000Z</time>
      </trkpt>
      <trkpt lat="44.58544" lon="6.8594">
        <ele>2143</ele>
        <time>2020-02-18T08:12:04.000Z</time>
      </trkpt>
      <trkpt lat="44.58544" lon="6.8594">
        <ele>2143</ele>
        <time>2020-02-18T08:12:08.000Z</time>
      </trkpt>
      <trkpt lat="44.58541" lon="6.85938">
        <ele>2143</ele>
        <time>2020-02-18T08:12:16.000Z</time>
      </trkpt>
      <trkpt lat="44.58541" lon="6.85937">
        <ele>2143</ele>
        <time>2020-02-18T08:12:17.000Z</time>
      </trkpt>
      <trkpt lat="44.58541" lon="6.85937">
        <ele>2143</ele>
        <time>2020-02-18T08:12:18.000Z</time>
      </trkpt>
      <trkpt lat="44.58541" lon="6.85937">
        <ele>2143</ele>
        <time>2020-02-18T08:12:20.000Z</time>
      </trkpt>
      <trkpt lat="44.58541" lon="6.85937">
        <ele>2143</ele>
        <time>2020-02-18T08:12:22.000Z</time>
      </trkpt>
      <trkpt lat="44.58539" lon="6.85937">
        <ele>2143</ele>
        <time>2020-02-18T08:12:27.000Z</time>
      </trkpt>
      <trkpt lat="44.58548" lon="6.85935">
        <ele>2142</ele>
        <time>2020-02-18T08:12:49.000Z</time>
      </trkpt>
      <trkpt lat="44.58553" lon="6.85931">
        <ele>2141</ele>
        <time>2020-02-18T08:12:56.000Z</time>
      </trkpt>
      <trkpt lat="44.58554" lon="6.8593">
        <ele>2140</ele>
        <time>2020-02-18T08:12:59.000Z</time>
      </trkpt>
      <trkpt lat="44.58556" lon="6.85929">
        <ele>2140</ele>
        <time>2020-02-18T08:13:01.000Z</time>
      </trkpt>
      <trkpt lat="44.58551" lon="6.85939">
        <ele>2142</ele>
        <time>2020-02-18T08:13:06.000Z</time>
      </trkpt>
      <trkpt lat="44.58527" lon="6.85951">
        <ele>2147</ele>
        <time>2020-02-18T08:13:18.000Z</time>
      </trkpt>
      <trkpt lat="44.58535" lon="6.85946">
        <ele>2145</ele>
        <time>2020-02-18T08:13:27.000Z</time>
      </trkpt>
      <trkpt lat="44.58534" lon="6.85945">
        <ele>2145</ele>
        <time>2020-02-18T08:13:29.000Z</time>
      </trkpt>
      <trkpt lat="44.58529" lon="6.85947">
        <ele>2146</ele>
        <time>2020-02-18T08:13:33.000Z</time>
      </trkpt>
      <trkpt lat="44.58526" lon="6.85951">
        <ele>2147</ele>
        <time>2020-02-18T08:13:39.000Z</time>
      </trkpt>
      <trkpt lat="44.58526" lon="6.85951">
        <ele>2147</ele>
        <time>2020-02-18T08:13:40.000Z</time>
      </trkpt>
      <trkpt lat="44.58526" lon="6.85952">
        <ele>2147</ele>
        <time>2020-02-18T08:13:42.000Z</time>
      </trkpt>
      <trkpt lat="44.58529" lon="6.85952">
        <ele>2147</ele>
        <time>2020-02-18T08:13:44.000Z</time>
      </trkpt>
      <trkpt lat="44.58538" lon="6.85949">
        <ele>2145</ele>
        <time>2020-02-18T08:13:51.000Z</time>
      </trkpt>
      <trkpt lat="44.58538" lon="6.85948">
        <ele>2145</ele>
        <time>2020-02-18T08:13:59.000Z</time>
      </trkpt>
      <trkpt lat="44.5854" lon="6.85947">
        <ele>2145</ele>
        <time>2020-02-18T08:14:03.000Z</time>
      </trkpt>
      <trkpt lat="44.5854" lon="6.85942">
        <ele>2144</ele>
        <time>2020-02-18T08:14:16.000Z</time>
      </trkpt>
      <trkpt lat="44.5854" lon="6.85941">
        <ele>2144</ele>
        <time>2020-02-18T08:14:17.000Z</time>
      </trkpt>
      <trkpt lat="44.5854" lon="6.85941">
        <ele>2144</ele>
        <time>2020-02-18T08:14:20.000Z</time>
      </trkpt>
      <trkpt lat="44.58539" lon="6.85941">
        <ele>2144</ele>
        <time>2020-02-18T08:14:27.000Z</time>
      </trkpt>
      <trkpt lat="44.58539" lon="6.8594">
        <ele>2144</ele>
        <time>2020-02-18T08:14:30.000Z</time>
      </trkpt>
      <trkpt lat="44.58532" lon="6.85941">
        <ele>2145</ele>
        <time>2020-02-18T08:14:39.000Z</time>
      </trkpt>
      <trkpt lat="44.58532" lon="6.85938">
        <ele>2144</ele>
        <time>2020-02-18T08:14:46.000Z</time>
      </trkpt>
      <trkpt lat="44.58531" lon="6.85937">
        <ele>2144</ele>
        <time>2020-02-18T08:14:47.000Z</time>
      </trkpt>
      <trkpt lat="44.58531" lon="6.85936">
        <ele>2144</ele>
        <time>2020-02-18T08:14:50.000Z</time>
      </trkpt>
      <trkpt lat="44.58531" lon="6.85936">
        <ele>2144</ele>
        <time>2020-02-18T08:14:52.000Z</time>
      </trkpt>
      <trkpt lat="44.58528" lon="6.85938">
        <ele>2144</ele>
        <time>2020-02-18T08:14:59.000Z</time>
      </trkpt>
      <trkpt lat="44.58528" lon="6.85937">
        <ele>2144</ele>
        <time>2020-02-18T08:15:05.000Z</time>
      </trkpt>
      <trkpt lat="44.58525" lon="6.85939">
        <ele>2145</ele>
        <time>2020-02-18T08:15:17.000Z</time>
      </trkpt>
      <trkpt lat="44.58527" lon="6.85938">
        <ele>2144</ele>
        <time>2020-02-18T08:15:25.000Z</time>
      </trkpt>
      <trkpt lat="44.58523" lon="6.85937">
        <ele>2144</ele>
        <time>2020-02-18T08:15:37.000Z</time>
      </trkpt>
      <trkpt lat="44.58518" lon="6.85937">
        <ele>2144</ele>
        <time>2020-02-18T08:15:45.000Z</time>
      </trkpt>
      <trkpt lat="44.58516" lon="6.85937">
        <ele>2144</ele>
        <time>2020-02-18T08:15:47.000Z</time>
      </trkpt>
      <trkpt lat="44.58512" lon="6.85936">
        <ele>2144</ele>
        <time>2020-02-18T08:15:53.000Z</time>
      </trkpt>
      <trkpt lat="44.58511" lon="6.85936">
        <ele>2144</ele>
        <time>2020-02-18T08:15:56.000Z</time>
      </trkpt>
      <trkpt lat="44.58508" lon="6.85935">
        <ele>2144</ele>
        <time>2020-02-18T08:15:59.000Z</time>
      </trkpt>
      <trkpt lat="44.58508" lon="6.85936">
        <ele>2144</ele>
        <time>2020-02-18T08:16:00.000Z</time>
      </trkpt>
      <trkpt lat="44.585" lon="6.85937">
        <ele>2144</ele>
        <time>2020-02-18T08:16:10.000Z</time>
      </trkpt>
      <trkpt lat="44.58499" lon="6.85938">
        <ele>2151</ele>
        <time>2020-02-18T08:16:12.000Z</time>
      </trkpt>
      <trkpt lat="44.58499" lon="6.85939">
        <ele>2151</ele>
        <time>2020-02-18T08:16:14.000Z</time>
      </trkpt>
      <trkpt lat="44.58499" lon="6.85939">
        <ele>2151</ele>
        <time>2020-02-18T08:16:15.000Z</time>
      </trkpt>
      <trkpt lat="44.58488" lon="6.85942">
        <ele>2153</ele>
        <time>2020-02-18T08:16:21.000Z</time>
      </trkpt>
      <trkpt lat="44.58488" lon="6.85942">
        <ele>2153</ele>
        <time>2020-02-18T08:16:22.000Z</time>
      </trkpt>
      <trkpt lat="44.58487" lon="6.85942">
        <ele>2153</ele>
        <time>2020-02-18T08:16:23.000Z</time>
      </trkpt>
      <trkpt lat="44.58486" lon="6.85943">
        <ele>2153</ele>
        <time>2020-02-18T08:16:24.000Z</time>
      </trkpt>
      <trkpt lat="44.58485" lon="6.85944">
        <ele>2154</ele>
        <time>2020-02-18T08:16:25.000Z</time>
      </trkpt>
      <trkpt lat="44.58484" lon="6.85944">
        <ele>2154</ele>
        <time>2020-02-18T08:16:28.000Z</time>
      </trkpt>
      <trkpt lat="44.58481" lon="6.85946">
        <ele>2155</ele>
        <time>2020-02-18T08:16:36.000Z</time>
      </trkpt>
      <trkpt lat="44.58477" lon="6.85945">
        <ele>2155</ele>
        <time>2020-02-18T08:16:41.000Z</time>
      </trkpt>
      <trkpt lat="44.58473" lon="6.85945">
        <ele>2155</ele>
        <time>2020-02-18T08:16:47.000Z</time>
      </trkpt>
      <trkpt lat="44.58468" lon="6.85946">
        <ele>2156</ele>
        <time>2020-02-18T08:16:54.000Z</time>
      </trkpt>
      <trkpt lat="44.58464" lon="6.85945">
        <ele>2156</ele>
        <time>2020-02-18T08:17:06.000Z</time>
      </trkpt>
      <trkpt lat="44.58458" lon="6.85944">
        <ele>2156</ele>
        <time>2020-02-18T08:17:15.000Z</time>
      </trkpt>
      <trkpt lat="44.58457" lon="6.85945">
        <ele>2156</ele>
        <time>2020-02-18T08:17:17.000Z</time>
      </trkpt>
      <trkpt lat="44.58453" lon="6.85944">
        <ele>2156</ele>
        <time>2020-02-18T08:17:25.000Z</time>
      </trkpt>
      <trkpt lat="44.58448" lon="6.85945">
        <ele>2157</ele>
        <time>2020-02-18T08:17:33.000Z</time>
      </trkpt>
      <trkpt lat="44.58443" lon="6.85949">
        <ele>2157</ele>
        <time>2020-02-18T08:17:43.000Z</time>
      </trkpt>
      <trkpt lat="44.58444" lon="6.85949">
        <ele>2157</ele>
        <time>2020-02-18T08:17:46.000Z</time>
      </trkpt>
      <trkpt lat="44.58443" lon="6.85951">
        <ele>2158</ele>
        <time>2020-02-18T08:17:51.000Z</time>
      </trkpt>
      <trkpt lat="44.58444" lon="6.85954">
        <ele>2158</ele>
        <time>2020-02-18T08:17:57.000Z</time>
      </trkpt>
      <trkpt lat="44.58444" lon="6.85954">
        <ele>2158</ele>
        <time>2020-02-18T08:17:58.000Z</time>
      </trkpt>
      <trkpt lat="44.58444" lon="6.85953">
        <ele>2158</ele>
        <time>2020-02-18T08:18:00.000Z</time>
      </trkpt>
      <trkpt lat="44.58445" lon="6.85951">
        <ele>2158</ele>
        <time>2020-02-18T08:18:09.000Z</time>
      </trkpt>
      <trkpt lat="44.58445" lon="6.85951">
        <ele>2158</ele>
        <time>2020-02-18T08:18:10.000Z</time>
      </trkpt>
      <trkpt lat="44.58445" lon="6.85952">
        <ele>2158</ele>
        <time>2020-02-18T08:18:14.000Z</time>
      </trkpt>
      <trkpt lat="44.58444" lon="6.85951">
        <ele>2158</ele>
        <time>2020-02-18T08:18:23.000Z</time>
      </trkpt>
      <trkpt lat="44.58444" lon="6.85952">
        <ele>2158</ele>
        <time>2020-02-18T08:18:30.000Z</time>
      </trkpt>
      <trkpt lat="44.58444" lon="6.85953">
        <ele>2158</ele>
        <time>2020-02-18T08:18:39.000Z</time>
      </trkpt>
      <trkpt lat="44.58443" lon="6.85953">
        <ele>2158</ele>
        <time>2020-02-18T08:18:41.000Z</time>
      </trkpt>
      <trkpt lat="44.58444" lon="6.85952">
        <ele>2158</ele>
        <time>2020-02-18T08:18:43.000Z</time>
      </trkpt>
      <trkpt lat="44.58445" lon="6.8595">
        <ele>2157</ele>
        <time>2020-02-18T08:18:50.000Z</time>
      </trkpt>
      <trkpt lat="44.58439" lon="6.85954">
        <ele>2158</ele>
        <time>2020-02-18T08:19:05.000Z</time>
      </trkpt>
      <trkpt lat="44.58438" lon="6.85955">
        <ele>2158</ele>
        <time>2020-02-18T08:19:07.000Z</time>
      </trkpt>
      <trkpt lat="44.58437" lon="6.85956">
        <ele>2159</ele>
        <time>2020-02-18T08:19:09.000Z</time>
      </trkpt>
      <trkpt lat="44.58435" lon="6.85958">
        <ele>2159</ele>
        <time>2020-02-18T08:19:12.000Z</time>
      </trkpt>
      <trkpt lat="44.58434" lon="6.85959">
        <ele>2159</ele>
        <time>2020-02-18T08:19:15.000Z</time>
      </trkpt>
      <trkpt lat="44.58433" lon="6.8596">
        <ele>2159</ele>
        <time>2020-02-18T08:19:21.000Z</time>
      </trkpt>
      <trkpt lat="44.58432" lon="6.85962">
        <ele>2160</ele>
        <time>2020-02-18T08:19:23.000Z</time>
      </trkpt>
      <trkpt lat="44.5843" lon="6.85966">
        <ele>2160</ele>
        <time>2020-02-18T08:19:28.000Z</time>
      </trkpt>
      <trkpt lat="44.58429" lon="6.85968">
        <ele>2161</ele>
        <time>2020-02-18T08:19:30.000Z</time>
      </trkpt>
      <trkpt lat="44.58428" lon="6.85972">
        <ele>2162</ele>
        <time>2020-02-18T08:19:34.000Z</time>
      </trkpt>
      <trkpt lat="44.58426" lon="6.85973">
        <ele>2162</ele>
        <time>2020-02-18T08:19:40.000Z</time>
      </trkpt>
      <trkpt lat="44.58425" lon="6.85973">
        <ele>2162</ele>
        <time>2020-02-18T08:19:43.000Z</time>
      </trkpt>
      <trkpt lat="44.58423" lon="6.85977">
        <ele>2163</ele>
        <time>2020-02-18T08:19:49.000Z</time>
      </trkpt>
      <trkpt lat="44.58419" lon="6.85981">
        <ele>2164</ele>
        <time>2020-02-18T08:19:53.000Z</time>
      </trkpt>
      <trkpt lat="44.58419" lon="6.85982">
        <ele>2164</ele>
        <time>2020-02-18T08:19:54.000Z</time>
      </trkpt>
      <trkpt lat="44.58419" lon="6.85984">
        <ele>2165</ele>
        <time>2020-02-18T08:19:58.000Z</time>
      </trkpt>
      <trkpt lat="44.58416" lon="6.8599">
        <ele>2167</ele>
        <time>2020-02-18T08:20:05.000Z</time>
      </trkpt>
      <trkpt lat="44.58415" lon="6.85992">
        <ele>2167</ele>
        <time>2020-02-18T08:20:07.000Z</time>
      </trkpt>
      <trkpt lat="44.58415" lon="6.85996">
        <ele>2169</ele>
        <time>2020-02-18T08:20:13.000Z</time>
      </trkpt>
      <trkpt lat="44.58415" lon="6.85998">
        <ele>2170</ele>
        <time>2020-02-18T08:20:15.000Z</time>
      </trkpt>
      <trkpt lat="44.58415" lon="6.85999">
        <ele>2170</ele>
        <time>2020-02-18T08:20:16.000Z</time>
      </trkpt>
      <trkpt lat="44.58414" lon="6.86003">
        <ele>2172</ele>
        <time>2020-02-18T08:20:20.000Z</time>
      </trkpt>
      <trkpt lat="44.58414" lon="6.86004">
        <ele>2172</ele>
        <time>2020-02-18T08:20:21.000Z</time>
      </trkpt>
      <trkpt lat="44.58409" lon="6.86007">
        <ele>2172</ele>
        <time>2020-02-18T08:20:26.000Z</time>
      </trkpt>
      <trkpt lat="44.58402" lon="6.8601">
        <ele>2173</ele>
        <time>2020-02-18T08:20:32.000Z</time>
      </trkpt>
      <trkpt lat="44.58397" lon="6.86014">
        <ele>2173</ele>
        <time>2020-02-18T08:20:38.000Z</time>
      </trkpt>
      <trkpt lat="44.58396" lon="6.86016">
        <ele>2174</ele>
        <time>2020-02-18T08:20:41.000Z</time>
      </trkpt>
      <trkpt lat="44.58396" lon="6.86016">
        <ele>2174</ele>
        <time>2020-02-18T08:20:42.000Z</time>
      </trkpt>
      <trkpt lat="44.58395" lon="6.86018">
        <ele>2174</ele>
        <time>2020-02-18T08:20:46.000Z</time>
      </trkpt>
      <trkpt lat="44.58396" lon="6.8602">
        <ele>2174</ele>
        <time>2020-02-18T08:20:48.000Z</time>
      </trkpt>
      <trkpt lat="44.58395" lon="6.86026">
        <ele>2174</ele>
        <time>2020-02-18T08:20:53.000Z</time>
      </trkpt>
      <trkpt lat="44.58394" lon="6.86026">
        <ele>2174</ele>
        <time>2020-02-18T08:20:54.000Z</time>
      </trkpt>
      <trkpt lat="44.58393" lon="6.86028">
        <ele>2175</ele>
        <time>2020-02-18T08:20:56.000Z</time>
      </trkpt>
      <trkpt lat="44.58391" lon="6.86032">
        <ele>2175</ele>
        <time>2020-02-18T08:21:01.000Z</time>
      </trkpt>
      <trkpt lat="44.5839" lon="6.86033">
        <ele>2175</ele>
        <time>2020-02-18T08:21:02.000Z</time>
      </trkpt>
      <trkpt lat="44.58385" lon="6.8604">
        <ele>2176</ele>
        <time>2020-02-18T08:21:09.000Z</time>
      </trkpt>
      <trkpt lat="44.58385" lon="6.86043">
        <ele>2176</ele>
        <time>2020-02-18T08:21:11.000Z</time>
      </trkpt>
      <trkpt lat="44.58385" lon="6.86044">
        <ele>2176</ele>
        <time>2020-02-18T08:21:12.000Z</time>
      </trkpt>
      <trkpt lat="44.58385" lon="6.86046">
        <ele>2176</ele>
        <time>2020-02-18T08:21:13.000Z</time>
      </trkpt>
      <trkpt lat="44.58385" lon="6.86048">
        <ele>2176</ele>
        <time>2020-02-18T08:21:15.000Z</time>
      </trkpt>
      <trkpt lat="44.58386" lon="6.86051">
        <ele>2177</ele>
        <time>2020-02-18T08:21:18.000Z</time>
      </trkpt>
      <trkpt lat="44.58388" lon="6.8605">
        <ele>2177</ele>
        <time>2020-02-18T08:21:22.000Z</time>
      </trkpt>
      <trkpt lat="44.58388" lon="6.8605">
        <ele>2177</ele>
        <time>2020-02-18T08:21:23.000Z</time>
      </trkpt>
      <trkpt lat="44.58389" lon="6.86049">
        <ele>2177</ele>
        <time>2020-02-18T08:21:25.000Z</time>
      </trkpt>
      <trkpt lat="44.58388" lon="6.86053">
        <ele>2177</ele>
        <time>2020-02-18T08:21:30.000Z</time>
      </trkpt>
      <trkpt lat="44.58387" lon="6.86054">
        <ele>2177</ele>
        <time>2020-02-18T08:21:31.000Z</time>
      </trkpt>
      <trkpt lat="44.58386" lon="6.86055">
        <ele>2177</ele>
        <time>2020-02-18T08:21:33.000Z</time>
      </trkpt>
      <trkpt lat="44.58385" lon="6.86059">
        <ele>2177</ele>
        <time>2020-02-18T08:21:36.000Z</time>
      </trkpt>
      <trkpt lat="44.58385" lon="6.8606">
        <ele>2178</ele>
        <time>2020-02-18T08:21:37.000Z</time>
      </trkpt>
      <trkpt lat="44.58385" lon="6.86065">
        <ele>2178</ele>
        <time>2020-02-18T08:21:41.000Z</time>
      </trkpt>
      <trkpt lat="44.58385" lon="6.86066">
        <ele>2178</ele>
        <time>2020-02-18T08:21:42.000Z</time>
      </trkpt>
      <trkpt lat="44.58384" lon="6.86067">
        <ele>2178</ele>
        <time>2020-02-18T08:21:43.000Z</time>
      </trkpt>
      <trkpt lat="44.58382" lon="6.86074">
        <ele>2178</ele>
        <time>2020-02-18T08:21:49.000Z</time>
      </trkpt>
      <trkpt lat="44.58381" lon="6.86075">
        <ele>2179</ele>
        <time>2020-02-18T08:21:50.000Z</time>
      </trkpt>
      <trkpt lat="44.58382" lon="6.86077">
        <ele>2179</ele>
        <time>2020-02-18T08:21:52.000Z</time>
      </trkpt>
      <trkpt lat="44.58382" lon="6.86079">
        <ele>2179</ele>
        <time>2020-02-18T08:21:54.000Z</time>
      </trkpt>
      <trkpt lat="44.58381" lon="6.86083">
        <ele>2179</ele>
        <time>2020-02-18T08:21:58.000Z</time>
      </trkpt>
      <trkpt lat="44.58381" lon="6.86084">
        <ele>2188</ele>
        <time>2020-02-18T08:21:59.000Z</time>
      </trkpt>
      <trkpt lat="44.5838" lon="6.86089">
        <ele>2188</ele>
        <time>2020-02-18T08:22:02.000Z</time>
      </trkpt>
      <trkpt lat="44.58379" lon="6.86094">
        <ele>2188</ele>
        <time>2020-02-18T08:22:06.000Z</time>
      </trkpt>
      <trkpt lat="44.58378" lon="6.86097">
        <ele>2188</ele>
        <time>2020-02-18T08:22:09.000Z</time>
      </trkpt>
      <trkpt lat="44.58378" lon="6.86101">
        <ele>2188</ele>
        <time>2020-02-18T08:22:12.000Z</time>
      </trkpt>
      <trkpt lat="44.58378" lon="6.86108">
        <ele>2189</ele>
        <time>2020-02-18T08:22:18.000Z</time>
      </trkpt>
      <trkpt lat="44.58378" lon="6.86111">
        <ele>2189</ele>
        <time>2020-02-18T08:22:20.000Z</time>
      </trkpt>
      <trkpt lat="44.58377" lon="6.86115">
        <ele>2189</ele>
        <time>2020-02-18T08:22:24.000Z</time>
      </trkpt>
      <trkpt lat="44.58374" lon="6.86122">
        <ele>2190</ele>
        <time>2020-02-18T08:22:31.000Z</time>
      </trkpt>
      <trkpt lat="44.58373" lon="6.86124">
        <ele>2190</ele>
        <time>2020-02-18T08:22:33.000Z</time>
      </trkpt>
      <trkpt lat="44.58372" lon="6.86127">
        <ele>2190</ele>
        <time>2020-02-18T08:22:36.000Z</time>
      </trkpt>
      <trkpt lat="44.58372" lon="6.86132">
        <ele>2190</ele>
        <time>2020-02-18T08:22:40.000Z</time>
      </trkpt>
      <trkpt lat="44.58371" lon="6.86133">
        <ele>2191</ele>
        <time>2020-02-18T08:22:41.000Z</time>
      </trkpt>
      <trkpt lat="44.58371" lon="6.86134">
        <ele>2191</ele>
        <time>2020-02-18T08:22:43.000Z</time>
      </trkpt>
      <trkpt lat="44.58371" lon="6.86137">
        <ele>2191</ele>
        <time>2020-02-18T08:22:47.000Z</time>
      </trkpt>
      <trkpt lat="44.58369" lon="6.86142">
        <ele>2191</ele>
        <time>2020-02-18T08:22:52.000Z</time>
      </trkpt>
      <trkpt lat="44.58368" lon="6.86145">
        <ele>2191</ele>
        <time>2020-02-18T08:22:55.000Z</time>
      </trkpt>
      <trkpt lat="44.58366" lon="6.86147">
        <ele>2191</ele>
        <time>2020-02-18T08:23:00.000Z</time>
      </trkpt>
      <trkpt lat="44.58363" lon="6.86153">
        <ele>2192</ele>
        <time>2020-02-18T08:23:11.000Z</time>
      </trkpt>
      <trkpt lat="44.58362" lon="6.86155">
        <ele>2192</ele>
        <time>2020-02-18T08:23:12.000Z</time>
      </trkpt>
      <trkpt lat="44.58359" lon="6.86162">
        <ele>2192</ele>
        <time>2020-02-18T08:23:17.000Z</time>
      </trkpt>
      <trkpt lat="44.58359" lon="6.86164">
        <ele>2192</ele>
        <time>2020-02-18T08:23:20.000Z</time>
      </trkpt>
      <trkpt lat="44.58362" lon="6.86166">
        <ele>2192</ele>
        <time>2020-02-18T08:23:29.000Z</time>
      </trkpt>
      <trkpt lat="44.58363" lon="6.86166">
        <ele>2192</ele>
        <time>2020-02-18T08:23:33.000Z</time>
      </trkpt>
      <trkpt lat="44.58363" lon="6.86168">
        <ele>2201</ele>
        <time>2020-02-18T08:23:35.000Z</time>
      </trkpt>
      <trkpt lat="44.58365" lon="6.86169">
        <ele>2202</ele>
        <time>2020-02-18T08:23:39.000Z</time>
      </trkpt>
      <trkpt lat="44.58366" lon="6.86169">
        <ele>2202</ele>
        <time>2020-02-18T08:23:42.000Z</time>
      </trkpt>
      <trkpt lat="44.58371" lon="6.86173">
        <ele>2202</ele>
        <time>2020-02-18T08:23:50.000Z</time>
      </trkpt>
      <trkpt lat="44.58376" lon="6.86173">
        <ele>2202</ele>
        <time>2020-02-18T08:23:57.000Z</time>
      </trkpt>
      <trkpt lat="44.58383" lon="6.86173">
        <ele>2202</ele>
        <time>2020-02-18T08:24:01.000Z</time>
      </trkpt>
      <trkpt lat="44.58386" lon="6.86174">
        <ele>2202</ele>
        <time>2020-02-18T08:24:04.000Z</time>
      </trkpt>
      <trkpt lat="44.58387" lon="6.86174">
        <ele>2202</ele>
        <time>2020-02-18T08:24:06.000Z</time>
      </trkpt>
      <trkpt lat="44.58388" lon="6.86175">
        <ele>2202</ele>
        <time>2020-02-18T08:24:08.000Z</time>
      </trkpt>
      <trkpt lat="44.58388" lon="6.86177">
        <ele>2203</ele>
        <time>2020-02-18T08:24:13.000Z</time>
      </trkpt>
      <trkpt lat="44.58385" lon="6.86184">
        <ele>2203</ele>
        <time>2020-02-18T08:24:21.000Z</time>
      </trkpt>
      <trkpt lat="44.58383" lon="6.86187">
        <ele>2203</ele>
        <time>2020-02-18T08:24:33.000Z</time>
      </trkpt>
      <trkpt lat="44.58383" lon="6.86187">
        <ele>2203</ele>
        <time>2020-02-18T08:24:39.000Z</time>
      </trkpt>
      <trkpt lat="44.58381" lon="6.8619">
        <ele>2204</ele>
        <time>2020-02-18T08:24:42.000Z</time>
      </trkpt>
      <trkpt lat="44.5838" lon="6.8619">
        <ele>2204</ele>
        <time>2020-02-18T08:24:44.000Z</time>
      </trkpt>
      <trkpt lat="44.5838" lon="6.86191">
        <ele>2204</ele>
        <time>2020-02-18T08:24:46.000Z</time>
      </trkpt>
      <trkpt lat="44.58379" lon="6.86191">
        <ele>2204</ele>
        <time>2020-02-18T08:24:50.000Z</time>
      </trkpt>
      <trkpt lat="44.5838" lon="6.8619">
        <ele>2204</ele>
        <time>2020-02-18T08:24:52.000Z</time>
      </trkpt>
      <trkpt lat="44.5838" lon="6.8619">
        <ele>2204</ele>
        <time>2020-02-18T08:24:54.000Z</time>
      </trkpt>
      <trkpt lat="44.5838" lon="6.86191">
        <ele>2204</ele>
        <time>2020-02-18T08:24:57.000Z</time>
      </trkpt>
      <trkpt lat="44.58381" lon="6.86192">
        <ele>2204</ele>
        <time>2020-02-18T08:24:59.000Z</time>
      </trkpt>
      <trkpt lat="44.58381" lon="6.86187">
        <ele>2203</ele>
        <time>2020-02-18T08:25:08.000Z</time>
      </trkpt>
      <trkpt lat="44.58382" lon="6.86188">
        <ele>2203</ele>
        <time>2020-02-18T08:25:14.000Z</time>
      </trkpt>
      <trkpt lat="44.58383" lon="6.86188">
        <ele>2203</ele>
        <time>2020-02-18T08:25:19.000Z</time>
      </trkpt>
      <trkpt lat="44.58383" lon="6.86187">
        <ele>2203</ele>
        <time>2020-02-18T08:25:21.000Z</time>
      </trkpt>
      <trkpt lat="44.58381" lon="6.86186">
        <ele>2203</ele>
        <time>2020-02-18T08:25:25.000Z</time>
      </trkpt>
      <trkpt lat="44.58378" lon="6.86187">
        <ele>2203</ele>
        <time>2020-02-18T08:25:28.000Z</time>
      </trkpt>
      <trkpt lat="44.58376" lon="6.86186">
        <ele>2203</ele>
        <time>2020-02-18T08:25:33.000Z</time>
      </trkpt>
      <trkpt lat="44.58378" lon="6.86187">
        <ele>2203</ele>
        <time>2020-02-18T08:25:36.000Z</time>
      </trkpt>
      <trkpt lat="44.58378" lon="6.86188">
        <ele>2203</ele>
        <time>2020-02-18T08:25:37.000Z</time>
      </trkpt>
      <trkpt lat="44.58378" lon="6.86189">
        <ele>2204</ele>
        <time>2020-02-18T08:25:38.000Z</time>
      </trkpt>
      <trkpt lat="44.58377" lon="6.86191">
        <ele>2204</ele>
        <time>2020-02-18T08:25:40.000Z</time>
      </trkpt>
      <trkpt lat="44.58376" lon="6.86192">
        <ele>2204</ele>
        <time>2020-02-18T08:25:42.000Z</time>
      </trkpt>
      <trkpt lat="44.58375" lon="6.86192">
        <ele>2204</ele>
        <time>2020-02-18T08:25:44.000Z</time>
      </trkpt>
      <trkpt lat="44.58374" lon="6.86193">
        <ele>2204</ele>
        <time>2020-02-18T08:25:45.000Z</time>
      </trkpt>
      <trkpt lat="44.58372" lon="6.86195">
        <ele>2204</ele>
        <time>2020-02-18T08:25:49.000Z</time>
      </trkpt>
      <trkpt lat="44.58371" lon="6.86196">
        <ele>2204</ele>
        <time>2020-02-18T08:25:51.000Z</time>
      </trkpt>
      <trkpt lat="44.5837" lon="6.86197">
        <ele>2204</ele>
        <time>2020-02-18T08:25:53.000Z</time>
      </trkpt>
      <trkpt lat="44.58369" lon="6.86198">
        <ele>2204</ele>
        <time>2020-02-18T08:25:54.000Z</time>
      </trkpt>
      <trkpt lat="44.58367" lon="6.862">
        <ele>2204</ele>
        <time>2020-02-18T08:25:57.000Z</time>
      </trkpt>
      <trkpt lat="44.58367" lon="6.862">
        <ele>2204</ele>
        <time>2020-02-18T08:25:58.000Z</time>
      </trkpt>
      <trkpt lat="44.58366" lon="6.86202">
        <ele>2205</ele>
        <time>2020-02-18T08:26:00.000Z</time>
      </trkpt>
      <trkpt lat="44.58366" lon="6.86202">
        <ele>2205</ele>
        <time>2020-02-18T08:26:01.000Z</time>
      </trkpt>
      <trkpt lat="44.58361" lon="6.86204">
        <ele>2205</ele>
        <time>2020-02-18T08:26:07.000Z</time>
      </trkpt>
      <trkpt lat="44.58358" lon="6.86205">
        <ele>2205</ele>
        <time>2020-02-18T08:26:11.000Z</time>
      </trkpt>
      <trkpt lat="44.58357" lon="6.86206">
        <ele>2205</ele>
        <time>2020-02-18T08:26:12.000Z</time>
      </trkpt>
      <trkpt lat="44.58352" lon="6.86208">
        <ele>2205</ele>
        <time>2020-02-18T08:26:18.000Z</time>
      </trkpt>
      <trkpt lat="44.5835" lon="6.8621">
        <ele>2205</ele>
        <time>2020-02-18T08:26:22.000Z</time>
      </trkpt>
      <trkpt lat="44.5835" lon="6.8621">
        <ele>2205</ele>
        <time>2020-02-18T08:26:23.000Z</time>
      </trkpt>
      <trkpt lat="44.58346" lon="6.86214">
        <ele>2206</ele>
        <time>2020-02-18T08:26:27.000Z</time>
      </trkpt>
      <trkpt lat="44.58345" lon="6.86215">
        <ele>2206</ele>
        <time>2020-02-18T08:26:29.000Z</time>
      </trkpt>
      <trkpt lat="44.58342" lon="6.86218">
        <ele>2206</ele>
        <time>2020-02-18T08:26:33.000Z</time>
      </trkpt>
      <trkpt lat="44.58341" lon="6.86218">
        <ele>2207</ele>
        <time>2020-02-18T08:26:34.000Z</time>
      </trkpt>
      <trkpt lat="44.58339" lon="6.86219">
        <ele>2207</ele>
        <time>2020-02-18T08:26:37.000Z</time>
      </trkpt>
      <trkpt lat="44.58338" lon="6.8622">
        <ele>2207</ele>
        <time>2020-02-18T08:26:39.000Z</time>
      </trkpt>
      <trkpt lat="44.58336" lon="6.8622">
        <ele>2207</ele>
        <time>2020-02-18T08:26:43.000Z</time>
      </trkpt>
      <trkpt lat="44.58329" lon="6.86223">
        <ele>2207</ele>
        <time>2020-02-18T08:26:53.000Z</time>
      </trkpt>
      <trkpt lat="44.58325" lon="6.86224">
        <ele>2207</ele>
        <time>2020-02-18T08:26:59.000Z</time>
      </trkpt>
      <trkpt lat="44.58323" lon="6.86225">
        <ele>2207</ele>
        <time>2020-02-18T08:27:03.000Z</time>
      </trkpt>
      <trkpt lat="44.5832" lon="6.86228">
        <ele>2208</ele>
        <time>2020-02-18T08:27:09.000Z</time>
      </trkpt>
      <trkpt lat="44.58314" lon="6.86234">
        <ele>2208</ele>
        <time>2020-02-18T08:27:17.000Z</time>
      </trkpt>
      <trkpt lat="44.58314" lon="6.86235">
        <ele>2208</ele>
        <time>2020-02-18T08:27:19.000Z</time>
      </trkpt>
      <trkpt lat="44.5831" lon="6.86238">
        <ele>2208</ele>
        <time>2020-02-18T08:27:24.000Z</time>
      </trkpt>
      <trkpt lat="44.58309" lon="6.86239">
        <ele>2208</ele>
        <time>2020-02-18T08:27:25.000Z</time>
      </trkpt>
      <trkpt lat="44.58307" lon="6.86239">
        <ele>2208</ele>
        <time>2020-02-18T08:27:28.000Z</time>
      </trkpt>
      <trkpt lat="44.58303" lon="6.86243">
        <ele>2208</ele>
        <time>2020-02-18T08:27:35.000Z</time>
      </trkpt>
      <trkpt lat="44.58301" lon="6.86244">
        <ele>2208</ele>
        <time>2020-02-18T08:27:37.000Z</time>
      </trkpt>
      <trkpt lat="44.58294" lon="6.86249">
        <ele>2208</ele>
        <time>2020-02-18T08:27:47.000Z</time>
      </trkpt>
      <trkpt lat="44.58291" lon="6.86252">
        <ele>2220</ele>
        <time>2020-02-18T08:27:53.000Z</time>
      </trkpt>
      <trkpt lat="44.58291" lon="6.86252">
        <ele>2220</ele>
        <time>2020-02-18T08:27:54.000Z</time>
      </trkpt>
      <trkpt lat="44.5829" lon="6.86252">
        <ele>2220</ele>
        <time>2020-02-18T08:27:55.000Z</time>
      </trkpt>
      <trkpt lat="44.5829" lon="6.86253">
        <ele>2220</ele>
        <time>2020-02-18T08:27:56.000Z</time>
      </trkpt>
      <trkpt lat="44.58289" lon="6.86254">
        <ele>2220</ele>
        <time>2020-02-18T08:27:59.000Z</time>
      </trkpt>
      <trkpt lat="44.58282" lon="6.86261">
        <ele>2221</ele>
        <time>2020-02-18T08:28:09.000Z</time>
      </trkpt>
      <trkpt lat="44.58279" lon="6.86265">
        <ele>2221</ele>
        <time>2020-02-18T08:28:16.000Z</time>
      </trkpt>
      <trkpt lat="44.58278" lon="6.86266">
        <ele>2221</ele>
        <time>2020-02-18T08:28:18.000Z</time>
      </trkpt>
      <trkpt lat="44.58278" lon="6.86267">
        <ele>2221</ele>
        <time>2020-02-18T08:28:19.000Z</time>
      </trkpt>
      <trkpt lat="44.58278" lon="6.86268">
        <ele>2221</ele>
        <time>2020-02-18T08:28:20.000Z</time>
      </trkpt>
      <trkpt lat="44.58275" lon="6.86271">
        <ele>2221</ele>
        <time>2020-02-18T08:28:26.000Z</time>
      </trkpt>
      <trkpt lat="44.58273" lon="6.86272">
        <ele>2221</ele>
        <time>2020-02-18T08:28:28.000Z</time>
      </trkpt>
      <trkpt lat="44.58267" lon="6.86277">
        <ele>2222</ele>
        <time>2020-02-18T08:28:37.000Z</time>
      </trkpt>
      <trkpt lat="44.58266" lon="6.86279">
        <ele>2222</ele>
        <time>2020-02-18T08:28:39.000Z</time>
      </trkpt>
      <trkpt lat="44.58265" lon="6.8628">
        <ele>2222</ele>
        <time>2020-02-18T08:28:42.000Z</time>
      </trkpt>
      <trkpt lat="44.58265" lon="6.86281">
        <ele>2222</ele>
        <time>2020-02-18T08:28:43.000Z</time>
      </trkpt>
      <trkpt lat="44.58256" lon="6.86288">
        <ele>2223</ele>
        <time>2020-02-18T08:28:57.000Z</time>
      </trkpt>
      <trkpt lat="44.58247" lon="6.86292">
        <ele>2224</ele>
        <time>2020-02-18T08:29:08.000Z</time>
      </trkpt>
      <trkpt lat="44.58243" lon="6.86297">
        <ele>2225</ele>
        <time>2020-02-18T08:29:16.000Z</time>
      </trkpt>
      <trkpt lat="44.58241" lon="6.86297">
        <ele>2225</ele>
        <time>2020-02-18T08:29:18.000Z</time>
      </trkpt>
      <trkpt lat="44.58235" lon="6.86305">
        <ele>2226</ele>
        <time>2020-02-18T08:29:27.000Z</time>
      </trkpt>
      <trkpt lat="44.5823" lon="6.8631">
        <ele>2227</ele>
        <time>2020-02-18T08:29:37.000Z</time>
      </trkpt>
      <trkpt lat="44.58229" lon="6.86311">
        <ele>2227</ele>
        <time>2020-02-18T08:29:39.000Z</time>
      </trkpt>
      <trkpt lat="44.58226" lon="6.86314">
        <ele>2227</ele>
        <time>2020-02-18T08:29:44.000Z</time>
      </trkpt>
      <trkpt lat="44.58222" lon="6.86317">
        <ele>2227</ele>
        <time>2020-02-18T08:29:49.000Z</time>
      </trkpt>
      <trkpt lat="44.58217" lon="6.86319">
        <ele>2227</ele>
        <time>2020-02-18T08:29:55.000Z</time>
      </trkpt>
      <trkpt lat="44.58213" lon="6.86322">
        <ele>2227</ele>
        <time>2020-02-18T08:30:07.000Z</time>
      </trkpt>
      <trkpt lat="44.58208" lon="6.86324">
        <ele>2227</ele>
        <time>2020-02-18T08:30:12.000Z</time>
      </trkpt>
      <trkpt lat="44.58205" lon="6.86324">
        <ele>2227</ele>
        <time>2020-02-18T08:30:17.000Z</time>
      </trkpt>
      <trkpt lat="44.58202" lon="6.86325">
        <ele>2227</ele>
        <time>2020-02-18T08:30:20.000Z</time>
      </trkpt>
      <trkpt lat="44.58198" lon="6.86326">
        <ele>2227</ele>
        <time>2020-02-18T08:30:26.000Z</time>
      </trkpt>
      <trkpt lat="44.58198" lon="6.86326">
        <ele>2227</ele>
        <time>2020-02-18T08:30:28.000Z</time>
      </trkpt>
      <trkpt lat="44.582" lon="6.86325">
        <ele>2227</ele>
        <time>2020-02-18T08:30:37.000Z</time>
      </trkpt>
      <trkpt lat="44.58201" lon="6.86326">
        <ele>2227</ele>
        <time>2020-02-18T08:30:43.000Z</time>
      </trkpt>
      <trkpt lat="44.58201" lon="6.86326">
        <ele>2227</ele>
        <time>2020-02-18T08:30:45.000Z</time>
      </trkpt>
      <trkpt lat="44.58201" lon="6.86327">
        <ele>2227</ele>
        <time>2020-02-18T08:30:47.000Z</time>
      </trkpt>
      <trkpt lat="44.582" lon="6.86328">
        <ele>2227</ele>
        <time>2020-02-18T08:30:53.000Z</time>
      </trkpt>
      <trkpt lat="44.58201" lon="6.86328">
        <ele>2227</ele>
        <time>2020-02-18T08:30:55.000Z</time>
      </trkpt>
      <trkpt lat="44.58199" lon="6.86325">
        <ele>2227</ele>
        <time>2020-02-18T08:31:01.000Z</time>
      </trkpt>
      <trkpt lat="44.58196" lon="6.86322">
        <ele>2227</ele>
        <time>2020-02-18T08:31:04.000Z</time>
      </trkpt>
      <trkpt lat="44.58195" lon="6.86321">
        <ele>2227</ele>
        <time>2020-02-18T08:31:06.000Z</time>
      </trkpt>
      <trkpt lat="44.58196" lon="6.86322">
        <ele>2227</ele>
        <time>2020-02-18T08:31:09.000Z</time>
      </trkpt>
      <trkpt lat="44.58196" lon="6.86321">
        <ele>2227</ele>
        <time>2020-02-18T08:31:10.000Z</time>
      </trkpt>
      <trkpt lat="44.58196" lon="6.86321">
        <ele>2227</ele>
        <time>2020-02-18T08:31:11.000Z</time>
      </trkpt>
      <trkpt lat="44.58196" lon="6.8632">
        <ele>2227</ele>
        <time>2020-02-18T08:31:14.000Z</time>
      </trkpt>
      <trkpt lat="44.58197" lon="6.8632">
        <ele>2227</ele>
        <time>2020-02-18T08:31:17.000Z</time>
      </trkpt>
      <trkpt lat="44.58197" lon="6.86321">
        <ele>2227</ele>
        <time>2020-02-18T08:31:20.000Z</time>
      </trkpt>
      <trkpt lat="44.58197" lon="6.86321">
        <ele>2227</ele>
        <time>2020-02-18T08:31:22.000Z</time>
      </trkpt>
      <trkpt lat="44.58197" lon="6.8632">
        <ele>2227</ele>
        <time>2020-02-18T08:31:23.000Z</time>
      </trkpt>
      <trkpt lat="44.58197" lon="6.8632">
        <ele>2227</ele>
        <time>2020-02-18T08:31:24.000Z</time>
      </trkpt>
      <trkpt lat="44.58198" lon="6.8632">
        <ele>2227</ele>
        <time>2020-02-18T08:31:25.000Z</time>
      </trkpt>
      <trkpt lat="44.582" lon="6.86318">
        <ele>2226</ele>
        <time>2020-02-18T08:31:51.000Z</time>
      </trkpt>
      <trkpt lat="44.582" lon="6.86318">
        <ele>2226</ele>
        <time>2020-02-18T08:31:52.000Z</time>
      </trkpt>
      <trkpt lat="44.582" lon="6.86318">
        <ele>2226</ele>
        <time>2020-02-18T08:31:53.000Z</time>
      </trkpt>
      <trkpt lat="44.58199" lon="6.86319">
        <ele>2226</ele>
        <time>2020-02-18T08:31:54.000Z</time>
      </trkpt>
      <trkpt lat="44.58199" lon="6.86319">
        <ele>2226</ele>
        <time>2020-02-18T08:31:56.000Z</time>
      </trkpt>
      <trkpt lat="44.58197" lon="6.8632">
        <ele>2227</ele>
        <time>2020-02-18T08:31:58.000Z</time>
      </trkpt>
      <trkpt lat="44.58197" lon="6.8632">
        <ele>2227</ele>
        <time>2020-02-18T08:32:00.000Z</time>
      </trkpt>
      <trkpt lat="44.58196" lon="6.86319">
        <ele>2227</ele>
        <time>2020-02-18T08:32:01.000Z</time>
      </trkpt>
      <trkpt lat="44.58196" lon="6.86319">
        <ele>2226</ele>
        <time>2020-02-18T08:32:02.000Z</time>
      </trkpt>
      <trkpt lat="44.58196" lon="6.86319">
        <ele>2226</ele>
        <time>2020-02-18T08:32:05.000Z</time>
      </trkpt>
      <trkpt lat="44.58196" lon="6.86319">
        <ele>2226</ele>
        <time>2020-02-18T08:32:06.000Z</time>
      </trkpt>
      <trkpt lat="44.58196" lon="6.86319">
        <ele>2226</ele>
        <time>2020-02-18T08:32:07.000Z</time>
      </trkpt>
      <trkpt lat="44.58196" lon="6.86319">
        <ele>2226</ele>
        <time>2020-02-18T08:32:08.000Z</time>
      </trkpt>
      <trkpt lat="44.58196" lon="6.86319">
        <ele>2226</ele>
        <time>2020-02-18T08:32:09.000Z</time>
      </trkpt>
      <trkpt lat="44.58196" lon="6.86318">
        <ele>2226</ele>
        <time>2020-02-18T08:32:11.000Z</time>
      </trkpt>
      <trkpt lat="44.58192" lon="6.86315">
        <ele>2226</ele>
        <time>2020-02-18T08:32:14.000Z</time>
      </trkpt>
      <trkpt lat="44.58192" lon="6.86315">
        <ele>2226</ele>
        <time>2020-02-18T08:32:15.000Z</time>
      </trkpt>
      <trkpt lat="44.58193" lon="6.86316">
        <ele>2226</ele>
        <time>2020-02-18T08:32:19.000Z</time>
      </trkpt>
      <trkpt lat="44.58192" lon="6.86317">
        <ele>2226</ele>
        <time>2020-02-18T08:32:23.000Z</time>
      </trkpt>
      <trkpt lat="44.58192" lon="6.86317">
        <ele>2226</ele>
        <time>2020-02-18T08:32:24.000Z</time>
      </trkpt>
      <trkpt lat="44.58199" lon="6.86322">
        <ele>2227</ele>
        <time>2020-02-18T08:32:34.000Z</time>
      </trkpt>
      <trkpt lat="44.58199" lon="6.86322">
        <ele>2227</ele>
        <time>2020-02-18T08:32:46.000Z</time>
      </trkpt>
      <trkpt lat="44.582" lon="6.86324">
        <ele>2227</ele>
        <time>2020-02-18T08:32:49.000Z</time>
      </trkpt>
      <trkpt lat="44.58201" lon="6.86325">
        <ele>2227</ele>
        <time>2020-02-18T08:32:50.000Z</time>
      </trkpt>
      <trkpt lat="44.58202" lon="6.86329">
        <ele>2227</ele>
        <time>2020-02-18T08:33:00.000Z</time>
      </trkpt>
      <trkpt lat="44.58202" lon="6.86329">
        <ele>2227</ele>
        <time>2020-02-18T08:33:02.000Z</time>
      </trkpt>
      <trkpt lat="44.58201" lon="6.86329">
        <ele>2227</ele>
        <time>2020-02-18T08:33:03.000Z</time>
      </trkpt>
      <trkpt lat="44.58201" lon="6.86331">
        <ele>2227</ele>
        <time>2020-02-18T08:33:05.000Z</time>
      </trkpt>
      <trkpt lat="44.582" lon="6.8633">
        <ele>2227</ele>
        <time>2020-02-18T08:33:07.000Z</time>
      </trkpt>
      <trkpt lat="44.58196" lon="6.86326">
        <ele>2227</ele>
        <time>2020-02-18T08:33:12.000Z</time>
      </trkpt>
      <trkpt lat="44.58192" lon="6.8632">
        <ele>2227</ele>
        <time>2020-02-18T08:33:16.000Z</time>
      </trkpt>
      <trkpt lat="44.582" lon="6.86317">
        <ele>2226</ele>
        <time>2020-02-18T08:33:24.000Z</time>
      </trkpt>
      <trkpt lat="44.58201" lon="6.8632">
        <ele>2227</ele>
        <time>2020-02-18T08:33:33.000Z</time>
      </trkpt>
      <trkpt lat="44.58196" lon="6.86323">
        <ele>2227</ele>
        <time>2020-02-18T08:33:40.000Z</time>
      </trkpt>
      <trkpt lat="44.58188" lon="6.86331">
        <ele>2227</ele>
        <time>2020-02-18T08:33:51.000Z</time>
      </trkpt>
      <trkpt lat="44.58186" lon="6.86332">
        <ele>2227</ele>
        <time>2020-02-18T08:33:54.000Z</time>
      </trkpt>
      <trkpt lat="44.58185" lon="6.86331">
        <ele>2228</ele>
        <time>2020-02-18T08:33:55.000Z</time>
      </trkpt>
      <trkpt lat="44.58181" lon="6.86334">
        <ele>2236</ele>
        <time>2020-02-18T08:34:00.000Z</time>
      </trkpt>
      <trkpt lat="44.58179" lon="6.86336">
        <ele>2235</ele>
        <time>2020-02-18T08:34:03.000Z</time>
      </trkpt>
      <trkpt lat="44.58177" lon="6.86339">
        <ele>2235</ele>
        <time>2020-02-18T08:34:07.000Z</time>
      </trkpt>
      <trkpt lat="44.58176" lon="6.8634">
        <ele>2235</ele>
        <time>2020-02-18T08:34:10.000Z</time>
      </trkpt>
      <trkpt lat="44.58174" lon="6.86343">
        <ele>2235</ele>
        <time>2020-02-18T08:34:14.000Z</time>
      </trkpt>
      <trkpt lat="44.58172" lon="6.86344">
        <ele>2236</ele>
        <time>2020-02-18T08:34:16.000Z</time>
      </trkpt>
      <trkpt lat="44.58172" lon="6.86344">
        <ele>2235</ele>
        <time>2020-02-18T08:34:18.000Z</time>
      </trkpt>
      <trkpt lat="44.58171" lon="6.86347">
        <ele>2236</ele>
        <time>2020-02-18T08:34:21.000Z</time>
      </trkpt>
      <trkpt lat="44.58168" lon="6.86348">
        <ele>2236</ele>
        <time>2020-02-18T08:34:24.000Z</time>
      </trkpt>
      <trkpt lat="44.58167" lon="6.86348">
        <ele>2236</ele>
        <time>2020-02-18T08:34:26.000Z</time>
      </trkpt>
      <trkpt lat="44.58167" lon="6.86349">
        <ele>2238</ele>
        <time>2020-02-18T08:34:27.000Z</time>
      </trkpt>
      <trkpt lat="44.58165" lon="6.86352">
        <ele>2238</ele>
        <time>2020-02-18T08:34:30.000Z</time>
      </trkpt>
      <trkpt lat="44.58161" lon="6.86356">
        <ele>2240</ele>
        <time>2020-02-18T08:34:36.000Z</time>
      </trkpt>
      <trkpt lat="44.58159" lon="6.86358">
        <ele>2240</ele>
        <time>2020-02-18T08:34:39.000Z</time>
      </trkpt>
      <trkpt lat="44.58158" lon="6.86358">
        <ele>2241</ele>
        <time>2020-02-18T08:34:40.000Z</time>
      </trkpt>
      <trkpt lat="44.58158" lon="6.86359">
        <ele>2241</ele>
        <time>2020-02-18T08:34:41.000Z</time>
      </trkpt>
      <trkpt lat="44.58156" lon="6.86361">
        <ele>2241</ele>
        <time>2020-02-18T08:34:44.000Z</time>
      </trkpt>
      <trkpt lat="44.58155" lon="6.86362">
        <ele>2242</ele>
        <time>2020-02-18T08:34:46.000Z</time>
      </trkpt>
      <trkpt lat="44.58154" lon="6.86362">
        <ele>2242</ele>
        <time>2020-02-18T08:34:47.000Z</time>
      </trkpt>
      <trkpt lat="44.58153" lon="6.86362">
        <ele>2242</ele>
        <time>2020-02-18T08:34:48.000Z</time>
      </trkpt>
      <trkpt lat="44.58152" lon="6.86363">
        <ele>2242</ele>
        <time>2020-02-18T08:34:50.000Z</time>
      </trkpt>
      <trkpt lat="44.58151" lon="6.86364">
        <ele>2242</ele>
        <time>2020-02-18T08:34:51.000Z</time>
      </trkpt>
      <trkpt lat="44.58151" lon="6.86365">
        <ele>2243</ele>
        <time>2020-02-18T08:34:52.000Z</time>
      </trkpt>
      <trkpt lat="44.58148" lon="6.86368">
        <ele>2243</ele>
        <time>2020-02-18T08:34:57.000Z</time>
      </trkpt>
      <trkpt lat="44.58145" lon="6.86371">
        <ele>2244</ele>
        <time>2020-02-18T08:35:01.000Z</time>
      </trkpt>
      <trkpt lat="44.58145" lon="6.86371">
        <ele>2244</ele>
        <time>2020-02-18T08:35:02.000Z</time>
      </trkpt>
      <trkpt lat="44.58144" lon="6.86372">
        <ele>2244</ele>
        <time>2020-02-18T08:35:03.000Z</time>
      </trkpt>
      <trkpt lat="44.58143" lon="6.86375">
        <ele>2245</ele>
        <time>2020-02-18T08:35:06.000Z</time>
      </trkpt>
      <trkpt lat="44.5814" lon="6.86381">
        <ele>2246</ele>
        <time>2020-02-18T08:35:14.000Z</time>
      </trkpt>
      <trkpt lat="44.5814" lon="6.86382">
        <ele>2246</ele>
        <time>2020-02-18T08:35:15.000Z</time>
      </trkpt>
      <trkpt lat="44.58137" lon="6.86387">
        <ele>2246</ele>
        <time>2020-02-18T08:35:21.000Z</time>
      </trkpt>
      <trkpt lat="44.58135" lon="6.86394">
        <ele>2247</ele>
        <time>2020-02-18T08:35:28.000Z</time>
      </trkpt>
      <trkpt lat="44.58137" lon="6.86397">
        <ele>2248</ele>
        <time>2020-02-18T08:35:32.000Z</time>
      </trkpt>
      <trkpt lat="44.5814" lon="6.864">
        <ele>2248</ele>
        <time>2020-02-18T08:35:37.000Z</time>
      </trkpt>
      <trkpt lat="44.58141" lon="6.86404">
        <ele>2248</ele>
        <time>2020-02-18T08:35:43.000Z</time>
      </trkpt>
      <trkpt lat="44.58146" lon="6.86405">
        <ele>2249</ele>
        <time>2020-02-18T08:35:49.000Z</time>
      </trkpt>
      <trkpt lat="44.58142" lon="6.86408">
        <ele>2249</ele>
        <time>2020-02-18T08:35:53.000Z</time>
      </trkpt>
      <trkpt lat="44.58139" lon="6.86409">
        <ele>2249</ele>
        <time>2020-02-18T08:35:57.000Z</time>
      </trkpt>
      <trkpt lat="44.58137" lon="6.8641">
        <ele>2249</ele>
        <time>2020-02-18T08:36:00.000Z</time>
      </trkpt>
      <trkpt lat="44.58136" lon="6.86411">
        <ele>2249</ele>
        <time>2020-02-18T08:36:02.000Z</time>
      </trkpt>
      <trkpt lat="44.58135" lon="6.86411">
        <ele>2249</ele>
        <time>2020-02-18T08:36:03.000Z</time>
      </trkpt>
      <trkpt lat="44.58134" lon="6.86411">
        <ele>2249</ele>
        <time>2020-02-18T08:36:06.000Z</time>
      </trkpt>
      <trkpt lat="44.58133" lon="6.86411">
        <ele>2249</ele>
        <time>2020-02-18T08:36:07.000Z</time>
      </trkpt>
      <trkpt lat="44.5813" lon="6.86414">
        <ele>2249</ele>
        <time>2020-02-18T08:36:11.000Z</time>
      </trkpt>
      <trkpt lat="44.58129" lon="6.86415">
        <ele>2249</ele>
        <time>2020-02-18T08:36:12.000Z</time>
      </trkpt>
      <trkpt lat="44.58128" lon="6.86416">
        <ele>2249</ele>
        <time>2020-02-18T08:36:13.000Z</time>
      </trkpt>
      <trkpt lat="44.58125" lon="6.86419">
        <ele>2263</ele>
        <time>2020-02-18T08:36:18.000Z</time>
      </trkpt>
      <trkpt lat="44.58123" lon="6.86421">
        <ele>2263</ele>
        <time>2020-02-18T08:36:22.000Z</time>
      </trkpt>
      <trkpt lat="44.58123" lon="6.86422">
        <ele>2263</ele>
        <time>2020-02-18T08:36:23.000Z</time>
      </trkpt>
      <trkpt lat="44.58122" lon="6.86422">
        <ele>2263</ele>
        <time>2020-02-18T08:36:24.000Z</time>
      </trkpt>
      <trkpt lat="44.58121" lon="6.86423">
        <ele>2263</ele>
        <time>2020-02-18T08:36:25.000Z</time>
      </trkpt>
      <trkpt lat="44.5812" lon="6.86423">
        <ele>2263</ele>
        <time>2020-02-18T08:36:26.000Z</time>
      </trkpt>
      <trkpt lat="44.58118" lon="6.86425">
        <ele>2263</ele>
        <time>2020-02-18T08:36:29.000Z</time>
      </trkpt>
      <trkpt lat="44.58117" lon="6.86425">
        <ele>2263</ele>
        <time>2020-02-18T08:36:30.000Z</time>
      </trkpt>
      <trkpt lat="44.58115" lon="6.86426">
        <ele>2263</ele>
        <time>2020-02-18T08:36:32.000Z</time>
      </trkpt>
      <trkpt lat="44.58114" lon="6.86427">
        <ele>2263</ele>
        <time>2020-02-18T08:36:34.000Z</time>
      </trkpt>
      <trkpt lat="44.58113" lon="6.86427">
        <ele>2263</ele>
        <time>2020-02-18T08:36:35.000Z</time>
      </trkpt>
      <trkpt lat="44.58111" lon="6.86429">
        <ele>2263</ele>
        <time>2020-02-18T08:36:38.000Z</time>
      </trkpt>
      <trkpt lat="44.58107" lon="6.86432">
        <ele>2263</ele>
        <time>2020-02-18T08:36:44.000Z</time>
      </trkpt>
      <trkpt lat="44.58106" lon="6.86433">
        <ele>2263</ele>
        <time>2020-02-18T08:36:45.000Z</time>
      </trkpt>
      <trkpt lat="44.58105" lon="6.86434">
        <ele>2263</ele>
        <time>2020-02-18T08:36:47.000Z</time>
      </trkpt>
      <trkpt lat="44.58103" lon="6.86437">
        <ele>2264</ele>
        <time>2020-02-18T08:36:50.000Z</time>
      </trkpt>
      <trkpt lat="44.58101" lon="6.86438">
        <ele>2264</ele>
        <time>2020-02-18T08:36:52.000Z</time>
      </trkpt>
      <trkpt lat="44.581" lon="6.8644">
        <ele>2264</ele>
        <time>2020-02-18T08:36:54.000Z</time>
      </trkpt>
      <trkpt lat="44.58099" lon="6.86441">
        <ele>2264</ele>
        <time>2020-02-18T08:36:57.000Z</time>
      </trkpt>
      <trkpt lat="44.58098" lon="6.86442">
        <ele>2264</ele>
        <time>2020-02-18T08:36:58.000Z</time>
      </trkpt>
      <trkpt lat="44.58097" lon="6.86442">
        <ele>2264</ele>
        <time>2020-02-18T08:36:59.000Z</time>
      </trkpt>
      <trkpt lat="44.58097" lon="6.86443">
        <ele>2265</ele>
        <time>2020-02-18T08:37:00.000Z</time>
      </trkpt>
      <trkpt lat="44.58095" lon="6.86445">
        <ele>2265</ele>
        <time>2020-02-18T08:37:03.000Z</time>
      </trkpt>
      <trkpt lat="44.58092" lon="6.86447">
        <ele>2265</ele>
        <time>2020-02-18T08:37:06.000Z</time>
      </trkpt>
      <trkpt lat="44.58091" lon="6.86447">
        <ele>2265</ele>
        <time>2020-02-18T08:37:07.000Z</time>
      </trkpt>
      <trkpt lat="44.58091" lon="6.86447">
        <ele>2265</ele>
        <time>2020-02-18T08:37:08.000Z</time>
      </trkpt>
      <trkpt lat="44.58086" lon="6.86449">
        <ele>2266</ele>
        <time>2020-02-18T08:37:14.000Z</time>
      </trkpt>
      <trkpt lat="44.58085" lon="6.8645">
        <ele>2266</ele>
        <time>2020-02-18T08:37:15.000Z</time>
      </trkpt>
      <trkpt lat="44.58085" lon="6.86451">
        <ele>2266</ele>
        <time>2020-02-18T08:37:16.000Z</time>
      </trkpt>
      <trkpt lat="44.58083" lon="6.86452">
        <ele>2271</ele>
        <time>2020-02-18T08:37:18.000Z</time>
      </trkpt>
      <trkpt lat="44.58082" lon="6.86454">
        <ele>2271</ele>
        <time>2020-02-18T08:37:20.000Z</time>
      </trkpt>
      <trkpt lat="44.5808" lon="6.86456">
        <ele>2272</ele>
        <time>2020-02-18T08:37:23.000Z</time>
      </trkpt>
      <trkpt lat="44.58079" lon="6.86459">
        <ele>2272</ele>
        <time>2020-02-18T08:37:25.000Z</time>
      </trkpt>
      <trkpt lat="44.58078" lon="6.86459">
        <ele>2273</ele>
        <time>2020-02-18T08:37:26.000Z</time>
      </trkpt>
      <trkpt lat="44.58076" lon="6.86461">
        <ele>2273</ele>
        <time>2020-02-18T08:37:30.000Z</time>
      </trkpt>
      <trkpt lat="44.58076" lon="6.86462">
        <ele>2273</ele>
        <time>2020-02-18T08:37:32.000Z</time>
      </trkpt>
      <trkpt lat="44.58074" lon="6.86465">
        <ele>2274</ele>
        <time>2020-02-18T08:37:36.000Z</time>
      </trkpt>
      <trkpt lat="44.58072" lon="6.86468">
        <ele>2275</ele>
        <time>2020-02-18T08:37:40.000Z</time>
      </trkpt>
      <trkpt lat="44.58071" lon="6.86469">
        <ele>2275</ele>
        <time>2020-02-18T08:37:41.000Z</time>
      </trkpt>
      <trkpt lat="44.58068" lon="6.86471">
        <ele>2275</ele>
        <time>2020-02-18T08:37:47.000Z</time>
      </trkpt>
      <trkpt lat="44.58063" lon="6.86477">
        <ele>2276</ele>
        <time>2020-02-18T08:37:55.000Z</time>
      </trkpt>
      <trkpt lat="44.58058" lon="6.86478">
        <ele>2276</ele>
        <time>2020-02-18T08:38:01.000Z</time>
      </trkpt>
      <trkpt lat="44.58055" lon="6.86478">
        <ele>2276</ele>
        <time>2020-02-18T08:38:06.000Z</time>
      </trkpt>
      <trkpt lat="44.58054" lon="6.86478">
        <ele>2277</ele>
        <time>2020-02-18T08:38:07.000Z</time>
      </trkpt>
      <trkpt lat="44.58053" lon="6.86479">
        <ele>2277</ele>
        <time>2020-02-18T08:38:09.000Z</time>
      </trkpt>
      <trkpt lat="44.58052" lon="6.86478">
        <ele>2277</ele>
        <time>2020-02-18T08:38:10.000Z</time>
      </trkpt>
      <trkpt lat="44.58052" lon="6.86478">
        <ele>2277</ele>
        <time>2020-02-18T08:38:11.000Z</time>
      </trkpt>
      <trkpt lat="44.58052" lon="6.86478">
        <ele>2277</ele>
        <time>2020-02-18T08:38:12.000Z</time>
      </trkpt>
      <trkpt lat="44.5805" lon="6.86476">
        <ele>2276</ele>
        <time>2020-02-18T08:38:16.000Z</time>
      </trkpt>
      <trkpt lat="44.58049" lon="6.86476">
        <ele>2276</ele>
        <time>2020-02-18T08:38:17.000Z</time>
      </trkpt>
      <trkpt lat="44.58042" lon="6.86476">
        <ele>2277</ele>
        <time>2020-02-18T08:38:26.000Z</time>
      </trkpt>
      <trkpt lat="44.58042" lon="6.86476">
        <ele>2277</ele>
        <time>2020-02-18T08:38:27.000Z</time>
      </trkpt>
      <trkpt lat="44.58042" lon="6.86477">
        <ele>2277</ele>
        <time>2020-02-18T08:38:28.000Z</time>
      </trkpt>
      <trkpt lat="44.58041" lon="6.86477">
        <ele>2277</ele>
        <time>2020-02-18T08:38:29.000Z</time>
      </trkpt>
      <trkpt lat="44.58036" lon="6.86476">
        <ele>2277</ele>
        <time>2020-02-18T08:38:38.000Z</time>
      </trkpt>
      <trkpt lat="44.58034" lon="6.86477">
        <ele>2277</ele>
        <time>2020-02-18T08:38:42.000Z</time>
      </trkpt>
      <trkpt lat="44.5803" lon="6.86477">
        <ele>2278</ele>
        <time>2020-02-18T08:38:46.000Z</time>
      </trkpt>
      <trkpt lat="44.58029" lon="6.86478">
        <ele>2278</ele>
        <time>2020-02-18T08:38:48.000Z</time>
      </trkpt>
      <trkpt lat="44.58028" lon="6.86479">
        <ele>2278</ele>
        <time>2020-02-18T08:38:51.000Z</time>
      </trkpt>
      <trkpt lat="44.58026" lon="6.86477">
        <ele>2278</ele>
        <time>2020-02-18T08:38:54.000Z</time>
      </trkpt>
      <trkpt lat="44.5802" lon="6.86477">
        <ele>2279</ele>
        <time>2020-02-18T08:39:02.000Z</time>
      </trkpt>
      <trkpt lat="44.58018" lon="6.8648">
        <ele>2279</ele>
        <time>2020-02-18T08:39:08.000Z</time>
      </trkpt>
      <trkpt lat="44.58017" lon="6.86482">
        <ele>2280</ele>
        <time>2020-02-18T08:39:23.000Z</time>
      </trkpt>
      <trkpt lat="44.58017" lon="6.86483">
        <ele>2280</ele>
        <time>2020-02-18T08:39:25.000Z</time>
      </trkpt>
      <trkpt lat="44.58015" lon="6.86484">
        <ele>2280</ele>
        <time>2020-02-18T08:39:29.000Z</time>
      </trkpt>
      <trkpt lat="44.58015" lon="6.86484">
        <ele>2280</ele>
        <time>2020-02-18T08:39:30.000Z</time>
      </trkpt>
      <trkpt lat="44.58014" lon="6.86485">
        <ele>2280</ele>
        <time>2020-02-18T08:39:31.000Z</time>
      </trkpt>
      <trkpt lat="44.58014" lon="6.86485">
        <ele>2280</ele>
        <time>2020-02-18T08:39:32.000Z</time>
      </trkpt>
      <trkpt lat="44.58013" lon="6.86485">
        <ele>2281</ele>
        <time>2020-02-18T08:39:33.000Z</time>
      </trkpt>
      <trkpt lat="44.58012" lon="6.86485">
        <ele>2281</ele>
        <time>2020-02-18T08:39:35.000Z</time>
      </trkpt>
      <trkpt lat="44.58012" lon="6.86486">
        <ele>2281</ele>
        <time>2020-02-18T08:39:36.000Z</time>
      </trkpt>
      <trkpt lat="44.5801" lon="6.86486">
        <ele>2281</ele>
        <time>2020-02-18T08:39:40.000Z</time>
      </trkpt>
      <trkpt lat="44.58009" lon="6.86487">
        <ele>2281</ele>
        <time>2020-02-18T08:39:41.000Z</time>
      </trkpt>
      <trkpt lat="44.58007" lon="6.8649">
        <ele>2282</ele>
        <time>2020-02-18T08:39:45.000Z</time>
      </trkpt>
      <trkpt lat="44.58005" lon="6.86495">
        <ele>2284</ele>
        <time>2020-02-18T08:39:50.000Z</time>
      </trkpt>
      <trkpt lat="44.58002" lon="6.86502">
        <ele>2287</ele>
        <time>2020-02-18T08:39:56.000Z</time>
      </trkpt>
      <trkpt lat="44.58" lon="6.86503">
        <ele>2288</ele>
        <time>2020-02-18T08:39:59.000Z</time>
      </trkpt>
      <trkpt lat="44.57997" lon="6.86503">
        <ele>2289</ele>
        <time>2020-02-18T08:40:02.000Z</time>
      </trkpt>
      <trkpt lat="44.57993" lon="6.86503">
        <ele>2291</ele>
        <time>2020-02-18T08:40:07.000Z</time>
      </trkpt>
      <trkpt lat="44.57992" lon="6.86504">
        <ele>2291</ele>
        <time>2020-02-18T08:40:09.000Z</time>
      </trkpt>
      <trkpt lat="44.5799" lon="6.86506">
        <ele>2293</ele>
        <time>2020-02-18T08:40:13.000Z</time>
      </trkpt>
      <trkpt lat="44.57989" lon="6.86506">
        <ele>2293</ele>
        <time>2020-02-18T08:40:14.000Z</time>
      </trkpt>
      <trkpt lat="44.57989" lon="6.86506">
        <ele>2293</ele>
        <time>2020-02-18T08:40:15.000Z</time>
      </trkpt>
      <trkpt lat="44.57987" lon="6.86505">
        <ele>2293</ele>
        <time>2020-02-18T08:40:18.000Z</time>
      </trkpt>
      <trkpt lat="44.57987" lon="6.86505">
        <ele>2294</ele>
        <time>2020-02-18T08:40:19.000Z</time>
      </trkpt>
      <trkpt lat="44.57983" lon="6.86503">
        <ele>2295</ele>
        <time>2020-02-18T08:40:24.000Z</time>
      </trkpt>
      <trkpt lat="44.57976" lon="6.86504">
        <ele>2297</ele>
        <time>2020-02-18T08:40:32.000Z</time>
      </trkpt>
      <trkpt lat="44.57973" lon="6.86506">
        <ele>2298</ele>
        <time>2020-02-18T08:40:37.000Z</time>
      </trkpt>
      <trkpt lat="44.57973" lon="6.86507">
        <ele>2298</ele>
        <time>2020-02-18T08:40:38.000Z</time>
      </trkpt>
      <trkpt lat="44.57971" lon="6.86509">
        <ele>2299</ele>
        <time>2020-02-18T08:40:43.000Z</time>
      </trkpt>
      <trkpt lat="44.57966" lon="6.86508">
        <ele>2300</ele>
        <time>2020-02-18T08:40:49.000Z</time>
      </trkpt>
      <trkpt lat="44.57964" lon="6.86509">
        <ele>2300</ele>
        <time>2020-02-18T08:40:51.000Z</time>
      </trkpt>
      <trkpt lat="44.5796" lon="6.86509">
        <ele>2301</ele>
        <time>2020-02-18T08:40:56.000Z</time>
      </trkpt>
      <trkpt lat="44.57959" lon="6.86509">
        <ele>2301</ele>
        <time>2020-02-18T08:40:57.000Z</time>
      </trkpt>
      <trkpt lat="44.57959" lon="6.86509">
        <ele>2301</ele>
        <time>2020-02-18T08:40:58.000Z</time>
      </trkpt>
      <trkpt lat="44.57957" lon="6.8651">
        <ele>2301</ele>
        <time>2020-02-18T08:41:01.000Z</time>
      </trkpt>
      <trkpt lat="44.57956" lon="6.8651">
        <ele>2302</ele>
        <time>2020-02-18T08:41:02.000Z</time>
      </trkpt>
      <trkpt lat="44.57953" lon="6.86512">
        <ele>2302</ele>
        <time>2020-02-18T08:41:06.000Z</time>
      </trkpt>
      <trkpt lat="44.57951" lon="6.86513">
        <ele>2303</ele>
        <time>2020-02-18T08:41:12.000Z</time>
      </trkpt>
      <trkpt lat="44.57947" lon="6.86515">
        <ele>2303</ele>
        <time>2020-02-18T08:41:20.000Z</time>
      </trkpt>
      <trkpt lat="44.57947" lon="6.86514">
        <ele>2303</ele>
        <time>2020-02-18T08:41:21.000Z</time>
      </trkpt>
      <trkpt lat="44.57946" lon="6.86516">
        <ele>2303</ele>
        <time>2020-02-18T08:41:31.000Z</time>
      </trkpt>
      <trkpt lat="44.57945" lon="6.86517">
        <ele>2303</ele>
        <time>2020-02-18T08:41:33.000Z</time>
      </trkpt>
      <trkpt lat="44.57945" lon="6.86517">
        <ele>2303</ele>
        <time>2020-02-18T08:41:34.000Z</time>
      </trkpt>
      <trkpt lat="44.57945" lon="6.86516">
        <ele>2303</ele>
        <time>2020-02-18T08:41:37.000Z</time>
      </trkpt>
      <trkpt lat="44.57942" lon="6.86518">
        <ele>2304</ele>
        <time>2020-02-18T08:41:44.000Z</time>
      </trkpt>
      <trkpt lat="44.5794" lon="6.8652">
        <ele>2304</ele>
        <time>2020-02-18T08:41:51.000Z</time>
      </trkpt>
      <trkpt lat="44.57938" lon="6.86521">
        <ele>2304</ele>
        <time>2020-02-18T08:41:53.000Z</time>
      </trkpt>
      <trkpt lat="44.57937" lon="6.86523">
        <ele>2304</ele>
        <time>2020-02-18T08:41:57.000Z</time>
      </trkpt>
      <trkpt lat="44.57933" lon="6.86528">
        <ele>2305</ele>
        <time>2020-02-18T08:42:06.000Z</time>
      </trkpt>
      <trkpt lat="44.57929" lon="6.86533">
        <ele>2305</ele>
        <time>2020-02-18T08:42:15.000Z</time>
      </trkpt>
      <trkpt lat="44.57928" lon="6.86535">
        <ele>2305</ele>
        <time>2020-02-18T08:42:16.000Z</time>
      </trkpt>
      <trkpt lat="44.57927" lon="6.86535">
        <ele>2305</ele>
        <time>2020-02-18T08:42:17.000Z</time>
      </trkpt>
      <trkpt lat="44.57926" lon="6.86537">
        <ele>2305</ele>
        <time>2020-02-18T08:42:18.000Z</time>
      </trkpt>
      <trkpt lat="44.57926" lon="6.86537">
        <ele>2305</ele>
        <time>2020-02-18T08:42:19.000Z</time>
      </trkpt>
      <trkpt lat="44.57926" lon="6.86538">
        <ele>2306</ele>
        <time>2020-02-18T08:42:20.000Z</time>
      </trkpt>
      <trkpt lat="44.57923" lon="6.86539">
        <ele>2306</ele>
        <time>2020-02-18T08:42:23.000Z</time>
      </trkpt>
      <trkpt lat="44.57923" lon="6.86539">
        <ele>2306</ele>
        <time>2020-02-18T08:42:24.000Z</time>
      </trkpt>
      <trkpt lat="44.57921" lon="6.86545">
        <ele>2306</ele>
        <time>2020-02-18T08:42:30.000Z</time>
      </trkpt>
      <trkpt lat="44.57921" lon="6.86548">
        <ele>2306</ele>
        <time>2020-02-18T08:42:33.000Z</time>
      </trkpt>
      <trkpt lat="44.57919" lon="6.86553">
        <ele>2307</ele>
        <time>2020-02-18T08:42:39.000Z</time>
      </trkpt>
      <trkpt lat="44.57918" lon="6.86556">
        <ele>2307</ele>
        <time>2020-02-18T08:42:43.000Z</time>
      </trkpt>
      <trkpt lat="44.57916" lon="6.86557">
        <ele>2317</ele>
        <time>2020-02-18T08:42:47.000Z</time>
      </trkpt>
      <trkpt lat="44.57915" lon="6.86557">
        <ele>2317</ele>
        <time>2020-02-18T08:42:49.000Z</time>
      </trkpt>
      <trkpt lat="44.57909" lon="6.86561">
        <ele>2317</ele>
        <time>2020-02-18T08:42:59.000Z</time>
      </trkpt>
      <trkpt lat="44.57907" lon="6.86563">
        <ele>2317</ele>
        <time>2020-02-18T08:43:03.000Z</time>
      </trkpt>
      <trkpt lat="44.57908" lon="6.86563">
        <ele>2317</ele>
        <time>2020-02-18T08:43:08.000Z</time>
      </trkpt>
      <trkpt lat="44.57902" lon="6.86556">
        <ele>2318</ele>
        <time>2020-02-18T08:43:13.000Z</time>
      </trkpt>
      <trkpt lat="44.57901" lon="6.86559">
        <ele>2318</ele>
        <time>2020-02-18T08:43:17.000Z</time>
      </trkpt>
      <trkpt lat="44.57901" lon="6.86561">
        <ele>2318</ele>
        <time>2020-02-18T08:43:18.000Z</time>
      </trkpt>
      <trkpt lat="44.57901" lon="6.86562">
        <ele>2318</ele>
        <time>2020-02-18T08:43:19.000Z</time>
      </trkpt>
      <trkpt lat="44.579" lon="6.86564">
        <ele>2318</ele>
        <time>2020-02-18T08:43:21.000Z</time>
      </trkpt>
      <trkpt lat="44.57899" lon="6.86566">
        <ele>2318</ele>
        <time>2020-02-18T08:43:25.000Z</time>
      </trkpt>
      <trkpt lat="44.57899" lon="6.86568">
        <ele>2318</ele>
        <time>2020-02-18T08:43:30.000Z</time>
      </trkpt>
      <trkpt lat="44.57901" lon="6.8657">
        <ele>2317</ele>
        <time>2020-02-18T08:43:40.000Z</time>
      </trkpt>
      <trkpt lat="44.57901" lon="6.8657">
        <ele>2317</ele>
        <time>2020-02-18T08:43:43.000Z</time>
      </trkpt>
      <trkpt lat="44.579" lon="6.8657">
        <ele>2318</ele>
        <time>2020-02-18T08:43:44.000Z</time>
      </trkpt>
      <trkpt lat="44.57898" lon="6.86571">
        <ele>2318</ele>
        <time>2020-02-18T08:43:47.000Z</time>
      </trkpt>
      <trkpt lat="44.579" lon="6.86573">
        <ele>2317</ele>
        <time>2020-02-18T08:43:51.000Z</time>
      </trkpt>
      <trkpt lat="44.57899" lon="6.86574">
        <ele>2317</ele>
        <time>2020-02-18T08:43:59.000Z</time>
      </trkpt>
      <trkpt lat="44.57902" lon="6.86573">
        <ele>2317</ele>
        <time>2020-02-18T08:44:06.000Z</time>
      </trkpt>
      <trkpt lat="44.57902" lon="6.86573">
        <ele>2317</ele>
        <time>2020-02-18T08:44:09.000Z</time>
      </trkpt>
      <trkpt lat="44.579" lon="6.86569">
        <ele>2318</ele>
        <time>2020-02-18T08:44:48.000Z</time>
      </trkpt>
      <trkpt lat="44.579" lon="6.86569">
        <ele>2318</ele>
        <time>2020-02-18T08:44:52.000Z</time>
      </trkpt>
      <trkpt lat="44.579" lon="6.86569">
        <ele>2318</ele>
        <time>2020-02-18T08:44:54.000Z</time>
      </trkpt>
      <trkpt lat="44.57899" lon="6.86569">
        <ele>2318</ele>
        <time>2020-02-18T08:44:58.000Z</time>
      </trkpt>
      <trkpt lat="44.57898" lon="6.8657">
        <ele>2318</ele>
        <time>2020-02-18T08:45:05.000Z</time>
      </trkpt>
      <trkpt lat="44.57898" lon="6.86571">
        <ele>2318</ele>
        <time>2020-02-18T08:45:10.000Z</time>
      </trkpt>
      <trkpt lat="44.57898" lon="6.86571">
        <ele>2318</ele>
        <time>2020-02-18T08:45:12.000Z</time>
      </trkpt>
      <trkpt lat="44.57897" lon="6.86571">
        <ele>2318</ele>
        <time>2020-02-18T08:45:16.000Z</time>
      </trkpt>
      <trkpt lat="44.57898" lon="6.86572">
        <ele>2318</ele>
        <time>2020-02-18T08:45:23.000Z</time>
      </trkpt>
      <trkpt lat="44.57898" lon="6.86572">
        <ele>2318</ele>
        <time>2020-02-18T08:45:24.000Z</time>
      </trkpt>
      <trkpt lat="44.57898" lon="6.86572">
        <ele>2318</ele>
        <time>2020-02-18T08:45:28.000Z</time>
      </trkpt>
      <trkpt lat="44.57898" lon="6.86571">
        <ele>2318</ele>
        <time>2020-02-18T08:45:33.000Z</time>
      </trkpt>
      <trkpt lat="44.57898" lon="6.86571">
        <ele>2318</ele>
        <time>2020-02-18T08:45:37.000Z</time>
      </trkpt>
      <trkpt lat="44.57898" lon="6.86571">
        <ele>2318</ele>
        <time>2020-02-18T08:45:38.000Z</time>
      </trkpt>
      <trkpt lat="44.57899" lon="6.86571">
        <ele>2318</ele>
        <time>2020-02-18T08:45:41.000Z</time>
      </trkpt>
      <trkpt lat="44.57899" lon="6.86571">
        <ele>2318</ele>
        <time>2020-02-18T08:45:45.000Z</time>
      </trkpt>
      <trkpt lat="44.57899" lon="6.86572">
        <ele>2318</ele>
        <time>2020-02-18T08:45:46.000Z</time>
      </trkpt>
      <trkpt lat="44.57899" lon="6.86572">
        <ele>2318</ele>
        <time>2020-02-18T08:45:47.000Z</time>
      </trkpt>
      <trkpt lat="44.57899" lon="6.86572">
        <ele>2318</ele>
        <time>2020-02-18T08:45:48.000Z</time>
      </trkpt>
      <trkpt lat="44.57899" lon="6.86571">
        <ele>2318</ele>
        <time>2020-02-18T08:45:52.000Z</time>
      </trkpt>
      <trkpt lat="44.57899" lon="6.86571">
        <ele>2318</ele>
        <time>2020-02-18T08:45:53.000Z</time>
      </trkpt>
      <trkpt lat="44.579" lon="6.8657">
        <ele>2317</ele>
        <time>2020-02-18T08:45:56.000Z</time>
      </trkpt>
      <trkpt lat="44.579" lon="6.8657">
        <ele>2317</ele>
        <time>2020-02-18T08:45:57.000Z</time>
      </trkpt>
      <trkpt lat="44.579" lon="6.8657">
        <ele>2317</ele>
        <time>2020-02-18T08:45:59.000Z</time>
      </trkpt>
      <trkpt lat="44.57901" lon="6.8657">
        <ele>2317</ele>
        <time>2020-02-18T08:46:02.000Z</time>
      </trkpt>
      <trkpt lat="44.57901" lon="6.8657">
        <ele>2317</ele>
        <time>2020-02-18T08:46:04.000Z</time>
      </trkpt>
      <trkpt lat="44.57901" lon="6.86571">
        <ele>2317</ele>
        <time>2020-02-18T08:46:05.000Z</time>
      </trkpt>
      <trkpt lat="44.57901" lon="6.86571">
        <ele>2317</ele>
        <time>2020-02-18T08:46:06.000Z</time>
      </trkpt>
      <trkpt lat="44.579" lon="6.86573">
        <ele>2317</ele>
        <time>2020-02-18T08:46:11.000Z</time>
      </trkpt>
      <trkpt lat="44.579" lon="6.86573">
        <ele>2317</ele>
        <time>2020-02-18T08:46:12.000Z</time>
      </trkpt>
      <trkpt lat="44.579" lon="6.86573">
        <ele>2317</ele>
        <time>2020-02-18T08:46:14.000Z</time>
      </trkpt>
      <trkpt lat="44.579" lon="6.86573">
        <ele>2317</ele>
        <time>2020-02-18T08:46:15.000Z</time>
      </trkpt>
      <trkpt lat="44.579" lon="6.86573">
        <ele>2317</ele>
        <time>2020-02-18T08:46:16.000Z</time>
      </trkpt>
      <trkpt lat="44.579" lon="6.86573">
        <ele>2317</ele>
        <time>2020-02-18T08:46:17.000Z</time>
      </trkpt>
      <trkpt lat="44.579" lon="6.86573">
        <ele>2317</ele>
        <time>2020-02-18T08:46:19.000Z</time>
      </trkpt>
      <trkpt lat="44.579" lon="6.8657">
        <ele>2318</ele>
        <time>2020-02-18T08:46:32.000Z</time>
      </trkpt>
      <trkpt lat="44.579" lon="6.8657">
        <ele>2318</ele>
        <time>2020-02-18T08:46:36.000Z</time>
      </trkpt>
      <trkpt lat="44.57899" lon="6.86571">
        <ele>2318</ele>
        <time>2020-02-18T08:46:40.000Z</time>
      </trkpt>
      <trkpt lat="44.57899" lon="6.8657">
        <ele>2318</ele>
        <time>2020-02-18T08:46:43.000Z</time>
      </trkpt>
      <trkpt lat="44.57899" lon="6.8657">
        <ele>2318</ele>
        <time>2020-02-18T08:46:45.000Z</time>
      </trkpt>
      <trkpt lat="44.57899" lon="6.8657">
        <ele>2318</ele>
        <time>2020-02-18T08:46:49.000Z</time>
      </trkpt>
      <trkpt lat="44.57899" lon="6.8657">
        <ele>2318</ele>
        <time>2020-02-18T08:46:53.000Z</time>
      </trkpt>
      <trkpt lat="44.57899" lon="6.86571">
        <ele>2318</ele>
        <time>2020-02-18T08:46:57.000Z</time>
      </trkpt>
      <trkpt lat="44.57899" lon="6.86571">
        <ele>2318</ele>
        <time>2020-02-18T08:47:01.000Z</time>
      </trkpt>
      <trkpt lat="44.57897" lon="6.8657">
        <ele>2318</ele>
        <time>2020-02-18T08:47:07.000Z</time>
      </trkpt>
      <trkpt lat="44.57897" lon="6.86569">
        <ele>2318</ele>
        <time>2020-02-18T08:47:13.000Z</time>
      </trkpt>
      <trkpt lat="44.57898" lon="6.8657">
        <ele>2318</ele>
        <time>2020-02-18T08:47:16.000Z</time>
      </trkpt>
      <trkpt lat="44.57899" lon="6.8657">
        <ele>2318</ele>
        <time>2020-02-18T08:47:19.000Z</time>
      </trkpt>
      <trkpt lat="44.57899" lon="6.8657">
        <ele>2318</ele>
        <time>2020-02-18T08:47:21.000Z</time>
      </trkpt>
      <trkpt lat="44.57901" lon="6.8657">
        <ele>2317</ele>
        <time>2020-02-18T08:47:25.000Z</time>
      </trkpt>
      <trkpt lat="44.57901" lon="6.86569">
        <ele>2317</ele>
        <time>2020-02-18T08:47:29.000Z</time>
      </trkpt>
      <trkpt lat="44.57902" lon="6.86567">
        <ele>2318</ele>
        <time>2020-02-18T08:47:43.000Z</time>
      </trkpt>
      <trkpt lat="44.57902" lon="6.86566">
        <ele>2318</ele>
        <time>2020-02-18T08:47:49.000Z</time>
      </trkpt>
      <trkpt lat="44.57904" lon="6.86568">
        <ele>2317</ele>
        <time>2020-02-18T08:47:52.000Z</time>
      </trkpt>
      <trkpt lat="44.57905" lon="6.8657">
        <ele>2317</ele>
        <time>2020-02-18T08:48:03.000Z</time>
      </trkpt>
      <trkpt lat="44.57904" lon="6.86569">
        <ele>2317</ele>
        <time>2020-02-18T08:48:05.000Z</time>
      </trkpt>
      <trkpt lat="44.57903" lon="6.86571">
        <ele>2317</ele>
        <time>2020-02-18T08:48:20.000Z</time>
      </trkpt>
      <trkpt lat="44.57903" lon="6.86571">
        <ele>2317</ele>
        <time>2020-02-18T08:48:22.000Z</time>
      </trkpt>
      <trkpt lat="44.57903" lon="6.86571">
        <ele>2317</ele>
        <time>2020-02-18T08:48:23.000Z</time>
      </trkpt>
      <trkpt lat="44.57903" lon="6.86571">
        <ele>2317</ele>
        <time>2020-02-18T08:48:24.000Z</time>
      </trkpt>
      <trkpt lat="44.57904" lon="6.86572">
        <ele>2317</ele>
        <time>2020-02-18T08:48:26.000Z</time>
      </trkpt>
      <trkpt lat="44.57904" lon="6.86572">
        <ele>2317</ele>
        <time>2020-02-18T08:48:27.000Z</time>
      </trkpt>
      <trkpt lat="44.57903" lon="6.86572">
        <ele>2317</ele>
        <time>2020-02-18T08:48:31.000Z</time>
      </trkpt>
      <trkpt lat="44.57903" lon="6.86572">
        <ele>2317</ele>
        <time>2020-02-18T08:48:32.000Z</time>
      </trkpt>
      <trkpt lat="44.57904" lon="6.86572">
        <ele>2317</ele>
        <time>2020-02-18T08:48:33.000Z</time>
      </trkpt>
      <trkpt lat="44.57903" lon="6.86572">
        <ele>2317</ele>
        <time>2020-02-18T08:48:34.000Z</time>
      </trkpt>
      <trkpt lat="44.57903" lon="6.86571">
        <ele>2317</ele>
        <time>2020-02-18T08:48:36.000Z</time>
      </trkpt>
      <trkpt lat="44.57902" lon="6.86571">
        <ele>2317</ele>
        <time>2020-02-18T08:48:39.000Z</time>
      </trkpt>
      <trkpt lat="44.579" lon="6.8657">
        <ele>2317</ele>
        <time>2020-02-18T08:48:47.000Z</time>
      </trkpt>
      <trkpt lat="44.57901" lon="6.86571">
        <ele>2317</ele>
        <time>2020-02-18T08:48:48.000Z</time>
      </trkpt>
      <trkpt lat="44.57901" lon="6.86571">
        <ele>2317</ele>
        <time>2020-02-18T08:48:49.000Z</time>
      </trkpt>
      <trkpt lat="44.57901" lon="6.86571">
        <ele>2317</ele>
        <time>2020-02-18T08:48:50.000Z</time>
      </trkpt>
      <trkpt lat="44.57902" lon="6.86571">
        <ele>2317</ele>
        <time>2020-02-18T08:48:52.000Z</time>
      </trkpt>
      <trkpt lat="44.57902" lon="6.86572">
        <ele>2317</ele>
        <time>2020-02-18T08:48:54.000Z</time>
      </trkpt>
      <trkpt lat="44.57902" lon="6.8657">
        <ele>2317</ele>
        <time>2020-02-18T08:49:22.000Z</time>
      </trkpt>
      <trkpt lat="44.57903" lon="6.86571">
        <ele>2317</ele>
        <time>2020-02-18T08:49:27.000Z</time>
      </trkpt>
      <trkpt lat="44.57904" lon="6.86576">
        <ele>2317</ele>
        <time>2020-02-18T08:49:35.000Z</time>
      </trkpt>
      <trkpt lat="44.57895" lon="6.86578">
        <ele>2318</ele>
        <time>2020-02-18T08:49:38.000Z</time>
      </trkpt>
      <trkpt lat="44.57894" lon="6.86578">
        <ele>2318</ele>
        <time>2020-02-18T08:49:42.000Z</time>
      </trkpt>
      <trkpt lat="44.57895" lon="6.86577">
        <ele>2318</ele>
        <time>2020-02-18T08:49:49.000Z</time>
      </trkpt>
      <trkpt lat="44.57896" lon="6.86576">
        <ele>2318</ele>
        <time>2020-02-18T08:49:50.000Z</time>
      </trkpt>
      <trkpt lat="44.57897" lon="6.86577">
        <ele>2318</ele>
        <time>2020-02-18T08:49:54.000Z</time>
      </trkpt>
      <trkpt lat="44.57898" lon="6.86577">
        <ele>2318</ele>
        <time>2020-02-18T08:49:56.000Z</time>
      </trkpt>
      <trkpt lat="44.57901" lon="6.86578">
        <ele>2317</ele>
        <time>2020-02-18T08:50:00.000Z</time>
      </trkpt>
      <trkpt lat="44.57902" lon="6.86578">
        <ele>2317</ele>
        <time>2020-02-18T08:50:02.000Z</time>
      </trkpt>
      <trkpt lat="44.57902" lon="6.86576">
        <ele>2317</ele>
        <time>2020-02-18T08:50:04.000Z</time>
      </trkpt>
      <trkpt lat="44.57902" lon="6.86576">
        <ele>2317</ele>
        <time>2020-02-18T08:50:05.000Z</time>
      </trkpt>
      <trkpt lat="44.57901" lon="6.86575">
        <ele>2317</ele>
        <time>2020-02-18T08:50:06.000Z</time>
      </trkpt>
      <trkpt lat="44.57899" lon="6.86573">
        <ele>2317</ele>
        <time>2020-02-18T08:50:10.000Z</time>
      </trkpt>
      <trkpt lat="44.57899" lon="6.86572">
        <ele>2318</ele>
        <time>2020-02-18T08:50:11.000Z</time>
      </trkpt>
      <trkpt lat="44.57899" lon="6.86572">
        <ele>2318</ele>
        <time>2020-02-18T08:50:12.000Z</time>
      </trkpt>
      <trkpt lat="44.57899" lon="6.86571">
        <ele>2318</ele>
        <time>2020-02-18T08:50:13.000Z</time>
      </trkpt>
      <trkpt lat="44.57899" lon="6.86572">
        <ele>2318</ele>
        <time>2020-02-18T08:50:14.000Z</time>
      </trkpt>
      <trkpt lat="44.57899" lon="6.86572">
        <ele>2318</ele>
        <time>2020-02-18T08:50:15.000Z</time>
      </trkpt>
      <trkpt lat="44.57899" lon="6.86572">
        <ele>2318</ele>
        <time>2020-02-18T08:50:16.000Z</time>
      </trkpt>
      <trkpt lat="44.57899" lon="6.86571">
        <ele>2318</ele>
        <time>2020-02-18T08:50:19.000Z</time>
      </trkpt>
      <trkpt lat="44.57901" lon="6.86571">
        <ele>2317</ele>
        <time>2020-02-18T08:50:24.000Z</time>
      </trkpt>
      <trkpt lat="44.57901" lon="6.86571">
        <ele>2317</ele>
        <time>2020-02-18T08:50:25.000Z</time>
      </trkpt>
      <trkpt lat="44.57901" lon="6.86571">
        <ele>2317</ele>
        <time>2020-02-18T08:50:26.000Z</time>
      </trkpt>
      <trkpt lat="44.57902" lon="6.86571">
        <ele>2317</ele>
        <time>2020-02-18T08:50:30.000Z</time>
      </trkpt>
      <trkpt lat="44.57903" lon="6.8657">
        <ele>2317</ele>
        <time>2020-02-18T08:50:34.000Z</time>
      </trkpt>
      <trkpt lat="44.57903" lon="6.8657">
        <ele>2317</ele>
        <time>2020-02-18T08:50:36.000Z</time>
      </trkpt>
      <trkpt lat="44.57903" lon="6.8657">
        <ele>2317</ele>
        <time>2020-02-18T08:50:37.000Z</time>
      </trkpt>
      <trkpt lat="44.57904" lon="6.8657">
        <ele>2317</ele>
        <time>2020-02-18T08:50:38.000Z</time>
      </trkpt>
      <trkpt lat="44.57905" lon="6.8657">
        <ele>2317</ele>
        <time>2020-02-18T08:50:41.000Z</time>
      </trkpt>
      <trkpt lat="44.57903" lon="6.86571">
        <ele>2317</ele>
        <time>2020-02-18T08:50:45.000Z</time>
      </trkpt>
      <trkpt lat="44.57901" lon="6.86573">
        <ele>2317</ele>
        <time>2020-02-18T08:50:48.000Z</time>
      </trkpt>
      <trkpt lat="44.57901" lon="6.86572">
        <ele>2317</ele>
        <time>2020-02-18T08:50:50.000Z</time>
      </trkpt>
      <trkpt lat="44.579" lon="6.86573">
        <ele>2317</ele>
        <time>2020-02-18T08:50:53.000Z</time>
      </trkpt>
      <trkpt lat="44.579" lon="6.86573">
        <ele>2317</ele>
        <time>2020-02-18T08:50:54.000Z</time>
      </trkpt>
      <trkpt lat="44.57899" lon="6.86574">
        <ele>2317</ele>
        <time>2020-02-18T08:50:58.000Z</time>
      </trkpt>
      <trkpt lat="44.57899" lon="6.86574">
        <ele>2317</ele>
        <time>2020-02-18T08:51:00.000Z</time>
      </trkpt>
      <trkpt lat="44.57898" lon="6.86575">
        <ele>2317</ele>
        <time>2020-02-18T08:51:04.000Z</time>
      </trkpt>
      <trkpt lat="44.57898" lon="6.86576">
        <ele>2318</ele>
        <time>2020-02-18T08:51:05.000Z</time>
      </trkpt>
      <trkpt lat="44.57897" lon="6.86576">
        <ele>2318</ele>
        <time>2020-02-18T08:51:06.000Z</time>
      </trkpt>
      <trkpt lat="44.57897" lon="6.86576">
        <ele>2318</ele>
        <time>2020-02-18T08:51:07.000Z</time>
      </trkpt>
      <trkpt lat="44.57894" lon="6.86579">
        <ele>2318</ele>
        <time>2020-02-18T08:51:12.000Z</time>
      </trkpt>
      <trkpt lat="44.57893" lon="6.86582">
        <ele>2318</ele>
        <time>2020-02-18T08:51:16.000Z</time>
      </trkpt>
      <trkpt lat="44.57893" lon="6.86583">
        <ele>2318</ele>
        <time>2020-02-18T08:51:17.000Z</time>
      </trkpt>
      <trkpt lat="44.57891" lon="6.86586">
        <ele>2322</ele>
        <time>2020-02-18T08:51:21.000Z</time>
      </trkpt>
      <trkpt lat="44.5789" lon="6.86587">
        <ele>2322</ele>
        <time>2020-02-18T08:51:23.000Z</time>
      </trkpt>
      <trkpt lat="44.5789" lon="6.86588">
        <ele>2322</ele>
        <time>2020-02-18T08:51:25.000Z</time>
      </trkpt>
      <trkpt lat="44.57889" lon="6.86589">
        <ele>2323</ele>
        <time>2020-02-18T08:51:27.000Z</time>
      </trkpt>
      <trkpt lat="44.57888" lon="6.86589">
        <ele>2323</ele>
        <time>2020-02-18T08:51:28.000Z</time>
      </trkpt>
      <trkpt lat="44.57887" lon="6.86591">
        <ele>2323</ele>
        <time>2020-02-18T08:51:32.000Z</time>
      </trkpt>
      <trkpt lat="44.57883" lon="6.86595">
        <ele>2324</ele>
        <time>2020-02-18T08:51:40.000Z</time>
      </trkpt>
      <trkpt lat="44.57882" lon="6.86598">
        <ele>2324</ele>
        <time>2020-02-18T08:51:45.000Z</time>
      </trkpt>
      <trkpt lat="44.57879" lon="6.86601">
        <ele>2325</ele>
        <time>2020-02-18T08:51:49.000Z</time>
      </trkpt>
      <trkpt lat="44.57877" lon="6.86603">
        <ele>2325</ele>
        <time>2020-02-18T08:51:54.000Z</time>
      </trkpt>
      <trkpt lat="44.57876" lon="6.86604">
        <ele>2325</ele>
        <time>2020-02-18T08:51:56.000Z</time>
      </trkpt>
      <trkpt lat="44.57871" lon="6.86612">
        <ele>2326</ele>
        <time>2020-02-18T08:52:08.000Z</time>
      </trkpt>
      <trkpt lat="44.57866" lon="6.86616">
        <ele>2327</ele>
        <time>2020-02-18T08:52:17.000Z</time>
      </trkpt>
      <trkpt lat="44.57866" lon="6.86617">
        <ele>2327</ele>
        <time>2020-02-18T08:52:18.000Z</time>
      </trkpt>
      <trkpt lat="44.57862" lon="6.86622">
        <ele>2327</ele>
        <time>2020-02-18T08:52:27.000Z</time>
      </trkpt>
      <trkpt lat="44.57859" lon="6.86627">
        <ele>2328</ele>
        <time>2020-02-18T08:52:35.000Z</time>
      </trkpt>
      <trkpt lat="44.57853" lon="6.86635">
        <ele>2329</ele>
        <time>2020-02-18T08:52:46.000Z</time>
      </trkpt>
      <trkpt lat="44.57848" lon="6.86637">
        <ele>2329</ele>
        <time>2020-02-18T08:52:55.000Z</time>
      </trkpt>
      <trkpt lat="44.57845" lon="6.86642">
        <ele>2330</ele>
        <time>2020-02-18T08:53:02.000Z</time>
      </trkpt>
      <trkpt lat="44.5784" lon="6.86646">
        <ele>2331</ele>
        <time>2020-02-18T08:53:11.000Z</time>
      </trkpt>
      <trkpt lat="44.57836" lon="6.86651">
        <ele>2332</ele>
        <time>2020-02-18T08:53:20.000Z</time>
      </trkpt>
      <trkpt lat="44.57833" lon="6.86655">
        <ele>2338</ele>
        <time>2020-02-18T08:53:28.000Z</time>
      </trkpt>
      <trkpt lat="44.57829" lon="6.86656">
        <ele>2339</ele>
        <time>2020-02-18T08:53:37.000Z</time>
      </trkpt>
      <trkpt lat="44.57825" lon="6.86656">
        <ele>2339</ele>
        <time>2020-02-18T08:53:45.000Z</time>
      </trkpt>
      <trkpt lat="44.57822" lon="6.8666">
        <ele>2339</ele>
        <time>2020-02-18T08:53:52.000Z</time>
      </trkpt>
      <trkpt lat="44.57819" lon="6.86665">
        <ele>2339</ele>
        <time>2020-02-18T08:54:00.000Z</time>
      </trkpt>
      <trkpt lat="44.57814" lon="6.8667">
        <ele>2345</ele>
        <time>2020-02-18T08:54:08.000Z</time>
      </trkpt>
      <trkpt lat="44.57809" lon="6.86674">
        <ele>2347</ele>
        <time>2020-02-18T08:54:17.000Z</time>
      </trkpt>
      <trkpt lat="44.57805" lon="6.86676">
        <ele>2348</ele>
        <time>2020-02-18T08:54:27.000Z</time>
      </trkpt>
      <trkpt lat="44.57801" lon="6.86677">
        <ele>2349</ele>
        <time>2020-02-18T08:54:35.000Z</time>
      </trkpt>
      <trkpt lat="44.57797" lon="6.86682">
        <ele>2350</ele>
        <time>2020-02-18T08:54:44.000Z</time>
      </trkpt>
      <trkpt lat="44.57792" lon="6.86684">
        <ele>2351</ele>
        <time>2020-02-18T08:54:52.000Z</time>
      </trkpt>
      <trkpt lat="44.57791" lon="6.86685">
        <ele>2351</ele>
        <time>2020-02-18T08:54:54.000Z</time>
      </trkpt>
      <trkpt lat="44.57786" lon="6.86687">
        <ele>2351</ele>
        <time>2020-02-18T08:55:01.000Z</time>
      </trkpt>
      <trkpt lat="44.57782" lon="6.86689">
        <ele>2352</ele>
        <time>2020-02-18T08:55:10.000Z</time>
      </trkpt>
      <trkpt lat="44.57779" lon="6.8669">
        <ele>2352</ele>
        <time>2020-02-18T08:55:17.000Z</time>
      </trkpt>
      <trkpt lat="44.57775" lon="6.86693">
        <ele>2353</ele>
        <time>2020-02-18T08:55:27.000Z</time>
      </trkpt>
      <trkpt lat="44.57771" lon="6.86694">
        <ele>2353</ele>
        <time>2020-02-18T08:55:34.000Z</time>
      </trkpt>
      <trkpt lat="44.57764" lon="6.867">
        <ele>2353</ele>
        <time>2020-02-18T08:55:46.000Z</time>
      </trkpt>
      <trkpt lat="44.57761" lon="6.86703">
        <ele>2354</ele>
        <time>2020-02-18T08:55:53.000Z</time>
      </trkpt>
      <trkpt lat="44.57757" lon="6.86705">
        <ele>2354</ele>
        <time>2020-02-18T08:55:59.000Z</time>
      </trkpt>
      <trkpt lat="44.57752" lon="6.8671">
        <ele>2354</ele>
        <time>2020-02-18T08:56:10.000Z</time>
      </trkpt>
      <trkpt lat="44.57746" lon="6.86714">
        <ele>2359</ele>
        <time>2020-02-18T08:56:19.000Z</time>
      </trkpt>
      <trkpt lat="44.57739" lon="6.86718">
        <ele>2359</ele>
        <time>2020-02-18T08:56:32.000Z</time>
      </trkpt>
      <trkpt lat="44.57735" lon="6.8672">
        <ele>2359</ele>
        <time>2020-02-18T08:56:40.000Z</time>
      </trkpt>
      <trkpt lat="44.5773" lon="6.86721">
        <ele>2360</ele>
        <time>2020-02-18T08:56:48.000Z</time>
      </trkpt>
      <trkpt lat="44.57724" lon="6.86722">
        <ele>2360</ele>
        <time>2020-02-18T08:56:58.000Z</time>
      </trkpt>
      <trkpt lat="44.5772" lon="6.86726">
        <ele>2360</ele>
        <time>2020-02-18T08:57:06.000Z</time>
      </trkpt>
      <trkpt lat="44.57716" lon="6.86729">
        <ele>2360</ele>
        <time>2020-02-18T08:57:17.000Z</time>
      </trkpt>
      <trkpt lat="44.57713" lon="6.86732">
        <ele>2360</ele>
        <time>2020-02-18T08:57:25.000Z</time>
      </trkpt>
      <trkpt lat="44.5771" lon="6.86737">
        <ele>2361</ele>
        <time>2020-02-18T08:57:33.000Z</time>
      </trkpt>
      <trkpt lat="44.57706" lon="6.86742">
        <ele>2361</ele>
        <time>2020-02-18T08:57:42.000Z</time>
      </trkpt>
      <trkpt lat="44.57703" lon="6.86744">
        <ele>2361</ele>
        <time>2020-02-18T08:57:48.000Z</time>
      </trkpt>
      <trkpt lat="44.57699" lon="6.86744">
        <ele>2362</ele>
        <time>2020-02-18T08:57:57.000Z</time>
      </trkpt>
      <trkpt lat="44.57693" lon="6.86748">
        <ele>2362</ele>
        <time>2020-02-18T08:58:06.000Z</time>
      </trkpt>
      <trkpt lat="44.57691" lon="6.86749">
        <ele>2363</ele>
        <time>2020-02-18T08:58:12.000Z</time>
      </trkpt>
      <trkpt lat="44.57686" lon="6.8675">
        <ele>2368</ele>
        <time>2020-02-18T08:58:22.000Z</time>
      </trkpt>
      <trkpt lat="44.5768" lon="6.86752">
        <ele>2368</ele>
        <time>2020-02-18T08:58:31.000Z</time>
      </trkpt>
      <trkpt lat="44.57674" lon="6.86753">
        <ele>2368</ele>
        <time>2020-02-18T08:58:40.000Z</time>
      </trkpt>
      <trkpt lat="44.57669" lon="6.86754">
        <ele>2368</ele>
        <time>2020-02-18T08:58:48.000Z</time>
      </trkpt>
      <trkpt lat="44.57668" lon="6.86755">
        <ele>2368</ele>
        <time>2020-02-18T08:58:49.000Z</time>
      </trkpt>
      <trkpt lat="44.57662" lon="6.8676">
        <ele>2370</ele>
        <time>2020-02-18T08:59:00.000Z</time>
      </trkpt>
      <trkpt lat="44.57656" lon="6.86764">
        <ele>2371</ele>
        <time>2020-02-18T08:59:09.000Z</time>
      </trkpt>
      <trkpt lat="44.57649" lon="6.86766">
        <ele>2372</ele>
        <time>2020-02-18T08:59:21.000Z</time>
      </trkpt>
      <trkpt lat="44.57648" lon="6.86767">
        <ele>2372</ele>
        <time>2020-02-18T08:59:22.000Z</time>
      </trkpt>
      <trkpt lat="44.5764" lon="6.86765">
        <ele>2373</ele>
        <time>2020-02-18T08:59:34.000Z</time>
      </trkpt>
      <trkpt lat="44.57635" lon="6.86764">
        <ele>2373</ele>
        <time>2020-02-18T08:59:41.000Z</time>
      </trkpt>
      <trkpt lat="44.57629" lon="6.86765">
        <ele>2373</ele>
        <time>2020-02-18T08:59:51.000Z</time>
      </trkpt>
      <trkpt lat="44.57627" lon="6.86762">
        <ele>2373</ele>
        <time>2020-02-18T09:00:15.000Z</time>
      </trkpt>
      <trkpt lat="44.57627" lon="6.86762">
        <ele>2373</ele>
        <time>2020-02-18T09:00:19.000Z</time>
      </trkpt>
      <trkpt lat="44.57624" lon="6.86762">
        <ele>2373</ele>
        <time>2020-02-18T09:00:25.000Z</time>
      </trkpt>
      <trkpt lat="44.5762" lon="6.86768">
        <ele>2374</ele>
        <time>2020-02-18T09:00:33.000Z</time>
      </trkpt>
      <trkpt lat="44.57615" lon="6.86772">
        <ele>2374</ele>
        <time>2020-02-18T09:00:40.000Z</time>
      </trkpt>
      <trkpt lat="44.57611" lon="6.86771">
        <ele>2374</ele>
        <time>2020-02-18T09:00:48.000Z</time>
      </trkpt>
      <trkpt lat="44.57606" lon="6.86773">
        <ele>2374</ele>
        <time>2020-02-18T09:00:58.000Z</time>
      </trkpt>
      <trkpt lat="44.57602" lon="6.86777">
        <ele>2374</ele>
        <time>2020-02-18T09:01:06.000Z</time>
      </trkpt>
      <trkpt lat="44.57598" lon="6.8678">
        <ele>2375</ele>
        <time>2020-02-18T09:01:15.000Z</time>
      </trkpt>
      <trkpt lat="44.57594" lon="6.86785">
        <ele>2375</ele>
        <time>2020-02-18T09:01:24.000Z</time>
      </trkpt>
      <trkpt lat="44.57592" lon="6.86786">
        <ele>2375</ele>
        <time>2020-02-18T09:01:26.000Z</time>
      </trkpt>
      <trkpt lat="44.57587" lon="6.86791">
        <ele>2376</ele>
        <time>2020-02-18T09:01:35.000Z</time>
      </trkpt>
      <trkpt lat="44.57584" lon="6.86792">
        <ele>2376</ele>
        <time>2020-02-18T09:01:41.000Z</time>
      </trkpt>
      <trkpt lat="44.57581" lon="6.86794">
        <ele>2375</ele>
        <time>2020-02-18T09:01:46.000Z</time>
      </trkpt>
      <trkpt lat="44.57577" lon="6.86796">
        <ele>2375</ele>
        <time>2020-02-18T09:01:51.000Z</time>
      </trkpt>
      <trkpt lat="44.57576" lon="6.86797">
        <ele>2376</ele>
        <time>2020-02-18T09:01:54.000Z</time>
      </trkpt>
      <trkpt lat="44.57574" lon="6.868">
        <ele>2376</ele>
        <time>2020-02-18T09:01:59.000Z</time>
      </trkpt>
      <trkpt lat="44.57572" lon="6.86804">
        <ele>2376</ele>
        <time>2020-02-18T09:02:05.000Z</time>
      </trkpt>
      <trkpt lat="44.5757" lon="6.86808">
        <ele>2377</ele>
        <time>2020-02-18T09:02:10.000Z</time>
      </trkpt>
      <trkpt lat="44.57568" lon="6.86811">
        <ele>2377</ele>
        <time>2020-02-18T09:02:13.000Z</time>
      </trkpt>
      <trkpt lat="44.57567" lon="6.86813">
        <ele>2378</ele>
        <time>2020-02-18T09:02:16.000Z</time>
      </trkpt>
      <trkpt lat="44.57567" lon="6.86814">
        <ele>2378</ele>
        <time>2020-02-18T09:02:17.000Z</time>
      </trkpt>
      <trkpt lat="44.57567" lon="6.86815">
        <ele>2378</ele>
        <time>2020-02-18T09:02:18.000Z</time>
      </trkpt>
      <trkpt lat="44.57567" lon="6.86816">
        <ele>2378</ele>
        <time>2020-02-18T09:02:19.000Z</time>
      </trkpt>
      <trkpt lat="44.57566" lon="6.8682">
        <ele>2379</ele>
        <time>2020-02-18T09:02:23.000Z</time>
      </trkpt>
      <trkpt lat="44.57566" lon="6.86821">
        <ele>2379</ele>
        <time>2020-02-18T09:02:24.000Z</time>
      </trkpt>
      <trkpt lat="44.57566" lon="6.86822">
        <ele>2379</ele>
        <time>2020-02-18T09:02:25.000Z</time>
      </trkpt>
      <trkpt lat="44.57566" lon="6.86826">
        <ele>2379</ele>
        <time>2020-02-18T09:02:30.000Z</time>
      </trkpt>
      <trkpt lat="44.57566" lon="6.86829">
        <ele>2380</ele>
        <time>2020-02-18T09:02:33.000Z</time>
      </trkpt>
      <trkpt lat="44.57565" lon="6.86832">
        <ele>2380</ele>
        <time>2020-02-18T09:02:38.000Z</time>
      </trkpt>
      <trkpt lat="44.57563" lon="6.86838">
        <ele>2390</ele>
        <time>2020-02-18T09:02:46.000Z</time>
      </trkpt>
      <trkpt lat="44.5756" lon="6.8685">
        <ele>2392</ele>
        <time>2020-02-18T09:02:58.000Z</time>
      </trkpt>
      <trkpt lat="44.57557" lon="6.86857">
        <ele>2393</ele>
        <time>2020-02-18T09:03:09.000Z</time>
      </trkpt>
      <trkpt lat="44.57554" lon="6.86857">
        <ele>2393</ele>
        <time>2020-02-18T09:03:15.000Z</time>
      </trkpt>
      <trkpt lat="44.57553" lon="6.86858">
        <ele>2393</ele>
        <time>2020-02-18T09:03:18.000Z</time>
      </trkpt>
      <trkpt lat="44.57549" lon="6.86862">
        <ele>2393</ele>
        <time>2020-02-18T09:03:28.000Z</time>
      </trkpt>
      <trkpt lat="44.57544" lon="6.86862">
        <ele>2393</ele>
        <time>2020-02-18T09:03:37.000Z</time>
      </trkpt>
      <trkpt lat="44.57539" lon="6.86864">
        <ele>2394</ele>
        <time>2020-02-18T09:03:47.000Z</time>
      </trkpt>
      <trkpt lat="44.57533" lon="6.8687">
        <ele>2394</ele>
        <time>2020-02-18T09:03:59.000Z</time>
      </trkpt>
      <trkpt lat="44.5753" lon="6.86875">
        <ele>2395</ele>
        <time>2020-02-18T09:04:08.000Z</time>
      </trkpt>
      <trkpt lat="44.5753" lon="6.86879">
        <ele>2396</ele>
        <time>2020-02-18T09:04:15.000Z</time>
      </trkpt>
      <trkpt lat="44.57531" lon="6.86884">
        <ele>2396</ele>
        <time>2020-02-18T09:04:20.000Z</time>
      </trkpt>
      <trkpt lat="44.57531" lon="6.86892">
        <ele>2397</ele>
        <time>2020-02-18T09:04:31.000Z</time>
      </trkpt>
      <trkpt lat="44.57533" lon="6.86899">
        <ele>2398</ele>
        <time>2020-02-18T09:04:40.000Z</time>
      </trkpt>
      <trkpt lat="44.57535" lon="6.86906">
        <ele>2399</ele>
        <time>2020-02-18T09:04:51.000Z</time>
      </trkpt>
      <trkpt lat="44.57535" lon="6.86911">
        <ele>2399</ele>
        <time>2020-02-18T09:05:00.000Z</time>
      </trkpt>
      <trkpt lat="44.57534" lon="6.86916">
        <ele>2399</ele>
        <time>2020-02-18T09:05:08.000Z</time>
      </trkpt>
      <trkpt lat="44.57529" lon="6.86921">
        <ele>2413</ele>
        <time>2020-02-18T09:05:17.000Z</time>
      </trkpt>
      <trkpt lat="44.57526" lon="6.86924">
        <ele>2412</ele>
        <time>2020-02-18T09:05:27.000Z</time>
      </trkpt>
      <trkpt lat="44.57522" lon="6.86927">
        <ele>2412</ele>
        <time>2020-02-18T09:05:36.000Z</time>
      </trkpt>
      <trkpt lat="44.57516" lon="6.86929">
        <ele>2412</ele>
        <time>2020-02-18T09:05:46.000Z</time>
      </trkpt>
      <trkpt lat="44.57514" lon="6.86935">
        <ele>2413</ele>
        <time>2020-02-18T09:05:56.000Z</time>
      </trkpt>
      <trkpt lat="44.57514" lon="6.86941">
        <ele>2414</ele>
        <time>2020-02-18T09:06:04.000Z</time>
      </trkpt>
      <trkpt lat="44.57516" lon="6.86944">
        <ele>2414</ele>
        <time>2020-02-18T09:06:09.000Z</time>
      </trkpt>
      <trkpt lat="44.57518" lon="6.86947">
        <ele>2415</ele>
        <time>2020-02-18T09:06:18.000Z</time>
      </trkpt>
      <trkpt lat="44.57521" lon="6.86952">
        <ele>2416</ele>
        <time>2020-02-18T09:06:26.000Z</time>
      </trkpt>
      <trkpt lat="44.57523" lon="6.86956">
        <ele>2416</ele>
        <time>2020-02-18T09:06:34.000Z</time>
      </trkpt>
      <trkpt lat="44.57525" lon="6.86959">
        <ele>2417</ele>
        <time>2020-02-18T09:06:41.000Z</time>
      </trkpt>
      <trkpt lat="44.57528" lon="6.86964">
        <ele>2418</ele>
        <time>2020-02-18T09:06:50.000Z</time>
      </trkpt>
      <trkpt lat="44.57531" lon="6.86969">
        <ele>2418</ele>
        <time>2020-02-18T09:06:58.000Z</time>
      </trkpt>
      <trkpt lat="44.57532" lon="6.86973">
        <ele>2419</ele>
        <time>2020-02-18T09:07:04.000Z</time>
      </trkpt>
      <trkpt lat="44.57532" lon="6.86973">
        <ele>2419</ele>
        <time>2020-02-18T09:07:06.000Z</time>
      </trkpt>
      <trkpt lat="44.57533" lon="6.86971">
        <ele>2419</ele>
        <time>2020-02-18T09:07:21.000Z</time>
      </trkpt>
      <trkpt lat="44.57535" lon="6.86976">
        <ele>2419</ele>
        <time>2020-02-18T09:07:31.000Z</time>
      </trkpt>
      <trkpt lat="44.57536" lon="6.86978">
        <ele>2419</ele>
        <time>2020-02-18T09:07:33.000Z</time>
      </trkpt>
      <trkpt lat="44.57537" lon="6.86979">
        <ele>2419</ele>
        <time>2020-02-18T09:07:34.000Z</time>
      </trkpt>
      <trkpt lat="44.57537" lon="6.8698">
        <ele>2420</ele>
        <time>2020-02-18T09:07:35.000Z</time>
      </trkpt>
      <trkpt lat="44.57539" lon="6.86983">
        <ele>2420</ele>
        <time>2020-02-18T09:07:38.000Z</time>
      </trkpt>
      <trkpt lat="44.5754" lon="6.86985">
        <ele>2420</ele>
        <time>2020-02-18T09:07:40.000Z</time>
      </trkpt>
      <trkpt lat="44.57541" lon="6.86989">
        <ele>2420</ele>
        <time>2020-02-18T09:07:44.000Z</time>
      </trkpt>
      <trkpt lat="44.57543" lon="6.86992">
        <ele>2421</ele>
        <time>2020-02-18T09:07:48.000Z</time>
      </trkpt>
      <trkpt lat="44.57546" lon="6.86998">
        <ele>2421</ele>
        <time>2020-02-18T09:07:55.000Z</time>
      </trkpt>
      <trkpt lat="44.57548" lon="6.87001">
        <ele>2435</ele>
        <time>2020-02-18T09:08:01.000Z</time>
      </trkpt>
      <trkpt lat="44.5755" lon="6.87005">
        <ele>2435</ele>
        <time>2020-02-18T09:08:06.000Z</time>
      </trkpt>
      <trkpt lat="44.5755" lon="6.87007">
        <ele>2436</ele>
        <time>2020-02-18T09:08:08.000Z</time>
      </trkpt>
      <trkpt lat="44.5755" lon="6.87007">
        <ele>2436</ele>
        <time>2020-02-18T09:08:09.000Z</time>
      </trkpt>
      <trkpt lat="44.57551" lon="6.87011">
        <ele>2436</ele>
        <time>2020-02-18T09:08:16.000Z</time>
      </trkpt>
      <trkpt lat="44.57553" lon="6.87018">
        <ele>2437</ele>
        <time>2020-02-18T09:08:25.000Z</time>
      </trkpt>
      <trkpt lat="44.57553" lon="6.87023">
        <ele>2437</ele>
        <time>2020-02-18T09:08:32.000Z</time>
      </trkpt>
      <trkpt lat="44.5755" lon="6.87024">
        <ele>2437</ele>
        <time>2020-02-18T09:08:51.000Z</time>
      </trkpt>
      <trkpt lat="44.5755" lon="6.87024">
        <ele>2437</ele>
        <time>2020-02-18T09:08:53.000Z</time>
      </trkpt>
      <trkpt lat="44.57549" lon="6.87025">
        <ele>2437</ele>
        <time>2020-02-18T09:08:58.000Z</time>
      </trkpt>
      <trkpt lat="44.57549" lon="6.87025">
        <ele>2437</ele>
        <time>2020-02-18T09:08:59.000Z</time>
      </trkpt>
      <trkpt lat="44.57549" lon="6.87025">
        <ele>2437</ele>
        <time>2020-02-18T09:09:01.000Z</time>
      </trkpt>
      <trkpt lat="44.57548" lon="6.87026">
        <ele>2437</ele>
        <time>2020-02-18T09:09:04.000Z</time>
      </trkpt>
      <trkpt lat="44.57548" lon="6.87027">
        <ele>2438</ele>
        <time>2020-02-18T09:09:08.000Z</time>
      </trkpt>
      <trkpt lat="44.57547" lon="6.87023">
        <ele>2437</ele>
        <time>2020-02-18T09:09:18.000Z</time>
      </trkpt>
      <trkpt lat="44.57547" lon="6.87023">
        <ele>2437</ele>
        <time>2020-02-18T09:09:19.000Z</time>
      </trkpt>
      <trkpt lat="44.57548" lon="6.87024">
        <ele>2437</ele>
        <time>2020-02-18T09:09:24.000Z</time>
      </trkpt>
      <trkpt lat="44.57547" lon="6.87025">
        <ele>2437</ele>
        <time>2020-02-18T09:09:26.000Z</time>
      </trkpt>
      <trkpt lat="44.57547" lon="6.87026">
        <ele>2437</ele>
        <time>2020-02-18T09:09:30.000Z</time>
      </trkpt>
      <trkpt lat="44.57547" lon="6.87026">
        <ele>2437</ele>
        <time>2020-02-18T09:09:33.000Z</time>
      </trkpt>
      <trkpt lat="44.57547" lon="6.87026">
        <ele>2438</ele>
        <time>2020-02-18T09:09:35.000Z</time>
      </trkpt>
      <trkpt lat="44.57547" lon="6.87026">
        <ele>2438</ele>
        <time>2020-02-18T09:09:36.000Z</time>
      </trkpt>
      <trkpt lat="44.57548" lon="6.87027">
        <ele>2438</ele>
        <time>2020-02-18T09:09:43.000Z</time>
      </trkpt>
      <trkpt lat="44.57546" lon="6.87026">
        <ele>2437</ele>
        <time>2020-02-18T09:09:47.000Z</time>
      </trkpt>
      <trkpt lat="44.57546" lon="6.87025">
        <ele>2437</ele>
        <time>2020-02-18T09:09:49.000Z</time>
      </trkpt>
      <trkpt lat="44.57547" lon="6.87026">
        <ele>2437</ele>
        <time>2020-02-18T09:09:50.000Z</time>
      </trkpt>
      <trkpt lat="44.57547" lon="6.87026">
        <ele>2438</ele>
        <time>2020-02-18T09:09:51.000Z</time>
      </trkpt>
      <trkpt lat="44.57547" lon="6.87027">
        <ele>2438</ele>
        <time>2020-02-18T09:09:55.000Z</time>
      </trkpt>
      <trkpt lat="44.57548" lon="6.87027">
        <ele>2438</ele>
        <time>2020-02-18T09:09:59.000Z</time>
      </trkpt>
      <trkpt lat="44.57548" lon="6.87027">
        <ele>2438</ele>
        <time>2020-02-18T09:10:00.000Z</time>
      </trkpt>
      <trkpt lat="44.57548" lon="6.87027">
        <ele>2438</ele>
        <time>2020-02-18T09:10:01.000Z</time>
      </trkpt>
      <trkpt lat="44.57547" lon="6.87027">
        <ele>2438</ele>
        <time>2020-02-18T09:10:05.000Z</time>
      </trkpt>
      <trkpt lat="44.57548" lon="6.87027">
        <ele>2438</ele>
        <time>2020-02-18T09:10:07.000Z</time>
      </trkpt>
      <trkpt lat="44.57547" lon="6.87027">
        <ele>2438</ele>
        <time>2020-02-18T09:10:10.000Z</time>
      </trkpt>
      <trkpt lat="44.57547" lon="6.87028">
        <ele>2438</ele>
        <time>2020-02-18T09:10:12.000Z</time>
      </trkpt>
      <trkpt lat="44.57548" lon="6.87028">
        <ele>2438</ele>
        <time>2020-02-18T09:10:14.000Z</time>
      </trkpt>
      <trkpt lat="44.57548" lon="6.87028">
        <ele>2438</ele>
        <time>2020-02-18T09:10:15.000Z</time>
      </trkpt>
      <trkpt lat="44.57547" lon="6.87029">
        <ele>2438</ele>
        <time>2020-02-18T09:10:18.000Z</time>
      </trkpt>
      <trkpt lat="44.57548" lon="6.87028">
        <ele>2438</ele>
        <time>2020-02-18T09:10:30.000Z</time>
      </trkpt>
      <trkpt lat="44.57548" lon="6.87028">
        <ele>2438</ele>
        <time>2020-02-18T09:10:31.000Z</time>
      </trkpt>
      <trkpt lat="44.57547" lon="6.87027">
        <ele>2438</ele>
        <time>2020-02-18T09:10:36.000Z</time>
      </trkpt>
      <trkpt lat="44.57545" lon="6.87026">
        <ele>2438</ele>
        <time>2020-02-18T09:10:43.000Z</time>
      </trkpt>
      <trkpt lat="44.57546" lon="6.87027">
        <ele>2438</ele>
        <time>2020-02-18T09:10:45.000Z</time>
      </trkpt>
      <trkpt lat="44.57546" lon="6.87026">
        <ele>2438</ele>
        <time>2020-02-18T09:10:47.000Z</time>
      </trkpt>
      <trkpt lat="44.57545" lon="6.87027">
        <ele>2438</ele>
        <time>2020-02-18T09:10:49.000Z</time>
      </trkpt>
      <trkpt lat="44.57545" lon="6.87027">
        <ele>2438</ele>
        <time>2020-02-18T09:10:52.000Z</time>
      </trkpt>
      <trkpt lat="44.57546" lon="6.87027">
        <ele>2438</ele>
        <time>2020-02-18T09:10:54.000Z</time>
      </trkpt>
      <trkpt lat="44.57546" lon="6.87026">
        <ele>2437</ele>
        <time>2020-02-18T09:10:58.000Z</time>
      </trkpt>
      <trkpt lat="44.57546" lon="6.87025">
        <ele>2437</ele>
        <time>2020-02-18T09:10:59.000Z</time>
      </trkpt>
      <trkpt lat="44.57546" lon="6.87025">
        <ele>2437</ele>
        <time>2020-02-18T09:11:00.000Z</time>
      </trkpt>
      <trkpt lat="44.57546" lon="6.87024">
        <ele>2437</ele>
        <time>2020-02-18T09:11:01.000Z</time>
      </trkpt>
      <trkpt lat="44.57547" lon="6.87024">
        <ele>2437</ele>
        <time>2020-02-18T09:11:03.000Z</time>
      </trkpt>
      <trkpt lat="44.57549" lon="6.87026">
        <ele>2438</ele>
        <time>2020-02-18T09:11:09.000Z</time>
      </trkpt>
      <trkpt lat="44.57548" lon="6.87026">
        <ele>2438</ele>
        <time>2020-02-18T09:11:12.000Z</time>
      </trkpt>
      <trkpt lat="44.57548" lon="6.87027">
        <ele>2438</ele>
        <time>2020-02-18T09:11:17.000Z</time>
      </trkpt>
      <trkpt lat="44.57547" lon="6.87026">
        <ele>2438</ele>
        <time>2020-02-18T09:11:21.000Z</time>
      </trkpt>
      <trkpt lat="44.57547" lon="6.87026">
        <ele>2438</ele>
        <time>2020-02-18T09:11:22.000Z</time>
      </trkpt>
      <trkpt lat="44.57548" lon="6.87026">
        <ele>2438</ele>
        <time>2020-02-18T09:11:23.000Z</time>
      </trkpt>
      <trkpt lat="44.57548" lon="6.87026">
        <ele>2438</ele>
        <time>2020-02-18T09:11:25.000Z</time>
      </trkpt>
      <trkpt lat="44.57548" lon="6.87026">
        <ele>2438</ele>
        <time>2020-02-18T09:11:30.000Z</time>
      </trkpt>
      <trkpt lat="44.57548" lon="6.87026">
        <ele>2438</ele>
        <time>2020-02-18T09:11:32.000Z</time>
      </trkpt>
      <trkpt lat="44.57548" lon="6.87026">
        <ele>2438</ele>
        <time>2020-02-18T09:11:35.000Z</time>
      </trkpt>
      <trkpt lat="44.57548" lon="6.87026">
        <ele>2438</ele>
        <time>2020-02-18T09:11:39.000Z</time>
      </trkpt>
      <trkpt lat="44.57548" lon="6.87027">
        <ele>2438</ele>
        <time>2020-02-18T09:11:42.000Z</time>
      </trkpt>
      <trkpt lat="44.57549" lon="6.87028">
        <ele>2438</ele>
        <time>2020-02-18T09:11:47.000Z</time>
      </trkpt>
      <trkpt lat="44.5755" lon="6.87029">
        <ele>2438</ele>
        <time>2020-02-18T09:11:48.000Z</time>
      </trkpt>
      <trkpt lat="44.57552" lon="6.87031">
        <ele>2438</ele>
        <time>2020-02-18T09:11:53.000Z</time>
      </trkpt>
      <trkpt lat="44.57551" lon="6.8703">
        <ele>2438</ele>
        <time>2020-02-18T09:11:54.000Z</time>
      </trkpt>
      <trkpt lat="44.57549" lon="6.87028">
        <ele>2438</ele>
        <time>2020-02-18T09:11:57.000Z</time>
      </trkpt>
      <trkpt lat="44.57548" lon="6.87029">
        <ele>2438</ele>
        <time>2020-02-18T09:12:02.000Z</time>
      </trkpt>
      <trkpt lat="44.57548" lon="6.87029">
        <ele>2438</ele>
        <time>2020-02-18T09:12:06.000Z</time>
      </trkpt>
      <trkpt lat="44.57548" lon="6.87029">
        <ele>2438</ele>
        <time>2020-02-18T09:12:07.000Z</time>
      </trkpt>
      <trkpt lat="44.57548" lon="6.87028">
        <ele>2438</ele>
        <time>2020-02-18T09:12:09.000Z</time>
      </trkpt>
      <trkpt lat="44.57548" lon="6.87028">
        <ele>2438</ele>
        <time>2020-02-18T09:12:11.000Z</time>
      </trkpt>
      <trkpt lat="44.57548" lon="6.87028">
        <ele>2438</ele>
        <time>2020-02-18T09:12:13.000Z</time>
      </trkpt>
      <trkpt lat="44.57547" lon="6.87027">
        <ele>2438</ele>
        <time>2020-02-18T09:12:21.000Z</time>
      </trkpt>
      <trkpt lat="44.57547" lon="6.87026">
        <ele>2438</ele>
        <time>2020-02-18T09:12:24.000Z</time>
      </trkpt>
      <trkpt lat="44.57547" lon="6.87026">
        <ele>2437</ele>
        <time>2020-02-18T09:12:27.000Z</time>
      </trkpt>
      <trkpt lat="44.57546" lon="6.87025">
        <ele>2437</ele>
        <time>2020-02-18T09:12:29.000Z</time>
      </trkpt>
      <trkpt lat="44.57548" lon="6.87027">
        <ele>2438</ele>
        <time>2020-02-18T09:12:37.000Z</time>
      </trkpt>
      <trkpt lat="44.57548" lon="6.87029">
        <ele>2438</ele>
        <time>2020-02-18T09:12:39.000Z</time>
      </trkpt>
      <trkpt lat="44.57549" lon="6.87029">
        <ele>2438</ele>
        <time>2020-02-18T09:12:41.000Z</time>
      </trkpt>
      <trkpt lat="44.57549" lon="6.8703">
        <ele>2438</ele>
        <time>2020-02-18T09:12:44.000Z</time>
      </trkpt>
      <trkpt lat="44.57547" lon="6.87027">
        <ele>2438</ele>
        <time>2020-02-18T09:12:52.000Z</time>
      </trkpt>
      <trkpt lat="44.57547" lon="6.87027">
        <ele>2438</ele>
        <time>2020-02-18T09:12:58.000Z</time>
      </trkpt>
      <trkpt lat="44.57547" lon="6.87027">
        <ele>2438</ele>
        <time>2020-02-18T09:13:07.000Z</time>
      </trkpt>
      <trkpt lat="44.57547" lon="6.87027">
        <ele>2438</ele>
        <time>2020-02-18T09:13:16.000Z</time>
      </trkpt>
      <trkpt lat="44.57547" lon="6.87027">
        <ele>2438</ele>
        <time>2020-02-18T09:13:17.000Z</time>
      </trkpt>
      <trkpt lat="44.57546" lon="6.87027">
        <ele>2438</ele>
        <time>2020-02-18T09:13:19.000Z</time>
      </trkpt>
      <trkpt lat="44.57546" lon="6.87028">
        <ele>2438</ele>
        <time>2020-02-18T09:13:20.000Z</time>
      </trkpt>
      <trkpt lat="44.57546" lon="6.87028">
        <ele>2438</ele>
        <time>2020-02-18T09:13:23.000Z</time>
      </trkpt>
      <trkpt lat="44.57546" lon="6.87027">
        <ele>2438</ele>
        <time>2020-02-18T09:13:29.000Z</time>
      </trkpt>
      <trkpt lat="44.57547" lon="6.87028">
        <ele>2438</ele>
        <time>2020-02-18T09:13:35.000Z</time>
      </trkpt>
      <trkpt lat="44.57547" lon="6.87028">
        <ele>2438</ele>
        <time>2020-02-18T09:13:38.000Z</time>
      </trkpt>
      <trkpt lat="44.57547" lon="6.87028">
        <ele>2438</ele>
        <time>2020-02-18T09:13:39.000Z</time>
      </trkpt>
      <trkpt lat="44.57547" lon="6.87027">
        <ele>2438</ele>
        <time>2020-02-18T09:13:40.000Z</time>
      </trkpt>
      <trkpt lat="44.57547" lon="6.87027">
        <ele>2438</ele>
        <time>2020-02-18T09:13:41.000Z</time>
      </trkpt>
      <trkpt lat="44.57547" lon="6.87027">
        <ele>2438</ele>
        <time>2020-02-18T09:13:42.000Z</time>
      </trkpt>
      <trkpt lat="44.57547" lon="6.87027">
        <ele>2438</ele>
        <time>2020-02-18T09:13:43.000Z</time>
      </trkpt>
      <trkpt lat="44.57547" lon="6.87027">
        <ele>2438</ele>
        <time>2020-02-18T09:13:44.000Z</time>
      </trkpt>
      <trkpt lat="44.57547" lon="6.87027">
        <ele>2438</ele>
        <time>2020-02-18T09:13:48.000Z</time>
      </trkpt>
      <trkpt lat="44.57548" lon="6.87028">
        <ele>2438</ele>
        <time>2020-02-18T09:13:56.000Z</time>
      </trkpt>
      <trkpt lat="44.57548" lon="6.87028">
        <ele>2438</ele>
        <time>2020-02-18T09:13:58.000Z</time>
      </trkpt>
      <trkpt lat="44.57548" lon="6.87028">
        <ele>2438</ele>
        <time>2020-02-18T09:14:01.000Z</time>
      </trkpt>
      <trkpt lat="44.57548" lon="6.87027">
        <ele>2438</ele>
        <time>2020-02-18T09:14:04.000Z</time>
      </trkpt>
      <trkpt lat="44.57549" lon="6.87028">
        <ele>2438</ele>
        <time>2020-02-18T09:14:09.000Z</time>
      </trkpt>
      <trkpt lat="44.57549" lon="6.87029">
        <ele>2438</ele>
        <time>2020-02-18T09:14:10.000Z</time>
      </trkpt>
      <trkpt lat="44.57549" lon="6.87029">
        <ele>2438</ele>
        <time>2020-02-18T09:14:13.000Z</time>
      </trkpt>
      <trkpt lat="44.5755" lon="6.87029">
        <ele>2438</ele>
        <time>2020-02-18T09:14:14.000Z</time>
      </trkpt>
      <trkpt lat="44.5755" lon="6.8703">
        <ele>2438</ele>
        <time>2020-02-18T09:14:17.000Z</time>
      </trkpt>
      <trkpt lat="44.5755" lon="6.8703">
        <ele>2438</ele>
        <time>2020-02-18T09:14:19.000Z</time>
      </trkpt>
      <trkpt lat="44.5755" lon="6.87029">
        <ele>2438</ele>
        <time>2020-02-18T09:14:20.000Z</time>
      </trkpt>
      <trkpt lat="44.5755" lon="6.87029">
        <ele>2438</ele>
        <time>2020-02-18T09:14:21.000Z</time>
      </trkpt>
      <trkpt lat="44.5755" lon="6.87029">
        <ele>2438</ele>
        <time>2020-02-18T09:14:22.000Z</time>
      </trkpt>
      <trkpt lat="44.5755" lon="6.87029">
        <ele>2438</ele>
        <time>2020-02-18T09:14:23.000Z</time>
      </trkpt>
      <trkpt lat="44.5755" lon="6.87029">
        <ele>2438</ele>
        <time>2020-02-18T09:14:29.000Z</time>
      </trkpt>
      <trkpt lat="44.57549" lon="6.87029">
        <ele>2438</ele>
        <time>2020-02-18T09:14:33.000Z</time>
      </trkpt>
      <trkpt lat="44.57549" lon="6.87029">
        <ele>2438</ele>
        <time>2020-02-18T09:14:40.000Z</time>
      </trkpt>
      <trkpt lat="44.57549" lon="6.87029">
        <ele>2438</ele>
        <time>2020-02-18T09:14:43.000Z</time>
      </trkpt>
      <trkpt lat="44.57549" lon="6.87029">
        <ele>2438</ele>
        <time>2020-02-18T09:14:44.000Z</time>
      </trkpt>
      <trkpt lat="44.57549" lon="6.87028">
        <ele>2438</ele>
        <time>2020-02-18T09:14:48.000Z</time>
      </trkpt>
      <trkpt lat="44.57549" lon="6.87028">
        <ele>2438</ele>
        <time>2020-02-18T09:14:51.000Z</time>
      </trkpt>
      <trkpt lat="44.5755" lon="6.87027">
        <ele>2438</ele>
        <time>2020-02-18T09:14:52.000Z</time>
      </trkpt>
      <trkpt lat="44.5755" lon="6.87027">
        <ele>2438</ele>
        <time>2020-02-18T09:14:54.000Z</time>
      </trkpt>
      <trkpt lat="44.5755" lon="6.87027">
        <ele>2438</ele>
        <time>2020-02-18T09:14:55.000Z</time>
      </trkpt>
      <trkpt lat="44.5755" lon="6.87027">
        <ele>2438</ele>
        <time>2020-02-18T09:14:57.000Z</time>
      </trkpt>
      <trkpt lat="44.5755" lon="6.87027">
        <ele>2438</ele>
        <time>2020-02-18T09:14:58.000Z</time>
      </trkpt>
      <trkpt lat="44.5755" lon="6.87027">
        <ele>2438</ele>
        <time>2020-02-18T09:14:59.000Z</time>
      </trkpt>
      <trkpt lat="44.57549" lon="6.87029">
        <ele>2438</ele>
        <time>2020-02-18T09:15:11.000Z</time>
      </trkpt>
      <trkpt lat="44.57549" lon="6.87029">
        <ele>2438</ele>
        <time>2020-02-18T09:15:15.000Z</time>
      </trkpt>
      <trkpt lat="44.57548" lon="6.87029">
        <ele>2438</ele>
        <time>2020-02-18T09:15:22.000Z</time>
      </trkpt>
      <trkpt lat="44.57548" lon="6.87029">
        <ele>2438</ele>
        <time>2020-02-18T09:15:24.000Z</time>
      </trkpt>
      <trkpt lat="44.57548" lon="6.87029">
        <ele>2438</ele>
        <time>2020-02-18T09:15:26.000Z</time>
      </trkpt>
      <trkpt lat="44.57548" lon="6.87029">
        <ele>2438</ele>
        <time>2020-02-18T09:15:30.000Z</time>
      </trkpt>
      <trkpt lat="44.57548" lon="6.87029">
        <ele>2438</ele>
        <time>2020-02-18T09:15:32.000Z</time>
      </trkpt>
      <trkpt lat="44.57548" lon="6.87029">
        <ele>2438</ele>
        <time>2020-02-18T09:15:33.000Z</time>
      </trkpt>
      <trkpt lat="44.57548" lon="6.87029">
        <ele>2438</ele>
        <time>2020-02-18T09:15:34.000Z</time>
      </trkpt>
      <trkpt lat="44.57548" lon="6.87028">
        <ele>2438</ele>
        <time>2020-02-18T09:15:37.000Z</time>
      </trkpt>
      <trkpt lat="44.57548" lon="6.87028">
        <ele>2438</ele>
        <time>2020-02-18T09:15:42.000Z</time>
      </trkpt>
      <trkpt lat="44.57548" lon="6.87028">
        <ele>2438</ele>
        <time>2020-02-18T09:15:44.000Z</time>
      </trkpt>
      <trkpt lat="44.57548" lon="6.87028">
        <ele>2438</ele>
        <time>2020-02-18T09:15:47.000Z</time>
      </trkpt>
      <trkpt lat="44.57548" lon="6.87028">
        <ele>2438</ele>
        <time>2020-02-18T09:15:51.000Z</time>
      </trkpt>
      <trkpt lat="44.57548" lon="6.87028">
        <ele>2438</ele>
        <time>2020-02-18T09:15:52.000Z</time>
      </trkpt>
      <trkpt lat="44.57548" lon="6.87029">
        <ele>2438</ele>
        <time>2020-02-18T09:15:53.000Z</time>
      </trkpt>
      <trkpt lat="44.57548" lon="6.87028">
        <ele>2438</ele>
        <time>2020-02-18T09:15:56.000Z</time>
      </trkpt>
      <trkpt lat="44.57548" lon="6.87028">
        <ele>2438</ele>
        <time>2020-02-18T09:15:57.000Z</time>
      </trkpt>
      <trkpt lat="44.57548" lon="6.87028">
        <ele>2438</ele>
        <time>2020-02-18T09:16:02.000Z</time>
      </trkpt>
      <trkpt lat="44.57547" lon="6.87028">
        <ele>2438</ele>
        <time>2020-02-18T09:16:15.000Z</time>
      </trkpt>
      <trkpt lat="44.57547" lon="6.87028">
        <ele>2438</ele>
        <time>2020-02-18T09:16:17.000Z</time>
      </trkpt>
      <trkpt lat="44.57546" lon="6.8703">
        <ele>2438</ele>
        <time>2020-02-18T09:16:26.000Z</time>
      </trkpt>
      <trkpt lat="44.57546" lon="6.8703">
        <ele>2438</ele>
        <time>2020-02-18T09:16:30.000Z</time>
      </trkpt>
      <trkpt lat="44.57547" lon="6.8703">
        <ele>2438</ele>
        <time>2020-02-18T09:16:34.000Z</time>
      </trkpt>
      <trkpt lat="44.57547" lon="6.8703">
        <ele>2438</ele>
        <time>2020-02-18T09:16:36.000Z</time>
      </trkpt>
      <trkpt lat="44.57548" lon="6.87031">
        <ele>2438</ele>
        <time>2020-02-18T09:16:38.000Z</time>
      </trkpt>
      <trkpt lat="44.57547" lon="6.8703">
        <ele>2438</ele>
        <time>2020-02-18T09:16:40.000Z</time>
      </trkpt>
      <trkpt lat="44.57548" lon="6.87029">
        <ele>2438</ele>
        <time>2020-02-18T09:16:44.000Z</time>
      </trkpt>
      <trkpt lat="44.57548" lon="6.8703">
        <ele>2438</ele>
        <time>2020-02-18T09:16:46.000Z</time>
      </trkpt>
      <trkpt lat="44.57548" lon="6.87029">
        <ele>2438</ele>
        <time>2020-02-18T09:16:49.000Z</time>
      </trkpt>
      <trkpt lat="44.57548" lon="6.87029">
        <ele>2438</ele>
        <time>2020-02-18T09:16:50.000Z</time>
      </trkpt>
      <trkpt lat="44.57548" lon="6.8703">
        <ele>2438</ele>
        <time>2020-02-18T09:16:54.000Z</time>
      </trkpt>
      <trkpt lat="44.57548" lon="6.8703">
        <ele>2438</ele>
        <time>2020-02-18T09:16:55.000Z</time>
      </trkpt>
      <trkpt lat="44.57548" lon="6.8703">
        <ele>2438</ele>
        <time>2020-02-18T09:16:58.000Z</time>
      </trkpt>
      <trkpt lat="44.57548" lon="6.8703">
        <ele>2438</ele>
        <time>2020-02-18T09:17:01.000Z</time>
      </trkpt>
      <trkpt lat="44.57548" lon="6.87029">
        <ele>2438</ele>
        <time>2020-02-18T09:17:02.000Z</time>
      </trkpt>
      <trkpt lat="44.57548" lon="6.87029">
        <ele>2438</ele>
        <time>2020-02-18T09:17:03.000Z</time>
      </trkpt>
      <trkpt lat="44.57548" lon="6.87029">
        <ele>2438</ele>
        <time>2020-02-18T09:17:04.000Z</time>
      </trkpt>
      <trkpt lat="44.57548" lon="6.87029">
        <ele>2438</ele>
        <time>2020-02-18T09:17:05.000Z</time>
      </trkpt>
      <trkpt lat="44.57548" lon="6.8703">
        <ele>2438</ele>
        <time>2020-02-18T09:17:13.000Z</time>
      </trkpt>
      <trkpt lat="44.57547" lon="6.8703">
        <ele>2438</ele>
        <time>2020-02-18T09:17:20.000Z</time>
      </trkpt>
      <trkpt lat="44.57547" lon="6.87031">
        <ele>2438</ele>
        <time>2020-02-18T09:17:22.000Z</time>
      </trkpt>
      <trkpt lat="44.57547" lon="6.87031">
        <ele>2438</ele>
        <time>2020-02-18T09:17:23.000Z</time>
      </trkpt>
      <trkpt lat="44.57547" lon="6.8703">
        <ele>2438</ele>
        <time>2020-02-18T09:17:24.000Z</time>
      </trkpt>
      <trkpt lat="44.57547" lon="6.8703">
        <ele>2438</ele>
        <time>2020-02-18T09:17:29.000Z</time>
      </trkpt>
      <trkpt lat="44.57547" lon="6.87029">
        <ele>2438</ele>
        <time>2020-02-18T09:17:31.000Z</time>
      </trkpt>
      <trkpt lat="44.57547" lon="6.87029">
        <ele>2438</ele>
        <time>2020-02-18T09:17:32.000Z</time>
      </trkpt>
      <trkpt lat="44.57547" lon="6.87029">
        <ele>2438</ele>
        <time>2020-02-18T09:17:34.000Z</time>
      </trkpt>
      <trkpt lat="44.57547" lon="6.87029">
        <ele>2438</ele>
        <time>2020-02-18T09:17:37.000Z</time>
      </trkpt>
      <trkpt lat="44.57546" lon="6.87029">
        <ele>2438</ele>
        <time>2020-02-18T09:17:40.000Z</time>
      </trkpt>
      <trkpt lat="44.57546" lon="6.87029">
        <ele>2438</ele>
        <time>2020-02-18T09:17:42.000Z</time>
      </trkpt>
      <trkpt lat="44.57546" lon="6.87028">
        <ele>2438</ele>
        <time>2020-02-18T09:17:47.000Z</time>
      </trkpt>
      <trkpt lat="44.57546" lon="6.87028">
        <ele>2438</ele>
        <time>2020-02-18T09:17:48.000Z</time>
      </trkpt>
      <trkpt lat="44.57546" lon="6.87028">
        <ele>2438</ele>
        <time>2020-02-18T09:17:50.000Z</time>
      </trkpt>
      <trkpt lat="44.57546" lon="6.87026">
        <ele>2438</ele>
        <time>2020-02-18T09:18:00.000Z</time>
      </trkpt>
      <trkpt lat="44.57546" lon="6.87026">
        <ele>2438</ele>
        <time>2020-02-18T09:18:02.000Z</time>
      </trkpt>
      <trkpt lat="44.57547" lon="6.87026">
        <ele>2438</ele>
        <time>2020-02-18T09:18:05.000Z</time>
      </trkpt>
      <trkpt lat="44.57547" lon="6.87026">
        <ele>2437</ele>
        <time>2020-02-18T09:18:06.000Z</time>
      </trkpt>
      <trkpt lat="44.57547" lon="6.87026">
        <ele>2438</ele>
        <time>2020-02-18T09:18:07.000Z</time>
      </trkpt>
      <trkpt lat="44.57546" lon="6.87025">
        <ele>2437</ele>
        <time>2020-02-18T09:18:09.000Z</time>
      </trkpt>
      <trkpt lat="44.57546" lon="6.87025">
        <ele>2437</ele>
        <time>2020-02-18T09:18:10.000Z</time>
      </trkpt>
      <trkpt lat="44.57546" lon="6.87025">
        <ele>2437</ele>
        <time>2020-02-18T09:18:11.000Z</time>
      </trkpt>
      <trkpt lat="44.57546" lon="6.87025">
        <ele>2437</ele>
        <time>2020-02-18T09:18:13.000Z</time>
      </trkpt>
      <trkpt lat="44.57547" lon="6.87026">
        <ele>2437</ele>
        <time>2020-02-18T09:18:16.000Z</time>
      </trkpt>
      <trkpt lat="44.57547" lon="6.87026">
        <ele>2438</ele>
        <time>2020-02-18T09:18:20.000Z</time>
      </trkpt>
      <trkpt lat="44.57547" lon="6.87026">
        <ele>2438</ele>
        <time>2020-02-18T09:18:21.000Z</time>
      </trkpt>
      <trkpt lat="44.57546" lon="6.87026">
        <ele>2438</ele>
        <time>2020-02-18T09:18:24.000Z</time>
      </trkpt>
      <trkpt lat="44.57546" lon="6.87027">
        <ele>2438</ele>
        <time>2020-02-18T09:18:28.000Z</time>
      </trkpt>
      <trkpt lat="44.57546" lon="6.87026">
        <ele>2438</ele>
        <time>2020-02-18T09:18:30.000Z</time>
      </trkpt>
      <trkpt lat="44.57546" lon="6.87026">
        <ele>2438</ele>
        <time>2020-02-18T09:18:32.000Z</time>
      </trkpt>
      <trkpt lat="44.57546" lon="6.87026">
        <ele>2438</ele>
        <time>2020-02-18T09:18:38.000Z</time>
      </trkpt>
      <trkpt lat="44.57546" lon="6.87027">
        <ele>2438</ele>
        <time>2020-02-18T09:18:40.000Z</time>
      </trkpt>
      <trkpt lat="44.57546" lon="6.87027">
        <ele>2438</ele>
        <time>2020-02-18T09:18:42.000Z</time>
      </trkpt>
      <trkpt lat="44.57546" lon="6.87027">
        <ele>2438</ele>
        <time>2020-02-18T09:18:43.000Z</time>
      </trkpt>
      <trkpt lat="44.57546" lon="6.87027">
        <ele>2438</ele>
        <time>2020-02-18T09:18:44.000Z</time>
      </trkpt>
      <trkpt lat="44.57546" lon="6.87028">
        <ele>2438</ele>
        <time>2020-02-18T09:18:48.000Z</time>
      </trkpt>
      <trkpt lat="44.57546" lon="6.87028">
        <ele>2438</ele>
        <time>2020-02-18T09:18:50.000Z</time>
      </trkpt>
      <trkpt lat="44.57546" lon="6.87028">
        <ele>2438</ele>
        <time>2020-02-18T09:18:52.000Z</time>
      </trkpt>
      <trkpt lat="44.57547" lon="6.87027">
        <ele>2438</ele>
        <time>2020-02-18T09:19:01.000Z</time>
      </trkpt>
      <trkpt lat="44.57548" lon="6.87027">
        <ele>2438</ele>
        <time>2020-02-18T09:19:04.000Z</time>
      </trkpt>
      <trkpt lat="44.57548" lon="6.87027">
        <ele>2438</ele>
        <time>2020-02-18T09:19:08.000Z</time>
      </trkpt>
      <trkpt lat="44.57548" lon="6.87026">
        <ele>2438</ele>
        <time>2020-02-18T09:19:10.000Z</time>
      </trkpt>
      <trkpt lat="44.57547" lon="6.87026">
        <ele>2438</ele>
        <time>2020-02-18T09:19:11.000Z</time>
      </trkpt>
      <trkpt lat="44.57547" lon="6.87026">
        <ele>2438</ele>
        <time>2020-02-18T09:19:12.000Z</time>
      </trkpt>
      <trkpt lat="44.57547" lon="6.87026">
        <ele>2437</ele>
        <time>2020-02-18T09:19:13.000Z</time>
      </trkpt>
      <trkpt lat="44.57547" lon="6.87026">
        <ele>2437</ele>
        <time>2020-02-18T09:19:18.000Z</time>
      </trkpt>
      <trkpt lat="44.57547" lon="6.87026">
        <ele>2437</ele>
        <time>2020-02-18T09:19:19.000Z</time>
      </trkpt>
      <trkpt lat="44.57546" lon="6.87026">
        <ele>2437</ele>
        <time>2020-02-18T09:19:22.000Z</time>
      </trkpt>
      <trkpt lat="44.57546" lon="6.87026">
        <ele>2437</ele>
        <time>2020-02-18T09:19:25.000Z</time>
      </trkpt>
      <trkpt lat="44.57547" lon="6.87026">
        <ele>2438</ele>
        <time>2020-02-18T09:19:29.000Z</time>
      </trkpt>
      <trkpt lat="44.57547" lon="6.87026">
        <ele>2438</ele>
        <time>2020-02-18T09:19:32.000Z</time>
      </trkpt>
      <trkpt lat="44.57548" lon="6.87025">
        <ele>2437</ele>
        <time>2020-02-18T09:19:38.000Z</time>
      </trkpt>
      <trkpt lat="44.57548" lon="6.87025">
        <ele>2437</ele>
        <time>2020-02-18T09:19:40.000Z</time>
      </trkpt>
      <trkpt lat="44.57548" lon="6.87025">
        <ele>2437</ele>
        <time>2020-02-18T09:19:41.000Z</time>
      </trkpt>
      <trkpt lat="44.57549" lon="6.87025">
        <ele>2437</ele>
        <time>2020-02-18T09:19:42.000Z</time>
      </trkpt>
      <trkpt lat="44.57548" lon="6.87027">
        <ele>2438</ele>
        <time>2020-02-18T09:19:43.000Z</time>
      </trkpt>
      <trkpt lat="44.57548" lon="6.87028">
        <ele>2438</ele>
        <time>2020-02-18T09:19:44.000Z</time>
      </trkpt>
      <trkpt lat="44.57547" lon="6.87028">
        <ele>2438</ele>
        <time>2020-02-18T09:19:45.000Z</time>
      </trkpt>
      <trkpt lat="44.57548" lon="6.87028">
        <ele>2438</ele>
        <time>2020-02-18T09:19:47.000Z</time>
      </trkpt>
      <trkpt lat="44.57548" lon="6.87028">
        <ele>2438</ele>
        <time>2020-02-18T09:19:48.000Z</time>
      </trkpt>
      <trkpt lat="44.57546" lon="6.87027">
        <ele>2438</ele>
        <time>2020-02-18T09:19:52.000Z</time>
      </trkpt>
      <trkpt lat="44.57546" lon="6.87027">
        <ele>2438</ele>
        <time>2020-02-18T09:19:54.000Z</time>
      </trkpt>
      <trkpt lat="44.57546" lon="6.87027">
        <ele>2438</ele>
        <time>2020-02-18T09:20:03.000Z</time>
      </trkpt>
      <trkpt lat="44.57546" lon="6.87027">
        <ele>2438</ele>
        <time>2020-02-18T09:20:10.000Z</time>
      </trkpt>
      <trkpt lat="44.57546" lon="6.87027">
        <ele>2438</ele>
        <time>2020-02-18T09:20:11.000Z</time>
      </trkpt>
      <trkpt lat="44.57546" lon="6.87028">
        <ele>2438</ele>
        <time>2020-02-18T09:20:12.000Z</time>
      </trkpt>
      <trkpt lat="44.57546" lon="6.87028">
        <ele>2438</ele>
        <time>2020-02-18T09:20:15.000Z</time>
      </trkpt>
      <trkpt lat="44.57546" lon="6.87028">
        <ele>2438</ele>
        <time>2020-02-18T09:20:24.000Z</time>
      </trkpt>
      <trkpt lat="44.57546" lon="6.87028">
        <ele>2438</ele>
        <time>2020-02-18T09:20:25.000Z</time>
      </trkpt>
      <trkpt lat="44.57545" lon="6.87029">
        <ele>2438</ele>
        <time>2020-02-18T09:20:27.000Z</time>
      </trkpt>
      <trkpt lat="44.57545" lon="6.8703">
        <ele>2438</ele>
        <time>2020-02-18T09:20:29.000Z</time>
      </trkpt>
      <trkpt lat="44.57544" lon="6.87028">
        <ele>2438</ele>
        <time>2020-02-18T09:20:33.000Z</time>
      </trkpt>
      <trkpt lat="44.57545" lon="6.87029">
        <ele>2438</ele>
        <time>2020-02-18T09:20:36.000Z</time>
      </trkpt>
      <trkpt lat="44.57545" lon="6.87029">
        <ele>2438</ele>
        <time>2020-02-18T09:20:37.000Z</time>
      </trkpt>
      <trkpt lat="44.57545" lon="6.87029">
        <ele>2438</ele>
        <time>2020-02-18T09:20:39.000Z</time>
      </trkpt>
      <trkpt lat="44.57545" lon="6.87029">
        <ele>2438</ele>
        <time>2020-02-18T09:20:41.000Z</time>
      </trkpt>
      <trkpt lat="44.57545" lon="6.87029">
        <ele>2438</ele>
        <time>2020-02-18T09:20:45.000Z</time>
      </trkpt>
      <trkpt lat="44.57545" lon="6.87028">
        <ele>2438</ele>
        <time>2020-02-18T09:21:00.000Z</time>
      </trkpt>
      <trkpt lat="44.57545" lon="6.87028">
        <ele>2438</ele>
        <time>2020-02-18T09:21:01.000Z</time>
      </trkpt>
      <trkpt lat="44.57545" lon="6.87028">
        <ele>2438</ele>
        <time>2020-02-18T09:21:02.000Z</time>
      </trkpt>
      <trkpt lat="44.57544" lon="6.87028">
        <ele>2438</ele>
        <time>2020-02-18T09:21:08.000Z</time>
      </trkpt>
      <trkpt lat="44.57545" lon="6.87028">
        <ele>2438</ele>
        <time>2020-02-18T09:21:09.000Z</time>
      </trkpt>
      <trkpt lat="44.57545" lon="6.87027">
        <ele>2438</ele>
        <time>2020-02-18T09:21:11.000Z</time>
      </trkpt>
      <trkpt lat="44.57546" lon="6.87029">
        <ele>2438</ele>
        <time>2020-02-18T09:21:14.000Z</time>
      </trkpt>
      <trkpt lat="44.57546" lon="6.87028">
        <ele>2438</ele>
        <time>2020-02-18T09:21:16.000Z</time>
      </trkpt>
      <trkpt lat="44.57547" lon="6.87028">
        <ele>2438</ele>
        <time>2020-02-18T09:21:17.000Z</time>
      </trkpt>
      <trkpt lat="44.57546" lon="6.87028">
        <ele>2438</ele>
        <time>2020-02-18T09:21:20.000Z</time>
      </trkpt>
      <trkpt lat="44.57544" lon="6.87028">
        <ele>2438</ele>
        <time>2020-02-18T09:21:27.000Z</time>
      </trkpt>
      <trkpt lat="44.57546" lon="6.87027">
        <ele>2438</ele>
        <time>2020-02-18T09:21:31.000Z</time>
      </trkpt>
      <trkpt lat="44.57546" lon="6.87026">
        <ele>2438</ele>
        <time>2020-02-18T09:21:33.000Z</time>
      </trkpt>
      <trkpt lat="44.57546" lon="6.87026">
        <ele>2438</ele>
        <time>2020-02-18T09:21:35.000Z</time>
      </trkpt>
      <trkpt lat="44.57546" lon="6.87026">
        <ele>2438</ele>
        <time>2020-02-18T09:21:37.000Z</time>
      </trkpt>
      <trkpt lat="44.57545" lon="6.87026">
        <ele>2438</ele>
        <time>2020-02-18T09:21:44.000Z</time>
      </trkpt>
      <trkpt lat="44.57545" lon="6.87026">
        <ele>2438</ele>
        <time>2020-02-18T09:21:45.000Z</time>
      </trkpt>
      <trkpt lat="44.57545" lon="6.87026">
        <ele>2438</ele>
        <time>2020-02-18T09:21:46.000Z</time>
      </trkpt>
      <trkpt lat="44.57545" lon="6.87026">
        <ele>2438</ele>
        <time>2020-02-18T09:21:47.000Z</time>
      </trkpt>
      <trkpt lat="44.57546" lon="6.87026">
        <ele>2438</ele>
        <time>2020-02-18T09:21:50.000Z</time>
      </trkpt>
      <trkpt lat="44.57546" lon="6.87026">
        <ele>2437</ele>
        <time>2020-02-18T09:21:51.000Z</time>
      </trkpt>
      <trkpt lat="44.57546" lon="6.87026">
        <ele>2437</ele>
        <time>2020-02-18T09:21:52.000Z</time>
      </trkpt>
      <trkpt lat="44.57546" lon="6.87026">
        <ele>2438</ele>
        <time>2020-02-18T09:21:54.000Z</time>
      </trkpt>
      <trkpt lat="44.57548" lon="6.87028">
        <ele>2438</ele>
        <time>2020-02-18T09:21:59.000Z</time>
      </trkpt>
      <trkpt lat="44.57549" lon="6.87029">
        <ele>2438</ele>
        <time>2020-02-18T09:22:01.000Z</time>
      </trkpt>
      <trkpt lat="44.57549" lon="6.87029">
        <ele>2438</ele>
        <time>2020-02-18T09:22:03.000Z</time>
      </trkpt>
      <trkpt lat="44.57551" lon="6.8703">
        <ele>2438</ele>
        <time>2020-02-18T09:22:09.000Z</time>
      </trkpt>
      <trkpt lat="44.57551" lon="6.8703">
        <ele>2438</ele>
        <time>2020-02-18T09:22:11.000Z</time>
      </trkpt>
      <trkpt lat="44.5755" lon="6.8703">
        <ele>2438</ele>
        <time>2020-02-18T09:22:13.000Z</time>
      </trkpt>
      <trkpt lat="44.57549" lon="6.87029">
        <ele>2438</ele>
        <time>2020-02-18T09:22:17.000Z</time>
      </trkpt>
      <trkpt lat="44.57548" lon="6.87029">
        <ele>2438</ele>
        <time>2020-02-18T09:22:19.000Z</time>
      </trkpt>
      <trkpt lat="44.57548" lon="6.87029">
        <ele>2438</ele>
        <time>2020-02-18T09:22:21.000Z</time>
      </trkpt>
      <trkpt lat="44.57548" lon="6.87029">
        <ele>2438</ele>
        <time>2020-02-18T09:22:27.000Z</time>
      </trkpt>
      <trkpt lat="44.57548" lon="6.8703">
        <ele>2438</ele>
        <time>2020-02-18T09:22:29.000Z</time>
      </trkpt>
      <trkpt lat="44.57548" lon="6.8703">
        <ele>2438</ele>
        <time>2020-02-18T09:22:33.000Z</time>
      </trkpt>
      <trkpt lat="44.57547" lon="6.8703">
        <ele>2438</ele>
        <time>2020-02-18T09:22:37.000Z</time>
      </trkpt>
      <trkpt lat="44.57547" lon="6.8703">
        <ele>2438</ele>
        <time>2020-02-18T09:22:40.000Z</time>
      </trkpt>
      <trkpt lat="44.57547" lon="6.87029">
        <ele>2438</ele>
        <time>2020-02-18T09:22:44.000Z</time>
      </trkpt>
      <trkpt lat="44.57547" lon="6.87029">
        <ele>2438</ele>
        <time>2020-02-18T09:22:47.000Z</time>
      </trkpt>
      <trkpt lat="44.57547" lon="6.87028">
        <ele>2438</ele>
        <time>2020-02-18T09:22:49.000Z</time>
      </trkpt>
      <trkpt lat="44.57547" lon="6.87028">
        <ele>2438</ele>
        <time>2020-02-18T09:22:51.000Z</time>
      </trkpt>
      <trkpt lat="44.57547" lon="6.87029">
        <ele>2438</ele>
        <time>2020-02-18T09:22:54.000Z</time>
      </trkpt>
      <trkpt lat="44.57547" lon="6.87029">
        <ele>2438</ele>
        <time>2020-02-18T09:22:56.000Z</time>
      </trkpt>
      <trkpt lat="44.57547" lon="6.87029">
        <ele>2438</ele>
        <time>2020-02-18T09:22:58.000Z</time>
      </trkpt>
      <trkpt lat="44.57546" lon="6.8703">
        <ele>2438</ele>
        <time>2020-02-18T09:23:01.000Z</time>
      </trkpt>
      <trkpt lat="44.57546" lon="6.87029">
        <ele>2438</ele>
        <time>2020-02-18T09:23:06.000Z</time>
      </trkpt>
      <trkpt lat="44.57546" lon="6.87029">
        <ele>2438</ele>
        <time>2020-02-18T09:23:09.000Z</time>
      </trkpt>
      <trkpt lat="44.57546" lon="6.87029">
        <ele>2438</ele>
        <time>2020-02-18T09:23:11.000Z</time>
      </trkpt>
      <trkpt lat="44.57545" lon="6.87028">
        <ele>2438</ele>
        <time>2020-02-18T09:23:12.000Z</time>
      </trkpt>
      <trkpt lat="44.57545" lon="6.87027">
        <ele>2438</ele>
        <time>2020-02-18T09:23:16.000Z</time>
      </trkpt>
      <trkpt lat="44.57545" lon="6.87027">
        <ele>2438</ele>
        <time>2020-02-18T09:23:17.000Z</time>
      </trkpt>
      <trkpt lat="44.57545" lon="6.87027">
        <ele>2438</ele>
        <time>2020-02-18T09:23:19.000Z</time>
      </trkpt>
      <trkpt lat="44.57545" lon="6.87028">
        <ele>2438</ele>
        <time>2020-02-18T09:23:20.000Z</time>
      </trkpt>
      <trkpt lat="44.57545" lon="6.87028">
        <ele>2438</ele>
        <time>2020-02-18T09:23:21.000Z</time>
      </trkpt>
      <trkpt lat="44.57546" lon="6.87029">
        <ele>2438</ele>
        <time>2020-02-18T09:23:23.000Z</time>
      </trkpt>
      <trkpt lat="44.57547" lon="6.87029">
        <ele>2438</ele>
        <time>2020-02-18T09:23:31.000Z</time>
      </trkpt>
      <trkpt lat="44.57548" lon="6.87029">
        <ele>2438</ele>
        <time>2020-02-18T09:23:35.000Z</time>
      </trkpt>
      <trkpt lat="44.57547" lon="6.87032">
        <ele>2438</ele>
        <time>2020-02-18T09:23:48.000Z</time>
      </trkpt>
      <trkpt lat="44.57545" lon="6.87029">
        <ele>2438</ele>
        <time>2020-02-18T09:24:00.000Z</time>
      </trkpt>
      <trkpt lat="44.57545" lon="6.8703">
        <ele>2438</ele>
        <time>2020-02-18T09:24:04.000Z</time>
      </trkpt>
      <trkpt lat="44.57545" lon="6.87031">
        <ele>2438</ele>
        <time>2020-02-18T09:24:05.000Z</time>
      </trkpt>
      <trkpt lat="44.57544" lon="6.87032">
        <ele>2438</ele>
        <time>2020-02-18T09:24:11.000Z</time>
      </trkpt>
      <trkpt lat="44.57543" lon="6.87033">
        <ele>2438</ele>
        <time>2020-02-18T09:24:16.000Z</time>
      </trkpt>
      <trkpt lat="44.57543" lon="6.87034">
        <ele>2438</ele>
        <time>2020-02-18T09:24:19.000Z</time>
      </trkpt>
      <trkpt lat="44.57543" lon="6.87035">
        <ele>2439</ele>
        <time>2020-02-18T09:24:20.000Z</time>
      </trkpt>
      <trkpt lat="44.57542" lon="6.87037">
        <ele>2439</ele>
        <time>2020-02-18T09:24:22.000Z</time>
      </trkpt>
      <trkpt lat="44.57541" lon="6.8704">
        <ele>2439</ele>
        <time>2020-02-18T09:24:25.000Z</time>
      </trkpt>
      <trkpt lat="44.5754" lon="6.87041">
        <ele>2439</ele>
        <time>2020-02-18T09:24:26.000Z</time>
      </trkpt>
      <trkpt lat="44.5754" lon="6.87042">
        <ele>2440</ele>
        <time>2020-02-18T09:24:27.000Z</time>
      </trkpt>
      <trkpt lat="44.57539" lon="6.87047">
        <ele>2440</ele>
        <time>2020-02-18T09:24:31.000Z</time>
      </trkpt>
      <trkpt lat="44.57538" lon="6.8705">
        <ele>2441</ele>
        <time>2020-02-18T09:24:34.000Z</time>
      </trkpt>
      <trkpt lat="44.57537" lon="6.87053">
        <ele>2441</ele>
        <time>2020-02-18T09:24:37.000Z</time>
      </trkpt>
      <trkpt lat="44.57536" lon="6.87055">
        <ele>2441</ele>
        <time>2020-02-18T09:24:40.000Z</time>
      </trkpt>
      <trkpt lat="44.57536" lon="6.87056">
        <ele>2441</ele>
        <time>2020-02-18T09:24:41.000Z</time>
      </trkpt>
      <trkpt lat="44.57534" lon="6.87058">
        <ele>2442</ele>
        <time>2020-02-18T09:24:45.000Z</time>
      </trkpt>
      <trkpt lat="44.57534" lon="6.87058">
        <ele>2442</ele>
        <time>2020-02-18T09:24:46.000Z</time>
      </trkpt>
      <trkpt lat="44.57534" lon="6.87059">
        <ele>2442</ele>
        <time>2020-02-18T09:24:47.000Z</time>
      </trkpt>
      <trkpt lat="44.57533" lon="6.87061">
        <ele>2442</ele>
        <time>2020-02-18T09:24:50.000Z</time>
      </trkpt>
      <trkpt lat="44.57532" lon="6.87063">
        <ele>2442</ele>
        <time>2020-02-18T09:24:53.000Z</time>
      </trkpt>
      <trkpt lat="44.57532" lon="6.87064">
        <ele>2442</ele>
        <time>2020-02-18T09:24:54.000Z</time>
      </trkpt>
      <trkpt lat="44.57532" lon="6.87065">
        <ele>2442</ele>
        <time>2020-02-18T09:24:55.000Z</time>
      </trkpt>
      <trkpt lat="44.5753" lon="6.87071">
        <ele>2443</ele>
        <time>2020-02-18T09:25:01.000Z</time>
      </trkpt>
      <trkpt lat="44.5753" lon="6.87072">
        <ele>2443</ele>
        <time>2020-02-18T09:25:02.000Z</time>
      </trkpt>
      <trkpt lat="44.5753" lon="6.87075">
        <ele>2443</ele>
        <time>2020-02-18T09:25:05.000Z</time>
      </trkpt>
      <trkpt lat="44.57529" lon="6.87078">
        <ele>2444</ele>
        <time>2020-02-18T09:25:08.000Z</time>
      </trkpt>
      <trkpt lat="44.57528" lon="6.87079">
        <ele>2444</ele>
        <time>2020-02-18T09:25:09.000Z</time>
      </trkpt>
      <trkpt lat="44.57528" lon="6.87081">
        <ele>2444</ele>
        <time>2020-02-18T09:25:11.000Z</time>
      </trkpt>
      <trkpt lat="44.57526" lon="6.87087">
        <ele>2456</ele>
        <time>2020-02-18T09:25:16.000Z</time>
      </trkpt>
      <trkpt lat="44.57525" lon="6.87088">
        <ele>2456</ele>
        <time>2020-02-18T09:25:17.000Z</time>
      </trkpt>
      <trkpt lat="44.57523" lon="6.87092">
        <ele>2456</ele>
        <time>2020-02-18T09:25:21.000Z</time>
      </trkpt>
      <trkpt lat="44.57522" lon="6.87093">
        <ele>2456</ele>
        <time>2020-02-18T09:25:22.000Z</time>
      </trkpt>
      <trkpt lat="44.57521" lon="6.87095">
        <ele>2456</ele>
        <time>2020-02-18T09:25:24.000Z</time>
      </trkpt>
      <trkpt lat="44.5752" lon="6.871">
        <ele>2456</ele>
        <time>2020-02-18T09:25:29.000Z</time>
      </trkpt>
      <trkpt lat="44.5752" lon="6.87101">
        <ele>2457</ele>
        <time>2020-02-18T09:25:31.000Z</time>
      </trkpt>
      <trkpt lat="44.57519" lon="6.87104">
        <ele>2457</ele>
        <time>2020-02-18T09:25:35.000Z</time>
      </trkpt>
      <trkpt lat="44.57518" lon="6.87105">
        <ele>2457</ele>
        <time>2020-02-18T09:25:37.000Z</time>
      </trkpt>
      <trkpt lat="44.57518" lon="6.87106">
        <ele>2457</ele>
        <time>2020-02-18T09:25:38.000Z</time>
      </trkpt>
      <trkpt lat="44.57517" lon="6.87111">
        <ele>2458</ele>
        <time>2020-02-18T09:25:44.000Z</time>
      </trkpt>
      <trkpt lat="44.57517" lon="6.87114">
        <ele>2458</ele>
        <time>2020-02-18T09:25:47.000Z</time>
      </trkpt>
      <trkpt lat="44.57515" lon="6.87118">
        <ele>2459</ele>
        <time>2020-02-18T09:25:51.000Z</time>
      </trkpt>
      <trkpt lat="44.57515" lon="6.87119">
        <ele>2459</ele>
        <time>2020-02-18T09:25:52.000Z</time>
      </trkpt>
      <trkpt lat="44.57514" lon="6.8712">
        <ele>2459</ele>
        <time>2020-02-18T09:25:53.000Z</time>
      </trkpt>
      <trkpt lat="44.57514" lon="6.87123">
        <ele>2459</ele>
        <time>2020-02-18T09:25:56.000Z</time>
      </trkpt>
      <trkpt lat="44.57512" lon="6.87128">
        <ele>2460</ele>
        <time>2020-02-18T09:26:03.000Z</time>
      </trkpt>
      <trkpt lat="44.57511" lon="6.87129">
        <ele>2460</ele>
        <time>2020-02-18T09:26:04.000Z</time>
      </trkpt>
      <trkpt lat="44.57511" lon="6.8713">
        <ele>2460</ele>
        <time>2020-02-18T09:26:06.000Z</time>
      </trkpt>
      <trkpt lat="44.57509" lon="6.87134">
        <ele>2461</ele>
        <time>2020-02-18T09:26:11.000Z</time>
      </trkpt>
      <trkpt lat="44.57506" lon="6.87142">
        <ele>2462</ele>
        <time>2020-02-18T09:26:22.000Z</time>
      </trkpt>
      <trkpt lat="44.57504" lon="6.87148">
        <ele>2462</ele>
        <time>2020-02-18T09:26:31.000Z</time>
      </trkpt>
      <trkpt lat="44.57503" lon="6.87149">
        <ele>2463</ele>
        <time>2020-02-18T09:26:33.000Z</time>
      </trkpt>
      <trkpt lat="44.57503" lon="6.8715">
        <ele>2463</ele>
        <time>2020-02-18T09:26:34.000Z</time>
      </trkpt>
      <trkpt lat="44.57503" lon="6.8715">
        <ele>2463</ele>
        <time>2020-02-18T09:26:35.000Z</time>
      </trkpt>
      <trkpt lat="44.57501" lon="6.87153">
        <ele>2463</ele>
        <time>2020-02-18T09:26:40.000Z</time>
      </trkpt>
      <trkpt lat="44.57501" lon="6.87154">
        <ele>2463</ele>
        <time>2020-02-18T09:26:41.000Z</time>
      </trkpt>
      <trkpt lat="44.57501" lon="6.87154">
        <ele>2463</ele>
        <time>2020-02-18T09:26:42.000Z</time>
      </trkpt>
      <trkpt lat="44.57501" lon="6.87155">
        <ele>2463</ele>
        <time>2020-02-18T09:26:43.000Z</time>
      </trkpt>
      <trkpt lat="44.57499" lon="6.87159">
        <ele>2462</ele>
        <time>2020-02-18T09:26:48.000Z</time>
      </trkpt>
      <trkpt lat="44.57498" lon="6.87162">
        <ele>2463</ele>
        <time>2020-02-18T09:26:54.000Z</time>
      </trkpt>
      <trkpt lat="44.57497" lon="6.87163">
        <ele>2463</ele>
        <time>2020-02-18T09:26:57.000Z</time>
      </trkpt>
      <trkpt lat="44.57496" lon="6.87164">
        <ele>2463</ele>
        <time>2020-02-18T09:26:59.000Z</time>
      </trkpt>
      <trkpt lat="44.57494" lon="6.8717">
        <ele>2466</ele>
        <time>2020-02-18T09:27:06.000Z</time>
      </trkpt>
      <trkpt lat="44.57493" lon="6.87171">
        <ele>2466</ele>
        <time>2020-02-18T09:27:07.000Z</time>
      </trkpt>
      <trkpt lat="44.57491" lon="6.87177">
        <ele>2466</ele>
        <time>2020-02-18T09:27:15.000Z</time>
      </trkpt>
      <trkpt lat="44.57491" lon="6.87177">
        <ele>2466</ele>
        <time>2020-02-18T09:27:16.000Z</time>
      </trkpt>
      <trkpt lat="44.5749" lon="6.87181">
        <ele>2467</ele>
        <time>2020-02-18T09:27:21.000Z</time>
      </trkpt>
      <trkpt lat="44.57489" lon="6.87187">
        <ele>2467</ele>
        <time>2020-02-18T09:27:29.000Z</time>
      </trkpt>
      <trkpt lat="44.57488" lon="6.87192">
        <ele>2468</ele>
        <time>2020-02-18T09:27:36.000Z</time>
      </trkpt>
      <trkpt lat="44.57486" lon="6.87196">
        <ele>2468</ele>
        <time>2020-02-18T09:27:44.000Z</time>
      </trkpt>
      <trkpt lat="44.57483" lon="6.87203">
        <ele>2469</ele>
        <time>2020-02-18T09:27:54.000Z</time>
      </trkpt>
      <trkpt lat="44.57481" lon="6.87206">
        <ele>2469</ele>
        <time>2020-02-18T09:28:01.000Z</time>
      </trkpt>
      <trkpt lat="44.57477" lon="6.87212">
        <ele>2470</ele>
        <time>2020-02-18T09:28:08.000Z</time>
      </trkpt>
      <trkpt lat="44.57474" lon="6.87218">
        <ele>2470</ele>
        <time>2020-02-18T09:28:19.000Z</time>
      </trkpt>
      <trkpt lat="44.57471" lon="6.87224">
        <ele>2471</ele>
        <time>2020-02-18T09:28:31.000Z</time>
      </trkpt>
      <trkpt lat="44.57472" lon="6.87224">
        <ele>2471</ele>
        <time>2020-02-18T09:28:39.000Z</time>
      </trkpt>
      <trkpt lat="44.57473" lon="6.87225">
        <ele>2471</ele>
        <time>2020-02-18T09:28:42.000Z</time>
      </trkpt>
      <trkpt lat="44.57472" lon="6.87224">
        <ele>2471</ele>
        <time>2020-02-18T09:28:52.000Z</time>
      </trkpt>
      <trkpt lat="44.57472" lon="6.87224">
        <ele>2471</ele>
        <time>2020-02-18T09:28:56.000Z</time>
      </trkpt>
      <trkpt lat="44.57471" lon="6.87223">
        <ele>2471</ele>
        <time>2020-02-18T09:29:04.000Z</time>
      </trkpt>
      <trkpt lat="44.57471" lon="6.87223">
        <ele>2470</ele>
        <time>2020-02-18T09:29:06.000Z</time>
      </trkpt>
      <trkpt lat="44.57471" lon="6.87223">
        <ele>2470</ele>
        <time>2020-02-18T09:29:07.000Z</time>
      </trkpt>
      <trkpt lat="44.57471" lon="6.87223">
        <ele>2470</ele>
        <time>2020-02-18T09:29:08.000Z</time>
      </trkpt>
      <trkpt lat="44.57471" lon="6.87223">
        <ele>2470</ele>
        <time>2020-02-18T09:29:09.000Z</time>
      </trkpt>
      <trkpt lat="44.57471" lon="6.87223">
        <ele>2470</ele>
        <time>2020-02-18T09:29:10.000Z</time>
      </trkpt>
      <trkpt lat="44.57471" lon="6.87223">
        <ele>2470</ele>
        <time>2020-02-18T09:29:13.000Z</time>
      </trkpt>
      <trkpt lat="44.5747" lon="6.87222">
        <ele>2470</ele>
        <time>2020-02-18T09:29:15.000Z</time>
      </trkpt>
      <trkpt lat="44.57471" lon="6.87226">
        <ele>2471</ele>
        <time>2020-02-18T09:29:22.000Z</time>
      </trkpt>
      <trkpt lat="44.57471" lon="6.87227">
        <ele>2471</ele>
        <time>2020-02-18T09:29:23.000Z</time>
      </trkpt>
      <trkpt lat="44.57471" lon="6.87227">
        <ele>2471</ele>
        <time>2020-02-18T09:29:24.000Z</time>
      </trkpt>
      <trkpt lat="44.5747" lon="6.87227">
        <ele>2471</ele>
        <time>2020-02-18T09:29:25.000Z</time>
      </trkpt>
      <trkpt lat="44.5747" lon="6.87228">
        <ele>2471</ele>
        <time>2020-02-18T09:29:26.000Z</time>
      </trkpt>
      <trkpt lat="44.5747" lon="6.87228">
        <ele>2471</ele>
        <time>2020-02-18T09:29:29.000Z</time>
      </trkpt>
      <trkpt lat="44.57469" lon="6.87228">
        <ele>2471</ele>
        <time>2020-02-18T09:29:30.000Z</time>
      </trkpt>
      <trkpt lat="44.57469" lon="6.87228">
        <ele>2471</ele>
        <time>2020-02-18T09:29:31.000Z</time>
      </trkpt>
      <trkpt lat="44.57469" lon="6.87228">
        <ele>2471</ele>
        <time>2020-02-18T09:29:35.000Z</time>
      </trkpt>
      <trkpt lat="44.57469" lon="6.87228">
        <ele>2471</ele>
        <time>2020-02-18T09:29:42.000Z</time>
      </trkpt>
      <trkpt lat="44.57468" lon="6.87227">
        <ele>2471</ele>
        <time>2020-02-18T09:29:46.000Z</time>
      </trkpt>
      <trkpt lat="44.57467" lon="6.87227">
        <ele>2471</ele>
        <time>2020-02-18T09:29:48.000Z</time>
      </trkpt>
      <trkpt lat="44.57467" lon="6.87226">
        <ele>2470</ele>
        <time>2020-02-18T09:29:49.000Z</time>
      </trkpt>
      <trkpt lat="44.57468" lon="6.87226">
        <ele>2470</ele>
        <time>2020-02-18T09:29:53.000Z</time>
      </trkpt>
      <trkpt lat="44.57468" lon="6.87226">
        <ele>2471</ele>
        <time>2020-02-18T09:29:54.000Z</time>
      </trkpt>
      <trkpt lat="44.57467" lon="6.87227">
        <ele>2471</ele>
        <time>2020-02-18T09:29:59.000Z</time>
      </trkpt>
      <trkpt lat="44.57468" lon="6.87227">
        <ele>2471</ele>
        <time>2020-02-18T09:30:00.000Z</time>
      </trkpt>
      <trkpt lat="44.5747" lon="6.87226">
        <ele>2471</ele>
        <time>2020-02-18T09:30:13.000Z</time>
      </trkpt>
      <trkpt lat="44.57471" lon="6.87225">
        <ele>2471</ele>
        <time>2020-02-18T09:30:17.000Z</time>
      </trkpt>
      <trkpt lat="44.57471" lon="6.87225">
        <ele>2471</ele>
        <time>2020-02-18T09:30:18.000Z</time>
      </trkpt>
      <trkpt lat="44.57471" lon="6.87224">
        <ele>2471</ele>
        <time>2020-02-18T09:30:20.000Z</time>
      </trkpt>
      <trkpt lat="44.57471" lon="6.87224">
        <ele>2471</ele>
        <time>2020-02-18T09:30:26.000Z</time>
      </trkpt>
      <trkpt lat="44.57471" lon="6.87224">
        <ele>2471</ele>
        <time>2020-02-18T09:30:27.000Z</time>
      </trkpt>
      <trkpt lat="44.57471" lon="6.87223">
        <ele>2471</ele>
        <time>2020-02-18T09:30:28.000Z</time>
      </trkpt>
      <trkpt lat="44.57471" lon="6.87223">
        <ele>2470</ele>
        <time>2020-02-18T09:30:29.000Z</time>
      </trkpt>
      <trkpt lat="44.57472" lon="6.87222">
        <ele>2470</ele>
        <time>2020-02-18T09:30:30.000Z</time>
      </trkpt>
      <trkpt lat="44.57472" lon="6.87222">
        <ele>2470</ele>
        <time>2020-02-18T09:30:32.000Z</time>
      </trkpt>
      <trkpt lat="44.57472" lon="6.87222">
        <ele>2470</ele>
        <time>2020-02-18T09:30:33.000Z</time>
      </trkpt>
      <trkpt lat="44.57472" lon="6.87223">
        <ele>2470</ele>
        <time>2020-02-18T09:30:35.000Z</time>
      </trkpt>
      <trkpt lat="44.57471" lon="6.87224">
        <ele>2471</ele>
        <time>2020-02-18T09:30:37.000Z</time>
      </trkpt>
      <trkpt lat="44.57471" lon="6.87224">
        <ele>2471</ele>
        <time>2020-02-18T09:30:38.000Z</time>
      </trkpt>
      <trkpt lat="44.57471" lon="6.87225">
        <ele>2471</ele>
        <time>2020-02-18T09:30:42.000Z</time>
      </trkpt>
      <trkpt lat="44.57471" lon="6.87226">
        <ele>2471</ele>
        <time>2020-02-18T09:30:43.000Z</time>
      </trkpt>
      <trkpt lat="44.5747" lon="6.87225">
        <ele>2471</ele>
        <time>2020-02-18T09:30:45.000Z</time>
      </trkpt>
      <trkpt lat="44.5747" lon="6.87225">
        <ele>2471</ele>
        <time>2020-02-18T09:30:47.000Z</time>
      </trkpt>
      <trkpt lat="44.5747" lon="6.87224">
        <ele>2471</ele>
        <time>2020-02-18T09:30:56.000Z</time>
      </trkpt>
      <trkpt lat="44.5747" lon="6.87224">
        <ele>2470</ele>
        <time>2020-02-18T09:30:57.000Z</time>
      </trkpt>
      <trkpt lat="44.5747" lon="6.87224">
        <ele>2470</ele>
        <time>2020-02-18T09:30:58.000Z</time>
      </trkpt>
      <trkpt lat="44.5747" lon="6.87223">
        <ele>2470</ele>
        <time>2020-02-18T09:31:00.000Z</time>
      </trkpt>
      <trkpt lat="44.5747" lon="6.87223">
        <ele>2470</ele>
        <time>2020-02-18T09:31:03.000Z</time>
      </trkpt>
      <trkpt lat="44.5747" lon="6.87223">
        <ele>2470</ele>
        <time>2020-02-18T09:31:21.000Z</time>
      </trkpt>
      <trkpt lat="44.5747" lon="6.87223">
        <ele>2470</ele>
        <time>2020-02-18T09:31:22.000Z</time>
      </trkpt>
      <trkpt lat="44.5747" lon="6.87223">
        <ele>2470</ele>
        <time>2020-02-18T09:31:23.000Z</time>
      </trkpt>
      <trkpt lat="44.5747" lon="6.87224">
        <ele>2470</ele>
        <time>2020-02-18T09:31:31.000Z</time>
      </trkpt>
      <trkpt lat="44.5747" lon="6.87224">
        <ele>2471</ele>
        <time>2020-02-18T09:31:35.000Z</time>
      </trkpt>
      <trkpt lat="44.57469" lon="6.87224">
        <ele>2470</ele>
        <time>2020-02-18T09:31:43.000Z</time>
      </trkpt>
      <trkpt lat="44.57468" lon="6.87224">
        <ele>2470</ele>
        <time>2020-02-18T09:31:47.000Z</time>
      </trkpt>
      <trkpt lat="44.57468" lon="6.87224">
        <ele>2470</ele>
        <time>2020-02-18T09:31:48.000Z</time>
      </trkpt>
      <trkpt lat="44.57468" lon="6.87224">
        <ele>2470</ele>
        <time>2020-02-18T09:31:49.000Z</time>
      </trkpt>
      <trkpt lat="44.57468" lon="6.87224">
        <ele>2470</ele>
        <time>2020-02-18T09:31:52.000Z</time>
      </trkpt>
      <trkpt lat="44.57468" lon="6.87224">
        <ele>2470</ele>
        <time>2020-02-18T09:31:53.000Z</time>
      </trkpt>
      <trkpt lat="44.57468" lon="6.87224">
        <ele>2470</ele>
        <time>2020-02-18T09:31:55.000Z</time>
      </trkpt>
      <trkpt lat="44.57468" lon="6.87224">
        <ele>2470</ele>
        <time>2020-02-18T09:31:57.000Z</time>
      </trkpt>
      <trkpt lat="44.57469" lon="6.87225">
        <ele>2470</ele>
        <time>2020-02-18T09:31:59.000Z</time>
      </trkpt>
      <trkpt lat="44.57469" lon="6.87225">
        <ele>2470</ele>
        <time>2020-02-18T09:32:00.000Z</time>
      </trkpt>
      <trkpt lat="44.57471" lon="6.87226">
        <ele>2471</ele>
        <time>2020-02-18T09:32:07.000Z</time>
      </trkpt>
      <trkpt lat="44.57472" lon="6.87226">
        <ele>2471</ele>
        <time>2020-02-18T09:32:12.000Z</time>
      </trkpt>
      <trkpt lat="44.57472" lon="6.87226">
        <ele>2471</ele>
        <time>2020-02-18T09:32:16.000Z</time>
      </trkpt>
      <trkpt lat="44.57472" lon="6.87226">
        <ele>2471</ele>
        <time>2020-02-18T09:32:20.000Z</time>
      </trkpt>
      <trkpt lat="44.57472" lon="6.87225">
        <ele>2471</ele>
        <time>2020-02-18T09:32:22.000Z</time>
      </trkpt>
      <trkpt lat="44.57472" lon="6.87225">
        <ele>2471</ele>
        <time>2020-02-18T09:32:26.000Z</time>
      </trkpt>
      <trkpt lat="44.57471" lon="6.87225">
        <ele>2471</ele>
        <time>2020-02-18T09:32:28.000Z</time>
      </trkpt>
      <trkpt lat="44.5747" lon="6.87225">
        <ele>2471</ele>
        <time>2020-02-18T09:32:33.000Z</time>
      </trkpt>
      <trkpt lat="44.5747" lon="6.87225">
        <ele>2471</ele>
        <time>2020-02-18T09:32:40.000Z</time>
      </trkpt>
      <trkpt lat="44.57469" lon="6.87225">
        <ele>2471</ele>
        <time>2020-02-18T09:32:43.000Z</time>
      </trkpt>
      <trkpt lat="44.57469" lon="6.87225">
        <ele>2470</ele>
        <time>2020-02-18T09:32:45.000Z</time>
      </trkpt>
      <trkpt lat="44.57469" lon="6.87224">
        <ele>2470</ele>
        <time>2020-02-18T09:32:47.000Z</time>
      </trkpt>
      <trkpt lat="44.57468" lon="6.87224">
        <ele>2470</ele>
        <time>2020-02-18T09:32:49.000Z</time>
      </trkpt>
      <trkpt lat="44.57469" lon="6.87224">
        <ele>2470</ele>
        <time>2020-02-18T09:32:51.000Z</time>
      </trkpt>
      <trkpt lat="44.57469" lon="6.87224">
        <ele>2470</ele>
        <time>2020-02-18T09:32:53.000Z</time>
      </trkpt>
      <trkpt lat="44.57469" lon="6.87224">
        <ele>2470</ele>
        <time>2020-02-18T09:32:56.000Z</time>
      </trkpt>
      <trkpt lat="44.57469" lon="6.87224">
        <ele>2470</ele>
        <time>2020-02-18T09:32:58.000Z</time>
      </trkpt>
      <trkpt lat="44.57468" lon="6.87224">
        <ele>2470</ele>
        <time>2020-02-18T09:33:00.000Z</time>
      </trkpt>
      <trkpt lat="44.57468" lon="6.87224">
        <ele>2470</ele>
        <time>2020-02-18T09:33:01.000Z</time>
      </trkpt>
      <trkpt lat="44.57468" lon="6.87224">
        <ele>2470</ele>
        <time>2020-02-18T09:33:04.000Z</time>
      </trkpt>
      <trkpt lat="44.57468" lon="6.87224">
        <ele>2470</ele>
        <time>2020-02-18T09:33:06.000Z</time>
      </trkpt>
      <trkpt lat="44.57468" lon="6.87224">
        <ele>2470</ele>
        <time>2020-02-18T09:33:07.000Z</time>
      </trkpt>
      <trkpt lat="44.57469" lon="6.87225">
        <ele>2470</ele>
        <time>2020-02-18T09:33:08.000Z</time>
      </trkpt>
      <trkpt lat="44.57468" lon="6.87225">
        <ele>2470</ele>
        <time>2020-02-18T09:33:09.000Z</time>
      </trkpt>
      <trkpt lat="44.57468" lon="6.87227">
        <ele>2471</ele>
        <time>2020-02-18T09:33:11.000Z</time>
      </trkpt>
      <trkpt lat="44.57469" lon="6.8723">
        <ele>2471</ele>
        <time>2020-02-18T09:33:13.000Z</time>
      </trkpt>
      <trkpt lat="44.57468" lon="6.87235">
        <ele>2471</ele>
        <time>2020-02-18T09:33:16.000Z</time>
      </trkpt>
      <trkpt lat="44.57468" lon="6.87236">
        <ele>2471</ele>
        <time>2020-02-18T09:33:17.000Z</time>
      </trkpt>
      <trkpt lat="44.57468" lon="6.87239">
        <ele>2472</ele>
        <time>2020-02-18T09:33:19.000Z</time>
      </trkpt>
      <trkpt lat="44.57467" lon="6.87241">
        <ele>2472</ele>
        <time>2020-02-18T09:33:21.000Z</time>
      </trkpt>
      <trkpt lat="44.57467" lon="6.87242">
        <ele>2472</ele>
        <time>2020-02-18T09:33:22.000Z</time>
      </trkpt>
      <trkpt lat="44.57465" lon="6.87245">
        <ele>2472</ele>
        <time>2020-02-18T09:33:25.000Z</time>
      </trkpt>
      <trkpt lat="44.57464" lon="6.87249">
        <ele>2472</ele>
        <time>2020-02-18T09:33:30.000Z</time>
      </trkpt>
      <trkpt lat="44.57463" lon="6.87253">
        <ele>2485</ele>
        <time>2020-02-18T09:33:34.000Z</time>
      </trkpt>
      <trkpt lat="44.57463" lon="6.87255">
        <ele>2485</ele>
        <time>2020-02-18T09:33:36.000Z</time>
      </trkpt>
      <trkpt lat="44.57462" lon="6.87257">
        <ele>2485</ele>
        <time>2020-02-18T09:33:40.000Z</time>
      </trkpt>
      <trkpt lat="44.57462" lon="6.87259">
        <ele>2485</ele>
        <time>2020-02-18T09:33:43.000Z</time>
      </trkpt>
      <trkpt lat="44.57461" lon="6.87259">
        <ele>2485</ele>
        <time>2020-02-18T09:33:44.000Z</time>
      </trkpt>
      <trkpt lat="44.5746" lon="6.87262">
        <ele>2486</ele>
        <time>2020-02-18T09:33:48.000Z</time>
      </trkpt>
      <trkpt lat="44.57459" lon="6.87264">
        <ele>2486</ele>
        <time>2020-02-18T09:33:52.000Z</time>
      </trkpt>
      <trkpt lat="44.57458" lon="6.87266">
        <ele>2486</ele>
        <time>2020-02-18T09:33:55.000Z</time>
      </trkpt>
      <trkpt lat="44.57457" lon="6.87271">
        <ele>2486</ele>
        <time>2020-02-18T09:34:01.000Z</time>
      </trkpt>
      <trkpt lat="44.57456" lon="6.87273">
        <ele>2487</ele>
        <time>2020-02-18T09:34:03.000Z</time>
      </trkpt>
      <trkpt lat="44.57456" lon="6.87273">
        <ele>2487</ele>
        <time>2020-02-18T09:34:04.000Z</time>
      </trkpt>
      <trkpt lat="44.57454" lon="6.87277">
        <ele>2487</ele>
        <time>2020-02-18T09:34:11.000Z</time>
      </trkpt>
      <trkpt lat="44.57451" lon="6.8728">
        <ele>2487</ele>
        <time>2020-02-18T09:34:24.000Z</time>
      </trkpt>
      <trkpt lat="44.5745" lon="6.87284">
        <ele>2488</ele>
        <time>2020-02-18T09:34:31.000Z</time>
      </trkpt>
      <trkpt lat="44.57449" lon="6.87287">
        <ele>2488</ele>
        <time>2020-02-18T09:34:37.000Z</time>
      </trkpt>
      <trkpt lat="44.57447" lon="6.8729">
        <ele>2488</ele>
        <time>2020-02-18T09:34:44.000Z</time>
      </trkpt>
      <trkpt lat="44.57445" lon="6.87293">
        <ele>2489</ele>
        <time>2020-02-18T09:34:52.000Z</time>
      </trkpt>
      <trkpt lat="44.57444" lon="6.87295">
        <ele>2489</ele>
        <time>2020-02-18T09:34:55.000Z</time>
      </trkpt>
      <trkpt lat="44.57443" lon="6.87298">
        <ele>2489</ele>
        <time>2020-02-18T09:34:58.000Z</time>
      </trkpt>
      <trkpt lat="44.57441" lon="6.87302">
        <ele>2490</ele>
        <time>2020-02-18T09:35:03.000Z</time>
      </trkpt>
      <trkpt lat="44.57441" lon="6.87303">
        <ele>2490</ele>
        <time>2020-02-18T09:35:04.000Z</time>
      </trkpt>
      <trkpt lat="44.57437" lon="6.87307">
        <ele>2491</ele>
        <time>2020-02-18T09:35:13.000Z</time>
      </trkpt>
      <trkpt lat="44.57435" lon="6.87312">
        <ele>2491</ele>
        <time>2020-02-18T09:35:23.000Z</time>
      </trkpt>
      <trkpt lat="44.57433" lon="6.87317">
        <ele>2492</ele>
        <time>2020-02-18T09:35:32.000Z</time>
      </trkpt>
      <trkpt lat="44.57431" lon="6.87322">
        <ele>2492</ele>
        <time>2020-02-18T09:35:40.000Z</time>
      </trkpt>
      <trkpt lat="44.5743" lon="6.87327">
        <ele>2493</ele>
        <time>2020-02-18T09:35:48.000Z</time>
      </trkpt>
      <trkpt lat="44.57427" lon="6.87331">
        <ele>2493</ele>
        <time>2020-02-18T09:35:55.000Z</time>
      </trkpt>
      <trkpt lat="44.57427" lon="6.87335">
        <ele>2501</ele>
        <time>2020-02-18T09:36:01.000Z</time>
      </trkpt>
      <trkpt lat="44.57425" lon="6.8734">
        <ele>2501</ele>
        <time>2020-02-18T09:36:11.000Z</time>
      </trkpt>
      <trkpt lat="44.57423" lon="6.87345">
        <ele>2502</ele>
        <time>2020-02-18T09:36:22.000Z</time>
      </trkpt>
      <trkpt lat="44.5742" lon="6.87353">
        <ele>2504</ele>
        <time>2020-02-18T09:36:33.000Z</time>
      </trkpt>
      <trkpt lat="44.57418" lon="6.87359">
        <ele>2506</ele>
        <time>2020-02-18T09:36:43.000Z</time>
      </trkpt>
      <trkpt lat="44.57417" lon="6.87363">
        <ele>2507</ele>
        <time>2020-02-18T09:36:50.000Z</time>
      </trkpt>
      <trkpt lat="44.57416" lon="6.87366">
        <ele>2499</ele>
        <time>2020-02-18T09:36:57.000Z</time>
      </trkpt>
      <trkpt lat="44.57414" lon="6.87369">
        <ele>2499</ele>
        <time>2020-02-18T09:37:02.000Z</time>
      </trkpt>
      <trkpt lat="44.57413" lon="6.8737">
        <ele>2499</ele>
        <time>2020-02-18T09:37:03.000Z</time>
      </trkpt>
      <trkpt lat="44.57412" lon="6.87373">
        <ele>2500</ele>
        <time>2020-02-18T09:37:07.000Z</time>
      </trkpt>
      <trkpt lat="44.57411" lon="6.87374">
        <ele>2500</ele>
        <time>2020-02-18T09:37:09.000Z</time>
      </trkpt>
      <trkpt lat="44.57409" lon="6.87376">
        <ele>2500</ele>
        <time>2020-02-18T09:37:14.000Z</time>
      </trkpt>
      <trkpt lat="44.57407" lon="6.87378">
        <ele>2501</ele>
        <time>2020-02-18T09:37:30.000Z</time>
      </trkpt>
      <trkpt lat="44.57407" lon="6.87378">
        <ele>2501</ele>
        <time>2020-02-18T09:37:31.000Z</time>
      </trkpt>
      <trkpt lat="44.57407" lon="6.87381">
        <ele>2501</ele>
        <time>2020-02-18T09:37:40.000Z</time>
      </trkpt>
      <trkpt lat="44.57408" lon="6.87381">
        <ele>2501</ele>
        <time>2020-02-18T09:37:44.000Z</time>
      </trkpt>
      <trkpt lat="44.57412" lon="6.87381">
        <ele>2501</ele>
        <time>2020-02-18T09:37:50.000Z</time>
      </trkpt>
      <trkpt lat="44.57416" lon="6.87381">
        <ele>2502</ele>
        <time>2020-02-18T09:37:59.000Z</time>
      </trkpt>
      <trkpt lat="44.57416" lon="6.87381">
        <ele>2501</ele>
        <time>2020-02-18T09:38:05.000Z</time>
      </trkpt>
      <trkpt lat="44.57416" lon="6.8738">
        <ele>2501</ele>
        <time>2020-02-18T09:38:16.000Z</time>
      </trkpt>
      <trkpt lat="44.57415" lon="6.8738">
        <ele>2501</ele>
        <time>2020-02-18T09:38:18.000Z</time>
      </trkpt>
      <trkpt lat="44.57415" lon="6.87381">
        <ele>2501</ele>
        <time>2020-02-18T09:38:19.000Z</time>
      </trkpt>
      <trkpt lat="44.57415" lon="6.87381">
        <ele>2501</ele>
        <time>2020-02-18T09:38:21.000Z</time>
      </trkpt>
      <trkpt lat="44.57421" lon="6.87381">
        <ele>2511</ele>
        <time>2020-02-18T09:38:30.000Z</time>
      </trkpt>
      <trkpt lat="44.57425" lon="6.87381">
        <ele>2511</ele>
        <time>2020-02-18T09:38:37.000Z</time>
      </trkpt>
      <trkpt lat="44.57428" lon="6.87381">
        <ele>2511</ele>
        <time>2020-02-18T09:38:41.000Z</time>
      </trkpt>
      <trkpt lat="44.57431" lon="6.8738">
        <ele>2511</ele>
        <time>2020-02-18T09:38:43.000Z</time>
      </trkpt>
      <trkpt lat="44.57434" lon="6.87378">
        <ele>2511</ele>
        <time>2020-02-18T09:38:47.000Z</time>
      </trkpt>
      <trkpt lat="44.57438" lon="6.87376">
        <ele>2511</ele>
        <time>2020-02-18T09:38:55.000Z</time>
      </trkpt>
      <trkpt lat="44.57442" lon="6.87374">
        <ele>2512</ele>
        <time>2020-02-18T09:39:03.000Z</time>
      </trkpt>
      <trkpt lat="44.57444" lon="6.87371">
        <ele>2511</ele>
        <time>2020-02-18T09:39:09.000Z</time>
      </trkpt>
      <trkpt lat="44.57447" lon="6.87371">
        <ele>2512</ele>
        <time>2020-02-18T09:39:13.000Z</time>
      </trkpt>
      <trkpt lat="44.57452" lon="6.87371">
        <ele>2512</ele>
        <time>2020-02-18T09:39:21.000Z</time>
      </trkpt>
      <trkpt lat="44.57453" lon="6.87372">
        <ele>2512</ele>
        <time>2020-02-18T09:39:28.000Z</time>
      </trkpt>
      <trkpt lat="44.57449" lon="6.87377">
        <ele>2513</ele>
        <time>2020-02-18T09:39:49.000Z</time>
      </trkpt>
      <trkpt lat="44.57449" lon="6.87377">
        <ele>2513</ele>
        <time>2020-02-18T09:39:54.000Z</time>
      </trkpt>
      <trkpt lat="44.57448" lon="6.87383">
        <ele>2513</ele>
        <time>2020-02-18T09:40:03.000Z</time>
      </trkpt>
      <trkpt lat="44.57448" lon="6.87384">
        <ele>2513</ele>
        <time>2020-02-18T09:40:04.000Z</time>
      </trkpt>
      <trkpt lat="44.57447" lon="6.87388">
        <ele>2514</ele>
        <time>2020-02-18T09:40:08.000Z</time>
      </trkpt>
      <trkpt lat="44.57446" lon="6.87389">
        <ele>2514</ele>
        <time>2020-02-18T09:40:09.000Z</time>
      </trkpt>
      <trkpt lat="44.57446" lon="6.8739">
        <ele>2514</ele>
        <time>2020-02-18T09:40:10.000Z</time>
      </trkpt>
      <trkpt lat="44.57445" lon="6.87394">
        <ele>2514</ele>
        <time>2020-02-18T09:40:14.000Z</time>
      </trkpt>
      <trkpt lat="44.57444" lon="6.87402">
        <ele>2515</ele>
        <time>2020-02-18T09:40:22.000Z</time>
      </trkpt>
      <trkpt lat="44.57443" lon="6.8741">
        <ele>2515</ele>
        <time>2020-02-18T09:40:30.000Z</time>
      </trkpt>
      <trkpt lat="44.57441" lon="6.87415">
        <ele>2515</ele>
        <time>2020-02-18T09:40:36.000Z</time>
      </trkpt>
      <trkpt lat="44.57441" lon="6.87416">
        <ele>2515</ele>
        <time>2020-02-18T09:40:37.000Z</time>
      </trkpt>
      <trkpt lat="44.57441" lon="6.8742">
        <ele>2527</ele>
        <time>2020-02-18T09:40:41.000Z</time>
      </trkpt>
      <trkpt lat="44.57441" lon="6.87423">
        <ele>2527</ele>
        <time>2020-02-18T09:40:44.000Z</time>
      </trkpt>
      <trkpt lat="44.5744" lon="6.87424">
        <ele>2527</ele>
        <time>2020-02-18T09:40:45.000Z</time>
      </trkpt>
      <trkpt lat="44.57436" lon="6.87434">
        <ele>2528</ele>
        <time>2020-02-18T09:40:54.000Z</time>
      </trkpt>
      <trkpt lat="44.57436" lon="6.87435">
        <ele>2528</ele>
        <time>2020-02-18T09:40:55.000Z</time>
      </trkpt>
      <trkpt lat="44.57436" lon="6.87435">
        <ele>2528</ele>
        <time>2020-02-18T09:41:00.000Z</time>
      </trkpt>
      <trkpt lat="44.57435" lon="6.87436">
        <ele>2528</ele>
        <time>2020-02-18T09:41:07.000Z</time>
      </trkpt>
      <trkpt lat="44.57433" lon="6.8744">
        <ele>2528</ele>
        <time>2020-02-18T09:41:13.000Z</time>
      </trkpt>
      <trkpt lat="44.57433" lon="6.87442">
        <ele>2529</ele>
        <time>2020-02-18T09:41:15.000Z</time>
      </trkpt>
      <trkpt lat="44.57433" lon="6.87441">
        <ele>2529</ele>
        <time>2020-02-18T09:41:30.000Z</time>
      </trkpt>
      <trkpt lat="44.5744" lon="6.87443">
        <ele>2530</ele>
        <time>2020-02-18T09:41:38.000Z</time>
      </trkpt>
      <trkpt lat="44.57444" lon="6.87445">
        <ele>2531</ele>
        <time>2020-02-18T09:41:44.000Z</time>
      </trkpt>
      <trkpt lat="44.57447" lon="6.87445">
        <ele>2531</ele>
        <time>2020-02-18T09:41:50.000Z</time>
      </trkpt>
      <trkpt lat="44.57454" lon="6.87445">
        <ele>2532</ele>
        <time>2020-02-18T09:42:02.000Z</time>
      </trkpt>
      <trkpt lat="44.5746" lon="6.87444">
        <ele>2533</ele>
        <time>2020-02-18T09:42:09.000Z</time>
      </trkpt>
      <trkpt lat="44.57467" lon="6.87443">
        <ele>2533</ele>
        <time>2020-02-18T09:42:17.000Z</time>
      </trkpt>
      <trkpt lat="44.57469" lon="6.8744">
        <ele>2533</ele>
        <time>2020-02-18T09:42:23.000Z</time>
      </trkpt>
      <trkpt lat="44.57472" lon="6.87438">
        <ele>2533</ele>
        <time>2020-02-18T09:42:29.000Z</time>
      </trkpt>
      <trkpt lat="44.57475" lon="6.87438">
        <ele>2534</ele>
        <time>2020-02-18T09:42:38.000Z</time>
      </trkpt>
      <trkpt lat="44.57474" lon="6.87436">
        <ele>2533</ele>
        <time>2020-02-18T09:42:50.000Z</time>
      </trkpt>
      <trkpt lat="44.57475" lon="6.87435">
        <ele>2533</ele>
        <time>2020-02-18T09:42:59.000Z</time>
      </trkpt>
      <trkpt lat="44.57476" lon="6.87435">
        <ele>2533</ele>
        <time>2020-02-18T09:43:01.000Z</time>
      </trkpt>
      <trkpt lat="44.57476" lon="6.87435">
        <ele>2533</ele>
        <time>2020-02-18T09:43:09.000Z</time>
      </trkpt>
      <trkpt lat="44.57476" lon="6.87435">
        <ele>2533</ele>
        <time>2020-02-18T09:43:11.000Z</time>
      </trkpt>
      <trkpt lat="44.57478" lon="6.87437">
        <ele>2534</ele>
        <time>2020-02-18T09:43:19.000Z</time>
      </trkpt>
      <trkpt lat="44.57479" lon="6.87438">
        <ele>2534</ele>
        <time>2020-02-18T09:43:23.000Z</time>
      </trkpt>
      <trkpt lat="44.5748" lon="6.87437">
        <ele>2534</ele>
        <time>2020-02-18T09:43:27.000Z</time>
      </trkpt>
      <trkpt lat="44.57476" lon="6.8744">
        <ele>2534</ele>
        <time>2020-02-18T09:43:49.000Z</time>
      </trkpt>
      <trkpt lat="44.57474" lon="6.87445">
        <ele>2534</ele>
        <time>2020-02-18T09:43:54.000Z</time>
      </trkpt>
      <trkpt lat="44.57472" lon="6.87454">
        <ele>2535</ele>
        <time>2020-02-18T09:44:04.000Z</time>
      </trkpt>
      <trkpt lat="44.57472" lon="6.8746">
        <ele>2536</ele>
        <time>2020-02-18T09:44:11.000Z</time>
      </trkpt>
      <trkpt lat="44.57472" lon="6.87462">
        <ele>2536</ele>
        <time>2020-02-18T09:44:13.000Z</time>
      </trkpt>
      <trkpt lat="44.57473" lon="6.87464">
        <ele>2537</ele>
        <time>2020-02-18T09:44:20.000Z</time>
      </trkpt>
      <trkpt lat="44.57474" lon="6.87461">
        <ele>2536</ele>
        <time>2020-02-18T09:44:33.000Z</time>
      </trkpt>
      <trkpt lat="44.57475" lon="6.8746">
        <ele>2536</ele>
        <time>2020-02-18T09:44:35.000Z</time>
      </trkpt>
      <trkpt lat="44.57475" lon="6.8746">
        <ele>2536</ele>
        <time>2020-02-18T09:44:36.000Z</time>
      </trkpt>
      <trkpt lat="44.57477" lon="6.87457">
        <ele>2536</ele>
        <time>2020-02-18T09:44:41.000Z</time>
      </trkpt>
      <trkpt lat="44.57479" lon="6.87454">
        <ele>2536</ele>
        <time>2020-02-18T09:44:44.000Z</time>
      </trkpt>
      <trkpt lat="44.5748" lon="6.87454">
        <ele>2536</ele>
        <time>2020-02-18T09:44:45.000Z</time>
      </trkpt>
      <trkpt lat="44.57485" lon="6.87455">
        <ele>2536</ele>
        <time>2020-02-18T09:44:52.000Z</time>
      </trkpt>
      <trkpt lat="44.57485" lon="6.87454">
        <ele>2536</ele>
        <time>2020-02-18T09:44:53.000Z</time>
      </trkpt>
      <trkpt lat="44.57485" lon="6.87453">
        <ele>2536</ele>
        <time>2020-02-18T09:44:56.000Z</time>
      </trkpt>
      <trkpt lat="44.57485" lon="6.87453">
        <ele>2536</ele>
        <time>2020-02-18T09:44:59.000Z</time>
      </trkpt>
      <trkpt lat="44.5748" lon="6.87455">
        <ele>2536</ele>
        <time>2020-02-18T09:45:15.000Z</time>
      </trkpt>
      <trkpt lat="44.5748" lon="6.87455">
        <ele>2536</ele>
        <time>2020-02-18T09:45:20.000Z</time>
      </trkpt>
      <trkpt lat="44.57479" lon="6.87458">
        <ele>2536</ele>
        <time>2020-02-18T09:45:24.000Z</time>
      </trkpt>
      <trkpt lat="44.57479" lon="6.87459">
        <ele>2536</ele>
        <time>2020-02-18T09:45:25.000Z</time>
      </trkpt>
      <trkpt lat="44.57479" lon="6.87463">
        <ele>2537</ele>
        <time>2020-02-18T09:45:29.000Z</time>
      </trkpt>
      <trkpt lat="44.57479" lon="6.87467">
        <ele>2538</ele>
        <time>2020-02-18T09:45:33.000Z</time>
      </trkpt>
      <trkpt lat="44.57478" lon="6.87469">
        <ele>2538</ele>
        <time>2020-02-18T09:45:35.000Z</time>
      </trkpt>
      <trkpt lat="44.57479" lon="6.87472">
        <ele>2538</ele>
        <time>2020-02-18T09:45:38.000Z</time>
      </trkpt>
      <trkpt lat="44.5748" lon="6.87472">
        <ele>2539</ele>
        <time>2020-02-18T09:45:39.000Z</time>
      </trkpt>
      <trkpt lat="44.5748" lon="6.87473">
        <ele>2539</ele>
        <time>2020-02-18T09:45:42.000Z</time>
      </trkpt>
      <trkpt lat="44.5748" lon="6.87472">
        <ele>2538</ele>
        <time>2020-02-18T09:45:55.000Z</time>
      </trkpt>
      <trkpt lat="44.57483" lon="6.87477">
        <ele>2540</ele>
        <time>2020-02-18T09:46:15.000Z</time>
      </trkpt>
      <trkpt lat="44.57485" lon="6.87468">
        <ele>2538</ele>
        <time>2020-02-18T09:46:21.000Z</time>
      </trkpt>
      <trkpt lat="44.57489" lon="6.87465">
        <ele>2538</ele>
        <time>2020-02-18T09:46:25.000Z</time>
      </trkpt>
      <trkpt lat="44.57491" lon="6.87465">
        <ele>2538</ele>
        <time>2020-02-18T09:46:27.000Z</time>
      </trkpt>
      <trkpt lat="44.57493" lon="6.87461">
        <ele>2537</ele>
        <time>2020-02-18T09:46:31.000Z</time>
      </trkpt>
      <trkpt lat="44.57492" lon="6.87458">
        <ele>2537</ele>
        <time>2020-02-18T09:46:35.000Z</time>
      </trkpt>
      <trkpt lat="44.57492" lon="6.87457">
        <ele>2537</ele>
        <time>2020-02-18T09:46:36.000Z</time>
      </trkpt>
      <trkpt lat="44.57492" lon="6.87456">
        <ele>2537</ele>
        <time>2020-02-18T09:46:37.000Z</time>
      </trkpt>
      <trkpt lat="44.57493" lon="6.87455">
        <ele>2537</ele>
        <time>2020-02-18T09:46:39.000Z</time>
      </trkpt>
      <trkpt lat="44.57495" lon="6.87454">
        <ele>2536</ele>
        <time>2020-02-18T09:46:41.000Z</time>
      </trkpt>
      <trkpt lat="44.57496" lon="6.87452">
        <ele>2536</ele>
        <time>2020-02-18T09:46:45.000Z</time>
      </trkpt>
      <trkpt lat="44.57497" lon="6.87451">
        <ele>2536</ele>
        <time>2020-02-18T09:46:47.000Z</time>
      </trkpt>
      <trkpt lat="44.57499" lon="6.87451">
        <ele>2536</ele>
        <time>2020-02-18T09:46:48.000Z</time>
      </trkpt>
      <trkpt lat="44.57503" lon="6.8745">
        <ele>2543</ele>
        <time>2020-02-18T09:46:52.000Z</time>
      </trkpt>
      <trkpt lat="44.57504" lon="6.87449">
        <ele>2543</ele>
        <time>2020-02-18T09:46:53.000Z</time>
      </trkpt>
      <trkpt lat="44.57508" lon="6.87447">
        <ele>2543</ele>
        <time>2020-02-18T09:46:59.000Z</time>
      </trkpt>
      <trkpt lat="44.57507" lon="6.87448">
        <ele>2543</ele>
        <time>2020-02-18T09:47:05.000Z</time>
      </trkpt>
      <trkpt lat="44.57507" lon="6.87447">
        <ele>2542</ele>
        <time>2020-02-18T09:47:19.000Z</time>
      </trkpt>
      <trkpt lat="44.57509" lon="6.8745">
        <ele>2543</ele>
        <time>2020-02-18T09:47:28.000Z</time>
      </trkpt>
      <trkpt lat="44.57508" lon="6.87452">
        <ele>2543</ele>
        <time>2020-02-18T09:47:32.000Z</time>
      </trkpt>
      <trkpt lat="44.57508" lon="6.87452">
        <ele>2543</ele>
        <time>2020-02-18T09:47:34.000Z</time>
      </trkpt>
      <trkpt lat="44.57508" lon="6.87452">
        <ele>2543</ele>
        <time>2020-02-18T09:47:37.000Z</time>
      </trkpt>
      <trkpt lat="44.57508" lon="6.87453">
        <ele>2543</ele>
        <time>2020-02-18T09:47:38.000Z</time>
      </trkpt>
      <trkpt lat="44.57508" lon="6.87454">
        <ele>2544</ele>
        <time>2020-02-18T09:47:40.000Z</time>
      </trkpt>
      <trkpt lat="44.57508" lon="6.87454">
        <ele>2544</ele>
        <time>2020-02-18T09:47:41.000Z</time>
      </trkpt>
      <trkpt lat="44.57506" lon="6.87453">
        <ele>2543</ele>
        <time>2020-02-18T09:47:53.000Z</time>
      </trkpt>
      <trkpt lat="44.57507" lon="6.87453">
        <ele>2544</ele>
        <time>2020-02-18T09:47:55.000Z</time>
      </trkpt>
      <trkpt lat="44.57507" lon="6.87453">
        <ele>2543</ele>
        <time>2020-02-18T09:47:56.000Z</time>
      </trkpt>
      <trkpt lat="44.57507" lon="6.87452">
        <ele>2543</ele>
        <time>2020-02-18T09:47:57.000Z</time>
      </trkpt>
      <trkpt lat="44.57507" lon="6.87451">
        <ele>2543</ele>
        <time>2020-02-18T09:48:10.000Z</time>
      </trkpt>
      <trkpt lat="44.57507" lon="6.8745">
        <ele>2543</ele>
        <time>2020-02-18T09:48:12.000Z</time>
      </trkpt>
      <trkpt lat="44.57507" lon="6.87449">
        <ele>2543</ele>
        <time>2020-02-18T09:48:14.000Z</time>
      </trkpt>
      <trkpt lat="44.57507" lon="6.87449">
        <ele>2543</ele>
        <time>2020-02-18T09:48:15.000Z</time>
      </trkpt>
      <trkpt lat="44.57507" lon="6.87449">
        <ele>2543</ele>
        <time>2020-02-18T09:48:16.000Z</time>
      </trkpt>
      <trkpt lat="44.57507" lon="6.87449">
        <ele>2543</ele>
        <time>2020-02-18T09:48:18.000Z</time>
      </trkpt>
      <trkpt lat="44.57507" lon="6.87449">
        <ele>2543</ele>
        <time>2020-02-18T09:48:19.000Z</time>
      </trkpt>
      <trkpt lat="44.57507" lon="6.8745">
        <ele>2543</ele>
        <time>2020-02-18T09:48:22.000Z</time>
      </trkpt>
      <trkpt lat="44.57506" lon="6.87449">
        <ele>2543</ele>
        <time>2020-02-18T09:48:24.000Z</time>
      </trkpt>
      <trkpt lat="44.57506" lon="6.87448">
        <ele>2543</ele>
        <time>2020-02-18T09:48:27.000Z</time>
      </trkpt>
      <trkpt lat="44.57506" lon="6.87449">
        <ele>2543</ele>
        <time>2020-02-18T09:48:30.000Z</time>
      </trkpt>
      <trkpt lat="44.57505" lon="6.87448">
        <ele>2543</ele>
        <time>2020-02-18T09:48:31.000Z</time>
      </trkpt>
      <trkpt lat="44.57505" lon="6.87451">
        <ele>2543</ele>
        <time>2020-02-18T09:48:34.000Z</time>
      </trkpt>
      <trkpt lat="44.57506" lon="6.87455">
        <ele>2544</ele>
        <time>2020-02-18T09:48:36.000Z</time>
      </trkpt>
      <trkpt lat="44.57506" lon="6.87455">
        <ele>2544</ele>
        <time>2020-02-18T09:48:39.000Z</time>
      </trkpt>
      <trkpt lat="44.57505" lon="6.87455">
        <ele>2544</ele>
        <time>2020-02-18T09:48:41.000Z</time>
      </trkpt>
      <trkpt lat="44.57506" lon="6.87455">
        <ele>2544</ele>
        <time>2020-02-18T09:48:42.000Z</time>
      </trkpt>
      <trkpt lat="44.57506" lon="6.87454">
        <ele>2544</ele>
        <time>2020-02-18T09:48:45.000Z</time>
      </trkpt>
      <trkpt lat="44.57506" lon="6.87454">
        <ele>2544</ele>
        <time>2020-02-18T09:48:48.000Z</time>
      </trkpt>
      <trkpt lat="44.57507" lon="6.8745">
        <ele>2543</ele>
        <time>2020-02-18T09:48:56.000Z</time>
      </trkpt>
      <trkpt lat="44.57507" lon="6.8745">
        <ele>2543</ele>
        <time>2020-02-18T09:49:02.000Z</time>
      </trkpt>
      <trkpt lat="44.57506" lon="6.8745">
        <ele>2543</ele>
        <time>2020-02-18T09:49:06.000Z</time>
      </trkpt>
      <trkpt lat="44.57509" lon="6.87452">
        <ele>2543</ele>
        <time>2020-02-18T09:49:13.000Z</time>
      </trkpt>
      <trkpt lat="44.57509" lon="6.87452">
        <ele>2543</ele>
        <time>2020-02-18T09:49:14.000Z</time>
      </trkpt>
      <trkpt lat="44.57508" lon="6.87451">
        <ele>2543</ele>
        <time>2020-02-18T09:49:18.000Z</time>
      </trkpt>
      <trkpt lat="44.57508" lon="6.8745">
        <ele>2543</ele>
        <time>2020-02-18T09:49:21.000Z</time>
      </trkpt>
      <trkpt lat="44.57508" lon="6.8745">
        <ele>2543</ele>
        <time>2020-02-18T09:49:22.000Z</time>
      </trkpt>
      <trkpt lat="44.57507" lon="6.8745">
        <ele>2543</ele>
        <time>2020-02-18T09:49:27.000Z</time>
      </trkpt>
      <trkpt lat="44.57507" lon="6.8745">
        <ele>2543</ele>
        <time>2020-02-18T09:49:29.000Z</time>
      </trkpt>
      <trkpt lat="44.57507" lon="6.8745">
        <ele>2543</ele>
        <time>2020-02-18T09:49:32.000Z</time>
      </trkpt>
      <trkpt lat="44.57507" lon="6.8745">
        <ele>2543</ele>
        <time>2020-02-18T09:49:34.000Z</time>
      </trkpt>
      <trkpt lat="44.57508" lon="6.87449">
        <ele>2543</ele>
        <time>2020-02-18T09:49:35.000Z</time>
      </trkpt>
      <trkpt lat="44.57509" lon="6.87448">
        <ele>2543</ele>
        <time>2020-02-18T09:49:37.000Z</time>
      </trkpt>
      <trkpt lat="44.57509" lon="6.87447">
        <ele>2543</ele>
        <time>2020-02-18T09:49:39.000Z</time>
      </trkpt>
      <trkpt lat="44.5751" lon="6.87447">
        <ele>2543</ele>
        <time>2020-02-18T09:49:42.000Z</time>
      </trkpt>
      <trkpt lat="44.5751" lon="6.87446">
        <ele>2542</ele>
        <time>2020-02-18T09:49:45.000Z</time>
      </trkpt>
      <trkpt lat="44.5751" lon="6.87445">
        <ele>2542</ele>
        <time>2020-02-18T09:49:47.000Z</time>
      </trkpt>
      <trkpt lat="44.57509" lon="6.87445">
        <ele>2542</ele>
        <time>2020-02-18T09:49:48.000Z</time>
      </trkpt>
      <trkpt lat="44.57509" lon="6.87445">
        <ele>2542</ele>
        <time>2020-02-18T09:49:49.000Z</time>
      </trkpt>
      <trkpt lat="44.57508" lon="6.87448">
        <ele>2543</ele>
        <time>2020-02-18T09:49:58.000Z</time>
      </trkpt>
      <trkpt lat="44.57508" lon="6.87448">
        <ele>2543</ele>
        <time>2020-02-18T09:49:59.000Z</time>
      </trkpt>
      <trkpt lat="44.57508" lon="6.87448">
        <ele>2543</ele>
        <time>2020-02-18T09:50:09.000Z</time>
      </trkpt>
      <trkpt lat="44.57508" lon="6.87447">
        <ele>2543</ele>
        <time>2020-02-18T09:50:17.000Z</time>
      </trkpt>
      <trkpt lat="44.57508" lon="6.87447">
        <ele>2542</ele>
        <time>2020-02-18T09:50:19.000Z</time>
      </trkpt>
      <trkpt lat="44.57507" lon="6.87447">
        <ele>2542</ele>
        <time>2020-02-18T09:50:22.000Z</time>
      </trkpt>
      <trkpt lat="44.57507" lon="6.87446">
        <ele>2542</ele>
        <time>2020-02-18T09:50:26.000Z</time>
      </trkpt>
      <trkpt lat="44.57507" lon="6.87448">
        <ele>2542</ele>
        <time>2020-02-18T09:50:31.000Z</time>
      </trkpt>
      <trkpt lat="44.57508" lon="6.87448">
        <ele>2543</ele>
        <time>2020-02-18T09:50:34.000Z</time>
      </trkpt>
      <trkpt lat="44.57509" lon="6.87448">
        <ele>2543</ele>
        <time>2020-02-18T09:50:40.000Z</time>
      </trkpt>
      <trkpt lat="44.57509" lon="6.87447">
        <ele>2543</ele>
        <time>2020-02-18T09:50:42.000Z</time>
      </trkpt>
      <trkpt lat="44.57509" lon="6.87447">
        <ele>2543</ele>
        <time>2020-02-18T09:50:43.000Z</time>
      </trkpt>
      <trkpt lat="44.57509" lon="6.87448">
        <ele>2543</ele>
        <time>2020-02-18T09:50:46.000Z</time>
      </trkpt>
      <trkpt lat="44.57509" lon="6.87447">
        <ele>2543</ele>
        <time>2020-02-18T09:50:47.000Z</time>
      </trkpt>
      <trkpt lat="44.57505" lon="6.87448">
        <ele>2543</ele>
        <time>2020-02-18T09:50:52.000Z</time>
      </trkpt>
      <trkpt lat="44.57505" lon="6.8745">
        <ele>2543</ele>
        <time>2020-02-18T09:50:54.000Z</time>
      </trkpt>
      <trkpt lat="44.57505" lon="6.87452">
        <ele>2543</ele>
        <time>2020-02-18T09:50:59.000Z</time>
      </trkpt>
      <trkpt lat="44.57508" lon="6.87451">
        <ele>2543</ele>
        <time>2020-02-18T09:51:05.000Z</time>
      </trkpt>
      <trkpt lat="44.57509" lon="6.87451">
        <ele>2543</ele>
        <time>2020-02-18T09:51:07.000Z</time>
      </trkpt>
      <trkpt lat="44.57513" lon="6.87452">
        <ele>2544</ele>
        <time>2020-02-18T09:51:13.000Z</time>
      </trkpt>
      <trkpt lat="44.57513" lon="6.87451">
        <ele>2544</ele>
        <time>2020-02-18T09:51:15.000Z</time>
      </trkpt>
      <trkpt lat="44.57513" lon="6.87453">
        <ele>2544</ele>
        <time>2020-02-18T09:51:17.000Z</time>
      </trkpt>
      <trkpt lat="44.57513" lon="6.87453">
        <ele>2544</ele>
        <time>2020-02-18T09:51:19.000Z</time>
      </trkpt>
      <trkpt lat="44.57513" lon="6.87452">
        <ele>2544</ele>
        <time>2020-02-18T09:51:23.000Z</time>
      </trkpt>
      <trkpt lat="44.57514" lon="6.87453">
        <ele>2544</ele>
        <time>2020-02-18T09:51:25.000Z</time>
      </trkpt>
      <trkpt lat="44.57514" lon="6.87453">
        <ele>2544</ele>
        <time>2020-02-18T09:51:26.000Z</time>
      </trkpt>
      <trkpt lat="44.57515" lon="6.87453">
        <ele>2544</ele>
        <time>2020-02-18T09:51:27.000Z</time>
      </trkpt>
      <trkpt lat="44.57517" lon="6.87454">
        <ele>2544</ele>
        <time>2020-02-18T09:51:30.000Z</time>
      </trkpt>
      <trkpt lat="44.57516" lon="6.87454">
        <ele>2544</ele>
        <time>2020-02-18T09:51:32.000Z</time>
      </trkpt>
      <trkpt lat="44.57516" lon="6.87454">
        <ele>2544</ele>
        <time>2020-02-18T09:51:34.000Z</time>
      </trkpt>
      <trkpt lat="44.57522" lon="6.87455">
        <ele>2545</ele>
        <time>2020-02-18T09:51:44.000Z</time>
      </trkpt>
      <trkpt lat="44.57524" lon="6.87456">
        <ele>2545</ele>
        <time>2020-02-18T09:51:47.000Z</time>
      </trkpt>
      <trkpt lat="44.57527" lon="6.87458">
        <ele>2545</ele>
        <time>2020-02-18T09:51:51.000Z</time>
      </trkpt>
      <trkpt lat="44.57527" lon="6.87458">
        <ele>2545</ele>
        <time>2020-02-18T09:51:52.000Z</time>
      </trkpt>
      <trkpt lat="44.57528" lon="6.87459">
        <ele>2545</ele>
        <time>2020-02-18T09:51:53.000Z</time>
      </trkpt>
      <trkpt lat="44.57531" lon="6.87461">
        <ele>2546</ele>
        <time>2020-02-18T09:51:57.000Z</time>
      </trkpt>
      <trkpt lat="44.57535" lon="6.87464">
        <ele>2546</ele>
        <time>2020-02-18T09:52:03.000Z</time>
      </trkpt>
      <trkpt lat="44.57535" lon="6.87464">
        <ele>2546</ele>
        <time>2020-02-18T09:52:04.000Z</time>
      </trkpt>
      <trkpt lat="44.57536" lon="6.87464">
        <ele>2546</ele>
        <time>2020-02-18T09:52:05.000Z</time>
      </trkpt>
      <trkpt lat="44.57535" lon="6.87463">
        <ele>2546</ele>
        <time>2020-02-18T09:52:20.000Z</time>
      </trkpt>
      <trkpt lat="44.5754" lon="6.87465">
        <ele>2546</ele>
        <time>2020-02-18T09:52:25.000Z</time>
      </trkpt>
      <trkpt lat="44.57541" lon="6.87465">
        <ele>2546</ele>
        <time>2020-02-18T09:52:26.000Z</time>
      </trkpt>
      <trkpt lat="44.57542" lon="6.87466">
        <ele>2546</ele>
        <time>2020-02-18T09:52:27.000Z</time>
      </trkpt>
      <trkpt lat="44.57543" lon="6.87466">
        <ele>2546</ele>
        <time>2020-02-18T09:52:28.000Z</time>
      </trkpt>
      <trkpt lat="44.57544" lon="6.87467">
        <ele>2546</ele>
        <time>2020-02-18T09:52:29.000Z</time>
      </trkpt>
      <trkpt lat="44.57549" lon="6.87469">
        <ele>2547</ele>
        <time>2020-02-18T09:52:37.000Z</time>
      </trkpt>
      <trkpt lat="44.57549" lon="6.8747">
        <ele>2547</ele>
        <time>2020-02-18T09:52:38.000Z</time>
      </trkpt>
      <trkpt lat="44.57549" lon="6.8747">
        <ele>2547</ele>
        <time>2020-02-18T09:52:40.000Z</time>
      </trkpt>
      <trkpt lat="44.57551" lon="6.87471">
        <ele>2547</ele>
        <time>2020-02-18T09:52:55.000Z</time>
      </trkpt>
      <trkpt lat="44.57556" lon="6.87473">
        <ele>2547</ele>
        <time>2020-02-18T09:53:02.000Z</time>
      </trkpt>
      <trkpt lat="44.57561" lon="6.87475">
        <ele>2547</ele>
        <time>2020-02-18T09:53:09.000Z</time>
      </trkpt>
      <trkpt lat="44.57565" lon="6.87476">
        <ele>2547</ele>
        <time>2020-02-18T09:53:19.000Z</time>
      </trkpt>
      <trkpt lat="44.5757" lon="6.87477">
        <ele>2547</ele>
        <time>2020-02-18T09:53:25.000Z</time>
      </trkpt>
      <trkpt lat="44.57571" lon="6.87477">
        <ele>2547</ele>
        <time>2020-02-18T09:53:26.000Z</time>
      </trkpt>
      <trkpt lat="44.57574" lon="6.87478">
        <ele>2547</ele>
        <time>2020-02-18T09:53:32.000Z</time>
      </trkpt>
      <trkpt lat="44.57576" lon="6.87478">
        <ele>2548</ele>
        <time>2020-02-18T09:53:36.000Z</time>
      </trkpt>
      <trkpt lat="44.57578" lon="6.87479">
        <ele>2548</ele>
        <time>2020-02-18T09:53:40.000Z</time>
      </trkpt>
      <trkpt lat="44.57583" lon="6.87481">
        <ele>2548</ele>
        <time>2020-02-18T09:53:46.000Z</time>
      </trkpt>
      <trkpt lat="44.57583" lon="6.87481">
        <ele>2548</ele>
        <time>2020-02-18T09:53:54.000Z</time>
      </trkpt>
      <trkpt lat="44.57587" lon="6.87484">
        <ele>2554</ele>
        <time>2020-02-18T09:54:09.000Z</time>
      </trkpt>
      <trkpt lat="44.57591" lon="6.87486">
        <ele>2554</ele>
        <time>2020-02-18T09:54:15.000Z</time>
      </trkpt>
      <trkpt lat="44.57593" lon="6.87488">
        <ele>2554</ele>
        <time>2020-02-18T09:54:18.000Z</time>
      </trkpt>
      <trkpt lat="44.57596" lon="6.87491">
        <ele>2554</ele>
        <time>2020-02-18T09:54:23.000Z</time>
      </trkpt>
      <trkpt lat="44.57597" lon="6.87491">
        <ele>2554</ele>
        <time>2020-02-18T09:54:24.000Z</time>
      </trkpt>
      <trkpt lat="44.57601" lon="6.87494">
        <ele>2554</ele>
        <time>2020-02-18T09:54:30.000Z</time>
      </trkpt>
      <trkpt lat="44.57604" lon="6.87497">
        <ele>2554</ele>
        <time>2020-02-18T09:54:36.000Z</time>
      </trkpt>
      <trkpt lat="44.57606" lon="6.87499">
        <ele>2554</ele>
        <time>2020-02-18T09:54:41.000Z</time>
      </trkpt>
      <trkpt lat="44.57608" lon="6.875">
        <ele>2554</ele>
        <time>2020-02-18T09:55:04.000Z</time>
      </trkpt>
      <trkpt lat="44.5761" lon="6.875">
        <ele>2643.1999511719</ele>
        <time>2020-02-18T09:55:09.000Z</time>
      </trkpt>
      <trkpt lat="44.57612" lon="6.87502">
        <ele>2644.3999023438</ele>
        <time>2020-02-18T09:55:20.000Z</time>
      </trkpt>
      <trkpt lat="44.57607" lon="6.87509">
        <ele>2645.3999023438</ele>
        <time>2020-02-18T09:55:49.000Z</time>
      </trkpt>
      <trkpt lat="44.57605" lon="6.87511">
        <ele>2646</ele>
        <time>2020-02-18T09:55:55.000Z</time>
      </trkpt>
      <trkpt lat="44.57604" lon="6.87512">
        <ele>2646</ele>
        <time>2020-02-18T09:55:56.000Z</time>
      </trkpt>
      <trkpt lat="44.57604" lon="6.87517">
        <ele>2646.6000976562</ele>
        <time>2020-02-18T09:56:03.000Z</time>
      </trkpt>
      <trkpt lat="44.57603" lon="6.8752">
        <ele>2647</ele>
        <time>2020-02-18T09:56:06.000Z</time>
      </trkpt>
      <trkpt lat="44.57603" lon="6.87522">
        <ele>2647.6000976562</ele>
        <time>2020-02-18T09:56:09.000Z</time>
      </trkpt>
      <trkpt lat="44.57603" lon="6.87523">
        <ele>2647.8000488281</ele>
        <time>2020-02-18T09:56:11.000Z</time>
      </trkpt>
      <trkpt lat="44.57603" lon="6.87521">
        <ele>2648.1999511719</ele>
        <time>2020-02-18T09:56:19.000Z</time>
      </trkpt>
      <trkpt lat="44.57606" lon="6.8752">
        <ele>2648.6000976562</ele>
        <time>2020-02-18T09:56:28.000Z</time>
      </trkpt>
      <trkpt lat="44.57609" lon="6.8752">
        <ele>2649.3999023438</ele>
        <time>2020-02-18T09:56:33.000Z</time>
      </trkpt>
      <trkpt lat="44.5761" lon="6.87519">
        <ele>2649.6000976562</ele>
        <time>2020-02-18T09:56:34.000Z</time>
      </trkpt>
      <trkpt lat="44.5761" lon="6.87519">
        <ele>2649.8000488281</ele>
        <time>2020-02-18T09:56:35.000Z</time>
      </trkpt>
      <trkpt lat="44.57611" lon="6.87519">
        <ele>2649.8000488281</ele>
        <time>2020-02-18T09:56:36.000Z</time>
      </trkpt>
      <trkpt lat="44.57612" lon="6.87519">
        <ele>2650</ele>
        <time>2020-02-18T09:56:38.000Z</time>
      </trkpt>
      <trkpt lat="44.57618" lon="6.87516">
        <ele>2650.8000488281</ele>
        <time>2020-02-18T09:56:46.000Z</time>
      </trkpt>
      <trkpt lat="44.5762" lon="6.87514">
        <ele>2651.6000976562</ele>
        <time>2020-02-18T09:56:52.000Z</time>
      </trkpt>
      <trkpt lat="44.5762" lon="6.87513">
        <ele>2651.8000488281</ele>
        <time>2020-02-18T09:56:57.000Z</time>
      </trkpt>
      <trkpt lat="44.57621" lon="6.87513">
        <ele>2651.8000488281</ele>
        <time>2020-02-18T09:56:59.000Z</time>
      </trkpt>
      <trkpt lat="44.57621" lon="6.87513">
        <ele>2652</ele>
        <time>2020-02-18T09:57:02.000Z</time>
      </trkpt>
      <trkpt lat="44.57623" lon="6.87512">
        <ele>2652.1999511719</ele>
        <time>2020-02-18T09:57:09.000Z</time>
      </trkpt>
      <trkpt lat="44.57627" lon="6.87511">
        <ele>2653</ele>
        <time>2020-02-18T09:57:16.000Z</time>
      </trkpt>
      <trkpt lat="44.5763" lon="6.8751">
        <ele>2654.1999511719</ele>
        <time>2020-02-18T09:57:24.000Z</time>
      </trkpt>
      <trkpt lat="44.57634" lon="6.87513">
        <ele>2655.1999511719</ele>
        <time>2020-02-18T09:57:37.000Z</time>
      </trkpt>
      <trkpt lat="44.57638" lon="6.87511">
        <ele>2656.3999023438</ele>
        <time>2020-02-18T09:57:45.000Z</time>
      </trkpt>
      <trkpt lat="44.57642" lon="6.87511">
        <ele>2657.3999023438</ele>
        <time>2020-02-18T09:57:57.000Z</time>
      </trkpt>
      <trkpt lat="44.57649" lon="6.8751">
        <ele>2658.6000976562</ele>
        <time>2020-02-18T09:58:07.000Z</time>
      </trkpt>
      <trkpt lat="44.57655" lon="6.87509">
        <ele>2659.6000976562</ele>
        <time>2020-02-18T09:58:18.000Z</time>
      </trkpt>
      <trkpt lat="44.57661" lon="6.87508">
        <ele>2660.6000976562</ele>
        <time>2020-02-18T09:58:29.000Z</time>
      </trkpt>
      <trkpt lat="44.57667" lon="6.87506">
        <ele>2661.8000488281</ele>
        <time>2020-02-18T09:58:41.000Z</time>
      </trkpt>
      <trkpt lat="44.57669" lon="6.87504">
        <ele>2662.3999023438</ele>
        <time>2020-02-18T09:58:48.000Z</time>
      </trkpt>
      <trkpt lat="44.5767" lon="6.87504">
        <ele>2662.6000976562</ele>
        <time>2020-02-18T09:58:49.000Z</time>
      </trkpt>
      <trkpt lat="44.57671" lon="6.87503">
        <ele>2663</ele>
        <time>2020-02-18T09:58:52.000Z</time>
      </trkpt>
      <trkpt lat="44.57675" lon="6.87504">
        <ele>2663.6000976562</ele>
        <time>2020-02-18T09:59:01.000Z</time>
      </trkpt>
      <trkpt lat="44.57677" lon="6.87504">
        <ele>2664</ele>
        <time>2020-02-18T09:59:04.000Z</time>
      </trkpt>
      <trkpt lat="44.57682" lon="6.87505">
        <ele>2664.6000976562</ele>
        <time>2020-02-18T09:59:12.000Z</time>
      </trkpt>
      <trkpt lat="44.57683" lon="6.87505">
        <ele>2665.1999511719</ele>
        <time>2020-02-18T09:59:15.000Z</time>
      </trkpt>
      <trkpt lat="44.57687" lon="6.87503">
        <ele>2666.3999023438</ele>
        <time>2020-02-18T09:59:25.000Z</time>
      </trkpt>
      <trkpt lat="44.57693" lon="6.87497">
        <ele>2667.3999023438</ele>
        <time>2020-02-18T09:59:36.000Z</time>
      </trkpt>
      <trkpt lat="44.57697" lon="6.87496">
        <ele>2668.3999023438</ele>
        <time>2020-02-18T09:59:44.000Z</time>
      </trkpt>
      <trkpt lat="44.57702" lon="6.87494">
        <ele>2669.6000976562</ele>
        <time>2020-02-18T09:59:55.000Z</time>
      </trkpt>
      <trkpt lat="44.57704" lon="6.87494">
        <ele>2669.8000488281</ele>
        <time>2020-02-18T09:59:58.000Z</time>
      </trkpt>
      <trkpt lat="44.57704" lon="6.87494">
        <ele>2670</ele>
        <time>2020-02-18T09:59:59.000Z</time>
      </trkpt>
      <trkpt lat="44.57706" lon="6.87493">
        <ele>2670.6000976562</ele>
        <time>2020-02-18T10:00:03.000Z</time>
      </trkpt>
      <trkpt lat="44.57708" lon="6.87494">
        <ele>2671</ele>
        <time>2020-02-18T10:00:08.000Z</time>
      </trkpt>
      <trkpt lat="44.57709" lon="6.87493">
        <ele>2671.1999511719</ele>
        <time>2020-02-18T10:00:11.000Z</time>
      </trkpt>
      <trkpt lat="44.5771" lon="6.87493">
        <ele>2671.6000976562</ele>
        <time>2020-02-18T10:00:13.000Z</time>
      </trkpt>
      <trkpt lat="44.57714" lon="6.87493">
        <ele>2672.8000488281</ele>
        <time>2020-02-18T10:00:23.000Z</time>
      </trkpt>
      <trkpt lat="44.57717" lon="6.87493">
        <ele>2673.8000488281</ele>
        <time>2020-02-18T10:00:30.000Z</time>
      </trkpt>
      <trkpt lat="44.57717" lon="6.87493">
        <ele>2673.8000488281</ele>
        <time>2020-02-18T10:00:31.000Z</time>
      </trkpt>
      <trkpt lat="44.57723" lon="6.87492">
        <ele>2674.8000488281</ele>
        <time>2020-02-18T10:00:39.000Z</time>
      </trkpt>
      <trkpt lat="44.57724" lon="6.87492">
        <ele>2675.3999023438</ele>
        <time>2020-02-18T10:00:42.000Z</time>
      </trkpt>
      <trkpt lat="44.57727" lon="6.87491">
        <ele>2676</ele>
        <time>2020-02-18T10:00:47.000Z</time>
      </trkpt>
      <trkpt lat="44.5773" lon="6.87493">
        <ele>2677</ele>
        <time>2020-02-18T10:00:55.000Z</time>
      </trkpt>
      <trkpt lat="44.57734" lon="6.87494">
        <ele>2678</ele>
        <time>2020-02-18T10:01:03.000Z</time>
      </trkpt>
      <trkpt lat="44.57738" lon="6.87496">
        <ele>2679.1999511719</ele>
        <time>2020-02-18T10:01:11.000Z</time>
      </trkpt>
      <trkpt lat="44.5774" lon="6.87501">
        <ele>2680.1999511719</ele>
        <time>2020-02-18T10:01:19.000Z</time>
      </trkpt>
      <trkpt lat="44.57742" lon="6.87504">
        <ele>2680.8000488281</ele>
        <time>2020-02-18T10:01:49.000Z</time>
      </trkpt>
      <trkpt lat="44.5774" lon="6.87503">
        <ele>2680.8000488281</ele>
        <time>2020-02-18T10:01:54.000Z</time>
      </trkpt>
      <trkpt lat="44.57739" lon="6.87502">
        <ele>2680.8000488281</ele>
        <time>2020-02-18T10:01:57.000Z</time>
      </trkpt>
      <trkpt lat="44.57735" lon="6.87501">
        <ele>2680.8000488281</ele>
        <time>2020-02-18T10:02:02.000Z</time>
      </trkpt>
      <trkpt lat="44.57731" lon="6.87498">
        <ele>2680.8000488281</ele>
        <time>2020-02-18T10:02:11.000Z</time>
      </trkpt>
      <trkpt lat="44.57731" lon="6.87498">
        <ele>2680.8000488281</ele>
        <time>2020-02-18T10:02:13.000Z</time>
      </trkpt>
      <trkpt lat="44.57735" lon="6.87499">
        <ele>2680.8000488281</ele>
        <time>2020-02-18T10:02:15.000Z</time>
      </trkpt>
      <trkpt lat="44.57738" lon="6.87502">
        <ele>2681</ele>
        <time>2020-02-18T10:02:18.000Z</time>
      </trkpt>
      <trkpt lat="44.5774" lon="6.87503">
        <ele>2681.3999023438</ele>
        <time>2020-02-18T10:02:20.000Z</time>
      </trkpt>
      <trkpt lat="44.57742" lon="6.87507">
        <ele>2682</ele>
        <time>2020-02-18T10:02:24.000Z</time>
      </trkpt>
      <trkpt lat="44.57742" lon="6.87508">
        <ele>2682</ele>
        <time>2020-02-18T10:02:25.000Z</time>
      </trkpt>
      <trkpt lat="44.57743" lon="6.87509">
        <ele>2682.1999511719</ele>
        <time>2020-02-18T10:02:26.000Z</time>
      </trkpt>
      <trkpt lat="44.57743" lon="6.87509">
        <ele>2682.3999023438</ele>
        <time>2020-02-18T10:02:27.000Z</time>
      </trkpt>
      <trkpt lat="44.57744" lon="6.8751">
        <ele>2682.3999023438</ele>
        <time>2020-02-18T10:02:28.000Z</time>
      </trkpt>
      <trkpt lat="44.57748" lon="6.87513">
        <ele>2682.8000488281</ele>
        <time>2020-02-18T10:02:32.000Z</time>
      </trkpt>
      <trkpt lat="44.57749" lon="6.87515">
        <ele>2683.1999511719</ele>
        <time>2020-02-18T10:02:35.000Z</time>
      </trkpt>
      <trkpt lat="44.57749" lon="6.87517">
        <ele>2683.6000976562</ele>
        <time>2020-02-18T10:02:37.000Z</time>
      </trkpt>
      <trkpt lat="44.57749" lon="6.87518">
        <ele>2684</ele>
        <time>2020-02-18T10:02:39.000Z</time>
      </trkpt>
      <trkpt lat="44.5775" lon="6.8752">
        <ele>2684.1999511719</ele>
        <time>2020-02-18T10:02:41.000Z</time>
      </trkpt>
      <trkpt lat="44.57756" lon="6.87523">
        <ele>2684.3999023438</ele>
        <time>2020-02-18T10:02:47.000Z</time>
      </trkpt>
      <trkpt lat="44.57757" lon="6.87522">
        <ele>2684.6000976562</ele>
        <time>2020-02-18T10:02:54.000Z</time>
      </trkpt>
      <trkpt lat="44.57755" lon="6.87521">
        <ele>2684.3999023438</ele>
        <time>2020-02-18T10:03:06.000Z</time>
      </trkpt>
      <trkpt lat="44.57756" lon="6.87521">
        <ele>2684.3999023438</ele>
        <time>2020-02-18T10:03:08.000Z</time>
      </trkpt>
      <trkpt lat="44.57756" lon="6.87522">
        <ele>2684.3999023438</ele>
        <time>2020-02-18T10:03:18.000Z</time>
      </trkpt>
      <trkpt lat="44.57757" lon="6.87523">
        <ele>2684.3999023438</ele>
        <time>2020-02-18T10:03:23.000Z</time>
      </trkpt>
      <trkpt lat="44.57757" lon="6.87523">
        <ele>2684.3999023438</ele>
        <time>2020-02-18T10:03:27.000Z</time>
      </trkpt>
      <trkpt lat="44.57757" lon="6.87523">
        <ele>2684.3999023438</ele>
        <time>2020-02-18T10:03:28.000Z</time>
      </trkpt>
      <trkpt lat="44.57759" lon="6.87521">
        <ele>2684.3999023438</ele>
        <time>2020-02-18T10:03:39.000Z</time>
      </trkpt>
      <trkpt lat="44.5776" lon="6.87522">
        <ele>2684.3999023438</ele>
        <time>2020-02-18T10:03:41.000Z</time>
      </trkpt>
      <trkpt lat="44.57758" lon="6.87522">
        <ele>2684.3999023438</ele>
        <time>2020-02-18T10:03:48.000Z</time>
      </trkpt>
      <trkpt lat="44.57758" lon="6.87522">
        <ele>2684.3999023438</ele>
        <time>2020-02-18T10:03:49.000Z</time>
      </trkpt>
      <trkpt lat="44.57756" lon="6.8752">
        <ele>2684.1999511719</ele>
        <time>2020-02-18T10:03:55.000Z</time>
      </trkpt>
      <trkpt lat="44.57759" lon="6.8752">
        <ele>2684.1999511719</ele>
        <time>2020-02-18T10:04:10.000Z</time>
      </trkpt>
      <trkpt lat="44.57758" lon="6.8752">
        <ele>2684.1999511719</ele>
        <time>2020-02-18T10:04:13.000Z</time>
      </trkpt>
      <trkpt lat="44.57758" lon="6.8752">
        <ele>2684.1999511719</ele>
        <time>2020-02-18T10:04:14.000Z</time>
      </trkpt>
      <trkpt lat="44.57756" lon="6.8752">
        <ele>2684.1999511719</ele>
        <time>2020-02-18T10:04:18.000Z</time>
      </trkpt>
      <trkpt lat="44.57757" lon="6.87519">
        <ele>2684.1999511719</ele>
        <time>2020-02-18T10:04:20.000Z</time>
      </trkpt>
      <trkpt lat="44.57759" lon="6.8752">
        <ele>2684.1999511719</ele>
        <time>2020-02-18T10:04:23.000Z</time>
      </trkpt>
      <trkpt lat="44.57759" lon="6.87519">
        <ele>2684.1999511719</ele>
        <time>2020-02-18T10:04:24.000Z</time>
      </trkpt>
      <trkpt lat="44.57761" lon="6.87522">
        <ele>2684.1999511719</ele>
        <time>2020-02-18T10:04:34.000Z</time>
      </trkpt>
      <trkpt lat="44.57758" lon="6.8752">
        <ele>2684.1999511719</ele>
        <time>2020-02-18T10:04:46.000Z</time>
      </trkpt>
      <trkpt lat="44.57757" lon="6.87521">
        <ele>2684.1999511719</ele>
        <time>2020-02-18T10:04:48.000Z</time>
      </trkpt>
      <trkpt lat="44.57756" lon="6.87521">
        <ele>2684.1999511719</ele>
        <time>2020-02-18T10:04:50.000Z</time>
      </trkpt>
      <trkpt lat="44.57754" lon="6.87521">
        <ele>2684.1999511719</ele>
        <time>2020-02-18T10:04:54.000Z</time>
      </trkpt>
      <trkpt lat="44.57754" lon="6.87521">
        <ele>2684.1999511719</ele>
        <time>2020-02-18T10:05:01.000Z</time>
      </trkpt>
      <trkpt lat="44.57754" lon="6.87521">
        <ele>2684.1999511719</ele>
        <time>2020-02-18T10:05:02.000Z</time>
      </trkpt>
      <trkpt lat="44.57755" lon="6.87521">
        <ele>2684.1999511719</ele>
        <time>2020-02-18T10:05:04.000Z</time>
      </trkpt>
      <trkpt lat="44.57755" lon="6.87521">
        <ele>2684.1999511719</ele>
        <time>2020-02-18T10:05:05.000Z</time>
      </trkpt>
      <trkpt lat="44.57756" lon="6.8752">
        <ele>2684.1999511719</ele>
        <time>2020-02-18T10:05:06.000Z</time>
      </trkpt>
      <trkpt lat="44.57756" lon="6.8752">
        <ele>2684.1999511719</ele>
        <time>2020-02-18T10:05:07.000Z</time>
      </trkpt>
      <trkpt lat="44.57756" lon="6.8752">
        <ele>2684.1999511719</ele>
        <time>2020-02-18T10:05:08.000Z</time>
      </trkpt>
      <trkpt lat="44.57758" lon="6.8752">
        <ele>2684.1999511719</ele>
        <time>2020-02-18T10:05:14.000Z</time>
      </trkpt>
      <trkpt lat="44.57759" lon="6.8752">
        <ele>2684.1999511719</ele>
        <time>2020-02-18T10:05:15.000Z</time>
      </trkpt>
      <trkpt lat="44.57758" lon="6.87521">
        <ele>2684.1999511719</ele>
        <time>2020-02-18T10:05:16.000Z</time>
      </trkpt>
      <trkpt lat="44.57757" lon="6.87521">
        <ele>2684.1999511719</ele>
        <time>2020-02-18T10:05:19.000Z</time>
      </trkpt>
      <trkpt lat="44.57756" lon="6.87521">
        <ele>2684.1999511719</ele>
        <time>2020-02-18T10:05:21.000Z</time>
      </trkpt>
      <trkpt lat="44.57759" lon="6.87521">
        <ele>2684.1999511719</ele>
        <time>2020-02-18T10:05:31.000Z</time>
      </trkpt>
      <trkpt lat="44.57756" lon="6.87523">
        <ele>2684.1999511719</ele>
        <time>2020-02-18T10:05:36.000Z</time>
      </trkpt>
      <trkpt lat="44.57756" lon="6.87522">
        <ele>2684.1999511719</ele>
        <time>2020-02-18T10:05:38.000Z</time>
      </trkpt>
      <trkpt lat="44.57757" lon="6.87522">
        <ele>2684.1999511719</ele>
        <time>2020-02-18T10:05:42.000Z</time>
      </trkpt>
      <trkpt lat="44.57757" lon="6.87522">
        <ele>2684.1999511719</ele>
        <time>2020-02-18T10:05:47.000Z</time>
      </trkpt>
      <trkpt lat="44.57757" lon="6.87522">
        <ele>2684.1999511719</ele>
        <time>2020-02-18T10:05:50.000Z</time>
      </trkpt>
      <trkpt lat="44.57757" lon="6.87522">
        <ele>2684.1999511719</ele>
        <time>2020-02-18T10:05:53.000Z</time>
      </trkpt>
      <trkpt lat="44.57758" lon="6.87522">
        <ele>2684.1999511719</ele>
        <time>2020-02-18T10:05:55.000Z</time>
      </trkpt>
      <trkpt lat="44.57758" lon="6.87522">
        <ele>2684.1999511719</ele>
        <time>2020-02-18T10:05:57.000Z</time>
      </trkpt>
      <trkpt lat="44.57758" lon="6.87522">
        <ele>2684.1999511719</ele>
        <time>2020-02-18T10:05:58.000Z</time>
      </trkpt>
      <trkpt lat="44.57759" lon="6.87522">
        <ele>2684.1999511719</ele>
        <time>2020-02-18T10:06:00.000Z</time>
      </trkpt>
      <trkpt lat="44.5776" lon="6.87521">
        <ele>2684.1999511719</ele>
        <time>2020-02-18T10:06:03.000Z</time>
      </trkpt>
      <trkpt lat="44.5776" lon="6.87522">
        <ele>2684.1999511719</ele>
        <time>2020-02-18T10:06:07.000Z</time>
      </trkpt>
      <trkpt lat="44.57759" lon="6.87522">
        <ele>2684.1999511719</ele>
        <time>2020-02-18T10:06:10.000Z</time>
      </trkpt>
      <trkpt lat="44.57759" lon="6.87522">
        <ele>2684.1999511719</ele>
        <time>2020-02-18T10:06:12.000Z</time>
      </trkpt>
      <trkpt lat="44.57758" lon="6.87521">
        <ele>2684.1999511719</ele>
        <time>2020-02-18T10:06:14.000Z</time>
      </trkpt>
      <trkpt lat="44.57757" lon="6.8752">
        <ele>2684.1999511719</ele>
        <time>2020-02-18T10:06:16.000Z</time>
      </trkpt>
      <trkpt lat="44.57757" lon="6.87521">
        <ele>2684.1999511719</ele>
        <time>2020-02-18T10:06:18.000Z</time>
      </trkpt>
      <trkpt lat="44.57756" lon="6.8752">
        <ele>2684.1999511719</ele>
        <time>2020-02-18T10:06:20.000Z</time>
      </trkpt>
      <trkpt lat="44.57756" lon="6.8752">
        <ele>2684.1999511719</ele>
        <time>2020-02-18T10:06:21.000Z</time>
      </trkpt>
      <trkpt lat="44.57756" lon="6.87521">
        <ele>2684.1999511719</ele>
        <time>2020-02-18T10:06:22.000Z</time>
      </trkpt>
      <trkpt lat="44.57757" lon="6.87521">
        <ele>2684.1999511719</ele>
        <time>2020-02-18T10:06:24.000Z</time>
      </trkpt>
      <trkpt lat="44.57758" lon="6.87521">
        <ele>2684.1999511719</ele>
        <time>2020-02-18T10:06:25.000Z</time>
      </trkpt>
      <trkpt lat="44.57758" lon="6.87522">
        <ele>2684.1999511719</ele>
        <time>2020-02-18T10:06:26.000Z</time>
      </trkpt>
      <trkpt lat="44.5776" lon="6.87523">
        <ele>2684.1999511719</ele>
        <time>2020-02-18T10:06:28.000Z</time>
      </trkpt>
      <trkpt lat="44.57762" lon="6.87525">
        <ele>2684.1999511719</ele>
        <time>2020-02-18T10:06:32.000Z</time>
      </trkpt>
      <trkpt lat="44.57763" lon="6.87526">
        <ele>2684.8000488281</ele>
        <time>2020-02-18T10:06:35.000Z</time>
      </trkpt>
      <trkpt lat="44.57767" lon="6.87532">
        <ele>2686</ele>
        <time>2020-02-18T10:06:42.000Z</time>
      </trkpt>
      <trkpt lat="44.5777" lon="6.87536">
        <ele>2686.1999511719</ele>
        <time>2020-02-18T10:06:46.000Z</time>
      </trkpt>
      <trkpt lat="44.57773" lon="6.87538">
        <ele>2686.6000976562</ele>
        <time>2020-02-18T10:06:50.000Z</time>
      </trkpt>
      <trkpt lat="44.57776" lon="6.8754">
        <ele>2686.8000488281</ele>
        <time>2020-02-18T10:06:53.000Z</time>
      </trkpt>
      <trkpt lat="44.57777" lon="6.87542">
        <ele>2687</ele>
        <time>2020-02-18T10:06:55.000Z</time>
      </trkpt>
      <trkpt lat="44.57779" lon="6.87545">
        <ele>2687.3999023438</ele>
        <time>2020-02-18T10:07:00.000Z</time>
      </trkpt>
      <trkpt lat="44.5778" lon="6.87545">
        <ele>2687.6000976562</ele>
        <time>2020-02-18T10:07:03.000Z</time>
      </trkpt>
      <trkpt lat="44.57782" lon="6.87547">
        <ele>2687.8000488281</ele>
        <time>2020-02-18T10:07:05.000Z</time>
      </trkpt>
      <trkpt lat="44.57783" lon="6.87549">
        <ele>2688</ele>
        <time>2020-02-18T10:07:08.000Z</time>
      </trkpt>
      <trkpt lat="44.57784" lon="6.87551">
        <ele>2688.3999023438</ele>
        <time>2020-02-18T10:07:11.000Z</time>
      </trkpt>
      <trkpt lat="44.57785" lon="6.87553">
        <ele>2689</ele>
        <time>2020-02-18T10:07:15.000Z</time>
      </trkpt>
      <trkpt lat="44.57787" lon="6.87555">
        <ele>2689.8000488281</ele>
        <time>2020-02-18T10:07:19.000Z</time>
      </trkpt>
      <trkpt lat="44.57788" lon="6.87555">
        <ele>2690</ele>
        <time>2020-02-18T10:07:21.000Z</time>
      </trkpt>
      <trkpt lat="44.57789" lon="6.87556">
        <ele>2690.1999511719</ele>
        <time>2020-02-18T10:07:23.000Z</time>
      </trkpt>
      <trkpt lat="44.5779" lon="6.87557">
        <ele>2690.1999511719</ele>
        <time>2020-02-18T10:07:24.000Z</time>
      </trkpt>
      <trkpt lat="44.57792" lon="6.87559">
        <ele>2690.6000976562</ele>
        <time>2020-02-18T10:07:27.000Z</time>
      </trkpt>
      <trkpt lat="44.57792" lon="6.87559">
        <ele>2690.8000488281</ele>
        <time>2020-02-18T10:07:28.000Z</time>
      </trkpt>
      <trkpt lat="44.57794" lon="6.87561">
        <ele>2691.1999511719</ele>
        <time>2020-02-18T10:07:30.000Z</time>
      </trkpt>
      <trkpt lat="44.57797" lon="6.87567">
        <ele>2692</ele>
        <time>2020-02-18T10:07:38.000Z</time>
      </trkpt>
      <trkpt lat="44.57801" lon="6.8757">
        <ele>2692.3999023438</ele>
        <time>2020-02-18T10:07:44.000Z</time>
      </trkpt>
      <trkpt lat="44.57804" lon="6.87574">
        <ele>2693.1999511719</ele>
        <time>2020-02-18T10:07:50.000Z</time>
      </trkpt>
      <trkpt lat="44.57805" lon="6.87574">
        <ele>2693.1999511719</ele>
        <time>2020-02-18T10:07:51.000Z</time>
      </trkpt>
      <trkpt lat="44.57805" lon="6.87577">
        <ele>2693.3999023438</ele>
        <time>2020-02-18T10:07:54.000Z</time>
      </trkpt>
      <trkpt lat="44.57808" lon="6.8758">
        <ele>2694</ele>
        <time>2020-02-18T10:08:01.000Z</time>
      </trkpt>
      <trkpt lat="44.5781" lon="6.87582">
        <ele>2694.6000976562</ele>
        <time>2020-02-18T10:08:04.000Z</time>
      </trkpt>
      <trkpt lat="44.5781" lon="6.87583">
        <ele>2694.8000488281</ele>
        <time>2020-02-18T10:08:05.000Z</time>
      </trkpt>
      <trkpt lat="44.57811" lon="6.87585">
        <ele>2695</ele>
        <time>2020-02-18T10:08:07.000Z</time>
      </trkpt>
      <trkpt lat="44.57813" lon="6.87588">
        <ele>2695.6000976562</ele>
        <time>2020-02-18T10:08:11.000Z</time>
      </trkpt>
      <trkpt lat="44.57814" lon="6.87589">
        <ele>2695.8000488281</ele>
        <time>2020-02-18T10:08:12.000Z</time>
      </trkpt>
      <trkpt lat="44.57814" lon="6.87589">
        <ele>2696</ele>
        <time>2020-02-18T10:08:13.000Z</time>
      </trkpt>
      <trkpt lat="44.57815" lon="6.87591">
        <ele>2696.3999023438</ele>
        <time>2020-02-18T10:08:16.000Z</time>
      </trkpt>
      <trkpt lat="44.57815" lon="6.87592">
        <ele>2696.6000976562</ele>
        <time>2020-02-18T10:08:17.000Z</time>
      </trkpt>
      <trkpt lat="44.57817" lon="6.87593">
        <ele>2696.8000488281</ele>
        <time>2020-02-18T10:08:19.000Z</time>
      </trkpt>
      <trkpt lat="44.57817" lon="6.87594">
        <ele>2697</ele>
        <time>2020-02-18T10:08:20.000Z</time>
      </trkpt>
      <trkpt lat="44.57818" lon="6.87595">
        <ele>2697.1999511719</ele>
        <time>2020-02-18T10:08:23.000Z</time>
      </trkpt>
      <trkpt lat="44.57819" lon="6.87596">
        <ele>2697.1999511719</ele>
        <time>2020-02-18T10:08:25.000Z</time>
      </trkpt>
      <trkpt lat="44.57821" lon="6.876">
        <ele>2697.8000488281</ele>
        <time>2020-02-18T10:08:30.000Z</time>
      </trkpt>
      <trkpt lat="44.57827" lon="6.87606">
        <ele>2698.8000488281</ele>
        <time>2020-02-18T10:08:39.000Z</time>
      </trkpt>
      <trkpt lat="44.57829" lon="6.87607">
        <ele>2699.3999023438</ele>
        <time>2020-02-18T10:08:43.000Z</time>
      </trkpt>
      <trkpt lat="44.57829" lon="6.87607">
        <ele>2699.3999023438</ele>
        <time>2020-02-18T10:08:44.000Z</time>
      </trkpt>
      <trkpt lat="44.57833" lon="6.87611">
        <ele>2699.8000488281</ele>
        <time>2020-02-18T10:08:51.000Z</time>
      </trkpt>
      <trkpt lat="44.57834" lon="6.87613">
        <ele>2699.8000488281</ele>
        <time>2020-02-18T10:08:53.000Z</time>
      </trkpt>
      <trkpt lat="44.57835" lon="6.87617">
        <ele>2700</ele>
        <time>2020-02-18T10:08:56.000Z</time>
      </trkpt>
      <trkpt lat="44.57837" lon="6.8762">
        <ele>2700.1999511719</ele>
        <time>2020-02-18T10:09:00.000Z</time>
      </trkpt>
      <trkpt lat="44.57838" lon="6.87622">
        <ele>2700.3999023438</ele>
        <time>2020-02-18T10:09:01.000Z</time>
      </trkpt>
      <trkpt lat="44.57839" lon="6.87623">
        <ele>2700.3999023438</ele>
        <time>2020-02-18T10:09:02.000Z</time>
      </trkpt>
      <trkpt lat="44.5784" lon="6.87627">
        <ele>2700.6000976562</ele>
        <time>2020-02-18T10:09:05.000Z</time>
      </trkpt>
      <trkpt lat="44.5784" lon="6.87629">
        <ele>2700.8000488281</ele>
        <time>2020-02-18T10:09:07.000Z</time>
      </trkpt>
      <trkpt lat="44.5784" lon="6.87631">
        <ele>2701</ele>
        <time>2020-02-18T10:09:09.000Z</time>
      </trkpt>
      <trkpt lat="44.5784" lon="6.87631">
        <ele>2701</ele>
        <time>2020-02-18T10:09:10.000Z</time>
      </trkpt>
      <trkpt lat="44.57841" lon="6.87631">
        <ele>2701</ele>
        <time>2020-02-18T10:09:13.000Z</time>
      </trkpt>
      <trkpt lat="44.57842" lon="6.87633">
        <ele>2701</ele>
        <time>2020-02-18T10:09:19.000Z</time>
      </trkpt>
      <trkpt lat="44.57843" lon="6.8763">
        <ele>2701</ele>
        <time>2020-02-18T10:09:38.000Z</time>
      </trkpt>
      <trkpt lat="44.57842" lon="6.87632">
        <ele>2701</ele>
        <time>2020-02-18T10:09:40.000Z</time>
      </trkpt>
      <trkpt lat="44.57842" lon="6.87632">
        <ele>2701.1999511719</ele>
        <time>2020-02-18T10:09:42.000Z</time>
      </trkpt>
      <trkpt lat="44.5784" lon="6.87633">
        <ele>2701</ele>
        <time>2020-02-18T10:09:47.000Z</time>
      </trkpt>
      <trkpt lat="44.5784" lon="6.87633">
        <ele>2701</ele>
        <time>2020-02-18T10:09:48.000Z</time>
      </trkpt>
      <trkpt lat="44.5784" lon="6.87633">
        <ele>2701</ele>
        <time>2020-02-18T10:09:49.000Z</time>
      </trkpt>
      <trkpt lat="44.5784" lon="6.87633">
        <ele>2701</ele>
        <time>2020-02-18T10:09:50.000Z</time>
      </trkpt>
      <trkpt lat="44.5784" lon="6.87632">
        <ele>2701</ele>
        <time>2020-02-18T10:09:52.000Z</time>
      </trkpt>
      <trkpt lat="44.5784" lon="6.87633">
        <ele>2701</ele>
        <time>2020-02-18T10:09:55.000Z</time>
      </trkpt>
      <trkpt lat="44.57841" lon="6.87633">
        <ele>2701</ele>
        <time>2020-02-18T10:09:59.000Z</time>
      </trkpt>
      <trkpt lat="44.5784" lon="6.87632">
        <ele>2701</ele>
        <time>2020-02-18T10:10:03.000Z</time>
      </trkpt>
      <trkpt lat="44.5784" lon="6.8763">
        <ele>2700.8000488281</ele>
        <time>2020-02-18T10:10:15.000Z</time>
      </trkpt>
      <trkpt lat="44.57844" lon="6.87633">
        <ele>2701.6000976562</ele>
        <time>2020-02-18T10:10:22.000Z</time>
      </trkpt>
      <trkpt lat="44.57844" lon="6.87634">
        <ele>2701.8000488281</ele>
        <time>2020-02-18T10:10:23.000Z</time>
      </trkpt>
      <trkpt lat="44.57844" lon="6.87635">
        <ele>2702</ele>
        <time>2020-02-18T10:10:24.000Z</time>
      </trkpt>
      <trkpt lat="44.57843" lon="6.87637">
        <ele>2702</ele>
        <time>2020-02-18T10:10:25.000Z</time>
      </trkpt>
      <trkpt lat="44.57844" lon="6.87639">
        <ele>2702.1999511719</ele>
        <time>2020-02-18T10:10:27.000Z</time>
      </trkpt>
      <trkpt lat="44.57844" lon="6.87645">
        <ele>2702.3999023438</ele>
        <time>2020-02-18T10:10:32.000Z</time>
      </trkpt>
      <trkpt lat="44.57846" lon="6.87651">
        <ele>2702.8000488281</ele>
        <time>2020-02-18T10:10:37.000Z</time>
      </trkpt>
      <trkpt lat="44.57847" lon="6.87652">
        <ele>2703</ele>
        <time>2020-02-18T10:10:38.000Z</time>
      </trkpt>
      <trkpt lat="44.57847" lon="6.87653">
        <ele>2703.1999511719</ele>
        <time>2020-02-18T10:10:39.000Z</time>
      </trkpt>
      <trkpt lat="44.57848" lon="6.87658">
        <ele>2703.6000976562</ele>
        <time>2020-02-18T10:10:43.000Z</time>
      </trkpt>
      <trkpt lat="44.57848" lon="6.87659">
        <ele>2703.6000976562</ele>
        <time>2020-02-18T10:10:44.000Z</time>
      </trkpt>
      <trkpt lat="44.57848" lon="6.87664">
        <ele>2704</ele>
        <time>2020-02-18T10:10:47.000Z</time>
      </trkpt>
      <trkpt lat="44.57848" lon="6.87666">
        <ele>2704</ele>
        <time>2020-02-18T10:10:48.000Z</time>
      </trkpt>
      <trkpt lat="44.57849" lon="6.87667">
        <ele>2704.1999511719</ele>
        <time>2020-02-18T10:10:49.000Z</time>
      </trkpt>
      <trkpt lat="44.57849" lon="6.8767">
        <ele>2704.3999023438</ele>
        <time>2020-02-18T10:10:51.000Z</time>
      </trkpt>
      <trkpt lat="44.5785" lon="6.87672">
        <ele>2704.6000976562</ele>
        <time>2020-02-18T10:10:53.000Z</time>
      </trkpt>
      <trkpt lat="44.57851" lon="6.87674">
        <ele>2705</ele>
        <time>2020-02-18T10:10:56.000Z</time>
      </trkpt>
      <trkpt lat="44.57854" lon="6.87676">
        <ele>2705.1999511719</ele>
        <time>2020-02-18T10:10:59.000Z</time>
      </trkpt>
      <trkpt lat="44.57855" lon="6.87676">
        <ele>2705.3999023438</ele>
        <time>2020-02-18T10:11:00.000Z</time>
      </trkpt>
      <trkpt lat="44.57856" lon="6.87678">
        <ele>2705.6000976562</ele>
        <time>2020-02-18T10:11:02.000Z</time>
      </trkpt>
      <trkpt lat="44.57859" lon="6.87679">
        <ele>2705.8000488281</ele>
        <time>2020-02-18T10:11:04.000Z</time>
      </trkpt>
      <trkpt lat="44.5786" lon="6.8768">
        <ele>2705.8000488281</ele>
        <time>2020-02-18T10:11:05.000Z</time>
      </trkpt>
      <trkpt lat="44.57864" lon="6.87685">
        <ele>2706.1999511719</ele>
        <time>2020-02-18T10:11:10.000Z</time>
      </trkpt>
      <trkpt lat="44.57864" lon="6.87686">
        <ele>2706.1999511719</ele>
        <time>2020-02-18T10:11:11.000Z</time>
      </trkpt>
      <trkpt lat="44.57868" lon="6.8769">
        <ele>2707</ele>
        <time>2020-02-18T10:11:16.000Z</time>
      </trkpt>
      <trkpt lat="44.5787" lon="6.87691">
        <ele>2707.1999511719</ele>
        <time>2020-02-18T10:11:18.000Z</time>
      </trkpt>
      <trkpt lat="44.5787" lon="6.87692">
        <ele>2707.1999511719</ele>
        <time>2020-02-18T10:11:19.000Z</time>
      </trkpt>
      <trkpt lat="44.57871" lon="6.87692">
        <ele>2707.1999511719</ele>
        <time>2020-02-18T10:11:20.000Z</time>
      </trkpt>
      <trkpt lat="44.57873" lon="6.87692">
        <ele>2708.3999023438</ele>
        <time>2020-02-18T10:11:24.000Z</time>
      </trkpt>
      <trkpt lat="44.57877" lon="6.87691">
        <ele>2709.3999023438</ele>
        <time>2020-02-18T10:11:31.000Z</time>
      </trkpt>
      <trkpt lat="44.57879" lon="6.87691">
        <ele>2709.8000488281</ele>
        <time>2020-02-18T10:11:34.000Z</time>
      </trkpt>
      <trkpt lat="44.57878" lon="6.87692">
        <ele>2710.3999023438</ele>
        <time>2020-02-18T10:11:37.000Z</time>
      </trkpt>
      <trkpt lat="44.57878" lon="6.87692">
        <ele>2710.6000976562</ele>
        <time>2020-02-18T10:11:38.000Z</time>
      </trkpt>
      <trkpt lat="44.57881" lon="6.87696">
        <ele>2711.6000976562</ele>
        <time>2020-02-18T10:11:44.000Z</time>
      </trkpt>
      <trkpt lat="44.57885" lon="6.87699">
        <ele>2712.6000976562</ele>
        <time>2020-02-18T10:11:49.000Z</time>
      </trkpt>
      <trkpt lat="44.57885" lon="6.87699">
        <ele>2712.6000976562</ele>
        <time>2020-02-18T10:11:50.000Z</time>
      </trkpt>
      <trkpt lat="44.57888" lon="6.87703">
        <ele>2713.8000488281</ele>
        <time>2020-02-18T10:11:57.000Z</time>
      </trkpt>
      <trkpt lat="44.57894" lon="6.87708">
        <ele>2714.8000488281</ele>
        <time>2020-02-18T10:12:06.000Z</time>
      </trkpt>
      <trkpt lat="44.57895" lon="6.8771">
        <ele>2715</ele>
        <time>2020-02-18T10:12:08.000Z</time>
      </trkpt>
      <trkpt lat="44.57897" lon="6.87714">
        <ele>2715.1999511719</ele>
        <time>2020-02-18T10:12:12.000Z</time>
      </trkpt>
      <trkpt lat="44.57903" lon="6.87718">
        <ele>2715.8000488281</ele>
        <time>2020-02-18T10:12:18.000Z</time>
      </trkpt>
      <trkpt lat="44.57904" lon="6.87719">
        <ele>2716</ele>
        <time>2020-02-18T10:12:20.000Z</time>
      </trkpt>
      <trkpt lat="44.57905" lon="6.8772">
        <ele>2716.1999511719</ele>
        <time>2020-02-18T10:12:21.000Z</time>
      </trkpt>
      <trkpt lat="44.57908" lon="6.87722">
        <ele>2717</ele>
        <time>2020-02-18T10:12:26.000Z</time>
      </trkpt>
      <trkpt lat="44.5791" lon="6.87726">
        <ele>2717.3999023438</ele>
        <time>2020-02-18T10:12:30.000Z</time>
      </trkpt>
      <trkpt lat="44.57911" lon="6.87727">
        <ele>2717.3999023438</ele>
        <time>2020-02-18T10:12:32.000Z</time>
      </trkpt>
      <trkpt lat="44.57912" lon="6.87727">
        <ele>2717.6000976562</ele>
        <time>2020-02-18T10:12:33.000Z</time>
      </trkpt>
      <trkpt lat="44.57912" lon="6.87728">
        <ele>2717.8000488281</ele>
        <time>2020-02-18T10:12:34.000Z</time>
      </trkpt>
      <trkpt lat="44.57917" lon="6.87731">
        <ele>2718.1999511719</ele>
        <time>2020-02-18T10:12:40.000Z</time>
      </trkpt>
      <trkpt lat="44.57919" lon="6.87733">
        <ele>2718.1999511719</ele>
        <time>2020-02-18T10:12:43.000Z</time>
      </trkpt>
      <trkpt lat="44.57921" lon="6.87735">
        <ele>2718.6000976562</ele>
        <time>2020-02-18T10:12:46.000Z</time>
      </trkpt>
      <trkpt lat="44.57924" lon="6.87737">
        <ele>2719</ele>
        <time>2020-02-18T10:12:50.000Z</time>
      </trkpt>
      <trkpt lat="44.57925" lon="6.87739">
        <ele>2719.1999511719</ele>
        <time>2020-02-18T10:12:52.000Z</time>
      </trkpt>
      <trkpt lat="44.57927" lon="6.8774">
        <ele>2719.8000488281</ele>
        <time>2020-02-18T10:12:56.000Z</time>
      </trkpt>
      <trkpt lat="44.57929" lon="6.87742">
        <ele>2720.1999511719</ele>
        <time>2020-02-18T10:13:01.000Z</time>
      </trkpt>
      <trkpt lat="44.5793" lon="6.87749">
        <ele>2721.1999511719</ele>
        <time>2020-02-18T10:13:09.000Z</time>
      </trkpt>
      <trkpt lat="44.57932" lon="6.87754">
        <ele>2722.3999023438</ele>
        <time>2020-02-18T10:13:14.000Z</time>
      </trkpt>
      <trkpt lat="44.57928" lon="6.87756">
        <ele>2723.1999511719</ele>
        <time>2020-02-18T10:13:37.000Z</time>
      </trkpt>
      <trkpt lat="44.5793" lon="6.87755">
        <ele>2723.1999511719</ele>
        <time>2020-02-18T10:13:41.000Z</time>
      </trkpt>
      <trkpt lat="44.57931" lon="6.87754">
        <ele>2723.3999023438</ele>
        <time>2020-02-18T10:13:44.000Z</time>
      </trkpt>
      <trkpt lat="44.5793" lon="6.87755">
        <ele>2723.3999023438</ele>
        <time>2020-02-18T10:13:49.000Z</time>
      </trkpt>
      <trkpt lat="44.57932" lon="6.87754">
        <ele>2723.6000976562</ele>
        <time>2020-02-18T10:13:56.000Z</time>
      </trkpt>
      <trkpt lat="44.57934" lon="6.87755">
        <ele>2723.6000976562</ele>
        <time>2020-02-18T10:13:58.000Z</time>
      </trkpt>
      <trkpt lat="44.57936" lon="6.87755">
        <ele>2723.6000976562</ele>
        <time>2020-02-18T10:14:00.000Z</time>
      </trkpt>
      <trkpt lat="44.57934" lon="6.87757">
        <ele>2723.6000976562</ele>
        <time>2020-02-18T10:14:06.000Z</time>
      </trkpt>
      <trkpt lat="44.57931" lon="6.87759">
        <ele>2723.6000976562</ele>
        <time>2020-02-18T10:14:09.000Z</time>
      </trkpt>
      <trkpt lat="44.57935" lon="6.87758">
        <ele>2723.3999023438</ele>
        <time>2020-02-18T10:14:21.000Z</time>
      </trkpt>
      <trkpt lat="44.57935" lon="6.8776">
        <ele>2723.8000488281</ele>
        <time>2020-02-18T10:14:25.000Z</time>
      </trkpt>
      <trkpt lat="44.57935" lon="6.87762">
        <ele>2724.3999023438</ele>
        <time>2020-02-18T10:14:28.000Z</time>
      </trkpt>
      <trkpt lat="44.57936" lon="6.87762">
        <ele>2724.6000976562</ele>
        <time>2020-02-18T10:14:29.000Z</time>
      </trkpt>
      <trkpt lat="44.57936" lon="6.87765">
        <ele>2725.1999511719</ele>
        <time>2020-02-18T10:14:33.000Z</time>
      </trkpt>
      <trkpt lat="44.57937" lon="6.87766">
        <ele>2725.6000976562</ele>
        <time>2020-02-18T10:14:35.000Z</time>
      </trkpt>
      <trkpt lat="44.57944" lon="6.87779">
        <ele>2726.3999023438</ele>
        <time>2020-02-18T10:14:52.000Z</time>
      </trkpt>
      <trkpt lat="44.57946" lon="6.87783">
        <ele>2726.3999023438</ele>
        <time>2020-02-18T10:14:56.000Z</time>
      </trkpt>
      <trkpt lat="44.57946" lon="6.87784">
        <ele>2726.3999023438</ele>
        <time>2020-02-18T10:14:57.000Z</time>
      </trkpt>
      <trkpt lat="44.57951" lon="6.87789">
        <ele>2726.1999511719</ele>
        <time>2020-02-18T10:15:02.000Z</time>
      </trkpt>
      <trkpt lat="44.57951" lon="6.87789">
        <ele>2726.1999511719</ele>
        <time>2020-02-18T10:15:03.000Z</time>
      </trkpt>
      <trkpt lat="44.57952" lon="6.87792">
        <ele>2726.1999511719</ele>
        <time>2020-02-18T10:15:06.000Z</time>
      </trkpt>
      <trkpt lat="44.57954" lon="6.87792">
        <ele>2726.1999511719</ele>
        <time>2020-02-18T10:15:07.000Z</time>
      </trkpt>
      <trkpt lat="44.57955" lon="6.87792">
        <ele>2726.1999511719</ele>
        <time>2020-02-18T10:15:08.000Z</time>
      </trkpt>
      <trkpt lat="44.57958" lon="6.87792">
        <ele>2726.1999511719</ele>
        <time>2020-02-18T10:15:10.000Z</time>
      </trkpt>
      <trkpt lat="44.57962" lon="6.87792">
        <ele>2726.6000976562</ele>
        <time>2020-02-18T10:15:16.000Z</time>
      </trkpt>
      <trkpt lat="44.57962" lon="6.87792">
        <ele>2726.6000976562</ele>
        <time>2020-02-18T10:15:17.000Z</time>
      </trkpt>
      <trkpt lat="44.57962" lon="6.87792">
        <ele>2726.8000488281</ele>
        <time>2020-02-18T10:15:18.000Z</time>
      </trkpt>
      <trkpt lat="44.57962" lon="6.87792">
        <ele>2726.8000488281</ele>
        <time>2020-02-18T10:15:19.000Z</time>
      </trkpt>
      <trkpt lat="44.57962" lon="6.8779">
        <ele>2726.8000488281</ele>
        <time>2020-02-18T10:15:25.000Z</time>
      </trkpt>
      <trkpt lat="44.57964" lon="6.87788">
        <ele>2726.8000488281</ele>
        <time>2020-02-18T10:15:34.000Z</time>
      </trkpt>
      <trkpt lat="44.57963" lon="6.87788">
        <ele>2726.8000488281</ele>
        <time>2020-02-18T10:15:36.000Z</time>
      </trkpt>
      <trkpt lat="44.57964" lon="6.87787">
        <ele>2726.8000488281</ele>
        <time>2020-02-18T10:15:40.000Z</time>
      </trkpt>
      <trkpt lat="44.57966" lon="6.87787">
        <ele>2726.8000488281</ele>
        <time>2020-02-18T10:15:43.000Z</time>
      </trkpt>
      <trkpt lat="44.57965" lon="6.87786">
        <ele>2726.8000488281</ele>
        <time>2020-02-18T10:15:48.000Z</time>
      </trkpt>
      <trkpt lat="44.57964" lon="6.87786">
        <ele>2726.8000488281</ele>
        <time>2020-02-18T10:15:50.000Z</time>
      </trkpt>
      <trkpt lat="44.57962" lon="6.87788">
        <ele>2726.8000488281</ele>
        <time>2020-02-18T10:15:56.000Z</time>
      </trkpt>
      <trkpt lat="44.5796" lon="6.87788">
        <ele>2726.8000488281</ele>
        <time>2020-02-18T10:15:58.000Z</time>
      </trkpt>
      <trkpt lat="44.5796" lon="6.87788">
        <ele>2726.8000488281</ele>
        <time>2020-02-18T10:15:59.000Z</time>
      </trkpt>
      <trkpt lat="44.57959" lon="6.87788">
        <ele>2726.8000488281</ele>
        <time>2020-02-18T10:16:01.000Z</time>
      </trkpt>
      <trkpt lat="44.57958" lon="6.87789">
        <ele>2726.8000488281</ele>
        <time>2020-02-18T10:16:06.000Z</time>
      </trkpt>
      <trkpt lat="44.57957" lon="6.87789">
        <ele>2726.6000976562</ele>
        <time>2020-02-18T10:16:11.000Z</time>
      </trkpt>
      <trkpt lat="44.57957" lon="6.87789">
        <ele>2726.6000976562</ele>
        <time>2020-02-18T10:16:12.000Z</time>
      </trkpt>
      <trkpt lat="44.57957" lon="6.8779">
        <ele>2726.6000976562</ele>
        <time>2020-02-18T10:16:14.000Z</time>
      </trkpt>
      <trkpt lat="44.57957" lon="6.8779">
        <ele>2726.6000976562</ele>
        <time>2020-02-18T10:16:16.000Z</time>
      </trkpt>
      <trkpt lat="44.57957" lon="6.8779">
        <ele>2726.6000976562</ele>
        <time>2020-02-18T10:16:17.000Z</time>
      </trkpt>
      <trkpt lat="44.57957" lon="6.87791">
        <ele>2726.6000976562</ele>
        <time>2020-02-18T10:16:18.000Z</time>
      </trkpt>
      <trkpt lat="44.57957" lon="6.87792">
        <ele>2726.8000488281</ele>
        <time>2020-02-18T10:16:20.000Z</time>
      </trkpt>
      <trkpt lat="44.57957" lon="6.87792">
        <ele>2726.8000488281</ele>
        <time>2020-02-18T10:16:21.000Z</time>
      </trkpt>
      <trkpt lat="44.57957" lon="6.87793">
        <ele>2726.8000488281</ele>
        <time>2020-02-18T10:16:26.000Z</time>
      </trkpt>
      <trkpt lat="44.57958" lon="6.87793">
        <ele>2726.8000488281</ele>
        <time>2020-02-18T10:16:27.000Z</time>
      </trkpt>
      <trkpt lat="44.57958" lon="6.87793">
        <ele>2726.8000488281</ele>
        <time>2020-02-18T10:16:30.000Z</time>
      </trkpt>
      <trkpt lat="44.5796" lon="6.87793">
        <ele>2726.8000488281</ele>
        <time>2020-02-18T10:16:34.000Z</time>
      </trkpt>
      <trkpt lat="44.5796" lon="6.87794">
        <ele>2726.8000488281</ele>
        <time>2020-02-18T10:16:39.000Z</time>
      </trkpt>
      <trkpt lat="44.57959" lon="6.87794">
        <ele>2726.8000488281</ele>
        <time>2020-02-18T10:16:42.000Z</time>
      </trkpt>
      <trkpt lat="44.57959" lon="6.87794">
        <ele>2726.8000488281</ele>
        <time>2020-02-18T10:16:52.000Z</time>
      </trkpt>
      <trkpt lat="44.57959" lon="6.87794">
        <ele>2726.8000488281</ele>
        <time>2020-02-18T10:16:56.000Z</time>
      </trkpt>
      <trkpt lat="44.5796" lon="6.87794">
        <ele>2726.8000488281</ele>
        <time>2020-02-18T10:16:59.000Z</time>
      </trkpt>
      <trkpt lat="44.57961" lon="6.87794">
        <ele>2726.8000488281</ele>
        <time>2020-02-18T10:17:01.000Z</time>
      </trkpt>
      <trkpt lat="44.57961" lon="6.87793">
        <ele>2726.8000488281</ele>
        <time>2020-02-18T10:17:05.000Z</time>
      </trkpt>
      <trkpt lat="44.57962" lon="6.87793">
        <ele>2726.8000488281</ele>
        <time>2020-02-18T10:17:10.000Z</time>
      </trkpt>
      <trkpt lat="44.57961" lon="6.87792">
        <ele>2726.8000488281</ele>
        <time>2020-02-18T10:17:12.000Z</time>
      </trkpt>
      <trkpt lat="44.57961" lon="6.87791">
        <ele>2726.8000488281</ele>
        <time>2020-02-18T10:17:15.000Z</time>
      </trkpt>
      <trkpt lat="44.57961" lon="6.87791">
        <ele>2726.8000488281</ele>
        <time>2020-02-18T10:17:16.000Z</time>
      </trkpt>
      <trkpt lat="44.57961" lon="6.87791">
        <ele>2726.8000488281</ele>
        <time>2020-02-18T10:17:17.000Z</time>
      </trkpt>
      <trkpt lat="44.57961" lon="6.87791">
        <ele>2726.8000488281</ele>
        <time>2020-02-18T10:17:19.000Z</time>
      </trkpt>
      <trkpt lat="44.57961" lon="6.87791">
        <ele>2726.8000488281</ele>
        <time>2020-02-18T10:17:20.000Z</time>
      </trkpt>
      <trkpt lat="44.57961" lon="6.87791">
        <ele>2726.8000488281</ele>
        <time>2020-02-18T10:17:25.000Z</time>
      </trkpt>
      <trkpt lat="44.57961" lon="6.8779">
        <ele>2726.8000488281</ele>
        <time>2020-02-18T10:17:30.000Z</time>
      </trkpt>
      <trkpt lat="44.57961" lon="6.8779">
        <ele>2726.8000488281</ele>
        <time>2020-02-18T10:17:31.000Z</time>
      </trkpt>
      <trkpt lat="44.57961" lon="6.87789">
        <ele>2726.8000488281</ele>
        <time>2020-02-18T10:17:32.000Z</time>
      </trkpt>
      <trkpt lat="44.57962" lon="6.87788">
        <ele>2726.8000488281</ele>
        <time>2020-02-18T10:17:34.000Z</time>
      </trkpt>
      <trkpt lat="44.57962" lon="6.87788">
        <ele>2726.8000488281</ele>
        <time>2020-02-18T10:17:35.000Z</time>
      </trkpt>
      <trkpt lat="44.57962" lon="6.87789">
        <ele>2726.8000488281</ele>
        <time>2020-02-18T10:17:36.000Z</time>
      </trkpt>
      <trkpt lat="44.57962" lon="6.87789">
        <ele>2726.8000488281</ele>
        <time>2020-02-18T10:17:37.000Z</time>
      </trkpt>
      <trkpt lat="44.57962" lon="6.87789">
        <ele>2726.8000488281</ele>
        <time>2020-02-18T10:17:38.000Z</time>
      </trkpt>
      <trkpt lat="44.57961" lon="6.87789">
        <ele>2726.8000488281</ele>
        <time>2020-02-18T10:17:41.000Z</time>
      </trkpt>
      <trkpt lat="44.57961" lon="6.87789">
        <ele>2726.8000488281</ele>
        <time>2020-02-18T10:17:42.000Z</time>
      </trkpt>
      <trkpt lat="44.57961" lon="6.87789">
        <ele>2726.8000488281</ele>
        <time>2020-02-18T10:17:43.000Z</time>
      </trkpt>
      <trkpt lat="44.5796" lon="6.8779">
        <ele>2726.8000488281</ele>
        <time>2020-02-18T10:17:45.000Z</time>
      </trkpt>
      <trkpt lat="44.57959" lon="6.87791">
        <ele>2726.8000488281</ele>
        <time>2020-02-18T10:17:49.000Z</time>
      </trkpt>
      <trkpt lat="44.57959" lon="6.8779">
        <ele>2726.8000488281</ele>
        <time>2020-02-18T10:17:50.000Z</time>
      </trkpt>
      <trkpt lat="44.5796" lon="6.87791">
        <ele>2726.8000488281</ele>
        <time>2020-02-18T10:17:58.000Z</time>
      </trkpt>
      <trkpt lat="44.57961" lon="6.8779">
        <ele>2726.8000488281</ele>
        <time>2020-02-18T10:18:01.000Z</time>
      </trkpt>
      <trkpt lat="44.57962" lon="6.8779">
        <ele>2726.8000488281</ele>
        <time>2020-02-18T10:18:03.000Z</time>
      </trkpt>
      <trkpt lat="44.57959" lon="6.87791">
        <ele>2726.8000488281</ele>
        <time>2020-02-18T10:18:14.000Z</time>
      </trkpt>
      <trkpt lat="44.57961" lon="6.8779">
        <ele>2726.8000488281</ele>
        <time>2020-02-18T10:18:21.000Z</time>
      </trkpt>
      <trkpt lat="44.57962" lon="6.87791">
        <ele>2726.8000488281</ele>
        <time>2020-02-18T10:18:24.000Z</time>
      </trkpt>
      <trkpt lat="44.57963" lon="6.87791">
        <ele>2726.8000488281</ele>
        <time>2020-02-18T10:18:27.000Z</time>
      </trkpt>
      <trkpt lat="44.57963" lon="6.87792">
        <ele>2726.8000488281</ele>
        <time>2020-02-18T10:18:29.000Z</time>
      </trkpt>
      <trkpt lat="44.57963" lon="6.87792">
        <ele>2726.8000488281</ele>
        <time>2020-02-18T10:18:31.000Z</time>
      </trkpt>
      <trkpt lat="44.57962" lon="6.87792">
        <ele>2726.8000488281</ele>
        <time>2020-02-18T10:18:32.000Z</time>
      </trkpt>
      <trkpt lat="44.57962" lon="6.87791">
        <ele>2726.8000488281</ele>
        <time>2020-02-18T10:18:35.000Z</time>
      </trkpt>
      <trkpt lat="44.57961" lon="6.8779">
        <ele>2726.8000488281</ele>
        <time>2020-02-18T10:18:41.000Z</time>
      </trkpt>
      <trkpt lat="44.5796" lon="6.87789">
        <ele>2726.8000488281</ele>
        <time>2020-02-18T10:18:45.000Z</time>
      </trkpt>
      <trkpt lat="44.5796" lon="6.87789">
        <ele>2726.8000488281</ele>
        <time>2020-02-18T10:18:48.000Z</time>
      </trkpt>
      <trkpt lat="44.57961" lon="6.87789">
        <ele>2726.8000488281</ele>
        <time>2020-02-18T10:18:52.000Z</time>
      </trkpt>
      <trkpt lat="44.57961" lon="6.87789">
        <ele>2726.8000488281</ele>
        <time>2020-02-18T10:18:54.000Z</time>
      </trkpt>
      <trkpt lat="44.57961" lon="6.8779">
        <ele>2726.8000488281</ele>
        <time>2020-02-18T10:18:56.000Z</time>
      </trkpt>
      <trkpt lat="44.57961" lon="6.87792">
        <ele>2726.8000488281</ele>
        <time>2020-02-18T10:18:59.000Z</time>
      </trkpt>
      <trkpt lat="44.57961" lon="6.87792">
        <ele>2726.8000488281</ele>
        <time>2020-02-18T10:19:11.000Z</time>
      </trkpt>
      <trkpt lat="44.5796" lon="6.87792">
        <ele>2726.8000488281</ele>
        <time>2020-02-18T10:19:13.000Z</time>
      </trkpt>
      <trkpt lat="44.57959" lon="6.87792">
        <ele>2726.8000488281</ele>
        <time>2020-02-18T10:19:16.000Z</time>
      </trkpt>
      <trkpt lat="44.5796" lon="6.87792">
        <ele>2726.8000488281</ele>
        <time>2020-02-18T10:19:22.000Z</time>
      </trkpt>
      <trkpt lat="44.57959" lon="6.8779">
        <ele>2726.8000488281</ele>
        <time>2020-02-18T10:19:25.000Z</time>
      </trkpt>
      <trkpt lat="44.57959" lon="6.8779">
        <ele>2726.8000488281</ele>
        <time>2020-02-18T10:19:29.000Z</time>
      </trkpt>
      <trkpt lat="44.57959" lon="6.8779">
        <ele>2726.8000488281</ele>
        <time>2020-02-18T10:19:30.000Z</time>
      </trkpt>
      <trkpt lat="44.57959" lon="6.8779">
        <ele>2726.8000488281</ele>
        <time>2020-02-18T10:19:31.000Z</time>
      </trkpt>
      <trkpt lat="44.57958" lon="6.8779">
        <ele>2726.8000488281</ele>
        <time>2020-02-18T10:19:33.000Z</time>
      </trkpt>
      <trkpt lat="44.57958" lon="6.8779">
        <ele>2726.8000488281</ele>
        <time>2020-02-18T10:19:34.000Z</time>
      </trkpt>
      <trkpt lat="44.57957" lon="6.87791">
        <ele>2726.8000488281</ele>
        <time>2020-02-18T10:19:36.000Z</time>
      </trkpt>
      <trkpt lat="44.57956" lon="6.87792">
        <ele>2726.8000488281</ele>
        <time>2020-02-18T10:19:42.000Z</time>
      </trkpt>
      <trkpt lat="44.57958" lon="6.87792">
        <ele>2726.8000488281</ele>
        <time>2020-02-18T10:19:46.000Z</time>
      </trkpt>
      <trkpt lat="44.57962" lon="6.87793">
        <ele>2726.8000488281</ele>
        <time>2020-02-18T10:19:48.000Z</time>
      </trkpt>
      <trkpt lat="44.57962" lon="6.87793">
        <ele>2726.8000488281</ele>
        <time>2020-02-18T10:19:49.000Z</time>
      </trkpt>
      <trkpt lat="44.57962" lon="6.87794">
        <ele>2726.8000488281</ele>
        <time>2020-02-18T10:19:52.000Z</time>
      </trkpt>
      <trkpt lat="44.57962" lon="6.87794">
        <ele>2726.8000488281</ele>
        <time>2020-02-18T10:19:53.000Z</time>
      </trkpt>
      <trkpt lat="44.57962" lon="6.87794">
        <ele>2726.8000488281</ele>
        <time>2020-02-18T10:19:54.000Z</time>
      </trkpt>
      <trkpt lat="44.57962" lon="6.87795">
        <ele>2726.8000488281</ele>
        <time>2020-02-18T10:19:55.000Z</time>
      </trkpt>
      <trkpt lat="44.57964" lon="6.87797">
        <ele>2726.8000488281</ele>
        <time>2020-02-18T10:20:02.000Z</time>
      </trkpt>
      <trkpt lat="44.57966" lon="6.87797">
        <ele>2726.8000488281</ele>
        <time>2020-02-18T10:20:05.000Z</time>
      </trkpt>
      <trkpt lat="44.57968" lon="6.87797">
        <ele>2727.8000488281</ele>
        <time>2020-02-18T10:20:07.000Z</time>
      </trkpt>
      <trkpt lat="44.57972" lon="6.87798">
        <ele>2728.8000488281</ele>
        <time>2020-02-18T10:20:14.000Z</time>
      </trkpt>
      <trkpt lat="44.57972" lon="6.87798">
        <ele>2728.8000488281</ele>
        <time>2020-02-18T10:20:15.000Z</time>
      </trkpt>
      <trkpt lat="44.57976" lon="6.87798">
        <ele>2728.8000488281</ele>
        <time>2020-02-18T10:20:19.000Z</time>
      </trkpt>
      <trkpt lat="44.57979" lon="6.87799">
        <ele>2728.8000488281</ele>
        <time>2020-02-18T10:20:21.000Z</time>
      </trkpt>
      <trkpt lat="44.57983" lon="6.87801">
        <ele>2728.8000488281</ele>
        <time>2020-02-18T10:20:25.000Z</time>
      </trkpt>
      <trkpt lat="44.57985" lon="6.87803">
        <ele>2728.8000488281</ele>
        <time>2020-02-18T10:20:28.000Z</time>
      </trkpt>
      <trkpt lat="44.57988" lon="6.87805">
        <ele>2728.8000488281</ele>
        <time>2020-02-18T10:20:32.000Z</time>
      </trkpt>
      <trkpt lat="44.5799" lon="6.87807">
        <ele>2729</ele>
        <time>2020-02-18T10:20:36.000Z</time>
      </trkpt>
      <trkpt lat="44.57991" lon="6.87807">
        <ele>2729</ele>
        <time>2020-02-18T10:20:37.000Z</time>
      </trkpt>
      <trkpt lat="44.57992" lon="6.87808">
        <ele>2729</ele>
        <time>2020-02-18T10:20:38.000Z</time>
      </trkpt>
      <trkpt lat="44.57993" lon="6.8781">
        <ele>2728.8000488281</ele>
        <time>2020-02-18T10:20:40.000Z</time>
      </trkpt>
      <trkpt lat="44.57994" lon="6.8781">
        <ele>2728.6000976562</ele>
        <time>2020-02-18T10:20:41.000Z</time>
      </trkpt>
      <trkpt lat="44.57996" lon="6.87811">
        <ele>2728.6000976562</ele>
        <time>2020-02-18T10:20:43.000Z</time>
      </trkpt>
      <trkpt lat="44.57999" lon="6.87811">
        <ele>2728.6000976562</ele>
        <time>2020-02-18T10:20:46.000Z</time>
      </trkpt>
      <trkpt lat="44.58" lon="6.87812">
        <ele>2728.6000976562</ele>
        <time>2020-02-18T10:20:48.000Z</time>
      </trkpt>
      <trkpt lat="44.58001" lon="6.87813">
        <ele>2728.6000976562</ele>
        <time>2020-02-18T10:20:50.000Z</time>
      </trkpt>
      <trkpt lat="44.58003" lon="6.87814">
        <ele>2728.6000976562</ele>
        <time>2020-02-18T10:20:54.000Z</time>
      </trkpt>
      <trkpt lat="44.58005" lon="6.87814">
        <ele>2728.6000976562</ele>
        <time>2020-02-18T10:20:57.000Z</time>
      </trkpt>
      <trkpt lat="44.58007" lon="6.87815">
        <ele>2728.8000488281</ele>
        <time>2020-02-18T10:21:00.000Z</time>
      </trkpt>
      <trkpt lat="44.58008" lon="6.87815">
        <ele>2728.8000488281</ele>
        <time>2020-02-18T10:21:01.000Z</time>
      </trkpt>
      <trkpt lat="44.58012" lon="6.87814">
        <ele>2729</ele>
        <time>2020-02-18T10:21:06.000Z</time>
      </trkpt>
      <trkpt lat="44.58013" lon="6.87814">
        <ele>2729.1999511719</ele>
        <time>2020-02-18T10:21:08.000Z</time>
      </trkpt>
      <trkpt lat="44.58015" lon="6.87814">
        <ele>2729.3999023438</ele>
        <time>2020-02-18T10:21:10.000Z</time>
      </trkpt>
      <trkpt lat="44.58016" lon="6.87814">
        <ele>2729.6000976562</ele>
        <time>2020-02-18T10:21:11.000Z</time>
      </trkpt>
      <trkpt lat="44.58017" lon="6.87814">
        <ele>2729.8000488281</ele>
        <time>2020-02-18T10:21:12.000Z</time>
      </trkpt>
      <trkpt lat="44.58018" lon="6.87814">
        <ele>2729.8000488281</ele>
        <time>2020-02-18T10:21:13.000Z</time>
      </trkpt>
      <trkpt lat="44.58018" lon="6.87815">
        <ele>2730.1999511719</ele>
        <time>2020-02-18T10:21:15.000Z</time>
      </trkpt>
      <trkpt lat="44.58018" lon="6.87816">
        <ele>2730.1999511719</ele>
        <time>2020-02-18T10:21:16.000Z</time>
      </trkpt>
      <trkpt lat="44.5802" lon="6.87821">
        <ele>2730.8000488281</ele>
        <time>2020-02-18T10:21:23.000Z</time>
      </trkpt>
      <trkpt lat="44.58027" lon="6.87825">
        <ele>2732</ele>
        <time>2020-02-18T10:21:36.000Z</time>
      </trkpt>
      <trkpt lat="44.58033" lon="6.87828">
        <ele>2733</ele>
        <time>2020-02-18T10:21:48.000Z</time>
      </trkpt>
      <trkpt lat="44.58035" lon="6.87834">
        <ele>2734.1999511719</ele>
        <time>2020-02-18T10:21:59.000Z</time>
      </trkpt>
      <trkpt lat="44.58038" lon="6.87837">
        <ele>2735.1999511719</ele>
        <time>2020-02-18T10:22:14.000Z</time>
      </trkpt>
      <trkpt lat="44.5804" lon="6.87837">
        <ele>2735.1999511719</ele>
        <time>2020-02-18T10:22:29.000Z</time>
      </trkpt>
      <trkpt lat="44.5804" lon="6.87836">
        <ele>2735.1999511719</ele>
        <time>2020-02-18T10:22:32.000Z</time>
      </trkpt>
      <trkpt lat="44.58043" lon="6.87838">
        <ele>2735.6000976562</ele>
        <time>2020-02-18T10:22:44.000Z</time>
      </trkpt>
      <trkpt lat="44.58041" lon="6.87839">
        <ele>2735.6000976562</ele>
        <time>2020-02-18T10:22:47.000Z</time>
      </trkpt>
      <trkpt lat="44.58039" lon="6.8784">
        <ele>2735.6000976562</ele>
        <time>2020-02-18T10:22:48.000Z</time>
      </trkpt>
      <trkpt lat="44.58038" lon="6.8784">
        <ele>2735.6000976562</ele>
        <time>2020-02-18T10:22:49.000Z</time>
      </trkpt>
      <trkpt lat="44.58041" lon="6.8784">
        <ele>2735.6000976562</ele>
        <time>2020-02-18T10:22:56.000Z</time>
      </trkpt>
      <trkpt lat="44.58049" lon="6.87839">
        <ele>2736.1999511719</ele>
        <time>2020-02-18T10:23:00.000Z</time>
      </trkpt>
      <trkpt lat="44.58052" lon="6.87839">
        <ele>2736.8000488281</ele>
        <time>2020-02-18T10:23:03.000Z</time>
      </trkpt>
      <trkpt lat="44.58054" lon="6.87839">
        <ele>2737.1999511719</ele>
        <time>2020-02-18T10:23:05.000Z</time>
      </trkpt>
      <trkpt lat="44.58054" lon="6.8784">
        <ele>2737.1999511719</ele>
        <time>2020-02-18T10:23:07.000Z</time>
      </trkpt>
      <trkpt lat="44.58054" lon="6.87841">
        <ele>2737.3999023438</ele>
        <time>2020-02-18T10:23:09.000Z</time>
      </trkpt>
      <trkpt lat="44.58052" lon="6.87841">
        <ele>2737.3999023438</ele>
        <time>2020-02-18T10:23:15.000Z</time>
      </trkpt>
      <trkpt lat="44.5805" lon="6.87841">
        <ele>2737.3999023438</ele>
        <time>2020-02-18T10:23:18.000Z</time>
      </trkpt>
      <trkpt lat="44.58048" lon="6.8784">
        <ele>2737.3999023438</ele>
        <time>2020-02-18T10:23:32.000Z</time>
      </trkpt>
      <trkpt lat="44.58049" lon="6.8784">
        <ele>2737.3999023438</ele>
        <time>2020-02-18T10:23:34.000Z</time>
      </trkpt>
      <trkpt lat="44.58049" lon="6.87839">
        <ele>2737.6000976562</ele>
        <time>2020-02-18T10:23:36.000Z</time>
      </trkpt>
      <trkpt lat="44.58049" lon="6.87839">
        <ele>2737.3999023438</ele>
        <time>2020-02-18T10:23:40.000Z</time>
      </trkpt>
      <trkpt lat="44.58049" lon="6.8784">
        <ele>2737.3999023438</ele>
        <time>2020-02-18T10:23:44.000Z</time>
      </trkpt>
      <trkpt lat="44.58051" lon="6.8784">
        <ele>2737.3999023438</ele>
        <time>2020-02-18T10:23:47.000Z</time>
      </trkpt>
      <trkpt lat="44.58055" lon="6.8784">
        <ele>2737.3999023438</ele>
        <time>2020-02-18T10:23:53.000Z</time>
      </trkpt>
      <trkpt lat="44.58055" lon="6.8784">
        <ele>2737.3999023438</ele>
        <time>2020-02-18T10:23:54.000Z</time>
      </trkpt>
      <trkpt lat="44.58055" lon="6.8784">
        <ele>2737.3999023438</ele>
        <time>2020-02-18T10:23:58.000Z</time>
      </trkpt>
      <trkpt lat="44.58054" lon="6.87841">
        <ele>2737.3999023438</ele>
        <time>2020-02-18T10:24:01.000Z</time>
      </trkpt>
      <trkpt lat="44.58053" lon="6.87842">
        <ele>2737.3999023438</ele>
        <time>2020-02-18T10:24:04.000Z</time>
      </trkpt>
      <trkpt lat="44.58052" lon="6.87844">
        <ele>2737.3999023438</ele>
        <time>2020-02-18T10:24:08.000Z</time>
      </trkpt>
      <trkpt lat="44.58052" lon="6.87845">
        <ele>2737.3999023438</ele>
        <time>2020-02-18T10:24:11.000Z</time>
      </trkpt>
      <trkpt lat="44.58053" lon="6.87845">
        <ele>2737.3999023438</ele>
        <time>2020-02-18T10:24:15.000Z</time>
      </trkpt>
      <trkpt lat="44.58055" lon="6.87845">
        <ele>2737.3999023438</ele>
        <time>2020-02-18T10:24:17.000Z</time>
      </trkpt>
      <trkpt lat="44.58054" lon="6.87844">
        <ele>2737.3999023438</ele>
        <time>2020-02-18T10:24:18.000Z</time>
      </trkpt>
      <trkpt lat="44.58054" lon="6.87844">
        <ele>2737.3999023438</ele>
        <time>2020-02-18T10:24:20.000Z</time>
      </trkpt>
      <trkpt lat="44.58054" lon="6.87844">
        <ele>2737.3999023438</ele>
        <time>2020-02-18T10:24:21.000Z</time>
      </trkpt>
      <trkpt lat="44.58053" lon="6.87844">
        <ele>2737.3999023438</ele>
        <time>2020-02-18T10:24:22.000Z</time>
      </trkpt>
      <trkpt lat="44.58052" lon="6.87844">
        <ele>2737.3999023438</ele>
        <time>2020-02-18T10:24:24.000Z</time>
      </trkpt>
      <trkpt lat="44.58052" lon="6.87845">
        <ele>2737.3999023438</ele>
        <time>2020-02-18T10:24:27.000Z</time>
      </trkpt>
      <trkpt lat="44.58053" lon="6.87845">
        <ele>2737.3999023438</ele>
        <time>2020-02-18T10:24:31.000Z</time>
      </trkpt>
      <trkpt lat="44.58053" lon="6.87846">
        <ele>2737.3999023438</ele>
        <time>2020-02-18T10:24:34.000Z</time>
      </trkpt>
      <trkpt lat="44.58052" lon="6.87846">
        <ele>2737.3999023438</ele>
        <time>2020-02-18T10:24:35.000Z</time>
      </trkpt>
      <trkpt lat="44.58053" lon="6.87846">
        <ele>2737.3999023438</ele>
        <time>2020-02-18T10:24:37.000Z</time>
      </trkpt>
      <trkpt lat="44.58056" lon="6.87851">
        <ele>2737.3999023438</ele>
        <time>2020-02-18T10:24:47.000Z</time>
      </trkpt>
      <trkpt lat="44.58057" lon="6.87851">
        <ele>2737.3999023438</ele>
        <time>2020-02-18T10:24:48.000Z</time>
      </trkpt>
      <trkpt lat="44.5806" lon="6.87854">
        <ele>2737.3999023438</ele>
        <time>2020-02-18T10:24:53.000Z</time>
      </trkpt>
      <trkpt lat="44.5806" lon="6.87855">
        <ele>2737.3999023438</ele>
        <time>2020-02-18T10:24:57.000Z</time>
      </trkpt>
      <trkpt lat="44.58057" lon="6.87856">
        <ele>2737.3999023438</ele>
        <time>2020-02-18T10:25:06.000Z</time>
      </trkpt>
      <trkpt lat="44.58064" lon="6.87856">
        <ele>2741.3999023438</ele>
        <time>2020-02-18T10:25:14.000Z</time>
      </trkpt>
      <trkpt lat="44.58063" lon="6.87856">
        <ele>2741.3999023438</ele>
        <time>2020-02-18T10:25:20.000Z</time>
      </trkpt>
      <trkpt lat="44.58062" lon="6.87858">
        <ele>2741.8000488281</ele>
        <time>2020-02-18T10:25:36.000Z</time>
      </trkpt>
      <trkpt lat="44.58062" lon="6.87859">
        <ele>2741.8000488281</ele>
        <time>2020-02-18T10:25:37.000Z</time>
      </trkpt>
      <trkpt lat="44.58062" lon="6.87859">
        <ele>2741.8000488281</ele>
        <time>2020-02-18T10:25:39.000Z</time>
      </trkpt>
      <trkpt lat="44.58061" lon="6.87859">
        <ele>2741.8000488281</ele>
        <time>2020-02-18T10:25:45.000Z</time>
      </trkpt>
      <trkpt lat="44.58061" lon="6.8786">
        <ele>2741.8000488281</ele>
        <time>2020-02-18T10:25:50.000Z</time>
      </trkpt>
      <trkpt lat="44.58061" lon="6.87858">
        <ele>2741.8000488281</ele>
        <time>2020-02-18T10:25:52.000Z</time>
      </trkpt>
      <trkpt lat="44.58061" lon="6.87858">
        <ele>2741.8000488281</ele>
        <time>2020-02-18T10:25:55.000Z</time>
      </trkpt>
      <trkpt lat="44.58059" lon="6.87858">
        <ele>2741.8000488281</ele>
        <time>2020-02-18T10:25:56.000Z</time>
      </trkpt>
      <trkpt lat="44.58059" lon="6.87858">
        <ele>2741.8000488281</ele>
        <time>2020-02-18T10:25:57.000Z</time>
      </trkpt>
      <trkpt lat="44.58058" lon="6.87859">
        <ele>2741.6000976562</ele>
        <time>2020-02-18T10:26:00.000Z</time>
      </trkpt>
      <trkpt lat="44.58058" lon="6.87859">
        <ele>2741.6000976562</ele>
        <time>2020-02-18T10:26:02.000Z</time>
      </trkpt>
      <trkpt lat="44.58057" lon="6.87858">
        <ele>2741.8000488281</ele>
        <time>2020-02-18T10:26:08.000Z</time>
      </trkpt>
      <trkpt lat="44.58055" lon="6.87859">
        <ele>2741.8000488281</ele>
        <time>2020-02-18T10:26:15.000Z</time>
      </trkpt>
      <trkpt lat="44.58056" lon="6.87859">
        <ele>2741.8000488281</ele>
        <time>2020-02-18T10:26:17.000Z</time>
      </trkpt>
      <trkpt lat="44.58059" lon="6.8786">
        <ele>2741.8000488281</ele>
        <time>2020-02-18T10:26:22.000Z</time>
      </trkpt>
      <trkpt lat="44.58063" lon="6.87861">
        <ele>2741.8000488281</ele>
        <time>2020-02-18T10:26:25.000Z</time>
      </trkpt>
      <trkpt lat="44.58063" lon="6.87861">
        <ele>2741.8000488281</ele>
        <time>2020-02-18T10:26:26.000Z</time>
      </trkpt>
      <trkpt lat="44.58064" lon="6.87861">
        <ele>2741.8000488281</ele>
        <time>2020-02-18T10:26:27.000Z</time>
      </trkpt>
      <trkpt lat="44.58066" lon="6.87861">
        <ele>2742.8000488281</ele>
        <time>2020-02-18T10:26:29.000Z</time>
      </trkpt>
      <trkpt lat="44.58067" lon="6.87861">
        <ele>2743.3999023438</ele>
        <time>2020-02-18T10:26:31.000Z</time>
      </trkpt>
      <trkpt lat="44.58067" lon="6.87861">
        <ele>2743.1999511719</ele>
        <time>2020-02-18T10:26:32.000Z</time>
      </trkpt>
      <trkpt lat="44.58068" lon="6.87861">
        <ele>2743.1999511719</ele>
        <time>2020-02-18T10:26:33.000Z</time>
      </trkpt>
      <trkpt lat="44.58069" lon="6.8786">
        <ele>2743.3999023438</ele>
        <time>2020-02-18T10:26:35.000Z</time>
      </trkpt>
      <trkpt lat="44.58069" lon="6.8786">
        <ele>2743.3999023438</ele>
        <time>2020-02-18T10:26:36.000Z</time>
      </trkpt>
      <trkpt lat="44.58068" lon="6.87861">
        <ele>2743.6000976562</ele>
        <time>2020-02-18T10:26:47.000Z</time>
      </trkpt>
      <trkpt lat="44.58067" lon="6.8786">
        <ele>2743.6000976562</ele>
        <time>2020-02-18T10:26:51.000Z</time>
      </trkpt>
      <trkpt lat="44.58067" lon="6.87861">
        <ele>2743.6000976562</ele>
        <time>2020-02-18T10:26:54.000Z</time>
      </trkpt>
      <trkpt lat="44.58072" lon="6.8786">
        <ele>2743.8000488281</ele>
        <time>2020-02-18T10:27:05.000Z</time>
      </trkpt>
      <trkpt lat="44.58074" lon="6.87859">
        <ele>2744</ele>
        <time>2020-02-18T10:27:08.000Z</time>
      </trkpt>
      <trkpt lat="44.58074" lon="6.87858">
        <ele>2744</ele>
        <time>2020-02-18T10:27:09.000Z</time>
      </trkpt>
      <trkpt lat="44.58075" lon="6.87857">
        <ele>2744.1999511719</ele>
        <time>2020-02-18T10:27:10.000Z</time>
      </trkpt>
      <trkpt lat="44.58075" lon="6.87856">
        <ele>2744.3999023438</ele>
        <time>2020-02-18T10:27:11.000Z</time>
      </trkpt>
      <trkpt lat="44.58076" lon="6.87852">
        <ele>2744.8000488281</ele>
        <time>2020-02-18T10:27:14.000Z</time>
      </trkpt>
      <trkpt lat="44.58076" lon="6.87851">
        <ele>2745</ele>
        <time>2020-02-18T10:27:16.000Z</time>
      </trkpt>
      <trkpt lat="44.58076" lon="6.8785">
        <ele>2745</ele>
        <time>2020-02-18T10:27:17.000Z</time>
      </trkpt>
      <trkpt lat="44.58075" lon="6.87848">
        <ele>2745.3999023438</ele>
        <time>2020-02-18T10:27:22.000Z</time>
      </trkpt>
      <trkpt lat="44.58075" lon="6.87844">
        <ele>2745.8000488281</ele>
        <time>2020-02-18T10:27:28.000Z</time>
      </trkpt>
      <trkpt lat="44.58076" lon="6.87841">
        <ele>2746.1999511719</ele>
        <time>2020-02-18T10:27:31.000Z</time>
      </trkpt>
      <trkpt lat="44.58077" lon="6.87835">
        <ele>2746.8000488281</ele>
        <time>2020-02-18T10:27:35.000Z</time>
      </trkpt>
      <trkpt lat="44.58077" lon="6.87834">
        <ele>2747</ele>
        <time>2020-02-18T10:27:36.000Z</time>
      </trkpt>
      <trkpt lat="44.58079" lon="6.87832">
        <ele>2747.3999023438</ele>
        <time>2020-02-18T10:27:38.000Z</time>
      </trkpt>
      <trkpt lat="44.58083" lon="6.87831">
        <ele>2748.1999511719</ele>
        <time>2020-02-18T10:27:43.000Z</time>
      </trkpt>
      <trkpt lat="44.58083" lon="6.8783">
        <ele>2748.1999511719</ele>
        <time>2020-02-18T10:27:44.000Z</time>
      </trkpt>
      <trkpt lat="44.58086" lon="6.87824">
        <ele>2749</ele>
        <time>2020-02-18T10:27:50.000Z</time>
      </trkpt>
      <trkpt lat="44.58087" lon="6.87822">
        <ele>2749.1999511719</ele>
        <time>2020-02-18T10:27:52.000Z</time>
      </trkpt>
      <trkpt lat="44.58088" lon="6.87822">
        <ele>2749.1999511719</ele>
        <time>2020-02-18T10:27:53.000Z</time>
      </trkpt>
      <trkpt lat="44.58088" lon="6.8782">
        <ele>2749.3999023438</ele>
        <time>2020-02-18T10:27:54.000Z</time>
      </trkpt>
      <trkpt lat="44.58091" lon="6.87816">
        <ele>2750</ele>
        <time>2020-02-18T10:27:58.000Z</time>
      </trkpt>
      <trkpt lat="44.58092" lon="6.87815">
        <ele>2750.1999511719</ele>
        <time>2020-02-18T10:28:00.000Z</time>
      </trkpt>
      <trkpt lat="44.58093" lon="6.87814">
        <ele>2750.1999511719</ele>
        <time>2020-02-18T10:28:01.000Z</time>
      </trkpt>
      <trkpt lat="44.58101" lon="6.87815">
        <ele>2751.3999023438</ele>
        <time>2020-02-18T10:28:10.000Z</time>
      </trkpt>
      <trkpt lat="44.58103" lon="6.87815">
        <ele>2751.8000488281</ele>
        <time>2020-02-18T10:28:15.000Z</time>
      </trkpt>
      <trkpt lat="44.58102" lon="6.87815">
        <ele>2752</ele>
        <time>2020-02-18T10:28:21.000Z</time>
      </trkpt>
      <trkpt lat="44.58104" lon="6.87816">
        <ele>2752.3999023438</ele>
        <time>2020-02-18T10:28:28.000Z</time>
      </trkpt>
      <trkpt lat="44.58104" lon="6.87814">
        <ele>2752.8000488281</ele>
        <time>2020-02-18T10:28:34.000Z</time>
      </trkpt>
      <trkpt lat="44.58103" lon="6.87812">
        <ele>2752.6000976562</ele>
        <time>2020-02-18T10:28:44.000Z</time>
      </trkpt>
      <trkpt lat="44.58103" lon="6.87812">
        <ele>2752.6000976562</ele>
        <time>2020-02-18T10:28:47.000Z</time>
      </trkpt>
      <trkpt lat="44.58109" lon="6.87813">
        <ele>2752.8000488281</ele>
        <time>2020-02-18T10:28:51.000Z</time>
      </trkpt>
      <trkpt lat="44.58114" lon="6.87812">
        <ele>2752.8000488281</ele>
        <time>2020-02-18T10:29:00.000Z</time>
      </trkpt>
      <trkpt lat="44.58114" lon="6.87811">
        <ele>2752.8000488281</ele>
        <time>2020-02-18T10:29:03.000Z</time>
      </trkpt>
      <trkpt lat="44.58115" lon="6.87809">
        <ele>2752.8000488281</ele>
        <time>2020-02-18T10:29:06.000Z</time>
      </trkpt>
      <trkpt lat="44.58115" lon="6.87809">
        <ele>2753</ele>
        <time>2020-02-18T10:29:07.000Z</time>
      </trkpt>
      <trkpt lat="44.58115" lon="6.87808">
        <ele>2753</ele>
        <time>2020-02-18T10:29:08.000Z</time>
      </trkpt>
      <trkpt lat="44.58115" lon="6.87808">
        <ele>2753</ele>
        <time>2020-02-18T10:29:10.000Z</time>
      </trkpt>
      <trkpt lat="44.58115" lon="6.87808">
        <ele>2753</ele>
        <time>2020-02-18T10:29:11.000Z</time>
      </trkpt>
      <trkpt lat="44.58117" lon="6.87807">
        <ele>2753</ele>
        <time>2020-02-18T10:29:18.000Z</time>
      </trkpt>
      <trkpt lat="44.58117" lon="6.87807">
        <ele>2753</ele>
        <time>2020-02-18T10:29:20.000Z</time>
      </trkpt>
      <trkpt lat="44.58117" lon="6.87807">
        <ele>2752.8000488281</ele>
        <time>2020-02-18T10:29:21.000Z</time>
      </trkpt>
      <trkpt lat="44.58117" lon="6.87807">
        <ele>2752.8000488281</ele>
        <time>2020-02-18T10:29:22.000Z</time>
      </trkpt>
      <trkpt lat="44.58116" lon="6.87808">
        <ele>2752.8000488281</ele>
        <time>2020-02-18T10:29:27.000Z</time>
      </trkpt>
      <trkpt lat="44.58115" lon="6.87809">
        <ele>2752.8000488281</ele>
        <time>2020-02-18T10:29:29.000Z</time>
      </trkpt>
      <trkpt lat="44.58114" lon="6.87809">
        <ele>2752.8000488281</ele>
        <time>2020-02-18T10:29:30.000Z</time>
      </trkpt>
      <trkpt lat="44.58113" lon="6.8781">
        <ele>2753</ele>
        <time>2020-02-18T10:29:33.000Z</time>
      </trkpt>
      <trkpt lat="44.58113" lon="6.8781">
        <ele>2753</ele>
        <time>2020-02-18T10:29:34.000Z</time>
      </trkpt>
      <trkpt lat="44.58112" lon="6.87811">
        <ele>2753</ele>
        <time>2020-02-18T10:29:36.000Z</time>
      </trkpt>
      <trkpt lat="44.58113" lon="6.8781">
        <ele>2753</ele>
        <time>2020-02-18T10:29:41.000Z</time>
      </trkpt>
      <trkpt lat="44.58115" lon="6.8781">
        <ele>2753</ele>
        <time>2020-02-18T10:29:44.000Z</time>
      </trkpt>
      <trkpt lat="44.58117" lon="6.87804">
        <ele>2754.1999511719</ele>
        <time>2020-02-18T10:29:54.000Z</time>
      </trkpt>
      <trkpt lat="44.58116" lon="6.87805">
        <ele>2755.3999023438</ele>
        <time>2020-02-18T10:29:58.000Z</time>
      </trkpt>
      <trkpt lat="44.58118" lon="6.87804">
        <ele>2755.6000976562</ele>
        <time>2020-02-18T10:30:03.000Z</time>
      </trkpt>
      <trkpt lat="44.58119" lon="6.87803">
        <ele>2756</ele>
        <time>2020-02-18T10:30:06.000Z</time>
      </trkpt>
      <trkpt lat="44.58121" lon="6.87802">
        <ele>2756.6000976562</ele>
        <time>2020-02-18T10:30:09.000Z</time>
      </trkpt>
      <trkpt lat="44.58132" lon="6.87798">
        <ele>2757.6000976562</ele>
        <time>2020-02-18T10:30:23.000Z</time>
      </trkpt>
      <trkpt lat="44.58136" lon="6.87796">
        <ele>2758.1999511719</ele>
        <time>2020-02-18T10:30:29.000Z</time>
      </trkpt>
      <trkpt lat="44.58136" lon="6.87796">
        <ele>2758.3999023438</ele>
        <time>2020-02-18T10:30:31.000Z</time>
      </trkpt>
      <trkpt lat="44.58135" lon="6.87796">
        <ele>2758.6000976562</ele>
        <time>2020-02-18T10:30:32.000Z</time>
      </trkpt>
      <trkpt lat="44.58133" lon="6.87795">
        <ele>2758.8000488281</ele>
        <time>2020-02-18T10:30:35.000Z</time>
      </trkpt>
      <trkpt lat="44.58133" lon="6.87793">
        <ele>2758.8000488281</ele>
        <time>2020-02-18T10:30:37.000Z</time>
      </trkpt>
      <trkpt lat="44.58131" lon="6.87791">
        <ele>2759</ele>
        <time>2020-02-18T10:30:39.000Z</time>
      </trkpt>
      <trkpt lat="44.58129" lon="6.87789">
        <ele>2759.1999511719</ele>
        <time>2020-02-18T10:30:41.000Z</time>
      </trkpt>
      <trkpt lat="44.58129" lon="6.87787">
        <ele>2759.1999511719</ele>
        <time>2020-02-18T10:30:43.000Z</time>
      </trkpt>
      <trkpt lat="44.5813" lon="6.87783">
        <ele>2759.6000976562</ele>
        <time>2020-02-18T10:30:48.000Z</time>
      </trkpt>
      <trkpt lat="44.5813" lon="6.87783">
        <ele>2759.6000976562</ele>
        <time>2020-02-18T10:30:49.000Z</time>
      </trkpt>
      <trkpt lat="44.5813" lon="6.87781">
        <ele>2760</ele>
        <time>2020-02-18T10:30:52.000Z</time>
      </trkpt>
      <trkpt lat="44.5813" lon="6.87775">
        <ele>2760.8000488281</ele>
        <time>2020-02-18T10:30:57.000Z</time>
      </trkpt>
      <trkpt lat="44.58134" lon="6.87771">
        <ele>2761.8000488281</ele>
        <time>2020-02-18T10:31:06.000Z</time>
      </trkpt>
      <trkpt lat="44.58137" lon="6.87768">
        <ele>2763</ele>
        <time>2020-02-18T10:31:15.000Z</time>
      </trkpt>
      <trkpt lat="44.58139" lon="6.87766">
        <ele>2763.3999023438</ele>
        <time>2020-02-18T10:31:19.000Z</time>
      </trkpt>
      <trkpt lat="44.5814" lon="6.87764">
        <ele>2764.1999511719</ele>
        <time>2020-02-18T10:31:23.000Z</time>
      </trkpt>
      <trkpt lat="44.5814" lon="6.87763">
        <ele>2764.1999511719</ele>
        <time>2020-02-18T10:31:24.000Z</time>
      </trkpt>
      <trkpt lat="44.58142" lon="6.87762">
        <ele>2764.6000976562</ele>
        <time>2020-02-18T10:31:27.000Z</time>
      </trkpt>
      <trkpt lat="44.58143" lon="6.87759">
        <ele>2764.8000488281</ele>
        <time>2020-02-18T10:31:30.000Z</time>
      </trkpt>
      <trkpt lat="44.58144" lon="6.87759">
        <ele>2765</ele>
        <time>2020-02-18T10:31:31.000Z</time>
      </trkpt>
      <trkpt lat="44.58144" lon="6.87758">
        <ele>2765</ele>
        <time>2020-02-18T10:31:32.000Z</time>
      </trkpt>
      <trkpt lat="44.58144" lon="6.87757">
        <ele>2765.1999511719</ele>
        <time>2020-02-18T10:31:33.000Z</time>
      </trkpt>
      <trkpt lat="44.58146" lon="6.87752">
        <ele>2766.1999511719</ele>
        <time>2020-02-18T10:31:39.000Z</time>
      </trkpt>
      <trkpt lat="44.58147" lon="6.87751">
        <ele>2766.8000488281</ele>
        <time>2020-02-18T10:31:42.000Z</time>
      </trkpt>
      <trkpt lat="44.58147" lon="6.87747">
        <ele>2766.6000976562</ele>
        <time>2020-02-18T10:31:58.000Z</time>
      </trkpt>
      <trkpt lat="44.58146" lon="6.87745">
        <ele>2766.6000976562</ele>
        <time>2020-02-18T10:32:02.000Z</time>
      </trkpt>
      <trkpt lat="44.58146" lon="6.87744">
        <ele>2767</ele>
        <time>2020-02-18T10:32:12.000Z</time>
      </trkpt>
      <trkpt lat="44.58146" lon="6.87743">
        <ele>2767</ele>
        <time>2020-02-18T10:32:14.000Z</time>
      </trkpt>
      <trkpt lat="44.58146" lon="6.87743">
        <ele>2766.8000488281</ele>
        <time>2020-02-18T10:32:20.000Z</time>
      </trkpt>
      <trkpt lat="44.58147" lon="6.87743">
        <ele>2766.8000488281</ele>
        <time>2020-02-18T10:32:25.000Z</time>
      </trkpt>
      <trkpt lat="44.58147" lon="6.87742">
        <ele>2766.8000488281</ele>
        <time>2020-02-18T10:32:27.000Z</time>
      </trkpt>
      <trkpt lat="44.58147" lon="6.87743">
        <ele>2767</ele>
        <time>2020-02-18T10:32:34.000Z</time>
      </trkpt>
      <trkpt lat="44.58147" lon="6.87743">
        <ele>2766.8000488281</ele>
        <time>2020-02-18T10:32:38.000Z</time>
      </trkpt>
      <trkpt lat="44.58147" lon="6.87743">
        <ele>2766.8000488281</ele>
        <time>2020-02-18T10:32:43.000Z</time>
      </trkpt>
      <trkpt lat="44.58147" lon="6.87743">
        <ele>2766.8000488281</ele>
        <time>2020-02-18T10:32:45.000Z</time>
      </trkpt>
      <trkpt lat="44.58147" lon="6.87743">
        <ele>2766.8000488281</ele>
        <time>2020-02-18T10:32:46.000Z</time>
      </trkpt>
      <trkpt lat="44.58147" lon="6.87743">
        <ele>2767</ele>
        <time>2020-02-18T10:32:47.000Z</time>
      </trkpt>
      <trkpt lat="44.58147" lon="6.87743">
        <ele>2767</ele>
        <time>2020-02-18T10:32:48.000Z</time>
      </trkpt>
      <trkpt lat="44.58147" lon="6.87743">
        <ele>2767.1999511719</ele>
        <time>2020-02-18T10:32:49.000Z</time>
      </trkpt>
      <trkpt lat="44.58147" lon="6.87744">
        <ele>2767.1999511719</ele>
        <time>2020-02-18T10:32:53.000Z</time>
      </trkpt>
      <trkpt lat="44.58147" lon="6.87745">
        <ele>2767.1999511719</ele>
        <time>2020-02-18T10:32:54.000Z</time>
      </trkpt>
      <trkpt lat="44.58147" lon="6.87746">
        <ele>2767.1999511719</ele>
        <time>2020-02-18T10:32:56.000Z</time>
      </trkpt>
      <trkpt lat="44.58147" lon="6.87745">
        <ele>2767.1999511719</ele>
        <time>2020-02-18T10:33:04.000Z</time>
      </trkpt>
      <trkpt lat="44.58147" lon="6.87744">
        <ele>2767.1999511719</ele>
        <time>2020-02-18T10:33:05.000Z</time>
      </trkpt>
      <trkpt lat="44.58147" lon="6.87744">
        <ele>2767.1999511719</ele>
        <time>2020-02-18T10:33:06.000Z</time>
      </trkpt>
      <trkpt lat="44.58147" lon="6.87743">
        <ele>2767.1999511719</ele>
        <time>2020-02-18T10:33:09.000Z</time>
      </trkpt>
      <trkpt lat="44.58147" lon="6.87743">
        <ele>2767.1999511719</ele>
        <time>2020-02-18T10:33:10.000Z</time>
      </trkpt>
      <trkpt lat="44.58147" lon="6.87742">
        <ele>2767.1999511719</ele>
        <time>2020-02-18T10:33:11.000Z</time>
      </trkpt>
      <trkpt lat="44.58147" lon="6.87741">
        <ele>2767.1999511719</ele>
        <time>2020-02-18T10:33:12.000Z</time>
      </trkpt>
      <trkpt lat="44.58147" lon="6.87741">
        <ele>2767.1999511719</ele>
        <time>2020-02-18T10:33:14.000Z</time>
      </trkpt>
      <trkpt lat="44.58147" lon="6.87742">
        <ele>2767.1999511719</ele>
        <time>2020-02-18T10:33:15.000Z</time>
      </trkpt>
      <trkpt lat="44.58147" lon="6.87742">
        <ele>2767.1999511719</ele>
        <time>2020-02-18T10:33:16.000Z</time>
      </trkpt>
      <trkpt lat="44.58148" lon="6.87742">
        <ele>2767.1999511719</ele>
        <time>2020-02-18T10:33:17.000Z</time>
      </trkpt>
      <trkpt lat="44.58148" lon="6.87743">
        <ele>2767.1999511719</ele>
        <time>2020-02-18T10:33:20.000Z</time>
      </trkpt>
      <trkpt lat="44.58149" lon="6.87744">
        <ele>2767.1999511719</ele>
        <time>2020-02-18T10:33:24.000Z</time>
      </trkpt>
      <trkpt lat="44.5815" lon="6.87744">
        <ele>2767.1999511719</ele>
        <time>2020-02-18T10:33:25.000Z</time>
      </trkpt>
      <trkpt lat="44.5815" lon="6.87743">
        <ele>2767.1999511719</ele>
        <time>2020-02-18T10:33:26.000Z</time>
      </trkpt>
      <trkpt lat="44.58151" lon="6.87742">
        <ele>2767.1999511719</ele>
        <time>2020-02-18T10:33:27.000Z</time>
      </trkpt>
      <trkpt lat="44.58151" lon="6.87741">
        <ele>2767.1999511719</ele>
        <time>2020-02-18T10:33:28.000Z</time>
      </trkpt>
      <trkpt lat="44.58154" lon="6.87737">
        <ele>2768</ele>
        <time>2020-02-18T10:33:34.000Z</time>
      </trkpt>
      <trkpt lat="44.58155" lon="6.87735">
        <ele>2769</ele>
        <time>2020-02-18T10:33:36.000Z</time>
      </trkpt>
      <trkpt lat="44.58155" lon="6.87734">
        <ele>2769.1999511719</ele>
        <time>2020-02-18T10:33:37.000Z</time>
      </trkpt>
      <trkpt lat="44.58156" lon="6.87732">
        <ele>2769.1999511719</ele>
        <time>2020-02-18T10:33:39.000Z</time>
      </trkpt>
      <trkpt lat="44.58157" lon="6.8773">
        <ele>2769.3999023438</ele>
        <time>2020-02-18T10:33:45.000Z</time>
      </trkpt>
      <trkpt lat="44.58157" lon="6.87729">
        <ele>2769.8000488281</ele>
        <time>2020-02-18T10:33:52.000Z</time>
      </trkpt>
      <trkpt lat="44.58158" lon="6.87726">
        <ele>2769.8000488281</ele>
        <time>2020-02-18T10:34:03.000Z</time>
      </trkpt>
      <trkpt lat="44.58159" lon="6.87728">
        <ele>2769.3999023438</ele>
        <time>2020-02-18T10:34:11.000Z</time>
      </trkpt>
      <trkpt lat="44.58159" lon="6.87728">
        <ele>2769.3999023438</ele>
        <time>2020-02-18T10:34:13.000Z</time>
      </trkpt>
      <trkpt lat="44.58161" lon="6.87726">
        <ele>2769.6000976562</ele>
        <time>2020-02-18T10:34:16.000Z</time>
      </trkpt>
      <trkpt lat="44.58161" lon="6.87726">
        <ele>2769.8000488281</ele>
        <time>2020-02-18T10:34:17.000Z</time>
      </trkpt>
      <trkpt lat="44.58162" lon="6.87725">
        <ele>2769.6000976562</ele>
        <time>2020-02-18T10:34:25.000Z</time>
      </trkpt>
      <trkpt lat="44.58161" lon="6.87725">
        <ele>2769.6000976562</ele>
        <time>2020-02-18T10:34:27.000Z</time>
      </trkpt>
      <trkpt lat="44.5817" lon="6.87727">
        <ele>2769.6000976562</ele>
        <time>2020-02-18T10:34:34.000Z</time>
      </trkpt>
      <trkpt lat="44.58175" lon="6.87728">
        <ele>2769.6000976562</ele>
        <time>2020-02-18T10:34:38.000Z</time>
      </trkpt>
      <trkpt lat="44.58169" lon="6.87726">
        <ele>2769.6000976562</ele>
        <time>2020-02-18T10:34:43.000Z</time>
      </trkpt>
      <trkpt lat="44.58165" lon="6.87724">
        <ele>2769.6000976562</ele>
        <time>2020-02-18T10:34:47.000Z</time>
      </trkpt>
      <trkpt lat="44.58164" lon="6.87723">
        <ele>2769.8000488281</ele>
        <time>2020-02-18T10:34:50.000Z</time>
      </trkpt>
      <trkpt lat="44.58164" lon="6.87723">
        <ele>2769.8000488281</ele>
        <time>2020-02-18T10:34:51.000Z</time>
      </trkpt>
      <trkpt lat="44.58163" lon="6.87723">
        <ele>2769.8000488281</ele>
        <time>2020-02-18T10:34:53.000Z</time>
      </trkpt>
      <trkpt lat="44.58163" lon="6.87723">
        <ele>2769.8000488281</ele>
        <time>2020-02-18T10:34:54.000Z</time>
      </trkpt>
      <trkpt lat="44.58163" lon="6.87723">
        <ele>2769.8000488281</ele>
        <time>2020-02-18T10:34:55.000Z</time>
      </trkpt>
      <trkpt lat="44.58163" lon="6.87723">
        <ele>2769.8000488281</ele>
        <time>2020-02-18T10:34:56.000Z</time>
      </trkpt>
      <trkpt lat="44.58169" lon="6.87722">
        <ele>2769.8000488281</ele>
        <time>2020-02-18T10:35:01.000Z</time>
      </trkpt>
      <trkpt lat="44.5817" lon="6.87722">
        <ele>2769.8000488281</ele>
        <time>2020-02-18T10:35:02.000Z</time>
      </trkpt>
      <trkpt lat="44.5817" lon="6.87722">
        <ele>2769.8000488281</ele>
        <time>2020-02-18T10:35:03.000Z</time>
      </trkpt>
      <trkpt lat="44.58171" lon="6.87722">
        <ele>2769.8000488281</ele>
        <time>2020-02-18T10:35:04.000Z</time>
      </trkpt>
      <trkpt lat="44.58171" lon="6.87722">
        <ele>2769.6000976562</ele>
        <time>2020-02-18T10:35:06.000Z</time>
      </trkpt>
      <trkpt lat="44.5817" lon="6.87723">
        <ele>2769.6000976562</ele>
        <time>2020-02-18T10:35:12.000Z</time>
      </trkpt>
      <trkpt lat="44.5817" lon="6.87723">
        <ele>2769.6000976562</ele>
        <time>2020-02-18T10:35:14.000Z</time>
      </trkpt>
      <trkpt lat="44.58169" lon="6.87723">
        <ele>2769.6000976562</ele>
        <time>2020-02-18T10:35:17.000Z</time>
      </trkpt>
      <trkpt lat="44.58169" lon="6.87723">
        <ele>2769.6000976562</ele>
        <time>2020-02-18T10:35:19.000Z</time>
      </trkpt>
      <trkpt lat="44.58168" lon="6.87723">
        <ele>2769.6000976562</ele>
        <time>2020-02-18T10:35:21.000Z</time>
      </trkpt>
      <trkpt lat="44.58167" lon="6.87723">
        <ele>2769.8000488281</ele>
        <time>2020-02-18T10:35:22.000Z</time>
      </trkpt>
      <trkpt lat="44.58166" lon="6.87723">
        <ele>2769.8000488281</ele>
        <time>2020-02-18T10:35:24.000Z</time>
      </trkpt>
      <trkpt lat="44.58165" lon="6.87723">
        <ele>2769.8000488281</ele>
        <time>2020-02-18T10:35:26.000Z</time>
      </trkpt>
      <trkpt lat="44.58165" lon="6.87724">
        <ele>2769.8000488281</ele>
        <time>2020-02-18T10:35:27.000Z</time>
      </trkpt>
      <trkpt lat="44.58163" lon="6.87723">
        <ele>2769.8000488281</ele>
        <time>2020-02-18T10:35:30.000Z</time>
      </trkpt>
      <trkpt lat="44.58163" lon="6.87723">
        <ele>2769.8000488281</ele>
        <time>2020-02-18T10:35:31.000Z</time>
      </trkpt>
      <trkpt lat="44.58162" lon="6.87723">
        <ele>2769.8000488281</ele>
        <time>2020-02-18T10:35:32.000Z</time>
      </trkpt>
      <trkpt lat="44.58161" lon="6.87723">
        <ele>2769.8000488281</ele>
        <time>2020-02-18T10:35:36.000Z</time>
      </trkpt>
      <trkpt lat="44.58161" lon="6.87723">
        <ele>2769.8000488281</ele>
        <time>2020-02-18T10:35:39.000Z</time>
      </trkpt>
      <trkpt lat="44.58163" lon="6.87723">
        <ele>2770</ele>
        <time>2020-02-18T10:35:42.000Z</time>
      </trkpt>
      <trkpt lat="44.58164" lon="6.87722">
        <ele>2770</ele>
        <time>2020-02-18T10:35:43.000Z</time>
      </trkpt>
      <trkpt lat="44.58167" lon="6.87722">
        <ele>2770.1999511719</ele>
        <time>2020-02-18T10:35:46.000Z</time>
      </trkpt>
      <trkpt lat="44.5817" lon="6.87721">
        <ele>2771</ele>
        <time>2020-02-18T10:35:50.000Z</time>
      </trkpt>
      <trkpt lat="44.5817" lon="6.87721">
        <ele>2771.1999511719</ele>
        <time>2020-02-18T10:35:52.000Z</time>
      </trkpt>
      <trkpt lat="44.5817" lon="6.87721">
        <ele>2771.1999511719</ele>
        <time>2020-02-18T10:35:54.000Z</time>
      </trkpt>
      <trkpt lat="44.58171" lon="6.8772">
        <ele>2771.6000976562</ele>
        <time>2020-02-18T10:35:57.000Z</time>
      </trkpt>
      <trkpt lat="44.58173" lon="6.8772">
        <ele>2771.8000488281</ele>
        <time>2020-02-18T10:35:59.000Z</time>
      </trkpt>
      <trkpt lat="44.58176" lon="6.87719">
        <ele>2772.1999511719</ele>
        <time>2020-02-18T10:36:03.000Z</time>
      </trkpt>
      <trkpt lat="44.58179" lon="6.87718">
        <ele>2772.8000488281</ele>
        <time>2020-02-18T10:36:07.000Z</time>
      </trkpt>
      <trkpt lat="44.5818" lon="6.87718">
        <ele>2773.1999511719</ele>
        <time>2020-02-18T10:36:10.000Z</time>
      </trkpt>
      <trkpt lat="44.5818" lon="6.87717">
        <ele>2773.1999511719</ele>
        <time>2020-02-18T10:36:11.000Z</time>
      </trkpt>
      <trkpt lat="44.58185" lon="6.87717">
        <ele>2773.8000488281</ele>
        <time>2020-02-18T10:36:17.000Z</time>
      </trkpt>
      <trkpt lat="44.58189" lon="6.87715">
        <ele>2774.1999511719</ele>
        <time>2020-02-18T10:36:23.000Z</time>
      </trkpt>
      <trkpt lat="44.58194" lon="6.87714">
        <ele>2775</ele>
        <time>2020-02-18T10:36:30.000Z</time>
      </trkpt>
      <trkpt lat="44.58198" lon="6.87711">
        <ele>2775.3999023438</ele>
        <time>2020-02-18T10:36:35.000Z</time>
      </trkpt>
      <trkpt lat="44.58204" lon="6.87708">
        <ele>2776.3999023438</ele>
        <time>2020-02-18T10:36:43.000Z</time>
      </trkpt>
      <trkpt lat="44.58208" lon="6.87706">
        <ele>2777.1999511719</ele>
        <time>2020-02-18T10:36:50.000Z</time>
      </trkpt>
      <trkpt lat="44.58208" lon="6.87706">
        <ele>2777.3999023438</ele>
        <time>2020-02-18T10:36:51.000Z</time>
      </trkpt>
      <trkpt lat="44.58208" lon="6.87706">
        <ele>2777.6000976562</ele>
        <time>2020-02-18T10:36:52.000Z</time>
      </trkpt>
      <trkpt lat="44.58206" lon="6.87709">
        <ele>2777.8000488281</ele>
        <time>2020-02-18T10:37:04.000Z</time>
      </trkpt>
      <trkpt lat="44.58207" lon="6.87709">
        <ele>2777.8000488281</ele>
        <time>2020-02-18T10:37:10.000Z</time>
      </trkpt>
      <trkpt lat="44.58207" lon="6.87709">
        <ele>2777.8000488281</ele>
        <time>2020-02-18T10:37:14.000Z</time>
      </trkpt>
      <trkpt lat="44.58206" lon="6.87709">
        <ele>2777.8000488281</ele>
        <time>2020-02-18T10:37:16.000Z</time>
      </trkpt>
      <trkpt lat="44.58206" lon="6.87712">
        <ele>2777.8000488281</ele>
        <time>2020-02-18T10:37:29.000Z</time>
      </trkpt>
      <trkpt lat="44.58206" lon="6.87712">
        <ele>2777.8000488281</ele>
        <time>2020-02-18T10:37:31.000Z</time>
      </trkpt>
      <trkpt lat="44.58206" lon="6.87712">
        <ele>2777.8000488281</ele>
        <time>2020-02-18T10:37:32.000Z</time>
      </trkpt>
      <trkpt lat="44.58207" lon="6.87711">
        <ele>2777.8000488281</ele>
        <time>2020-02-18T10:37:34.000Z</time>
      </trkpt>
      <trkpt lat="44.58209" lon="6.87709">
        <ele>2777.8000488281</ele>
        <time>2020-02-18T10:37:36.000Z</time>
      </trkpt>
      <trkpt lat="44.58211" lon="6.87709">
        <ele>2778.3999023438</ele>
        <time>2020-02-18T10:37:42.000Z</time>
      </trkpt>
      <trkpt lat="44.58211" lon="6.87708">
        <ele>2778.3999023438</ele>
        <time>2020-02-18T10:37:43.000Z</time>
      </trkpt>
      <trkpt lat="44.58212" lon="6.87708">
        <ele>2778.3999023438</ele>
        <time>2020-02-18T10:37:44.000Z</time>
      </trkpt>
      <trkpt lat="44.58213" lon="6.87708">
        <ele>2778.3999023438</ele>
        <time>2020-02-18T10:37:45.000Z</time>
      </trkpt>
      <trkpt lat="44.58214" lon="6.87708">
        <ele>2778.6000976562</ele>
        <time>2020-02-18T10:37:48.000Z</time>
      </trkpt>
      <trkpt lat="44.58215" lon="6.87707">
        <ele>2778.8000488281</ele>
        <time>2020-02-18T10:37:50.000Z</time>
      </trkpt>
      <trkpt lat="44.58216" lon="6.87706">
        <ele>2779.3999023438</ele>
        <time>2020-02-18T10:37:53.000Z</time>
      </trkpt>
      <trkpt lat="44.58217" lon="6.87705">
        <ele>2779.6000976562</ele>
        <time>2020-02-18T10:37:54.000Z</time>
      </trkpt>
      <trkpt lat="44.58218" lon="6.87703">
        <ele>2780.6000976562</ele>
        <time>2020-02-18T10:38:00.000Z</time>
      </trkpt>
      <trkpt lat="44.58221" lon="6.87701">
        <ele>2781.3999023438</ele>
        <time>2020-02-18T10:38:05.000Z</time>
      </trkpt>
      <trkpt lat="44.58222" lon="6.87701">
        <ele>2781.8000488281</ele>
        <time>2020-02-18T10:38:07.000Z</time>
      </trkpt>
      <trkpt lat="44.58224" lon="6.87697">
        <ele>2782.8000488281</ele>
        <time>2020-02-18T10:38:13.000Z</time>
      </trkpt>
      <trkpt lat="44.58225" lon="6.87697">
        <ele>2782.8000488281</ele>
        <time>2020-02-18T10:38:14.000Z</time>
      </trkpt>
      <trkpt lat="44.58226" lon="6.87697">
        <ele>2783.1999511719</ele>
        <time>2020-02-18T10:38:16.000Z</time>
      </trkpt>
      <trkpt lat="44.58226" lon="6.87696">
        <ele>2783.3999023438</ele>
        <time>2020-02-18T10:38:17.000Z</time>
      </trkpt>
      <trkpt lat="44.58228" lon="6.87693">
        <ele>2784</ele>
        <time>2020-02-18T10:38:21.000Z</time>
      </trkpt>
      <trkpt lat="44.5823" lon="6.87692">
        <ele>2784.6000976562</ele>
        <time>2020-02-18T10:38:26.000Z</time>
      </trkpt>
      <trkpt lat="44.5823" lon="6.87693">
        <ele>2785</ele>
        <time>2020-02-18T10:38:30.000Z</time>
      </trkpt>
      <trkpt lat="44.58233" lon="6.87691">
        <ele>2786</ele>
        <time>2020-02-18T10:38:39.000Z</time>
      </trkpt>
      <trkpt lat="44.58236" lon="6.87689">
        <ele>2787.1999511719</ele>
        <time>2020-02-18T10:38:45.000Z</time>
      </trkpt>
      <trkpt lat="44.5824" lon="6.87685">
        <ele>2788.1999511719</ele>
        <time>2020-02-18T10:38:52.000Z</time>
      </trkpt>
      <trkpt lat="44.58243" lon="6.87685">
        <ele>2789.3999023438</ele>
        <time>2020-02-18T10:38:59.000Z</time>
      </trkpt>
      <trkpt lat="44.58243" lon="6.8768">
        <ele>2789.3999023438</ele>
        <time>2020-02-18T10:39:23.000Z</time>
      </trkpt>
      <trkpt lat="44.58244" lon="6.87679">
        <ele>2789.3999023438</ele>
        <time>2020-02-18T10:39:27.000Z</time>
      </trkpt>
      <trkpt lat="44.58245" lon="6.8768">
        <ele>2789.6000976562</ele>
        <time>2020-02-18T10:39:30.000Z</time>
      </trkpt>
      <trkpt lat="44.58246" lon="6.87681">
        <ele>2789.6000976562</ele>
        <time>2020-02-18T10:39:36.000Z</time>
      </trkpt>
      <trkpt lat="44.58247" lon="6.87682">
        <ele>2789.6000976562</ele>
        <time>2020-02-18T10:39:45.000Z</time>
      </trkpt>
      <trkpt lat="44.58246" lon="6.87682">
        <ele>2789.6000976562</ele>
        <time>2020-02-18T10:39:46.000Z</time>
      </trkpt>
      <trkpt lat="44.58246" lon="6.8768">
        <ele>2789.6000976562</ele>
        <time>2020-02-18T10:39:48.000Z</time>
      </trkpt>
      <trkpt lat="44.58245" lon="6.87678">
        <ele>2789.6000976562</ele>
        <time>2020-02-18T10:39:51.000Z</time>
      </trkpt>
      <trkpt lat="44.58245" lon="6.87677">
        <ele>2789.6000976562</ele>
        <time>2020-02-18T10:39:52.000Z</time>
      </trkpt>
      <trkpt lat="44.58245" lon="6.87677">
        <ele>2789.6000976562</ele>
        <time>2020-02-18T10:39:53.000Z</time>
      </trkpt>
      <trkpt lat="44.58245" lon="6.87677">
        <ele>2789.6000976562</ele>
        <time>2020-02-18T10:39:56.000Z</time>
      </trkpt>
      <trkpt lat="44.58247" lon="6.87677">
        <ele>2789.8000488281</ele>
        <time>2020-02-18T10:40:02.000Z</time>
      </trkpt>
      <trkpt lat="44.58247" lon="6.87676">
        <ele>2789.8000488281</ele>
        <time>2020-02-18T10:40:03.000Z</time>
      </trkpt>
      <trkpt lat="44.58248" lon="6.87676">
        <ele>2789.8000488281</ele>
        <time>2020-02-18T10:40:04.000Z</time>
      </trkpt>
      <trkpt lat="44.58248" lon="6.87675">
        <ele>2790</ele>
        <time>2020-02-18T10:40:05.000Z</time>
      </trkpt>
      <trkpt lat="44.58249" lon="6.87675">
        <ele>2790</ele>
        <time>2020-02-18T10:40:06.000Z</time>
      </trkpt>
      <trkpt lat="44.58249" lon="6.87674">
        <ele>2790</ele>
        <time>2020-02-18T10:40:09.000Z</time>
      </trkpt>
      <trkpt lat="44.58249" lon="6.87674">
        <ele>2790</ele>
        <time>2020-02-18T10:40:10.000Z</time>
      </trkpt>
      <trkpt lat="44.58248" lon="6.87675">
        <ele>2789.8000488281</ele>
        <time>2020-02-18T10:40:14.000Z</time>
      </trkpt>
      <trkpt lat="44.58248" lon="6.87674">
        <ele>2789.8000488281</ele>
        <time>2020-02-18T10:40:15.000Z</time>
      </trkpt>
      <trkpt lat="44.58248" lon="6.87675">
        <ele>2789.8000488281</ele>
        <time>2020-02-18T10:40:17.000Z</time>
      </trkpt>
      <trkpt lat="44.58248" lon="6.87675">
        <ele>2789.8000488281</ele>
        <time>2020-02-18T10:40:18.000Z</time>
      </trkpt>
      <trkpt lat="44.58248" lon="6.87675">
        <ele>2789.8000488281</ele>
        <time>2020-02-18T10:40:19.000Z</time>
      </trkpt>
      <trkpt lat="44.58248" lon="6.87675">
        <ele>2789.8000488281</ele>
        <time>2020-02-18T10:40:21.000Z</time>
      </trkpt>
      <trkpt lat="44.58248" lon="6.87675">
        <ele>2789.8000488281</ele>
        <time>2020-02-18T10:40:25.000Z</time>
      </trkpt>
      <trkpt lat="44.58248" lon="6.87675">
        <ele>2789.8000488281</ele>
        <time>2020-02-18T10:40:28.000Z</time>
      </trkpt>
      <trkpt lat="44.58248" lon="6.87675">
        <ele>2789.8000488281</ele>
        <time>2020-02-18T10:40:29.000Z</time>
      </trkpt>
      <trkpt lat="44.58248" lon="6.87675">
        <ele>2789.8000488281</ele>
        <time>2020-02-18T10:40:30.000Z</time>
      </trkpt>
      <trkpt lat="44.58248" lon="6.87675">
        <ele>2789.8000488281</ele>
        <time>2020-02-18T10:40:31.000Z</time>
      </trkpt>
      <trkpt lat="44.58248" lon="6.87674">
        <ele>2789.8000488281</ele>
        <time>2020-02-18T10:40:33.000Z</time>
      </trkpt>
      <trkpt lat="44.58248" lon="6.87674">
        <ele>2789.8000488281</ele>
        <time>2020-02-18T10:40:34.000Z</time>
      </trkpt>
      <trkpt lat="44.58249" lon="6.87672">
        <ele>2789.8000488281</ele>
        <time>2020-02-18T10:40:37.000Z</time>
      </trkpt>
      <trkpt lat="44.5825" lon="6.87671">
        <ele>2789.8000488281</ele>
        <time>2020-02-18T10:40:39.000Z</time>
      </trkpt>
      <trkpt lat="44.58252" lon="6.87671">
        <ele>2789.8000488281</ele>
        <time>2020-02-18T10:40:44.000Z</time>
      </trkpt>
      <trkpt lat="44.58254" lon="6.87674">
        <ele>2789.8000488281</ele>
        <time>2020-02-18T10:40:49.000Z</time>
      </trkpt>
      <trkpt lat="44.58256" lon="6.87676">
        <ele>2789.8000488281</ele>
        <time>2020-02-18T10:40:52.000Z</time>
      </trkpt>
      <trkpt lat="44.5826" lon="6.87676">
        <ele>2789.8000488281</ele>
        <time>2020-02-18T10:40:58.000Z</time>
      </trkpt>
      <trkpt lat="44.58262" lon="6.87674">
        <ele>2789.8000488281</ele>
        <time>2020-02-18T10:41:03.000Z</time>
      </trkpt>
      <trkpt lat="44.58259" lon="6.87675">
        <ele>2793.1999511719</ele>
        <time>2020-02-18T10:41:13.000Z</time>
      </trkpt>
      <trkpt lat="44.58257" lon="6.87675">
        <ele>2793.6000976562</ele>
        <time>2020-02-18T10:41:30.000Z</time>
      </trkpt>
      <trkpt lat="44.58257" lon="6.87676">
        <ele>2793.6000976562</ele>
        <time>2020-02-18T10:41:33.000Z</time>
      </trkpt>
      <trkpt lat="44.58257" lon="6.87676">
        <ele>2793.3999023438</ele>
        <time>2020-02-18T10:41:40.000Z</time>
      </trkpt>
      <trkpt lat="44.58257" lon="6.87676">
        <ele>2793.3999023438</ele>
        <time>2020-02-18T10:41:45.000Z</time>
      </trkpt>
      <trkpt lat="44.58257" lon="6.87676">
        <ele>2793.3999023438</ele>
        <time>2020-02-18T10:41:48.000Z</time>
      </trkpt>
      <trkpt lat="44.58257" lon="6.87676">
        <ele>2793.6000976562</ele>
        <time>2020-02-18T10:41:50.000Z</time>
      </trkpt>
      <trkpt lat="44.58257" lon="6.87676">
        <ele>2793.6000976562</ele>
        <time>2020-02-18T10:41:55.000Z</time>
      </trkpt>
      <trkpt lat="44.58257" lon="6.87676">
        <ele>2793.3999023438</ele>
        <time>2020-02-18T10:41:57.000Z</time>
      </trkpt>
      <trkpt lat="44.58257" lon="6.87676">
        <ele>2793.3999023438</ele>
        <time>2020-02-18T10:41:59.000Z</time>
      </trkpt>
      <trkpt lat="44.58258" lon="6.87676">
        <ele>2793.3999023438</ele>
        <time>2020-02-18T10:42:03.000Z</time>
      </trkpt>
      <trkpt lat="44.58258" lon="6.87676">
        <ele>2793.3999023438</ele>
        <time>2020-02-18T10:42:04.000Z</time>
      </trkpt>
      <trkpt lat="44.58258" lon="6.87676">
        <ele>2793.3999023438</ele>
        <time>2020-02-18T10:42:05.000Z</time>
      </trkpt>
      <trkpt lat="44.58258" lon="6.87676">
        <ele>2793.6000976562</ele>
        <time>2020-02-18T10:42:06.000Z</time>
      </trkpt>
      <trkpt lat="44.58261" lon="6.87675">
        <ele>2793.3999023438</ele>
        <time>2020-02-18T10:42:16.000Z</time>
      </trkpt>
      <trkpt lat="44.58261" lon="6.87675">
        <ele>2793.3999023438</ele>
        <time>2020-02-18T10:42:17.000Z</time>
      </trkpt>
      <trkpt lat="44.58262" lon="6.87675">
        <ele>2793.3999023438</ele>
        <time>2020-02-18T10:42:18.000Z</time>
      </trkpt>
      <trkpt lat="44.58262" lon="6.87676">
        <ele>2793.3999023438</ele>
        <time>2020-02-18T10:42:19.000Z</time>
      </trkpt>
      <trkpt lat="44.58263" lon="6.87677">
        <ele>2793.3999023438</ele>
        <time>2020-02-18T10:42:21.000Z</time>
      </trkpt>
      <trkpt lat="44.58264" lon="6.87679">
        <ele>2793.3999023438</ele>
        <time>2020-02-18T10:42:24.000Z</time>
      </trkpt>
      <trkpt lat="44.58262" lon="6.87681">
        <ele>2793.3999023438</ele>
        <time>2020-02-18T10:42:27.000Z</time>
      </trkpt>
      <trkpt lat="44.5826" lon="6.87683">
        <ele>2793.3999023438</ele>
        <time>2020-02-18T10:42:30.000Z</time>
      </trkpt>
      <trkpt lat="44.58259" lon="6.87685">
        <ele>2793.3999023438</ele>
        <time>2020-02-18T10:42:33.000Z</time>
      </trkpt>
      <trkpt lat="44.58257" lon="6.87689">
        <ele>2793.3999023438</ele>
        <time>2020-02-18T10:42:42.000Z</time>
      </trkpt>
      <trkpt lat="44.58256" lon="6.8769">
        <ele>2793.3999023438</ele>
        <time>2020-02-18T10:43:10.000Z</time>
      </trkpt>
      <trkpt lat="44.58256" lon="6.8769">
        <ele>2793.3999023438</ele>
        <time>2020-02-18T10:43:12.000Z</time>
      </trkpt>
      <trkpt lat="44.58256" lon="6.87689">
        <ele>2793.3999023438</ele>
        <time>2020-02-18T10:43:17.000Z</time>
      </trkpt>
      <trkpt lat="44.58256" lon="6.8769">
        <ele>2793.3999023438</ele>
        <time>2020-02-18T10:43:18.000Z</time>
      </trkpt>
      <trkpt lat="44.58256" lon="6.87689">
        <ele>2793.3999023438</ele>
        <time>2020-02-18T10:43:19.000Z</time>
      </trkpt>
      <trkpt lat="44.58255" lon="6.87688">
        <ele>2793.3999023438</ele>
        <time>2020-02-18T10:43:23.000Z</time>
      </trkpt>
      <trkpt lat="44.58254" lon="6.87688">
        <ele>2793.3999023438</ele>
        <time>2020-02-18T10:43:27.000Z</time>
      </trkpt>
      <trkpt lat="44.58254" lon="6.87688">
        <ele>2793.3999023438</ele>
        <time>2020-02-18T10:43:30.000Z</time>
      </trkpt>
      <trkpt lat="44.58255" lon="6.87688">
        <ele>2793.3999023438</ele>
        <time>2020-02-18T10:43:32.000Z</time>
      </trkpt>
      <trkpt lat="44.58254" lon="6.87688">
        <ele>2793.3999023438</ele>
        <time>2020-02-18T10:43:36.000Z</time>
      </trkpt>
      <trkpt lat="44.58254" lon="6.87688">
        <ele>2793.3999023438</ele>
        <time>2020-02-18T10:43:38.000Z</time>
      </trkpt>
      <trkpt lat="44.58254" lon="6.87688">
        <ele>2793.3999023438</ele>
        <time>2020-02-18T10:43:41.000Z</time>
      </trkpt>
      <trkpt lat="44.58254" lon="6.87688">
        <ele>2793.3999023438</ele>
        <time>2020-02-18T10:43:42.000Z</time>
      </trkpt>
      <trkpt lat="44.58255" lon="6.87688">
        <ele>2793.3999023438</ele>
        <time>2020-02-18T10:43:53.000Z</time>
      </trkpt>
      <trkpt lat="44.58255" lon="6.87688">
        <ele>2793.3999023438</ele>
        <time>2020-02-18T10:43:55.000Z</time>
      </trkpt>
      <trkpt lat="44.58255" lon="6.87688">
        <ele>2793.3999023438</ele>
        <time>2020-02-18T10:43:59.000Z</time>
      </trkpt>
      <trkpt lat="44.58255" lon="6.87688">
        <ele>2793.3999023438</ele>
        <time>2020-02-18T10:44:00.000Z</time>
      </trkpt>
      <trkpt lat="44.58256" lon="6.87688">
        <ele>2793.3999023438</ele>
        <time>2020-02-18T10:44:03.000Z</time>
      </trkpt>
      <trkpt lat="44.58258" lon="6.87687">
        <ele>2793.3999023438</ele>
        <time>2020-02-18T10:44:09.000Z</time>
      </trkpt>
      <trkpt lat="44.58259" lon="6.87687">
        <ele>2793.3999023438</ele>
        <time>2020-02-18T10:44:12.000Z</time>
      </trkpt>
      <trkpt lat="44.58259" lon="6.87688">
        <ele>2793.3999023438</ele>
        <time>2020-02-18T10:44:15.000Z</time>
      </trkpt>
      <trkpt lat="44.58259" lon="6.87688">
        <ele>2796</ele>
        <time>2020-02-18T10:44:16.000Z</time>
      </trkpt>
      <trkpt lat="44.58259" lon="6.87688">
        <ele>2796</ele>
        <time>2020-02-18T10:44:17.000Z</time>
      </trkpt>
      <trkpt lat="44.58259" lon="6.87689">
        <ele>2796</ele>
        <time>2020-02-18T10:44:18.000Z</time>
      </trkpt>
      <trkpt lat="44.58258" lon="6.87689">
        <ele>2796</ele>
        <time>2020-02-18T10:44:21.000Z</time>
      </trkpt>
      <trkpt lat="44.58258" lon="6.8769">
        <ele>2796</ele>
        <time>2020-02-18T10:44:25.000Z</time>
      </trkpt>
      <trkpt lat="44.58258" lon="6.87691">
        <ele>2796</ele>
        <time>2020-02-18T10:44:35.000Z</time>
      </trkpt>
      <trkpt lat="44.58259" lon="6.8769">
        <ele>2796.1999511719</ele>
        <time>2020-02-18T10:44:37.000Z</time>
      </trkpt>
      <trkpt lat="44.58259" lon="6.87691">
        <ele>2796.3999023438</ele>
        <time>2020-02-18T10:44:49.000Z</time>
      </trkpt>
      <trkpt lat="44.58257" lon="6.87691">
        <ele>2796.1999511719</ele>
        <time>2020-02-18T10:44:58.000Z</time>
      </trkpt>
      <trkpt lat="44.58257" lon="6.87691">
        <ele>2796.1999511719</ele>
        <time>2020-02-18T10:44:59.000Z</time>
      </trkpt>
      <trkpt lat="44.58256" lon="6.87691">
        <ele>2796.1999511719</ele>
        <time>2020-02-18T10:45:00.000Z</time>
      </trkpt>
      <trkpt lat="44.58256" lon="6.87692">
        <ele>2796.1999511719</ele>
        <time>2020-02-18T10:45:04.000Z</time>
      </trkpt>
      <trkpt lat="44.58257" lon="6.87696">
        <ele>2796.1999511719</ele>
        <time>2020-02-18T10:45:13.000Z</time>
      </trkpt>
      <trkpt lat="44.58259" lon="6.87688">
        <ele>2796.1999511719</ele>
        <time>2020-02-18T10:45:27.000Z</time>
      </trkpt>
      <trkpt lat="44.58259" lon="6.87689">
        <ele>2796.1999511719</ele>
        <time>2020-02-18T10:45:33.000Z</time>
      </trkpt>
      <trkpt lat="44.58257" lon="6.87688">
        <ele>2796.1999511719</ele>
        <time>2020-02-18T10:45:39.000Z</time>
      </trkpt>
      <trkpt lat="44.58257" lon="6.87688">
        <ele>2796.1999511719</ele>
        <time>2020-02-18T10:45:41.000Z</time>
      </trkpt>
      <trkpt lat="44.58257" lon="6.87688">
        <ele>2796.1999511719</ele>
        <time>2020-02-18T10:45:43.000Z</time>
      </trkpt>
      <trkpt lat="44.58258" lon="6.87688">
        <ele>2796.1999511719</ele>
        <time>2020-02-18T10:45:47.000Z</time>
      </trkpt>
      <trkpt lat="44.58256" lon="6.87687">
        <ele>2796.1999511719</ele>
        <time>2020-02-18T10:45:54.000Z</time>
      </trkpt>
      <trkpt lat="44.58256" lon="6.87686">
        <ele>2796.1999511719</ele>
        <time>2020-02-18T10:46:05.000Z</time>
      </trkpt>
      <trkpt lat="44.58254" lon="6.87686">
        <ele>2796.1999511719</ele>
        <time>2020-02-18T10:46:09.000Z</time>
      </trkpt>
      <trkpt lat="44.58254" lon="6.87686">
        <ele>2796.1999511719</ele>
        <time>2020-02-18T10:46:12.000Z</time>
      </trkpt>
      <trkpt lat="44.58254" lon="6.87686">
        <ele>2796.1999511719</ele>
        <time>2020-02-18T10:46:18.000Z</time>
      </trkpt>
      <trkpt lat="44.58255" lon="6.87686">
        <ele>2796.1999511719</ele>
        <time>2020-02-18T10:46:20.000Z</time>
      </trkpt>
      <trkpt lat="44.58255" lon="6.87688">
        <ele>2796.1999511719</ele>
        <time>2020-02-18T10:46:23.000Z</time>
      </trkpt>
      <trkpt lat="44.58252" lon="6.87689">
        <ele>2796.1999511719</ele>
        <time>2020-02-18T10:46:26.000Z</time>
      </trkpt>
      <trkpt lat="44.5825" lon="6.87689">
        <ele>2795.6000976562</ele>
        <time>2020-02-18T10:46:28.000Z</time>
      </trkpt>
      <trkpt lat="44.58249" lon="6.8769">
        <ele>2794.8000488281</ele>
        <time>2020-02-18T10:46:30.000Z</time>
      </trkpt>
      <trkpt lat="44.58249" lon="6.87689">
        <ele>2794.6000976562</ele>
        <time>2020-02-18T10:46:31.000Z</time>
      </trkpt>
      <trkpt lat="44.58249" lon="6.8769">
        <ele>2794.3999023438</ele>
        <time>2020-02-18T10:46:32.000Z</time>
      </trkpt>
      <trkpt lat="44.5825" lon="6.87689">
        <ele>2794.3999023438</ele>
        <time>2020-02-18T10:46:33.000Z</time>
      </trkpt>
      <trkpt lat="44.5825" lon="6.8769">
        <ele>2794.6000976562</ele>
        <time>2020-02-18T10:46:56.000Z</time>
      </trkpt>
      <trkpt lat="44.58252" lon="6.8769">
        <ele>2794</ele>
        <time>2020-02-18T10:47:03.000Z</time>
      </trkpt>
      <trkpt lat="44.58252" lon="6.87691">
        <ele>2794.3999023438</ele>
        <time>2020-02-18T10:47:15.000Z</time>
      </trkpt>
      <trkpt lat="44.58253" lon="6.87692">
        <ele>2794.6000976562</ele>
        <time>2020-02-18T10:47:20.000Z</time>
      </trkpt>
      <trkpt lat="44.58254" lon="6.87691">
        <ele>2794.6000976562</ele>
        <time>2020-02-18T10:47:23.000Z</time>
      </trkpt>
      <trkpt lat="44.58254" lon="6.87691">
        <ele>2794.6000976562</ele>
        <time>2020-02-18T10:47:24.000Z</time>
      </trkpt>
      <trkpt lat="44.58254" lon="6.87692">
        <ele>2794.8000488281</ele>
        <time>2020-02-18T10:47:27.000Z</time>
      </trkpt>
      <trkpt lat="44.58254" lon="6.87692">
        <ele>2794.8000488281</ele>
        <time>2020-02-18T10:47:30.000Z</time>
      </trkpt>
      <trkpt lat="44.58252" lon="6.87691">
        <ele>2795</ele>
        <time>2020-02-18T10:47:34.000Z</time>
      </trkpt>
      <trkpt lat="44.58255" lon="6.87694">
        <ele>2795.6000976562</ele>
        <time>2020-02-18T10:47:54.000Z</time>
      </trkpt>
      <trkpt lat="44.58256" lon="6.87694">
        <ele>2795.6000976562</ele>
        <time>2020-02-18T10:47:58.000Z</time>
      </trkpt>
      <trkpt lat="44.58254" lon="6.87694">
        <ele>2795.6000976562</ele>
        <time>2020-02-18T10:48:02.000Z</time>
      </trkpt>
      <trkpt lat="44.58253" lon="6.87695">
        <ele>2795.6000976562</ele>
        <time>2020-02-18T10:48:06.000Z</time>
      </trkpt>
      <trkpt lat="44.58254" lon="6.87694">
        <ele>2795.6000976562</ele>
        <time>2020-02-18T10:48:08.000Z</time>
      </trkpt>
      <trkpt lat="44.58255" lon="6.87694">
        <ele>2795.8000488281</ele>
        <time>2020-02-18T10:48:11.000Z</time>
      </trkpt>
      <trkpt lat="44.58258" lon="6.87691">
        <ele>2796.3999023438</ele>
        <time>2020-02-18T10:48:16.000Z</time>
      </trkpt>
      <trkpt lat="44.5826" lon="6.87689">
        <ele>2795.6000976562</ele>
        <time>2020-02-18T10:48:53.000Z</time>
      </trkpt>
      <trkpt lat="44.58259" lon="6.8769">
        <ele>2795.6000976562</ele>
        <time>2020-02-18T10:48:59.000Z</time>
      </trkpt>
      <trkpt lat="44.58259" lon="6.8769">
        <ele>2795.6000976562</ele>
        <time>2020-02-18T10:49:00.000Z</time>
      </trkpt>
      <trkpt lat="44.58259" lon="6.87691">
        <ele>2796</ele>
        <time>2020-02-18T10:49:02.000Z</time>
      </trkpt>
      <trkpt lat="44.58259" lon="6.87693">
        <ele>2796.3999023438</ele>
        <time>2020-02-18T10:49:08.000Z</time>
      </trkpt>
      <trkpt lat="44.58259" lon="6.87693">
        <ele>2796.3999023438</ele>
        <time>2020-02-18T10:49:09.000Z</time>
      </trkpt>
      <trkpt lat="44.58259" lon="6.87693">
        <ele>2796.1999511719</ele>
        <time>2020-02-18T10:49:14.000Z</time>
      </trkpt>
      <trkpt lat="44.58259" lon="6.87692">
        <ele>2796.1999511719</ele>
        <time>2020-02-18T10:49:15.000Z</time>
      </trkpt>
      <trkpt lat="44.58258" lon="6.87692">
        <ele>2796.1999511719</ele>
        <time>2020-02-18T10:49:17.000Z</time>
      </trkpt>
      <trkpt lat="44.58259" lon="6.87693">
        <ele>2796.3999023438</ele>
        <time>2020-02-18T10:49:21.000Z</time>
      </trkpt>
      <trkpt lat="44.58259" lon="6.87692">
        <ele>2796.1999511719</ele>
        <time>2020-02-18T10:49:25.000Z</time>
      </trkpt>
      <trkpt lat="44.58259" lon="6.87692">
        <ele>2796.1999511719</ele>
        <time>2020-02-18T10:49:28.000Z</time>
      </trkpt>
      <trkpt lat="44.58259" lon="6.87691">
        <ele>2796.1999511719</ele>
        <time>2020-02-18T10:49:29.000Z</time>
      </trkpt>
      <trkpt lat="44.58259" lon="6.87691">
        <ele>2796.1999511719</ele>
        <time>2020-02-18T10:49:30.000Z</time>
      </trkpt>
      <trkpt lat="44.58259" lon="6.87692">
        <ele>2796.1999511719</ele>
        <time>2020-02-18T10:49:32.000Z</time>
      </trkpt>
      <trkpt lat="44.58259" lon="6.87692">
        <ele>2796.1999511719</ele>
        <time>2020-02-18T10:49:33.000Z</time>
      </trkpt>
      <trkpt lat="44.58259" lon="6.87692">
        <ele>2796.1999511719</ele>
        <time>2020-02-18T10:49:35.000Z</time>
      </trkpt>
      <trkpt lat="44.58259" lon="6.87692">
        <ele>2796.1999511719</ele>
        <time>2020-02-18T10:49:41.000Z</time>
      </trkpt>
      <trkpt lat="44.58258" lon="6.87693">
        <ele>2796.1999511719</ele>
        <time>2020-02-18T10:49:43.000Z</time>
      </trkpt>
      <trkpt lat="44.58257" lon="6.87693">
        <ele>2796.1999511719</ele>
        <time>2020-02-18T10:49:45.000Z</time>
      </trkpt>
      <trkpt lat="44.58258" lon="6.87693">
        <ele>2796.1999511719</ele>
        <time>2020-02-18T10:49:47.000Z</time>
      </trkpt>
      <trkpt lat="44.58258" lon="6.87693">
        <ele>2796.1999511719</ele>
        <time>2020-02-18T10:49:48.000Z</time>
      </trkpt>
      <trkpt lat="44.58257" lon="6.87692">
        <ele>2796.1999511719</ele>
        <time>2020-02-18T10:49:58.000Z</time>
      </trkpt>
      <trkpt lat="44.58257" lon="6.87692">
        <ele>2796.1999511719</ele>
        <time>2020-02-18T10:50:01.000Z</time>
      </trkpt>
      <trkpt lat="44.58257" lon="6.87692">
        <ele>2796.1999511719</ele>
        <time>2020-02-18T10:50:06.000Z</time>
      </trkpt>
      <trkpt lat="44.58257" lon="6.87692">
        <ele>2796.1999511719</ele>
        <time>2020-02-18T10:50:09.000Z</time>
      </trkpt>
      <trkpt lat="44.58257" lon="6.87692">
        <ele>2796.1999511719</ele>
        <time>2020-02-18T10:50:10.000Z</time>
      </trkpt>
      <trkpt lat="44.58257" lon="6.87692">
        <ele>2796.1999511719</ele>
        <time>2020-02-18T10:50:11.000Z</time>
      </trkpt>
      <trkpt lat="44.58256" lon="6.87692">
        <ele>2796.1999511719</ele>
        <time>2020-02-18T10:50:13.000Z</time>
      </trkpt>
      <trkpt lat="44.58256" lon="6.87692">
        <ele>2796.1999511719</ele>
        <time>2020-02-18T10:50:14.000Z</time>
      </trkpt>
      <trkpt lat="44.58256" lon="6.87692">
        <ele>2796.1999511719</ele>
        <time>2020-02-18T10:50:16.000Z</time>
      </trkpt>
      <trkpt lat="44.58256" lon="6.87693">
        <ele>2796.1999511719</ele>
        <time>2020-02-18T10:50:21.000Z</time>
      </trkpt>
      <trkpt lat="44.58255" lon="6.87693">
        <ele>2796.1999511719</ele>
        <time>2020-02-18T10:50:23.000Z</time>
      </trkpt>
      <trkpt lat="44.58256" lon="6.87692">
        <ele>2796.1999511719</ele>
        <time>2020-02-18T10:50:27.000Z</time>
      </trkpt>
      <trkpt lat="44.58255" lon="6.87692">
        <ele>2796.1999511719</ele>
        <time>2020-02-18T10:50:30.000Z</time>
      </trkpt>
      <trkpt lat="44.58255" lon="6.87692">
        <ele>2796.1999511719</ele>
        <time>2020-02-18T10:50:31.000Z</time>
      </trkpt>
      <trkpt lat="44.58255" lon="6.87692">
        <ele>2796.1999511719</ele>
        <time>2020-02-18T10:50:40.000Z</time>
      </trkpt>
      <trkpt lat="44.58255" lon="6.87693">
        <ele>2796.1999511719</ele>
        <time>2020-02-18T10:50:42.000Z</time>
      </trkpt>
      <trkpt lat="44.58255" lon="6.87693">
        <ele>2796.1999511719</ele>
        <time>2020-02-18T10:50:44.000Z</time>
      </trkpt>
      <trkpt lat="44.58255" lon="6.87693">
        <ele>2796.1999511719</ele>
        <time>2020-02-18T10:50:46.000Z</time>
      </trkpt>
      <trkpt lat="44.58255" lon="6.87693">
        <ele>2796.1999511719</ele>
        <time>2020-02-18T10:50:48.000Z</time>
      </trkpt>
      <trkpt lat="44.58255" lon="6.87693">
        <ele>2796.1999511719</ele>
        <time>2020-02-18T10:50:49.000Z</time>
      </trkpt>
      <trkpt lat="44.58255" lon="6.87693">
        <ele>2796.1999511719</ele>
        <time>2020-02-18T10:50:50.000Z</time>
      </trkpt>
      <trkpt lat="44.58256" lon="6.87694">
        <ele>2796.1999511719</ele>
        <time>2020-02-18T10:50:52.000Z</time>
      </trkpt>
      <trkpt lat="44.58262" lon="6.87695">
        <ele>2796.1999511719</ele>
        <time>2020-02-18T10:51:02.000Z</time>
      </trkpt>
      <trkpt lat="44.58262" lon="6.87693">
        <ele>2796.1999511719</ele>
        <time>2020-02-18T10:51:13.000Z</time>
      </trkpt>
      <trkpt lat="44.58262" lon="6.87692">
        <ele>2796.1999511719</ele>
        <time>2020-02-18T10:51:15.000Z</time>
      </trkpt>
      <trkpt lat="44.58261" lon="6.87691">
        <ele>2796.3999023438</ele>
        <time>2020-02-18T10:51:20.000Z</time>
      </trkpt>
      <trkpt lat="44.5826" lon="6.87691">
        <ele>2796.3999023438</ele>
        <time>2020-02-18T10:51:22.000Z</time>
      </trkpt>
      <trkpt lat="44.58262" lon="6.87692">
        <ele>2796.6000976562</ele>
        <time>2020-02-18T10:51:26.000Z</time>
      </trkpt>
      <trkpt lat="44.58263" lon="6.87692">
        <ele>2796.6000976562</ele>
        <time>2020-02-18T10:51:32.000Z</time>
      </trkpt>
      <trkpt lat="44.58263" lon="6.87691">
        <ele>2796.6000976562</ele>
        <time>2020-02-18T10:51:36.000Z</time>
      </trkpt>
      <trkpt lat="44.58263" lon="6.87691">
        <ele>2796.6000976562</ele>
        <time>2020-02-18T10:51:38.000Z</time>
      </trkpt>
      <trkpt lat="44.58262" lon="6.87691">
        <ele>2796.8000488281</ele>
        <time>2020-02-18T10:51:42.000Z</time>
      </trkpt>
      <trkpt lat="44.58262" lon="6.87693">
        <ele>2796.8000488281</ele>
        <time>2020-02-18T10:51:46.000Z</time>
      </trkpt>
      <trkpt lat="44.58263" lon="6.87692">
        <ele>2796.6000976562</ele>
        <time>2020-02-18T10:52:08.000Z</time>
      </trkpt>
      <trkpt lat="44.58264" lon="6.87694">
        <ele>2796.3999023438</ele>
        <time>2020-02-18T10:52:14.000Z</time>
      </trkpt>
      <trkpt lat="44.58264" lon="6.87694">
        <ele>2796.3999023438</ele>
        <time>2020-02-18T10:52:15.000Z</time>
      </trkpt>
      <trkpt lat="44.58264" lon="6.87693">
        <ele>2796.3999023438</ele>
        <time>2020-02-18T10:52:16.000Z</time>
      </trkpt>
      <trkpt lat="44.58263" lon="6.87692">
        <ele>2796.3999023438</ele>
        <time>2020-02-18T10:52:19.000Z</time>
      </trkpt>
      <trkpt lat="44.58263" lon="6.87692">
        <ele>2796.3999023438</ele>
        <time>2020-02-18T10:52:21.000Z</time>
      </trkpt>
      <trkpt lat="44.58262" lon="6.87692">
        <ele>2796.3999023438</ele>
        <time>2020-02-18T10:52:23.000Z</time>
      </trkpt>
      <trkpt lat="44.58262" lon="6.87693">
        <ele>2796.3999023438</ele>
        <time>2020-02-18T10:52:28.000Z</time>
      </trkpt>
      <trkpt lat="44.58263" lon="6.87693">
        <ele>2796.3999023438</ele>
        <time>2020-02-18T10:52:29.000Z</time>
      </trkpt>
      <trkpt lat="44.58262" lon="6.87692">
        <ele>2796.3999023438</ele>
        <time>2020-02-18T10:52:33.000Z</time>
      </trkpt>
      <trkpt lat="44.58261" lon="6.87693">
        <ele>2796.3999023438</ele>
        <time>2020-02-18T10:52:35.000Z</time>
      </trkpt>
      <trkpt lat="44.5826" lon="6.87692">
        <ele>2796.3999023438</ele>
        <time>2020-02-18T10:52:38.000Z</time>
      </trkpt>
      <trkpt lat="44.58259" lon="6.87692">
        <ele>2796.3999023438</ele>
        <time>2020-02-18T10:52:44.000Z</time>
      </trkpt>
      <trkpt lat="44.58259" lon="6.87692">
        <ele>2796.3999023438</ele>
        <time>2020-02-18T10:52:46.000Z</time>
      </trkpt>
      <trkpt lat="44.58259" lon="6.87692">
        <ele>2796.3999023438</ele>
        <time>2020-02-18T10:52:49.000Z</time>
      </trkpt>
      <trkpt lat="44.58259" lon="6.87691">
        <ele>2796.3999023438</ele>
        <time>2020-02-18T10:52:56.000Z</time>
      </trkpt>
      <trkpt lat="44.5826" lon="6.87692">
        <ele>2796.3999023438</ele>
        <time>2020-02-18T10:52:58.000Z</time>
      </trkpt>
      <trkpt lat="44.58262" lon="6.87691">
        <ele>2796.3999023438</ele>
        <time>2020-02-18T10:53:06.000Z</time>
      </trkpt>
      <trkpt lat="44.58262" lon="6.87691">
        <ele>2796.3999023438</ele>
        <time>2020-02-18T10:53:07.000Z</time>
      </trkpt>
      <trkpt lat="44.58262" lon="6.87691">
        <ele>2796.3999023438</ele>
        <time>2020-02-18T10:53:10.000Z</time>
      </trkpt>
      <trkpt lat="44.58263" lon="6.8769">
        <ele>2796.3999023438</ele>
        <time>2020-02-18T10:53:24.000Z</time>
      </trkpt>
      <trkpt lat="44.58262" lon="6.8769">
        <ele>2796.3999023438</ele>
        <time>2020-02-18T10:53:28.000Z</time>
      </trkpt>
      <trkpt lat="44.58262" lon="6.8769">
        <ele>2796.3999023438</ele>
        <time>2020-02-18T10:53:29.000Z</time>
      </trkpt>
      <trkpt lat="44.58262" lon="6.8769">
        <ele>2796.3999023438</ele>
        <time>2020-02-18T10:53:30.000Z</time>
      </trkpt>
      <trkpt lat="44.58261" lon="6.8769">
        <ele>2796.3999023438</ele>
        <time>2020-02-18T10:53:31.000Z</time>
      </trkpt>
      <trkpt lat="44.5826" lon="6.87691">
        <ele>2796.3999023438</ele>
        <time>2020-02-18T10:53:33.000Z</time>
      </trkpt>
      <trkpt lat="44.58259" lon="6.87691">
        <ele>2796.3999023438</ele>
        <time>2020-02-18T10:53:43.000Z</time>
      </trkpt>
      <trkpt lat="44.58263" lon="6.87692">
        <ele>2796.3999023438</ele>
        <time>2020-02-18T10:53:55.000Z</time>
      </trkpt>
      <trkpt lat="44.58263" lon="6.87693">
        <ele>2796.3999023438</ele>
        <time>2020-02-18T10:54:01.000Z</time>
      </trkpt>
      <trkpt lat="44.58263" lon="6.87693">
        <ele>2796.3999023438</ele>
        <time>2020-02-18T10:54:02.000Z</time>
      </trkpt>
      <trkpt lat="44.58261" lon="6.87692">
        <ele>2796.3999023438</ele>
        <time>2020-02-18T10:54:08.000Z</time>
      </trkpt>
      <trkpt lat="44.5826" lon="6.87691">
        <ele>2796.3999023438</ele>
        <time>2020-02-18T10:54:10.000Z</time>
      </trkpt>
      <trkpt lat="44.5826" lon="6.87691">
        <ele>2796.3999023438</ele>
        <time>2020-02-18T10:54:13.000Z</time>
      </trkpt>
      <trkpt lat="44.5826" lon="6.87691">
        <ele>2796.3999023438</ele>
        <time>2020-02-18T10:54:14.000Z</time>
      </trkpt>
      <trkpt lat="44.58261" lon="6.87692">
        <ele>2796.3999023438</ele>
        <time>2020-02-18T10:54:26.000Z</time>
      </trkpt>
      <trkpt lat="44.58261" lon="6.87691">
        <ele>2796.3999023438</ele>
        <time>2020-02-18T10:54:27.000Z</time>
      </trkpt>
      <trkpt lat="44.58257" lon="6.87691">
        <ele>2796.3999023438</ele>
        <time>2020-02-18T10:54:34.000Z</time>
      </trkpt>
      <trkpt lat="44.58254" lon="6.8769">
        <ele>2796.3999023438</ele>
        <time>2020-02-18T10:54:37.000Z</time>
      </trkpt>
      <trkpt lat="44.58254" lon="6.8769">
        <ele>2796</ele>
        <time>2020-02-18T10:54:38.000Z</time>
      </trkpt>
      <trkpt lat="44.58254" lon="6.8769">
        <ele>2795.3999023438</ele>
        <time>2020-02-18T10:54:40.000Z</time>
      </trkpt>
      <trkpt lat="44.58254" lon="6.8769">
        <ele>2795.6000976562</ele>
        <time>2020-02-18T10:54:41.000Z</time>
      </trkpt>
      <trkpt lat="44.58254" lon="6.87689">
        <ele>2795.6000976562</ele>
        <time>2020-02-18T10:54:42.000Z</time>
      </trkpt>
      <trkpt lat="44.58256" lon="6.87688">
        <ele>2795.3999023438</ele>
        <time>2020-02-18T10:54:54.000Z</time>
      </trkpt>
      <trkpt lat="44.58256" lon="6.87688">
        <ele>2795.3999023438</ele>
        <time>2020-02-18T10:54:56.000Z</time>
      </trkpt>
      <trkpt lat="44.58255" lon="6.87687">
        <ele>2795.1999511719</ele>
        <time>2020-02-18T10:55:00.000Z</time>
      </trkpt>
      <trkpt lat="44.58255" lon="6.87687">
        <ele>2795.1999511719</ele>
        <time>2020-02-18T10:55:01.000Z</time>
      </trkpt>
      <trkpt lat="44.58253" lon="6.87689">
        <ele>2795.1999511719</ele>
        <time>2020-02-18T10:55:13.000Z</time>
      </trkpt>
      <trkpt lat="44.58255" lon="6.87691">
        <ele>2795.1999511719</ele>
        <time>2020-02-18T10:55:38.000Z</time>
      </trkpt>
      <trkpt lat="44.58255" lon="6.8769">
        <ele>2795.1999511719</ele>
        <time>2020-02-18T10:55:48.000Z</time>
      </trkpt>
      <trkpt lat="44.58256" lon="6.87689">
        <ele>2795.1999511719</ele>
        <time>2020-02-18T10:55:53.000Z</time>
      </trkpt>
      <trkpt lat="44.58255" lon="6.87689">
        <ele>2795.1999511719</ele>
        <time>2020-02-18T10:56:20.000Z</time>
      </trkpt>
      <trkpt lat="44.58257" lon="6.87695">
        <ele>2795.1999511719</ele>
        <time>2020-02-18T10:56:33.000Z</time>
      </trkpt>
      <trkpt lat="44.58258" lon="6.87694">
        <ele>2795.1999511719</ele>
        <time>2020-02-18T10:56:35.000Z</time>
      </trkpt>
      <trkpt lat="44.58258" lon="6.87693">
        <ele>2795.1999511719</ele>
        <time>2020-02-18T10:56:42.000Z</time>
      </trkpt>
      <trkpt lat="44.58259" lon="6.87693">
        <ele>2795.1999511719</ele>
        <time>2020-02-18T10:56:52.000Z</time>
      </trkpt>
      <trkpt lat="44.58259" lon="6.87694">
        <ele>2795.1999511719</ele>
        <time>2020-02-18T10:56:54.000Z</time>
      </trkpt>
      <trkpt lat="44.5826" lon="6.87694">
        <ele>2795.1999511719</ele>
        <time>2020-02-18T10:56:55.000Z</time>
      </trkpt>
      <trkpt lat="44.5826" lon="6.87694">
        <ele>2795.1999511719</ele>
        <time>2020-02-18T10:56:56.000Z</time>
      </trkpt>
      <trkpt lat="44.5826" lon="6.87694">
        <ele>2795.1999511719</ele>
        <time>2020-02-18T10:56:57.000Z</time>
      </trkpt>
      <trkpt lat="44.58261" lon="6.87695">
        <ele>2795.1999511719</ele>
        <time>2020-02-18T10:57:03.000Z</time>
      </trkpt>
      <trkpt lat="44.5826" lon="6.87694">
        <ele>2795.1999511719</ele>
        <time>2020-02-18T10:57:09.000Z</time>
      </trkpt>
      <trkpt lat="44.58258" lon="6.87693">
        <ele>2795.1999511719</ele>
        <time>2020-02-18T10:57:12.000Z</time>
      </trkpt>
      <trkpt lat="44.58258" lon="6.87693">
        <ele>2795.1999511719</ele>
        <time>2020-02-18T10:57:13.000Z</time>
      </trkpt>
      <trkpt lat="44.58258" lon="6.87693">
        <ele>2795.1999511719</ele>
        <time>2020-02-18T10:57:15.000Z</time>
      </trkpt>
      <trkpt lat="44.58258" lon="6.87693">
        <ele>2795.1999511719</ele>
        <time>2020-02-18T10:57:16.000Z</time>
      </trkpt>
      <trkpt lat="44.58259" lon="6.87693">
        <ele>2795.1999511719</ele>
        <time>2020-02-18T10:57:21.000Z</time>
      </trkpt>
      <trkpt lat="44.5826" lon="6.87693">
        <ele>2795.1999511719</ele>
        <time>2020-02-18T10:57:23.000Z</time>
      </trkpt>
      <trkpt lat="44.58259" lon="6.87692">
        <ele>2795.1999511719</ele>
        <time>2020-02-18T10:57:30.000Z</time>
      </trkpt>
      <trkpt lat="44.58261" lon="6.87695">
        <ele>2795.1999511719</ele>
        <time>2020-02-18T10:57:41.000Z</time>
      </trkpt>
      <trkpt lat="44.58261" lon="6.87694">
        <ele>2797.8000488281</ele>
        <time>2020-02-18T10:57:46.000Z</time>
      </trkpt>
      <trkpt lat="44.58261" lon="6.87694">
        <ele>2797.8000488281</ele>
        <time>2020-02-18T10:57:49.000Z</time>
      </trkpt>
      <trkpt lat="44.58261" lon="6.87694">
        <ele>2797.8000488281</ele>
        <time>2020-02-18T10:57:50.000Z</time>
      </trkpt>
      <trkpt lat="44.5826" lon="6.87694">
        <ele>2797.8000488281</ele>
        <time>2020-02-18T10:57:52.000Z</time>
      </trkpt>
      <trkpt lat="44.5826" lon="6.87693">
        <ele>2797.8000488281</ele>
        <time>2020-02-18T10:57:53.000Z</time>
      </trkpt>
      <trkpt lat="44.5826" lon="6.87693">
        <ele>2797.6000976562</ele>
        <time>2020-02-18T10:57:55.000Z</time>
      </trkpt>
      <trkpt lat="44.58258" lon="6.87693">
        <ele>2797.6000976562</ele>
        <time>2020-02-18T10:58:01.000Z</time>
      </trkpt>
      <trkpt lat="44.58258" lon="6.87694">
        <ele>2798</ele>
        <time>2020-02-18T10:58:04.000Z</time>
      </trkpt>
      <trkpt lat="44.58259" lon="6.87694">
        <ele>2796.3999023438</ele>
        <time>2020-02-18T10:58:05.000Z</time>
      </trkpt>
      <trkpt lat="44.5826" lon="6.87694">
        <ele>2796.6000976562</ele>
        <time>2020-02-18T10:58:06.000Z</time>
      </trkpt>
      <trkpt lat="44.5826" lon="6.87695">
        <ele>2796.8000488281</ele>
        <time>2020-02-18T10:58:07.000Z</time>
      </trkpt>
      <trkpt lat="44.5826" lon="6.87696">
        <ele>2796.6000976562</ele>
        <time>2020-02-18T10:58:19.000Z</time>
      </trkpt>
      <trkpt lat="44.5826" lon="6.87696">
        <ele>2796.8000488281</ele>
        <time>2020-02-18T10:58:21.000Z</time>
      </trkpt>
      <trkpt lat="44.5826" lon="6.87694">
        <ele>2797</ele>
        <time>2020-02-18T10:58:27.000Z</time>
      </trkpt>
      <trkpt lat="44.58259" lon="6.87694">
        <ele>2796.6000976562</ele>
        <time>2020-02-18T10:58:30.000Z</time>
      </trkpt>
      <trkpt lat="44.58259" lon="6.87694">
        <ele>2796.6000976562</ele>
        <time>2020-02-18T10:58:31.000Z</time>
      </trkpt>
      <trkpt lat="44.5826" lon="6.87694">
        <ele>2796.3999023438</ele>
        <time>2020-02-18T10:58:33.000Z</time>
      </trkpt>
      <trkpt lat="44.5826" lon="6.87694">
        <ele>2796.8000488281</ele>
        <time>2020-02-18T10:58:36.000Z</time>
      </trkpt>
      <trkpt lat="44.5826" lon="6.87696">
        <ele>2797</ele>
        <time>2020-02-18T10:58:42.000Z</time>
      </trkpt>
      <trkpt lat="44.5826" lon="6.87695">
        <ele>2797.1999511719</ele>
        <time>2020-02-18T10:58:46.000Z</time>
      </trkpt>
      <trkpt lat="44.58259" lon="6.87695">
        <ele>2797.3999023438</ele>
        <time>2020-02-18T10:58:50.000Z</time>
      </trkpt>
      <trkpt lat="44.58259" lon="6.87694">
        <ele>2797.3999023438</ele>
        <time>2020-02-18T10:58:52.000Z</time>
      </trkpt>
      <trkpt lat="44.58259" lon="6.87694">
        <ele>2797.3999023438</ele>
        <time>2020-02-18T10:58:54.000Z</time>
      </trkpt>
      <trkpt lat="44.5826" lon="6.87695">
        <ele>2797.6000976562</ele>
        <time>2020-02-18T10:58:57.000Z</time>
      </trkpt>
      <trkpt lat="44.5826" lon="6.87695">
        <ele>2797.3999023438</ele>
        <time>2020-02-18T10:59:08.000Z</time>
      </trkpt>
      <trkpt lat="44.5826" lon="6.87695">
        <ele>2797.3999023438</ele>
        <time>2020-02-18T10:59:09.000Z</time>
      </trkpt>
      <trkpt lat="44.58261" lon="6.87695">
        <ele>2797.3999023438</ele>
        <time>2020-02-18T10:59:10.000Z</time>
      </trkpt>
      <trkpt lat="44.58261" lon="6.87696">
        <ele>2796.3999023438</ele>
        <time>2020-02-18T10:59:11.000Z</time>
      </trkpt>
      <trkpt lat="44.58262" lon="6.87696">
        <ele>2796.6000976562</ele>
        <time>2020-02-18T10:59:17.000Z</time>
      </trkpt>
      <trkpt lat="44.58259" lon="6.87696">
        <ele>2796.6000976562</ele>
        <time>2020-02-18T10:59:22.000Z</time>
      </trkpt>
      <trkpt lat="44.58259" lon="6.87695">
        <ele>2797.3999023438</ele>
        <time>2020-02-18T10:59:24.000Z</time>
      </trkpt>
      <trkpt lat="44.58258" lon="6.87695">
        <ele>2797.6000976562</ele>
        <time>2020-02-18T10:59:26.000Z</time>
      </trkpt>
      <trkpt lat="44.58257" lon="6.87696">
        <ele>2797.6000976562</ele>
        <time>2020-02-18T10:59:30.000Z</time>
      </trkpt>
      <trkpt lat="44.58258" lon="6.87696">
        <ele>2797.6000976562</ele>
        <time>2020-02-18T10:59:32.000Z</time>
      </trkpt>
      <trkpt lat="44.58261" lon="6.87695">
        <ele>2797.3999023438</ele>
        <time>2020-02-18T10:59:41.000Z</time>
      </trkpt>
      <trkpt lat="44.58261" lon="6.87694">
        <ele>2797.3999023438</ele>
        <time>2020-02-18T10:59:44.000Z</time>
      </trkpt>
      <trkpt lat="44.5826" lon="6.87694">
        <ele>2797.6000976562</ele>
        <time>2020-02-18T10:59:53.000Z</time>
      </trkpt>
      <trkpt lat="44.58261" lon="6.87694">
        <ele>2797.6000976562</ele>
        <time>2020-02-18T10:59:55.000Z</time>
      </trkpt>
      <trkpt lat="44.58261" lon="6.87695">
        <ele>2796.3999023438</ele>
        <time>2020-02-18T10:59:58.000Z</time>
      </trkpt>
      <trkpt lat="44.58262" lon="6.87696">
        <ele>2796.1999511719</ele>
        <time>2020-02-18T11:00:04.000Z</time>
      </trkpt>
      <trkpt lat="44.58262" lon="6.87695">
        <ele>2796.1999511719</ele>
        <time>2020-02-18T11:00:05.000Z</time>
      </trkpt>
      <trkpt lat="44.58261" lon="6.87695">
        <ele>2796.1999511719</ele>
        <time>2020-02-18T11:00:08.000Z</time>
      </trkpt>
      <trkpt lat="44.58261" lon="6.87695">
        <ele>2796.3999023438</ele>
        <time>2020-02-18T11:00:16.000Z</time>
      </trkpt>
      <trkpt lat="44.58261" lon="6.87694">
        <ele>2797.3999023438</ele>
        <time>2020-02-18T11:00:21.000Z</time>
      </trkpt>
      <trkpt lat="44.5826" lon="6.87693">
        <ele>2797.1999511719</ele>
        <time>2020-02-18T11:00:26.000Z</time>
      </trkpt>
      <trkpt lat="44.5826" lon="6.87693">
        <ele>2797.1999511719</ele>
        <time>2020-02-18T11:00:28.000Z</time>
      </trkpt>
      <trkpt lat="44.5826" lon="6.87693">
        <ele>2797.1999511719</ele>
        <time>2020-02-18T11:00:30.000Z</time>
      </trkpt>
      <trkpt lat="44.5826" lon="6.87694">
        <ele>2797.3999023438</ele>
        <time>2020-02-18T11:00:33.000Z</time>
      </trkpt>
      <trkpt lat="44.58259" lon="6.87694">
        <ele>2797.3999023438</ele>
        <time>2020-02-18T11:00:37.000Z</time>
      </trkpt>
      <trkpt lat="44.58259" lon="6.87694">
        <ele>2797.6000976562</ele>
        <time>2020-02-18T11:00:39.000Z</time>
      </trkpt>
      <trkpt lat="44.58259" lon="6.87693">
        <ele>2797.3999023438</ele>
        <time>2020-02-18T11:00:42.000Z</time>
      </trkpt>
      <trkpt lat="44.5826" lon="6.87693">
        <ele>2797.1999511719</ele>
        <time>2020-02-18T11:00:48.000Z</time>
      </trkpt>
      <trkpt lat="44.5826" lon="6.87693">
        <ele>2797.1999511719</ele>
        <time>2020-02-18T11:00:50.000Z</time>
      </trkpt>
      <trkpt lat="44.5826" lon="6.87693">
        <ele>2797.1999511719</ele>
        <time>2020-02-18T11:00:51.000Z</time>
      </trkpt>
      <trkpt lat="44.58261" lon="6.87693">
        <ele>2797.1999511719</ele>
        <time>2020-02-18T11:00:52.000Z</time>
      </trkpt>
      <trkpt lat="44.58261" lon="6.87694">
        <ele>2797.1999511719</ele>
        <time>2020-02-18T11:00:55.000Z</time>
      </trkpt>
      <trkpt lat="44.58261" lon="6.87694">
        <ele>2797.1999511719</ele>
        <time>2020-02-18T11:00:56.000Z</time>
      </trkpt>
      <trkpt lat="44.58261" lon="6.87694">
        <ele>2797.1999511719</ele>
        <time>2020-02-18T11:00:58.000Z</time>
      </trkpt>
      <trkpt lat="44.58262" lon="6.87694">
        <ele>2797.1999511719</ele>
        <time>2020-02-18T11:01:01.000Z</time>
      </trkpt>
      <trkpt lat="44.58261" lon="6.87694">
        <ele>2797.1999511719</ele>
        <time>2020-02-18T11:01:02.000Z</time>
      </trkpt>
      <trkpt lat="44.58261" lon="6.87695">
        <ele>2797</ele>
        <time>2020-02-18T11:01:05.000Z</time>
      </trkpt>
      <trkpt lat="44.58261" lon="6.87695">
        <ele>2797</ele>
        <time>2020-02-18T11:01:07.000Z</time>
      </trkpt>
      <trkpt lat="44.5826" lon="6.87694">
        <ele>2797.1999511719</ele>
        <time>2020-02-18T11:01:10.000Z</time>
      </trkpt>
      <trkpt lat="44.5826" lon="6.87694">
        <ele>2797.3999023438</ele>
        <time>2020-02-18T11:01:12.000Z</time>
      </trkpt>
      <trkpt lat="44.5826" lon="6.87694">
        <ele>2797.3999023438</ele>
        <time>2020-02-18T11:01:14.000Z</time>
      </trkpt>
      <trkpt lat="44.58261" lon="6.87694">
        <ele>2797.3999023438</ele>
        <time>2020-02-18T11:01:17.000Z</time>
      </trkpt>
      <trkpt lat="44.58261" lon="6.87693">
        <ele>2797.3999023438</ele>
        <time>2020-02-18T11:01:20.000Z</time>
      </trkpt>
      <trkpt lat="44.58261" lon="6.87693">
        <ele>2797.3999023438</ele>
        <time>2020-02-18T11:01:22.000Z</time>
      </trkpt>
      <trkpt lat="44.58261" lon="6.87693">
        <ele>2797.3999023438</ele>
        <time>2020-02-18T11:01:23.000Z</time>
      </trkpt>
      <trkpt lat="44.58261" lon="6.87694">
        <ele>2797.3999023438</ele>
        <time>2020-02-18T11:01:25.000Z</time>
      </trkpt>
      <trkpt lat="44.5826" lon="6.87694">
        <ele>2797.3999023438</ele>
        <time>2020-02-18T11:01:26.000Z</time>
      </trkpt>
      <trkpt lat="44.5826" lon="6.87693">
        <ele>2797.3999023438</ele>
        <time>2020-02-18T11:01:28.000Z</time>
      </trkpt>
      <trkpt lat="44.5826" lon="6.87693">
        <ele>2797.6000976562</ele>
        <time>2020-02-18T11:01:30.000Z</time>
      </trkpt>
      <trkpt lat="44.5826" lon="6.87694">
        <ele>2797.6000976562</ele>
        <time>2020-02-18T11:01:32.000Z</time>
      </trkpt>
      <trkpt lat="44.58261" lon="6.87694">
        <ele>2797.3999023438</ele>
        <time>2020-02-18T11:01:35.000Z</time>
      </trkpt>
      <trkpt lat="44.58261" lon="6.87694">
        <ele>2797.3999023438</ele>
        <time>2020-02-18T11:01:36.000Z</time>
      </trkpt>
      <trkpt lat="44.58261" lon="6.87694">
        <ele>2797.1999511719</ele>
        <time>2020-02-18T11:01:37.000Z</time>
      </trkpt>
      <trkpt lat="44.58261" lon="6.87694">
        <ele>2797.3999023438</ele>
        <time>2020-02-18T11:01:38.000Z</time>
      </trkpt>
      <trkpt lat="44.5826" lon="6.87694">
        <ele>2797.3999023438</ele>
        <time>2020-02-18T11:01:40.000Z</time>
      </trkpt>
      <trkpt lat="44.58261" lon="6.87694">
        <ele>2797.3999023438</ele>
        <time>2020-02-18T11:01:42.000Z</time>
      </trkpt>
      <trkpt lat="44.58261" lon="6.87694">
        <ele>2797.1999511719</ele>
        <time>2020-02-18T11:01:43.000Z</time>
      </trkpt>
      <trkpt lat="44.58261" lon="6.87695">
        <ele>2797</ele>
        <time>2020-02-18T11:01:46.000Z</time>
      </trkpt>
      <trkpt lat="44.58261" lon="6.87695">
        <ele>2796.3999023438</ele>
        <time>2020-02-18T11:01:47.000Z</time>
      </trkpt>
      <trkpt lat="44.58262" lon="6.87695">
        <ele>2796.1999511719</ele>
        <time>2020-02-18T11:01:49.000Z</time>
      </trkpt>
      <trkpt lat="44.58261" lon="6.87694">
        <ele>2796.1999511719</ele>
        <time>2020-02-18T11:01:53.000Z</time>
      </trkpt>
      <trkpt lat="44.58261" lon="6.87694">
        <ele>2796.1999511719</ele>
        <time>2020-02-18T11:01:57.000Z</time>
      </trkpt>
      <trkpt lat="44.5826" lon="6.87693">
        <ele>2797.3999023438</ele>
        <time>2020-02-18T11:01:59.000Z</time>
      </trkpt>
      <trkpt lat="44.5826" lon="6.87693">
        <ele>2797.3999023438</ele>
        <time>2020-02-18T11:02:02.000Z</time>
      </trkpt>
      <trkpt lat="44.5826" lon="6.87693">
        <ele>2797.3999023438</ele>
        <time>2020-02-18T11:02:03.000Z</time>
      </trkpt>
      <trkpt lat="44.5826" lon="6.87693">
        <ele>2797.3999023438</ele>
        <time>2020-02-18T11:02:05.000Z</time>
      </trkpt>
      <trkpt lat="44.5826" lon="6.87692">
        <ele>2797.3999023438</ele>
        <time>2020-02-18T11:02:07.000Z</time>
      </trkpt>
      <trkpt lat="44.5826" lon="6.87692">
        <ele>2797.3999023438</ele>
        <time>2020-02-18T11:02:11.000Z</time>
      </trkpt>
      <trkpt lat="44.58261" lon="6.87692">
        <ele>2797.6000976562</ele>
        <time>2020-02-18T11:02:23.000Z</time>
      </trkpt>
      <trkpt lat="44.58261" lon="6.87691">
        <ele>2797.6000976562</ele>
        <time>2020-02-18T11:02:29.000Z</time>
      </trkpt>
      <trkpt lat="44.5826" lon="6.87691">
        <ele>2797.6000976562</ele>
        <time>2020-02-18T11:02:31.000Z</time>
      </trkpt>
      <trkpt lat="44.58261" lon="6.87692">
        <ele>2797.6000976562</ele>
        <time>2020-02-18T11:02:32.000Z</time>
      </trkpt>
      <trkpt lat="44.58257" lon="6.87693">
        <ele>2797.6000976562</ele>
        <time>2020-02-18T11:02:35.000Z</time>
      </trkpt>
      <trkpt lat="44.58258" lon="6.87694">
        <ele>2797.6000976562</ele>
        <time>2020-02-18T11:02:39.000Z</time>
      </trkpt>
      <trkpt lat="44.58258" lon="6.87694">
        <ele>2797.8000488281</ele>
        <time>2020-02-18T11:02:40.000Z</time>
      </trkpt>
      <trkpt lat="44.58258" lon="6.87694">
        <ele>2797.8000488281</ele>
        <time>2020-02-18T11:02:41.000Z</time>
      </trkpt>
      <trkpt lat="44.58258" lon="6.87693">
        <ele>2797.8000488281</ele>
        <time>2020-02-18T11:02:43.000Z</time>
      </trkpt>
      <trkpt lat="44.58258" lon="6.87693">
        <ele>2797.8000488281</ele>
        <time>2020-02-18T11:02:44.000Z</time>
      </trkpt>
      <trkpt lat="44.58258" lon="6.87693">
        <ele>2797.8000488281</ele>
        <time>2020-02-18T11:02:49.000Z</time>
      </trkpt>
      <trkpt lat="44.58259" lon="6.87694">
        <ele>2797.8000488281</ele>
        <time>2020-02-18T11:02:51.000Z</time>
      </trkpt>
      <trkpt lat="44.58259" lon="6.87695">
        <ele>2797.8000488281</ele>
        <time>2020-02-18T11:02:59.000Z</time>
      </trkpt>
      <trkpt lat="44.58258" lon="6.87694">
        <ele>2797.8000488281</ele>
        <time>2020-02-18T11:03:06.000Z</time>
      </trkpt>
      <trkpt lat="44.58257" lon="6.87693">
        <ele>2797.8000488281</ele>
        <time>2020-02-18T11:03:10.000Z</time>
      </trkpt>
      <trkpt lat="44.58257" lon="6.87694">
        <ele>2797.8000488281</ele>
        <time>2020-02-18T11:03:13.000Z</time>
      </trkpt>
      <trkpt lat="44.58257" lon="6.87694">
        <ele>2797.8000488281</ele>
        <time>2020-02-18T11:03:14.000Z</time>
      </trkpt>
      <trkpt lat="44.58258" lon="6.87695">
        <ele>2797.8000488281</ele>
        <time>2020-02-18T11:03:19.000Z</time>
      </trkpt>
      <trkpt lat="44.58258" lon="6.87695">
        <ele>2797.8000488281</ele>
        <time>2020-02-18T11:03:21.000Z</time>
      </trkpt>
      <trkpt lat="44.58258" lon="6.87695">
        <ele>2797.8000488281</ele>
        <time>2020-02-18T11:03:23.000Z</time>
      </trkpt>
      <trkpt lat="44.58259" lon="6.87695">
        <ele>2796.3999023438</ele>
        <time>2020-02-18T11:03:27.000Z</time>
      </trkpt>
      <trkpt lat="44.58259" lon="6.87695">
        <ele>2796.1999511719</ele>
        <time>2020-02-18T11:03:29.000Z</time>
      </trkpt>
      <trkpt lat="44.58259" lon="6.87694">
        <ele>2797.3999023438</ele>
        <time>2020-02-18T11:03:34.000Z</time>
      </trkpt>
      <trkpt lat="44.58259" lon="6.87694">
        <ele>2797.3999023438</ele>
        <time>2020-02-18T11:03:36.000Z</time>
      </trkpt>
      <trkpt lat="44.58259" lon="6.87694">
        <ele>2797.3999023438</ele>
        <time>2020-02-18T11:03:37.000Z</time>
      </trkpt>
      <trkpt lat="44.58259" lon="6.87694">
        <ele>2797.3999023438</ele>
        <time>2020-02-18T11:03:38.000Z</time>
      </trkpt>
      <trkpt lat="44.58259" lon="6.87694">
        <ele>2797.3999023438</ele>
        <time>2020-02-18T11:03:39.000Z</time>
      </trkpt>
      <trkpt lat="44.5826" lon="6.87694">
        <ele>2797.3999023438</ele>
        <time>2020-02-18T11:03:42.000Z</time>
      </trkpt>
      <trkpt lat="44.5826" lon="6.87694">
        <ele>2797.3999023438</ele>
        <time>2020-02-18T11:03:43.000Z</time>
      </trkpt>
      <trkpt lat="44.5826" lon="6.87694">
        <ele>2797.6000976562</ele>
        <time>2020-02-18T11:03:51.000Z</time>
      </trkpt>
      <trkpt lat="44.5826" lon="6.87694">
        <ele>2797.6000976562</ele>
        <time>2020-02-18T11:03:54.000Z</time>
      </trkpt>
      <trkpt lat="44.5826" lon="6.87695">
        <ele>2797.6000976562</ele>
        <time>2020-02-18T11:03:59.000Z</time>
      </trkpt>
      <trkpt lat="44.5826" lon="6.87695">
        <ele>2797.6000976562</ele>
        <time>2020-02-18T11:04:07.000Z</time>
      </trkpt>
      <trkpt lat="44.5826" lon="6.87695">
        <ele>2797.6000976562</ele>
        <time>2020-02-18T11:04:08.000Z</time>
      </trkpt>
      <trkpt lat="44.5826" lon="6.87695">
        <ele>2797.6000976562</ele>
        <time>2020-02-18T11:04:10.000Z</time>
      </trkpt>
      <trkpt lat="44.5826" lon="6.87695">
        <ele>2797.6000976562</ele>
        <time>2020-02-18T11:04:21.000Z</time>
      </trkpt>
      <trkpt lat="44.5826" lon="6.87697">
        <ele>2797.6000976562</ele>
        <time>2020-02-18T11:04:25.000Z</time>
      </trkpt>
      <trkpt lat="44.58259" lon="6.87697">
        <ele>2797.6000976562</ele>
        <time>2020-02-18T11:04:30.000Z</time>
      </trkpt>
      <trkpt lat="44.58259" lon="6.87696">
        <ele>2797.6000976562</ele>
        <time>2020-02-18T11:04:34.000Z</time>
      </trkpt>
      <trkpt lat="44.58259" lon="6.87696">
        <ele>2797.6000976562</ele>
        <time>2020-02-18T11:04:36.000Z</time>
      </trkpt>
      <trkpt lat="44.5826" lon="6.87697">
        <ele>2797.6000976562</ele>
        <time>2020-02-18T11:04:38.000Z</time>
      </trkpt>
      <trkpt lat="44.5826" lon="6.87697">
        <ele>2797.6000976562</ele>
        <time>2020-02-18T11:04:39.000Z</time>
      </trkpt>
      <trkpt lat="44.5826" lon="6.87697">
        <ele>2797.6000976562</ele>
        <time>2020-02-18T11:04:40.000Z</time>
      </trkpt>
      <trkpt lat="44.5826" lon="6.87698">
        <ele>2797.6000976562</ele>
        <time>2020-02-18T11:04:47.000Z</time>
      </trkpt>
      <trkpt lat="44.58261" lon="6.87697">
        <ele>2797.6000976562</ele>
        <time>2020-02-18T11:04:55.000Z</time>
      </trkpt>
      <trkpt lat="44.58262" lon="6.87693">
        <ele>2797.6000976562</ele>
        <time>2020-02-18T11:04:58.000Z</time>
      </trkpt>
      <trkpt lat="44.58262" lon="6.87693">
        <ele>2797.6000976562</ele>
        <time>2020-02-18T11:04:59.000Z</time>
      </trkpt>
      <trkpt lat="44.58262" lon="6.87692">
        <ele>2797.6000976562</ele>
        <time>2020-02-18T11:05:01.000Z</time>
      </trkpt>
      <trkpt lat="44.58262" lon="6.87692">
        <ele>2797.6000976562</ele>
        <time>2020-02-18T11:05:03.000Z</time>
      </trkpt>
      <trkpt lat="44.58262" lon="6.87692">
        <ele>2797.6000976562</ele>
        <time>2020-02-18T11:05:06.000Z</time>
      </trkpt>
      <trkpt lat="44.58262" lon="6.87692">
        <ele>2797.6000976562</ele>
        <time>2020-02-18T11:05:10.000Z</time>
      </trkpt>
      <trkpt lat="44.5826" lon="6.87691">
        <ele>2797.6000976562</ele>
        <time>2020-02-18T11:05:12.000Z</time>
      </trkpt>
      <trkpt lat="44.58259" lon="6.87691">
        <ele>2797.6000976562</ele>
        <time>2020-02-18T11:05:14.000Z</time>
      </trkpt>
      <trkpt lat="44.58258" lon="6.87692">
        <ele>2797.6000976562</ele>
        <time>2020-02-18T11:05:17.000Z</time>
      </trkpt>
      <trkpt lat="44.58254" lon="6.87692">
        <ele>2797.6000976562</ele>
        <time>2020-02-18T11:05:20.000Z</time>
      </trkpt>
      <trkpt lat="44.58254" lon="6.87691">
        <ele>2797.6000976562</ele>
        <time>2020-02-18T11:05:21.000Z</time>
      </trkpt>
      <trkpt lat="44.58253" lon="6.87691">
        <ele>2796.1999511719</ele>
        <time>2020-02-18T11:05:23.000Z</time>
      </trkpt>
      <trkpt lat="44.58254" lon="6.87691">
        <ele>2796</ele>
        <time>2020-02-18T11:05:29.000Z</time>
      </trkpt>
      <trkpt lat="44.58255" lon="6.87691">
        <ele>2796.1999511719</ele>
        <time>2020-02-18T11:05:35.000Z</time>
      </trkpt>
      <trkpt lat="44.58255" lon="6.87691">
        <ele>2796.6000976562</ele>
        <time>2020-02-18T11:05:48.000Z</time>
      </trkpt>
      <trkpt lat="44.58255" lon="6.87691">
        <ele>2796.6000976562</ele>
        <time>2020-02-18T11:05:53.000Z</time>
      </trkpt>
      <trkpt lat="44.58255" lon="6.87691">
        <ele>2796.6000976562</ele>
        <time>2020-02-18T11:05:54.000Z</time>
      </trkpt>
      <trkpt lat="44.58256" lon="6.87691">
        <ele>2796.6000976562</ele>
        <time>2020-02-18T11:06:00.000Z</time>
      </trkpt>
      <trkpt lat="44.58256" lon="6.8769">
        <ele>2796.6000976562</ele>
        <time>2020-02-18T11:06:02.000Z</time>
      </trkpt>
      <trkpt lat="44.58256" lon="6.8769">
        <ele>2796.6000976562</ele>
        <time>2020-02-18T11:06:03.000Z</time>
      </trkpt>
      <trkpt lat="44.58256" lon="6.8769">
        <ele>2796.6000976562</ele>
        <time>2020-02-18T11:06:04.000Z</time>
      </trkpt>
      <trkpt lat="44.58256" lon="6.8769">
        <ele>2796.6000976562</ele>
        <time>2020-02-18T11:06:05.000Z</time>
      </trkpt>
      <trkpt lat="44.58257" lon="6.87689">
        <ele>2796.3999023438</ele>
        <time>2020-02-18T11:06:14.000Z</time>
      </trkpt>
      <trkpt lat="44.58258" lon="6.8769">
        <ele>2796.6000976562</ele>
        <time>2020-02-18T11:06:15.000Z</time>
      </trkpt>
      <trkpt lat="44.58258" lon="6.8769">
        <ele>2796.6000976562</ele>
        <time>2020-02-18T11:06:16.000Z</time>
      </trkpt>
      <trkpt lat="44.58258" lon="6.8769">
        <ele>2796.6000976562</ele>
        <time>2020-02-18T11:06:19.000Z</time>
      </trkpt>
      <trkpt lat="44.58258" lon="6.8769">
        <ele>2796.6000976562</ele>
        <time>2020-02-18T11:06:20.000Z</time>
      </trkpt>
      <trkpt lat="44.58257" lon="6.8769">
        <ele>2796.6000976562</ele>
        <time>2020-02-18T11:06:22.000Z</time>
      </trkpt>
      <trkpt lat="44.58255" lon="6.87691">
        <ele>2796.8000488281</ele>
        <time>2020-02-18T11:06:25.000Z</time>
      </trkpt>
      <trkpt lat="44.58255" lon="6.87691">
        <ele>2797.1999511719</ele>
        <time>2020-02-18T11:06:29.000Z</time>
      </trkpt>
      <trkpt lat="44.58256" lon="6.87691">
        <ele>2797.1999511719</ele>
        <time>2020-02-18T11:06:31.000Z</time>
      </trkpt>
      <trkpt lat="44.58256" lon="6.87691">
        <ele>2797.1999511719</ele>
        <time>2020-02-18T11:06:33.000Z</time>
      </trkpt>
      <trkpt lat="44.58256" lon="6.87692">
        <ele>2797.8000488281</ele>
        <time>2020-02-18T11:06:37.000Z</time>
      </trkpt>
      <trkpt lat="44.58256" lon="6.87692">
        <ele>2796.3999023438</ele>
        <time>2020-02-18T11:06:40.000Z</time>
      </trkpt>
      <trkpt lat="44.58256" lon="6.87691">
        <ele>2796.1999511719</ele>
        <time>2020-02-18T11:06:47.000Z</time>
      </trkpt>
      <trkpt lat="44.58255" lon="6.87691">
        <ele>2796.1999511719</ele>
        <time>2020-02-18T11:06:52.000Z</time>
      </trkpt>
      <trkpt lat="44.58255" lon="6.87691">
        <ele>2796.1999511719</ele>
        <time>2020-02-18T11:06:54.000Z</time>
      </trkpt>
      <trkpt lat="44.58255" lon="6.87691">
        <ele>2796.1999511719</ele>
        <time>2020-02-18T11:06:56.000Z</time>
      </trkpt>
      <trkpt lat="44.58254" lon="6.87691">
        <ele>2796.3999023438</ele>
        <time>2020-02-18T11:06:59.000Z</time>
      </trkpt>
      <trkpt lat="44.58255" lon="6.87691">
        <ele>2796.3999023438</ele>
        <time>2020-02-18T11:07:04.000Z</time>
      </trkpt>
      <trkpt lat="44.58255" lon="6.87692">
        <ele>2797.8000488281</ele>
        <time>2020-02-18T11:07:06.000Z</time>
      </trkpt>
      <trkpt lat="44.58255" lon="6.87692">
        <ele>2797.3999023438</ele>
        <time>2020-02-18T11:07:08.000Z</time>
      </trkpt>
      <trkpt lat="44.58256" lon="6.87692">
        <ele>2797.3999023438</ele>
        <time>2020-02-18T11:07:11.000Z</time>
      </trkpt>
      <trkpt lat="44.58256" lon="6.87692">
        <ele>2797.3999023438</ele>
        <time>2020-02-18T11:07:14.000Z</time>
      </trkpt>
      <trkpt lat="44.58257" lon="6.87693">
        <ele>2797.3999023438</ele>
        <time>2020-02-18T11:07:23.000Z</time>
      </trkpt>
      <trkpt lat="44.58257" lon="6.87693">
        <ele>2797.3999023438</ele>
        <time>2020-02-18T11:07:24.000Z</time>
      </trkpt>
      <trkpt lat="44.58256" lon="6.87692">
        <ele>2797.3999023438</ele>
        <time>2020-02-18T11:07:26.000Z</time>
      </trkpt>
      <trkpt lat="44.58255" lon="6.87692">
        <ele>2797.6000976562</ele>
        <time>2020-02-18T11:07:41.000Z</time>
      </trkpt>
      <trkpt lat="44.58256" lon="6.87692">
        <ele>2797.6000976562</ele>
        <time>2020-02-18T11:07:42.000Z</time>
      </trkpt>
      <trkpt lat="44.58257" lon="6.87693">
        <ele>2797.6000976562</ele>
        <time>2020-02-18T11:07:46.000Z</time>
      </trkpt>
      <trkpt lat="44.58257" lon="6.87693">
        <ele>2797.6000976562</ele>
        <time>2020-02-18T11:07:47.000Z</time>
      </trkpt>
      <trkpt lat="44.58257" lon="6.87694">
        <ele>2797.6000976562</ele>
        <time>2020-02-18T11:07:48.000Z</time>
      </trkpt>
      <trkpt lat="44.58258" lon="6.87694">
        <ele>2797.6000976562</ele>
        <time>2020-02-18T11:07:50.000Z</time>
      </trkpt>
      <trkpt lat="44.58258" lon="6.87694">
        <ele>2797.6000976562</ele>
        <time>2020-02-18T11:07:54.000Z</time>
      </trkpt>
      <trkpt lat="44.58258" lon="6.87694">
        <ele>2797.6000976562</ele>
        <time>2020-02-18T11:07:58.000Z</time>
      </trkpt>
      <trkpt lat="44.58257" lon="6.87694">
        <ele>2797.6000976562</ele>
        <time>2020-02-18T11:08:00.000Z</time>
      </trkpt>
      <trkpt lat="44.58256" lon="6.87693">
        <ele>2797.6000976562</ele>
        <time>2020-02-18T11:08:05.000Z</time>
      </trkpt>
      <trkpt lat="44.58256" lon="6.87693">
        <ele>2797.6000976562</ele>
        <time>2020-02-18T11:08:07.000Z</time>
      </trkpt>
      <trkpt lat="44.58256" lon="6.87693">
        <ele>2797.6000976562</ele>
        <time>2020-02-18T11:08:08.000Z</time>
      </trkpt>
      <trkpt lat="44.58256" lon="6.87693">
        <ele>2797.6000976562</ele>
        <time>2020-02-18T11:08:09.000Z</time>
      </trkpt>
      <trkpt lat="44.58256" lon="6.87693">
        <ele>2797.6000976562</ele>
        <time>2020-02-18T11:08:11.000Z</time>
      </trkpt>
      <trkpt lat="44.58256" lon="6.87693">
        <ele>2797.6000976562</ele>
        <time>2020-02-18T11:08:12.000Z</time>
      </trkpt>
      <trkpt lat="44.58256" lon="6.87693">
        <ele>2797.6000976562</ele>
        <time>2020-02-18T11:08:13.000Z</time>
      </trkpt>
      <trkpt lat="44.58256" lon="6.87693">
        <ele>2797.6000976562</ele>
        <time>2020-02-18T11:08:15.000Z</time>
      </trkpt>
      <trkpt lat="44.58256" lon="6.87693">
        <ele>2797.6000976562</ele>
        <time>2020-02-18T11:08:17.000Z</time>
      </trkpt>
      <trkpt lat="44.58256" lon="6.87693">
        <ele>2797.6000976562</ele>
        <time>2020-02-18T11:08:20.000Z</time>
      </trkpt>
      <trkpt lat="44.58256" lon="6.87693">
        <ele>2797.6000976562</ele>
        <time>2020-02-18T11:08:21.000Z</time>
      </trkpt>
      <trkpt lat="44.58256" lon="6.87693">
        <ele>2797.6000976562</ele>
        <time>2020-02-18T11:08:22.000Z</time>
      </trkpt>
      <trkpt lat="44.58256" lon="6.87693">
        <ele>2797.6000976562</ele>
        <time>2020-02-18T11:08:26.000Z</time>
      </trkpt>
      <trkpt lat="44.58256" lon="6.87692">
        <ele>2797.6000976562</ele>
        <time>2020-02-18T11:08:28.000Z</time>
      </trkpt>
      <trkpt lat="44.58256" lon="6.87692">
        <ele>2797.6000976562</ele>
        <time>2020-02-18T11:08:29.000Z</time>
      </trkpt>
      <trkpt lat="44.58256" lon="6.87692">
        <ele>2797.6000976562</ele>
        <time>2020-02-18T11:08:30.000Z</time>
      </trkpt>
      <trkpt lat="44.58256" lon="6.87691">
        <ele>2797.6000976562</ele>
        <time>2020-02-18T11:08:31.000Z</time>
      </trkpt>
      <trkpt lat="44.58257" lon="6.8769">
        <ele>2797.6000976562</ele>
        <time>2020-02-18T11:08:34.000Z</time>
      </trkpt>
      <trkpt lat="44.58256" lon="6.87691">
        <ele>2797.6000976562</ele>
        <time>2020-02-18T11:08:36.000Z</time>
      </trkpt>
      <trkpt lat="44.58257" lon="6.87693">
        <ele>2797.6000976562</ele>
        <time>2020-02-18T11:08:40.000Z</time>
      </trkpt>
      <trkpt lat="44.58258" lon="6.87693">
        <ele>2797.6000976562</ele>
        <time>2020-02-18T11:08:41.000Z</time>
      </trkpt>
      <trkpt lat="44.58259" lon="6.87693">
        <ele>2797.6000976562</ele>
        <time>2020-02-18T11:08:45.000Z</time>
      </trkpt>
      <trkpt lat="44.58259" lon="6.87693">
        <ele>2797.6000976562</ele>
        <time>2020-02-18T11:08:47.000Z</time>
      </trkpt>
      <trkpt lat="44.58259" lon="6.87694">
        <ele>2797.6000976562</ele>
        <time>2020-02-18T11:08:50.000Z</time>
      </trkpt>
      <trkpt lat="44.5826" lon="6.87694">
        <ele>2797.6000976562</ele>
        <time>2020-02-18T11:08:52.000Z</time>
      </trkpt>
      <trkpt lat="44.5826" lon="6.87694">
        <ele>2797.6000976562</ele>
        <time>2020-02-18T11:08:53.000Z</time>
      </trkpt>
      <trkpt lat="44.58259" lon="6.87694">
        <ele>2797.6000976562</ele>
        <time>2020-02-18T11:08:54.000Z</time>
      </trkpt>
      <trkpt lat="44.58259" lon="6.87694">
        <ele>2797.6000976562</ele>
        <time>2020-02-18T11:08:56.000Z</time>
      </trkpt>
      <trkpt lat="44.58259" lon="6.87694">
        <ele>2797.6000976562</ele>
        <time>2020-02-18T11:08:57.000Z</time>
      </trkpt>
      <trkpt lat="44.58259" lon="6.87694">
        <ele>2797.6000976562</ele>
        <time>2020-02-18T11:08:58.000Z</time>
      </trkpt>
      <trkpt lat="44.58259" lon="6.87694">
        <ele>2797.6000976562</ele>
        <time>2020-02-18T11:08:59.000Z</time>
      </trkpt>
      <trkpt lat="44.58259" lon="6.87694">
        <ele>2797.6000976562</ele>
        <time>2020-02-18T11:09:02.000Z</time>
      </trkpt>
      <trkpt lat="44.58259" lon="6.87694">
        <ele>2797.6000976562</ele>
        <time>2020-02-18T11:09:10.000Z</time>
      </trkpt>
      <trkpt lat="44.58259" lon="6.87694">
        <ele>2797.6000976562</ele>
        <time>2020-02-18T11:09:11.000Z</time>
      </trkpt>
      <trkpt lat="44.5826" lon="6.87693">
        <ele>2797.6000976562</ele>
        <time>2020-02-18T11:09:15.000Z</time>
      </trkpt>
      <trkpt lat="44.5826" lon="6.87693">
        <ele>2797.6000976562</ele>
        <time>2020-02-18T11:09:16.000Z</time>
      </trkpt>
      <trkpt lat="44.5826" lon="6.87692">
        <ele>2797.6000976562</ele>
        <time>2020-02-18T11:09:21.000Z</time>
      </trkpt>
      <trkpt lat="44.5826" lon="6.87692">
        <ele>2797.6000976562</ele>
        <time>2020-02-18T11:09:24.000Z</time>
      </trkpt>
      <trkpt lat="44.58261" lon="6.87692">
        <ele>2797.6000976562</ele>
        <time>2020-02-18T11:09:26.000Z</time>
      </trkpt>
      <trkpt lat="44.58262" lon="6.87692">
        <ele>2797.6000976562</ele>
        <time>2020-02-18T11:09:27.000Z</time>
      </trkpt>
      <trkpt lat="44.58263" lon="6.87692">
        <ele>2797.6000976562</ele>
        <time>2020-02-18T11:09:28.000Z</time>
      </trkpt>
      <trkpt lat="44.58264" lon="6.87691">
        <ele>2798.1999511719</ele>
        <time>2020-02-18T11:09:30.000Z</time>
      </trkpt>
      <trkpt lat="44.58264" lon="6.87691">
        <ele>2798.6000976562</ele>
        <time>2020-02-18T11:09:31.000Z</time>
      </trkpt>
      <trkpt lat="44.58264" lon="6.87691">
        <ele>2798.6000976562</ele>
        <time>2020-02-18T11:09:34.000Z</time>
      </trkpt>
      <trkpt lat="44.58263" lon="6.8769">
        <ele>2798.8000488281</ele>
        <time>2020-02-18T11:09:35.000Z</time>
      </trkpt>
      <trkpt lat="44.58263" lon="6.8769">
        <ele>2798.8000488281</ele>
        <time>2020-02-18T11:09:36.000Z</time>
      </trkpt>
      <trkpt lat="44.58264" lon="6.87691">
        <ele>2798.8000488281</ele>
        <time>2020-02-18T11:09:48.000Z</time>
      </trkpt>
      <trkpt lat="44.58263" lon="6.87691">
        <ele>2798.8000488281</ele>
        <time>2020-02-18T11:09:54.000Z</time>
      </trkpt>
      <trkpt lat="44.58262" lon="6.87691">
        <ele>2798.8000488281</ele>
        <time>2020-02-18T11:09:56.000Z</time>
      </trkpt>
      <trkpt lat="44.58262" lon="6.87691">
        <ele>2799</ele>
        <time>2020-02-18T11:09:58.000Z</time>
      </trkpt>
      <trkpt lat="44.58262" lon="6.87691">
        <ele>2799</ele>
        <time>2020-02-18T11:10:02.000Z</time>
      </trkpt>
      <trkpt lat="44.58262" lon="6.87691">
        <ele>2799</ele>
        <time>2020-02-18T11:10:03.000Z</time>
      </trkpt>
      <trkpt lat="44.58262" lon="6.87691">
        <ele>2799</ele>
        <time>2020-02-18T11:10:04.000Z</time>
      </trkpt>
      <trkpt lat="44.58262" lon="6.87691">
        <ele>2799</ele>
        <time>2020-02-18T11:10:05.000Z</time>
      </trkpt>
      <trkpt lat="44.58262" lon="6.87692">
        <ele>2799</ele>
        <time>2020-02-18T11:10:07.000Z</time>
      </trkpt>
      <trkpt lat="44.58262" lon="6.87692">
        <ele>2799</ele>
        <time>2020-02-18T11:10:09.000Z</time>
      </trkpt>
      <trkpt lat="44.58261" lon="6.87691">
        <ele>2799.1999511719</ele>
        <time>2020-02-18T11:10:11.000Z</time>
      </trkpt>
      <trkpt lat="44.58262" lon="6.87691">
        <ele>2799.1999511719</ele>
        <time>2020-02-18T11:10:13.000Z</time>
      </trkpt>
      <trkpt lat="44.58262" lon="6.87691">
        <ele>2799.1999511719</ele>
        <time>2020-02-18T11:10:16.000Z</time>
      </trkpt>
      <trkpt lat="44.58263" lon="6.87691">
        <ele>2799</ele>
        <time>2020-02-18T11:10:18.000Z</time>
      </trkpt>
      <trkpt lat="44.58263" lon="6.87691">
        <ele>2799</ele>
        <time>2020-02-18T11:10:20.000Z</time>
      </trkpt>
      <trkpt lat="44.58263" lon="6.87691">
        <ele>2799</ele>
        <time>2020-02-18T11:10:22.000Z</time>
      </trkpt>
      <trkpt lat="44.58262" lon="6.8769">
        <ele>2799</ele>
        <time>2020-02-18T11:10:23.000Z</time>
      </trkpt>
      <trkpt lat="44.58262" lon="6.87689">
        <ele>2799</ele>
        <time>2020-02-18T11:10:24.000Z</time>
      </trkpt>
      <trkpt lat="44.58259" lon="6.87689">
        <ele>2799.3999023438</ele>
        <time>2020-02-18T11:10:37.000Z</time>
      </trkpt>
      <trkpt lat="44.5826" lon="6.8769">
        <ele>2798.8000488281</ele>
        <time>2020-02-18T11:10:39.000Z</time>
      </trkpt>
      <trkpt lat="44.5826" lon="6.87691">
        <ele>2798.8000488281</ele>
        <time>2020-02-18T11:10:46.000Z</time>
      </trkpt>
      <trkpt lat="44.5826" lon="6.87691">
        <ele>2798.8000488281</ele>
        <time>2020-02-18T11:10:54.000Z</time>
      </trkpt>
      <trkpt lat="44.5826" lon="6.87691">
        <ele>2798.8000488281</ele>
        <time>2020-02-18T11:10:56.000Z</time>
      </trkpt>
      <trkpt lat="44.5826" lon="6.87691">
        <ele>2798.8000488281</ele>
        <time>2020-02-18T11:10:58.000Z</time>
      </trkpt>
      <trkpt lat="44.5826" lon="6.87691">
        <ele>2798.8000488281</ele>
        <time>2020-02-18T11:11:00.000Z</time>
      </trkpt>
      <trkpt lat="44.5826" lon="6.87691">
        <ele>2798.8000488281</ele>
        <time>2020-02-18T11:11:02.000Z</time>
      </trkpt>
      <trkpt lat="44.5826" lon="6.8769">
        <ele>2798.8000488281</ele>
        <time>2020-02-18T11:11:04.000Z</time>
      </trkpt>
      <trkpt lat="44.5826" lon="6.8769">
        <ele>2798.8000488281</ele>
        <time>2020-02-18T11:11:05.000Z</time>
      </trkpt>
      <trkpt lat="44.5826" lon="6.87689">
        <ele>2798.8000488281</ele>
        <time>2020-02-18T11:11:09.000Z</time>
      </trkpt>
      <trkpt lat="44.58259" lon="6.87689">
        <ele>2798.8000488281</ele>
        <time>2020-02-18T11:11:15.000Z</time>
      </trkpt>
      <trkpt lat="44.58259" lon="6.8769">
        <ele>2798.8000488281</ele>
        <time>2020-02-18T11:11:18.000Z</time>
      </trkpt>
      <trkpt lat="44.58259" lon="6.87691">
        <ele>2798.8000488281</ele>
        <time>2020-02-18T11:11:26.000Z</time>
      </trkpt>
      <trkpt lat="44.58259" lon="6.87691">
        <ele>2798.8000488281</ele>
        <time>2020-02-18T11:11:28.000Z</time>
      </trkpt>
      <trkpt lat="44.5826" lon="6.87692">
        <ele>2798.8000488281</ele>
        <time>2020-02-18T11:11:32.000Z</time>
      </trkpt>
      <trkpt lat="44.5826" lon="6.87692">
        <ele>2798.8000488281</ele>
        <time>2020-02-18T11:11:36.000Z</time>
      </trkpt>
      <trkpt lat="44.58259" lon="6.87693">
        <ele>2798.8000488281</ele>
        <time>2020-02-18T11:11:37.000Z</time>
      </trkpt>
      <trkpt lat="44.58259" lon="6.87693">
        <ele>2798.8000488281</ele>
        <time>2020-02-18T11:11:38.000Z</time>
      </trkpt>
      <trkpt lat="44.58259" lon="6.87693">
        <ele>2798.8000488281</ele>
        <time>2020-02-18T11:11:39.000Z</time>
      </trkpt>
      <trkpt lat="44.58259" lon="6.87693">
        <ele>2798.8000488281</ele>
        <time>2020-02-18T11:11:41.000Z</time>
      </trkpt>
      <trkpt lat="44.58259" lon="6.87693">
        <ele>2798.8000488281</ele>
        <time>2020-02-18T11:11:43.000Z</time>
      </trkpt>
      <trkpt lat="44.58259" lon="6.87693">
        <ele>2798.8000488281</ele>
        <time>2020-02-18T11:11:45.000Z</time>
      </trkpt>
      <trkpt lat="44.58259" lon="6.87693">
        <ele>2798.8000488281</ele>
        <time>2020-02-18T11:11:47.000Z</time>
      </trkpt>
      <trkpt lat="44.58259" lon="6.87693">
        <ele>2798.8000488281</ele>
        <time>2020-02-18T11:11:49.000Z</time>
      </trkpt>
      <trkpt lat="44.58259" lon="6.87693">
        <ele>2798.8000488281</ele>
        <time>2020-02-18T11:11:50.000Z</time>
      </trkpt>
      <trkpt lat="44.58259" lon="6.87693">
        <ele>2798.8000488281</ele>
        <time>2020-02-18T11:11:51.000Z</time>
      </trkpt>
      <trkpt lat="44.58258" lon="6.87694">
        <ele>2798.8000488281</ele>
        <time>2020-02-18T11:11:59.000Z</time>
      </trkpt>
      <trkpt lat="44.58258" lon="6.87693">
        <ele>2798.8000488281</ele>
        <time>2020-02-18T11:12:01.000Z</time>
      </trkpt>
      <trkpt lat="44.58258" lon="6.87693">
        <ele>2798.8000488281</ele>
        <time>2020-02-18T11:12:04.000Z</time>
      </trkpt>
      <trkpt lat="44.58258" lon="6.87693">
        <ele>2798.8000488281</ele>
        <time>2020-02-18T11:12:10.000Z</time>
      </trkpt>
      <trkpt lat="44.58258" lon="6.87693">
        <ele>2798.8000488281</ele>
        <time>2020-02-18T11:12:11.000Z</time>
      </trkpt>
      <trkpt lat="44.5826" lon="6.87694">
        <ele>2798.8000488281</ele>
        <time>2020-02-18T11:12:17.000Z</time>
      </trkpt>
      <trkpt lat="44.5826" lon="6.87693">
        <ele>2798.8000488281</ele>
        <time>2020-02-18T11:12:19.000Z</time>
      </trkpt>
      <trkpt lat="44.58259" lon="6.87692">
        <ele>2798.8000488281</ele>
        <time>2020-02-18T11:12:22.000Z</time>
      </trkpt>
      <trkpt lat="44.5826" lon="6.87692">
        <ele>2798.8000488281</ele>
        <time>2020-02-18T11:12:24.000Z</time>
      </trkpt>
      <trkpt lat="44.58258" lon="6.87692">
        <ele>2798.8000488281</ele>
        <time>2020-02-18T11:12:35.000Z</time>
      </trkpt>
      <trkpt lat="44.58257" lon="6.87692">
        <ele>2798.8000488281</ele>
        <time>2020-02-18T11:12:40.000Z</time>
      </trkpt>
      <trkpt lat="44.58257" lon="6.87693">
        <ele>2798.8000488281</ele>
        <time>2020-02-18T11:12:41.000Z</time>
      </trkpt>
      <trkpt lat="44.58257" lon="6.87694">
        <ele>2798.8000488281</ele>
        <time>2020-02-18T11:12:42.000Z</time>
      </trkpt>
      <trkpt lat="44.58258" lon="6.87694">
        <ele>2798.8000488281</ele>
        <time>2020-02-18T11:12:45.000Z</time>
      </trkpt>
      <trkpt lat="44.58258" lon="6.87692">
        <ele>2798.8000488281</ele>
        <time>2020-02-18T11:12:50.000Z</time>
      </trkpt>
      <trkpt lat="44.58258" lon="6.87692">
        <ele>2798.8000488281</ele>
        <time>2020-02-18T11:12:55.000Z</time>
      </trkpt>
      <trkpt lat="44.58258" lon="6.87692">
        <ele>2798.8000488281</ele>
        <time>2020-02-18T11:12:57.000Z</time>
      </trkpt>
      <trkpt lat="44.58258" lon="6.87692">
        <ele>2798.8000488281</ele>
        <time>2020-02-18T11:12:58.000Z</time>
      </trkpt>
      <trkpt lat="44.58258" lon="6.87692">
        <ele>2798.8000488281</ele>
        <time>2020-02-18T11:12:59.000Z</time>
      </trkpt>
      <trkpt lat="44.58258" lon="6.87692">
        <ele>2798.8000488281</ele>
        <time>2020-02-18T11:13:01.000Z</time>
      </trkpt>
      <trkpt lat="44.58258" lon="6.87692">
        <ele>2798.8000488281</ele>
        <time>2020-02-18T11:13:02.000Z</time>
      </trkpt>
      <trkpt lat="44.58258" lon="6.87692">
        <ele>2798.8000488281</ele>
        <time>2020-02-18T11:13:04.000Z</time>
      </trkpt>
      <trkpt lat="44.58258" lon="6.87692">
        <ele>2798.8000488281</ele>
        <time>2020-02-18T11:13:09.000Z</time>
      </trkpt>
      <trkpt lat="44.58258" lon="6.87692">
        <ele>2798.8000488281</ele>
        <time>2020-02-18T11:13:10.000Z</time>
      </trkpt>
      <trkpt lat="44.58258" lon="6.87692">
        <ele>2798.8000488281</ele>
        <time>2020-02-18T11:13:11.000Z</time>
      </trkpt>
      <trkpt lat="44.58258" lon="6.87692">
        <ele>2798.8000488281</ele>
        <time>2020-02-18T11:13:13.000Z</time>
      </trkpt>
      <trkpt lat="44.58259" lon="6.87691">
        <ele>2798.8000488281</ele>
        <time>2020-02-18T11:13:21.000Z</time>
      </trkpt>
      <trkpt lat="44.5826" lon="6.87691">
        <ele>2798.8000488281</ele>
        <time>2020-02-18T11:13:23.000Z</time>
      </trkpt>
      <trkpt lat="44.58261" lon="6.87691">
        <ele>2798.8000488281</ele>
        <time>2020-02-18T11:13:30.000Z</time>
      </trkpt>
      <trkpt lat="44.58261" lon="6.87691">
        <ele>2798.8000488281</ele>
        <time>2020-02-18T11:13:31.000Z</time>
      </trkpt>
      <trkpt lat="44.58261" lon="6.87691">
        <ele>2798.8000488281</ele>
        <time>2020-02-18T11:13:32.000Z</time>
      </trkpt>
      <trkpt lat="44.58261" lon="6.87691">
        <ele>2798.8000488281</ele>
        <time>2020-02-18T11:13:36.000Z</time>
      </trkpt>
      <trkpt lat="44.58261" lon="6.87691">
        <ele>2798.8000488281</ele>
        <time>2020-02-18T11:13:40.000Z</time>
      </trkpt>
      <trkpt lat="44.58261" lon="6.87691">
        <ele>2798.8000488281</ele>
        <time>2020-02-18T11:13:41.000Z</time>
      </trkpt>
      <trkpt lat="44.58261" lon="6.87691">
        <ele>2798.8000488281</ele>
        <time>2020-02-18T11:13:42.000Z</time>
      </trkpt>
      <trkpt lat="44.58261" lon="6.87691">
        <ele>2798.8000488281</ele>
        <time>2020-02-18T11:13:43.000Z</time>
      </trkpt>
      <trkpt lat="44.58262" lon="6.87691">
        <ele>2798.8000488281</ele>
        <time>2020-02-18T11:13:45.000Z</time>
      </trkpt>
      <trkpt lat="44.58262" lon="6.87691">
        <ele>2798.8000488281</ele>
        <time>2020-02-18T11:13:46.000Z</time>
      </trkpt>
      <trkpt lat="44.58261" lon="6.87691">
        <ele>2798.8000488281</ele>
        <time>2020-02-18T11:13:47.000Z</time>
      </trkpt>
      <trkpt lat="44.58261" lon="6.87691">
        <ele>2798.8000488281</ele>
        <time>2020-02-18T11:13:49.000Z</time>
      </trkpt>
      <trkpt lat="44.58262" lon="6.8769">
        <ele>2798.8000488281</ele>
        <time>2020-02-18T11:13:53.000Z</time>
      </trkpt>
      <trkpt lat="44.58262" lon="6.87689">
        <ele>2798.8000488281</ele>
        <time>2020-02-18T11:13:54.000Z</time>
      </trkpt>
      <trkpt lat="44.58262" lon="6.87689">
        <ele>2798.8000488281</ele>
        <time>2020-02-18T11:13:55.000Z</time>
      </trkpt>
      <trkpt lat="44.58263" lon="6.8769">
        <ele>2798.8000488281</ele>
        <time>2020-02-18T11:13:58.000Z</time>
      </trkpt>
      <trkpt lat="44.58264" lon="6.8769">
        <ele>2798.8000488281</ele>
        <time>2020-02-18T11:14:01.000Z</time>
      </trkpt>
      <trkpt lat="44.58263" lon="6.8769">
        <ele>2798.8000488281</ele>
        <time>2020-02-18T11:14:03.000Z</time>
      </trkpt>
      <trkpt lat="44.58264" lon="6.87692">
        <ele>2798.8000488281</ele>
        <time>2020-02-18T11:14:05.000Z</time>
      </trkpt>
      <trkpt lat="44.58263" lon="6.87691">
        <ele>2798.8000488281</ele>
        <time>2020-02-18T11:14:10.000Z</time>
      </trkpt>
      <trkpt lat="44.58262" lon="6.87691">
        <ele>2798.8000488281</ele>
        <time>2020-02-18T11:14:16.000Z</time>
      </trkpt>
      <trkpt lat="44.58262" lon="6.87691">
        <ele>2798.8000488281</ele>
        <time>2020-02-18T11:14:22.000Z</time>
      </trkpt>
      <trkpt lat="44.58262" lon="6.8769">
        <ele>2798.8000488281</ele>
        <time>2020-02-18T11:14:24.000Z</time>
      </trkpt>
      <trkpt lat="44.58264" lon="6.87691">
        <ele>2798.8000488281</ele>
        <time>2020-02-18T11:14:27.000Z</time>
      </trkpt>
      <trkpt lat="44.58262" lon="6.8769">
        <ele>2798.8000488281</ele>
        <time>2020-02-18T11:14:32.000Z</time>
      </trkpt>
      <trkpt lat="44.58261" lon="6.8769">
        <ele>2798.8000488281</ele>
        <time>2020-02-18T11:14:33.000Z</time>
      </trkpt>
      <trkpt lat="44.58261" lon="6.8769">
        <ele>2798.8000488281</ele>
        <time>2020-02-18T11:14:38.000Z</time>
      </trkpt>
      <trkpt lat="44.58261" lon="6.87691">
        <ele>2798.8000488281</ele>
        <time>2020-02-18T11:14:43.000Z</time>
      </trkpt>
      <trkpt lat="44.58261" lon="6.87691">
        <ele>2798.8000488281</ele>
        <time>2020-02-18T11:14:48.000Z</time>
      </trkpt>
      <trkpt lat="44.58263" lon="6.87692">
        <ele>2798.8000488281</ele>
        <time>2020-02-18T11:14:53.000Z</time>
      </trkpt>
      <trkpt lat="44.58263" lon="6.87692">
        <ele>2798.8000488281</ele>
        <time>2020-02-18T11:14:56.000Z</time>
      </trkpt>
      <trkpt lat="44.58263" lon="6.87692">
        <ele>2798.8000488281</ele>
        <time>2020-02-18T11:14:59.000Z</time>
      </trkpt>
      <trkpt lat="44.58263" lon="6.87692">
        <ele>2798.8000488281</ele>
        <time>2020-02-18T11:15:00.000Z</time>
      </trkpt>
      <trkpt lat="44.58263" lon="6.87693">
        <ele>2798.8000488281</ele>
        <time>2020-02-18T11:15:02.000Z</time>
      </trkpt>
      <trkpt lat="44.58263" lon="6.87692">
        <ele>2798.8000488281</ele>
        <time>2020-02-18T11:15:08.000Z</time>
      </trkpt>
      <trkpt lat="44.58263" lon="6.87692">
        <ele>2798.8000488281</ele>
        <time>2020-02-18T11:15:12.000Z</time>
      </trkpt>
      <trkpt lat="44.58263" lon="6.87692">
        <ele>2798.8000488281</ele>
        <time>2020-02-18T11:15:16.000Z</time>
      </trkpt>
      <trkpt lat="44.58263" lon="6.87691">
        <ele>2798.8000488281</ele>
        <time>2020-02-18T11:15:21.000Z</time>
      </trkpt>
      <trkpt lat="44.58262" lon="6.87691">
        <ele>2798.8000488281</ele>
        <time>2020-02-18T11:15:23.000Z</time>
      </trkpt>
      <trkpt lat="44.58262" lon="6.87692">
        <ele>2798.8000488281</ele>
        <time>2020-02-18T11:15:26.000Z</time>
      </trkpt>
      <trkpt lat="44.58262" lon="6.87692">
        <ele>2798.8000488281</ele>
        <time>2020-02-18T11:15:34.000Z</time>
      </trkpt>
      <trkpt lat="44.58262" lon="6.87693">
        <ele>2798.8000488281</ele>
        <time>2020-02-18T11:15:35.000Z</time>
      </trkpt>
      <trkpt lat="44.58262" lon="6.87693">
        <ele>2798.8000488281</ele>
        <time>2020-02-18T11:15:37.000Z</time>
      </trkpt>
      <trkpt lat="44.58262" lon="6.87693">
        <ele>2798.8000488281</ele>
        <time>2020-02-18T11:15:38.000Z</time>
      </trkpt>
      <trkpt lat="44.58261" lon="6.87693">
        <ele>2798.8000488281</ele>
        <time>2020-02-18T11:15:40.000Z</time>
      </trkpt>
      <trkpt lat="44.58261" lon="6.87692">
        <ele>2798.8000488281</ele>
        <time>2020-02-18T11:15:44.000Z</time>
      </trkpt>
      <trkpt lat="44.5826" lon="6.87693">
        <ele>2798.8000488281</ele>
        <time>2020-02-18T11:15:46.000Z</time>
      </trkpt>
      <trkpt lat="44.5826" lon="6.87693">
        <ele>2798.8000488281</ele>
        <time>2020-02-18T11:15:48.000Z</time>
      </trkpt>
      <trkpt lat="44.5826" lon="6.87693">
        <ele>2798.8000488281</ele>
        <time>2020-02-18T11:15:49.000Z</time>
      </trkpt>
      <trkpt lat="44.58261" lon="6.87693">
        <ele>2798.8000488281</ele>
        <time>2020-02-18T11:15:57.000Z</time>
      </trkpt>
      <trkpt lat="44.58261" lon="6.87693">
        <ele>2798.8000488281</ele>
        <time>2020-02-18T11:16:03.000Z</time>
      </trkpt>
      <trkpt lat="44.58262" lon="6.87692">
        <ele>2798.8000488281</ele>
        <time>2020-02-18T11:16:20.000Z</time>
      </trkpt>
      <trkpt lat="44.58261" lon="6.87692">
        <ele>2798.8000488281</ele>
        <time>2020-02-18T11:16:21.000Z</time>
      </trkpt>
      <trkpt lat="44.58261" lon="6.87692">
        <ele>2798.8000488281</ele>
        <time>2020-02-18T11:16:23.000Z</time>
      </trkpt>
      <trkpt lat="44.58262" lon="6.87692">
        <ele>2798.8000488281</ele>
        <time>2020-02-18T11:16:25.000Z</time>
      </trkpt>
      <trkpt lat="44.58261" lon="6.87692">
        <ele>2798.8000488281</ele>
        <time>2020-02-18T11:16:35.000Z</time>
      </trkpt>
      <trkpt lat="44.58262" lon="6.87691">
        <ele>2798.8000488281</ele>
        <time>2020-02-18T11:16:41.000Z</time>
      </trkpt>
      <trkpt lat="44.58262" lon="6.87691">
        <ele>2798.8000488281</ele>
        <time>2020-02-18T11:16:43.000Z</time>
      </trkpt>
      <trkpt lat="44.58262" lon="6.87691">
        <ele>2798.8000488281</ele>
        <time>2020-02-18T11:16:48.000Z</time>
      </trkpt>
      <trkpt lat="44.58262" lon="6.87691">
        <ele>2798.8000488281</ele>
        <time>2020-02-18T11:16:50.000Z</time>
      </trkpt>
      <trkpt lat="44.58262" lon="6.87691">
        <ele>2798.8000488281</ele>
        <time>2020-02-18T11:16:53.000Z</time>
      </trkpt>
      <trkpt lat="44.58261" lon="6.87692">
        <ele>2798.8000488281</ele>
        <time>2020-02-18T11:17:01.000Z</time>
      </trkpt>
      <trkpt lat="44.58261" lon="6.87692">
        <ele>2798.8000488281</ele>
        <time>2020-02-18T11:17:48.000Z</time>
      </trkpt>
      <trkpt lat="44.58261" lon="6.87692">
        <ele>2798.8000488281</ele>
        <time>2020-02-18T11:18:32.000Z</time>
      </trkpt>
      <trkpt lat="44.58261" lon="6.87691">
        <ele>2798.8000488281</ele>
        <time>2020-02-18T11:18:35.000Z</time>
      </trkpt>
      <trkpt lat="44.58261" lon="6.87691">
        <ele>2798.8000488281</ele>
        <time>2020-02-18T11:18:47.000Z</time>
      </trkpt>
      <trkpt lat="44.5826" lon="6.87691">
        <ele>2798.8000488281</ele>
        <time>2020-02-18T11:18:56.000Z</time>
      </trkpt>
      <trkpt lat="44.58261" lon="6.87691">
        <ele>2798.8000488281</ele>
        <time>2020-02-18T11:19:05.000Z</time>
      </trkpt>
      <trkpt lat="44.58261" lon="6.87691">
        <ele>2798.8000488281</ele>
        <time>2020-02-18T11:19:06.000Z</time>
      </trkpt>
      <trkpt lat="44.58261" lon="6.87692">
        <ele>2798.8000488281</ele>
        <time>2020-02-18T11:19:11.000Z</time>
      </trkpt>
      <trkpt lat="44.58261" lon="6.87691">
        <ele>2798.8000488281</ele>
        <time>2020-02-18T11:19:13.000Z</time>
      </trkpt>
      <trkpt lat="44.58261" lon="6.87692">
        <ele>2798.8000488281</ele>
        <time>2020-02-18T11:19:15.000Z</time>
      </trkpt>
      <trkpt lat="44.58261" lon="6.87692">
        <ele>2798.8000488281</ele>
        <time>2020-02-18T11:19:17.000Z</time>
      </trkpt>
      <trkpt lat="44.58261" lon="6.87689">
        <ele>2798.8000488281</ele>
        <time>2020-02-18T11:19:28.000Z</time>
      </trkpt>
      <trkpt lat="44.5826" lon="6.87691">
        <ele>2798.8000488281</ele>
        <time>2020-02-18T11:19:34.000Z</time>
      </trkpt>
      <trkpt lat="44.5826" lon="6.87692">
        <ele>2798.8000488281</ele>
        <time>2020-02-18T11:19:36.000Z</time>
      </trkpt>
      <trkpt lat="44.58262" lon="6.87694">
        <ele>2798.8000488281</ele>
        <time>2020-02-18T11:19:39.000Z</time>
      </trkpt>
      <trkpt lat="44.58262" lon="6.87695">
        <ele>2798.8000488281</ele>
        <time>2020-02-18T11:19:41.000Z</time>
      </trkpt>
      <trkpt lat="44.58262" lon="6.87695">
        <ele>2798.8000488281</ele>
        <time>2020-02-18T11:19:46.000Z</time>
      </trkpt>
      <trkpt lat="44.58262" lon="6.87695">
        <ele>2798.8000488281</ele>
        <time>2020-02-18T11:19:48.000Z</time>
      </trkpt>
      <trkpt lat="44.58262" lon="6.87695">
        <ele>2798.8000488281</ele>
        <time>2020-02-18T11:19:55.000Z</time>
      </trkpt>
      <trkpt lat="44.58261" lon="6.87695">
        <ele>2798.8000488281</ele>
        <time>2020-02-18T11:20:00.000Z</time>
      </trkpt>
      <trkpt lat="44.58263" lon="6.8769">
        <ele>2798.8000488281</ele>
        <time>2020-02-18T11:20:12.000Z</time>
      </trkpt>
      <trkpt lat="44.58262" lon="6.87689">
        <ele>2798.8000488281</ele>
        <time>2020-02-18T11:20:23.000Z</time>
      </trkpt>
      <trkpt lat="44.58262" lon="6.8769">
        <ele>2798.8000488281</ele>
        <time>2020-02-18T11:20:31.000Z</time>
      </trkpt>
      <trkpt lat="44.58261" lon="6.87689">
        <ele>2798.8000488281</ele>
        <time>2020-02-18T11:20:35.000Z</time>
      </trkpt>
      <trkpt lat="44.58261" lon="6.87689">
        <ele>2798.8000488281</ele>
        <time>2020-02-18T11:20:37.000Z</time>
      </trkpt>
      <trkpt lat="44.58261" lon="6.87689">
        <ele>2798.8000488281</ele>
        <time>2020-02-18T11:20:38.000Z</time>
      </trkpt>
      <trkpt lat="44.58261" lon="6.87689">
        <ele>2798.8000488281</ele>
        <time>2020-02-18T11:20:39.000Z</time>
      </trkpt>
      <trkpt lat="44.58261" lon="6.87689">
        <ele>2798.8000488281</ele>
        <time>2020-02-18T11:20:40.000Z</time>
      </trkpt>
      <trkpt lat="44.58261" lon="6.87689">
        <ele>2798.8000488281</ele>
        <time>2020-02-18T11:20:45.000Z</time>
      </trkpt>
      <trkpt lat="44.58261" lon="6.8769">
        <ele>2798.8000488281</ele>
        <time>2020-02-18T11:20:47.000Z</time>
      </trkpt>
      <trkpt lat="44.58261" lon="6.8769">
        <ele>2798.8000488281</ele>
        <time>2020-02-18T11:20:50.000Z</time>
      </trkpt>
      <trkpt lat="44.58261" lon="6.87691">
        <ele>2798.8000488281</ele>
        <time>2020-02-18T11:20:53.000Z</time>
      </trkpt>
      <trkpt lat="44.58261" lon="6.8769">
        <ele>2798.8000488281</ele>
        <time>2020-02-18T11:20:56.000Z</time>
      </trkpt>
      <trkpt lat="44.58258" lon="6.87691">
        <ele>2798.8000488281</ele>
        <time>2020-02-18T11:21:02.000Z</time>
      </trkpt>
      <trkpt lat="44.58257" lon="6.87692">
        <ele>2798.8000488281</ele>
        <time>2020-02-18T11:21:04.000Z</time>
      </trkpt>
      <trkpt lat="44.58256" lon="6.87692">
        <ele>2798.8000488281</ele>
        <time>2020-02-18T11:21:05.000Z</time>
      </trkpt>
      <trkpt lat="44.58257" lon="6.87692">
        <ele>2798.8000488281</ele>
        <time>2020-02-18T11:21:07.000Z</time>
      </trkpt>
      <trkpt lat="44.58258" lon="6.87691">
        <ele>2799</ele>
        <time>2020-02-18T11:21:13.000Z</time>
      </trkpt>
      <trkpt lat="44.58259" lon="6.8769">
        <ele>2799.1999511719</ele>
        <time>2020-02-18T11:21:15.000Z</time>
      </trkpt>
      <trkpt lat="44.5826" lon="6.87691">
        <ele>2799.1999511719</ele>
        <time>2020-02-18T11:21:16.000Z</time>
      </trkpt>
      <trkpt lat="44.58261" lon="6.87692">
        <ele>2799.3999023438</ele>
        <time>2020-02-18T11:21:18.000Z</time>
      </trkpt>
      <trkpt lat="44.58262" lon="6.87693">
        <ele>2799.8000488281</ele>
        <time>2020-02-18T11:21:21.000Z</time>
      </trkpt>
      <trkpt lat="44.58264" lon="6.87694">
        <ele>2800</ele>
        <time>2020-02-18T11:21:24.000Z</time>
      </trkpt>
      <trkpt lat="44.58264" lon="6.87694">
        <ele>2799.8000488281</ele>
        <time>2020-02-18T11:21:28.000Z</time>
      </trkpt>
      <trkpt lat="44.58264" lon="6.87693">
        <ele>2800</ele>
        <time>2020-02-18T11:21:33.000Z</time>
      </trkpt>
      <trkpt lat="44.58264" lon="6.87693">
        <ele>2799.8000488281</ele>
        <time>2020-02-18T11:21:36.000Z</time>
      </trkpt>
      <trkpt lat="44.58263" lon="6.87691">
        <ele>2799.8000488281</ele>
        <time>2020-02-18T11:21:53.000Z</time>
      </trkpt>
      <trkpt lat="44.58264" lon="6.87693">
        <ele>2800</ele>
        <time>2020-02-18T11:22:17.000Z</time>
      </trkpt>
      <trkpt lat="44.58262" lon="6.87693">
        <ele>2800</ele>
        <time>2020-02-18T11:22:21.000Z</time>
      </trkpt>
      <trkpt lat="44.58259" lon="6.87693">
        <ele>2800</ele>
        <time>2020-02-18T11:22:27.000Z</time>
      </trkpt>
      <trkpt lat="44.58259" lon="6.87693">
        <ele>2800.1999511719</ele>
        <time>2020-02-18T11:22:28.000Z</time>
      </trkpt>
      <trkpt lat="44.5826" lon="6.87693">
        <ele>2800.1999511719</ele>
        <time>2020-02-18T11:22:33.000Z</time>
      </trkpt>
      <trkpt lat="44.5826" lon="6.87693">
        <ele>2800</ele>
        <time>2020-02-18T11:22:34.000Z</time>
      </trkpt>
      <trkpt lat="44.5826" lon="6.87693">
        <ele>2800</ele>
        <time>2020-02-18T11:22:35.000Z</time>
      </trkpt>
      <trkpt lat="44.5826" lon="6.87693">
        <ele>2800</ele>
        <time>2020-02-18T11:22:40.000Z</time>
      </trkpt>
      <trkpt lat="44.5826" lon="6.87692">
        <ele>2800.6000976562</ele>
        <time>2020-02-18T11:22:45.000Z</time>
      </trkpt>
      <trkpt lat="44.5826" lon="6.87692">
        <ele>2800.6000976562</ele>
        <time>2020-02-18T11:22:46.000Z</time>
      </trkpt>
      <trkpt lat="44.58261" lon="6.87692">
        <ele>2800.6000976562</ele>
        <time>2020-02-18T11:22:51.000Z</time>
      </trkpt>
      <trkpt lat="44.58263" lon="6.87694">
        <ele>2800.6000976562</ele>
        <time>2020-02-18T11:22:57.000Z</time>
      </trkpt>
      <trkpt lat="44.58266" lon="6.87696">
        <ele>2800.6000976562</ele>
        <time>2020-02-18T11:23:07.000Z</time>
      </trkpt>
      <trkpt lat="44.58267" lon="6.87697">
        <ele>2800.6000976562</ele>
        <time>2020-02-18T11:23:08.000Z</time>
      </trkpt>
      <trkpt lat="44.58267" lon="6.87697">
        <ele>2800.6000976562</ele>
        <time>2020-02-18T11:23:10.000Z</time>
      </trkpt>
      <trkpt lat="44.58266" lon="6.87696">
        <ele>2800.6000976562</ele>
        <time>2020-02-18T11:23:11.000Z</time>
      </trkpt>
      <trkpt lat="44.58265" lon="6.87696">
        <ele>2800.6000976562</ele>
        <time>2020-02-18T11:23:14.000Z</time>
      </trkpt>
      <trkpt lat="44.58265" lon="6.87696">
        <ele>2800.6000976562</ele>
        <time>2020-02-18T11:23:16.000Z</time>
      </trkpt>
      <trkpt lat="44.58265" lon="6.87696">
        <ele>2800.6000976562</ele>
        <time>2020-02-18T11:23:24.000Z</time>
      </trkpt>
      <trkpt lat="44.58266" lon="6.87696">
        <ele>2800.6000976562</ele>
        <time>2020-02-18T11:23:31.000Z</time>
      </trkpt>
      <trkpt lat="44.58266" lon="6.87696">
        <ele>2800.6000976562</ele>
        <time>2020-02-18T11:23:37.000Z</time>
      </trkpt>
      <trkpt lat="44.58267" lon="6.87696">
        <ele>2800.6000976562</ele>
        <time>2020-02-18T11:23:39.000Z</time>
      </trkpt>
      <trkpt lat="44.58267" lon="6.87696">
        <ele>2800.6000976562</ele>
        <time>2020-02-18T11:23:41.000Z</time>
      </trkpt>
      <trkpt lat="44.58265" lon="6.87698">
        <ele>2800.6000976562</ele>
        <time>2020-02-18T11:23:54.000Z</time>
      </trkpt>
      <trkpt lat="44.58265" lon="6.87698">
        <ele>2800.6000976562</ele>
        <time>2020-02-18T11:23:56.000Z</time>
      </trkpt>
      <trkpt lat="44.58265" lon="6.87698">
        <ele>2800.6000976562</ele>
        <time>2020-02-18T11:23:58.000Z</time>
      </trkpt>
      <trkpt lat="44.58265" lon="6.87698">
        <ele>2800.6000976562</ele>
        <time>2020-02-18T11:24:01.000Z</time>
      </trkpt>
      <trkpt lat="44.58265" lon="6.87698">
        <ele>2800.6000976562</ele>
        <time>2020-02-18T11:24:11.000Z</time>
      </trkpt>
      <trkpt lat="44.58265" lon="6.87698">
        <ele>2800.6000976562</ele>
        <time>2020-02-18T11:24:12.000Z</time>
      </trkpt>
      <trkpt lat="44.58265" lon="6.87699">
        <ele>2800.6000976562</ele>
        <time>2020-02-18T11:24:14.000Z</time>
      </trkpt>
      <trkpt lat="44.58265" lon="6.87699">
        <ele>2800.6000976562</ele>
        <time>2020-02-18T11:24:16.000Z</time>
      </trkpt>
      <trkpt lat="44.58265" lon="6.87699">
        <ele>2800.6000976562</ele>
        <time>2020-02-18T11:24:23.000Z</time>
      </trkpt>
      <trkpt lat="44.58265" lon="6.87699">
        <ele>2800.6000976562</ele>
        <time>2020-02-18T11:24:31.000Z</time>
      </trkpt>
      <trkpt lat="44.58265" lon="6.87698">
        <ele>2800.6000976562</ele>
        <time>2020-02-18T11:24:34.000Z</time>
      </trkpt>
      <trkpt lat="44.58264" lon="6.87698">
        <ele>2800.6000976562</ele>
        <time>2020-02-18T11:24:36.000Z</time>
      </trkpt>
      <trkpt lat="44.58264" lon="6.87698">
        <ele>2800.6000976562</ele>
        <time>2020-02-18T11:24:40.000Z</time>
      </trkpt>
      <trkpt lat="44.58265" lon="6.87698">
        <ele>2800.6000976562</ele>
        <time>2020-02-18T11:24:43.000Z</time>
      </trkpt>
      <trkpt lat="44.58265" lon="6.87698">
        <ele>2800.6000976562</ele>
        <time>2020-02-18T11:24:46.000Z</time>
      </trkpt>
      <trkpt lat="44.58265" lon="6.87698">
        <ele>2800.6000976562</ele>
        <time>2020-02-18T11:24:49.000Z</time>
      </trkpt>
      <trkpt lat="44.58264" lon="6.87697">
        <ele>2800.6000976562</ele>
        <time>2020-02-18T11:24:51.000Z</time>
      </trkpt>
      <trkpt lat="44.58264" lon="6.87697">
        <ele>2800.6000976562</ele>
        <time>2020-02-18T11:24:52.000Z</time>
      </trkpt>
      <trkpt lat="44.58263" lon="6.87695">
        <ele>2800.6000976562</ele>
        <time>2020-02-18T11:24:54.000Z</time>
      </trkpt>
      <trkpt lat="44.58261" lon="6.87694">
        <ele>2800.6000976562</ele>
        <time>2020-02-18T11:24:58.000Z</time>
      </trkpt>
      <trkpt lat="44.58261" lon="6.87694">
        <ele>2800.6000976562</ele>
        <time>2020-02-18T11:24:59.000Z</time>
      </trkpt>
      <trkpt lat="44.58261" lon="6.87693">
        <ele>2800.6000976562</ele>
        <time>2020-02-18T11:25:01.000Z</time>
      </trkpt>
      <trkpt lat="44.58261" lon="6.87693">
        <ele>2800.6000976562</ele>
        <time>2020-02-18T11:25:04.000Z</time>
      </trkpt>
      <trkpt lat="44.58262" lon="6.87693">
        <ele>2800.6000976562</ele>
        <time>2020-02-18T11:25:05.000Z</time>
      </trkpt>
      <trkpt lat="44.58262" lon="6.87693">
        <ele>2800.6000976562</ele>
        <time>2020-02-18T11:25:11.000Z</time>
      </trkpt>
      <trkpt lat="44.58262" lon="6.87693">
        <ele>2800.6000976562</ele>
        <time>2020-02-18T11:25:15.000Z</time>
      </trkpt>
      <trkpt lat="44.58262" lon="6.87693">
        <ele>2800.6000976562</ele>
        <time>2020-02-18T11:25:16.000Z</time>
      </trkpt>
      <trkpt lat="44.58262" lon="6.87693">
        <ele>2800.6000976562</ele>
        <time>2020-02-18T11:25:19.000Z</time>
      </trkpt>
      <trkpt lat="44.58262" lon="6.87693">
        <ele>2800.6000976562</ele>
        <time>2020-02-18T11:25:20.000Z</time>
      </trkpt>
      <trkpt lat="44.58262" lon="6.87693">
        <ele>2800.6000976562</ele>
        <time>2020-02-18T11:25:21.000Z</time>
      </trkpt>
      <trkpt lat="44.58262" lon="6.87692">
        <ele>2800.6000976562</ele>
        <time>2020-02-18T11:25:29.000Z</time>
      </trkpt>
      <trkpt lat="44.58261" lon="6.87692">
        <ele>2800.6000976562</ele>
        <time>2020-02-18T11:25:31.000Z</time>
      </trkpt>
      <trkpt lat="44.58261" lon="6.87692">
        <ele>2800.6000976562</ele>
        <time>2020-02-18T11:25:34.000Z</time>
      </trkpt>
      <trkpt lat="44.58259" lon="6.87692">
        <ele>2800.6000976562</ele>
        <time>2020-02-18T11:25:38.000Z</time>
      </trkpt>
      <trkpt lat="44.58259" lon="6.87691">
        <ele>2800.6000976562</ele>
        <time>2020-02-18T11:25:42.000Z</time>
      </trkpt>
      <trkpt lat="44.58259" lon="6.87691">
        <ele>2800.6000976562</ele>
        <time>2020-02-18T11:25:43.000Z</time>
      </trkpt>
      <trkpt lat="44.58259" lon="6.87691">
        <ele>2800.6000976562</ele>
        <time>2020-02-18T11:25:44.000Z</time>
      </trkpt>
      <trkpt lat="44.58258" lon="6.87691">
        <ele>2800.6000976562</ele>
        <time>2020-02-18T11:25:45.000Z</time>
      </trkpt>
      <trkpt lat="44.58258" lon="6.87691">
        <ele>2800.6000976562</ele>
        <time>2020-02-18T11:25:46.000Z</time>
      </trkpt>
      <trkpt lat="44.58258" lon="6.87693">
        <ele>2800.6000976562</ele>
        <time>2020-02-18T11:25:49.000Z</time>
      </trkpt>
      <trkpt lat="44.58258" lon="6.87694">
        <ele>2800.6000976562</ele>
        <time>2020-02-18T11:25:51.000Z</time>
      </trkpt>
      <trkpt lat="44.5826" lon="6.87694">
        <ele>2800.6000976562</ele>
        <time>2020-02-18T11:25:57.000Z</time>
      </trkpt>
      <trkpt lat="44.58261" lon="6.87694">
        <ele>2800.6000976562</ele>
        <time>2020-02-18T11:26:00.000Z</time>
      </trkpt>
      <trkpt lat="44.58261" lon="6.87691">
        <ele>2800.6000976562</ele>
        <time>2020-02-18T11:26:02.000Z</time>
      </trkpt>
      <trkpt lat="44.58259" lon="6.8769">
        <ele>2800.6000976562</ele>
        <time>2020-02-18T11:26:04.000Z</time>
      </trkpt>
      <trkpt lat="44.58258" lon="6.8769">
        <ele>2800.6000976562</ele>
        <time>2020-02-18T11:26:06.000Z</time>
      </trkpt>
      <trkpt lat="44.58258" lon="6.8769">
        <ele>2800.6000976562</ele>
        <time>2020-02-18T11:26:07.000Z</time>
      </trkpt>
      <trkpt lat="44.58259" lon="6.8769">
        <ele>2799.8000488281</ele>
        <time>2020-02-18T11:26:09.000Z</time>
      </trkpt>
      <trkpt lat="44.58259" lon="6.8769">
        <ele>2800</ele>
        <time>2020-02-18T11:26:10.000Z</time>
      </trkpt>
      <trkpt lat="44.58259" lon="6.87691">
        <ele>2800</ele>
        <time>2020-02-18T11:26:13.000Z</time>
      </trkpt>
      <trkpt lat="44.58259" lon="6.87691">
        <ele>2800</ele>
        <time>2020-02-18T11:26:17.000Z</time>
      </trkpt>
      <trkpt lat="44.58262" lon="6.87694">
        <ele>2800.1999511719</ele>
        <time>2020-02-18T11:26:23.000Z</time>
      </trkpt>
      <trkpt lat="44.58263" lon="6.87696">
        <ele>2800.8000488281</ele>
        <time>2020-02-18T11:26:25.000Z</time>
      </trkpt>
      <trkpt lat="44.58263" lon="6.87696">
        <ele>2801</ele>
        <time>2020-02-18T11:26:26.000Z</time>
      </trkpt>
      <trkpt lat="44.58264" lon="6.87698">
        <ele>2801.1999511719</ele>
        <time>2020-02-18T11:26:29.000Z</time>
      </trkpt>
      <trkpt lat="44.58265" lon="6.87698">
        <ele>2801.3999023438</ele>
        <time>2020-02-18T11:26:30.000Z</time>
      </trkpt>
      <trkpt lat="44.58266" lon="6.877">
        <ele>2802</ele>
        <time>2020-02-18T11:26:33.000Z</time>
      </trkpt>
      <trkpt lat="44.58267" lon="6.87702">
        <ele>2802.3999023438</ele>
        <time>2020-02-18T11:26:37.000Z</time>
      </trkpt>
      <trkpt lat="44.58267" lon="6.87703">
        <ele>2803</ele>
        <time>2020-02-18T11:26:41.000Z</time>
      </trkpt>
      <trkpt lat="44.58267" lon="6.87704">
        <ele>2803</ele>
        <time>2020-02-18T11:26:43.000Z</time>
      </trkpt>
      <trkpt lat="44.58267" lon="6.87705">
        <ele>2803.3999023438</ele>
        <time>2020-02-18T11:26:46.000Z</time>
      </trkpt>
      <trkpt lat="44.58268" lon="6.87706">
        <ele>2804</ele>
        <time>2020-02-18T11:26:51.000Z</time>
      </trkpt>
      <trkpt lat="44.5827" lon="6.8771">
        <ele>2805.1999511719</ele>
        <time>2020-02-18T11:27:00.000Z</time>
      </trkpt>
      <trkpt lat="44.58271" lon="6.87711">
        <ele>2805.8000488281</ele>
        <time>2020-02-18T11:27:04.000Z</time>
      </trkpt>
      <trkpt lat="44.58272" lon="6.87713">
        <ele>2806.3999023438</ele>
        <time>2020-02-18T11:27:07.000Z</time>
      </trkpt>
      <trkpt lat="44.58273" lon="6.87713">
        <ele>2806.3999023438</ele>
        <time>2020-02-18T11:27:08.000Z</time>
      </trkpt>
      <trkpt lat="44.58274" lon="6.87715">
        <ele>2807</ele>
        <time>2020-02-18T11:27:15.000Z</time>
      </trkpt>
      <trkpt lat="44.58274" lon="6.87716">
        <ele>2807.3999023438</ele>
        <time>2020-02-18T11:27:17.000Z</time>
      </trkpt>
      <trkpt lat="44.58274" lon="6.87716">
        <ele>2807.6000976562</ele>
        <time>2020-02-18T11:27:18.000Z</time>
      </trkpt>
      <trkpt lat="44.58275" lon="6.8772">
        <ele>2808.3999023438</ele>
        <time>2020-02-18T11:27:29.000Z</time>
      </trkpt>
      <trkpt lat="44.58276" lon="6.87721">
        <ele>2809</ele>
        <time>2020-02-18T11:27:32.000Z</time>
      </trkpt>
      <trkpt lat="44.58276" lon="6.87722">
        <ele>2809.6000976562</ele>
        <time>2020-02-18T11:27:35.000Z</time>
      </trkpt>
      <trkpt lat="44.58277" lon="6.87722">
        <ele>2809.6000976562</ele>
        <time>2020-02-18T11:27:36.000Z</time>
      </trkpt>
      <trkpt lat="44.5828" lon="6.87724">
        <ele>2810.6000976562</ele>
        <time>2020-02-18T11:27:44.000Z</time>
      </trkpt>
      <trkpt lat="44.58283" lon="6.87725">
        <ele>2811.6000976562</ele>
        <time>2020-02-18T11:27:51.000Z</time>
      </trkpt>
      <trkpt lat="44.58285" lon="6.87727">
        <ele>2812.8000488281</ele>
        <time>2020-02-18T11:27:59.000Z</time>
      </trkpt>
      <trkpt lat="44.58288" lon="6.8773">
        <ele>2813.8000488281</ele>
        <time>2020-02-18T11:28:14.000Z</time>
      </trkpt>
      <trkpt lat="44.5829" lon="6.87731">
        <ele>2814.6000976562</ele>
        <time>2020-02-18T11:28:26.000Z</time>
      </trkpt>
      <trkpt lat="44.58291" lon="6.87732">
        <ele>2814.8000488281</ele>
        <time>2020-02-18T11:28:41.000Z</time>
      </trkpt>
      <trkpt lat="44.58293" lon="6.87734">
        <ele>2815.8000488281</ele>
        <time>2020-02-18T11:28:49.000Z</time>
      </trkpt>
      <trkpt lat="44.58294" lon="6.87734">
        <ele>2816.3999023438</ele>
        <time>2020-02-18T11:28:58.000Z</time>
      </trkpt>
      <trkpt lat="44.58294" lon="6.87734">
        <ele>2816.3999023438</ele>
        <time>2020-02-18T11:29:10.000Z</time>
      </trkpt>
      <trkpt lat="44.58294" lon="6.87734">
        <ele>2816.3999023438</ele>
        <time>2020-02-18T11:29:14.000Z</time>
      </trkpt>
      <trkpt lat="44.58295" lon="6.87736">
        <ele>2816.3999023438</ele>
        <time>2020-02-18T11:29:20.000Z</time>
      </trkpt>
      <trkpt lat="44.58296" lon="6.87736">
        <ele>2816.8000488281</ele>
        <time>2020-02-18T11:29:25.000Z</time>
      </trkpt>
      <trkpt lat="44.58296" lon="6.87736">
        <ele>2817.1999511719</ele>
        <time>2020-02-18T11:29:29.000Z</time>
      </trkpt>
      <trkpt lat="44.58296" lon="6.87737">
        <ele>2817.3999023438</ele>
        <time>2020-02-18T11:29:37.000Z</time>
      </trkpt>
      <trkpt lat="44.58296" lon="6.87738">
        <ele>2818</ele>
        <time>2020-02-18T11:29:45.000Z</time>
      </trkpt>
      <trkpt lat="44.58296" lon="6.87738">
        <ele>2818</ele>
        <time>2020-02-18T11:29:46.000Z</time>
      </trkpt>
      <trkpt lat="44.58296" lon="6.87741">
        <ele>2818.3999023438</ele>
        <time>2020-02-18T11:29:50.000Z</time>
      </trkpt>
      <trkpt lat="44.58296" lon="6.87742">
        <ele>2818.6000976562</ele>
        <time>2020-02-18T11:29:51.000Z</time>
      </trkpt>
      <trkpt lat="44.58296" lon="6.87743">
        <ele>2819</ele>
        <time>2020-02-18T11:29:53.000Z</time>
      </trkpt>
      <trkpt lat="44.58294" lon="6.87746">
        <ele>2820</ele>
        <time>2020-02-18T11:29:59.000Z</time>
      </trkpt>
      <trkpt lat="44.58294" lon="6.87747">
        <ele>2820</ele>
        <time>2020-02-18T11:30:00.000Z</time>
      </trkpt>
      <trkpt lat="44.58293" lon="6.87748">
        <ele>2820.1999511719</ele>
        <time>2020-02-18T11:30:02.000Z</time>
      </trkpt>
      <trkpt lat="44.58292" lon="6.87749">
        <ele>2820.3999023438</ele>
        <time>2020-02-18T11:30:06.000Z</time>
      </trkpt>
      <trkpt lat="44.58292" lon="6.87749">
        <ele>2820.6000976562</ele>
        <time>2020-02-18T11:30:07.000Z</time>
      </trkpt>
      <trkpt lat="44.58291" lon="6.87751">
        <ele>2821.1999511719</ele>
        <time>2020-02-18T11:30:11.000Z</time>
      </trkpt>
      <trkpt lat="44.58289" lon="6.87755">
        <ele>2822.1999511719</ele>
        <time>2020-02-18T11:30:17.000Z</time>
      </trkpt>
      <trkpt lat="44.58288" lon="6.87755">
        <ele>2822.1999511719</ele>
        <time>2020-02-18T11:30:18.000Z</time>
      </trkpt>
      <trkpt lat="44.58287" lon="6.87757">
        <ele>2823</ele>
        <time>2020-02-18T11:30:24.000Z</time>
      </trkpt>
      <trkpt lat="44.58288" lon="6.87759">
        <ele>2823.3999023438</ele>
        <time>2020-02-18T11:30:34.000Z</time>
      </trkpt>
      <trkpt lat="44.58289" lon="6.87758">
        <ele>2824.1999511719</ele>
        <time>2020-02-18T11:30:54.000Z</time>
      </trkpt>
      <trkpt lat="44.58289" lon="6.8776">
        <ele>2824.3999023438</ele>
        <time>2020-02-18T11:30:57.000Z</time>
      </trkpt>
      <trkpt lat="44.5829" lon="6.87759">
        <ele>2824.3999023438</ele>
        <time>2020-02-18T11:31:04.000Z</time>
      </trkpt>
      <trkpt lat="44.5829" lon="6.87759">
        <ele>2824.3999023438</ele>
        <time>2020-02-18T11:31:08.000Z</time>
      </trkpt>
      <trkpt lat="44.5829" lon="6.87759">
        <ele>2824.3999023438</ele>
        <time>2020-02-18T11:31:10.000Z</time>
      </trkpt>
      <trkpt lat="44.58291" lon="6.87759">
        <ele>2824.1999511719</ele>
        <time>2020-02-18T11:31:14.000Z</time>
      </trkpt>
      <trkpt lat="44.58292" lon="6.87759">
        <ele>2824.1999511719</ele>
        <time>2020-02-18T11:31:19.000Z</time>
      </trkpt>
      <trkpt lat="44.58293" lon="6.87759">
        <ele>2824.1999511719</ele>
        <time>2020-02-18T11:31:25.000Z</time>
      </trkpt>
      <trkpt lat="44.58292" lon="6.8776">
        <ele>2824.1999511719</ele>
        <time>2020-02-18T11:31:27.000Z</time>
      </trkpt>
      <trkpt lat="44.58291" lon="6.8776">
        <ele>2824.1999511719</ele>
        <time>2020-02-18T11:31:32.000Z</time>
      </trkpt>
      <trkpt lat="44.58291" lon="6.87759">
        <ele>2824.1999511719</ele>
        <time>2020-02-18T11:31:43.000Z</time>
      </trkpt>
      <trkpt lat="44.58291" lon="6.87759">
        <ele>2824.1999511719</ele>
        <time>2020-02-18T11:31:45.000Z</time>
      </trkpt>
      <trkpt lat="44.58291" lon="6.87759">
        <ele>2824.1999511719</ele>
        <time>2020-02-18T11:31:47.000Z</time>
      </trkpt>
      <trkpt lat="44.58294" lon="6.87759">
        <ele>2824.1999511719</ele>
        <time>2020-02-18T11:32:00.000Z</time>
      </trkpt>
      <trkpt lat="44.58294" lon="6.8776">
        <ele>2824.1999511719</ele>
        <time>2020-02-18T11:32:03.000Z</time>
      </trkpt>
      <trkpt lat="44.58295" lon="6.87761">
        <ele>2824.1999511719</ele>
        <time>2020-02-18T11:32:06.000Z</time>
      </trkpt>
      <trkpt lat="44.58296" lon="6.87763">
        <ele>2824.1999511719</ele>
        <time>2020-02-18T11:32:09.000Z</time>
      </trkpt>
      <trkpt lat="44.58301" lon="6.87765">
        <ele>2824.1999511719</ele>
        <time>2020-02-18T11:32:17.000Z</time>
      </trkpt>
      <trkpt lat="44.58302" lon="6.87767">
        <ele>2824.1999511719</ele>
        <time>2020-02-18T11:32:22.000Z</time>
      </trkpt>
      <trkpt lat="44.58303" lon="6.87769">
        <ele>2824.1999511719</ele>
        <time>2020-02-18T11:32:26.000Z</time>
      </trkpt>
      <trkpt lat="44.58304" lon="6.8777">
        <ele>2824.1999511719</ele>
        <time>2020-02-18T11:32:28.000Z</time>
      </trkpt>
      <trkpt lat="44.58305" lon="6.87772">
        <ele>2824.1999511719</ele>
        <time>2020-02-18T11:32:32.000Z</time>
      </trkpt>
      <trkpt lat="44.58305" lon="6.87773">
        <ele>2824.1999511719</ele>
        <time>2020-02-18T11:32:34.000Z</time>
      </trkpt>
      <trkpt lat="44.58307" lon="6.87773">
        <ele>2830.8000488281</ele>
        <time>2020-02-18T11:32:37.000Z</time>
      </trkpt>
      <trkpt lat="44.58309" lon="6.87773">
        <ele>2832</ele>
        <time>2020-02-18T11:32:49.000Z</time>
      </trkpt>
      <trkpt lat="44.58311" lon="6.87776">
        <ele>2833</ele>
        <time>2020-02-18T11:32:58.000Z</time>
      </trkpt>
      <trkpt lat="44.58312" lon="6.87779">
        <ele>2834.1999511719</ele>
        <time>2020-02-18T11:33:04.000Z</time>
      </trkpt>
      <trkpt lat="44.58315" lon="6.8778">
        <ele>2835.1999511719</ele>
        <time>2020-02-18T11:33:12.000Z</time>
      </trkpt>
      <trkpt lat="44.58316" lon="6.87779">
        <ele>2835.1999511719</ele>
        <time>2020-02-18T11:33:31.000Z</time>
      </trkpt>
      <trkpt lat="44.58316" lon="6.87779">
        <ele>2835.1999511719</ele>
        <time>2020-02-18T11:33:35.000Z</time>
      </trkpt>
      <trkpt lat="44.58315" lon="6.87778">
        <ele>2835.3999023438</ele>
        <time>2020-02-18T11:33:42.000Z</time>
      </trkpt>
      <trkpt lat="44.58315" lon="6.87778">
        <ele>2835.3999023438</ele>
        <time>2020-02-18T11:33:45.000Z</time>
      </trkpt>
      <trkpt lat="44.58315" lon="6.87778">
        <ele>2835.3999023438</ele>
        <time>2020-02-18T11:33:47.000Z</time>
      </trkpt>
      <trkpt lat="44.58315" lon="6.87777">
        <ele>2835.3999023438</ele>
        <time>2020-02-18T11:33:53.000Z</time>
      </trkpt>
      <trkpt lat="44.58316" lon="6.87776">
        <ele>2835.3999023438</ele>
        <time>2020-02-18T11:33:55.000Z</time>
      </trkpt>
      <trkpt lat="44.58317" lon="6.87776">
        <ele>2835.6000976562</ele>
        <time>2020-02-18T11:33:56.000Z</time>
      </trkpt>
      <trkpt lat="44.5832" lon="6.87775">
        <ele>2835.6000976562</ele>
        <time>2020-02-18T11:33:59.000Z</time>
      </trkpt>
      <trkpt lat="44.5832" lon="6.87776">
        <ele>2835.6000976562</ele>
        <time>2020-02-18T11:34:02.000Z</time>
      </trkpt>
      <trkpt lat="44.5832" lon="6.87776">
        <ele>2835.6000976562</ele>
        <time>2020-02-18T11:34:03.000Z</time>
      </trkpt>
      <trkpt lat="44.5832" lon="6.87776">
        <ele>2835.3999023438</ele>
        <time>2020-02-18T11:34:06.000Z</time>
      </trkpt>
      <trkpt lat="44.58319" lon="6.87776">
        <ele>2835.3999023438</ele>
        <time>2020-02-18T11:34:13.000Z</time>
      </trkpt>
      <trkpt lat="44.58318" lon="6.87777">
        <ele>2835.6000976562</ele>
        <time>2020-02-18T11:34:20.000Z</time>
      </trkpt>
      <trkpt lat="44.58318" lon="6.87777">
        <ele>2835.6000976562</ele>
        <time>2020-02-18T11:34:23.000Z</time>
      </trkpt>
      <trkpt lat="44.58318" lon="6.87777">
        <ele>2835.3999023438</ele>
        <time>2020-02-18T11:34:24.000Z</time>
      </trkpt>
      <trkpt lat="44.58319" lon="6.87777">
        <ele>2835.3999023438</ele>
        <time>2020-02-18T11:34:26.000Z</time>
      </trkpt>
      <trkpt lat="44.5832" lon="6.87777">
        <ele>2835.1999511719</ele>
        <time>2020-02-18T11:34:34.000Z</time>
      </trkpt>
      <trkpt lat="44.5832" lon="6.87777">
        <ele>2835.1999511719</ele>
        <time>2020-02-18T11:34:37.000Z</time>
      </trkpt>
      <trkpt lat="44.5832" lon="6.87777">
        <ele>2835.1999511719</ele>
        <time>2020-02-18T11:34:39.000Z</time>
      </trkpt>
      <trkpt lat="44.5832" lon="6.87777">
        <ele>2835.1999511719</ele>
        <time>2020-02-18T11:34:40.000Z</time>
      </trkpt>
      <trkpt lat="44.5832" lon="6.87779">
        <ele>2835.3999023438</ele>
        <time>2020-02-18T11:34:49.000Z</time>
      </trkpt>
      <trkpt lat="44.58319" lon="6.87779">
        <ele>2835.3999023438</ele>
        <time>2020-02-18T11:34:51.000Z</time>
      </trkpt>
      <trkpt lat="44.58319" lon="6.8778">
        <ele>2835.3999023438</ele>
        <time>2020-02-18T11:35:11.000Z</time>
      </trkpt>
      <trkpt lat="44.58319" lon="6.8778">
        <ele>2835.3999023438</ele>
        <time>2020-02-18T11:35:12.000Z</time>
      </trkpt>
      <trkpt lat="44.58317" lon="6.87778">
        <ele>2835.3999023438</ele>
        <time>2020-02-18T11:35:13.000Z</time>
      </trkpt>
      <trkpt lat="44.58317" lon="6.87777">
        <ele>2835.3999023438</ele>
        <time>2020-02-18T11:35:15.000Z</time>
      </trkpt>
      <trkpt lat="44.58315" lon="6.87774">
        <ele>2835.3999023438</ele>
        <time>2020-02-18T11:35:21.000Z</time>
      </trkpt>
      <trkpt lat="44.58315" lon="6.87774">
        <ele>2835.3999023438</ele>
        <time>2020-02-18T11:35:23.000Z</time>
      </trkpt>
      <trkpt lat="44.58313" lon="6.87772">
        <ele>2835.3999023438</ele>
        <time>2020-02-18T11:35:26.000Z</time>
      </trkpt>
      <trkpt lat="44.58312" lon="6.87771">
        <ele>2835.3999023438</ele>
        <time>2020-02-18T11:35:29.000Z</time>
      </trkpt>
      <trkpt lat="44.5831" lon="6.87767">
        <ele>2835.3999023438</ele>
        <time>2020-02-18T11:35:36.000Z</time>
      </trkpt>
      <trkpt lat="44.58307" lon="6.87765">
        <ele>2835.3999023438</ele>
        <time>2020-02-18T11:35:44.000Z</time>
      </trkpt>
      <trkpt lat="44.58307" lon="6.87765">
        <ele>2835.3999023438</ele>
        <time>2020-02-18T11:35:46.000Z</time>
      </trkpt>
      <trkpt lat="44.58307" lon="6.87766">
        <ele>2835.3999023438</ele>
        <time>2020-02-18T11:35:51.000Z</time>
      </trkpt>
      <trkpt lat="44.58306" lon="6.87765">
        <ele>2835.3999023438</ele>
        <time>2020-02-18T11:35:56.000Z</time>
      </trkpt>
      <trkpt lat="44.58303" lon="6.87766">
        <ele>2835.3999023438</ele>
        <time>2020-02-18T11:36:02.000Z</time>
      </trkpt>
      <trkpt lat="44.58301" lon="6.87768">
        <ele>2828.6000976562</ele>
        <time>2020-02-18T11:36:09.000Z</time>
      </trkpt>
      <trkpt lat="44.583" lon="6.87768">
        <ele>2830</ele>
        <time>2020-02-18T11:36:12.000Z</time>
      </trkpt>
      <trkpt lat="44.58299" lon="6.87769">
        <ele>2829</ele>
        <time>2020-02-18T11:36:15.000Z</time>
      </trkpt>
      <trkpt lat="44.58293" lon="6.87766">
        <ele>2827.8000488281</ele>
        <time>2020-02-18T11:36:30.000Z</time>
      </trkpt>
      <trkpt lat="44.58292" lon="6.87764">
        <ele>2826.8000488281</ele>
        <time>2020-02-18T11:36:38.000Z</time>
      </trkpt>
      <trkpt lat="44.58289" lon="6.87761">
        <ele>2825.8000488281</ele>
        <time>2020-02-18T11:36:48.000Z</time>
      </trkpt>
      <trkpt lat="44.58288" lon="6.8776">
        <ele>2825.3999023438</ele>
        <time>2020-02-18T11:36:50.000Z</time>
      </trkpt>
      <trkpt lat="44.58286" lon="6.87758">
        <ele>2822.8000488281</ele>
        <time>2020-02-18T11:36:55.000Z</time>
      </trkpt>
      <trkpt lat="44.58286" lon="6.87758">
        <ele>2820.3999023438</ele>
        <time>2020-02-18T11:36:56.000Z</time>
      </trkpt>
      <trkpt lat="44.58285" lon="6.87758">
        <ele>2819.1999511719</ele>
        <time>2020-02-18T11:36:57.000Z</time>
      </trkpt>
      <trkpt lat="44.58285" lon="6.87758">
        <ele>2818.6000976562</ele>
        <time>2020-02-18T11:36:58.000Z</time>
      </trkpt>
      <trkpt lat="44.58284" lon="6.87758">
        <ele>2818</ele>
        <time>2020-02-18T11:37:00.000Z</time>
      </trkpt>
      <trkpt lat="44.58281" lon="6.87757">
        <ele>2817.8000488281</ele>
        <time>2020-02-18T11:37:05.000Z</time>
      </trkpt>
      <trkpt lat="44.58277" lon="6.87756">
        <ele>2817.6000976562</ele>
        <time>2020-02-18T11:37:13.000Z</time>
      </trkpt>
      <trkpt lat="44.58276" lon="6.87757">
        <ele>2817.3999023438</ele>
        <time>2020-02-18T11:37:15.000Z</time>
      </trkpt>
      <trkpt lat="44.58275" lon="6.87758">
        <ele>2817</ele>
        <time>2020-02-18T11:37:17.000Z</time>
      </trkpt>
      <trkpt lat="44.58272" lon="6.87758">
        <ele>2816.3999023438</ele>
        <time>2020-02-18T11:37:23.000Z</time>
      </trkpt>
      <trkpt lat="44.58267" lon="6.87763">
        <ele>2817.1999511719</ele>
        <time>2020-02-18T11:37:46.000Z</time>
      </trkpt>
      <trkpt lat="44.58266" lon="6.87767">
        <ele>2818</ele>
        <time>2020-02-18T11:37:53.000Z</time>
      </trkpt>
      <trkpt lat="44.58264" lon="6.87771">
        <ele>2819</ele>
        <time>2020-02-18T11:38:06.000Z</time>
      </trkpt>
      <trkpt lat="44.58262" lon="6.87776">
        <ele>2820</ele>
        <time>2020-02-18T11:38:13.000Z</time>
      </trkpt>
      <trkpt lat="44.58262" lon="6.87776">
        <ele>2820</ele>
        <time>2020-02-18T11:38:14.000Z</time>
      </trkpt>
      <trkpt lat="44.58262" lon="6.87781">
        <ele>2821</ele>
        <time>2020-02-18T11:38:21.000Z</time>
      </trkpt>
      <trkpt lat="44.58261" lon="6.87781">
        <ele>2821.1999511719</ele>
        <time>2020-02-18T11:38:22.000Z</time>
      </trkpt>
      <trkpt lat="44.58261" lon="6.87781">
        <ele>2821.1999511719</ele>
        <time>2020-02-18T11:38:23.000Z</time>
      </trkpt>
      <trkpt lat="44.58261" lon="6.87781">
        <ele>2821.3999023438</ele>
        <time>2020-02-18T11:38:24.000Z</time>
      </trkpt>
      <trkpt lat="44.58261" lon="6.8778">
        <ele>2821.6000976562</ele>
        <time>2020-02-18T11:38:26.000Z</time>
      </trkpt>
      <trkpt lat="44.58261" lon="6.8778">
        <ele>2821.8000488281</ele>
        <time>2020-02-18T11:38:43.000Z</time>
      </trkpt>
      <trkpt lat="44.58261" lon="6.8778">
        <ele>2821.8000488281</ele>
        <time>2020-02-18T11:38:53.000Z</time>
      </trkpt>
      <trkpt lat="44.58261" lon="6.8778">
        <ele>2821.8000488281</ele>
        <time>2020-02-18T11:38:56.000Z</time>
      </trkpt>
      <trkpt lat="44.58261" lon="6.8778">
        <ele>2821.3999023438</ele>
        <time>2020-02-18T11:39:00.000Z</time>
      </trkpt>
      <trkpt lat="44.58261" lon="6.8778">
        <ele>2821.3999023438</ele>
        <time>2020-02-18T11:39:04.000Z</time>
      </trkpt>
      <trkpt lat="44.58261" lon="6.8778">
        <ele>2821.3999023438</ele>
        <time>2020-02-18T11:39:05.000Z</time>
      </trkpt>
      <trkpt lat="44.58261" lon="6.8778">
        <ele>2821.3999023438</ele>
        <time>2020-02-18T11:39:06.000Z</time>
      </trkpt>
      <trkpt lat="44.5826" lon="6.87781">
        <ele>2821.6000976562</ele>
        <time>2020-02-18T11:39:12.000Z</time>
      </trkpt>
      <trkpt lat="44.58261" lon="6.87781">
        <ele>2821.6000976562</ele>
        <time>2020-02-18T11:39:17.000Z</time>
      </trkpt>
      <trkpt lat="44.5826" lon="6.87781">
        <ele>2821.6000976562</ele>
        <time>2020-02-18T11:39:21.000Z</time>
      </trkpt>
      <trkpt lat="44.5826" lon="6.87781">
        <ele>2821.6000976562</ele>
        <time>2020-02-18T11:39:23.000Z</time>
      </trkpt>
      <trkpt lat="44.5826" lon="6.8778">
        <ele>2821.3999023438</ele>
        <time>2020-02-18T11:39:27.000Z</time>
      </trkpt>
      <trkpt lat="44.5826" lon="6.8778">
        <ele>2821.1999511719</ele>
        <time>2020-02-18T11:39:28.000Z</time>
      </trkpt>
      <trkpt lat="44.58259" lon="6.8778">
        <ele>2821</ele>
        <time>2020-02-18T11:39:30.000Z</time>
      </trkpt>
      <trkpt lat="44.58258" lon="6.87778">
        <ele>2820</ele>
        <time>2020-02-18T11:39:36.000Z</time>
      </trkpt>
      <trkpt lat="44.58257" lon="6.87776">
        <ele>2818.8000488281</ele>
        <time>2020-02-18T11:39:45.000Z</time>
      </trkpt>
      <trkpt lat="44.58256" lon="6.87775">
        <ele>2817.8000488281</ele>
        <time>2020-02-18T11:39:51.000Z</time>
      </trkpt>
      <trkpt lat="44.58255" lon="6.87776">
        <ele>2817.3999023438</ele>
        <time>2020-02-18T11:39:54.000Z</time>
      </trkpt>
      <trkpt lat="44.58254" lon="6.87777">
        <ele>2816.6000976562</ele>
        <time>2020-02-18T11:39:58.000Z</time>
      </trkpt>
      <trkpt lat="44.58253" lon="6.87776">
        <ele>2816.1999511719</ele>
        <time>2020-02-18T11:40:02.000Z</time>
      </trkpt>
      <trkpt lat="44.58253" lon="6.87774">
        <ele>2815.6000976562</ele>
        <time>2020-02-18T11:40:10.000Z</time>
      </trkpt>
      <trkpt lat="44.58255" lon="6.87767">
        <ele>2814.6000976562</ele>
        <time>2020-02-18T11:40:21.000Z</time>
      </trkpt>
      <trkpt lat="44.58254" lon="6.87764">
        <ele>2813.8000488281</ele>
        <time>2020-02-18T11:40:28.000Z</time>
      </trkpt>
      <trkpt lat="44.58254" lon="6.87763">
        <ele>2813.6000976562</ele>
        <time>2020-02-18T11:40:29.000Z</time>
      </trkpt>
      <trkpt lat="44.58253" lon="6.87762">
        <ele>2812.3999023438</ele>
        <time>2020-02-18T11:40:35.000Z</time>
      </trkpt>
      <trkpt lat="44.58254" lon="6.87759">
        <ele>2811.8000488281</ele>
        <time>2020-02-18T11:40:38.000Z</time>
      </trkpt>
      <trkpt lat="44.58254" lon="6.87757">
        <ele>2811.3999023438</ele>
        <time>2020-02-18T11:40:40.000Z</time>
      </trkpt>
      <trkpt lat="44.58255" lon="6.87751">
        <ele>2810.3999023438</ele>
        <time>2020-02-18T11:41:00.000Z</time>
      </trkpt>
      <trkpt lat="44.58256" lon="6.87749">
        <ele>2809.1999511719</ele>
        <time>2020-02-18T11:41:10.000Z</time>
      </trkpt>
      <trkpt lat="44.58255" lon="6.87748">
        <ele>2809</ele>
        <time>2020-02-18T11:41:13.000Z</time>
      </trkpt>
      <trkpt lat="44.58255" lon="6.87746">
        <ele>2808.1999511719</ele>
        <time>2020-02-18T11:41:24.000Z</time>
      </trkpt>
      <trkpt lat="44.58256" lon="6.87741">
        <ele>2807.1999511719</ele>
        <time>2020-02-18T11:41:32.000Z</time>
      </trkpt>
      <trkpt lat="44.58256" lon="6.87737">
        <ele>2806.1999511719</ele>
        <time>2020-02-18T11:41:40.000Z</time>
      </trkpt>
      <trkpt lat="44.58257" lon="6.87734">
        <ele>2805</ele>
        <time>2020-02-18T11:41:44.000Z</time>
      </trkpt>
      <trkpt lat="44.58257" lon="6.87732">
        <ele>2804</ele>
        <time>2020-02-18T11:41:52.000Z</time>
      </trkpt>
      <trkpt lat="44.58258" lon="6.87731">
        <ele>2803.6000976562</ele>
        <time>2020-02-18T11:41:56.000Z</time>
      </trkpt>
      <trkpt lat="44.58257" lon="6.87731">
        <ele>2803.6000976562</ele>
        <time>2020-02-18T11:41:58.000Z</time>
      </trkpt>
      <trkpt lat="44.58258" lon="6.8773">
        <ele>2803.6000976562</ele>
        <time>2020-02-18T11:42:02.000Z</time>
      </trkpt>
      <trkpt lat="44.58259" lon="6.87726">
        <ele>2803</ele>
        <time>2020-02-18T11:42:05.000Z</time>
      </trkpt>
      <trkpt lat="44.58259" lon="6.87725">
        <ele>2803</ele>
        <time>2020-02-18T11:42:06.000Z</time>
      </trkpt>
      <trkpt lat="44.58259" lon="6.87721">
        <ele>2802.1999511719</ele>
        <time>2020-02-18T11:42:11.000Z</time>
      </trkpt>
      <trkpt lat="44.58259" lon="6.87719">
        <ele>2801.6000976562</ele>
        <time>2020-02-18T11:42:13.000Z</time>
      </trkpt>
      <trkpt lat="44.5826" lon="6.87716">
        <ele>2800.6000976562</ele>
        <time>2020-02-18T11:42:17.000Z</time>
      </trkpt>
      <trkpt lat="44.5826" lon="6.87712">
        <ele>2799.6000976562</ele>
        <time>2020-02-18T11:42:21.000Z</time>
      </trkpt>
      <trkpt lat="44.58259" lon="6.87705">
        <ele>2798.6000976562</ele>
        <time>2020-02-18T11:42:27.000Z</time>
      </trkpt>
      <trkpt lat="44.58259" lon="6.877">
        <ele>2797.3999023438</ele>
        <time>2020-02-18T11:42:32.000Z</time>
      </trkpt>
      <trkpt lat="44.58259" lon="6.877">
        <ele>2797.1999511719</ele>
        <time>2020-02-18T11:42:33.000Z</time>
      </trkpt>
      <trkpt lat="44.58258" lon="6.87698">
        <ele>2796.3999023438</ele>
        <time>2020-02-18T11:42:37.000Z</time>
      </trkpt>
      <trkpt lat="44.5826" lon="6.87693">
        <ele>2797</ele>
        <time>2020-02-18T11:42:58.000Z</time>
      </trkpt>
      <trkpt lat="44.5826" lon="6.87693">
        <ele>2797</ele>
        <time>2020-02-18T11:43:05.000Z</time>
      </trkpt>
      <trkpt lat="44.5826" lon="6.87693">
        <ele>2797.1999511719</ele>
        <time>2020-02-18T11:43:07.000Z</time>
      </trkpt>
      <trkpt lat="44.5826" lon="6.87693">
        <ele>2797.1999511719</ele>
        <time>2020-02-18T11:43:09.000Z</time>
      </trkpt>
      <trkpt lat="44.58259" lon="6.87693">
        <ele>2797.1999511719</ele>
        <time>2020-02-18T11:43:11.000Z</time>
      </trkpt>
      <trkpt lat="44.58259" lon="6.87693">
        <ele>2797.1999511719</ele>
        <time>2020-02-18T11:43:12.000Z</time>
      </trkpt>
      <trkpt lat="44.58259" lon="6.87694">
        <ele>2797.1999511719</ele>
        <time>2020-02-18T11:43:34.000Z</time>
      </trkpt>
      <trkpt lat="44.58259" lon="6.87694">
        <ele>2797.1999511719</ele>
        <time>2020-02-18T11:43:36.000Z</time>
      </trkpt>
      <trkpt lat="44.58259" lon="6.87695">
        <ele>2797.1999511719</ele>
        <time>2020-02-18T11:43:38.000Z</time>
      </trkpt>
      <trkpt lat="44.58259" lon="6.87695">
        <ele>2797</ele>
        <time>2020-02-18T11:43:40.000Z</time>
      </trkpt>
      <trkpt lat="44.5826" lon="6.87694">
        <ele>2797.3999023438</ele>
        <time>2020-02-18T11:43:42.000Z</time>
      </trkpt>
      <trkpt lat="44.5826" lon="6.87694">
        <ele>2797.3999023438</ele>
        <time>2020-02-18T11:43:43.000Z</time>
      </trkpt>
      <trkpt lat="44.5826" lon="6.87694">
        <ele>2797.3999023438</ele>
        <time>2020-02-18T11:43:44.000Z</time>
      </trkpt>
      <trkpt lat="44.5826" lon="6.87694">
        <ele>2797.3999023438</ele>
        <time>2020-02-18T11:43:45.000Z</time>
      </trkpt>
      <trkpt lat="44.5826" lon="6.87693">
        <ele>2797.3999023438</ele>
        <time>2020-02-18T11:43:48.000Z</time>
      </trkpt>
      <trkpt lat="44.5826" lon="6.87692">
        <ele>2797.3999023438</ele>
        <time>2020-02-18T11:43:50.000Z</time>
      </trkpt>
      <trkpt lat="44.5826" lon="6.87693">
        <ele>2797.3999023438</ele>
        <time>2020-02-18T11:43:55.000Z</time>
      </trkpt>
      <trkpt lat="44.5826" lon="6.87693">
        <ele>2797.3999023438</ele>
        <time>2020-02-18T11:43:57.000Z</time>
      </trkpt>
      <trkpt lat="44.5826" lon="6.87693">
        <ele>2797.3999023438</ele>
        <time>2020-02-18T11:44:01.000Z</time>
      </trkpt>
      <trkpt lat="44.58259" lon="6.87693">
        <ele>2797.3999023438</ele>
        <time>2020-02-18T11:44:05.000Z</time>
      </trkpt>
      <trkpt lat="44.5826" lon="6.87692">
        <ele>2797.3999023438</ele>
        <time>2020-02-18T11:44:15.000Z</time>
      </trkpt>
      <trkpt lat="44.58258" lon="6.87693">
        <ele>2797.3999023438</ele>
        <time>2020-02-18T11:44:19.000Z</time>
      </trkpt>
      <trkpt lat="44.58258" lon="6.87693">
        <ele>2797.3999023438</ele>
        <time>2020-02-18T11:44:20.000Z</time>
      </trkpt>
      <trkpt lat="44.5826" lon="6.87693">
        <ele>2797.3999023438</ele>
        <time>2020-02-18T11:44:25.000Z</time>
      </trkpt>
      <trkpt lat="44.58261" lon="6.87694">
        <ele>2797.3999023438</ele>
        <time>2020-02-18T11:44:31.000Z</time>
      </trkpt>
      <trkpt lat="44.58261" lon="6.87694">
        <ele>2797.3999023438</ele>
        <time>2020-02-18T11:44:32.000Z</time>
      </trkpt>
      <trkpt lat="44.58261" lon="6.87694">
        <ele>2797.3999023438</ele>
        <time>2020-02-18T11:44:36.000Z</time>
      </trkpt>
      <trkpt lat="44.58261" lon="6.87694">
        <ele>2797.3999023438</ele>
        <time>2020-02-18T11:44:37.000Z</time>
      </trkpt>
      <trkpt lat="44.58261" lon="6.87694">
        <ele>2797.3999023438</ele>
        <time>2020-02-18T11:44:38.000Z</time>
      </trkpt>
      <trkpt lat="44.58261" lon="6.87694">
        <ele>2797.3999023438</ele>
        <time>2020-02-18T11:44:39.000Z</time>
      </trkpt>
      <trkpt lat="44.58261" lon="6.87694">
        <ele>2797.3999023438</ele>
        <time>2020-02-18T11:44:40.000Z</time>
      </trkpt>
      <trkpt lat="44.5826" lon="6.87693">
        <ele>2797.3999023438</ele>
        <time>2020-02-18T11:44:42.000Z</time>
      </trkpt>
      <trkpt lat="44.5826" lon="6.87692">
        <ele>2797.3999023438</ele>
        <time>2020-02-18T11:44:43.000Z</time>
      </trkpt>
      <trkpt lat="44.5826" lon="6.87692">
        <ele>2797.3999023438</ele>
        <time>2020-02-18T11:44:44.000Z</time>
      </trkpt>
      <trkpt lat="44.5826" lon="6.87691">
        <ele>2797.3999023438</ele>
        <time>2020-02-18T11:44:46.000Z</time>
      </trkpt>
      <trkpt lat="44.58262" lon="6.87692">
        <ele>2797.3999023438</ele>
        <time>2020-02-18T11:44:51.000Z</time>
      </trkpt>
      <trkpt lat="44.58262" lon="6.87692">
        <ele>2797.3999023438</ele>
        <time>2020-02-18T11:44:54.000Z</time>
      </trkpt>
      <trkpt lat="44.58262" lon="6.87692">
        <ele>2797.3999023438</ele>
        <time>2020-02-18T11:44:57.000Z</time>
      </trkpt>
      <trkpt lat="44.58263" lon="6.87692">
        <ele>2797.3999023438</ele>
        <time>2020-02-18T11:45:02.000Z</time>
      </trkpt>
      <trkpt lat="44.58263" lon="6.87692">
        <ele>2797.3999023438</ele>
        <time>2020-02-18T11:45:04.000Z</time>
      </trkpt>
      <trkpt lat="44.58263" lon="6.87693">
        <ele>2797.3999023438</ele>
        <time>2020-02-18T11:45:07.000Z</time>
      </trkpt>
      <trkpt lat="44.58263" lon="6.87692">
        <ele>2797.3999023438</ele>
        <time>2020-02-18T11:45:08.000Z</time>
      </trkpt>
      <trkpt lat="44.58263" lon="6.87693">
        <ele>2797.3999023438</ele>
        <time>2020-02-18T11:45:12.000Z</time>
      </trkpt>
      <trkpt lat="44.58263" lon="6.87693">
        <ele>2797.3999023438</ele>
        <time>2020-02-18T11:45:13.000Z</time>
      </trkpt>
      <trkpt lat="44.58263" lon="6.87693">
        <ele>2797.3999023438</ele>
        <time>2020-02-18T11:45:15.000Z</time>
      </trkpt>
      <trkpt lat="44.58263" lon="6.87693">
        <ele>2797.3999023438</ele>
        <time>2020-02-18T11:45:18.000Z</time>
      </trkpt>
      <trkpt lat="44.58263" lon="6.87693">
        <ele>2797.3999023438</ele>
        <time>2020-02-18T11:45:20.000Z</time>
      </trkpt>
      <trkpt lat="44.58263" lon="6.87693">
        <ele>2797.3999023438</ele>
        <time>2020-02-18T11:45:25.000Z</time>
      </trkpt>
      <trkpt lat="44.58263" lon="6.87692">
        <ele>2797.3999023438</ele>
        <time>2020-02-18T11:45:27.000Z</time>
      </trkpt>
      <trkpt lat="44.58263" lon="6.87692">
        <ele>2797.3999023438</ele>
        <time>2020-02-18T11:45:29.000Z</time>
      </trkpt>
      <trkpt lat="44.58263" lon="6.87692">
        <ele>2797.3999023438</ele>
        <time>2020-02-18T11:45:33.000Z</time>
      </trkpt>
      <trkpt lat="44.58262" lon="6.87691">
        <ele>2797.3999023438</ele>
        <time>2020-02-18T11:45:48.000Z</time>
      </trkpt>
      <trkpt lat="44.58262" lon="6.87691">
        <ele>2797.3999023438</ele>
        <time>2020-02-18T11:45:54.000Z</time>
      </trkpt>
      <trkpt lat="44.58263" lon="6.87691">
        <ele>2797.3999023438</ele>
        <time>2020-02-18T11:46:10.000Z</time>
      </trkpt>
      <trkpt lat="44.58262" lon="6.87692">
        <ele>2797.3999023438</ele>
        <time>2020-02-18T11:46:17.000Z</time>
      </trkpt>
      <trkpt lat="44.58262" lon="6.87692">
        <ele>2797.3999023438</ele>
        <time>2020-02-18T11:46:24.000Z</time>
      </trkpt>
      <trkpt lat="44.58262" lon="6.87691">
        <ele>2797.3999023438</ele>
        <time>2020-02-18T11:46:30.000Z</time>
      </trkpt>
      <trkpt lat="44.58261" lon="6.8769">
        <ele>2797.3999023438</ele>
        <time>2020-02-18T11:46:31.000Z</time>
      </trkpt>
      <trkpt lat="44.58261" lon="6.8769">
        <ele>2797.3999023438</ele>
        <time>2020-02-18T11:46:33.000Z</time>
      </trkpt>
      <trkpt lat="44.58261" lon="6.8769">
        <ele>2797.3999023438</ele>
        <time>2020-02-18T11:46:34.000Z</time>
      </trkpt>
      <trkpt lat="44.5826" lon="6.8769">
        <ele>2797.3999023438</ele>
        <time>2020-02-18T11:46:35.000Z</time>
      </trkpt>
      <trkpt lat="44.5826" lon="6.8769">
        <ele>2797.3999023438</ele>
        <time>2020-02-18T11:46:37.000Z</time>
      </trkpt>
      <trkpt lat="44.58259" lon="6.8769">
        <ele>2797.3999023438</ele>
        <time>2020-02-18T11:46:44.000Z</time>
      </trkpt>
      <trkpt lat="44.58261" lon="6.87689">
        <ele>2797.3999023438</ele>
        <time>2020-02-18T11:46:48.000Z</time>
      </trkpt>
      <trkpt lat="44.58261" lon="6.8769">
        <ele>2797.3999023438</ele>
        <time>2020-02-18T11:46:52.000Z</time>
      </trkpt>
      <trkpt lat="44.58261" lon="6.8769">
        <ele>2797.3999023438</ele>
        <time>2020-02-18T11:46:54.000Z</time>
      </trkpt>
      <trkpt lat="44.5826" lon="6.87691">
        <ele>2797.3999023438</ele>
        <time>2020-02-18T11:47:07.000Z</time>
      </trkpt>
      <trkpt lat="44.5826" lon="6.87691">
        <ele>2797.3999023438</ele>
        <time>2020-02-18T11:47:10.000Z</time>
      </trkpt>
      <trkpt lat="44.5826" lon="6.87691">
        <ele>2797.3999023438</ele>
        <time>2020-02-18T11:47:16.000Z</time>
      </trkpt>
      <trkpt lat="44.5826" lon="6.87691">
        <ele>2797.3999023438</ele>
        <time>2020-02-18T11:47:18.000Z</time>
      </trkpt>
      <trkpt lat="44.5826" lon="6.87691">
        <ele>2797.3999023438</ele>
        <time>2020-02-18T11:47:21.000Z</time>
      </trkpt>
      <trkpt lat="44.5826" lon="6.87691">
        <ele>2797.3999023438</ele>
        <time>2020-02-18T11:47:27.000Z</time>
      </trkpt>
      <trkpt lat="44.5826" lon="6.87692">
        <ele>2797.3999023438</ele>
        <time>2020-02-18T11:47:36.000Z</time>
      </trkpt>
      <trkpt lat="44.5826" lon="6.87692">
        <ele>2797.3999023438</ele>
        <time>2020-02-18T11:47:37.000Z</time>
      </trkpt>
      <trkpt lat="44.58259" lon="6.87692">
        <ele>2797.3999023438</ele>
        <time>2020-02-18T11:47:39.000Z</time>
      </trkpt>
      <trkpt lat="44.58259" lon="6.87692">
        <ele>2797.3999023438</ele>
        <time>2020-02-18T11:47:40.000Z</time>
      </trkpt>
      <trkpt lat="44.58259" lon="6.87692">
        <ele>2797.3999023438</ele>
        <time>2020-02-18T11:47:41.000Z</time>
      </trkpt>
      <trkpt lat="44.58258" lon="6.87691">
        <ele>2797.3999023438</ele>
        <time>2020-02-18T11:47:42.000Z</time>
      </trkpt>
      <trkpt lat="44.58258" lon="6.87693">
        <ele>2797.3999023438</ele>
        <time>2020-02-18T11:47:49.000Z</time>
      </trkpt>
      <trkpt lat="44.58259" lon="6.87693">
        <ele>2797.3999023438</ele>
        <time>2020-02-18T11:47:51.000Z</time>
      </trkpt>
      <trkpt lat="44.58259" lon="6.87693">
        <ele>2797.3999023438</ele>
        <time>2020-02-18T11:48:20.000Z</time>
      </trkpt>
      <trkpt lat="44.58259" lon="6.87693">
        <ele>2797.3999023438</ele>
        <time>2020-02-18T11:48:23.000Z</time>
      </trkpt>
      <trkpt lat="44.58259" lon="6.87693">
        <ele>2797.3999023438</ele>
        <time>2020-02-18T11:48:25.000Z</time>
      </trkpt>
      <trkpt lat="44.58259" lon="6.87693">
        <ele>2797.3999023438</ele>
        <time>2020-02-18T11:48:27.000Z</time>
      </trkpt>
      <trkpt lat="44.58259" lon="6.87693">
        <ele>2797.3999023438</ele>
        <time>2020-02-18T11:48:31.000Z</time>
      </trkpt>
      <trkpt lat="44.58259" lon="6.87693">
        <ele>2797.3999023438</ele>
        <time>2020-02-18T11:48:37.000Z</time>
      </trkpt>
      <trkpt lat="44.58259" lon="6.87693">
        <ele>2797.3999023438</ele>
        <time>2020-02-18T11:48:40.000Z</time>
      </trkpt>
      <trkpt lat="44.58259" lon="6.87693">
        <ele>2797.3999023438</ele>
        <time>2020-02-18T11:48:42.000Z</time>
      </trkpt>
      <trkpt lat="44.58259" lon="6.87693">
        <ele>2797.3999023438</ele>
        <time>2020-02-18T11:48:43.000Z</time>
      </trkpt>
      <trkpt lat="44.58259" lon="6.87692">
        <ele>2797.3999023438</ele>
        <time>2020-02-18T11:48:45.000Z</time>
      </trkpt>
      <trkpt lat="44.58259" lon="6.87692">
        <ele>2797.3999023438</ele>
        <time>2020-02-18T11:48:48.000Z</time>
      </trkpt>
      <trkpt lat="44.58259" lon="6.87692">
        <ele>2797.3999023438</ele>
        <time>2020-02-18T11:48:50.000Z</time>
      </trkpt>
      <trkpt lat="44.58259" lon="6.87692">
        <ele>2797.3999023438</ele>
        <time>2020-02-18T11:48:55.000Z</time>
      </trkpt>
      <trkpt lat="44.58259" lon="6.87692">
        <ele>2797.3999023438</ele>
        <time>2020-02-18T11:48:57.000Z</time>
      </trkpt>
      <trkpt lat="44.58259" lon="6.87692">
        <ele>2797.3999023438</ele>
        <time>2020-02-18T11:49:01.000Z</time>
      </trkpt>
      <trkpt lat="44.58259" lon="6.87692">
        <ele>2797.3999023438</ele>
        <time>2020-02-18T11:49:04.000Z</time>
      </trkpt>
      <trkpt lat="44.58259" lon="6.87691">
        <ele>2797.3999023438</ele>
        <time>2020-02-18T11:49:06.000Z</time>
      </trkpt>
      <trkpt lat="44.5826" lon="6.87692">
        <ele>2797.3999023438</ele>
        <time>2020-02-18T11:49:08.000Z</time>
      </trkpt>
      <trkpt lat="44.58261" lon="6.87691">
        <ele>2797.3999023438</ele>
        <time>2020-02-18T11:49:14.000Z</time>
      </trkpt>
      <trkpt lat="44.58261" lon="6.87692">
        <ele>2797.3999023438</ele>
        <time>2020-02-18T11:49:23.000Z</time>
      </trkpt>
      <trkpt lat="44.58262" lon="6.87692">
        <ele>2797.3999023438</ele>
        <time>2020-02-18T11:49:29.000Z</time>
      </trkpt>
      <trkpt lat="44.58263" lon="6.87692">
        <ele>2797.3999023438</ele>
        <time>2020-02-18T11:49:37.000Z</time>
      </trkpt>
      <trkpt lat="44.58263" lon="6.87692">
        <ele>2797.3999023438</ele>
        <time>2020-02-18T11:49:40.000Z</time>
      </trkpt>
      <trkpt lat="44.58262" lon="6.87692">
        <ele>2797.3999023438</ele>
        <time>2020-02-18T11:49:44.000Z</time>
      </trkpt>
      <trkpt lat="44.58262" lon="6.87692">
        <ele>2797.3999023438</ele>
        <time>2020-02-18T11:49:49.000Z</time>
      </trkpt>
      <trkpt lat="44.58262" lon="6.87692">
        <ele>2797.3999023438</ele>
        <time>2020-02-18T11:49:52.000Z</time>
      </trkpt>
      <trkpt lat="44.58262" lon="6.87692">
        <ele>2797.3999023438</ele>
        <time>2020-02-18T11:49:55.000Z</time>
      </trkpt>
      <trkpt lat="44.58262" lon="6.87693">
        <ele>2797.3999023438</ele>
        <time>2020-02-18T11:50:03.000Z</time>
      </trkpt>
      <trkpt lat="44.58259" lon="6.87693">
        <ele>2797.3999023438</ele>
        <time>2020-02-18T11:50:27.000Z</time>
      </trkpt>
      <trkpt lat="44.5826" lon="6.87693">
        <ele>2797.3999023438</ele>
        <time>2020-02-18T11:50:28.000Z</time>
      </trkpt>
      <trkpt lat="44.58259" lon="6.87692">
        <ele>2797.3999023438</ele>
        <time>2020-02-18T11:50:36.000Z</time>
      </trkpt>
      <trkpt lat="44.58259" lon="6.87692">
        <ele>2797.3999023438</ele>
        <time>2020-02-18T11:50:37.000Z</time>
      </trkpt>
      <trkpt lat="44.58259" lon="6.87692">
        <ele>2797.3999023438</ele>
        <time>2020-02-18T11:50:38.000Z</time>
      </trkpt>
      <trkpt lat="44.58259" lon="6.87692">
        <ele>2797.3999023438</ele>
        <time>2020-02-18T11:50:40.000Z</time>
      </trkpt>
      <trkpt lat="44.5826" lon="6.87692">
        <ele>2797.3999023438</ele>
        <time>2020-02-18T11:50:47.000Z</time>
      </trkpt>
      <trkpt lat="44.58259" lon="6.87692">
        <ele>2797.3999023438</ele>
        <time>2020-02-18T11:50:53.000Z</time>
      </trkpt>
      <trkpt lat="44.5826" lon="6.87693">
        <ele>2797.3999023438</ele>
        <time>2020-02-18T11:51:01.000Z</time>
      </trkpt>
      <trkpt lat="44.5826" lon="6.87693">
        <ele>2797.3999023438</ele>
        <time>2020-02-18T11:51:04.000Z</time>
      </trkpt>
      <trkpt lat="44.5826" lon="6.87692">
        <ele>2797.3999023438</ele>
        <time>2020-02-18T11:51:18.000Z</time>
      </trkpt>
      <trkpt lat="44.58261" lon="6.87693">
        <ele>2797.3999023438</ele>
        <time>2020-02-18T11:51:22.000Z</time>
      </trkpt>
      <trkpt lat="44.5826" lon="6.87693">
        <ele>2797.3999023438</ele>
        <time>2020-02-18T11:51:26.000Z</time>
      </trkpt>
      <trkpt lat="44.5826" lon="6.87692">
        <ele>2797.3999023438</ele>
        <time>2020-02-18T11:51:34.000Z</time>
      </trkpt>
      <trkpt lat="44.5826" lon="6.87692">
        <ele>2797.3999023438</ele>
        <time>2020-02-18T11:51:37.000Z</time>
      </trkpt>
      <trkpt lat="44.5826" lon="6.87691">
        <ele>2797.3999023438</ele>
        <time>2020-02-18T11:51:46.000Z</time>
      </trkpt>
      <trkpt lat="44.5826" lon="6.87691">
        <ele>2797.3999023438</ele>
        <time>2020-02-18T11:51:50.000Z</time>
      </trkpt>
      <trkpt lat="44.5826" lon="6.87691">
        <ele>2797.3999023438</ele>
        <time>2020-02-18T11:51:52.000Z</time>
      </trkpt>
      <trkpt lat="44.5826" lon="6.87692">
        <ele>2797.3999023438</ele>
        <time>2020-02-18T11:52:04.000Z</time>
      </trkpt>
      <trkpt lat="44.5826" lon="6.87692">
        <ele>2797.3999023438</ele>
        <time>2020-02-18T11:52:07.000Z</time>
      </trkpt>
      <trkpt lat="44.5826" lon="6.87692">
        <ele>2797.3999023438</ele>
        <time>2020-02-18T11:52:10.000Z</time>
      </trkpt>
      <trkpt lat="44.58259" lon="6.87692">
        <ele>2797.3999023438</ele>
        <time>2020-02-18T11:52:12.000Z</time>
      </trkpt>
      <trkpt lat="44.58259" lon="6.87692">
        <ele>2797.3999023438</ele>
        <time>2020-02-18T11:52:13.000Z</time>
      </trkpt>
      <trkpt lat="44.58259" lon="6.87692">
        <ele>2797.3999023438</ele>
        <time>2020-02-18T11:52:14.000Z</time>
      </trkpt>
      <trkpt lat="44.58259" lon="6.87692">
        <ele>2797.3999023438</ele>
        <time>2020-02-18T11:52:18.000Z</time>
      </trkpt>
      <trkpt lat="44.58259" lon="6.87692">
        <ele>2797.3999023438</ele>
        <time>2020-02-18T11:52:20.000Z</time>
      </trkpt>
      <trkpt lat="44.58258" lon="6.87692">
        <ele>2797.3999023438</ele>
        <time>2020-02-18T11:52:21.000Z</time>
      </trkpt>
      <trkpt lat="44.58258" lon="6.87692">
        <ele>2797.3999023438</ele>
        <time>2020-02-18T11:52:31.000Z</time>
      </trkpt>
      <trkpt lat="44.58258" lon="6.87692">
        <ele>2797.3999023438</ele>
        <time>2020-02-18T11:52:39.000Z</time>
      </trkpt>
      <trkpt lat="44.58258" lon="6.87692">
        <ele>2797.3999023438</ele>
        <time>2020-02-18T11:52:43.000Z</time>
      </trkpt>
      <trkpt lat="44.58258" lon="6.87692">
        <ele>2797.3999023438</ele>
        <time>2020-02-18T11:52:55.000Z</time>
      </trkpt>
      <trkpt lat="44.58258" lon="6.87692">
        <ele>2797.3999023438</ele>
        <time>2020-02-18T11:53:00.000Z</time>
      </trkpt>
      <trkpt lat="44.58258" lon="6.87692">
        <ele>2797.3999023438</ele>
        <time>2020-02-18T11:53:05.000Z</time>
      </trkpt>
      <trkpt lat="44.58258" lon="6.87692">
        <ele>2797.3999023438</ele>
        <time>2020-02-18T11:53:09.000Z</time>
      </trkpt>
      <trkpt lat="44.58258" lon="6.87692">
        <ele>2797.3999023438</ele>
        <time>2020-02-18T11:53:12.000Z</time>
      </trkpt>
      <trkpt lat="44.58258" lon="6.87692">
        <ele>2797.3999023438</ele>
        <time>2020-02-18T11:53:13.000Z</time>
      </trkpt>
      <trkpt lat="44.58258" lon="6.87692">
        <ele>2797.3999023438</ele>
        <time>2020-02-18T11:53:15.000Z</time>
      </trkpt>
      <trkpt lat="44.58258" lon="6.87692">
        <ele>2797.3999023438</ele>
        <time>2020-02-18T11:53:25.000Z</time>
      </trkpt>
      <trkpt lat="44.58258" lon="6.87692">
        <ele>2797.3999023438</ele>
        <time>2020-02-18T11:53:42.000Z</time>
      </trkpt>
      <trkpt lat="44.58258" lon="6.87692">
        <ele>2797.3999023438</ele>
        <time>2020-02-18T11:53:52.000Z</time>
      </trkpt>
      <trkpt lat="44.58258" lon="6.87692">
        <ele>2797.3999023438</ele>
        <time>2020-02-18T11:54:03.000Z</time>
      </trkpt>
      <trkpt lat="44.58258" lon="6.87692">
        <ele>2797.3999023438</ele>
        <time>2020-02-18T11:54:16.000Z</time>
      </trkpt>
      <trkpt lat="44.58258" lon="6.87692">
        <ele>2797.3999023438</ele>
        <time>2020-02-18T11:54:18.000Z</time>
      </trkpt>
      <trkpt lat="44.58258" lon="6.87692">
        <ele>2797.3999023438</ele>
        <time>2020-02-18T11:54:21.000Z</time>
      </trkpt>
      <trkpt lat="44.58258" lon="6.87692">
        <ele>2797.3999023438</ele>
        <time>2020-02-18T11:54:33.000Z</time>
      </trkpt>
      <trkpt lat="44.58258" lon="6.87692">
        <ele>2797.3999023438</ele>
        <time>2020-02-18T11:54:38.000Z</time>
      </trkpt>
      <trkpt lat="44.58258" lon="6.87692">
        <ele>2797.3999023438</ele>
        <time>2020-02-18T11:54:40.000Z</time>
      </trkpt>
      <trkpt lat="44.58258" lon="6.87692">
        <ele>2797.3999023438</ele>
        <time>2020-02-18T11:54:41.000Z</time>
      </trkpt>
      <trkpt lat="44.58258" lon="6.87692">
        <ele>2797.3999023438</ele>
        <time>2020-02-18T11:54:43.000Z</time>
      </trkpt>
      <trkpt lat="44.58258" lon="6.87692">
        <ele>2797.3999023438</ele>
        <time>2020-02-18T11:54:47.000Z</time>
      </trkpt>
      <trkpt lat="44.58258" lon="6.87692">
        <ele>2797.3999023438</ele>
        <time>2020-02-18T11:54:48.000Z</time>
      </trkpt>
      <trkpt lat="44.58258" lon="6.87692">
        <ele>2797.3999023438</ele>
        <time>2020-02-18T11:54:52.000Z</time>
      </trkpt>
      <trkpt lat="44.58258" lon="6.87692">
        <ele>2797.3999023438</ele>
        <time>2020-02-18T11:54:56.000Z</time>
      </trkpt>
      <trkpt lat="44.58258" lon="6.87692">
        <ele>2797.3999023438</ele>
        <time>2020-02-18T11:54:57.000Z</time>
      </trkpt>
      <trkpt lat="44.58258" lon="6.87692">
        <ele>2797.3999023438</ele>
        <time>2020-02-18T11:54:58.000Z</time>
      </trkpt>
      <trkpt lat="44.58258" lon="6.87692">
        <ele>2797.3999023438</ele>
        <time>2020-02-18T11:54:59.000Z</time>
      </trkpt>
      <trkpt lat="44.58258" lon="6.87692">
        <ele>2797.3999023438</ele>
        <time>2020-02-18T11:55:01.000Z</time>
      </trkpt>
      <trkpt lat="44.58258" lon="6.87692">
        <ele>2797.3999023438</ele>
        <time>2020-02-18T11:55:03.000Z</time>
      </trkpt>
      <trkpt lat="44.58258" lon="6.87692">
        <ele>2797.3999023438</ele>
        <time>2020-02-18T11:55:13.000Z</time>
      </trkpt>
      <trkpt lat="44.58258" lon="6.87692">
        <ele>2797.3999023438</ele>
        <time>2020-02-18T11:55:15.000Z</time>
      </trkpt>
      <trkpt lat="44.58258" lon="6.87692">
        <ele>2797.3999023438</ele>
        <time>2020-02-18T11:55:16.000Z</time>
      </trkpt>
      <trkpt lat="44.58258" lon="6.87692">
        <ele>2797.3999023438</ele>
        <time>2020-02-18T11:55:32.000Z</time>
      </trkpt>
      <trkpt lat="44.58259" lon="6.87693">
        <ele>2797.3999023438</ele>
        <time>2020-02-18T11:55:34.000Z</time>
      </trkpt>
      <trkpt lat="44.5826" lon="6.87693">
        <ele>2797.3999023438</ele>
        <time>2020-02-18T11:55:36.000Z</time>
      </trkpt>
      <trkpt lat="44.5826" lon="6.87693">
        <ele>2797.3999023438</ele>
        <time>2020-02-18T11:55:37.000Z</time>
      </trkpt>
      <trkpt lat="44.5826" lon="6.87693">
        <ele>2797.3999023438</ele>
        <time>2020-02-18T11:55:38.000Z</time>
      </trkpt>
      <trkpt lat="44.58259" lon="6.87692">
        <ele>2797.3999023438</ele>
        <time>2020-02-18T11:55:48.000Z</time>
      </trkpt>
      <trkpt lat="44.58259" lon="6.87692">
        <ele>2797.3999023438</ele>
        <time>2020-02-18T11:55:51.000Z</time>
      </trkpt>
      <trkpt lat="44.58259" lon="6.87693">
        <ele>2797.3999023438</ele>
        <time>2020-02-18T11:56:01.000Z</time>
      </trkpt>
      <trkpt lat="44.58259" lon="6.87693">
        <ele>2797.3999023438</ele>
        <time>2020-02-18T11:56:07.000Z</time>
      </trkpt>
      <trkpt lat="44.58259" lon="6.87692">
        <ele>2797.3999023438</ele>
        <time>2020-02-18T11:56:24.000Z</time>
      </trkpt>
      <trkpt lat="44.5826" lon="6.87692">
        <ele>2797.3999023438</ele>
        <time>2020-02-18T11:56:36.000Z</time>
      </trkpt>
      <trkpt lat="44.5826" lon="6.87692">
        <ele>2797.3999023438</ele>
        <time>2020-02-18T11:56:39.000Z</time>
      </trkpt>
      <trkpt lat="44.5826" lon="6.87692">
        <ele>2797.3999023438</ele>
        <time>2020-02-18T11:56:45.000Z</time>
      </trkpt>
      <trkpt lat="44.5826" lon="6.87692">
        <ele>2797.3999023438</ele>
        <time>2020-02-18T11:56:51.000Z</time>
      </trkpt>
      <trkpt lat="44.5826" lon="6.87692">
        <ele>2797.3999023438</ele>
        <time>2020-02-18T11:56:57.000Z</time>
      </trkpt>
      <trkpt lat="44.5826" lon="6.87692">
        <ele>2797.3999023438</ele>
        <time>2020-02-18T11:57:03.000Z</time>
      </trkpt>
      <trkpt lat="44.5826" lon="6.87692">
        <ele>2797.3999023438</ele>
        <time>2020-02-18T11:57:10.000Z</time>
      </trkpt>
      <trkpt lat="44.5826" lon="6.87692">
        <ele>2797.3999023438</ele>
        <time>2020-02-18T11:57:12.000Z</time>
      </trkpt>
      <trkpt lat="44.5826" lon="6.87692">
        <ele>2797.3999023438</ele>
        <time>2020-02-18T11:57:15.000Z</time>
      </trkpt>
      <trkpt lat="44.5826" lon="6.87692">
        <ele>2797.3999023438</ele>
        <time>2020-02-18T11:57:24.000Z</time>
      </trkpt>
      <trkpt lat="44.5826" lon="6.87692">
        <ele>2797.3999023438</ele>
        <time>2020-02-18T11:57:30.000Z</time>
      </trkpt>
      <trkpt lat="44.5826" lon="6.87692">
        <ele>2797.3999023438</ele>
        <time>2020-02-18T11:57:43.000Z</time>
      </trkpt>
      <trkpt lat="44.5826" lon="6.87692">
        <ele>2797.3999023438</ele>
        <time>2020-02-18T11:57:47.000Z</time>
      </trkpt>
      <trkpt lat="44.5826" lon="6.87692">
        <ele>2797.3999023438</ele>
        <time>2020-02-18T11:57:49.000Z</time>
      </trkpt>
      <trkpt lat="44.5826" lon="6.87692">
        <ele>2797.3999023438</ele>
        <time>2020-02-18T11:57:51.000Z</time>
      </trkpt>
      <trkpt lat="44.5826" lon="6.87692">
        <ele>2797.3999023438</ele>
        <time>2020-02-18T11:57:54.000Z</time>
      </trkpt>
      <trkpt lat="44.5826" lon="6.87692">
        <ele>2797.3999023438</ele>
        <time>2020-02-18T11:57:58.000Z</time>
      </trkpt>
      <trkpt lat="44.5826" lon="6.87692">
        <ele>2797.3999023438</ele>
        <time>2020-02-18T11:57:59.000Z</time>
      </trkpt>
      <trkpt lat="44.5826" lon="6.87692">
        <ele>2797.3999023438</ele>
        <time>2020-02-18T11:58:09.000Z</time>
      </trkpt>
      <trkpt lat="44.5826" lon="6.87692">
        <ele>2797.3999023438</ele>
        <time>2020-02-18T11:58:22.000Z</time>
      </trkpt>
      <trkpt lat="44.5826" lon="6.87692">
        <ele>2797.3999023438</ele>
        <time>2020-02-18T11:58:25.000Z</time>
      </trkpt>
      <trkpt lat="44.5826" lon="6.87692">
        <ele>2797.3999023438</ele>
        <time>2020-02-18T11:58:28.000Z</time>
      </trkpt>
      <trkpt lat="44.5826" lon="6.87692">
        <ele>2797.3999023438</ele>
        <time>2020-02-18T11:58:30.000Z</time>
      </trkpt>
      <trkpt lat="44.5826" lon="6.87693">
        <ele>2797.3999023438</ele>
        <time>2020-02-18T11:58:40.000Z</time>
      </trkpt>
      <trkpt lat="44.5826" lon="6.87692">
        <ele>2797.3999023438</ele>
        <time>2020-02-18T11:58:51.000Z</time>
      </trkpt>
      <trkpt lat="44.5826" lon="6.87692">
        <ele>2797.3999023438</ele>
        <time>2020-02-18T11:58:53.000Z</time>
      </trkpt>
      <trkpt lat="44.58259" lon="6.87692">
        <ele>2797.3999023438</ele>
        <time>2020-02-18T11:58:56.000Z</time>
      </trkpt>
      <trkpt lat="44.58259" lon="6.87692">
        <ele>2797.3999023438</ele>
        <time>2020-02-18T11:58:58.000Z</time>
      </trkpt>
      <trkpt lat="44.58259" lon="6.87693">
        <ele>2797.3999023438</ele>
        <time>2020-02-18T11:59:09.000Z</time>
      </trkpt>
      <trkpt lat="44.58259" lon="6.87692">
        <ele>2797.3999023438</ele>
        <time>2020-02-18T11:59:19.000Z</time>
      </trkpt>
      <trkpt lat="44.58259" lon="6.87692">
        <ele>2797.3999023438</ele>
        <time>2020-02-18T11:59:21.000Z</time>
      </trkpt>
      <trkpt lat="44.58259" lon="6.87692">
        <ele>2797.3999023438</ele>
        <time>2020-02-18T11:59:22.000Z</time>
      </trkpt>
      <trkpt lat="44.58259" lon="6.87692">
        <ele>2797.3999023438</ele>
        <time>2020-02-18T11:59:28.000Z</time>
      </trkpt>
      <trkpt lat="44.58259" lon="6.87691">
        <ele>2797.3999023438</ele>
        <time>2020-02-18T11:59:29.000Z</time>
      </trkpt>
      <trkpt lat="44.58259" lon="6.87691">
        <ele>2797.3999023438</ele>
        <time>2020-02-18T11:59:30.000Z</time>
      </trkpt>
      <trkpt lat="44.58259" lon="6.87691">
        <ele>2797.3999023438</ele>
        <time>2020-02-18T11:59:32.000Z</time>
      </trkpt>
      <trkpt lat="44.58259" lon="6.87691">
        <ele>2797.3999023438</ele>
        <time>2020-02-18T11:59:46.000Z</time>
      </trkpt>
      <trkpt lat="44.58259" lon="6.87691">
        <ele>2797.3999023438</ele>
        <time>2020-02-18T11:59:50.000Z</time>
      </trkpt>
      <trkpt lat="44.58259" lon="6.87691">
        <ele>2797.3999023438</ele>
        <time>2020-02-18T11:59:53.000Z</time>
      </trkpt>
      <trkpt lat="44.58259" lon="6.87692">
        <ele>2797.3999023438</ele>
        <time>2020-02-18T11:59:56.000Z</time>
      </trkpt>
      <trkpt lat="44.58259" lon="6.87692">
        <ele>2797.3999023438</ele>
        <time>2020-02-18T11:59:57.000Z</time>
      </trkpt>
      <trkpt lat="44.58259" lon="6.87692">
        <ele>2797.3999023438</ele>
        <time>2020-02-18T11:59:58.000Z</time>
      </trkpt>
      <trkpt lat="44.58259" lon="6.87692">
        <ele>2797.3999023438</ele>
        <time>2020-02-18T11:59:59.000Z</time>
      </trkpt>
      <trkpt lat="44.58259" lon="6.87692">
        <ele>2797.3999023438</ele>
        <time>2020-02-18T12:00:00.000Z</time>
      </trkpt>
      <trkpt lat="44.58259" lon="6.87692">
        <ele>2797.3999023438</ele>
        <time>2020-02-18T12:00:01.000Z</time>
      </trkpt>
      <trkpt lat="44.58259" lon="6.87693">
        <ele>2797.3999023438</ele>
        <time>2020-02-18T12:00:03.000Z</time>
      </trkpt>
      <trkpt lat="44.58259" lon="6.87693">
        <ele>2797.3999023438</ele>
        <time>2020-02-18T12:00:05.000Z</time>
      </trkpt>
      <trkpt lat="44.58259" lon="6.87693">
        <ele>2797.3999023438</ele>
        <time>2020-02-18T12:00:07.000Z</time>
      </trkpt>
      <trkpt lat="44.58259" lon="6.87693">
        <ele>2797.3999023438</ele>
        <time>2020-02-18T12:00:09.000Z</time>
      </trkpt>
      <trkpt lat="44.58259" lon="6.87693">
        <ele>2797.3999023438</ele>
        <time>2020-02-18T12:00:11.000Z</time>
      </trkpt>
      <trkpt lat="44.58259" lon="6.87693">
        <ele>2797.3999023438</ele>
        <time>2020-02-18T12:00:24.000Z</time>
      </trkpt>
      <trkpt lat="44.58259" lon="6.87693">
        <ele>2797.3999023438</ele>
        <time>2020-02-18T12:00:36.000Z</time>
      </trkpt>
      <trkpt lat="44.5826" lon="6.87693">
        <ele>2797.3999023438</ele>
        <time>2020-02-18T12:00:40.000Z</time>
      </trkpt>
      <trkpt lat="44.5826" lon="6.87693">
        <ele>2797.3999023438</ele>
        <time>2020-02-18T12:00:49.000Z</time>
      </trkpt>
      <trkpt lat="44.5826" lon="6.87693">
        <ele>2797.3999023438</ele>
        <time>2020-02-18T12:00:50.000Z</time>
      </trkpt>
      <trkpt lat="44.58259" lon="6.87692">
        <ele>2797.3999023438</ele>
        <time>2020-02-18T12:01:02.000Z</time>
      </trkpt>
      <trkpt lat="44.58259" lon="6.87691">
        <ele>2797.3999023438</ele>
        <time>2020-02-18T12:01:08.000Z</time>
      </trkpt>
      <trkpt lat="44.58259" lon="6.87689">
        <ele>2797.3999023438</ele>
        <time>2020-02-18T12:01:18.000Z</time>
      </trkpt>
      <trkpt lat="44.58259" lon="6.87689">
        <ele>2797.3999023438</ele>
        <time>2020-02-18T12:01:19.000Z</time>
      </trkpt>
      <trkpt lat="44.58259" lon="6.87689">
        <ele>2797.3999023438</ele>
        <time>2020-02-18T12:01:22.000Z</time>
      </trkpt>
      <trkpt lat="44.58259" lon="6.87688">
        <ele>2797.3999023438</ele>
        <time>2020-02-18T12:01:24.000Z</time>
      </trkpt>
      <trkpt lat="44.58259" lon="6.87688">
        <ele>2797.3999023438</ele>
        <time>2020-02-18T12:01:25.000Z</time>
      </trkpt>
      <trkpt lat="44.58259" lon="6.87688">
        <ele>2797.3999023438</ele>
        <time>2020-02-18T12:01:29.000Z</time>
      </trkpt>
      <trkpt lat="44.58259" lon="6.87688">
        <ele>2797.3999023438</ele>
        <time>2020-02-18T12:01:30.000Z</time>
      </trkpt>
      <trkpt lat="44.58259" lon="6.87689">
        <ele>2797.3999023438</ele>
        <time>2020-02-18T12:01:36.000Z</time>
      </trkpt>
      <trkpt lat="44.58259" lon="6.87689">
        <ele>2797.3999023438</ele>
        <time>2020-02-18T12:01:39.000Z</time>
      </trkpt>
      <trkpt lat="44.58259" lon="6.87689">
        <ele>2797.3999023438</ele>
        <time>2020-02-18T12:01:42.000Z</time>
      </trkpt>
      <trkpt lat="44.58259" lon="6.8769">
        <ele>2797.3999023438</ele>
        <time>2020-02-18T12:01:51.000Z</time>
      </trkpt>
      <trkpt lat="44.5826" lon="6.87689">
        <ele>2797.3999023438</ele>
        <time>2020-02-18T12:01:55.000Z</time>
      </trkpt>
      <trkpt lat="44.5826" lon="6.87688">
        <ele>2797.3999023438</ele>
        <time>2020-02-18T12:02:00.000Z</time>
      </trkpt>
      <trkpt lat="44.5826" lon="6.87689">
        <ele>2797.3999023438</ele>
        <time>2020-02-18T12:02:04.000Z</time>
      </trkpt>
      <trkpt lat="44.5826" lon="6.87688">
        <ele>2797.3999023438</ele>
        <time>2020-02-18T12:02:09.000Z</time>
      </trkpt>
      <trkpt lat="44.5826" lon="6.87689">
        <ele>2797.3999023438</ele>
        <time>2020-02-18T12:02:11.000Z</time>
      </trkpt>
      <trkpt lat="44.5826" lon="6.87689">
        <ele>2797.3999023438</ele>
        <time>2020-02-18T12:02:12.000Z</time>
      </trkpt>
      <trkpt lat="44.58259" lon="6.8769">
        <ele>2797.3999023438</ele>
        <time>2020-02-18T12:02:17.000Z</time>
      </trkpt>
      <trkpt lat="44.58258" lon="6.87691">
        <ele>2797.3999023438</ele>
        <time>2020-02-18T12:02:20.000Z</time>
      </trkpt>
      <trkpt lat="44.58256" lon="6.87692">
        <ele>2797.3999023438</ele>
        <time>2020-02-18T12:02:26.000Z</time>
      </trkpt>
      <trkpt lat="44.58256" lon="6.87692">
        <ele>2797.3999023438</ele>
        <time>2020-02-18T12:02:29.000Z</time>
      </trkpt>
      <trkpt lat="44.58257" lon="6.87692">
        <ele>2797.3999023438</ele>
        <time>2020-02-18T12:02:38.000Z</time>
      </trkpt>
      <trkpt lat="44.58257" lon="6.87692">
        <ele>2797.3999023438</ele>
        <time>2020-02-18T12:02:39.000Z</time>
      </trkpt>
      <trkpt lat="44.58258" lon="6.87691">
        <ele>2797.3999023438</ele>
        <time>2020-02-18T12:02:45.000Z</time>
      </trkpt>
      <trkpt lat="44.58258" lon="6.87691">
        <ele>2797.3999023438</ele>
        <time>2020-02-18T12:02:48.000Z</time>
      </trkpt>
      <trkpt lat="44.58258" lon="6.87691">
        <ele>2797.3999023438</ele>
        <time>2020-02-18T12:02:50.000Z</time>
      </trkpt>
      <trkpt lat="44.58259" lon="6.8769">
        <ele>2797.3999023438</ele>
        <time>2020-02-18T12:02:58.000Z</time>
      </trkpt>
      <trkpt lat="44.5826" lon="6.8769">
        <ele>2797.3999023438</ele>
        <time>2020-02-18T12:03:03.000Z</time>
      </trkpt>
      <trkpt lat="44.58261" lon="6.87689">
        <ele>2797.3999023438</ele>
        <time>2020-02-18T12:03:07.000Z</time>
      </trkpt>
      <trkpt lat="44.5826" lon="6.8769">
        <ele>2797.3999023438</ele>
        <time>2020-02-18T12:03:10.000Z</time>
      </trkpt>
      <trkpt lat="44.5826" lon="6.8769">
        <ele>2797.3999023438</ele>
        <time>2020-02-18T12:03:12.000Z</time>
      </trkpt>
      <trkpt lat="44.5826" lon="6.8769">
        <ele>2797.3999023438</ele>
        <time>2020-02-18T12:03:14.000Z</time>
      </trkpt>
      <trkpt lat="44.5826" lon="6.8769">
        <ele>2797.3999023438</ele>
        <time>2020-02-18T12:03:18.000Z</time>
      </trkpt>
      <trkpt lat="44.5826" lon="6.8769">
        <ele>2797.3999023438</ele>
        <time>2020-02-18T12:03:23.000Z</time>
      </trkpt>
      <trkpt lat="44.5826" lon="6.8769">
        <ele>2797.3999023438</ele>
        <time>2020-02-18T12:03:25.000Z</time>
      </trkpt>
      <trkpt lat="44.5826" lon="6.8769">
        <ele>2797.3999023438</ele>
        <time>2020-02-18T12:03:30.000Z</time>
      </trkpt>
      <trkpt lat="44.5826" lon="6.8769">
        <ele>2797.3999023438</ele>
        <time>2020-02-18T12:03:31.000Z</time>
      </trkpt>
      <trkpt lat="44.5826" lon="6.8769">
        <ele>2797.3999023438</ele>
        <time>2020-02-18T12:03:40.000Z</time>
      </trkpt>
      <trkpt lat="44.5826" lon="6.8769">
        <ele>2797.3999023438</ele>
        <time>2020-02-18T12:03:44.000Z</time>
      </trkpt>
      <trkpt lat="44.5826" lon="6.8769">
        <ele>2797.3999023438</ele>
        <time>2020-02-18T12:03:49.000Z</time>
      </trkpt>
      <trkpt lat="44.5826" lon="6.87691">
        <ele>2797.3999023438</ele>
        <time>2020-02-18T12:04:01.000Z</time>
      </trkpt>
      <trkpt lat="44.58261" lon="6.87691">
        <ele>2797.3999023438</ele>
        <time>2020-02-18T12:04:05.000Z</time>
      </trkpt>
      <trkpt lat="44.58261" lon="6.87691">
        <ele>2797.3999023438</ele>
        <time>2020-02-18T12:04:12.000Z</time>
      </trkpt>
      <trkpt lat="44.58261" lon="6.87691">
        <ele>2797.3999023438</ele>
        <time>2020-02-18T12:04:14.000Z</time>
      </trkpt>
      <trkpt lat="44.58261" lon="6.87691">
        <ele>2797.3999023438</ele>
        <time>2020-02-18T12:04:16.000Z</time>
      </trkpt>
      <trkpt lat="44.58261" lon="6.87691">
        <ele>2797.3999023438</ele>
        <time>2020-02-18T12:04:17.000Z</time>
      </trkpt>
      <trkpt lat="44.58259" lon="6.87692">
        <ele>2797.3999023438</ele>
        <time>2020-02-18T12:04:36.000Z</time>
      </trkpt>
      <trkpt lat="44.58259" lon="6.87692">
        <ele>2797.3999023438</ele>
        <time>2020-02-18T12:04:38.000Z</time>
      </trkpt>
      <trkpt lat="44.58261" lon="6.87691">
        <ele>2797.3999023438</ele>
        <time>2020-02-18T12:04:47.000Z</time>
      </trkpt>
      <trkpt lat="44.58262" lon="6.87693">
        <ele>2797.3999023438</ele>
        <time>2020-02-18T12:04:50.000Z</time>
      </trkpt>
      <trkpt lat="44.58262" lon="6.87693">
        <ele>2797.3999023438</ele>
        <time>2020-02-18T12:04:57.000Z</time>
      </trkpt>
      <trkpt lat="44.58262" lon="6.87693">
        <ele>2797.3999023438</ele>
        <time>2020-02-18T12:05:00.000Z</time>
      </trkpt>
      <trkpt lat="44.58262" lon="6.87693">
        <ele>2797.3999023438</ele>
        <time>2020-02-18T12:05:01.000Z</time>
      </trkpt>
      <trkpt lat="44.58262" lon="6.87694">
        <ele>2797.3999023438</ele>
        <time>2020-02-18T12:05:03.000Z</time>
      </trkpt>
      <trkpt lat="44.58261" lon="6.87694">
        <ele>2797.3999023438</ele>
        <time>2020-02-18T12:05:05.000Z</time>
      </trkpt>
      <trkpt lat="44.58261" lon="6.87694">
        <ele>2797.3999023438</ele>
        <time>2020-02-18T12:05:06.000Z</time>
      </trkpt>
      <trkpt lat="44.58261" lon="6.87693">
        <ele>2797.3999023438</ele>
        <time>2020-02-18T12:05:13.000Z</time>
      </trkpt>
      <trkpt lat="44.58261" lon="6.87693">
        <ele>2797.3999023438</ele>
        <time>2020-02-18T12:05:15.000Z</time>
      </trkpt>
      <trkpt lat="44.5826" lon="6.87693">
        <ele>2797.3999023438</ele>
        <time>2020-02-18T12:05:19.000Z</time>
      </trkpt>
      <trkpt lat="44.5826" lon="6.87692">
        <ele>2797.3999023438</ele>
        <time>2020-02-18T12:05:21.000Z</time>
      </trkpt>
      <trkpt lat="44.5826" lon="6.87692">
        <ele>2797.3999023438</ele>
        <time>2020-02-18T12:05:23.000Z</time>
      </trkpt>
      <trkpt lat="44.58259" lon="6.87692">
        <ele>2797.3999023438</ele>
        <time>2020-02-18T12:05:26.000Z</time>
      </trkpt>
      <trkpt lat="44.58259" lon="6.87692">
        <ele>2797.3999023438</ele>
        <time>2020-02-18T12:05:32.000Z</time>
      </trkpt>
      <trkpt lat="44.5826" lon="6.87692">
        <ele>2797.3999023438</ele>
        <time>2020-02-18T12:05:37.000Z</time>
      </trkpt>
      <trkpt lat="44.5826" lon="6.87692">
        <ele>2797.3999023438</ele>
        <time>2020-02-18T12:05:48.000Z</time>
      </trkpt>
      <trkpt lat="44.58259" lon="6.87692">
        <ele>2797.3999023438</ele>
        <time>2020-02-18T12:05:53.000Z</time>
      </trkpt>
      <trkpt lat="44.58259" lon="6.87692">
        <ele>2797.3999023438</ele>
        <time>2020-02-18T12:05:57.000Z</time>
      </trkpt>
      <trkpt lat="44.5826" lon="6.87692">
        <ele>2797.3999023438</ele>
        <time>2020-02-18T12:06:00.000Z</time>
      </trkpt>
      <trkpt lat="44.58259" lon="6.87693">
        <ele>2797.3999023438</ele>
        <time>2020-02-18T12:06:04.000Z</time>
      </trkpt>
      <trkpt lat="44.58258" lon="6.87692">
        <ele>2797.3999023438</ele>
        <time>2020-02-18T12:06:06.000Z</time>
      </trkpt>
      <trkpt lat="44.58257" lon="6.87692">
        <ele>2797.3999023438</ele>
        <time>2020-02-18T12:06:08.000Z</time>
      </trkpt>
      <trkpt lat="44.58257" lon="6.87692">
        <ele>2797.3999023438</ele>
        <time>2020-02-18T12:06:14.000Z</time>
      </trkpt>
      <trkpt lat="44.58259" lon="6.87693">
        <ele>2797.3999023438</ele>
        <time>2020-02-18T12:06:23.000Z</time>
      </trkpt>
      <trkpt lat="44.5826" lon="6.87692">
        <ele>2797.3999023438</ele>
        <time>2020-02-18T12:06:29.000Z</time>
      </trkpt>
      <trkpt lat="44.58258" lon="6.87693">
        <ele>2797.3999023438</ele>
        <time>2020-02-18T12:06:32.000Z</time>
      </trkpt>
      <trkpt lat="44.58256" lon="6.87692">
        <ele>2797.3999023438</ele>
        <time>2020-02-18T12:06:34.000Z</time>
      </trkpt>
      <trkpt lat="44.58256" lon="6.87692">
        <ele>2796.3999023438</ele>
        <time>2020-02-18T12:06:35.000Z</time>
      </trkpt>
      <trkpt lat="44.58256" lon="6.87692">
        <ele>2797.8000488281</ele>
        <time>2020-02-18T12:06:36.000Z</time>
      </trkpt>
      <trkpt lat="44.58256" lon="6.87692">
        <ele>2797.6000976562</ele>
        <time>2020-02-18T12:06:38.000Z</time>
      </trkpt>
      <trkpt lat="44.58256" lon="6.87693">
        <ele>2797.6000976562</ele>
        <time>2020-02-18T12:06:47.000Z</time>
      </trkpt>
      <trkpt lat="44.58256" lon="6.87693">
        <ele>2797.8000488281</ele>
        <time>2020-02-18T12:06:57.000Z</time>
      </trkpt>
      <trkpt lat="44.58255" lon="6.87692">
        <ele>2796.3999023438</ele>
        <time>2020-02-18T12:07:00.000Z</time>
      </trkpt>
      <trkpt lat="44.58255" lon="6.87692">
        <ele>2797.8000488281</ele>
        <time>2020-02-18T12:07:01.000Z</time>
      </trkpt>
      <trkpt lat="44.58257" lon="6.87692">
        <ele>2797.8000488281</ele>
        <time>2020-02-18T12:07:04.000Z</time>
      </trkpt>
      <trkpt lat="44.58256" lon="6.87694">
        <ele>2798</ele>
        <time>2020-02-18T12:07:14.000Z</time>
      </trkpt>
      <trkpt lat="44.58256" lon="6.87694">
        <ele>2798</ele>
        <time>2020-02-18T12:07:18.000Z</time>
      </trkpt>
      <trkpt lat="44.58256" lon="6.87694">
        <ele>2797.8000488281</ele>
        <time>2020-02-18T12:07:23.000Z</time>
      </trkpt>
      <trkpt lat="44.58256" lon="6.87694">
        <ele>2797.8000488281</ele>
        <time>2020-02-18T12:07:25.000Z</time>
      </trkpt>
      <trkpt lat="44.58256" lon="6.87693">
        <ele>2797.8000488281</ele>
        <time>2020-02-18T12:07:28.000Z</time>
      </trkpt>
      <trkpt lat="44.58255" lon="6.87694">
        <ele>2798.8000488281</ele>
        <time>2020-02-18T12:07:33.000Z</time>
      </trkpt>
      <trkpt lat="44.58255" lon="6.87694">
        <ele>2799.1999511719</ele>
        <time>2020-02-18T12:07:36.000Z</time>
      </trkpt>
      <trkpt lat="44.58256" lon="6.87694">
        <ele>2799.3999023438</ele>
        <time>2020-02-18T12:07:45.000Z</time>
      </trkpt>
      <trkpt lat="44.58257" lon="6.87693">
        <ele>2799.3999023438</ele>
        <time>2020-02-18T12:07:50.000Z</time>
      </trkpt>
      <trkpt lat="44.58256" lon="6.87693">
        <ele>2799.3999023438</ele>
        <time>2020-02-18T12:08:03.000Z</time>
      </trkpt>
      <trkpt lat="44.58256" lon="6.87693">
        <ele>2799.3999023438</ele>
        <time>2020-02-18T12:08:07.000Z</time>
      </trkpt>
      <trkpt lat="44.58256" lon="6.87693">
        <ele>2799.3999023438</ele>
        <time>2020-02-18T12:08:08.000Z</time>
      </trkpt>
      <trkpt lat="44.58256" lon="6.87693">
        <ele>2799.1999511719</ele>
        <time>2020-02-18T12:08:12.000Z</time>
      </trkpt>
      <trkpt lat="44.58256" lon="6.87693">
        <ele>2799.1999511719</ele>
        <time>2020-02-18T12:08:14.000Z</time>
      </trkpt>
      <trkpt lat="44.58256" lon="6.87693">
        <ele>2799.1999511719</ele>
        <time>2020-02-18T12:08:16.000Z</time>
      </trkpt>
      <trkpt lat="44.58256" lon="6.87693">
        <ele>2799.3999023438</ele>
        <time>2020-02-18T12:08:18.000Z</time>
      </trkpt>
      <trkpt lat="44.58256" lon="6.87693">
        <ele>2799.3999023438</ele>
        <time>2020-02-18T12:08:19.000Z</time>
      </trkpt>
      <trkpt lat="44.58257" lon="6.87693">
        <ele>2799.6000976562</ele>
        <time>2020-02-18T12:08:26.000Z</time>
      </trkpt>
      <trkpt lat="44.58258" lon="6.87691">
        <ele>2800.6000976562</ele>
        <time>2020-02-18T12:08:29.000Z</time>
      </trkpt>
      <trkpt lat="44.5826" lon="6.87692">
        <ele>2801</ele>
        <time>2020-02-18T12:08:32.000Z</time>
      </trkpt>
      <trkpt lat="44.5826" lon="6.87691">
        <ele>2800.8000488281</ele>
        <time>2020-02-18T12:08:38.000Z</time>
      </trkpt>
      <trkpt lat="44.58257" lon="6.87691">
        <ele>2800.8000488281</ele>
        <time>2020-02-18T12:08:45.000Z</time>
      </trkpt>
      <trkpt lat="44.58256" lon="6.87693">
        <ele>2800.8000488281</ele>
        <time>2020-02-18T12:08:47.000Z</time>
      </trkpt>
      <trkpt lat="44.58256" lon="6.87693">
        <ele>2798.8000488281</ele>
        <time>2020-02-18T12:08:48.000Z</time>
      </trkpt>
      <trkpt lat="44.58256" lon="6.87694">
        <ele>2798.3999023438</ele>
        <time>2020-02-18T12:08:58.000Z</time>
      </trkpt>
      <trkpt lat="44.58256" lon="6.87692">
        <ele>2798.3999023438</ele>
        <time>2020-02-18T12:09:04.000Z</time>
      </trkpt>
      <trkpt lat="44.58256" lon="6.87691">
        <ele>2798.3999023438</ele>
        <time>2020-02-18T12:09:10.000Z</time>
      </trkpt>
      <trkpt lat="44.58255" lon="6.87689">
        <ele>2798.1999511719</ele>
        <time>2020-02-18T12:09:17.000Z</time>
      </trkpt>
      <trkpt lat="44.58254" lon="6.87689">
        <ele>2798.3999023438</ele>
        <time>2020-02-18T12:09:22.000Z</time>
      </trkpt>
      <trkpt lat="44.58255" lon="6.8769">
        <ele>2798.1999511719</ele>
        <time>2020-02-18T12:09:35.000Z</time>
      </trkpt>
      <trkpt lat="44.58255" lon="6.8769">
        <ele>2798.1999511719</ele>
        <time>2020-02-18T12:09:36.000Z</time>
      </trkpt>
      <trkpt lat="44.58255" lon="6.8769">
        <ele>2798.1999511719</ele>
        <time>2020-02-18T12:09:37.000Z</time>
      </trkpt>
      <trkpt lat="44.58255" lon="6.8769">
        <ele>2798.1999511719</ele>
        <time>2020-02-18T12:09:40.000Z</time>
      </trkpt>
      <trkpt lat="44.58255" lon="6.8769">
        <ele>2798.1999511719</ele>
        <time>2020-02-18T12:09:42.000Z</time>
      </trkpt>
      <trkpt lat="44.58255" lon="6.87691">
        <ele>2798.1999511719</ele>
        <time>2020-02-18T12:09:46.000Z</time>
      </trkpt>
      <trkpt lat="44.58255" lon="6.87692">
        <ele>2798.1999511719</ele>
        <time>2020-02-18T12:09:51.000Z</time>
      </trkpt>
      <trkpt lat="44.58256" lon="6.87692">
        <ele>2798</ele>
        <time>2020-02-18T12:09:53.000Z</time>
      </trkpt>
      <trkpt lat="44.58256" lon="6.87693">
        <ele>2798</ele>
        <time>2020-02-18T12:09:56.000Z</time>
      </trkpt>
      <trkpt lat="44.58256" lon="6.87692">
        <ele>2798</ele>
        <time>2020-02-18T12:10:03.000Z</time>
      </trkpt>
      <trkpt lat="44.58256" lon="6.87692">
        <ele>2798</ele>
        <time>2020-02-18T12:10:04.000Z</time>
      </trkpt>
      <trkpt lat="44.58256" lon="6.87692">
        <ele>2798</ele>
        <time>2020-02-18T12:10:05.000Z</time>
      </trkpt>
      <trkpt lat="44.58256" lon="6.87692">
        <ele>2798</ele>
        <time>2020-02-18T12:10:06.000Z</time>
      </trkpt>
      <trkpt lat="44.58256" lon="6.87692">
        <ele>2798</ele>
        <time>2020-02-18T12:10:09.000Z</time>
      </trkpt>
      <trkpt lat="44.58256" lon="6.87692">
        <ele>2798</ele>
        <time>2020-02-18T12:10:10.000Z</time>
      </trkpt>
      <trkpt lat="44.58256" lon="6.87692">
        <ele>2798</ele>
        <time>2020-02-18T12:10:12.000Z</time>
      </trkpt>
      <trkpt lat="44.58255" lon="6.87692">
        <ele>2798</ele>
        <time>2020-02-18T12:10:19.000Z</time>
      </trkpt>
      <trkpt lat="44.58255" lon="6.87692">
        <ele>2798</ele>
        <time>2020-02-18T12:10:20.000Z</time>
      </trkpt>
      <trkpt lat="44.58255" lon="6.87692">
        <ele>2798</ele>
        <time>2020-02-18T12:10:22.000Z</time>
      </trkpt>
      <trkpt lat="44.58254" lon="6.87692">
        <ele>2798</ele>
        <time>2020-02-18T12:10:25.000Z</time>
      </trkpt>
      <trkpt lat="44.58254" lon="6.87692">
        <ele>2798</ele>
        <time>2020-02-18T12:10:27.000Z</time>
      </trkpt>
      <trkpt lat="44.58254" lon="6.87692">
        <ele>2798</ele>
        <time>2020-02-18T12:10:30.000Z</time>
      </trkpt>
      <trkpt lat="44.58254" lon="6.87692">
        <ele>2798</ele>
        <time>2020-02-18T12:10:31.000Z</time>
      </trkpt>
      <trkpt lat="44.58254" lon="6.87692">
        <ele>2798</ele>
        <time>2020-02-18T12:10:32.000Z</time>
      </trkpt>
      <trkpt lat="44.58254" lon="6.87692">
        <ele>2798</ele>
        <time>2020-02-18T12:10:35.000Z</time>
      </trkpt>
      <trkpt lat="44.58255" lon="6.87692">
        <ele>2798</ele>
        <time>2020-02-18T12:10:49.000Z</time>
      </trkpt>
      <trkpt lat="44.58256" lon="6.87692">
        <ele>2798</ele>
        <time>2020-02-18T12:11:02.000Z</time>
      </trkpt>
      <trkpt lat="44.58256" lon="6.87693">
        <ele>2798</ele>
        <time>2020-02-18T12:11:09.000Z</time>
      </trkpt>
      <trkpt lat="44.58256" lon="6.87693">
        <ele>2798</ele>
        <time>2020-02-18T12:11:18.000Z</time>
      </trkpt>
      <trkpt lat="44.58256" lon="6.87693">
        <ele>2798</ele>
        <time>2020-02-18T12:11:19.000Z</time>
      </trkpt>
      <trkpt lat="44.58256" lon="6.87693">
        <ele>2798</ele>
        <time>2020-02-18T12:11:20.000Z</time>
      </trkpt>
      <trkpt lat="44.58255" lon="6.87693">
        <ele>2798</ele>
        <time>2020-02-18T12:11:27.000Z</time>
      </trkpt>
      <trkpt lat="44.58255" lon="6.87692">
        <ele>2798</ele>
        <time>2020-02-18T12:11:35.000Z</time>
      </trkpt>
      <trkpt lat="44.58255" lon="6.87692">
        <ele>2798</ele>
        <time>2020-02-18T12:11:38.000Z</time>
      </trkpt>
      <trkpt lat="44.58255" lon="6.87692">
        <ele>2798</ele>
        <time>2020-02-18T12:11:43.000Z</time>
      </trkpt>
      <trkpt lat="44.58255" lon="6.87692">
        <ele>2798</ele>
        <time>2020-02-18T12:11:51.000Z</time>
      </trkpt>
      <trkpt lat="44.58255" lon="6.87692">
        <ele>2798</ele>
        <time>2020-02-18T12:11:53.000Z</time>
      </trkpt>
      <trkpt lat="44.58255" lon="6.87693">
        <ele>2798</ele>
        <time>2020-02-18T12:11:59.000Z</time>
      </trkpt>
      <trkpt lat="44.58255" lon="6.87693">
        <ele>2798</ele>
        <time>2020-02-18T12:12:04.000Z</time>
      </trkpt>
      <trkpt lat="44.58255" lon="6.87693">
        <ele>2798</ele>
        <time>2020-02-18T12:12:10.000Z</time>
      </trkpt>
      <trkpt lat="44.58255" lon="6.87693">
        <ele>2798</ele>
        <time>2020-02-18T12:12:14.000Z</time>
      </trkpt>
      <trkpt lat="44.58255" lon="6.87693">
        <ele>2798</ele>
        <time>2020-02-18T12:12:28.000Z</time>
      </trkpt>
      <trkpt lat="44.58255" lon="6.87693">
        <ele>2798</ele>
        <time>2020-02-18T12:12:29.000Z</time>
      </trkpt>
      <trkpt lat="44.58255" lon="6.87693">
        <ele>2798</ele>
        <time>2020-02-18T12:12:38.000Z</time>
      </trkpt>
      <trkpt lat="44.58255" lon="6.87693">
        <ele>2798</ele>
        <time>2020-02-18T12:12:43.000Z</time>
      </trkpt>
      <trkpt lat="44.58255" lon="6.87693">
        <ele>2798</ele>
        <time>2020-02-18T12:12:46.000Z</time>
      </trkpt>
      <trkpt lat="44.58256" lon="6.87692">
        <ele>2798</ele>
        <time>2020-02-18T12:12:58.000Z</time>
      </trkpt>
      <trkpt lat="44.58256" lon="6.87692">
        <ele>2798</ele>
        <time>2020-02-18T12:13:05.000Z</time>
      </trkpt>
      <trkpt lat="44.58257" lon="6.87692">
        <ele>2798</ele>
        <time>2020-02-18T12:13:13.000Z</time>
      </trkpt>
      <trkpt lat="44.58257" lon="6.87692">
        <ele>2798</ele>
        <time>2020-02-18T12:13:14.000Z</time>
      </trkpt>
      <trkpt lat="44.58256" lon="6.87692">
        <ele>2798</ele>
        <time>2020-02-18T12:13:29.000Z</time>
      </trkpt>
      <trkpt lat="44.58257" lon="6.87689">
        <ele>2798</ele>
        <time>2020-02-18T12:13:39.000Z</time>
      </trkpt>
      <trkpt lat="44.58259" lon="6.87689">
        <ele>2798</ele>
        <time>2020-02-18T12:13:42.000Z</time>
      </trkpt>
      <trkpt lat="44.58262" lon="6.8769">
        <ele>2797.6000976562</ele>
        <time>2020-02-18T12:13:48.000Z</time>
      </trkpt>
      <trkpt lat="44.58259" lon="6.87691">
        <ele>2797.3999023438</ele>
        <time>2020-02-18T12:13:58.000Z</time>
      </trkpt>
      <trkpt lat="44.58259" lon="6.87691">
        <ele>2797.6000976562</ele>
        <time>2020-02-18T12:13:59.000Z</time>
      </trkpt>
      <trkpt lat="44.58259" lon="6.87691">
        <ele>2797.3999023438</ele>
        <time>2020-02-18T12:14:01.000Z</time>
      </trkpt>
      <trkpt lat="44.58259" lon="6.87691">
        <ele>2797.3999023438</ele>
        <time>2020-02-18T12:14:02.000Z</time>
      </trkpt>
      <trkpt lat="44.58259" lon="6.87691">
        <ele>2797.3999023438</ele>
        <time>2020-02-18T12:14:04.000Z</time>
      </trkpt>
      <trkpt lat="44.58259" lon="6.87691">
        <ele>2798</ele>
        <time>2020-02-18T12:14:08.000Z</time>
      </trkpt>
      <trkpt lat="44.5826" lon="6.8769">
        <ele>2797.8000488281</ele>
        <time>2020-02-18T12:14:12.000Z</time>
      </trkpt>
      <trkpt lat="44.5826" lon="6.8769">
        <ele>2797.6000976562</ele>
        <time>2020-02-18T12:14:19.000Z</time>
      </trkpt>
      <trkpt lat="44.5826" lon="6.87691">
        <ele>2797.6000976562</ele>
        <time>2020-02-18T12:14:23.000Z</time>
      </trkpt>
      <trkpt lat="44.58262" lon="6.8769">
        <ele>2797.6000976562</ele>
        <time>2020-02-18T12:14:37.000Z</time>
      </trkpt>
      <trkpt lat="44.58262" lon="6.87691">
        <ele>2797.6000976562</ele>
        <time>2020-02-18T12:14:48.000Z</time>
      </trkpt>
      <trkpt lat="44.58262" lon="6.87691">
        <ele>2797.8000488281</ele>
        <time>2020-02-18T12:14:50.000Z</time>
      </trkpt>
      <trkpt lat="44.5826" lon="6.87693">
        <ele>2797.3999023438</ele>
        <time>2020-02-18T12:15:24.000Z</time>
      </trkpt>
      <trkpt lat="44.58259" lon="6.87693">
        <ele>2797.3999023438</ele>
        <time>2020-02-18T12:15:33.000Z</time>
      </trkpt>
      <trkpt lat="44.58259" lon="6.87693">
        <ele>2797</ele>
        <time>2020-02-18T12:15:46.000Z</time>
      </trkpt>
      <trkpt lat="44.58261" lon="6.87692">
        <ele>2797.6000976562</ele>
        <time>2020-02-18T12:16:09.000Z</time>
      </trkpt>
      <trkpt lat="44.58262" lon="6.87691">
        <ele>2797.6000976562</ele>
        <time>2020-02-18T12:16:24.000Z</time>
      </trkpt>
      <trkpt lat="44.58262" lon="6.87692">
        <ele>2797.6000976562</ele>
        <time>2020-02-18T12:16:26.000Z</time>
      </trkpt>
      <trkpt lat="44.58262" lon="6.87692">
        <ele>2797.3999023438</ele>
        <time>2020-02-18T12:16:35.000Z</time>
      </trkpt>
      <trkpt lat="44.58261" lon="6.87692">
        <ele>2797.3999023438</ele>
        <time>2020-02-18T12:16:38.000Z</time>
      </trkpt>
      <trkpt lat="44.58261" lon="6.87693">
        <ele>2797.3999023438</ele>
        <time>2020-02-18T12:16:40.000Z</time>
      </trkpt>
      <trkpt lat="44.58261" lon="6.87692">
        <ele>2797.1999511719</ele>
        <time>2020-02-18T12:16:53.000Z</time>
      </trkpt>
      <trkpt lat="44.5826" lon="6.87691">
        <ele>2797.1999511719</ele>
        <time>2020-02-18T12:17:07.000Z</time>
      </trkpt>
      <trkpt lat="44.5826" lon="6.87691">
        <ele>2797.1999511719</ele>
        <time>2020-02-18T12:17:11.000Z</time>
      </trkpt>
      <trkpt lat="44.5826" lon="6.87691">
        <ele>2797.1999511719</ele>
        <time>2020-02-18T12:17:19.000Z</time>
      </trkpt>
      <trkpt lat="44.5826" lon="6.87691">
        <ele>2797.1999511719</ele>
        <time>2020-02-18T12:17:21.000Z</time>
      </trkpt>
      <trkpt lat="44.5826" lon="6.87691">
        <ele>2797.1999511719</ele>
        <time>2020-02-18T12:17:22.000Z</time>
      </trkpt>
      <trkpt lat="44.5826" lon="6.87691">
        <ele>2797.1999511719</ele>
        <time>2020-02-18T12:17:27.000Z</time>
      </trkpt>
      <trkpt lat="44.5826" lon="6.87692">
        <ele>2797.1999511719</ele>
        <time>2020-02-18T12:17:31.000Z</time>
      </trkpt>
      <trkpt lat="44.5826" lon="6.87692">
        <ele>2797.1999511719</ele>
        <time>2020-02-18T12:17:32.000Z</time>
      </trkpt>
      <trkpt lat="44.5826" lon="6.87693">
        <ele>2797.1999511719</ele>
        <time>2020-02-18T12:17:37.000Z</time>
      </trkpt>
      <trkpt lat="44.58259" lon="6.87693">
        <ele>2797.1999511719</ele>
        <time>2020-02-18T12:17:39.000Z</time>
      </trkpt>
      <trkpt lat="44.58261" lon="6.87689">
        <ele>2797.1999511719</ele>
        <time>2020-02-18T12:17:52.000Z</time>
      </trkpt>
      <trkpt lat="44.58261" lon="6.8769">
        <ele>2797.1999511719</ele>
        <time>2020-02-18T12:18:00.000Z</time>
      </trkpt>
      <trkpt lat="44.58261" lon="6.87692">
        <ele>2797.1999511719</ele>
        <time>2020-02-18T12:18:24.000Z</time>
      </trkpt>
      <trkpt lat="44.58261" lon="6.87691">
        <ele>2797.1999511719</ele>
        <time>2020-02-18T12:18:28.000Z</time>
      </trkpt>
      <trkpt lat="44.58261" lon="6.87691">
        <ele>2797.1999511719</ele>
        <time>2020-02-18T12:18:31.000Z</time>
      </trkpt>
      <trkpt lat="44.5826" lon="6.87691">
        <ele>2797.1999511719</ele>
        <time>2020-02-18T12:18:36.000Z</time>
      </trkpt>
      <trkpt lat="44.58262" lon="6.87691">
        <ele>2797.1999511719</ele>
        <time>2020-02-18T12:18:44.000Z</time>
      </trkpt>
      <trkpt lat="44.58262" lon="6.87691">
        <ele>2797.1999511719</ele>
        <time>2020-02-18T12:18:47.000Z</time>
      </trkpt>
      <trkpt lat="44.58263" lon="6.87691">
        <ele>2797.1999511719</ele>
        <time>2020-02-18T12:18:52.000Z</time>
      </trkpt>
      <trkpt lat="44.58262" lon="6.8769">
        <ele>2797.1999511719</ele>
        <time>2020-02-18T12:19:18.000Z</time>
      </trkpt>
      <trkpt lat="44.58262" lon="6.8769">
        <ele>2797.1999511719</ele>
        <time>2020-02-18T12:19:23.000Z</time>
      </trkpt>
      <trkpt lat="44.58262" lon="6.8769">
        <ele>2797.1999511719</ele>
        <time>2020-02-18T12:19:24.000Z</time>
      </trkpt>
      <trkpt lat="44.58262" lon="6.8769">
        <ele>2797.1999511719</ele>
        <time>2020-02-18T12:19:27.000Z</time>
      </trkpt>
      <trkpt lat="44.58262" lon="6.87689">
        <ele>2797.1999511719</ele>
        <time>2020-02-18T12:19:28.000Z</time>
      </trkpt>
      <trkpt lat="44.58262" lon="6.87689">
        <ele>2797.1999511719</ele>
        <time>2020-02-18T12:19:30.000Z</time>
      </trkpt>
      <trkpt lat="44.58262" lon="6.8769">
        <ele>2797.1999511719</ele>
        <time>2020-02-18T12:19:34.000Z</time>
      </trkpt>
      <trkpt lat="44.58262" lon="6.8769">
        <ele>2797.1999511719</ele>
        <time>2020-02-18T12:19:36.000Z</time>
      </trkpt>
      <trkpt lat="44.58262" lon="6.8769">
        <ele>2797.1999511719</ele>
        <time>2020-02-18T12:19:45.000Z</time>
      </trkpt>
      <trkpt lat="44.58262" lon="6.87691">
        <ele>2797.1999511719</ele>
        <time>2020-02-18T12:19:53.000Z</time>
      </trkpt>
      <trkpt lat="44.58261" lon="6.87691">
        <ele>2797.1999511719</ele>
        <time>2020-02-18T12:19:55.000Z</time>
      </trkpt>
      <trkpt lat="44.58259" lon="6.87691">
        <ele>2797.1999511719</ele>
        <time>2020-02-18T12:19:58.000Z</time>
      </trkpt>
      <trkpt lat="44.58258" lon="6.87691">
        <ele>2797.1999511719</ele>
        <time>2020-02-18T12:20:05.000Z</time>
      </trkpt>
      <trkpt lat="44.58258" lon="6.87691">
        <ele>2797.1999511719</ele>
        <time>2020-02-18T12:20:06.000Z</time>
      </trkpt>
      <trkpt lat="44.58257" lon="6.87691">
        <ele>2797.1999511719</ele>
        <time>2020-02-18T12:20:09.000Z</time>
      </trkpt>
      <trkpt lat="44.58257" lon="6.87692">
        <ele>2797.1999511719</ele>
        <time>2020-02-18T12:20:17.000Z</time>
      </trkpt>
      <trkpt lat="44.58256" lon="6.87692">
        <ele>2797.1999511719</ele>
        <time>2020-02-18T12:20:21.000Z</time>
      </trkpt>
      <trkpt lat="44.58256" lon="6.87692">
        <ele>2797.1999511719</ele>
        <time>2020-02-18T12:20:25.000Z</time>
      </trkpt>
      <trkpt lat="44.58257" lon="6.87692">
        <ele>2797.1999511719</ele>
        <time>2020-02-18T12:20:50.000Z</time>
      </trkpt>
      <trkpt lat="44.58258" lon="6.87693">
        <ele>2797.1999511719</ele>
        <time>2020-02-18T12:20:58.000Z</time>
      </trkpt>
      <trkpt lat="44.58259" lon="6.87693">
        <ele>2797.1999511719</ele>
        <time>2020-02-18T12:21:02.000Z</time>
      </trkpt>
      <trkpt lat="44.58259" lon="6.87693">
        <ele>2797.1999511719</ele>
        <time>2020-02-18T12:21:07.000Z</time>
      </trkpt>
      <trkpt lat="44.58259" lon="6.87693">
        <ele>2797.1999511719</ele>
        <time>2020-02-18T12:21:16.000Z</time>
      </trkpt>
      <trkpt lat="44.58257" lon="6.87693">
        <ele>2797.1999511719</ele>
        <time>2020-02-18T12:21:27.000Z</time>
      </trkpt>
      <trkpt lat="44.58258" lon="6.87693">
        <ele>2797.1999511719</ele>
        <time>2020-02-18T12:21:30.000Z</time>
      </trkpt>
      <trkpt lat="44.58258" lon="6.87693">
        <ele>2797.1999511719</ele>
        <time>2020-02-18T12:21:33.000Z</time>
      </trkpt>
      <trkpt lat="44.58258" lon="6.87693">
        <ele>2797.1999511719</ele>
        <time>2020-02-18T12:21:36.000Z</time>
      </trkpt>
      <trkpt lat="44.58257" lon="6.87692">
        <ele>2797.1999511719</ele>
        <time>2020-02-18T12:21:43.000Z</time>
      </trkpt>
      <trkpt lat="44.58257" lon="6.87692">
        <ele>2797.1999511719</ele>
        <time>2020-02-18T12:21:45.000Z</time>
      </trkpt>
      <trkpt lat="44.58257" lon="6.87692">
        <ele>2797.1999511719</ele>
        <time>2020-02-18T12:21:50.000Z</time>
      </trkpt>
      <trkpt lat="44.58257" lon="6.87692">
        <ele>2797.1999511719</ele>
        <time>2020-02-18T12:21:52.000Z</time>
      </trkpt>
      <trkpt lat="44.58257" lon="6.87692">
        <ele>2797.1999511719</ele>
        <time>2020-02-18T12:21:53.000Z</time>
      </trkpt>
      <trkpt lat="44.58257" lon="6.87692">
        <ele>2797.1999511719</ele>
        <time>2020-02-18T12:21:54.000Z</time>
      </trkpt>
      <trkpt lat="44.58257" lon="6.87692">
        <ele>2797.1999511719</ele>
        <time>2020-02-18T12:21:55.000Z</time>
      </trkpt>
      <trkpt lat="44.58257" lon="6.87692">
        <ele>2797.1999511719</ele>
        <time>2020-02-18T12:21:57.000Z</time>
      </trkpt>
      <trkpt lat="44.58257" lon="6.87692">
        <ele>2797.1999511719</ele>
        <time>2020-02-18T12:22:00.000Z</time>
      </trkpt>
      <trkpt lat="44.58257" lon="6.87692">
        <ele>2797.1999511719</ele>
        <time>2020-02-18T12:22:02.000Z</time>
      </trkpt>
      <trkpt lat="44.58257" lon="6.87692">
        <ele>2797.1999511719</ele>
        <time>2020-02-18T12:22:08.000Z</time>
      </trkpt>
      <trkpt lat="44.58257" lon="6.87692">
        <ele>2797.1999511719</ele>
        <time>2020-02-18T12:22:09.000Z</time>
      </trkpt>
      <trkpt lat="44.58257" lon="6.87692">
        <ele>2797.1999511719</ele>
        <time>2020-02-18T12:22:10.000Z</time>
      </trkpt>
      <trkpt lat="44.58257" lon="6.87692">
        <ele>2797.1999511719</ele>
        <time>2020-02-18T12:22:11.000Z</time>
      </trkpt>
      <trkpt lat="44.58257" lon="6.87692">
        <ele>2797.1999511719</ele>
        <time>2020-02-18T12:22:13.000Z</time>
      </trkpt>
      <trkpt lat="44.58257" lon="6.87692">
        <ele>2797.1999511719</ele>
        <time>2020-02-18T12:22:16.000Z</time>
      </trkpt>
      <trkpt lat="44.58257" lon="6.87692">
        <ele>2797.1999511719</ele>
        <time>2020-02-18T12:22:17.000Z</time>
      </trkpt>
      <trkpt lat="44.58257" lon="6.87692">
        <ele>2797.1999511719</ele>
        <time>2020-02-18T12:22:18.000Z</time>
      </trkpt>
      <trkpt lat="44.58257" lon="6.87692">
        <ele>2797.1999511719</ele>
        <time>2020-02-18T12:22:19.000Z</time>
      </trkpt>
      <trkpt lat="44.58257" lon="6.87692">
        <ele>2797.1999511719</ele>
        <time>2020-02-18T12:22:20.000Z</time>
      </trkpt>
      <trkpt lat="44.58257" lon="6.87692">
        <ele>2797.1999511719</ele>
        <time>2020-02-18T12:22:21.000Z</time>
      </trkpt>
      <trkpt lat="44.58257" lon="6.87692">
        <ele>2797.1999511719</ele>
        <time>2020-02-18T12:22:23.000Z</time>
      </trkpt>
      <trkpt lat="44.58257" lon="6.87692">
        <ele>2797.1999511719</ele>
        <time>2020-02-18T12:22:24.000Z</time>
      </trkpt>
      <trkpt lat="44.58257" lon="6.87692">
        <ele>2797.1999511719</ele>
        <time>2020-02-18T12:22:25.000Z</time>
      </trkpt>
      <trkpt lat="44.58258" lon="6.87692">
        <ele>2797.1999511719</ele>
        <time>2020-02-18T12:22:30.000Z</time>
      </trkpt>
      <trkpt lat="44.58257" lon="6.87692">
        <ele>2797.1999511719</ele>
        <time>2020-02-18T12:22:31.000Z</time>
      </trkpt>
      <trkpt lat="44.58257" lon="6.87692">
        <ele>2797.1999511719</ele>
        <time>2020-02-18T12:22:32.000Z</time>
      </trkpt>
      <trkpt lat="44.58257" lon="6.87692">
        <ele>2797.1999511719</ele>
        <time>2020-02-18T12:22:33.000Z</time>
      </trkpt>
      <trkpt lat="44.58257" lon="6.87692">
        <ele>2797.1999511719</ele>
        <time>2020-02-18T12:22:34.000Z</time>
      </trkpt>
      <trkpt lat="44.58257" lon="6.87692">
        <ele>2797.1999511719</ele>
        <time>2020-02-18T12:22:35.000Z</time>
      </trkpt>
      <trkpt lat="44.58259" lon="6.87691">
        <ele>2797.1999511719</ele>
        <time>2020-02-18T12:22:42.000Z</time>
      </trkpt>
      <trkpt lat="44.58259" lon="6.87691">
        <ele>2797.1999511719</ele>
        <time>2020-02-18T12:22:43.000Z</time>
      </trkpt>
      <trkpt lat="44.58259" lon="6.87691">
        <ele>2797.1999511719</ele>
        <time>2020-02-18T12:22:44.000Z</time>
      </trkpt>
      <trkpt lat="44.58259" lon="6.87691">
        <ele>2797.1999511719</ele>
        <time>2020-02-18T12:22:45.000Z</time>
      </trkpt>
      <trkpt lat="44.58259" lon="6.87691">
        <ele>2797.1999511719</ele>
        <time>2020-02-18T12:22:47.000Z</time>
      </trkpt>
      <trkpt lat="44.58259" lon="6.87691">
        <ele>2797.1999511719</ele>
        <time>2020-02-18T12:22:49.000Z</time>
      </trkpt>
      <trkpt lat="44.58259" lon="6.87691">
        <ele>2797.1999511719</ele>
        <time>2020-02-18T12:22:51.000Z</time>
      </trkpt>
      <trkpt lat="44.58258" lon="6.87691">
        <ele>2797.1999511719</ele>
        <time>2020-02-18T12:22:52.000Z</time>
      </trkpt>
      <trkpt lat="44.58257" lon="6.87692">
        <ele>2797.1999511719</ele>
        <time>2020-02-18T12:22:54.000Z</time>
      </trkpt>
      <trkpt lat="44.58257" lon="6.87692">
        <ele>2797.1999511719</ele>
        <time>2020-02-18T12:22:57.000Z</time>
      </trkpt>
      <trkpt lat="44.58257" lon="6.87692">
        <ele>2797.1999511719</ele>
        <time>2020-02-18T12:22:59.000Z</time>
      </trkpt>
      <trkpt lat="44.58257" lon="6.8769">
        <ele>2797.1999511719</ele>
        <time>2020-02-18T12:23:01.000Z</time>
      </trkpt>
      <trkpt lat="44.58256" lon="6.87688">
        <ele>2797.1999511719</ele>
        <time>2020-02-18T12:23:06.000Z</time>
      </trkpt>
      <trkpt lat="44.58255" lon="6.87688">
        <ele>2797.1999511719</ele>
        <time>2020-02-18T12:23:08.000Z</time>
      </trkpt>
      <trkpt lat="44.58255" lon="6.87688">
        <ele>2797.1999511719</ele>
        <time>2020-02-18T12:23:09.000Z</time>
      </trkpt>
      <trkpt lat="44.58255" lon="6.87688">
        <ele>2797.1999511719</ele>
        <time>2020-02-18T12:23:10.000Z</time>
      </trkpt>
      <trkpt lat="44.58254" lon="6.87687">
        <ele>2797.1999511719</ele>
        <time>2020-02-18T12:23:12.000Z</time>
      </trkpt>
      <trkpt lat="44.58254" lon="6.87687">
        <ele>2797.1999511719</ele>
        <time>2020-02-18T12:23:14.000Z</time>
      </trkpt>
      <trkpt lat="44.58253" lon="6.87687">
        <ele>2797.1999511719</ele>
        <time>2020-02-18T12:23:34.000Z</time>
      </trkpt>
      <trkpt lat="44.58254" lon="6.87687">
        <ele>2797.1999511719</ele>
        <time>2020-02-18T12:23:39.000Z</time>
      </trkpt>
      <trkpt lat="44.58254" lon="6.87687">
        <ele>2797.1999511719</ele>
        <time>2020-02-18T12:23:41.000Z</time>
      </trkpt>
      <trkpt lat="44.58254" lon="6.87687">
        <ele>2797.1999511719</ele>
        <time>2020-02-18T12:23:46.000Z</time>
      </trkpt>
      <trkpt lat="44.58255" lon="6.87688">
        <ele>2797.1999511719</ele>
        <time>2020-02-18T12:23:56.000Z</time>
      </trkpt>
      <trkpt lat="44.58256" lon="6.87688">
        <ele>2797.1999511719</ele>
        <time>2020-02-18T12:24:07.000Z</time>
      </trkpt>
      <trkpt lat="44.58256" lon="6.87688">
        <ele>2797.1999511719</ele>
        <time>2020-02-18T12:24:09.000Z</time>
      </trkpt>
      <trkpt lat="44.58257" lon="6.87687">
        <ele>2797.1999511719</ele>
        <time>2020-02-18T12:24:20.000Z</time>
      </trkpt>
      <trkpt lat="44.58258" lon="6.87689">
        <ele>2797.1999511719</ele>
        <time>2020-02-18T12:24:21.000Z</time>
      </trkpt>
      <trkpt lat="44.58258" lon="6.87689">
        <ele>2797.1999511719</ele>
        <time>2020-02-18T12:24:22.000Z</time>
      </trkpt>
      <trkpt lat="44.58258" lon="6.87689">
        <ele>2798.1999511719</ele>
        <time>2020-02-18T12:24:25.000Z</time>
      </trkpt>
      <trkpt lat="44.58258" lon="6.87689">
        <ele>2798.1999511719</ele>
        <time>2020-02-18T12:24:28.000Z</time>
      </trkpt>
      <trkpt lat="44.58257" lon="6.87695">
        <ele>2798</ele>
        <time>2020-02-18T12:25:01.000Z</time>
      </trkpt>
      <trkpt lat="44.58257" lon="6.87694">
        <ele>2798.8000488281</ele>
        <time>2020-02-18T12:25:03.000Z</time>
      </trkpt>
      <trkpt lat="44.58256" lon="6.87694">
        <ele>2799</ele>
        <time>2020-02-18T12:25:04.000Z</time>
      </trkpt>
      <trkpt lat="44.58257" lon="6.87693">
        <ele>2799.6000976562</ele>
        <time>2020-02-18T12:25:09.000Z</time>
      </trkpt>
      <trkpt lat="44.58257" lon="6.87694">
        <ele>2799.3999023438</ele>
        <time>2020-02-18T12:25:15.000Z</time>
      </trkpt>
      <trkpt lat="44.58257" lon="6.87694">
        <ele>2799.3999023438</ele>
        <time>2020-02-18T12:25:16.000Z</time>
      </trkpt>
      <trkpt lat="44.58257" lon="6.87693">
        <ele>2799.3999023438</ele>
        <time>2020-02-18T12:25:21.000Z</time>
      </trkpt>
      <trkpt lat="44.58258" lon="6.87696">
        <ele>2799.3999023438</ele>
        <time>2020-02-18T12:25:28.000Z</time>
      </trkpt>
      <trkpt lat="44.58258" lon="6.87696">
        <ele>2799.3999023438</ele>
        <time>2020-02-18T12:25:31.000Z</time>
      </trkpt>
      <trkpt lat="44.58255" lon="6.87696">
        <ele>2799.3999023438</ele>
        <time>2020-02-18T12:25:38.000Z</time>
      </trkpt>
      <trkpt lat="44.58254" lon="6.87696">
        <ele>2799.6000976562</ele>
        <time>2020-02-18T12:25:41.000Z</time>
      </trkpt>
      <trkpt lat="44.58254" lon="6.87695">
        <ele>2799.6000976562</ele>
        <time>2020-02-18T12:25:46.000Z</time>
      </trkpt>
      <trkpt lat="44.58255" lon="6.87696">
        <ele>2799.3999023438</ele>
        <time>2020-02-18T12:25:50.000Z</time>
      </trkpt>
      <trkpt lat="44.58256" lon="6.87695">
        <ele>2799.1999511719</ele>
        <time>2020-02-18T12:25:54.000Z</time>
      </trkpt>
      <trkpt lat="44.58257" lon="6.87695">
        <ele>2799.1999511719</ele>
        <time>2020-02-18T12:25:55.000Z</time>
      </trkpt>
      <trkpt lat="44.58258" lon="6.87693">
        <ele>2799.3999023438</ele>
        <time>2020-02-18T12:26:01.000Z</time>
      </trkpt>
      <trkpt lat="44.58258" lon="6.87693">
        <ele>2799.3999023438</ele>
        <time>2020-02-18T12:26:02.000Z</time>
      </trkpt>
      <trkpt lat="44.58259" lon="6.87692">
        <ele>2799.3999023438</ele>
        <time>2020-02-18T12:26:05.000Z</time>
      </trkpt>
      <trkpt lat="44.58257" lon="6.87692">
        <ele>2799</ele>
        <time>2020-02-18T12:26:09.000Z</time>
      </trkpt>
      <trkpt lat="44.58257" lon="6.87692">
        <ele>2799</ele>
        <time>2020-02-18T12:26:11.000Z</time>
      </trkpt>
      <trkpt lat="44.58257" lon="6.87692">
        <ele>2799</ele>
        <time>2020-02-18T12:26:13.000Z</time>
      </trkpt>
      <trkpt lat="44.58258" lon="6.87692">
        <ele>2799</ele>
        <time>2020-02-18T12:26:15.000Z</time>
      </trkpt>
      <trkpt lat="44.58257" lon="6.87692">
        <ele>2799</ele>
        <time>2020-02-18T12:26:20.000Z</time>
      </trkpt>
      <trkpt lat="44.58257" lon="6.87691">
        <ele>2799</ele>
        <time>2020-02-18T12:26:24.000Z</time>
      </trkpt>
      <trkpt lat="44.58257" lon="6.87692">
        <ele>2799</ele>
        <time>2020-02-18T12:26:28.000Z</time>
      </trkpt>
      <trkpt lat="44.58256" lon="6.87693">
        <ele>2799</ele>
        <time>2020-02-18T12:26:30.000Z</time>
      </trkpt>
      <trkpt lat="44.58256" lon="6.87694">
        <ele>2799</ele>
        <time>2020-02-18T12:26:33.000Z</time>
      </trkpt>
      <trkpt lat="44.58256" lon="6.87693">
        <ele>2799</ele>
        <time>2020-02-18T12:26:36.000Z</time>
      </trkpt>
      <trkpt lat="44.58257" lon="6.87693">
        <ele>2799</ele>
        <time>2020-02-18T12:26:39.000Z</time>
      </trkpt>
      <trkpt lat="44.58257" lon="6.87693">
        <ele>2799</ele>
        <time>2020-02-18T12:26:40.000Z</time>
      </trkpt>
      <trkpt lat="44.58257" lon="6.87692">
        <ele>2799</ele>
        <time>2020-02-18T12:26:41.000Z</time>
      </trkpt>
      <trkpt lat="44.58256" lon="6.87689">
        <ele>2799</ele>
        <time>2020-02-18T12:26:45.000Z</time>
      </trkpt>
      <trkpt lat="44.58256" lon="6.87688">
        <ele>2799</ele>
        <time>2020-02-18T12:26:49.000Z</time>
      </trkpt>
      <trkpt lat="44.58256" lon="6.87687">
        <ele>2799</ele>
        <time>2020-02-18T12:27:13.000Z</time>
      </trkpt>
      <trkpt lat="44.58255" lon="6.87686">
        <ele>2799</ele>
        <time>2020-02-18T12:27:15.000Z</time>
      </trkpt>
      <trkpt lat="44.58253" lon="6.87685">
        <ele>2799</ele>
        <time>2020-02-18T12:27:22.000Z</time>
      </trkpt>
      <trkpt lat="44.58254" lon="6.87686">
        <ele>2799</ele>
        <time>2020-02-18T12:27:24.000Z</time>
      </trkpt>
      <trkpt lat="44.58252" lon="6.87685">
        <ele>2799</ele>
        <time>2020-02-18T12:27:33.000Z</time>
      </trkpt>
      <trkpt lat="44.58252" lon="6.87684">
        <ele>2799</ele>
        <time>2020-02-18T12:27:35.000Z</time>
      </trkpt>
      <trkpt lat="44.58253" lon="6.87685">
        <ele>2799</ele>
        <time>2020-02-18T12:27:38.000Z</time>
      </trkpt>
      <trkpt lat="44.58254" lon="6.87686">
        <ele>2799</ele>
        <time>2020-02-18T12:27:49.000Z</time>
      </trkpt>
      <trkpt lat="44.58254" lon="6.87686">
        <ele>2799</ele>
        <time>2020-02-18T12:27:50.000Z</time>
      </trkpt>
      <trkpt lat="44.58254" lon="6.87686">
        <ele>2799</ele>
        <time>2020-02-18T12:27:51.000Z</time>
      </trkpt>
      <trkpt lat="44.58254" lon="6.87686">
        <ele>2799</ele>
        <time>2020-02-18T12:27:52.000Z</time>
      </trkpt>
      <trkpt lat="44.58253" lon="6.87686">
        <ele>2799</ele>
        <time>2020-02-18T12:27:54.000Z</time>
      </trkpt>
      <trkpt lat="44.58253" lon="6.87686">
        <ele>2799</ele>
        <time>2020-02-18T12:27:55.000Z</time>
      </trkpt>
      <trkpt lat="44.58253" lon="6.87687">
        <ele>2799</ele>
        <time>2020-02-18T12:27:57.000Z</time>
      </trkpt>
      <trkpt lat="44.58255" lon="6.87688">
        <ele>2799</ele>
        <time>2020-02-18T12:28:00.000Z</time>
      </trkpt>
      <trkpt lat="44.58256" lon="6.87689">
        <ele>2799</ele>
        <time>2020-02-18T12:28:06.000Z</time>
      </trkpt>
      <trkpt lat="44.58254" lon="6.87688">
        <ele>2799</ele>
        <time>2020-02-18T12:28:11.000Z</time>
      </trkpt>
      <trkpt lat="44.58254" lon="6.87688">
        <ele>2799</ele>
        <time>2020-02-18T12:28:18.000Z</time>
      </trkpt>
      <trkpt lat="44.58253" lon="6.87688">
        <ele>2799</ele>
        <time>2020-02-18T12:28:20.000Z</time>
      </trkpt>
      <trkpt lat="44.58254" lon="6.87687">
        <ele>2799</ele>
        <time>2020-02-18T12:28:25.000Z</time>
      </trkpt>
      <trkpt lat="44.58254" lon="6.87687">
        <ele>2799</ele>
        <time>2020-02-18T12:28:26.000Z</time>
      </trkpt>
      <trkpt lat="44.58254" lon="6.87687">
        <ele>2799</ele>
        <time>2020-02-18T12:28:27.000Z</time>
      </trkpt>
      <trkpt lat="44.58254" lon="6.87687">
        <ele>2799</ele>
        <time>2020-02-18T12:28:28.000Z</time>
      </trkpt>
      <trkpt lat="44.58254" lon="6.87687">
        <ele>2799</ele>
        <time>2020-02-18T12:28:29.000Z</time>
      </trkpt>
      <trkpt lat="44.58254" lon="6.87687">
        <ele>2799</ele>
        <time>2020-02-18T12:28:30.000Z</time>
      </trkpt>
      <trkpt lat="44.58254" lon="6.87686">
        <ele>2799</ele>
        <time>2020-02-18T12:28:32.000Z</time>
      </trkpt>
      <trkpt lat="44.58254" lon="6.87686">
        <ele>2799</ele>
        <time>2020-02-18T12:28:34.000Z</time>
      </trkpt>
      <trkpt lat="44.58254" lon="6.87686">
        <ele>2799</ele>
        <time>2020-02-18T12:28:35.000Z</time>
      </trkpt>
      <trkpt lat="44.58254" lon="6.87686">
        <ele>2799</ele>
        <time>2020-02-18T12:28:36.000Z</time>
      </trkpt>
      <trkpt lat="44.58254" lon="6.87686">
        <ele>2799</ele>
        <time>2020-02-18T12:28:38.000Z</time>
      </trkpt>
      <trkpt lat="44.58253" lon="6.87687">
        <ele>2799</ele>
        <time>2020-02-18T12:28:46.000Z</time>
      </trkpt>
      <trkpt lat="44.58254" lon="6.87687">
        <ele>2799</ele>
        <time>2020-02-18T12:28:48.000Z</time>
      </trkpt>
      <trkpt lat="44.58254" lon="6.87687">
        <ele>2799</ele>
        <time>2020-02-18T12:28:50.000Z</time>
      </trkpt>
      <trkpt lat="44.58254" lon="6.87688">
        <ele>2799</ele>
        <time>2020-02-18T12:28:54.000Z</time>
      </trkpt>
      <trkpt lat="44.58254" lon="6.87688">
        <ele>2799</ele>
        <time>2020-02-18T12:28:57.000Z</time>
      </trkpt>
      <trkpt lat="44.58254" lon="6.87688">
        <ele>2799</ele>
        <time>2020-02-18T12:29:01.000Z</time>
      </trkpt>
      <trkpt lat="44.58254" lon="6.87688">
        <ele>2799</ele>
        <time>2020-02-18T12:29:03.000Z</time>
      </trkpt>
      <trkpt lat="44.58254" lon="6.87688">
        <ele>2799</ele>
        <time>2020-02-18T12:29:04.000Z</time>
      </trkpt>
      <trkpt lat="44.58254" lon="6.87688">
        <ele>2799</ele>
        <time>2020-02-18T12:29:06.000Z</time>
      </trkpt>
      <trkpt lat="44.58254" lon="6.87688">
        <ele>2799</ele>
        <time>2020-02-18T12:29:10.000Z</time>
      </trkpt>
      <trkpt lat="44.58254" lon="6.87688">
        <ele>2799</ele>
        <time>2020-02-18T12:29:20.000Z</time>
      </trkpt>
      <trkpt lat="44.58254" lon="6.87688">
        <ele>2799</ele>
        <time>2020-02-18T12:29:30.000Z</time>
      </trkpt>
      <trkpt lat="44.58254" lon="6.87688">
        <ele>2799</ele>
        <time>2020-02-18T12:29:32.000Z</time>
      </trkpt>
      <trkpt lat="44.58254" lon="6.87688">
        <ele>2799</ele>
        <time>2020-02-18T12:29:33.000Z</time>
      </trkpt>
      <trkpt lat="44.58254" lon="6.87688">
        <ele>2799</ele>
        <time>2020-02-18T12:29:35.000Z</time>
      </trkpt>
      <trkpt lat="44.58254" lon="6.87688">
        <ele>2799</ele>
        <time>2020-02-18T12:29:45.000Z</time>
      </trkpt>
      <trkpt lat="44.58254" lon="6.87688">
        <ele>2799</ele>
        <time>2020-02-18T12:29:46.000Z</time>
      </trkpt>
      <trkpt lat="44.58254" lon="6.87688">
        <ele>2799</ele>
        <time>2020-02-18T12:29:47.000Z</time>
      </trkpt>
      <trkpt lat="44.58254" lon="6.87688">
        <ele>2799</ele>
        <time>2020-02-18T12:29:51.000Z</time>
      </trkpt>
      <trkpt lat="44.58254" lon="6.87689">
        <ele>2799</ele>
        <time>2020-02-18T12:29:53.000Z</time>
      </trkpt>
      <trkpt lat="44.58254" lon="6.87689">
        <ele>2799</ele>
        <time>2020-02-18T12:29:56.000Z</time>
      </trkpt>
      <trkpt lat="44.58255" lon="6.87689">
        <ele>2799</ele>
        <time>2020-02-18T12:30:01.000Z</time>
      </trkpt>
      <trkpt lat="44.58255" lon="6.87689">
        <ele>2799</ele>
        <time>2020-02-18T12:30:02.000Z</time>
      </trkpt>
      <trkpt lat="44.58255" lon="6.87689">
        <ele>2799</ele>
        <time>2020-02-18T12:30:15.000Z</time>
      </trkpt>
      <trkpt lat="44.58257" lon="6.87692">
        <ele>2799</ele>
        <time>2020-02-18T12:30:20.000Z</time>
      </trkpt>
      <trkpt lat="44.58257" lon="6.87693">
        <ele>2799</ele>
        <time>2020-02-18T12:30:23.000Z</time>
      </trkpt>
      <trkpt lat="44.58257" lon="6.87693">
        <ele>2799</ele>
        <time>2020-02-18T12:30:27.000Z</time>
      </trkpt>
      <trkpt lat="44.58258" lon="6.87692">
        <ele>2799</ele>
        <time>2020-02-18T12:30:37.000Z</time>
      </trkpt>
      <trkpt lat="44.58258" lon="6.87692">
        <ele>2799</ele>
        <time>2020-02-18T12:30:44.000Z</time>
      </trkpt>
      <trkpt lat="44.58258" lon="6.87692">
        <ele>2799</ele>
        <time>2020-02-18T12:30:46.000Z</time>
      </trkpt>
      <trkpt lat="44.58258" lon="6.87692">
        <ele>2799</ele>
        <time>2020-02-18T12:30:49.000Z</time>
      </trkpt>
      <trkpt lat="44.58257" lon="6.87691">
        <ele>2799</ele>
        <time>2020-02-18T12:30:51.000Z</time>
      </trkpt>
      <trkpt lat="44.58256" lon="6.87689">
        <ele>2799</ele>
        <time>2020-02-18T12:30:54.000Z</time>
      </trkpt>
      <trkpt lat="44.58256" lon="6.87688">
        <ele>2799</ele>
        <time>2020-02-18T12:30:58.000Z</time>
      </trkpt>
      <trkpt lat="44.58256" lon="6.87688">
        <ele>2799</ele>
        <time>2020-02-18T12:31:00.000Z</time>
      </trkpt>
      <trkpt lat="44.58256" lon="6.87688">
        <ele>2799</ele>
        <time>2020-02-18T12:31:03.000Z</time>
      </trkpt>
      <trkpt lat="44.58252" lon="6.87688">
        <ele>2799</ele>
        <time>2020-02-18T12:31:31.000Z</time>
      </trkpt>
      <trkpt lat="44.58252" lon="6.87688">
        <ele>2799</ele>
        <time>2020-02-18T12:31:40.000Z</time>
      </trkpt>
      <trkpt lat="44.58252" lon="6.87688">
        <ele>2799</ele>
        <time>2020-02-18T12:31:41.000Z</time>
      </trkpt>
      <trkpt lat="44.58252" lon="6.87688">
        <ele>2799</ele>
        <time>2020-02-18T12:31:42.000Z</time>
      </trkpt>
      <trkpt lat="44.58252" lon="6.87688">
        <ele>2799</ele>
        <time>2020-02-18T12:31:44.000Z</time>
      </trkpt>
      <trkpt lat="44.58252" lon="6.87688">
        <ele>2799</ele>
        <time>2020-02-18T12:31:45.000Z</time>
      </trkpt>
      <trkpt lat="44.58252" lon="6.87688">
        <ele>2799</ele>
        <time>2020-02-18T12:31:48.000Z</time>
      </trkpt>
      <trkpt lat="44.58252" lon="6.87688">
        <ele>2799</ele>
        <time>2020-02-18T12:31:49.000Z</time>
      </trkpt>
      <trkpt lat="44.58252" lon="6.87688">
        <ele>2799</ele>
        <time>2020-02-18T12:31:54.000Z</time>
      </trkpt>
      <trkpt lat="44.58252" lon="6.87688">
        <ele>2799</ele>
        <time>2020-02-18T12:31:56.000Z</time>
      </trkpt>
      <trkpt lat="44.58252" lon="6.87687">
        <ele>2799</ele>
        <time>2020-02-18T12:32:00.000Z</time>
      </trkpt>
      <trkpt lat="44.58252" lon="6.87687">
        <ele>2799</ele>
        <time>2020-02-18T12:32:10.000Z</time>
      </trkpt>
      <trkpt lat="44.58252" lon="6.87687">
        <ele>2799</ele>
        <time>2020-02-18T12:32:30.000Z</time>
      </trkpt>
      <trkpt lat="44.58253" lon="6.87688">
        <ele>2799</ele>
        <time>2020-02-18T12:32:40.000Z</time>
      </trkpt>
      <trkpt lat="44.58253" lon="6.87688">
        <ele>2799</ele>
        <time>2020-02-18T12:32:41.000Z</time>
      </trkpt>
      <trkpt lat="44.58254" lon="6.87689">
        <ele>2799</ele>
        <time>2020-02-18T12:32:50.000Z</time>
      </trkpt>
      <trkpt lat="44.58254" lon="6.87689">
        <ele>2799</ele>
        <time>2020-02-18T12:32:55.000Z</time>
      </trkpt>
      <trkpt lat="44.58253" lon="6.87689">
        <ele>2799</ele>
        <time>2020-02-18T12:32:57.000Z</time>
      </trkpt>
      <trkpt lat="44.58253" lon="6.87689">
        <ele>2799</ele>
        <time>2020-02-18T12:33:01.000Z</time>
      </trkpt>
      <trkpt lat="44.58254" lon="6.87689">
        <ele>2799</ele>
        <time>2020-02-18T12:33:09.000Z</time>
      </trkpt>
      <trkpt lat="44.58254" lon="6.87689">
        <ele>2799</ele>
        <time>2020-02-18T12:33:10.000Z</time>
      </trkpt>
      <trkpt lat="44.58254" lon="6.87689">
        <ele>2799</ele>
        <time>2020-02-18T12:33:12.000Z</time>
      </trkpt>
      <trkpt lat="44.58255" lon="6.8769">
        <ele>2799</ele>
        <time>2020-02-18T12:33:17.000Z</time>
      </trkpt>
      <trkpt lat="44.58256" lon="6.8769">
        <ele>2799</ele>
        <time>2020-02-18T12:33:23.000Z</time>
      </trkpt>
      <trkpt lat="44.58256" lon="6.8769">
        <ele>2799</ele>
        <time>2020-02-18T12:33:25.000Z</time>
      </trkpt>
      <trkpt lat="44.58257" lon="6.8769">
        <ele>2799</ele>
        <time>2020-02-18T12:33:27.000Z</time>
      </trkpt>
      <trkpt lat="44.58257" lon="6.87689">
        <ele>2799</ele>
        <time>2020-02-18T12:33:29.000Z</time>
      </trkpt>
      <trkpt lat="44.58258" lon="6.87688">
        <ele>2799</ele>
        <time>2020-02-18T12:33:35.000Z</time>
      </trkpt>
      <trkpt lat="44.58258" lon="6.87688">
        <ele>2799</ele>
        <time>2020-02-18T12:33:38.000Z</time>
      </trkpt>
      <trkpt lat="44.58259" lon="6.87687">
        <ele>2799</ele>
        <time>2020-02-18T12:33:41.000Z</time>
      </trkpt>
      <trkpt lat="44.58259" lon="6.87687">
        <ele>2799</ele>
        <time>2020-02-18T12:33:42.000Z</time>
      </trkpt>
      <trkpt lat="44.58259" lon="6.87686">
        <ele>2799</ele>
        <time>2020-02-18T12:33:45.000Z</time>
      </trkpt>
      <trkpt lat="44.58259" lon="6.87687">
        <ele>2799</ele>
        <time>2020-02-18T12:33:47.000Z</time>
      </trkpt>
      <trkpt lat="44.58259" lon="6.87686">
        <ele>2799</ele>
        <time>2020-02-18T12:33:49.000Z</time>
      </trkpt>
      <trkpt lat="44.58258" lon="6.87687">
        <ele>2799</ele>
        <time>2020-02-18T12:33:57.000Z</time>
      </trkpt>
      <trkpt lat="44.58258" lon="6.87686">
        <ele>2799</ele>
        <time>2020-02-18T12:34:00.000Z</time>
      </trkpt>
      <trkpt lat="44.58258" lon="6.87687">
        <ele>2799</ele>
        <time>2020-02-18T12:34:07.000Z</time>
      </trkpt>
      <trkpt lat="44.58259" lon="6.87687">
        <ele>2799</ele>
        <time>2020-02-18T12:34:08.000Z</time>
      </trkpt>
      <trkpt lat="44.58259" lon="6.87687">
        <ele>2799</ele>
        <time>2020-02-18T12:34:09.000Z</time>
      </trkpt>
      <trkpt lat="44.58259" lon="6.87688">
        <ele>2799</ele>
        <time>2020-02-18T12:34:11.000Z</time>
      </trkpt>
      <trkpt lat="44.58259" lon="6.87688">
        <ele>2799</ele>
        <time>2020-02-18T12:34:12.000Z</time>
      </trkpt>
      <trkpt lat="44.58259" lon="6.87688">
        <ele>2799</ele>
        <time>2020-02-18T12:34:14.000Z</time>
      </trkpt>
      <trkpt lat="44.58259" lon="6.87688">
        <ele>2799</ele>
        <time>2020-02-18T12:34:19.000Z</time>
      </trkpt>
      <trkpt lat="44.5826" lon="6.87688">
        <ele>2799</ele>
        <time>2020-02-18T12:34:23.000Z</time>
      </trkpt>
      <trkpt lat="44.5826" lon="6.87688">
        <ele>2799</ele>
        <time>2020-02-18T12:34:25.000Z</time>
      </trkpt>
      <trkpt lat="44.58259" lon="6.87689">
        <ele>2799</ele>
        <time>2020-02-18T12:34:27.000Z</time>
      </trkpt>
      <trkpt lat="44.58259" lon="6.87689">
        <ele>2799</ele>
        <time>2020-02-18T12:34:30.000Z</time>
      </trkpt>
      <trkpt lat="44.58259" lon="6.87689">
        <ele>2799</ele>
        <time>2020-02-18T12:34:36.000Z</time>
      </trkpt>
      <trkpt lat="44.58259" lon="6.87689">
        <ele>2799</ele>
        <time>2020-02-18T12:34:40.000Z</time>
      </trkpt>
      <trkpt lat="44.58259" lon="6.87689">
        <ele>2799</ele>
        <time>2020-02-18T12:34:41.000Z</time>
      </trkpt>
      <trkpt lat="44.58259" lon="6.87689">
        <ele>2799</ele>
        <time>2020-02-18T12:34:42.000Z</time>
      </trkpt>
      <trkpt lat="44.58259" lon="6.87689">
        <ele>2799</ele>
        <time>2020-02-18T12:34:43.000Z</time>
      </trkpt>
      <trkpt lat="44.58259" lon="6.87689">
        <ele>2799</ele>
        <time>2020-02-18T12:34:44.000Z</time>
      </trkpt>
      <trkpt lat="44.58259" lon="6.8769">
        <ele>2799</ele>
        <time>2020-02-18T12:34:46.000Z</time>
      </trkpt>
      <trkpt lat="44.58259" lon="6.8769">
        <ele>2799</ele>
        <time>2020-02-18T12:34:48.000Z</time>
      </trkpt>
      <trkpt lat="44.58259" lon="6.8769">
        <ele>2799</ele>
        <time>2020-02-18T12:34:50.000Z</time>
      </trkpt>
      <trkpt lat="44.58259" lon="6.8769">
        <ele>2799</ele>
        <time>2020-02-18T12:34:52.000Z</time>
      </trkpt>
      <trkpt lat="44.58259" lon="6.87689">
        <ele>2799</ele>
        <time>2020-02-18T12:35:01.000Z</time>
      </trkpt>
      <trkpt lat="44.58259" lon="6.87689">
        <ele>2799</ele>
        <time>2020-02-18T12:35:03.000Z</time>
      </trkpt>
      <trkpt lat="44.58259" lon="6.87689">
        <ele>2799</ele>
        <time>2020-02-18T12:35:05.000Z</time>
      </trkpt>
      <trkpt lat="44.58258" lon="6.8769">
        <ele>2799</ele>
        <time>2020-02-18T12:35:34.000Z</time>
      </trkpt>
      <trkpt lat="44.58258" lon="6.87691">
        <ele>2799</ele>
        <time>2020-02-18T12:35:42.000Z</time>
      </trkpt>
      <trkpt lat="44.58258" lon="6.87692">
        <ele>2799</ele>
        <time>2020-02-18T12:35:51.000Z</time>
      </trkpt>
      <trkpt lat="44.58258" lon="6.87691">
        <ele>2799</ele>
        <time>2020-02-18T12:35:56.000Z</time>
      </trkpt>
      <trkpt lat="44.58258" lon="6.87691">
        <ele>2799</ele>
        <time>2020-02-18T12:36:01.000Z</time>
      </trkpt>
      <trkpt lat="44.58258" lon="6.87691">
        <ele>2799</ele>
        <time>2020-02-18T12:36:03.000Z</time>
      </trkpt>
      <trkpt lat="44.58258" lon="6.87689">
        <ele>2799</ele>
        <time>2020-02-18T12:36:18.000Z</time>
      </trkpt>
      <trkpt lat="44.58258" lon="6.87689">
        <ele>2799</ele>
        <time>2020-02-18T12:36:31.000Z</time>
      </trkpt>
      <trkpt lat="44.58258" lon="6.87689">
        <ele>2799</ele>
        <time>2020-02-18T12:36:39.000Z</time>
      </trkpt>
      <trkpt lat="44.58258" lon="6.87689">
        <ele>2799</ele>
        <time>2020-02-18T12:36:55.000Z</time>
      </trkpt>
      <trkpt lat="44.58257" lon="6.8769">
        <ele>2799</ele>
        <time>2020-02-18T12:37:04.000Z</time>
      </trkpt>
      <trkpt lat="44.58258" lon="6.8769">
        <ele>2799</ele>
        <time>2020-02-18T12:37:06.000Z</time>
      </trkpt>
      <trkpt lat="44.58257" lon="6.87689">
        <ele>2799</ele>
        <time>2020-02-18T12:37:09.000Z</time>
      </trkpt>
      <trkpt lat="44.58257" lon="6.87689">
        <ele>2799</ele>
        <time>2020-02-18T12:37:16.000Z</time>
      </trkpt>
      <trkpt lat="44.58258" lon="6.87688">
        <ele>2799</ele>
        <time>2020-02-18T12:37:36.000Z</time>
      </trkpt>
      <trkpt lat="44.58257" lon="6.87689">
        <ele>2799</ele>
        <time>2020-02-18T12:38:02.000Z</time>
      </trkpt>
      <trkpt lat="44.58256" lon="6.87689">
        <ele>2799</ele>
        <time>2020-02-18T12:38:05.000Z</time>
      </trkpt>
      <trkpt lat="44.58256" lon="6.8769">
        <ele>2799</ele>
        <time>2020-02-18T12:38:10.000Z</time>
      </trkpt>
      <trkpt lat="44.58257" lon="6.87689">
        <ele>2799</ele>
        <time>2020-02-18T12:38:20.000Z</time>
      </trkpt>
      <trkpt lat="44.58257" lon="6.87689">
        <ele>2799</ele>
        <time>2020-02-18T12:38:24.000Z</time>
      </trkpt>
      <trkpt lat="44.58257" lon="6.8769">
        <ele>2799</ele>
        <time>2020-02-18T12:38:32.000Z</time>
      </trkpt>
      <trkpt lat="44.58257" lon="6.8769">
        <ele>2799</ele>
        <time>2020-02-18T12:38:35.000Z</time>
      </trkpt>
      <trkpt lat="44.58257" lon="6.87689">
        <ele>2799</ele>
        <time>2020-02-18T12:38:43.000Z</time>
      </trkpt>
      <trkpt lat="44.58257" lon="6.87688">
        <ele>2799</ele>
        <time>2020-02-18T12:38:57.000Z</time>
      </trkpt>
      <trkpt lat="44.58257" lon="6.87689">
        <ele>2799</ele>
        <time>2020-02-18T12:39:19.000Z</time>
      </trkpt>
      <trkpt lat="44.58257" lon="6.87688">
        <ele>2799</ele>
        <time>2020-02-18T12:39:21.000Z</time>
      </trkpt>
      <trkpt lat="44.58257" lon="6.87688">
        <ele>2799</ele>
        <time>2020-02-18T12:39:27.000Z</time>
      </trkpt>
      <trkpt lat="44.58256" lon="6.87688">
        <ele>2799</ele>
        <time>2020-02-18T12:39:30.000Z</time>
      </trkpt>
      <trkpt lat="44.58256" lon="6.87688">
        <ele>2799</ele>
        <time>2020-02-18T12:39:35.000Z</time>
      </trkpt>
      <trkpt lat="44.58257" lon="6.87688">
        <ele>2799</ele>
        <time>2020-02-18T12:39:37.000Z</time>
      </trkpt>
      <trkpt lat="44.58257" lon="6.87688">
        <ele>2799</ele>
        <time>2020-02-18T12:39:43.000Z</time>
      </trkpt>
      <trkpt lat="44.58257" lon="6.87688">
        <ele>2799</ele>
        <time>2020-02-18T12:39:44.000Z</time>
      </trkpt>
      <trkpt lat="44.58257" lon="6.87688">
        <ele>2799</ele>
        <time>2020-02-18T12:39:48.000Z</time>
      </trkpt>
      <trkpt lat="44.58257" lon="6.87689">
        <ele>2799</ele>
        <time>2020-02-18T12:39:51.000Z</time>
      </trkpt>
      <trkpt lat="44.58257" lon="6.87689">
        <ele>2799</ele>
        <time>2020-02-18T12:39:52.000Z</time>
      </trkpt>
      <trkpt lat="44.58257" lon="6.87689">
        <ele>2799</ele>
        <time>2020-02-18T12:39:54.000Z</time>
      </trkpt>
      <trkpt lat="44.58257" lon="6.87689">
        <ele>2799</ele>
        <time>2020-02-18T12:39:58.000Z</time>
      </trkpt>
      <trkpt lat="44.58257" lon="6.87689">
        <ele>2799</ele>
        <time>2020-02-18T12:40:09.000Z</time>
      </trkpt>
      <trkpt lat="44.58257" lon="6.87688">
        <ele>2799</ele>
        <time>2020-02-18T12:40:29.000Z</time>
      </trkpt>
      <trkpt lat="44.58256" lon="6.87688">
        <ele>2799</ele>
        <time>2020-02-18T12:40:42.000Z</time>
      </trkpt>
      <trkpt lat="44.58256" lon="6.87689">
        <ele>2799</ele>
        <time>2020-02-18T12:40:46.000Z</time>
      </trkpt>
      <trkpt lat="44.58256" lon="6.87691">
        <ele>2799</ele>
        <time>2020-02-18T12:40:52.000Z</time>
      </trkpt>
      <trkpt lat="44.58254" lon="6.87693">
        <ele>2799</ele>
        <time>2020-02-18T12:41:11.000Z</time>
      </trkpt>
      <trkpt lat="44.58259" lon="6.8769">
        <ele>2799</ele>
        <time>2020-02-18T12:41:34.000Z</time>
      </trkpt>
      <trkpt lat="44.58258" lon="6.8769">
        <ele>2799</ele>
        <time>2020-02-18T12:41:39.000Z</time>
      </trkpt>
      <trkpt lat="44.58259" lon="6.8769">
        <ele>2799</ele>
        <time>2020-02-18T12:41:48.000Z</time>
      </trkpt>
      <trkpt lat="44.58259" lon="6.8769">
        <ele>2799</ele>
        <time>2020-02-18T12:41:56.000Z</time>
      </trkpt>
      <trkpt lat="44.58259" lon="6.8769">
        <ele>2799</ele>
        <time>2020-02-18T12:41:57.000Z</time>
      </trkpt>
      <trkpt lat="44.58259" lon="6.8769">
        <ele>2799</ele>
        <time>2020-02-18T12:41:58.000Z</time>
      </trkpt>
      <trkpt lat="44.58259" lon="6.8769">
        <ele>2799</ele>
        <time>2020-02-18T12:41:59.000Z</time>
      </trkpt>
      <trkpt lat="44.58259" lon="6.8769">
        <ele>2799</ele>
        <time>2020-02-18T12:42:01.000Z</time>
      </trkpt>
      <trkpt lat="44.58259" lon="6.8769">
        <ele>2799</ele>
        <time>2020-02-18T12:42:02.000Z</time>
      </trkpt>
      <trkpt lat="44.58258" lon="6.8769">
        <ele>2799</ele>
        <time>2020-02-18T12:42:16.000Z</time>
      </trkpt>
      <trkpt lat="44.58258" lon="6.8769">
        <ele>2799</ele>
        <time>2020-02-18T12:42:22.000Z</time>
      </trkpt>
      <trkpt lat="44.58258" lon="6.8769">
        <ele>2799</ele>
        <time>2020-02-18T12:42:23.000Z</time>
      </trkpt>
      <trkpt lat="44.58258" lon="6.8769">
        <ele>2799</ele>
        <time>2020-02-18T12:42:24.000Z</time>
      </trkpt>
      <trkpt lat="44.58258" lon="6.8769">
        <ele>2799</ele>
        <time>2020-02-18T12:42:25.000Z</time>
      </trkpt>
      <trkpt lat="44.58257" lon="6.8769">
        <ele>2799</ele>
        <time>2020-02-18T12:42:27.000Z</time>
      </trkpt>
      <trkpt lat="44.58257" lon="6.87691">
        <ele>2799</ele>
        <time>2020-02-18T12:42:33.000Z</time>
      </trkpt>
      <trkpt lat="44.58257" lon="6.87691">
        <ele>2799</ele>
        <time>2020-02-18T12:42:36.000Z</time>
      </trkpt>
      <trkpt lat="44.58257" lon="6.87691">
        <ele>2799</ele>
        <time>2020-02-18T12:42:38.000Z</time>
      </trkpt>
      <trkpt lat="44.58257" lon="6.87691">
        <ele>2799</ele>
        <time>2020-02-18T12:42:40.000Z</time>
      </trkpt>
      <trkpt lat="44.58257" lon="6.87691">
        <ele>2799</ele>
        <time>2020-02-18T12:42:42.000Z</time>
      </trkpt>
      <trkpt lat="44.58257" lon="6.87691">
        <ele>2799</ele>
        <time>2020-02-18T12:42:43.000Z</time>
      </trkpt>
      <trkpt lat="44.58257" lon="6.87691">
        <ele>2799</ele>
        <time>2020-02-18T12:42:44.000Z</time>
      </trkpt>
      <trkpt lat="44.58257" lon="6.87691">
        <ele>2799</ele>
        <time>2020-02-18T12:42:48.000Z</time>
      </trkpt>
      <trkpt lat="44.58257" lon="6.87691">
        <ele>2799</ele>
        <time>2020-02-18T12:42:49.000Z</time>
      </trkpt>
      <trkpt lat="44.58257" lon="6.87692">
        <ele>2799</ele>
        <time>2020-02-18T12:42:52.000Z</time>
      </trkpt>
      <trkpt lat="44.58257" lon="6.87692">
        <ele>2799</ele>
        <time>2020-02-18T12:42:53.000Z</time>
      </trkpt>
      <trkpt lat="44.58257" lon="6.87692">
        <ele>2799</ele>
        <time>2020-02-18T12:42:55.000Z</time>
      </trkpt>
      <trkpt lat="44.58258" lon="6.87692">
        <ele>2799</ele>
        <time>2020-02-18T12:42:58.000Z</time>
      </trkpt>
      <trkpt lat="44.58258" lon="6.87692">
        <ele>2799</ele>
        <time>2020-02-18T12:43:00.000Z</time>
      </trkpt>
      <trkpt lat="44.58258" lon="6.87692">
        <ele>2799</ele>
        <time>2020-02-18T12:43:04.000Z</time>
      </trkpt>
      <trkpt lat="44.58258" lon="6.87692">
        <ele>2799</ele>
        <time>2020-02-18T12:43:05.000Z</time>
      </trkpt>
      <trkpt lat="44.58258" lon="6.87692">
        <ele>2799</ele>
        <time>2020-02-18T12:43:06.000Z</time>
      </trkpt>
      <trkpt lat="44.58258" lon="6.87693">
        <ele>2799</ele>
        <time>2020-02-18T12:43:10.000Z</time>
      </trkpt>
      <trkpt lat="44.58258" lon="6.87693">
        <ele>2799</ele>
        <time>2020-02-18T12:43:11.000Z</time>
      </trkpt>
      <trkpt lat="44.58258" lon="6.87693">
        <ele>2799</ele>
        <time>2020-02-18T12:43:12.000Z</time>
      </trkpt>
      <trkpt lat="44.58258" lon="6.87693">
        <ele>2799</ele>
        <time>2020-02-18T12:43:20.000Z</time>
      </trkpt>
      <trkpt lat="44.58257" lon="6.87695">
        <ele>2799</ele>
        <time>2020-02-18T12:43:39.000Z</time>
      </trkpt>
      <trkpt lat="44.58257" lon="6.87695">
        <ele>2799</ele>
        <time>2020-02-18T12:43:47.000Z</time>
      </trkpt>
      <trkpt lat="44.58258" lon="6.87695">
        <ele>2799</ele>
        <time>2020-02-18T12:43:52.000Z</time>
      </trkpt>
      <trkpt lat="44.58258" lon="6.87695">
        <ele>2799</ele>
        <time>2020-02-18T12:43:55.000Z</time>
      </trkpt>
      <trkpt lat="44.58259" lon="6.87695">
        <ele>2799</ele>
        <time>2020-02-18T12:44:09.000Z</time>
      </trkpt>
      <trkpt lat="44.58259" lon="6.87695">
        <ele>2799</ele>
        <time>2020-02-18T12:44:13.000Z</time>
      </trkpt>
      <trkpt lat="44.58259" lon="6.87695">
        <ele>2799</ele>
        <time>2020-02-18T12:44:15.000Z</time>
      </trkpt>
      <trkpt lat="44.58259" lon="6.87695">
        <ele>2799</ele>
        <time>2020-02-18T12:44:17.000Z</time>
      </trkpt>
      <trkpt lat="44.58259" lon="6.87695">
        <ele>2799</ele>
        <time>2020-02-18T12:44:19.000Z</time>
      </trkpt>
      <trkpt lat="44.58259" lon="6.87695">
        <ele>2799</ele>
        <time>2020-02-18T12:44:22.000Z</time>
      </trkpt>
      <trkpt lat="44.58257" lon="6.87693">
        <ele>2799</ele>
        <time>2020-02-18T12:44:37.000Z</time>
      </trkpt>
      <trkpt lat="44.58257" lon="6.87693">
        <ele>2799</ele>
        <time>2020-02-18T12:44:42.000Z</time>
      </trkpt>
      <trkpt lat="44.58257" lon="6.87692">
        <ele>2799</ele>
        <time>2020-02-18T12:44:45.000Z</time>
      </trkpt>
      <trkpt lat="44.58256" lon="6.87691">
        <ele>2799</ele>
        <time>2020-02-18T12:44:46.000Z</time>
      </trkpt>
      <trkpt lat="44.58256" lon="6.87691">
        <ele>2799</ele>
        <time>2020-02-18T12:44:48.000Z</time>
      </trkpt>
      <trkpt lat="44.58256" lon="6.87691">
        <ele>2799</ele>
        <time>2020-02-18T12:44:53.000Z</time>
      </trkpt>
      <trkpt lat="44.58256" lon="6.87691">
        <ele>2799</ele>
        <time>2020-02-18T12:44:58.000Z</time>
      </trkpt>
      <trkpt lat="44.58256" lon="6.87691">
        <ele>2799</ele>
        <time>2020-02-18T12:45:08.000Z</time>
      </trkpt>
      <trkpt lat="44.58256" lon="6.87691">
        <ele>2799</ele>
        <time>2020-02-18T12:45:10.000Z</time>
      </trkpt>
      <trkpt lat="44.58256" lon="6.87691">
        <ele>2799</ele>
        <time>2020-02-18T12:45:12.000Z</time>
      </trkpt>
      <trkpt lat="44.58256" lon="6.87691">
        <ele>2799</ele>
        <time>2020-02-18T12:45:16.000Z</time>
      </trkpt>
      <trkpt lat="44.58256" lon="6.87691">
        <ele>2799</ele>
        <time>2020-02-18T12:45:17.000Z</time>
      </trkpt>
      <trkpt lat="44.58256" lon="6.87691">
        <ele>2799</ele>
        <time>2020-02-18T12:45:19.000Z</time>
      </trkpt>
      <trkpt lat="44.58256" lon="6.87691">
        <ele>2799</ele>
        <time>2020-02-18T12:45:20.000Z</time>
      </trkpt>
      <trkpt lat="44.58256" lon="6.87691">
        <ele>2799</ele>
        <time>2020-02-18T12:45:21.000Z</time>
      </trkpt>
      <trkpt lat="44.58256" lon="6.87691">
        <ele>2799</ele>
        <time>2020-02-18T12:45:23.000Z</time>
      </trkpt>
      <trkpt lat="44.58256" lon="6.87691">
        <ele>2799</ele>
        <time>2020-02-18T12:45:27.000Z</time>
      </trkpt>
      <trkpt lat="44.58256" lon="6.87691">
        <ele>2799</ele>
        <time>2020-02-18T12:45:28.000Z</time>
      </trkpt>
      <trkpt lat="44.58256" lon="6.87691">
        <ele>2799</ele>
        <time>2020-02-18T12:45:31.000Z</time>
      </trkpt>
      <trkpt lat="44.58256" lon="6.87691">
        <ele>2799</ele>
        <time>2020-02-18T12:45:34.000Z</time>
      </trkpt>
      <trkpt lat="44.58256" lon="6.87691">
        <ele>2799</ele>
        <time>2020-02-18T12:45:37.000Z</time>
      </trkpt>
      <trkpt lat="44.58256" lon="6.87691">
        <ele>2799</ele>
        <time>2020-02-18T12:45:38.000Z</time>
      </trkpt>
      <trkpt lat="44.58256" lon="6.87691">
        <ele>2799</ele>
        <time>2020-02-18T12:45:39.000Z</time>
      </trkpt>
      <trkpt lat="44.58256" lon="6.87691">
        <ele>2799</ele>
        <time>2020-02-18T12:45:40.000Z</time>
      </trkpt>
      <trkpt lat="44.58256" lon="6.87692">
        <ele>2799</ele>
        <time>2020-02-18T12:45:42.000Z</time>
      </trkpt>
      <trkpt lat="44.58256" lon="6.87692">
        <ele>2799</ele>
        <time>2020-02-18T12:45:49.000Z</time>
      </trkpt>
      <trkpt lat="44.58256" lon="6.87692">
        <ele>2799</ele>
        <time>2020-02-18T12:45:50.000Z</time>
      </trkpt>
      <trkpt lat="44.58256" lon="6.87692">
        <ele>2799</ele>
        <time>2020-02-18T12:45:51.000Z</time>
      </trkpt>
      <trkpt lat="44.58256" lon="6.87692">
        <ele>2799</ele>
        <time>2020-02-18T12:45:52.000Z</time>
      </trkpt>
      <trkpt lat="44.58256" lon="6.87692">
        <ele>2799</ele>
        <time>2020-02-18T12:45:53.000Z</time>
      </trkpt>
      <trkpt lat="44.58256" lon="6.87692">
        <ele>2799</ele>
        <time>2020-02-18T12:45:57.000Z</time>
      </trkpt>
      <trkpt lat="44.58256" lon="6.87692">
        <ele>2799</ele>
        <time>2020-02-18T12:45:58.000Z</time>
      </trkpt>
      <trkpt lat="44.58256" lon="6.87692">
        <ele>2799</ele>
        <time>2020-02-18T12:46:01.000Z</time>
      </trkpt>
      <trkpt lat="44.58256" lon="6.87692">
        <ele>2799</ele>
        <time>2020-02-18T12:46:03.000Z</time>
      </trkpt>
      <trkpt lat="44.58256" lon="6.87692">
        <ele>2799</ele>
        <time>2020-02-18T12:46:05.000Z</time>
      </trkpt>
      <trkpt lat="44.58256" lon="6.87692">
        <ele>2799</ele>
        <time>2020-02-18T12:46:07.000Z</time>
      </trkpt>
      <trkpt lat="44.58256" lon="6.87692">
        <ele>2799</ele>
        <time>2020-02-18T12:46:21.000Z</time>
      </trkpt>
      <trkpt lat="44.58256" lon="6.87692">
        <ele>2799</ele>
        <time>2020-02-18T12:46:23.000Z</time>
      </trkpt>
      <trkpt lat="44.58256" lon="6.87692">
        <ele>2799</ele>
        <time>2020-02-18T12:46:26.000Z</time>
      </trkpt>
      <trkpt lat="44.58256" lon="6.87692">
        <ele>2799</ele>
        <time>2020-02-18T12:46:35.000Z</time>
      </trkpt>
      <trkpt lat="44.58256" lon="6.87692">
        <ele>2799</ele>
        <time>2020-02-18T12:46:36.000Z</time>
      </trkpt>
      <trkpt lat="44.58256" lon="6.87692">
        <ele>2799</ele>
        <time>2020-02-18T12:46:41.000Z</time>
      </trkpt>
      <trkpt lat="44.58256" lon="6.87692">
        <ele>2799</ele>
        <time>2020-02-18T12:46:44.000Z</time>
      </trkpt>
      <trkpt lat="44.58256" lon="6.87692">
        <ele>2799</ele>
        <time>2020-02-18T12:46:50.000Z</time>
      </trkpt>
      <trkpt lat="44.58256" lon="6.87692">
        <ele>2799</ele>
        <time>2020-02-18T12:46:56.000Z</time>
      </trkpt>
      <trkpt lat="44.58256" lon="6.87692">
        <ele>2799</ele>
        <time>2020-02-18T12:47:00.000Z</time>
      </trkpt>
      <trkpt lat="44.58256" lon="6.87692">
        <ele>2799</ele>
        <time>2020-02-18T12:47:01.000Z</time>
      </trkpt>
      <trkpt lat="44.58256" lon="6.87692">
        <ele>2799</ele>
        <time>2020-02-18T12:47:03.000Z</time>
      </trkpt>
      <trkpt lat="44.58256" lon="6.87692">
        <ele>2799</ele>
        <time>2020-02-18T12:47:05.000Z</time>
      </trkpt>
      <trkpt lat="44.58256" lon="6.87692">
        <ele>2799</ele>
        <time>2020-02-18T12:47:08.000Z</time>
      </trkpt>
      <trkpt lat="44.58256" lon="6.87692">
        <ele>2799</ele>
        <time>2020-02-18T12:47:13.000Z</time>
      </trkpt>
      <trkpt lat="44.58256" lon="6.87692">
        <ele>2799</ele>
        <time>2020-02-18T12:47:18.000Z</time>
      </trkpt>
      <trkpt lat="44.58256" lon="6.87692">
        <ele>2799</ele>
        <time>2020-02-18T12:47:20.000Z</time>
      </trkpt>
      <trkpt lat="44.58256" lon="6.87692">
        <ele>2799</ele>
        <time>2020-02-18T12:47:22.000Z</time>
      </trkpt>
      <trkpt lat="44.58256" lon="6.87692">
        <ele>2799</ele>
        <time>2020-02-18T12:47:23.000Z</time>
      </trkpt>
      <trkpt lat="44.58256" lon="6.87692">
        <ele>2799</ele>
        <time>2020-02-18T12:47:25.000Z</time>
      </trkpt>
      <trkpt lat="44.58256" lon="6.87692">
        <ele>2799</ele>
        <time>2020-02-18T12:47:27.000Z</time>
      </trkpt>
      <trkpt lat="44.58256" lon="6.87692">
        <ele>2799</ele>
        <time>2020-02-18T12:47:34.000Z</time>
      </trkpt>
      <trkpt lat="44.58256" lon="6.87692">
        <ele>2799</ele>
        <time>2020-02-18T12:47:39.000Z</time>
      </trkpt>
      <trkpt lat="44.58256" lon="6.87692">
        <ele>2799</ele>
        <time>2020-02-18T12:47:44.000Z</time>
      </trkpt>
      <trkpt lat="44.58256" lon="6.87692">
        <ele>2799</ele>
        <time>2020-02-18T12:47:47.000Z</time>
      </trkpt>
      <trkpt lat="44.58257" lon="6.87691">
        <ele>2799</ele>
        <time>2020-02-18T12:47:54.000Z</time>
      </trkpt>
      <trkpt lat="44.58257" lon="6.8769">
        <ele>2799</ele>
        <time>2020-02-18T12:47:56.000Z</time>
      </trkpt>
      <trkpt lat="44.58256" lon="6.8769">
        <ele>2799</ele>
        <time>2020-02-18T12:47:59.000Z</time>
      </trkpt>
      <trkpt lat="44.58256" lon="6.8769">
        <ele>2799</ele>
        <time>2020-02-18T12:48:01.000Z</time>
      </trkpt>
      <trkpt lat="44.58256" lon="6.8769">
        <ele>2799</ele>
        <time>2020-02-18T12:48:08.000Z</time>
      </trkpt>
      <trkpt lat="44.58256" lon="6.8769">
        <ele>2799</ele>
        <time>2020-02-18T12:48:12.000Z</time>
      </trkpt>
      <trkpt lat="44.58256" lon="6.8769">
        <ele>2799</ele>
        <time>2020-02-18T12:48:15.000Z</time>
      </trkpt>
      <trkpt lat="44.58256" lon="6.8769">
        <ele>2799</ele>
        <time>2020-02-18T12:48:19.000Z</time>
      </trkpt>
      <trkpt lat="44.58256" lon="6.8769">
        <ele>2799</ele>
        <time>2020-02-18T12:48:21.000Z</time>
      </trkpt>
      <trkpt lat="44.58257" lon="6.8769">
        <ele>2799</ele>
        <time>2020-02-18T12:48:33.000Z</time>
      </trkpt>
      <trkpt lat="44.58256" lon="6.87689">
        <ele>2799</ele>
        <time>2020-02-18T12:48:44.000Z</time>
      </trkpt>
      <trkpt lat="44.58256" lon="6.87689">
        <ele>2799</ele>
        <time>2020-02-18T12:48:55.000Z</time>
      </trkpt>
      <trkpt lat="44.58256" lon="6.87689">
        <ele>2799</ele>
        <time>2020-02-18T12:49:00.000Z</time>
      </trkpt>
      <trkpt lat="44.58256" lon="6.8769">
        <ele>2799</ele>
        <time>2020-02-18T12:49:21.000Z</time>
      </trkpt>
      <trkpt lat="44.58256" lon="6.8769">
        <ele>2799</ele>
        <time>2020-02-18T12:49:26.000Z</time>
      </trkpt>
      <trkpt lat="44.58256" lon="6.87691">
        <ele>2799</ele>
        <time>2020-02-18T12:49:34.000Z</time>
      </trkpt>
      <trkpt lat="44.58257" lon="6.87692">
        <ele>2799</ele>
        <time>2020-02-18T12:49:44.000Z</time>
      </trkpt>
      <trkpt lat="44.58257" lon="6.87692">
        <ele>2799</ele>
        <time>2020-02-18T12:49:48.000Z</time>
      </trkpt>
      <trkpt lat="44.58255" lon="6.87692">
        <ele>2799</ele>
        <time>2020-02-18T12:50:04.000Z</time>
      </trkpt>
      <trkpt lat="44.58255" lon="6.87692">
        <ele>2799</ele>
        <time>2020-02-18T12:50:06.000Z</time>
      </trkpt>
      <trkpt lat="44.58255" lon="6.87692">
        <ele>2799</ele>
        <time>2020-02-18T12:50:08.000Z</time>
      </trkpt>
      <trkpt lat="44.58255" lon="6.87692">
        <ele>2799</ele>
        <time>2020-02-18T12:50:12.000Z</time>
      </trkpt>
      <trkpt lat="44.58255" lon="6.87693">
        <ele>2799</ele>
        <time>2020-02-18T12:50:29.000Z</time>
      </trkpt>
      <trkpt lat="44.58255" lon="6.87693">
        <ele>2799</ele>
        <time>2020-02-18T12:50:39.000Z</time>
      </trkpt>
      <trkpt lat="44.58256" lon="6.87695">
        <ele>2799</ele>
        <time>2020-02-18T12:50:51.000Z</time>
      </trkpt>
      <trkpt lat="44.58256" lon="6.87695">
        <ele>2799</ele>
        <time>2020-02-18T12:50:58.000Z</time>
      </trkpt>
      <trkpt lat="44.58256" lon="6.87695">
        <ele>2799</ele>
        <time>2020-02-18T12:51:02.000Z</time>
      </trkpt>
      <trkpt lat="44.58256" lon="6.87695">
        <ele>2799</ele>
        <time>2020-02-18T12:51:04.000Z</time>
      </trkpt>
      <trkpt lat="44.58257" lon="6.87695">
        <ele>2799</ele>
        <time>2020-02-18T12:51:33.000Z</time>
      </trkpt>
      <trkpt lat="44.58257" lon="6.87695">
        <ele>2799</ele>
        <time>2020-02-18T12:51:35.000Z</time>
      </trkpt>
      <trkpt lat="44.58257" lon="6.87695">
        <ele>2799</ele>
        <time>2020-02-18T12:51:39.000Z</time>
      </trkpt>
      <trkpt lat="44.58257" lon="6.87694">
        <ele>2799</ele>
        <time>2020-02-18T12:51:58.000Z</time>
      </trkpt>
      <trkpt lat="44.58258" lon="6.87692">
        <ele>2799</ele>
        <time>2020-02-18T12:52:22.000Z</time>
      </trkpt>
      <trkpt lat="44.58257" lon="6.87691">
        <ele>2799</ele>
        <time>2020-02-18T12:52:45.000Z</time>
      </trkpt>
      <trkpt lat="44.58257" lon="6.87691">
        <ele>2799</ele>
        <time>2020-02-18T12:52:46.000Z</time>
      </trkpt>
      <trkpt lat="44.58257" lon="6.87691">
        <ele>2799</ele>
        <time>2020-02-18T12:52:49.000Z</time>
      </trkpt>
      <trkpt lat="44.58257" lon="6.87691">
        <ele>2799</ele>
        <time>2020-02-18T12:52:50.000Z</time>
      </trkpt>
      <trkpt lat="44.58257" lon="6.87691">
        <ele>2799</ele>
        <time>2020-02-18T12:52:51.000Z</time>
      </trkpt>
      <trkpt lat="44.58257" lon="6.87691">
        <ele>2799</ele>
        <time>2020-02-18T12:52:56.000Z</time>
      </trkpt>
      <trkpt lat="44.58257" lon="6.87691">
        <ele>2799</ele>
        <time>2020-02-18T12:52:58.000Z</time>
      </trkpt>
      <trkpt lat="44.58257" lon="6.87691">
        <ele>2799</ele>
        <time>2020-02-18T12:53:00.000Z</time>
      </trkpt>
      <trkpt lat="44.58257" lon="6.87691">
        <ele>2799</ele>
        <time>2020-02-18T12:53:03.000Z</time>
      </trkpt>
      <trkpt lat="44.58257" lon="6.8769">
        <ele>2799</ele>
        <time>2020-02-18T12:53:09.000Z</time>
      </trkpt>
      <trkpt lat="44.58257" lon="6.87691">
        <ele>2799</ele>
        <time>2020-02-18T12:53:41.000Z</time>
      </trkpt>
      <trkpt lat="44.58257" lon="6.87691">
        <ele>2799</ele>
        <time>2020-02-18T12:53:56.000Z</time>
      </trkpt>
      <trkpt lat="44.58257" lon="6.8769">
        <ele>2799</ele>
        <time>2020-02-18T12:54:02.000Z</time>
      </trkpt>
      <trkpt lat="44.58257" lon="6.8769">
        <ele>2799</ele>
        <time>2020-02-18T12:54:04.000Z</time>
      </trkpt>
      <trkpt lat="44.58257" lon="6.87689">
        <ele>2799</ele>
        <time>2020-02-18T12:54:13.000Z</time>
      </trkpt>
      <trkpt lat="44.58257" lon="6.87689">
        <ele>2799</ele>
        <time>2020-02-18T12:54:17.000Z</time>
      </trkpt>
      <trkpt lat="44.58257" lon="6.87689">
        <ele>2799</ele>
        <time>2020-02-18T12:54:28.000Z</time>
      </trkpt>
      <trkpt lat="44.58257" lon="6.87689">
        <ele>2799</ele>
        <time>2020-02-18T12:54:30.000Z</time>
      </trkpt>
      <trkpt lat="44.58257" lon="6.87689">
        <ele>2799</ele>
        <time>2020-02-18T12:54:32.000Z</time>
      </trkpt>
      <trkpt lat="44.58257" lon="6.87689">
        <ele>2799</ele>
        <time>2020-02-18T12:54:33.000Z</time>
      </trkpt>
      <trkpt lat="44.58258" lon="6.8769">
        <ele>2799</ele>
        <time>2020-02-18T12:54:41.000Z</time>
      </trkpt>
      <trkpt lat="44.58257" lon="6.87691">
        <ele>2799</ele>
        <time>2020-02-18T12:54:43.000Z</time>
      </trkpt>
      <trkpt lat="44.58257" lon="6.87692">
        <ele>2799</ele>
        <time>2020-02-18T12:54:46.000Z</time>
      </trkpt>
      <trkpt lat="44.58257" lon="6.87692">
        <ele>2799</ele>
        <time>2020-02-18T12:54:49.000Z</time>
      </trkpt>
      <trkpt lat="44.58257" lon="6.87692">
        <ele>2799</ele>
        <time>2020-02-18T12:54:56.000Z</time>
      </trkpt>
      <trkpt lat="44.58256" lon="6.87692">
        <ele>2799</ele>
        <time>2020-02-18T12:55:01.000Z</time>
      </trkpt>
      <trkpt lat="44.58256" lon="6.87692">
        <ele>2799</ele>
        <time>2020-02-18T12:55:03.000Z</time>
      </trkpt>
      <trkpt lat="44.58256" lon="6.87692">
        <ele>2799</ele>
        <time>2020-02-18T12:55:06.000Z</time>
      </trkpt>
      <trkpt lat="44.58256" lon="6.87692">
        <ele>2799</ele>
        <time>2020-02-18T12:55:35.000Z</time>
      </trkpt>
      <trkpt lat="44.58256" lon="6.87692">
        <ele>2799</ele>
        <time>2020-02-18T12:55:38.000Z</time>
      </trkpt>
      <trkpt lat="44.58256" lon="6.87692">
        <ele>2799</ele>
        <time>2020-02-18T12:55:45.000Z</time>
      </trkpt>
      <trkpt lat="44.58256" lon="6.87692">
        <ele>2799</ele>
        <time>2020-02-18T12:55:52.000Z</time>
      </trkpt>
      <trkpt lat="44.58257" lon="6.87689">
        <ele>2799</ele>
        <time>2020-02-18T12:56:03.000Z</time>
      </trkpt>
      <trkpt lat="44.58256" lon="6.87693">
        <ele>2799</ele>
        <time>2020-02-18T12:56:09.000Z</time>
      </trkpt>
      <trkpt lat="44.58256" lon="6.87694">
        <ele>2799</ele>
        <time>2020-02-18T12:56:13.000Z</time>
      </trkpt>
      <trkpt lat="44.58256" lon="6.87694">
        <ele>2799</ele>
        <time>2020-02-18T12:56:25.000Z</time>
      </trkpt>
      <trkpt lat="44.58256" lon="6.87694">
        <ele>2799</ele>
        <time>2020-02-18T12:56:29.000Z</time>
      </trkpt>
      <trkpt lat="44.58256" lon="6.87693">
        <ele>2799</ele>
        <time>2020-02-18T12:56:32.000Z</time>
      </trkpt>
      <trkpt lat="44.58256" lon="6.87693">
        <ele>2799</ele>
        <time>2020-02-18T12:56:34.000Z</time>
      </trkpt>
      <trkpt lat="44.58256" lon="6.87693">
        <ele>2799</ele>
        <time>2020-02-18T12:56:39.000Z</time>
      </trkpt>
      <trkpt lat="44.58256" lon="6.87693">
        <ele>2799</ele>
        <time>2020-02-18T12:56:40.000Z</time>
      </trkpt>
      <trkpt lat="44.58256" lon="6.87693">
        <ele>2799</ele>
        <time>2020-02-18T12:56:41.000Z</time>
      </trkpt>
      <trkpt lat="44.58256" lon="6.87693">
        <ele>2799</ele>
        <time>2020-02-18T12:56:45.000Z</time>
      </trkpt>
      <trkpt lat="44.58256" lon="6.87693">
        <ele>2799</ele>
        <time>2020-02-18T12:56:46.000Z</time>
      </trkpt>
      <trkpt lat="44.58256" lon="6.87694">
        <ele>2799</ele>
        <time>2020-02-18T12:56:55.000Z</time>
      </trkpt>
      <trkpt lat="44.58256" lon="6.87694">
        <ele>2799</ele>
        <time>2020-02-18T12:56:56.000Z</time>
      </trkpt>
      <trkpt lat="44.58256" lon="6.87694">
        <ele>2799</ele>
        <time>2020-02-18T12:56:57.000Z</time>
      </trkpt>
      <trkpt lat="44.58256" lon="6.87694">
        <ele>2799</ele>
        <time>2020-02-18T12:56:58.000Z</time>
      </trkpt>
      <trkpt lat="44.58256" lon="6.87694">
        <ele>2799</ele>
        <time>2020-02-18T12:56:59.000Z</time>
      </trkpt>
      <trkpt lat="44.58256" lon="6.87694">
        <ele>2799</ele>
        <time>2020-02-18T12:57:01.000Z</time>
      </trkpt>
      <trkpt lat="44.58256" lon="6.87694">
        <ele>2799</ele>
        <time>2020-02-18T12:57:02.000Z</time>
      </trkpt>
      <trkpt lat="44.58256" lon="6.87694">
        <ele>2799</ele>
        <time>2020-02-18T12:57:10.000Z</time>
      </trkpt>
      <trkpt lat="44.58256" lon="6.87694">
        <ele>2799</ele>
        <time>2020-02-18T12:57:12.000Z</time>
      </trkpt>
      <trkpt lat="44.58256" lon="6.87694">
        <ele>2799</ele>
        <time>2020-02-18T12:57:14.000Z</time>
      </trkpt>
      <trkpt lat="44.58256" lon="6.87694">
        <ele>2799</ele>
        <time>2020-02-18T12:57:16.000Z</time>
      </trkpt>
      <trkpt lat="44.58256" lon="6.87694">
        <ele>2799</ele>
        <time>2020-02-18T12:57:18.000Z</time>
      </trkpt>
      <trkpt lat="44.58256" lon="6.87694">
        <ele>2799</ele>
        <time>2020-02-18T12:57:30.000Z</time>
      </trkpt>
      <trkpt lat="44.58256" lon="6.87694">
        <ele>2799</ele>
        <time>2020-02-18T12:57:36.000Z</time>
      </trkpt>
      <trkpt lat="44.58256" lon="6.87693">
        <ele>2799</ele>
        <time>2020-02-18T12:57:39.000Z</time>
      </trkpt>
      <trkpt lat="44.58256" lon="6.87694">
        <ele>2799</ele>
        <time>2020-02-18T12:57:41.000Z</time>
      </trkpt>
      <trkpt lat="44.58256" lon="6.87694">
        <ele>2799</ele>
        <time>2020-02-18T12:57:43.000Z</time>
      </trkpt>
      <trkpt lat="44.58255" lon="6.87694">
        <ele>2799</ele>
        <time>2020-02-18T12:57:45.000Z</time>
      </trkpt>
      <trkpt lat="44.58255" lon="6.87695">
        <ele>2799</ele>
        <time>2020-02-18T12:57:47.000Z</time>
      </trkpt>
      <trkpt lat="44.58255" lon="6.87694">
        <ele>2799</ele>
        <time>2020-02-18T12:57:49.000Z</time>
      </trkpt>
      <trkpt lat="44.58255" lon="6.87694">
        <ele>2799</ele>
        <time>2020-02-18T12:57:54.000Z</time>
      </trkpt>
      <trkpt lat="44.58255" lon="6.87694">
        <ele>2799</ele>
        <time>2020-02-18T12:57:55.000Z</time>
      </trkpt>
      <trkpt lat="44.58255" lon="6.87694">
        <ele>2799</ele>
        <time>2020-02-18T12:57:56.000Z</time>
      </trkpt>
      <trkpt lat="44.58255" lon="6.87694">
        <ele>2799</ele>
        <time>2020-02-18T12:57:57.000Z</time>
      </trkpt>
      <trkpt lat="44.58255" lon="6.87694">
        <ele>2799</ele>
        <time>2020-02-18T12:57:59.000Z</time>
      </trkpt>
      <trkpt lat="44.58255" lon="6.87694">
        <ele>2799</ele>
        <time>2020-02-18T12:58:00.000Z</time>
      </trkpt>
      <trkpt lat="44.58255" lon="6.87694">
        <ele>2799</ele>
        <time>2020-02-18T12:58:03.000Z</time>
      </trkpt>
      <trkpt lat="44.58255" lon="6.87694">
        <ele>2799</ele>
        <time>2020-02-18T12:58:04.000Z</time>
      </trkpt>
      <trkpt lat="44.58255" lon="6.87694">
        <ele>2799</ele>
        <time>2020-02-18T12:58:07.000Z</time>
      </trkpt>
      <trkpt lat="44.58255" lon="6.87695">
        <ele>2799</ele>
        <time>2020-02-18T12:58:09.000Z</time>
      </trkpt>
      <trkpt lat="44.58255" lon="6.87695">
        <ele>2799</ele>
        <time>2020-02-18T12:58:12.000Z</time>
      </trkpt>
      <trkpt lat="44.58254" lon="6.87695">
        <ele>2799</ele>
        <time>2020-02-18T12:58:17.000Z</time>
      </trkpt>
      <trkpt lat="44.58254" lon="6.87696">
        <ele>2799</ele>
        <time>2020-02-18T12:58:35.000Z</time>
      </trkpt>
      <trkpt lat="44.58254" lon="6.87695">
        <ele>2799</ele>
        <time>2020-02-18T12:58:38.000Z</time>
      </trkpt>
      <trkpt lat="44.58254" lon="6.87695">
        <ele>2799</ele>
        <time>2020-02-18T12:58:40.000Z</time>
      </trkpt>
      <trkpt lat="44.58255" lon="6.87695">
        <ele>2799</ele>
        <time>2020-02-18T12:58:47.000Z</time>
      </trkpt>
      <trkpt lat="44.58255" lon="6.87695">
        <ele>2799</ele>
        <time>2020-02-18T12:58:49.000Z</time>
      </trkpt>
      <trkpt lat="44.58255" lon="6.87695">
        <ele>2799</ele>
        <time>2020-02-18T12:58:51.000Z</time>
      </trkpt>
      <trkpt lat="44.58253" lon="6.87696">
        <ele>2799</ele>
        <time>2020-02-18T12:58:54.000Z</time>
      </trkpt>
      <trkpt lat="44.58253" lon="6.87696">
        <ele>2799</ele>
        <time>2020-02-18T12:58:57.000Z</time>
      </trkpt>
      <trkpt lat="44.58253" lon="6.87696">
        <ele>2799</ele>
        <time>2020-02-18T12:59:02.000Z</time>
      </trkpt>
      <trkpt lat="44.58253" lon="6.87697">
        <ele>2799</ele>
        <time>2020-02-18T12:59:04.000Z</time>
      </trkpt>
      <trkpt lat="44.58254" lon="6.87696">
        <ele>2799</ele>
        <time>2020-02-18T12:59:06.000Z</time>
      </trkpt>
      <trkpt lat="44.58254" lon="6.87696">
        <ele>2799</ele>
        <time>2020-02-18T12:59:09.000Z</time>
      </trkpt>
      <trkpt lat="44.58255" lon="6.87696">
        <ele>2799</ele>
        <time>2020-02-18T12:59:11.000Z</time>
      </trkpt>
      <trkpt lat="44.58257" lon="6.87696">
        <ele>2799</ele>
        <time>2020-02-18T12:59:17.000Z</time>
      </trkpt>
      <trkpt lat="44.58258" lon="6.87696">
        <ele>2799</ele>
        <time>2020-02-18T12:59:19.000Z</time>
      </trkpt>
      <trkpt lat="44.58258" lon="6.87694">
        <ele>2799</ele>
        <time>2020-02-18T12:59:22.000Z</time>
      </trkpt>
      <trkpt lat="44.58257" lon="6.87693">
        <ele>2799</ele>
        <time>2020-02-18T12:59:26.000Z</time>
      </trkpt>
      <trkpt lat="44.58257" lon="6.87693">
        <ele>2799</ele>
        <time>2020-02-18T12:59:27.000Z</time>
      </trkpt>
      <trkpt lat="44.58257" lon="6.87692">
        <ele>2799</ele>
        <time>2020-02-18T12:59:29.000Z</time>
      </trkpt>
      <trkpt lat="44.58256" lon="6.87693">
        <ele>2799</ele>
        <time>2020-02-18T12:59:42.000Z</time>
      </trkpt>
      <trkpt lat="44.58256" lon="6.87693">
        <ele>2799</ele>
        <time>2020-02-18T12:59:46.000Z</time>
      </trkpt>
      <trkpt lat="44.58256" lon="6.87693">
        <ele>2799</ele>
        <time>2020-02-18T12:59:48.000Z</time>
      </trkpt>
      <trkpt lat="44.58257" lon="6.87693">
        <ele>2799</ele>
        <time>2020-02-18T12:59:52.000Z</time>
      </trkpt>
      <trkpt lat="44.58257" lon="6.87693">
        <ele>2799</ele>
        <time>2020-02-18T12:59:59.000Z</time>
      </trkpt>
      <trkpt lat="44.58258" lon="6.87692">
        <ele>2799</ele>
        <time>2020-02-18T13:00:03.000Z</time>
      </trkpt>
      <trkpt lat="44.58258" lon="6.87693">
        <ele>2799</ele>
        <time>2020-02-18T13:00:05.000Z</time>
      </trkpt>
      <trkpt lat="44.58258" lon="6.87694">
        <ele>2799</ele>
        <time>2020-02-18T13:00:06.000Z</time>
      </trkpt>
      <trkpt lat="44.58258" lon="6.87695">
        <ele>2799</ele>
        <time>2020-02-18T13:00:08.000Z</time>
      </trkpt>
      <trkpt lat="44.58258" lon="6.87696">
        <ele>2799</ele>
        <time>2020-02-18T13:00:11.000Z</time>
      </trkpt>
      <trkpt lat="44.58259" lon="6.87696">
        <ele>2799</ele>
        <time>2020-02-18T13:00:14.000Z</time>
      </trkpt>
      <trkpt lat="44.5826" lon="6.87697">
        <ele>2799</ele>
        <time>2020-02-18T13:00:15.000Z</time>
      </trkpt>
      <trkpt lat="44.5826" lon="6.87697">
        <ele>2799</ele>
        <time>2020-02-18T13:00:16.000Z</time>
      </trkpt>
      <trkpt lat="44.5826" lon="6.87697">
        <ele>2799</ele>
        <time>2020-02-18T13:00:20.000Z</time>
      </trkpt>
      <trkpt lat="44.5826" lon="6.87697">
        <ele>2799</ele>
        <time>2020-02-18T13:00:23.000Z</time>
      </trkpt>
      <trkpt lat="44.5826" lon="6.87697">
        <ele>2799</ele>
        <time>2020-02-18T13:00:30.000Z</time>
      </trkpt>
      <trkpt lat="44.5826" lon="6.87695">
        <ele>2799</ele>
        <time>2020-02-18T13:00:33.000Z</time>
      </trkpt>
      <trkpt lat="44.5826" lon="6.87693">
        <ele>2799</ele>
        <time>2020-02-18T13:00:36.000Z</time>
      </trkpt>
      <trkpt lat="44.5826" lon="6.87692">
        <ele>2799</ele>
        <time>2020-02-18T13:00:39.000Z</time>
      </trkpt>
      <trkpt lat="44.58259" lon="6.87692">
        <ele>2799</ele>
        <time>2020-02-18T13:00:41.000Z</time>
      </trkpt>
      <trkpt lat="44.58258" lon="6.87692">
        <ele>2799</ele>
        <time>2020-02-18T13:00:51.000Z</time>
      </trkpt>
      <trkpt lat="44.58259" lon="6.87692">
        <ele>2799</ele>
        <time>2020-02-18T13:00:58.000Z</time>
      </trkpt>
      <trkpt lat="44.58259" lon="6.87691">
        <ele>2799</ele>
        <time>2020-02-18T13:01:04.000Z</time>
      </trkpt>
      <trkpt lat="44.58258" lon="6.87692">
        <ele>2799</ele>
        <time>2020-02-18T13:01:07.000Z</time>
      </trkpt>
      <trkpt lat="44.58258" lon="6.87693">
        <ele>2799</ele>
        <time>2020-02-18T13:01:10.000Z</time>
      </trkpt>
      <trkpt lat="44.58258" lon="6.87693">
        <ele>2799</ele>
        <time>2020-02-18T13:01:20.000Z</time>
      </trkpt>
      <trkpt lat="44.58258" lon="6.87693">
        <ele>2799</ele>
        <time>2020-02-18T13:01:22.000Z</time>
      </trkpt>
      <trkpt lat="44.58258" lon="6.87693">
        <ele>2799</ele>
        <time>2020-02-18T13:01:23.000Z</time>
      </trkpt>
      <trkpt lat="44.58258" lon="6.87693">
        <ele>2799</ele>
        <time>2020-02-18T13:01:24.000Z</time>
      </trkpt>
      <trkpt lat="44.58258" lon="6.87693">
        <ele>2799</ele>
        <time>2020-02-18T13:01:28.000Z</time>
      </trkpt>
      <trkpt lat="44.58258" lon="6.87693">
        <ele>2799</ele>
        <time>2020-02-18T13:01:29.000Z</time>
      </trkpt>
      <trkpt lat="44.58258" lon="6.87693">
        <ele>2799</ele>
        <time>2020-02-18T13:01:30.000Z</time>
      </trkpt>
      <trkpt lat="44.58258" lon="6.87693">
        <ele>2799</ele>
        <time>2020-02-18T13:01:31.000Z</time>
      </trkpt>
      <trkpt lat="44.58258" lon="6.87693">
        <ele>2799</ele>
        <time>2020-02-18T13:01:32.000Z</time>
      </trkpt>
      <trkpt lat="44.58258" lon="6.87693">
        <ele>2799</ele>
        <time>2020-02-18T13:01:33.000Z</time>
      </trkpt>
      <trkpt lat="44.58258" lon="6.87693">
        <ele>2799</ele>
        <time>2020-02-18T13:01:38.000Z</time>
      </trkpt>
      <trkpt lat="44.58258" lon="6.87693">
        <ele>2799</ele>
        <time>2020-02-18T13:01:41.000Z</time>
      </trkpt>
      <trkpt lat="44.58258" lon="6.87693">
        <ele>2799</ele>
        <time>2020-02-18T13:01:42.000Z</time>
      </trkpt>
      <trkpt lat="44.58258" lon="6.87693">
        <ele>2799</ele>
        <time>2020-02-18T13:01:45.000Z</time>
      </trkpt>
      <trkpt lat="44.58258" lon="6.87693">
        <ele>2799</ele>
        <time>2020-02-18T13:01:47.000Z</time>
      </trkpt>
      <trkpt lat="44.58259" lon="6.87693">
        <ele>2799</ele>
        <time>2020-02-18T13:01:51.000Z</time>
      </trkpt>
      <trkpt lat="44.58258" lon="6.87692">
        <ele>2799</ele>
        <time>2020-02-18T13:01:53.000Z</time>
      </trkpt>
      <trkpt lat="44.58257" lon="6.87691">
        <ele>2799</ele>
        <time>2020-02-18T13:01:56.000Z</time>
      </trkpt>
      <trkpt lat="44.58259" lon="6.87691">
        <ele>2799</ele>
        <time>2020-02-18T13:02:04.000Z</time>
      </trkpt>
      <trkpt lat="44.58257" lon="6.87691">
        <ele>2799</ele>
        <time>2020-02-18T13:02:14.000Z</time>
      </trkpt>
      <trkpt lat="44.58257" lon="6.87691">
        <ele>2799</ele>
        <time>2020-02-18T13:02:18.000Z</time>
      </trkpt>
      <trkpt lat="44.58257" lon="6.87691">
        <ele>2799</ele>
        <time>2020-02-18T13:02:19.000Z</time>
      </trkpt>
      <trkpt lat="44.58257" lon="6.87691">
        <ele>2799</ele>
        <time>2020-02-18T13:02:20.000Z</time>
      </trkpt>
      <trkpt lat="44.58257" lon="6.87691">
        <ele>2799</ele>
        <time>2020-02-18T13:02:21.000Z</time>
      </trkpt>
      <trkpt lat="44.58257" lon="6.87691">
        <ele>2799</ele>
        <time>2020-02-18T13:02:23.000Z</time>
      </trkpt>
      <trkpt lat="44.58258" lon="6.8769">
        <ele>2799</ele>
        <time>2020-02-18T13:02:29.000Z</time>
      </trkpt>
      <trkpt lat="44.58258" lon="6.8769">
        <ele>2799</ele>
        <time>2020-02-18T13:02:31.000Z</time>
      </trkpt>
      <trkpt lat="44.58258" lon="6.8769">
        <ele>2799</ele>
        <time>2020-02-18T13:02:33.000Z</time>
      </trkpt>
      <trkpt lat="44.58259" lon="6.87689">
        <ele>2799</ele>
        <time>2020-02-18T13:02:41.000Z</time>
      </trkpt>
      <trkpt lat="44.58258" lon="6.8769">
        <ele>2799</ele>
        <time>2020-02-18T13:02:48.000Z</time>
      </trkpt>
      <trkpt lat="44.58256" lon="6.87693">
        <ele>2799</ele>
        <time>2020-02-18T13:02:56.000Z</time>
      </trkpt>
      <trkpt lat="44.58257" lon="6.87692">
        <ele>2799</ele>
        <time>2020-02-18T13:03:22.000Z</time>
      </trkpt>
      <trkpt lat="44.58256" lon="6.87693">
        <ele>2799</ele>
        <time>2020-02-18T13:03:27.000Z</time>
      </trkpt>
      <trkpt lat="44.58258" lon="6.87693">
        <ele>2799</ele>
        <time>2020-02-18T13:03:36.000Z</time>
      </trkpt>
      <trkpt lat="44.58259" lon="6.87693">
        <ele>2799</ele>
        <time>2020-02-18T13:03:41.000Z</time>
      </trkpt>
      <trkpt lat="44.58259" lon="6.87693">
        <ele>2799</ele>
        <time>2020-02-18T13:03:44.000Z</time>
      </trkpt>
      <trkpt lat="44.58259" lon="6.87693">
        <ele>2799</ele>
        <time>2020-02-18T13:03:51.000Z</time>
      </trkpt>
      <trkpt lat="44.58259" lon="6.87692">
        <ele>2799</ele>
        <time>2020-02-18T13:03:55.000Z</time>
      </trkpt>
      <trkpt lat="44.58259" lon="6.87691">
        <ele>2799</ele>
        <time>2020-02-18T13:03:59.000Z</time>
      </trkpt>
      <trkpt lat="44.58259" lon="6.87692">
        <ele>2799</ele>
        <time>2020-02-18T13:04:01.000Z</time>
      </trkpt>
      <trkpt lat="44.58259" lon="6.87691">
        <ele>2799</ele>
        <time>2020-02-18T13:04:06.000Z</time>
      </trkpt>
      <trkpt lat="44.58259" lon="6.87691">
        <ele>2799</ele>
        <time>2020-02-18T13:04:07.000Z</time>
      </trkpt>
      <trkpt lat="44.58259" lon="6.87691">
        <ele>2799</ele>
        <time>2020-02-18T13:04:08.000Z</time>
      </trkpt>
      <trkpt lat="44.58258" lon="6.87691">
        <ele>2799</ele>
        <time>2020-02-18T13:04:10.000Z</time>
      </trkpt>
      <trkpt lat="44.58259" lon="6.87692">
        <ele>2799</ele>
        <time>2020-02-18T13:04:14.000Z</time>
      </trkpt>
      <trkpt lat="44.58259" lon="6.87693">
        <ele>2799</ele>
        <time>2020-02-18T13:04:20.000Z</time>
      </trkpt>
      <trkpt lat="44.58259" lon="6.87693">
        <ele>2799</ele>
        <time>2020-02-18T13:04:21.000Z</time>
      </trkpt>
      <trkpt lat="44.58259" lon="6.87695">
        <ele>2799</ele>
        <time>2020-02-18T13:04:24.000Z</time>
      </trkpt>
      <trkpt lat="44.58259" lon="6.87695">
        <ele>2799</ele>
        <time>2020-02-18T13:04:25.000Z</time>
      </trkpt>
      <trkpt lat="44.58259" lon="6.87695">
        <ele>2799</ele>
        <time>2020-02-18T13:04:26.000Z</time>
      </trkpt>
      <trkpt lat="44.58259" lon="6.87695">
        <ele>2799</ele>
        <time>2020-02-18T13:04:28.000Z</time>
      </trkpt>
      <trkpt lat="44.58259" lon="6.87695">
        <ele>2799</ele>
        <time>2020-02-18T13:04:31.000Z</time>
      </trkpt>
      <trkpt lat="44.58259" lon="6.87695">
        <ele>2799</ele>
        <time>2020-02-18T13:04:33.000Z</time>
      </trkpt>
      <trkpt lat="44.58259" lon="6.87695">
        <ele>2799</ele>
        <time>2020-02-18T13:04:35.000Z</time>
      </trkpt>
      <trkpt lat="44.58259" lon="6.87695">
        <ele>2799</ele>
        <time>2020-02-18T13:04:36.000Z</time>
      </trkpt>
      <trkpt lat="44.58259" lon="6.87695">
        <ele>2799</ele>
        <time>2020-02-18T13:04:44.000Z</time>
      </trkpt>
      <trkpt lat="44.58258" lon="6.87695">
        <ele>2799</ele>
        <time>2020-02-18T13:04:46.000Z</time>
      </trkpt>
      <trkpt lat="44.58258" lon="6.87695">
        <ele>2799</ele>
        <time>2020-02-18T13:04:49.000Z</time>
      </trkpt>
      <trkpt lat="44.58258" lon="6.87695">
        <ele>2799</ele>
        <time>2020-02-18T13:04:50.000Z</time>
      </trkpt>
      <trkpt lat="44.58259" lon="6.87695">
        <ele>2799</ele>
        <time>2020-02-18T13:05:09.000Z</time>
      </trkpt>
      <trkpt lat="44.58259" lon="6.87695">
        <ele>2799</ele>
        <time>2020-02-18T13:05:10.000Z</time>
      </trkpt>
      <trkpt lat="44.58259" lon="6.87696">
        <ele>2799</ele>
        <time>2020-02-18T13:05:12.000Z</time>
      </trkpt>
      <trkpt lat="44.58259" lon="6.87696">
        <ele>2799</ele>
        <time>2020-02-18T13:05:14.000Z</time>
      </trkpt>
      <trkpt lat="44.58259" lon="6.87697">
        <ele>2799</ele>
        <time>2020-02-18T13:05:18.000Z</time>
      </trkpt>
      <trkpt lat="44.58259" lon="6.87698">
        <ele>2799</ele>
        <time>2020-02-18T13:05:20.000Z</time>
      </trkpt>
      <trkpt lat="44.58259" lon="6.87698">
        <ele>2799</ele>
        <time>2020-02-18T13:05:24.000Z</time>
      </trkpt>
      <trkpt lat="44.58259" lon="6.87698">
        <ele>2799</ele>
        <time>2020-02-18T13:05:25.000Z</time>
      </trkpt>
      <trkpt lat="44.58259" lon="6.87698">
        <ele>2799</ele>
        <time>2020-02-18T13:05:26.000Z</time>
      </trkpt>
      <trkpt lat="44.58259" lon="6.87698">
        <ele>2799</ele>
        <time>2020-02-18T13:05:27.000Z</time>
      </trkpt>
      <trkpt lat="44.58258" lon="6.87698">
        <ele>2799</ele>
        <time>2020-02-18T13:05:28.000Z</time>
      </trkpt>
      <trkpt lat="44.58258" lon="6.87698">
        <ele>2799</ele>
        <time>2020-02-18T13:05:30.000Z</time>
      </trkpt>
      <trkpt lat="44.58258" lon="6.87698">
        <ele>2799</ele>
        <time>2020-02-18T13:05:33.000Z</time>
      </trkpt>
      <trkpt lat="44.58258" lon="6.87698">
        <ele>2799</ele>
        <time>2020-02-18T13:05:37.000Z</time>
      </trkpt>
      <trkpt lat="44.5826" lon="6.87696">
        <ele>2799</ele>
        <time>2020-02-18T13:05:41.000Z</time>
      </trkpt>
      <trkpt lat="44.5826" lon="6.87696">
        <ele>2799</ele>
        <time>2020-02-18T13:05:43.000Z</time>
      </trkpt>
      <trkpt lat="44.58261" lon="6.87695">
        <ele>2799</ele>
        <time>2020-02-18T13:05:45.000Z</time>
      </trkpt>
      <trkpt lat="44.5826" lon="6.87695">
        <ele>2799</ele>
        <time>2020-02-18T13:05:50.000Z</time>
      </trkpt>
      <trkpt lat="44.58261" lon="6.87695">
        <ele>2799</ele>
        <time>2020-02-18T13:05:51.000Z</time>
      </trkpt>
      <trkpt lat="44.5826" lon="6.87696">
        <ele>2799</ele>
        <time>2020-02-18T13:05:55.000Z</time>
      </trkpt>
      <trkpt lat="44.5826" lon="6.87696">
        <ele>2799</ele>
        <time>2020-02-18T13:05:57.000Z</time>
      </trkpt>
      <trkpt lat="44.5826" lon="6.87694">
        <ele>2799</ele>
        <time>2020-02-18T13:06:05.000Z</time>
      </trkpt>
      <trkpt lat="44.5826" lon="6.87694">
        <ele>2799</ele>
        <time>2020-02-18T13:06:12.000Z</time>
      </trkpt>
      <trkpt lat="44.5826" lon="6.87694">
        <ele>2799</ele>
        <time>2020-02-18T13:06:14.000Z</time>
      </trkpt>
      <trkpt lat="44.5826" lon="6.87694">
        <ele>2799</ele>
        <time>2020-02-18T13:06:16.000Z</time>
      </trkpt>
      <trkpt lat="44.58262" lon="6.87691">
        <ele>2799</ele>
        <time>2020-02-18T13:06:22.000Z</time>
      </trkpt>
      <trkpt lat="44.5826" lon="6.87693">
        <ele>2799</ele>
        <time>2020-02-18T13:06:29.000Z</time>
      </trkpt>
      <trkpt lat="44.5826" lon="6.87693">
        <ele>2799</ele>
        <time>2020-02-18T13:06:30.000Z</time>
      </trkpt>
      <trkpt lat="44.58257" lon="6.87693">
        <ele>2799</ele>
        <time>2020-02-18T13:06:38.000Z</time>
      </trkpt>
      <trkpt lat="44.58256" lon="6.87692">
        <ele>2799</ele>
        <time>2020-02-18T13:06:47.000Z</time>
      </trkpt>
      <trkpt lat="44.58256" lon="6.87692">
        <ele>2799</ele>
        <time>2020-02-18T13:06:49.000Z</time>
      </trkpt>
      <trkpt lat="44.58256" lon="6.87692">
        <ele>2799</ele>
        <time>2020-02-18T13:06:56.000Z</time>
      </trkpt>
      <trkpt lat="44.58256" lon="6.87692">
        <ele>2799</ele>
        <time>2020-02-18T13:07:02.000Z</time>
      </trkpt>
      <trkpt lat="44.58257" lon="6.87694">
        <ele>2799</ele>
        <time>2020-02-18T13:07:09.000Z</time>
      </trkpt>
      <trkpt lat="44.58258" lon="6.87695">
        <ele>2799</ele>
        <time>2020-02-18T13:07:15.000Z</time>
      </trkpt>
      <trkpt lat="44.58258" lon="6.87696">
        <ele>2799</ele>
        <time>2020-02-18T13:07:33.000Z</time>
      </trkpt>
      <trkpt lat="44.58257" lon="6.87697">
        <ele>2799</ele>
        <time>2020-02-18T13:07:42.000Z</time>
      </trkpt>
      <trkpt lat="44.58257" lon="6.87696">
        <ele>2799</ele>
        <time>2020-02-18T13:07:52.000Z</time>
      </trkpt>
      <trkpt lat="44.58257" lon="6.87696">
        <ele>2799</ele>
        <time>2020-02-18T13:07:59.000Z</time>
      </trkpt>
      <trkpt lat="44.58258" lon="6.87695">
        <ele>2799</ele>
        <time>2020-02-18T13:08:01.000Z</time>
      </trkpt>
      <trkpt lat="44.58257" lon="6.87694">
        <ele>2799</ele>
        <time>2020-02-18T13:08:04.000Z</time>
      </trkpt>
      <trkpt lat="44.58257" lon="6.87694">
        <ele>2799</ele>
        <time>2020-02-18T13:08:11.000Z</time>
      </trkpt>
      <trkpt lat="44.58257" lon="6.87694">
        <ele>2799</ele>
        <time>2020-02-18T13:08:13.000Z</time>
      </trkpt>
      <trkpt lat="44.58257" lon="6.87694">
        <ele>2799</ele>
        <time>2020-02-18T13:08:28.000Z</time>
      </trkpt>
      <trkpt lat="44.58258" lon="6.87693">
        <ele>2799</ele>
        <time>2020-02-18T13:08:31.000Z</time>
      </trkpt>
      <trkpt lat="44.58258" lon="6.87692">
        <ele>2799</ele>
        <time>2020-02-18T13:08:35.000Z</time>
      </trkpt>
      <trkpt lat="44.58258" lon="6.87692">
        <ele>2799</ele>
        <time>2020-02-18T13:08:37.000Z</time>
      </trkpt>
      <trkpt lat="44.58258" lon="6.87692">
        <ele>2799</ele>
        <time>2020-02-18T13:08:39.000Z</time>
      </trkpt>
      <trkpt lat="44.58258" lon="6.87692">
        <ele>2799</ele>
        <time>2020-02-18T13:08:40.000Z</time>
      </trkpt>
      <trkpt lat="44.58258" lon="6.87692">
        <ele>2799</ele>
        <time>2020-02-18T13:08:42.000Z</time>
      </trkpt>
      <trkpt lat="44.58258" lon="6.87692">
        <ele>2799</ele>
        <time>2020-02-18T13:08:44.000Z</time>
      </trkpt>
      <trkpt lat="44.58258" lon="6.87692">
        <ele>2799</ele>
        <time>2020-02-18T13:08:48.000Z</time>
      </trkpt>
      <trkpt lat="44.58258" lon="6.87692">
        <ele>2799</ele>
        <time>2020-02-18T13:08:52.000Z</time>
      </trkpt>
      <trkpt lat="44.58258" lon="6.87691">
        <ele>2799</ele>
        <time>2020-02-18T13:08:54.000Z</time>
      </trkpt>
      <trkpt lat="44.58258" lon="6.87691">
        <ele>2799</ele>
        <time>2020-02-18T13:08:56.000Z</time>
      </trkpt>
      <trkpt lat="44.58259" lon="6.87692">
        <ele>2799</ele>
        <time>2020-02-18T13:08:58.000Z</time>
      </trkpt>
      <trkpt lat="44.58259" lon="6.87692">
        <ele>2799</ele>
        <time>2020-02-18T13:08:59.000Z</time>
      </trkpt>
      <trkpt lat="44.58259" lon="6.87692">
        <ele>2799</ele>
        <time>2020-02-18T13:09:02.000Z</time>
      </trkpt>
      <trkpt lat="44.58259" lon="6.87693">
        <ele>2799</ele>
        <time>2020-02-18T13:09:05.000Z</time>
      </trkpt>
      <trkpt lat="44.58259" lon="6.87693">
        <ele>2799</ele>
        <time>2020-02-18T13:09:07.000Z</time>
      </trkpt>
      <trkpt lat="44.58259" lon="6.87693">
        <ele>2799</ele>
        <time>2020-02-18T13:09:08.000Z</time>
      </trkpt>
      <trkpt lat="44.58258" lon="6.87693">
        <ele>2799</ele>
        <time>2020-02-18T13:09:11.000Z</time>
      </trkpt>
      <trkpt lat="44.58258" lon="6.87693">
        <ele>2799</ele>
        <time>2020-02-18T13:09:13.000Z</time>
      </trkpt>
      <trkpt lat="44.58259" lon="6.87693">
        <ele>2799</ele>
        <time>2020-02-18T13:09:24.000Z</time>
      </trkpt>
      <trkpt lat="44.58258" lon="6.87693">
        <ele>2799</ele>
        <time>2020-02-18T13:09:26.000Z</time>
      </trkpt>
      <trkpt lat="44.58258" lon="6.87694">
        <ele>2799</ele>
        <time>2020-02-18T13:09:27.000Z</time>
      </trkpt>
      <trkpt lat="44.58255" lon="6.87697">
        <ele>2799</ele>
        <time>2020-02-18T13:09:30.000Z</time>
      </trkpt>
      <trkpt lat="44.58241" lon="6.87717">
        <ele>2798.1999511719</ele>
        <time>2020-02-18T13:09:39.000Z</time>
      </trkpt>
      <trkpt lat="44.58237" lon="6.87715">
        <ele>2797.3999023438</ele>
        <time>2020-02-18T13:09:41.000Z</time>
      </trkpt>
      <trkpt lat="44.58234" lon="6.87711">
        <ele>2795.8000488281</ele>
        <time>2020-02-18T13:09:43.000Z</time>
      </trkpt>
      <trkpt lat="44.58229" lon="6.87706">
        <ele>2793.8000488281</ele>
        <time>2020-02-18T13:09:45.000Z</time>
      </trkpt>
      <trkpt lat="44.58227" lon="6.87702">
        <ele>2792.3999023438</ele>
        <time>2020-02-18T13:09:46.000Z</time>
      </trkpt>
      <trkpt lat="44.58224" lon="6.87698">
        <ele>2790.8000488281</ele>
        <time>2020-02-18T13:09:47.000Z</time>
      </trkpt>
      <trkpt lat="44.58221" lon="6.87698">
        <ele>2789.1999511719</ele>
        <time>2020-02-18T13:09:48.000Z</time>
      </trkpt>
      <trkpt lat="44.58216" lon="6.87701">
        <ele>2787.8000488281</ele>
        <time>2020-02-18T13:09:49.000Z</time>
      </trkpt>
      <trkpt lat="44.5821" lon="6.87703">
        <ele>2786.6000976562</ele>
        <time>2020-02-18T13:09:50.000Z</time>
      </trkpt>
      <trkpt lat="44.58203" lon="6.87703">
        <ele>2785.1999511719</ele>
        <time>2020-02-18T13:09:51.000Z</time>
      </trkpt>
      <trkpt lat="44.58195" lon="6.877">
        <ele>2784</ele>
        <time>2020-02-18T13:09:52.000Z</time>
      </trkpt>
      <trkpt lat="44.58188" lon="6.87697">
        <ele>2782.3999023438</ele>
        <time>2020-02-18T13:09:53.000Z</time>
      </trkpt>
      <trkpt lat="44.58182" lon="6.87691">
        <ele>2781.1999511719</ele>
        <time>2020-02-18T13:09:54.000Z</time>
      </trkpt>
      <trkpt lat="44.58176" lon="6.87686">
        <ele>2779.8000488281</ele>
        <time>2020-02-18T13:09:55.000Z</time>
      </trkpt>
      <trkpt lat="44.58167" lon="6.87675">
        <ele>2778.3999023438</ele>
        <time>2020-02-18T13:09:57.000Z</time>
      </trkpt>
      <trkpt lat="44.58164" lon="6.87673">
        <ele>2778</ele>
        <time>2020-02-18T13:09:58.000Z</time>
      </trkpt>
      <trkpt lat="44.5816" lon="6.87674">
        <ele>2777.1999511719</ele>
        <time>2020-02-18T13:10:00.000Z</time>
      </trkpt>
      <trkpt lat="44.58159" lon="6.87677">
        <ele>2776.6000976562</ele>
        <time>2020-02-18T13:10:02.000Z</time>
      </trkpt>
      <trkpt lat="44.58159" lon="6.87683">
        <ele>2776.1999511719</ele>
        <time>2020-02-18T13:10:05.000Z</time>
      </trkpt>
      <trkpt lat="44.5816" lon="6.87703">
        <ele>2775.3999023438</ele>
        <time>2020-02-18T13:10:10.000Z</time>
      </trkpt>
      <trkpt lat="44.58161" lon="6.87708">
        <ele>2775.1999511719</ele>
        <time>2020-02-18T13:10:11.000Z</time>
      </trkpt>
      <trkpt lat="44.5816" lon="6.87728">
        <ele>2774</ele>
        <time>2020-02-18T13:10:16.000Z</time>
      </trkpt>
      <trkpt lat="44.58158" lon="6.8775">
        <ele>2773</ele>
        <time>2020-02-18T13:10:23.000Z</time>
      </trkpt>
      <trkpt lat="44.58157" lon="6.87757">
        <ele>2772.6000976562</ele>
        <time>2020-02-18T13:10:27.000Z</time>
      </trkpt>
      <trkpt lat="44.58155" lon="6.87761">
        <ele>2772</ele>
        <time>2020-02-18T13:10:38.000Z</time>
      </trkpt>
      <trkpt lat="44.58154" lon="6.8776">
        <ele>2771.8000488281</ele>
        <time>2020-02-18T13:10:47.000Z</time>
      </trkpt>
      <trkpt lat="44.58154" lon="6.8776">
        <ele>2771.8000488281</ele>
        <time>2020-02-18T13:10:51.000Z</time>
      </trkpt>
      <trkpt lat="44.58154" lon="6.8776">
        <ele>2771.8000488281</ele>
        <time>2020-02-18T13:10:53.000Z</time>
      </trkpt>
      <trkpt lat="44.58154" lon="6.8776">
        <ele>2771.8000488281</ele>
        <time>2020-02-18T13:10:58.000Z</time>
      </trkpt>
      <trkpt lat="44.58154" lon="6.8776">
        <ele>2771.8000488281</ele>
        <time>2020-02-18T13:11:00.000Z</time>
      </trkpt>
      <trkpt lat="44.58154" lon="6.87759">
        <ele>2771.6000976562</ele>
        <time>2020-02-18T13:11:02.000Z</time>
      </trkpt>
      <trkpt lat="44.58154" lon="6.87759">
        <ele>2771.6000976562</ele>
        <time>2020-02-18T13:11:04.000Z</time>
      </trkpt>
      <trkpt lat="44.58153" lon="6.87759">
        <ele>2771.6000976562</ele>
        <time>2020-02-18T13:11:09.000Z</time>
      </trkpt>
      <trkpt lat="44.58154" lon="6.8776">
        <ele>2771.6000976562</ele>
        <time>2020-02-18T13:11:16.000Z</time>
      </trkpt>
      <trkpt lat="44.58154" lon="6.8776">
        <ele>2771.6000976562</ele>
        <time>2020-02-18T13:11:22.000Z</time>
      </trkpt>
      <trkpt lat="44.58153" lon="6.8776">
        <ele>2771.6000976562</ele>
        <time>2020-02-18T13:11:24.000Z</time>
      </trkpt>
      <trkpt lat="44.58152" lon="6.87761">
        <ele>2771.1999511719</ele>
        <time>2020-02-18T13:11:28.000Z</time>
      </trkpt>
      <trkpt lat="44.58152" lon="6.87761">
        <ele>2771.6000976562</ele>
        <time>2020-02-18T13:11:34.000Z</time>
      </trkpt>
      <trkpt lat="44.58152" lon="6.87761">
        <ele>2771.8000488281</ele>
        <time>2020-02-18T13:11:41.000Z</time>
      </trkpt>
      <trkpt lat="44.58152" lon="6.87761">
        <ele>2771.8000488281</ele>
        <time>2020-02-18T13:11:43.000Z</time>
      </trkpt>
      <trkpt lat="44.58152" lon="6.87761">
        <ele>2771.8000488281</ele>
        <time>2020-02-18T13:11:46.000Z</time>
      </trkpt>
      <trkpt lat="44.58152" lon="6.87762">
        <ele>2771.8000488281</ele>
        <time>2020-02-18T13:11:47.000Z</time>
      </trkpt>
      <trkpt lat="44.58151" lon="6.87762">
        <ele>2771.8000488281</ele>
        <time>2020-02-18T13:11:49.000Z</time>
      </trkpt>
      <trkpt lat="44.5815" lon="6.87763">
        <ele>2771.8000488281</ele>
        <time>2020-02-18T13:11:50.000Z</time>
      </trkpt>
      <trkpt lat="44.58149" lon="6.87765">
        <ele>2771.8000488281</ele>
        <time>2020-02-18T13:11:51.000Z</time>
      </trkpt>
      <trkpt lat="44.58148" lon="6.87766">
        <ele>2771.8000488281</ele>
        <time>2020-02-18T13:11:52.000Z</time>
      </trkpt>
      <trkpt lat="44.58147" lon="6.87767">
        <ele>2771.8000488281</ele>
        <time>2020-02-18T13:11:53.000Z</time>
      </trkpt>
      <trkpt lat="44.58145" lon="6.87768">
        <ele>2771.8000488281</ele>
        <time>2020-02-18T13:11:57.000Z</time>
      </trkpt>
      <trkpt lat="44.58144" lon="6.8777">
        <ele>2771.8000488281</ele>
        <time>2020-02-18T13:11:59.000Z</time>
      </trkpt>
      <trkpt lat="44.58142" lon="6.87772">
        <ele>2771.8000488281</ele>
        <time>2020-02-18T13:12:00.000Z</time>
      </trkpt>
      <trkpt lat="44.5814" lon="6.87771">
        <ele>2771.8000488281</ele>
        <time>2020-02-18T13:12:02.000Z</time>
      </trkpt>
      <trkpt lat="44.5814" lon="6.8777">
        <ele>2769.1999511719</ele>
        <time>2020-02-18T13:12:03.000Z</time>
      </trkpt>
      <trkpt lat="44.5814" lon="6.87769">
        <ele>2768.1999511719</ele>
        <time>2020-02-18T13:12:04.000Z</time>
      </trkpt>
      <trkpt lat="44.5814" lon="6.87769">
        <ele>2767.6000976562</ele>
        <time>2020-02-18T13:12:05.000Z</time>
      </trkpt>
      <trkpt lat="44.5814" lon="6.87769">
        <ele>2767.1999511719</ele>
        <time>2020-02-18T13:12:07.000Z</time>
      </trkpt>
      <trkpt lat="44.5814" lon="6.87769">
        <ele>2767</ele>
        <time>2020-02-18T13:12:09.000Z</time>
      </trkpt>
      <trkpt lat="44.5814" lon="6.87769">
        <ele>2767</ele>
        <time>2020-02-18T13:12:15.000Z</time>
      </trkpt>
      <trkpt lat="44.58138" lon="6.87765">
        <ele>2766.6000976562</ele>
        <time>2020-02-18T13:12:31.000Z</time>
      </trkpt>
      <trkpt lat="44.58138" lon="6.87765">
        <ele>2766.6000976562</ele>
        <time>2020-02-18T13:12:32.000Z</time>
      </trkpt>
      <trkpt lat="44.58138" lon="6.87765">
        <ele>2766.6000976562</ele>
        <time>2020-02-18T13:12:37.000Z</time>
      </trkpt>
      <trkpt lat="44.58137" lon="6.87765">
        <ele>2766.6000976562</ele>
        <time>2020-02-18T13:12:38.000Z</time>
      </trkpt>
      <trkpt lat="44.58134" lon="6.87764">
        <ele>2766.6000976562</ele>
        <time>2020-02-18T13:12:40.000Z</time>
      </trkpt>
      <trkpt lat="44.58133" lon="6.87766">
        <ele>2766.1999511719</ele>
        <time>2020-02-18T13:12:41.000Z</time>
      </trkpt>
      <trkpt lat="44.58132" lon="6.87768">
        <ele>2765.8000488281</ele>
        <time>2020-02-18T13:12:42.000Z</time>
      </trkpt>
      <trkpt lat="44.5813" lon="6.87775">
        <ele>2764.6000976562</ele>
        <time>2020-02-18T13:12:44.000Z</time>
      </trkpt>
      <trkpt lat="44.58127" lon="6.87782">
        <ele>2763.3999023438</ele>
        <time>2020-02-18T13:12:46.000Z</time>
      </trkpt>
      <trkpt lat="44.58125" lon="6.87785">
        <ele>2762.8000488281</ele>
        <time>2020-02-18T13:12:47.000Z</time>
      </trkpt>
      <trkpt lat="44.58123" lon="6.87784">
        <ele>2762</ele>
        <time>2020-02-18T13:12:48.000Z</time>
      </trkpt>
      <trkpt lat="44.58118" lon="6.8778">
        <ele>2759.8000488281</ele>
        <time>2020-02-18T13:12:50.000Z</time>
      </trkpt>
      <trkpt lat="44.58115" lon="6.87781">
        <ele>2758.6000976562</ele>
        <time>2020-02-18T13:12:51.000Z</time>
      </trkpt>
      <trkpt lat="44.58112" lon="6.87783">
        <ele>2757.6000976562</ele>
        <time>2020-02-18T13:12:52.000Z</time>
      </trkpt>
      <trkpt lat="44.58108" lon="6.87783">
        <ele>2756.1999511719</ele>
        <time>2020-02-18T13:12:53.000Z</time>
      </trkpt>
      <trkpt lat="44.58104" lon="6.8778">
        <ele>2754.8000488281</ele>
        <time>2020-02-18T13:12:54.000Z</time>
      </trkpt>
      <trkpt lat="44.58101" lon="6.87779">
        <ele>2753</ele>
        <time>2020-02-18T13:12:55.000Z</time>
      </trkpt>
      <trkpt lat="44.58096" lon="6.87781">
        <ele>2751.1999511719</ele>
        <time>2020-02-18T13:12:56.000Z</time>
      </trkpt>
      <trkpt lat="44.58092" lon="6.87783">
        <ele>2749.6000976562</ele>
        <time>2020-02-18T13:12:57.000Z</time>
      </trkpt>
      <trkpt lat="44.58089" lon="6.87782">
        <ele>2748</ele>
        <time>2020-02-18T13:12:58.000Z</time>
      </trkpt>
      <trkpt lat="44.58086" lon="6.87779">
        <ele>2746</ele>
        <time>2020-02-18T13:12:59.000Z</time>
      </trkpt>
      <trkpt lat="44.58083" lon="6.87775">
        <ele>2744</ele>
        <time>2020-02-18T13:13:00.000Z</time>
      </trkpt>
      <trkpt lat="44.5808" lon="6.87774">
        <ele>2742.1999511719</ele>
        <time>2020-02-18T13:13:01.000Z</time>
      </trkpt>
      <trkpt lat="44.58077" lon="6.87775">
        <ele>2741</ele>
        <time>2020-02-18T13:13:02.000Z</time>
      </trkpt>
      <trkpt lat="44.58073" lon="6.8778">
        <ele>2739.6000976562</ele>
        <time>2020-02-18T13:13:03.000Z</time>
      </trkpt>
      <trkpt lat="44.58069" lon="6.87781">
        <ele>2738.3999023438</ele>
        <time>2020-02-18T13:13:04.000Z</time>
      </trkpt>
      <trkpt lat="44.58066" lon="6.87779">
        <ele>2737</ele>
        <time>2020-02-18T13:13:05.000Z</time>
      </trkpt>
      <trkpt lat="44.58063" lon="6.87775">
        <ele>2735.3999023438</ele>
        <time>2020-02-18T13:13:06.000Z</time>
      </trkpt>
      <trkpt lat="44.58059" lon="6.87776">
        <ele>2733.6000976562</ele>
        <time>2020-02-18T13:13:07.000Z</time>
      </trkpt>
      <trkpt lat="44.58054" lon="6.87778">
        <ele>2732.3999023438</ele>
        <time>2020-02-18T13:13:08.000Z</time>
      </trkpt>
      <trkpt lat="44.58047" lon="6.87782">
        <ele>2731.1999511719</ele>
        <time>2020-02-18T13:13:09.000Z</time>
      </trkpt>
      <trkpt lat="44.58039" lon="6.87785">
        <ele>2730.1999511719</ele>
        <time>2020-02-18T13:13:10.000Z</time>
      </trkpt>
      <trkpt lat="44.58032" lon="6.87787">
        <ele>2729</ele>
        <time>2020-02-18T13:13:11.000Z</time>
      </trkpt>
      <trkpt lat="44.58026" lon="6.87788">
        <ele>2728</ele>
        <time>2020-02-18T13:13:12.000Z</time>
      </trkpt>
      <trkpt lat="44.58017" lon="6.87788">
        <ele>2726.8000488281</ele>
        <time>2020-02-18T13:13:14.000Z</time>
      </trkpt>
      <trkpt lat="44.58001" lon="6.87786">
        <ele>2726.3999023438</ele>
        <time>2020-02-18T13:13:22.000Z</time>
      </trkpt>
      <trkpt lat="44.57998" lon="6.87786">
        <ele>2726.1999511719</ele>
        <time>2020-02-18T13:13:25.000Z</time>
      </trkpt>
      <trkpt lat="44.57994" lon="6.87785">
        <ele>2726.1999511719</ele>
        <time>2020-02-18T13:13:32.000Z</time>
      </trkpt>
      <trkpt lat="44.57993" lon="6.87785">
        <ele>2726.1999511719</ele>
        <time>2020-02-18T13:13:33.000Z</time>
      </trkpt>
      <trkpt lat="44.57992" lon="6.87785">
        <ele>2726.1999511719</ele>
        <time>2020-02-18T13:13:34.000Z</time>
      </trkpt>
      <trkpt lat="44.57992" lon="6.87785">
        <ele>2726.1999511719</ele>
        <time>2020-02-18T13:13:37.000Z</time>
      </trkpt>
      <trkpt lat="44.57991" lon="6.87785">
        <ele>2726.1999511719</ele>
        <time>2020-02-18T13:13:53.000Z</time>
      </trkpt>
      <trkpt lat="44.57991" lon="6.87785">
        <ele>2726.1999511719</ele>
        <time>2020-02-18T13:13:58.000Z</time>
      </trkpt>
      <trkpt lat="44.57988" lon="6.87785">
        <ele>2726.3999023438</ele>
        <time>2020-02-18T13:14:07.000Z</time>
      </trkpt>
      <trkpt lat="44.57987" lon="6.87785">
        <ele>2726.1999511719</ele>
        <time>2020-02-18T13:14:10.000Z</time>
      </trkpt>
      <trkpt lat="44.57988" lon="6.87784">
        <ele>2726.1999511719</ele>
        <time>2020-02-18T13:14:13.000Z</time>
      </trkpt>
      <trkpt lat="44.57988" lon="6.87783">
        <ele>2726.1999511719</ele>
        <time>2020-02-18T13:14:14.000Z</time>
      </trkpt>
      <trkpt lat="44.57988" lon="6.87782">
        <ele>2726.1999511719</ele>
        <time>2020-02-18T13:14:15.000Z</time>
      </trkpt>
      <trkpt lat="44.57988" lon="6.87783">
        <ele>2726.1999511719</ele>
        <time>2020-02-18T13:14:16.000Z</time>
      </trkpt>
      <trkpt lat="44.57987" lon="6.87784">
        <ele>2726.1999511719</ele>
        <time>2020-02-18T13:14:17.000Z</time>
      </trkpt>
      <trkpt lat="44.57987" lon="6.87783">
        <ele>2726.1999511719</ele>
        <time>2020-02-18T13:14:18.000Z</time>
      </trkpt>
      <trkpt lat="44.57987" lon="6.87783">
        <ele>2726.1999511719</ele>
        <time>2020-02-18T13:14:19.000Z</time>
      </trkpt>
      <trkpt lat="44.57987" lon="6.87783">
        <ele>2726.1999511719</ele>
        <time>2020-02-18T13:14:20.000Z</time>
      </trkpt>
      <trkpt lat="44.57986" lon="6.87783">
        <ele>2726.1999511719</ele>
        <time>2020-02-18T13:14:22.000Z</time>
      </trkpt>
      <trkpt lat="44.57985" lon="6.87784">
        <ele>2726.1999511719</ele>
        <time>2020-02-18T13:14:31.000Z</time>
      </trkpt>
      <trkpt lat="44.57985" lon="6.87785">
        <ele>2726.1999511719</ele>
        <time>2020-02-18T13:14:41.000Z</time>
      </trkpt>
      <trkpt lat="44.57986" lon="6.87785">
        <ele>2726</ele>
        <time>2020-02-18T13:14:47.000Z</time>
      </trkpt>
      <trkpt lat="44.57987" lon="6.87784">
        <ele>2726</ele>
        <time>2020-02-18T13:14:53.000Z</time>
      </trkpt>
      <trkpt lat="44.57988" lon="6.87784">
        <ele>2726</ele>
        <time>2020-02-18T13:15:03.000Z</time>
      </trkpt>
      <trkpt lat="44.57987" lon="6.87784">
        <ele>2726</ele>
        <time>2020-02-18T13:15:04.000Z</time>
      </trkpt>
      <trkpt lat="44.57987" lon="6.87784">
        <ele>2726</ele>
        <time>2020-02-18T13:15:05.000Z</time>
      </trkpt>
      <trkpt lat="44.57987" lon="6.87784">
        <ele>2726</ele>
        <time>2020-02-18T13:15:06.000Z</time>
      </trkpt>
      <trkpt lat="44.57987" lon="6.87784">
        <ele>2726</ele>
        <time>2020-02-18T13:15:08.000Z</time>
      </trkpt>
      <trkpt lat="44.57988" lon="6.87783">
        <ele>2726</ele>
        <time>2020-02-18T13:15:10.000Z</time>
      </trkpt>
      <trkpt lat="44.57987" lon="6.87783">
        <ele>2726</ele>
        <time>2020-02-18T13:15:12.000Z</time>
      </trkpt>
      <trkpt lat="44.57985" lon="6.87784">
        <ele>2726</ele>
        <time>2020-02-18T13:15:17.000Z</time>
      </trkpt>
      <trkpt lat="44.57985" lon="6.87784">
        <ele>2726</ele>
        <time>2020-02-18T13:15:21.000Z</time>
      </trkpt>
      <trkpt lat="44.57986" lon="6.87784">
        <ele>2726</ele>
        <time>2020-02-18T13:15:23.000Z</time>
      </trkpt>
      <trkpt lat="44.57986" lon="6.87784">
        <ele>2726</ele>
        <time>2020-02-18T13:15:24.000Z</time>
      </trkpt>
      <trkpt lat="44.57987" lon="6.87785">
        <ele>2726</ele>
        <time>2020-02-18T13:15:25.000Z</time>
      </trkpt>
      <trkpt lat="44.57987" lon="6.87786">
        <ele>2726</ele>
        <time>2020-02-18T13:15:27.000Z</time>
      </trkpt>
      <trkpt lat="44.57987" lon="6.87787">
        <ele>2726</ele>
        <time>2020-02-18T13:15:29.000Z</time>
      </trkpt>
      <trkpt lat="44.57988" lon="6.87787">
        <ele>2726</ele>
        <time>2020-02-18T13:15:34.000Z</time>
      </trkpt>
      <trkpt lat="44.57988" lon="6.87786">
        <ele>2726</ele>
        <time>2020-02-18T13:15:38.000Z</time>
      </trkpt>
      <trkpt lat="44.57988" lon="6.87786">
        <ele>2726</ele>
        <time>2020-02-18T13:15:39.000Z</time>
      </trkpt>
      <trkpt lat="44.57989" lon="6.87786">
        <ele>2726</ele>
        <time>2020-02-18T13:15:40.000Z</time>
      </trkpt>
      <trkpt lat="44.57988" lon="6.87786">
        <ele>2726</ele>
        <time>2020-02-18T13:15:42.000Z</time>
      </trkpt>
      <trkpt lat="44.57988" lon="6.87786">
        <ele>2726</ele>
        <time>2020-02-18T13:15:44.000Z</time>
      </trkpt>
      <trkpt lat="44.57988" lon="6.87786">
        <ele>2726</ele>
        <time>2020-02-18T13:15:46.000Z</time>
      </trkpt>
      <trkpt lat="44.57988" lon="6.87786">
        <ele>2726</ele>
        <time>2020-02-18T13:15:48.000Z</time>
      </trkpt>
      <trkpt lat="44.57988" lon="6.87785">
        <ele>2726</ele>
        <time>2020-02-18T13:15:52.000Z</time>
      </trkpt>
      <trkpt lat="44.57987" lon="6.87785">
        <ele>2726</ele>
        <time>2020-02-18T13:15:56.000Z</time>
      </trkpt>
      <trkpt lat="44.57985" lon="6.87785">
        <ele>2726</ele>
        <time>2020-02-18T13:16:04.000Z</time>
      </trkpt>
      <trkpt lat="44.57984" lon="6.87786">
        <ele>2726</ele>
        <time>2020-02-18T13:16:07.000Z</time>
      </trkpt>
      <trkpt lat="44.57982" lon="6.87786">
        <ele>2726</ele>
        <time>2020-02-18T13:16:10.000Z</time>
      </trkpt>
      <trkpt lat="44.57982" lon="6.87786">
        <ele>2726</ele>
        <time>2020-02-18T13:16:12.000Z</time>
      </trkpt>
      <trkpt lat="44.57983" lon="6.87786">
        <ele>2726</ele>
        <time>2020-02-18T13:16:18.000Z</time>
      </trkpt>
      <trkpt lat="44.57983" lon="6.87785">
        <ele>2726</ele>
        <time>2020-02-18T13:16:20.000Z</time>
      </trkpt>
      <trkpt lat="44.57985" lon="6.87785">
        <ele>2726</ele>
        <time>2020-02-18T13:16:22.000Z</time>
      </trkpt>
      <trkpt lat="44.57987" lon="6.87785">
        <ele>2726</ele>
        <time>2020-02-18T13:16:29.000Z</time>
      </trkpt>
      <trkpt lat="44.57985" lon="6.87785">
        <ele>2726</ele>
        <time>2020-02-18T13:16:32.000Z</time>
      </trkpt>
      <trkpt lat="44.57986" lon="6.87785">
        <ele>2726</ele>
        <time>2020-02-18T13:16:34.000Z</time>
      </trkpt>
      <trkpt lat="44.57986" lon="6.87785">
        <ele>2726</ele>
        <time>2020-02-18T13:16:37.000Z</time>
      </trkpt>
      <trkpt lat="44.57986" lon="6.87786">
        <ele>2726</ele>
        <time>2020-02-18T13:16:41.000Z</time>
      </trkpt>
      <trkpt lat="44.57985" lon="6.87786">
        <ele>2726</ele>
        <time>2020-02-18T13:16:43.000Z</time>
      </trkpt>
      <trkpt lat="44.57986" lon="6.87785">
        <ele>2726</ele>
        <time>2020-02-18T13:16:46.000Z</time>
      </trkpt>
      <trkpt lat="44.57987" lon="6.87786">
        <ele>2726</ele>
        <time>2020-02-18T13:16:50.000Z</time>
      </trkpt>
      <trkpt lat="44.57988" lon="6.87785">
        <ele>2726</ele>
        <time>2020-02-18T13:16:53.000Z</time>
      </trkpt>
      <trkpt lat="44.57989" lon="6.87784">
        <ele>2726</ele>
        <time>2020-02-18T13:16:56.000Z</time>
      </trkpt>
      <trkpt lat="44.5799" lon="6.87783">
        <ele>2726</ele>
        <time>2020-02-18T13:17:01.000Z</time>
      </trkpt>
      <trkpt lat="44.5799" lon="6.87783">
        <ele>2726</ele>
        <time>2020-02-18T13:17:06.000Z</time>
      </trkpt>
      <trkpt lat="44.5799" lon="6.87783">
        <ele>2726</ele>
        <time>2020-02-18T13:17:10.000Z</time>
      </trkpt>
      <trkpt lat="44.57992" lon="6.87784">
        <ele>2726</ele>
        <time>2020-02-18T13:17:20.000Z</time>
      </trkpt>
      <trkpt lat="44.57989" lon="6.87784">
        <ele>2726</ele>
        <time>2020-02-18T13:17:36.000Z</time>
      </trkpt>
      <trkpt lat="44.57989" lon="6.87785">
        <ele>2726</ele>
        <time>2020-02-18T13:17:40.000Z</time>
      </trkpt>
      <trkpt lat="44.57989" lon="6.87785">
        <ele>2726</ele>
        <time>2020-02-18T13:17:42.000Z</time>
      </trkpt>
      <trkpt lat="44.5799" lon="6.87784">
        <ele>2726</ele>
        <time>2020-02-18T13:17:46.000Z</time>
      </trkpt>
      <trkpt lat="44.57989" lon="6.87784">
        <ele>2726</ele>
        <time>2020-02-18T13:17:53.000Z</time>
      </trkpt>
      <trkpt lat="44.5799" lon="6.87784">
        <ele>2726</ele>
        <time>2020-02-18T13:17:55.000Z</time>
      </trkpt>
      <trkpt lat="44.5799" lon="6.87785">
        <ele>2726</ele>
        <time>2020-02-18T13:17:57.000Z</time>
      </trkpt>
      <trkpt lat="44.57989" lon="6.87784">
        <ele>2726</ele>
        <time>2020-02-18T13:18:00.000Z</time>
      </trkpt>
      <trkpt lat="44.57989" lon="6.87784">
        <ele>2726</ele>
        <time>2020-02-18T13:18:01.000Z</time>
      </trkpt>
      <trkpt lat="44.57989" lon="6.87785">
        <ele>2726</ele>
        <time>2020-02-18T13:18:05.000Z</time>
      </trkpt>
      <trkpt lat="44.57989" lon="6.87785">
        <ele>2726</ele>
        <time>2020-02-18T13:18:07.000Z</time>
      </trkpt>
      <trkpt lat="44.57988" lon="6.87785">
        <ele>2726</ele>
        <time>2020-02-18T13:18:09.000Z</time>
      </trkpt>
      <trkpt lat="44.57988" lon="6.87785">
        <ele>2726</ele>
        <time>2020-02-18T13:18:12.000Z</time>
      </trkpt>
      <trkpt lat="44.57989" lon="6.87783">
        <ele>2726</ele>
        <time>2020-02-18T13:18:17.000Z</time>
      </trkpt>
      <trkpt lat="44.57991" lon="6.87782">
        <ele>2726</ele>
        <time>2020-02-18T13:18:33.000Z</time>
      </trkpt>
      <trkpt lat="44.57992" lon="6.87781">
        <ele>2726</ele>
        <time>2020-02-18T13:18:37.000Z</time>
      </trkpt>
      <trkpt lat="44.57991" lon="6.87783">
        <ele>2726</ele>
        <time>2020-02-18T13:18:43.000Z</time>
      </trkpt>
      <trkpt lat="44.5799" lon="6.87783">
        <ele>2726</ele>
        <time>2020-02-18T13:18:53.000Z</time>
      </trkpt>
      <trkpt lat="44.5799" lon="6.87782">
        <ele>2726</ele>
        <time>2020-02-18T13:19:00.000Z</time>
      </trkpt>
      <trkpt lat="44.5799" lon="6.87782">
        <ele>2726</ele>
        <time>2020-02-18T13:19:04.000Z</time>
      </trkpt>
      <trkpt lat="44.5799" lon="6.87781">
        <ele>2726</ele>
        <time>2020-02-18T13:19:06.000Z</time>
      </trkpt>
      <trkpt lat="44.5799" lon="6.87781">
        <ele>2726</ele>
        <time>2020-02-18T13:19:08.000Z</time>
      </trkpt>
      <trkpt lat="44.5799" lon="6.87781">
        <ele>2726</ele>
        <time>2020-02-18T13:19:13.000Z</time>
      </trkpt>
      <trkpt lat="44.5799" lon="6.87782">
        <ele>2726</ele>
        <time>2020-02-18T13:19:14.000Z</time>
      </trkpt>
      <trkpt lat="44.5799" lon="6.87782">
        <ele>2726</ele>
        <time>2020-02-18T13:19:16.000Z</time>
      </trkpt>
      <trkpt lat="44.57991" lon="6.87778">
        <ele>2726</ele>
        <time>2020-02-18T13:19:24.000Z</time>
      </trkpt>
      <trkpt lat="44.57991" lon="6.87782">
        <ele>2726</ele>
        <time>2020-02-18T13:19:45.000Z</time>
      </trkpt>
      <trkpt lat="44.57991" lon="6.87782">
        <ele>2726</ele>
        <time>2020-02-18T13:19:46.000Z</time>
      </trkpt>
      <trkpt lat="44.5799" lon="6.87781">
        <ele>2726</ele>
        <time>2020-02-18T13:19:47.000Z</time>
      </trkpt>
      <trkpt lat="44.5799" lon="6.87781">
        <ele>2726</ele>
        <time>2020-02-18T13:19:50.000Z</time>
      </trkpt>
      <trkpt lat="44.57991" lon="6.87781">
        <ele>2726</ele>
        <time>2020-02-18T13:19:54.000Z</time>
      </trkpt>
      <trkpt lat="44.57992" lon="6.87781">
        <ele>2726</ele>
        <time>2020-02-18T13:19:56.000Z</time>
      </trkpt>
      <trkpt lat="44.57991" lon="6.87782">
        <ele>2726</ele>
        <time>2020-02-18T13:20:03.000Z</time>
      </trkpt>
      <trkpt lat="44.57991" lon="6.87783">
        <ele>2726</ele>
        <time>2020-02-18T13:20:06.000Z</time>
      </trkpt>
      <trkpt lat="44.57991" lon="6.87783">
        <ele>2726</ele>
        <time>2020-02-18T13:20:07.000Z</time>
      </trkpt>
      <trkpt lat="44.57991" lon="6.87783">
        <ele>2726</ele>
        <time>2020-02-18T13:20:09.000Z</time>
      </trkpt>
      <trkpt lat="44.57991" lon="6.87783">
        <ele>2726</ele>
        <time>2020-02-18T13:20:11.000Z</time>
      </trkpt>
      <trkpt lat="44.57991" lon="6.87783">
        <ele>2726</ele>
        <time>2020-02-18T13:20:13.000Z</time>
      </trkpt>
      <trkpt lat="44.5799" lon="6.87787">
        <ele>2726</ele>
        <time>2020-02-18T13:20:29.000Z</time>
      </trkpt>
      <trkpt lat="44.5799" lon="6.87787">
        <ele>2726</ele>
        <time>2020-02-18T13:20:30.000Z</time>
      </trkpt>
      <trkpt lat="44.5799" lon="6.87787">
        <ele>2726</ele>
        <time>2020-02-18T13:20:31.000Z</time>
      </trkpt>
      <trkpt lat="44.57991" lon="6.87788">
        <ele>2726</ele>
        <time>2020-02-18T13:20:34.000Z</time>
      </trkpt>
      <trkpt lat="44.57992" lon="6.87788">
        <ele>2726</ele>
        <time>2020-02-18T13:20:36.000Z</time>
      </trkpt>
      <trkpt lat="44.57993" lon="6.87785">
        <ele>2726</ele>
        <time>2020-02-18T13:20:41.000Z</time>
      </trkpt>
      <trkpt lat="44.57994" lon="6.87784">
        <ele>2726</ele>
        <time>2020-02-18T13:20:43.000Z</time>
      </trkpt>
      <trkpt lat="44.5799" lon="6.87782">
        <ele>2726</ele>
        <time>2020-02-18T13:20:53.000Z</time>
      </trkpt>
      <trkpt lat="44.57991" lon="6.87783">
        <ele>2726</ele>
        <time>2020-02-18T13:20:56.000Z</time>
      </trkpt>
      <trkpt lat="44.57991" lon="6.87782">
        <ele>2726</ele>
        <time>2020-02-18T13:20:58.000Z</time>
      </trkpt>
      <trkpt lat="44.57991" lon="6.87782">
        <ele>2726</ele>
        <time>2020-02-18T13:21:00.000Z</time>
      </trkpt>
      <trkpt lat="44.57991" lon="6.87782">
        <ele>2726</ele>
        <time>2020-02-18T13:21:02.000Z</time>
      </trkpt>
      <trkpt lat="44.57992" lon="6.87783">
        <ele>2726</ele>
        <time>2020-02-18T13:21:10.000Z</time>
      </trkpt>
      <trkpt lat="44.5799" lon="6.87786">
        <ele>2726</ele>
        <time>2020-02-18T13:21:16.000Z</time>
      </trkpt>
      <trkpt lat="44.57989" lon="6.87786">
        <ele>2726</ele>
        <time>2020-02-18T13:21:17.000Z</time>
      </trkpt>
      <trkpt lat="44.57989" lon="6.87787">
        <ele>2726</ele>
        <time>2020-02-18T13:21:18.000Z</time>
      </trkpt>
      <trkpt lat="44.57988" lon="6.87787">
        <ele>2726</ele>
        <time>2020-02-18T13:21:20.000Z</time>
      </trkpt>
      <trkpt lat="44.57986" lon="6.87789">
        <ele>2726</ele>
        <time>2020-02-18T13:21:24.000Z</time>
      </trkpt>
      <trkpt lat="44.57978" lon="6.87789">
        <ele>2726.6000976562</ele>
        <time>2020-02-18T13:21:47.000Z</time>
      </trkpt>
      <trkpt lat="44.57977" lon="6.87789">
        <ele>2726.8000488281</ele>
        <time>2020-02-18T13:22:15.000Z</time>
      </trkpt>
      <trkpt lat="44.57977" lon="6.87789">
        <ele>2726.8000488281</ele>
        <time>2020-02-18T13:22:18.000Z</time>
      </trkpt>
      <trkpt lat="44.57977" lon="6.87789">
        <ele>2726.8000488281</ele>
        <time>2020-02-18T13:22:23.000Z</time>
      </trkpt>
      <trkpt lat="44.57977" lon="6.87789">
        <ele>2726.8000488281</ele>
        <time>2020-02-18T13:22:25.000Z</time>
      </trkpt>
      <trkpt lat="44.57975" lon="6.8779">
        <ele>2727.1999511719</ele>
        <time>2020-02-18T13:22:29.000Z</time>
      </trkpt>
      <trkpt lat="44.57975" lon="6.87789">
        <ele>2727.3999023438</ele>
        <time>2020-02-18T13:22:34.000Z</time>
      </trkpt>
      <trkpt lat="44.57974" lon="6.87789">
        <ele>2727.3999023438</ele>
        <time>2020-02-18T13:22:44.000Z</time>
      </trkpt>
      <trkpt lat="44.57975" lon="6.87789">
        <ele>2727.3999023438</ele>
        <time>2020-02-18T13:22:48.000Z</time>
      </trkpt>
      <trkpt lat="44.57974" lon="6.87788">
        <ele>2727.3999023438</ele>
        <time>2020-02-18T13:22:56.000Z</time>
      </trkpt>
      <trkpt lat="44.57974" lon="6.87788">
        <ele>2727.6000976562</ele>
        <time>2020-02-18T13:23:03.000Z</time>
      </trkpt>
      <trkpt lat="44.57974" lon="6.87788">
        <ele>2727.6000976562</ele>
        <time>2020-02-18T13:23:11.000Z</time>
      </trkpt>
      <trkpt lat="44.57975" lon="6.87789">
        <ele>2726.8000488281</ele>
        <time>2020-02-18T13:23:34.000Z</time>
      </trkpt>
      <trkpt lat="44.57974" lon="6.87787">
        <ele>2727.6000976562</ele>
        <time>2020-02-18T13:23:55.000Z</time>
      </trkpt>
      <trkpt lat="44.57976" lon="6.87787">
        <ele>2727</ele>
        <time>2020-02-18T13:24:00.000Z</time>
      </trkpt>
      <trkpt lat="44.57977" lon="6.87786">
        <ele>2726.6000976562</ele>
        <time>2020-02-18T13:24:31.000Z</time>
      </trkpt>
      <trkpt lat="44.57976" lon="6.87786">
        <ele>2726.6000976562</ele>
        <time>2020-02-18T13:24:32.000Z</time>
      </trkpt>
      <trkpt lat="44.57975" lon="6.87787">
        <ele>2726.3999023438</ele>
        <time>2020-02-18T13:24:40.000Z</time>
      </trkpt>
      <trkpt lat="44.57973" lon="6.87786">
        <ele>2726.6000976562</ele>
        <time>2020-02-18T13:24:53.000Z</time>
      </trkpt>
      <trkpt lat="44.5797" lon="6.87784">
        <ele>2726.3999023438</ele>
        <time>2020-02-18T13:24:57.000Z</time>
      </trkpt>
      <trkpt lat="44.57968" lon="6.87783">
        <ele>2726.3999023438</ele>
        <time>2020-02-18T13:25:08.000Z</time>
      </trkpt>
      <trkpt lat="44.57968" lon="6.87784">
        <ele>2726.3999023438</ele>
        <time>2020-02-18T13:25:10.000Z</time>
      </trkpt>
      <trkpt lat="44.57969" lon="6.87783">
        <ele>2726.3999023438</ele>
        <time>2020-02-18T13:25:15.000Z</time>
      </trkpt>
      <trkpt lat="44.57969" lon="6.87782">
        <ele>2726</ele>
        <time>2020-02-18T13:25:17.000Z</time>
      </trkpt>
      <trkpt lat="44.57969" lon="6.87782">
        <ele>2725.8000488281</ele>
        <time>2020-02-18T13:25:19.000Z</time>
      </trkpt>
      <trkpt lat="44.57968" lon="6.87784">
        <ele>2725.6000976562</ele>
        <time>2020-02-18T13:25:28.000Z</time>
      </trkpt>
      <trkpt lat="44.57969" lon="6.87785">
        <ele>2725.3999023438</ele>
        <time>2020-02-18T13:25:33.000Z</time>
      </trkpt>
      <trkpt lat="44.5797" lon="6.87785">
        <ele>2725.3999023438</ele>
        <time>2020-02-18T13:25:34.000Z</time>
      </trkpt>
      <trkpt lat="44.57971" lon="6.87785">
        <ele>2725.6000976562</ele>
        <time>2020-02-18T13:25:36.000Z</time>
      </trkpt>
      <trkpt lat="44.57972" lon="6.87785">
        <ele>2725.6000976562</ele>
        <time>2020-02-18T13:25:37.000Z</time>
      </trkpt>
      <trkpt lat="44.57972" lon="6.87783">
        <ele>2725.6000976562</ele>
        <time>2020-02-18T13:25:50.000Z</time>
      </trkpt>
      <trkpt lat="44.5797" lon="6.87782">
        <ele>2725</ele>
        <time>2020-02-18T13:26:02.000Z</time>
      </trkpt>
      <trkpt lat="44.5797" lon="6.87781">
        <ele>2725</ele>
        <time>2020-02-18T13:26:05.000Z</time>
      </trkpt>
      <trkpt lat="44.5797" lon="6.87781">
        <ele>2725.1999511719</ele>
        <time>2020-02-18T13:26:17.000Z</time>
      </trkpt>
      <trkpt lat="44.57968" lon="6.87781">
        <ele>2725.3999023438</ele>
        <time>2020-02-18T13:26:24.000Z</time>
      </trkpt>
      <trkpt lat="44.57964" lon="6.87783">
        <ele>2726</ele>
        <time>2020-02-18T13:26:35.000Z</time>
      </trkpt>
      <trkpt lat="44.5796" lon="6.87786">
        <ele>2726.6000976562</ele>
        <time>2020-02-18T13:26:44.000Z</time>
      </trkpt>
      <trkpt lat="44.57958" lon="6.87787">
        <ele>2726.8000488281</ele>
        <time>2020-02-18T13:26:47.000Z</time>
      </trkpt>
      <trkpt lat="44.57951" lon="6.87789">
        <ele>2728</ele>
        <time>2020-02-18T13:27:21.000Z</time>
      </trkpt>
      <trkpt lat="44.57945" lon="6.87787">
        <ele>2729</ele>
        <time>2020-02-18T13:27:36.000Z</time>
      </trkpt>
      <trkpt lat="44.57942" lon="6.87786">
        <ele>2729.8000488281</ele>
        <time>2020-02-18T13:27:44.000Z</time>
      </trkpt>
      <trkpt lat="44.57941" lon="6.87787">
        <ele>2730</ele>
        <time>2020-02-18T13:27:47.000Z</time>
      </trkpt>
      <trkpt lat="44.57932" lon="6.87795">
        <ele>2730.3999023438</ele>
        <time>2020-02-18T13:28:15.000Z</time>
      </trkpt>
      <trkpt lat="44.57932" lon="6.87795">
        <ele>2730.3999023438</ele>
        <time>2020-02-18T13:28:19.000Z</time>
      </trkpt>
      <trkpt lat="44.57932" lon="6.87792">
        <ele>2730.3999023438</ele>
        <time>2020-02-18T13:28:23.000Z</time>
      </trkpt>
      <trkpt lat="44.57932" lon="6.87792">
        <ele>2730.3999023438</ele>
        <time>2020-02-18T13:28:25.000Z</time>
      </trkpt>
      <trkpt lat="44.57932" lon="6.87792">
        <ele>2730.3999023438</ele>
        <time>2020-02-18T13:28:34.000Z</time>
      </trkpt>
      <trkpt lat="44.57932" lon="6.87792">
        <ele>2730.3999023438</ele>
        <time>2020-02-18T13:28:35.000Z</time>
      </trkpt>
      <trkpt lat="44.57932" lon="6.87793">
        <ele>2730.8000488281</ele>
        <time>2020-02-18T13:28:41.000Z</time>
      </trkpt>
      <trkpt lat="44.57933" lon="6.87792">
        <ele>2730.8000488281</ele>
        <time>2020-02-18T13:28:45.000Z</time>
      </trkpt>
      <trkpt lat="44.57933" lon="6.87793">
        <ele>2730.8000488281</ele>
        <time>2020-02-18T13:28:51.000Z</time>
      </trkpt>
      <trkpt lat="44.57933" lon="6.87793">
        <ele>2730.8000488281</ele>
        <time>2020-02-18T13:28:56.000Z</time>
      </trkpt>
      <trkpt lat="44.57934" lon="6.87794">
        <ele>2730.8000488281</ele>
        <time>2020-02-18T13:29:05.000Z</time>
      </trkpt>
      <trkpt lat="44.57934" lon="6.87794">
        <ele>2730.8000488281</ele>
        <time>2020-02-18T13:29:08.000Z</time>
      </trkpt>
      <trkpt lat="44.57934" lon="6.87795">
        <ele>2730.8000488281</ele>
        <time>2020-02-18T13:29:11.000Z</time>
      </trkpt>
      <trkpt lat="44.57936" lon="6.87792">
        <ele>2730.8000488281</ele>
        <time>2020-02-18T13:29:18.000Z</time>
      </trkpt>
      <trkpt lat="44.57936" lon="6.8779">
        <ele>2730.8000488281</ele>
        <time>2020-02-18T13:29:21.000Z</time>
      </trkpt>
      <trkpt lat="44.57936" lon="6.8779">
        <ele>2730.8000488281</ele>
        <time>2020-02-18T13:29:22.000Z</time>
      </trkpt>
      <trkpt lat="44.57936" lon="6.87791">
        <ele>2730.8000488281</ele>
        <time>2020-02-18T13:29:23.000Z</time>
      </trkpt>
      <trkpt lat="44.57935" lon="6.87796">
        <ele>2730.8000488281</ele>
        <time>2020-02-18T13:29:42.000Z</time>
      </trkpt>
      <trkpt lat="44.57935" lon="6.87796">
        <ele>2730.8000488281</ele>
        <time>2020-02-18T13:29:43.000Z</time>
      </trkpt>
      <trkpt lat="44.57934" lon="6.87794">
        <ele>2730.8000488281</ele>
        <time>2020-02-18T13:29:45.000Z</time>
      </trkpt>
      <trkpt lat="44.57932" lon="6.87792">
        <ele>2730.8000488281</ele>
        <time>2020-02-18T13:29:53.000Z</time>
      </trkpt>
      <trkpt lat="44.57935" lon="6.87791">
        <ele>2730.8000488281</ele>
        <time>2020-02-18T13:30:06.000Z</time>
      </trkpt>
      <trkpt lat="44.57937" lon="6.87788">
        <ele>2730.8000488281</ele>
        <time>2020-02-18T13:30:10.000Z</time>
      </trkpt>
      <trkpt lat="44.57937" lon="6.87788">
        <ele>2730.8000488281</ele>
        <time>2020-02-18T13:30:15.000Z</time>
      </trkpt>
      <trkpt lat="44.57937" lon="6.87788">
        <ele>2730.8000488281</ele>
        <time>2020-02-18T13:30:21.000Z</time>
      </trkpt>
      <trkpt lat="44.57937" lon="6.87788">
        <ele>2730.8000488281</ele>
        <time>2020-02-18T13:30:23.000Z</time>
      </trkpt>
      <trkpt lat="44.57937" lon="6.87788">
        <ele>2730.8000488281</ele>
        <time>2020-02-18T13:30:30.000Z</time>
      </trkpt>
      <trkpt lat="44.57937" lon="6.87788">
        <ele>2730.8000488281</ele>
        <time>2020-02-18T13:30:32.000Z</time>
      </trkpt>
      <trkpt lat="44.57937" lon="6.87788">
        <ele>2730.8000488281</ele>
        <time>2020-02-18T13:30:34.000Z</time>
      </trkpt>
      <trkpt lat="44.57938" lon="6.87788">
        <ele>2730.8000488281</ele>
        <time>2020-02-18T13:30:40.000Z</time>
      </trkpt>
      <trkpt lat="44.57938" lon="6.87788">
        <ele>2730.8000488281</ele>
        <time>2020-02-18T13:30:44.000Z</time>
      </trkpt>
      <trkpt lat="44.57938" lon="6.87788">
        <ele>2730.8000488281</ele>
        <time>2020-02-18T13:30:45.000Z</time>
      </trkpt>
      <trkpt lat="44.57938" lon="6.87788">
        <ele>2730.8000488281</ele>
        <time>2020-02-18T13:30:47.000Z</time>
      </trkpt>
      <trkpt lat="44.57938" lon="6.87788">
        <ele>2730.8000488281</ele>
        <time>2020-02-18T13:30:48.000Z</time>
      </trkpt>
      <trkpt lat="44.57939" lon="6.87788">
        <ele>2730.8000488281</ele>
        <time>2020-02-18T13:30:49.000Z</time>
      </trkpt>
      <trkpt lat="44.57938" lon="6.87788">
        <ele>2730.8000488281</ele>
        <time>2020-02-18T13:31:01.000Z</time>
      </trkpt>
      <trkpt lat="44.57939" lon="6.87788">
        <ele>2730.8000488281</ele>
        <time>2020-02-18T13:31:06.000Z</time>
      </trkpt>
      <trkpt lat="44.57939" lon="6.87788">
        <ele>2730.8000488281</ele>
        <time>2020-02-18T13:31:07.000Z</time>
      </trkpt>
      <trkpt lat="44.57938" lon="6.87788">
        <ele>2730.8000488281</ele>
        <time>2020-02-18T13:31:09.000Z</time>
      </trkpt>
      <trkpt lat="44.57938" lon="6.87788">
        <ele>2730.8000488281</ele>
        <time>2020-02-18T13:31:10.000Z</time>
      </trkpt>
      <trkpt lat="44.57938" lon="6.87789">
        <ele>2730.8000488281</ele>
        <time>2020-02-18T13:31:11.000Z</time>
      </trkpt>
      <trkpt lat="44.57938" lon="6.87789">
        <ele>2730.8000488281</ele>
        <time>2020-02-18T13:31:12.000Z</time>
      </trkpt>
      <trkpt lat="44.57937" lon="6.87789">
        <ele>2730.8000488281</ele>
        <time>2020-02-18T13:31:13.000Z</time>
      </trkpt>
      <trkpt lat="44.57937" lon="6.87789">
        <ele>2730.8000488281</ele>
        <time>2020-02-18T13:31:15.000Z</time>
      </trkpt>
      <trkpt lat="44.57937" lon="6.87789">
        <ele>2730.8000488281</ele>
        <time>2020-02-18T13:31:28.000Z</time>
      </trkpt>
      <trkpt lat="44.57938" lon="6.87788">
        <ele>2730.8000488281</ele>
        <time>2020-02-18T13:31:33.000Z</time>
      </trkpt>
      <trkpt lat="44.57938" lon="6.87788">
        <ele>2730.8000488281</ele>
        <time>2020-02-18T13:31:38.000Z</time>
      </trkpt>
      <trkpt lat="44.57938" lon="6.87788">
        <ele>2730.8000488281</ele>
        <time>2020-02-18T13:31:40.000Z</time>
      </trkpt>
      <trkpt lat="44.57938" lon="6.87788">
        <ele>2730.8000488281</ele>
        <time>2020-02-18T13:31:44.000Z</time>
      </trkpt>
      <trkpt lat="44.57939" lon="6.87789">
        <ele>2730.8000488281</ele>
        <time>2020-02-18T13:31:50.000Z</time>
      </trkpt>
      <trkpt lat="44.57941" lon="6.87788">
        <ele>2730.8000488281</ele>
        <time>2020-02-18T13:31:55.000Z</time>
      </trkpt>
      <trkpt lat="44.57942" lon="6.87787">
        <ele>2730.8000488281</ele>
        <time>2020-02-18T13:31:59.000Z</time>
      </trkpt>
      <trkpt lat="44.57942" lon="6.87787">
        <ele>2730.8000488281</ele>
        <time>2020-02-18T13:32:02.000Z</time>
      </trkpt>
      <trkpt lat="44.57942" lon="6.87787">
        <ele>2730.8000488281</ele>
        <time>2020-02-18T13:32:05.000Z</time>
      </trkpt>
      <trkpt lat="44.57943" lon="6.87787">
        <ele>2730.8000488281</ele>
        <time>2020-02-18T13:32:12.000Z</time>
      </trkpt>
      <trkpt lat="44.57943" lon="6.87787">
        <ele>2730.8000488281</ele>
        <time>2020-02-18T13:32:15.000Z</time>
      </trkpt>
      <trkpt lat="44.57942" lon="6.87787">
        <ele>2730.8000488281</ele>
        <time>2020-02-18T13:32:33.000Z</time>
      </trkpt>
      <trkpt lat="44.57942" lon="6.87787">
        <ele>2730.8000488281</ele>
        <time>2020-02-18T13:32:36.000Z</time>
      </trkpt>
      <trkpt lat="44.57941" lon="6.87787">
        <ele>2730.8000488281</ele>
        <time>2020-02-18T13:32:39.000Z</time>
      </trkpt>
      <trkpt lat="44.57938" lon="6.87789">
        <ele>2730.8000488281</ele>
        <time>2020-02-18T13:32:43.000Z</time>
      </trkpt>
      <trkpt lat="44.57938" lon="6.87789">
        <ele>2730.8000488281</ele>
        <time>2020-02-18T13:32:44.000Z</time>
      </trkpt>
      <trkpt lat="44.57936" lon="6.87791">
        <ele>2730.8000488281</ele>
        <time>2020-02-18T13:32:48.000Z</time>
      </trkpt>
      <trkpt lat="44.57936" lon="6.87792">
        <ele>2730.8000488281</ele>
        <time>2020-02-18T13:32:57.000Z</time>
      </trkpt>
      <trkpt lat="44.57936" lon="6.87792">
        <ele>2730.8000488281</ele>
        <time>2020-02-18T13:32:59.000Z</time>
      </trkpt>
      <trkpt lat="44.57936" lon="6.87792">
        <ele>2730.8000488281</ele>
        <time>2020-02-18T13:33:03.000Z</time>
      </trkpt>
      <trkpt lat="44.57936" lon="6.87792">
        <ele>2730.8000488281</ele>
        <time>2020-02-18T13:33:04.000Z</time>
      </trkpt>
      <trkpt lat="44.57936" lon="6.87792">
        <ele>2730.8000488281</ele>
        <time>2020-02-18T13:33:05.000Z</time>
      </trkpt>
      <trkpt lat="44.57936" lon="6.87792">
        <ele>2730.8000488281</ele>
        <time>2020-02-18T13:33:07.000Z</time>
      </trkpt>
      <trkpt lat="44.57937" lon="6.8779">
        <ele>2730.8000488281</ele>
        <time>2020-02-18T13:33:15.000Z</time>
      </trkpt>
      <trkpt lat="44.57937" lon="6.8779">
        <ele>2730.8000488281</ele>
        <time>2020-02-18T13:33:19.000Z</time>
      </trkpt>
      <trkpt lat="44.57938" lon="6.87788">
        <ele>2730.8000488281</ele>
        <time>2020-02-18T13:33:38.000Z</time>
      </trkpt>
      <trkpt lat="44.57938" lon="6.87788">
        <ele>2730.8000488281</ele>
        <time>2020-02-18T13:33:42.000Z</time>
      </trkpt>
      <trkpt lat="44.57938" lon="6.87789">
        <ele>2730.8000488281</ele>
        <time>2020-02-18T13:33:47.000Z</time>
      </trkpt>
      <trkpt lat="44.57938" lon="6.87789">
        <ele>2730.8000488281</ele>
        <time>2020-02-18T13:33:49.000Z</time>
      </trkpt>
      <trkpt lat="44.57938" lon="6.8779">
        <ele>2730.8000488281</ele>
        <time>2020-02-18T13:33:51.000Z</time>
      </trkpt>
      <trkpt lat="44.57937" lon="6.87791">
        <ele>2730.8000488281</ele>
        <time>2020-02-18T13:33:54.000Z</time>
      </trkpt>
      <trkpt lat="44.57937" lon="6.87791">
        <ele>2730.8000488281</ele>
        <time>2020-02-18T13:33:56.000Z</time>
      </trkpt>
      <trkpt lat="44.57937" lon="6.87791">
        <ele>2730.8000488281</ele>
        <time>2020-02-18T13:33:59.000Z</time>
      </trkpt>
      <trkpt lat="44.57937" lon="6.87791">
        <ele>2730.8000488281</ele>
        <time>2020-02-18T13:34:01.000Z</time>
      </trkpt>
      <trkpt lat="44.57937" lon="6.87791">
        <ele>2730.8000488281</ele>
        <time>2020-02-18T13:34:05.000Z</time>
      </trkpt>
      <trkpt lat="44.57939" lon="6.87791">
        <ele>2730.8000488281</ele>
        <time>2020-02-18T13:34:13.000Z</time>
      </trkpt>
      <trkpt lat="44.57939" lon="6.8779">
        <ele>2730.8000488281</ele>
        <time>2020-02-18T13:34:19.000Z</time>
      </trkpt>
      <trkpt lat="44.5794" lon="6.87791">
        <ele>2730.8000488281</ele>
        <time>2020-02-18T13:34:30.000Z</time>
      </trkpt>
      <trkpt lat="44.57941" lon="6.87791">
        <ele>2730.8000488281</ele>
        <time>2020-02-18T13:34:31.000Z</time>
      </trkpt>
      <trkpt lat="44.57941" lon="6.87791">
        <ele>2730.8000488281</ele>
        <time>2020-02-18T13:34:32.000Z</time>
      </trkpt>
      <trkpt lat="44.57941" lon="6.87791">
        <ele>2730.8000488281</ele>
        <time>2020-02-18T13:34:33.000Z</time>
      </trkpt>
      <trkpt lat="44.57942" lon="6.87791">
        <ele>2730.8000488281</ele>
        <time>2020-02-18T13:34:39.000Z</time>
      </trkpt>
      <trkpt lat="44.57942" lon="6.87792">
        <ele>2730.8000488281</ele>
        <time>2020-02-18T13:34:42.000Z</time>
      </trkpt>
      <trkpt lat="44.5794" lon="6.87791">
        <ele>2730.8000488281</ele>
        <time>2020-02-18T13:34:46.000Z</time>
      </trkpt>
      <trkpt lat="44.57939" lon="6.87794">
        <ele>2730.8000488281</ele>
        <time>2020-02-18T13:34:51.000Z</time>
      </trkpt>
      <trkpt lat="44.57938" lon="6.87795">
        <ele>2730.8000488281</ele>
        <time>2020-02-18T13:35:00.000Z</time>
      </trkpt>
      <trkpt lat="44.5794" lon="6.87796">
        <ele>2730.8000488281</ele>
        <time>2020-02-18T13:35:08.000Z</time>
      </trkpt>
      <trkpt lat="44.57941" lon="6.87796">
        <ele>2730.8000488281</ele>
        <time>2020-02-18T13:35:14.000Z</time>
      </trkpt>
      <trkpt lat="44.57942" lon="6.87796">
        <ele>2730.8000488281</ele>
        <time>2020-02-18T13:35:15.000Z</time>
      </trkpt>
      <trkpt lat="44.57958" lon="6.87797">
        <ele>2730.1999511719</ele>
        <time>2020-02-18T13:35:20.000Z</time>
      </trkpt>
      <trkpt lat="44.57964" lon="6.87797">
        <ele>2730.1999511719</ele>
        <time>2020-02-18T13:35:22.000Z</time>
      </trkpt>
      <trkpt lat="44.57967" lon="6.87796">
        <ele>2730.3999023438</ele>
        <time>2020-02-18T13:35:24.000Z</time>
      </trkpt>
      <trkpt lat="44.57968" lon="6.87795">
        <ele>2730.1999511719</ele>
        <time>2020-02-18T13:35:25.000Z</time>
      </trkpt>
      <trkpt lat="44.57968" lon="6.87795">
        <ele>2730.1999511719</ele>
        <time>2020-02-18T13:35:26.000Z</time>
      </trkpt>
      <trkpt lat="44.57969" lon="6.87791">
        <ele>2730.3999023438</ele>
        <time>2020-02-18T13:35:33.000Z</time>
      </trkpt>
      <trkpt lat="44.57969" lon="6.87792">
        <ele>2730.3999023438</ele>
        <time>2020-02-18T13:35:37.000Z</time>
      </trkpt>
      <trkpt lat="44.57969" lon="6.87795">
        <ele>2730.3999023438</ele>
        <time>2020-02-18T13:35:42.000Z</time>
      </trkpt>
      <trkpt lat="44.5797" lon="6.87795">
        <ele>2730.3999023438</ele>
        <time>2020-02-18T13:35:44.000Z</time>
      </trkpt>
      <trkpt lat="44.57969" lon="6.87796">
        <ele>2730.3999023438</ele>
        <time>2020-02-18T13:35:46.000Z</time>
      </trkpt>
      <trkpt lat="44.57969" lon="6.87795">
        <ele>2730.3999023438</ele>
        <time>2020-02-18T13:35:47.000Z</time>
      </trkpt>
      <trkpt lat="44.5797" lon="6.87795">
        <ele>2730.3999023438</ele>
        <time>2020-02-18T13:35:48.000Z</time>
      </trkpt>
      <trkpt lat="44.5797" lon="6.87796">
        <ele>2730.3999023438</ele>
        <time>2020-02-18T13:35:49.000Z</time>
      </trkpt>
      <trkpt lat="44.5797" lon="6.87796">
        <ele>2730.3999023438</ele>
        <time>2020-02-18T13:35:50.000Z</time>
      </trkpt>
      <trkpt lat="44.5797" lon="6.87796">
        <ele>2730.3999023438</ele>
        <time>2020-02-18T13:35:52.000Z</time>
      </trkpt>
      <trkpt lat="44.5797" lon="6.87796">
        <ele>2730.3999023438</ele>
        <time>2020-02-18T13:35:53.000Z</time>
      </trkpt>
      <trkpt lat="44.5797" lon="6.87796">
        <ele>2730.3999023438</ele>
        <time>2020-02-18T13:35:54.000Z</time>
      </trkpt>
      <trkpt lat="44.5797" lon="6.87796">
        <ele>2730.3999023438</ele>
        <time>2020-02-18T13:35:56.000Z</time>
      </trkpt>
      <trkpt lat="44.5797" lon="6.87796">
        <ele>2730.3999023438</ele>
        <time>2020-02-18T13:35:58.000Z</time>
      </trkpt>
      <trkpt lat="44.5797" lon="6.87796">
        <ele>2730.3999023438</ele>
        <time>2020-02-18T13:35:59.000Z</time>
      </trkpt>
      <trkpt lat="44.5797" lon="6.87796">
        <ele>2730.3999023438</ele>
        <time>2020-02-18T13:36:00.000Z</time>
      </trkpt>
      <trkpt lat="44.5797" lon="6.87794">
        <ele>2730.1999511719</ele>
        <time>2020-02-18T13:36:04.000Z</time>
      </trkpt>
      <trkpt lat="44.5797" lon="6.87794">
        <ele>2730.1999511719</ele>
        <time>2020-02-18T13:36:06.000Z</time>
      </trkpt>
      <trkpt lat="44.5797" lon="6.87794">
        <ele>2730.1999511719</ele>
        <time>2020-02-18T13:36:08.000Z</time>
      </trkpt>
      <trkpt lat="44.5797" lon="6.87793">
        <ele>2730.1999511719</ele>
        <time>2020-02-18T13:36:09.000Z</time>
      </trkpt>
      <trkpt lat="44.5797" lon="6.87793">
        <ele>2730.1999511719</ele>
        <time>2020-02-18T13:36:10.000Z</time>
      </trkpt>
      <trkpt lat="44.5797" lon="6.87793">
        <ele>2730.3999023438</ele>
        <time>2020-02-18T13:36:12.000Z</time>
      </trkpt>
      <trkpt lat="44.5797" lon="6.87793">
        <ele>2730.3999023438</ele>
        <time>2020-02-18T13:36:13.000Z</time>
      </trkpt>
      <trkpt lat="44.5797" lon="6.87793">
        <ele>2730.3999023438</ele>
        <time>2020-02-18T13:36:15.000Z</time>
      </trkpt>
      <trkpt lat="44.57969" lon="6.87792">
        <ele>2730.3999023438</ele>
        <time>2020-02-18T13:36:18.000Z</time>
      </trkpt>
      <trkpt lat="44.5797" lon="6.87792">
        <ele>2730.3999023438</ele>
        <time>2020-02-18T13:36:23.000Z</time>
      </trkpt>
      <trkpt lat="44.57969" lon="6.87792">
        <ele>2730.3999023438</ele>
        <time>2020-02-18T13:36:27.000Z</time>
      </trkpt>
      <trkpt lat="44.57969" lon="6.87792">
        <ele>2730.3999023438</ele>
        <time>2020-02-18T13:36:28.000Z</time>
      </trkpt>
      <trkpt lat="44.57969" lon="6.87793">
        <ele>2730.3999023438</ele>
        <time>2020-02-18T13:36:32.000Z</time>
      </trkpt>
      <trkpt lat="44.57969" lon="6.87793">
        <ele>2730.3999023438</ele>
        <time>2020-02-18T13:36:36.000Z</time>
      </trkpt>
      <trkpt lat="44.5797" lon="6.87793">
        <ele>2730.3999023438</ele>
        <time>2020-02-18T13:36:37.000Z</time>
      </trkpt>
      <trkpt lat="44.5797" lon="6.87793">
        <ele>2730.3999023438</ele>
        <time>2020-02-18T13:36:38.000Z</time>
      </trkpt>
      <trkpt lat="44.5797" lon="6.87793">
        <ele>2730.3999023438</ele>
        <time>2020-02-18T13:36:39.000Z</time>
      </trkpt>
      <trkpt lat="44.5797" lon="6.87793">
        <ele>2730.3999023438</ele>
        <time>2020-02-18T13:36:40.000Z</time>
      </trkpt>
      <trkpt lat="44.57971" lon="6.87792">
        <ele>2730.3999023438</ele>
        <time>2020-02-18T13:36:43.000Z</time>
      </trkpt>
      <trkpt lat="44.57971" lon="6.87792">
        <ele>2730.3999023438</ele>
        <time>2020-02-18T13:36:48.000Z</time>
      </trkpt>
      <trkpt lat="44.5797" lon="6.87791">
        <ele>2730.3999023438</ele>
        <time>2020-02-18T13:36:52.000Z</time>
      </trkpt>
      <trkpt lat="44.57969" lon="6.87792">
        <ele>2730.3999023438</ele>
        <time>2020-02-18T13:36:57.000Z</time>
      </trkpt>
      <trkpt lat="44.57969" lon="6.87793">
        <ele>2730.3999023438</ele>
        <time>2020-02-18T13:36:58.000Z</time>
      </trkpt>
      <trkpt lat="44.57968" lon="6.87793">
        <ele>2730.3999023438</ele>
        <time>2020-02-18T13:37:01.000Z</time>
      </trkpt>
      <trkpt lat="44.57968" lon="6.87794">
        <ele>2730.3999023438</ele>
        <time>2020-02-18T13:37:03.000Z</time>
      </trkpt>
      <trkpt lat="44.57968" lon="6.87793">
        <ele>2730.3999023438</ele>
        <time>2020-02-18T13:37:05.000Z</time>
      </trkpt>
      <trkpt lat="44.57968" lon="6.87793">
        <ele>2730.3999023438</ele>
        <time>2020-02-18T13:37:06.000Z</time>
      </trkpt>
      <trkpt lat="44.5797" lon="6.87794">
        <ele>2730.3999023438</ele>
        <time>2020-02-18T13:37:12.000Z</time>
      </trkpt>
      <trkpt lat="44.5797" lon="6.87793">
        <ele>2730.3999023438</ele>
        <time>2020-02-18T13:37:14.000Z</time>
      </trkpt>
      <trkpt lat="44.5797" lon="6.87793">
        <ele>2730.3999023438</ele>
        <time>2020-02-18T13:37:18.000Z</time>
      </trkpt>
      <trkpt lat="44.5797" lon="6.87793">
        <ele>2730.3999023438</ele>
        <time>2020-02-18T13:37:23.000Z</time>
      </trkpt>
      <trkpt lat="44.5797" lon="6.87793">
        <ele>2730.3999023438</ele>
        <time>2020-02-18T13:37:25.000Z</time>
      </trkpt>
      <trkpt lat="44.57969" lon="6.87792">
        <ele>2730.3999023438</ele>
        <time>2020-02-18T13:37:28.000Z</time>
      </trkpt>
      <trkpt lat="44.57969" lon="6.87794">
        <ele>2730.3999023438</ele>
        <time>2020-02-18T13:37:34.000Z</time>
      </trkpt>
      <trkpt lat="44.5797" lon="6.87794">
        <ele>2730.3999023438</ele>
        <time>2020-02-18T13:37:35.000Z</time>
      </trkpt>
      <trkpt lat="44.5797" lon="6.87794">
        <ele>2730.3999023438</ele>
        <time>2020-02-18T13:37:36.000Z</time>
      </trkpt>
      <trkpt lat="44.5797" lon="6.87794">
        <ele>2730.3999023438</ele>
        <time>2020-02-18T13:37:37.000Z</time>
      </trkpt>
      <trkpt lat="44.57971" lon="6.87794">
        <ele>2730.3999023438</ele>
        <time>2020-02-18T13:37:39.000Z</time>
      </trkpt>
      <trkpt lat="44.57971" lon="6.87795">
        <ele>2730.3999023438</ele>
        <time>2020-02-18T13:37:41.000Z</time>
      </trkpt>
      <trkpt lat="44.57971" lon="6.87795">
        <ele>2730.3999023438</ele>
        <time>2020-02-18T13:37:42.000Z</time>
      </trkpt>
      <trkpt lat="44.57971" lon="6.87795">
        <ele>2730.3999023438</ele>
        <time>2020-02-18T13:37:43.000Z</time>
      </trkpt>
      <trkpt lat="44.57972" lon="6.87795">
        <ele>2730.3999023438</ele>
        <time>2020-02-18T13:37:45.000Z</time>
      </trkpt>
      <trkpt lat="44.57973" lon="6.87796">
        <ele>2730.3999023438</ele>
        <time>2020-02-18T13:37:50.000Z</time>
      </trkpt>
      <trkpt lat="44.57973" lon="6.87796">
        <ele>2730.3999023438</ele>
        <time>2020-02-18T13:37:51.000Z</time>
      </trkpt>
      <trkpt lat="44.57973" lon="6.87796">
        <ele>2730.3999023438</ele>
        <time>2020-02-18T13:37:53.000Z</time>
      </trkpt>
      <trkpt lat="44.57973" lon="6.87795">
        <ele>2730.3999023438</ele>
        <time>2020-02-18T13:38:00.000Z</time>
      </trkpt>
      <trkpt lat="44.57973" lon="6.87795">
        <ele>2730.3999023438</ele>
        <time>2020-02-18T13:38:05.000Z</time>
      </trkpt>
      <trkpt lat="44.57973" lon="6.87796">
        <ele>2730.3999023438</ele>
        <time>2020-02-18T13:38:08.000Z</time>
      </trkpt>
      <trkpt lat="44.57973" lon="6.87796">
        <ele>2730.3999023438</ele>
        <time>2020-02-18T13:38:18.000Z</time>
      </trkpt>
      <trkpt lat="44.57973" lon="6.87794">
        <ele>2730.3999023438</ele>
        <time>2020-02-18T13:38:23.000Z</time>
      </trkpt>
      <trkpt lat="44.57973" lon="6.87794">
        <ele>2730.3999023438</ele>
        <time>2020-02-18T13:38:24.000Z</time>
      </trkpt>
      <trkpt lat="44.57972" lon="6.87795">
        <ele>2730.3999023438</ele>
        <time>2020-02-18T13:38:32.000Z</time>
      </trkpt>
      <trkpt lat="44.57973" lon="6.87795">
        <ele>2730.3999023438</ele>
        <time>2020-02-18T13:38:37.000Z</time>
      </trkpt>
      <trkpt lat="44.57974" lon="6.87794">
        <ele>2730.3999023438</ele>
        <time>2020-02-18T13:38:40.000Z</time>
      </trkpt>
      <trkpt lat="44.57975" lon="6.87795">
        <ele>2730.3999023438</ele>
        <time>2020-02-18T13:38:47.000Z</time>
      </trkpt>
      <trkpt lat="44.57974" lon="6.87797">
        <ele>2730.3999023438</ele>
        <time>2020-02-18T13:38:49.000Z</time>
      </trkpt>
      <trkpt lat="44.57974" lon="6.87797">
        <ele>2730.3999023438</ele>
        <time>2020-02-18T13:38:50.000Z</time>
      </trkpt>
      <trkpt lat="44.57974" lon="6.87796">
        <ele>2730.3999023438</ele>
        <time>2020-02-18T13:38:51.000Z</time>
      </trkpt>
      <trkpt lat="44.57974" lon="6.87795">
        <ele>2730.3999023438</ele>
        <time>2020-02-18T13:38:52.000Z</time>
      </trkpt>
      <trkpt lat="44.57974" lon="6.87794">
        <ele>2730.3999023438</ele>
        <time>2020-02-18T13:38:55.000Z</time>
      </trkpt>
      <trkpt lat="44.57975" lon="6.87793">
        <ele>2730.3999023438</ele>
        <time>2020-02-18T13:38:56.000Z</time>
      </trkpt>
      <trkpt lat="44.57976" lon="6.87791">
        <ele>2730.3999023438</ele>
        <time>2020-02-18T13:39:04.000Z</time>
      </trkpt>
      <trkpt lat="44.57977" lon="6.87791">
        <ele>2730.3999023438</ele>
        <time>2020-02-18T13:39:08.000Z</time>
      </trkpt>
      <trkpt lat="44.57977" lon="6.87792">
        <ele>2730.3999023438</ele>
        <time>2020-02-18T13:39:10.000Z</time>
      </trkpt>
      <trkpt lat="44.57977" lon="6.87792">
        <ele>2730.3999023438</ele>
        <time>2020-02-18T13:39:13.000Z</time>
      </trkpt>
      <trkpt lat="44.57978" lon="6.87793">
        <ele>2730.3999023438</ele>
        <time>2020-02-18T13:39:20.000Z</time>
      </trkpt>
      <trkpt lat="44.57978" lon="6.87793">
        <ele>2730.3999023438</ele>
        <time>2020-02-18T13:39:25.000Z</time>
      </trkpt>
      <trkpt lat="44.57977" lon="6.87793">
        <ele>2730.3999023438</ele>
        <time>2020-02-18T13:39:27.000Z</time>
      </trkpt>
      <trkpt lat="44.57975" lon="6.87794">
        <ele>2730.3999023438</ele>
        <time>2020-02-18T13:39:31.000Z</time>
      </trkpt>
      <trkpt lat="44.57972" lon="6.87795">
        <ele>2730.3999023438</ele>
        <time>2020-02-18T13:39:38.000Z</time>
      </trkpt>
      <trkpt lat="44.57975" lon="6.87794">
        <ele>2730.3999023438</ele>
        <time>2020-02-18T13:39:49.000Z</time>
      </trkpt>
      <trkpt lat="44.57975" lon="6.87793">
        <ele>2730.3999023438</ele>
        <time>2020-02-18T13:39:51.000Z</time>
      </trkpt>
      <trkpt lat="44.57976" lon="6.87792">
        <ele>2730.3999023438</ele>
        <time>2020-02-18T13:39:53.000Z</time>
      </trkpt>
      <trkpt lat="44.57976" lon="6.8779">
        <ele>2730.3999023438</ele>
        <time>2020-02-18T13:39:54.000Z</time>
      </trkpt>
      <trkpt lat="44.57976" lon="6.8779">
        <ele>2730.3999023438</ele>
        <time>2020-02-18T13:39:55.000Z</time>
      </trkpt>
      <trkpt lat="44.57976" lon="6.8779">
        <ele>2730.3999023438</ele>
        <time>2020-02-18T13:39:56.000Z</time>
      </trkpt>
      <trkpt lat="44.57976" lon="6.8779">
        <ele>2730.3999023438</ele>
        <time>2020-02-18T13:39:59.000Z</time>
      </trkpt>
      <trkpt lat="44.57975" lon="6.8779">
        <ele>2730.3999023438</ele>
        <time>2020-02-18T13:40:00.000Z</time>
      </trkpt>
      <trkpt lat="44.57973" lon="6.87792">
        <ele>2730.3999023438</ele>
        <time>2020-02-18T13:40:02.000Z</time>
      </trkpt>
      <trkpt lat="44.57974" lon="6.87794">
        <ele>2730.3999023438</ele>
        <time>2020-02-18T13:40:06.000Z</time>
      </trkpt>
      <trkpt lat="44.57974" lon="6.87795">
        <ele>2730.3999023438</ele>
        <time>2020-02-18T13:40:08.000Z</time>
      </trkpt>
      <trkpt lat="44.57974" lon="6.87796">
        <ele>2730.3999023438</ele>
        <time>2020-02-18T13:40:12.000Z</time>
      </trkpt>
      <trkpt lat="44.57973" lon="6.87795">
        <ele>2730.3999023438</ele>
        <time>2020-02-18T13:40:14.000Z</time>
      </trkpt>
      <trkpt lat="44.57972" lon="6.87794">
        <ele>2730.3999023438</ele>
        <time>2020-02-18T13:40:19.000Z</time>
      </trkpt>
      <trkpt lat="44.57971" lon="6.87794">
        <ele>2730.3999023438</ele>
        <time>2020-02-18T13:40:23.000Z</time>
      </trkpt>
      <trkpt lat="44.57971" lon="6.87795">
        <ele>2730.3999023438</ele>
        <time>2020-02-18T13:40:25.000Z</time>
      </trkpt>
      <trkpt lat="44.57972" lon="6.87795">
        <ele>2730.3999023438</ele>
        <time>2020-02-18T13:40:27.000Z</time>
      </trkpt>
      <trkpt lat="44.57972" lon="6.87795">
        <ele>2730.3999023438</ele>
        <time>2020-02-18T13:40:29.000Z</time>
      </trkpt>
      <trkpt lat="44.57971" lon="6.87795">
        <ele>2730.3999023438</ele>
        <time>2020-02-18T13:40:30.000Z</time>
      </trkpt>
      <trkpt lat="44.57971" lon="6.87794">
        <ele>2730.3999023438</ele>
        <time>2020-02-18T13:40:31.000Z</time>
      </trkpt>
      <trkpt lat="44.5797" lon="6.87794">
        <ele>2730.3999023438</ele>
        <time>2020-02-18T13:40:32.000Z</time>
      </trkpt>
      <trkpt lat="44.5797" lon="6.87793">
        <ele>2730.3999023438</ele>
        <time>2020-02-18T13:40:34.000Z</time>
      </trkpt>
      <trkpt lat="44.57969" lon="6.87793">
        <ele>2730.3999023438</ele>
        <time>2020-02-18T13:40:36.000Z</time>
      </trkpt>
      <trkpt lat="44.57969" lon="6.87794">
        <ele>2730.3999023438</ele>
        <time>2020-02-18T13:40:39.000Z</time>
      </trkpt>
      <trkpt lat="44.57969" lon="6.87794">
        <ele>2730.3999023438</ele>
        <time>2020-02-18T13:40:42.000Z</time>
      </trkpt>
      <trkpt lat="44.57969" lon="6.87795">
        <ele>2730.3999023438</ele>
        <time>2020-02-18T13:40:44.000Z</time>
      </trkpt>
      <trkpt lat="44.57968" lon="6.87795">
        <ele>2730.3999023438</ele>
        <time>2020-02-18T13:40:46.000Z</time>
      </trkpt>
      <trkpt lat="44.57969" lon="6.87795">
        <ele>2730.3999023438</ele>
        <time>2020-02-18T13:40:48.000Z</time>
      </trkpt>
      <trkpt lat="44.57969" lon="6.87795">
        <ele>2730.3999023438</ele>
        <time>2020-02-18T13:40:50.000Z</time>
      </trkpt>
      <trkpt lat="44.57969" lon="6.87794">
        <ele>2730.3999023438</ele>
        <time>2020-02-18T13:40:53.000Z</time>
      </trkpt>
      <trkpt lat="44.5797" lon="6.87793">
        <ele>2730.3999023438</ele>
        <time>2020-02-18T13:41:06.000Z</time>
      </trkpt>
      <trkpt lat="44.5797" lon="6.87793">
        <ele>2730.3999023438</ele>
        <time>2020-02-18T13:41:15.000Z</time>
      </trkpt>
      <trkpt lat="44.5797" lon="6.87793">
        <ele>2730.3999023438</ele>
        <time>2020-02-18T13:41:17.000Z</time>
      </trkpt>
      <trkpt lat="44.5797" lon="6.87792">
        <ele>2730.3999023438</ele>
        <time>2020-02-18T13:41:18.000Z</time>
      </trkpt>
      <trkpt lat="44.5797" lon="6.87792">
        <ele>2730.3999023438</ele>
        <time>2020-02-18T13:41:19.000Z</time>
      </trkpt>
      <trkpt lat="44.5797" lon="6.87791">
        <ele>2730.3999023438</ele>
        <time>2020-02-18T13:41:20.000Z</time>
      </trkpt>
      <trkpt lat="44.57969" lon="6.87791">
        <ele>2730.3999023438</ele>
        <time>2020-02-18T13:41:22.000Z</time>
      </trkpt>
      <trkpt lat="44.57968" lon="6.87793">
        <ele>2730.3999023438</ele>
        <time>2020-02-18T13:41:30.000Z</time>
      </trkpt>
      <trkpt lat="44.57968" lon="6.87793">
        <ele>2730.3999023438</ele>
        <time>2020-02-18T13:41:31.000Z</time>
      </trkpt>
      <trkpt lat="44.57968" lon="6.87793">
        <ele>2730.3999023438</ele>
        <time>2020-02-18T13:41:32.000Z</time>
      </trkpt>
      <trkpt lat="44.57968" lon="6.87793">
        <ele>2730.3999023438</ele>
        <time>2020-02-18T13:41:33.000Z</time>
      </trkpt>
      <trkpt lat="44.57968" lon="6.87793">
        <ele>2730.3999023438</ele>
        <time>2020-02-18T13:41:35.000Z</time>
      </trkpt>
      <trkpt lat="44.57968" lon="6.87793">
        <ele>2730.3999023438</ele>
        <time>2020-02-18T13:41:36.000Z</time>
      </trkpt>
      <trkpt lat="44.57968" lon="6.87793">
        <ele>2730.3999023438</ele>
        <time>2020-02-18T13:41:37.000Z</time>
      </trkpt>
      <trkpt lat="44.57968" lon="6.87792">
        <ele>2730.3999023438</ele>
        <time>2020-02-18T13:41:39.000Z</time>
      </trkpt>
      <trkpt lat="44.57968" lon="6.87791">
        <ele>2730.3999023438</ele>
        <time>2020-02-18T13:41:42.000Z</time>
      </trkpt>
      <trkpt lat="44.57969" lon="6.87792">
        <ele>2730.3999023438</ele>
        <time>2020-02-18T13:41:44.000Z</time>
      </trkpt>
      <trkpt lat="44.5797" lon="6.87789">
        <ele>2730.3999023438</ele>
        <time>2020-02-18T13:41:52.000Z</time>
      </trkpt>
      <trkpt lat="44.57969" lon="6.87789">
        <ele>2730.3999023438</ele>
        <time>2020-02-18T13:41:55.000Z</time>
      </trkpt>
      <trkpt lat="44.57969" lon="6.87789">
        <ele>2730.3999023438</ele>
        <time>2020-02-18T13:41:56.000Z</time>
      </trkpt>
      <trkpt lat="44.57969" lon="6.87789">
        <ele>2730.3999023438</ele>
        <time>2020-02-18T13:41:58.000Z</time>
      </trkpt>
      <trkpt lat="44.57967" lon="6.87786">
        <ele>2730.3999023438</ele>
        <time>2020-02-18T13:42:11.000Z</time>
      </trkpt>
      <trkpt lat="44.57966" lon="6.87788">
        <ele>2730.3999023438</ele>
        <time>2020-02-18T13:42:17.000Z</time>
      </trkpt>
      <trkpt lat="44.57966" lon="6.87792">
        <ele>2730.3999023438</ele>
        <time>2020-02-18T13:42:22.000Z</time>
      </trkpt>
      <trkpt lat="44.57966" lon="6.87793">
        <ele>2730.3999023438</ele>
        <time>2020-02-18T13:42:23.000Z</time>
      </trkpt>
      <trkpt lat="44.57966" lon="6.87793">
        <ele>2730.3999023438</ele>
        <time>2020-02-18T13:42:27.000Z</time>
      </trkpt>
      <trkpt lat="44.57966" lon="6.87793">
        <ele>2730.3999023438</ele>
        <time>2020-02-18T13:42:28.000Z</time>
      </trkpt>
      <trkpt lat="44.57966" lon="6.87794">
        <ele>2730.3999023438</ele>
        <time>2020-02-18T13:42:33.000Z</time>
      </trkpt>
      <trkpt lat="44.57966" lon="6.87795">
        <ele>2730.3999023438</ele>
        <time>2020-02-18T13:42:37.000Z</time>
      </trkpt>
      <trkpt lat="44.57966" lon="6.87796">
        <ele>2730.3999023438</ele>
        <time>2020-02-18T13:42:38.000Z</time>
      </trkpt>
      <trkpt lat="44.57967" lon="6.87797">
        <ele>2730.3999023438</ele>
        <time>2020-02-18T13:42:40.000Z</time>
      </trkpt>
      <trkpt lat="44.57966" lon="6.87795">
        <ele>2730.3999023438</ele>
        <time>2020-02-18T13:43:09.000Z</time>
      </trkpt>
      <trkpt lat="44.57966" lon="6.87798">
        <ele>2730.3999023438</ele>
        <time>2020-02-18T13:43:15.000Z</time>
      </trkpt>
      <trkpt lat="44.57966" lon="6.87799">
        <ele>2730.3999023438</ele>
        <time>2020-02-18T13:43:16.000Z</time>
      </trkpt>
      <trkpt lat="44.57968" lon="6.87804">
        <ele>2730.3999023438</ele>
        <time>2020-02-18T13:43:21.000Z</time>
      </trkpt>
      <trkpt lat="44.57966" lon="6.87805">
        <ele>2730.3999023438</ele>
        <time>2020-02-18T13:43:25.000Z</time>
      </trkpt>
      <trkpt lat="44.57962" lon="6.87795">
        <ele>2730.3999023438</ele>
        <time>2020-02-18T13:43:27.000Z</time>
      </trkpt>
      <trkpt lat="44.57958" lon="6.87791">
        <ele>2730.3999023438</ele>
        <time>2020-02-18T13:43:28.000Z</time>
      </trkpt>
      <trkpt lat="44.57952" lon="6.87784">
        <ele>2728.8000488281</ele>
        <time>2020-02-18T13:43:29.000Z</time>
      </trkpt>
      <trkpt lat="44.57943" lon="6.87772">
        <ele>2727.8000488281</ele>
        <time>2020-02-18T13:43:32.000Z</time>
      </trkpt>
      <trkpt lat="44.57943" lon="6.87771">
        <ele>2727.6000976562</ele>
        <time>2020-02-18T13:43:33.000Z</time>
      </trkpt>
      <trkpt lat="44.57943" lon="6.8777">
        <ele>2727.3999023438</ele>
        <time>2020-02-18T13:43:35.000Z</time>
      </trkpt>
      <trkpt lat="44.57941" lon="6.87766">
        <ele>2727.6000976562</ele>
        <time>2020-02-18T13:43:40.000Z</time>
      </trkpt>
      <trkpt lat="44.57938" lon="6.87763">
        <ele>2727.3999023438</ele>
        <time>2020-02-18T13:43:42.000Z</time>
      </trkpt>
      <trkpt lat="44.57929" lon="6.87751">
        <ele>2726.6000976562</ele>
        <time>2020-02-18T13:43:46.000Z</time>
      </trkpt>
      <trkpt lat="44.57922" lon="6.87744">
        <ele>2725.1999511719</ele>
        <time>2020-02-18T13:43:49.000Z</time>
      </trkpt>
      <trkpt lat="44.57915" lon="6.87739">
        <ele>2724.1999511719</ele>
        <time>2020-02-18T13:43:52.000Z</time>
      </trkpt>
      <trkpt lat="44.57912" lon="6.87739">
        <ele>2724</ele>
        <time>2020-02-18T13:43:53.000Z</time>
      </trkpt>
      <trkpt lat="44.57903" lon="6.87731">
        <ele>2722.8000488281</ele>
        <time>2020-02-18T13:43:57.000Z</time>
      </trkpt>
      <trkpt lat="44.57895" lon="6.87726">
        <ele>2721.3999023438</ele>
        <time>2020-02-18T13:44:00.000Z</time>
      </trkpt>
      <trkpt lat="44.57892" lon="6.87727">
        <ele>2720.6000976562</ele>
        <time>2020-02-18T13:44:04.000Z</time>
      </trkpt>
      <trkpt lat="44.57892" lon="6.87728">
        <ele>2720.6000976562</ele>
        <time>2020-02-18T13:44:09.000Z</time>
      </trkpt>
      <trkpt lat="44.57892" lon="6.87728">
        <ele>2720.6000976562</ele>
        <time>2020-02-18T13:44:12.000Z</time>
      </trkpt>
      <trkpt lat="44.57887" lon="6.87719">
        <ele>2720.3999023438</ele>
        <time>2020-02-18T13:44:17.000Z</time>
      </trkpt>
      <trkpt lat="44.57884" lon="6.87715">
        <ele>2719.3999023438</ele>
        <time>2020-02-18T13:44:20.000Z</time>
      </trkpt>
      <trkpt lat="44.57884" lon="6.87715">
        <ele>2719.1999511719</ele>
        <time>2020-02-18T13:44:21.000Z</time>
      </trkpt>
      <trkpt lat="44.57884" lon="6.87715">
        <ele>2719</ele>
        <time>2020-02-18T13:44:22.000Z</time>
      </trkpt>
      <trkpt lat="44.57886" lon="6.87715">
        <ele>2718.8000488281</ele>
        <time>2020-02-18T13:44:26.000Z</time>
      </trkpt>
      <trkpt lat="44.57885" lon="6.87712">
        <ele>2718.3999023438</ele>
        <time>2020-02-18T13:44:32.000Z</time>
      </trkpt>
      <trkpt lat="44.57884" lon="6.87711">
        <ele>2718.1999511719</ele>
        <time>2020-02-18T13:44:33.000Z</time>
      </trkpt>
      <trkpt lat="44.57881" lon="6.8771">
        <ele>2718</ele>
        <time>2020-02-18T13:44:34.000Z</time>
      </trkpt>
      <trkpt lat="44.5788" lon="6.87709">
        <ele>2717.6000976562</ele>
        <time>2020-02-18T13:44:36.000Z</time>
      </trkpt>
      <trkpt lat="44.57879" lon="6.87708">
        <ele>2717.1999511719</ele>
        <time>2020-02-18T13:44:38.000Z</time>
      </trkpt>
      <trkpt lat="44.57875" lon="6.87705">
        <ele>2717</ele>
        <time>2020-02-18T13:44:40.000Z</time>
      </trkpt>
      <trkpt lat="44.57872" lon="6.87703">
        <ele>2716.1999511719</ele>
        <time>2020-02-18T13:44:42.000Z</time>
      </trkpt>
      <trkpt lat="44.57871" lon="6.87703">
        <ele>2715.8000488281</ele>
        <time>2020-02-18T13:44:43.000Z</time>
      </trkpt>
      <trkpt lat="44.57871" lon="6.87702">
        <ele>2715</ele>
        <time>2020-02-18T13:44:45.000Z</time>
      </trkpt>
      <trkpt lat="44.57871" lon="6.87702">
        <ele>2714.8000488281</ele>
        <time>2020-02-18T13:44:46.000Z</time>
      </trkpt>
      <trkpt lat="44.57863" lon="6.87693">
        <ele>2713.8000488281</ele>
        <time>2020-02-18T13:44:49.000Z</time>
      </trkpt>
      <trkpt lat="44.57857" lon="6.8768">
        <ele>2712.6000976562</ele>
        <time>2020-02-18T13:44:51.000Z</time>
      </trkpt>
      <trkpt lat="44.57854" lon="6.87673">
        <ele>2711.6000976562</ele>
        <time>2020-02-18T13:44:52.000Z</time>
      </trkpt>
      <trkpt lat="44.57851" lon="6.87666">
        <ele>2710.6000976562</ele>
        <time>2020-02-18T13:44:53.000Z</time>
      </trkpt>
      <trkpt lat="44.57846" lon="6.87655">
        <ele>2709</ele>
        <time>2020-02-18T13:44:55.000Z</time>
      </trkpt>
      <trkpt lat="44.57842" lon="6.87646">
        <ele>2707.8000488281</ele>
        <time>2020-02-18T13:44:57.000Z</time>
      </trkpt>
      <trkpt lat="44.57841" lon="6.87642">
        <ele>2707.1999511719</ele>
        <time>2020-02-18T13:44:58.000Z</time>
      </trkpt>
      <trkpt lat="44.57839" lon="6.87638">
        <ele>2706.3999023438</ele>
        <time>2020-02-18T13:44:59.000Z</time>
      </trkpt>
      <trkpt lat="44.57836" lon="6.87628">
        <ele>2705.3999023438</ele>
        <time>2020-02-18T13:45:01.000Z</time>
      </trkpt>
      <trkpt lat="44.5783" lon="6.87619">
        <ele>2704.3999023438</ele>
        <time>2020-02-18T13:45:04.000Z</time>
      </trkpt>
      <trkpt lat="44.5783" lon="6.87619">
        <ele>2704.1999511719</ele>
        <time>2020-02-18T13:45:05.000Z</time>
      </trkpt>
      <trkpt lat="44.5783" lon="6.87619">
        <ele>2704</ele>
        <time>2020-02-18T13:45:06.000Z</time>
      </trkpt>
      <trkpt lat="44.57828" lon="6.87614">
        <ele>2703.6000976562</ele>
        <time>2020-02-18T13:45:18.000Z</time>
      </trkpt>
      <trkpt lat="44.57823" lon="6.87607">
        <ele>2703</ele>
        <time>2020-02-18T13:45:22.000Z</time>
      </trkpt>
      <trkpt lat="44.5782" lon="6.87592">
        <ele>2701.8000488281</ele>
        <time>2020-02-18T13:45:26.000Z</time>
      </trkpt>
      <trkpt lat="44.57818" lon="6.87577">
        <ele>2700.6000976562</ele>
        <time>2020-02-18T13:45:29.000Z</time>
      </trkpt>
      <trkpt lat="44.57816" lon="6.87575">
        <ele>2700.1999511719</ele>
        <time>2020-02-18T13:45:30.000Z</time>
      </trkpt>
      <trkpt lat="44.57812" lon="6.87573">
        <ele>2699.6000976562</ele>
        <time>2020-02-18T13:45:31.000Z</time>
      </trkpt>
      <trkpt lat="44.57809" lon="6.87566">
        <ele>2698.1999511719</ele>
        <time>2020-02-18T13:45:33.000Z</time>
      </trkpt>
      <trkpt lat="44.57807" lon="6.87556">
        <ele>2696.6000976562</ele>
        <time>2020-02-18T13:45:35.000Z</time>
      </trkpt>
      <trkpt lat="44.57803" lon="6.87554">
        <ele>2695.8000488281</ele>
        <time>2020-02-18T13:45:36.000Z</time>
      </trkpt>
      <trkpt lat="44.578" lon="6.87552">
        <ele>2695.1999511719</ele>
        <time>2020-02-18T13:45:37.000Z</time>
      </trkpt>
      <trkpt lat="44.57793" lon="6.87543">
        <ele>2693.6000976562</ele>
        <time>2020-02-18T13:45:39.000Z</time>
      </trkpt>
      <trkpt lat="44.57786" lon="6.87535">
        <ele>2692.1999511719</ele>
        <time>2020-02-18T13:45:41.000Z</time>
      </trkpt>
      <trkpt lat="44.57783" lon="6.8753">
        <ele>2691.6000976562</ele>
        <time>2020-02-18T13:45:42.000Z</time>
      </trkpt>
      <trkpt lat="44.57781" lon="6.87524">
        <ele>2691</ele>
        <time>2020-02-18T13:45:43.000Z</time>
      </trkpt>
      <trkpt lat="44.57782" lon="6.87519">
        <ele>2690.3999023438</ele>
        <time>2020-02-18T13:45:44.000Z</time>
      </trkpt>
      <trkpt lat="44.57782" lon="6.87516">
        <ele>2689.8000488281</ele>
        <time>2020-02-18T13:45:45.000Z</time>
      </trkpt>
      <trkpt lat="44.57781" lon="6.87512">
        <ele>2689.1999511719</ele>
        <time>2020-02-18T13:45:46.000Z</time>
      </trkpt>
      <trkpt lat="44.57779" lon="6.87509">
        <ele>2688.8000488281</ele>
        <time>2020-02-18T13:45:47.000Z</time>
      </trkpt>
      <trkpt lat="44.57768" lon="6.87505">
        <ele>2687.6000976562</ele>
        <time>2020-02-18T13:45:51.000Z</time>
      </trkpt>
      <trkpt lat="44.57754" lon="6.87503">
        <ele>2686.3999023438</ele>
        <time>2020-02-18T13:45:56.000Z</time>
      </trkpt>
      <trkpt lat="44.57752" lon="6.875">
        <ele>2685.8000488281</ele>
        <time>2020-02-18T13:45:58.000Z</time>
      </trkpt>
      <trkpt lat="44.57752" lon="6.875">
        <ele>2685.3999023438</ele>
        <time>2020-02-18T13:45:59.000Z</time>
      </trkpt>
      <trkpt lat="44.57752" lon="6.87499">
        <ele>2685.1999511719</ele>
        <time>2020-02-18T13:46:00.000Z</time>
      </trkpt>
      <trkpt lat="44.57752" lon="6.87499">
        <ele>2685</ele>
        <time>2020-02-18T13:46:02.000Z</time>
      </trkpt>
      <trkpt lat="44.57751" lon="6.87486">
        <ele>2684.3999023438</ele>
        <time>2020-02-18T13:46:14.000Z</time>
      </trkpt>
      <trkpt lat="44.57751" lon="6.87481">
        <ele>2684</ele>
        <time>2020-02-18T13:46:15.000Z</time>
      </trkpt>
      <trkpt lat="44.57755" lon="6.87478">
        <ele>2683.3999023438</ele>
        <time>2020-02-18T13:46:17.000Z</time>
      </trkpt>
      <trkpt lat="44.57756" lon="6.87478">
        <ele>2682.8000488281</ele>
        <time>2020-02-18T13:46:19.000Z</time>
      </trkpt>
      <trkpt lat="44.57755" lon="6.87479">
        <ele>2682.1999511719</ele>
        <time>2020-02-18T13:46:22.000Z</time>
      </trkpt>
      <trkpt lat="44.57756" lon="6.87467">
        <ele>2682</ele>
        <time>2020-02-18T13:46:29.000Z</time>
      </trkpt>
      <trkpt lat="44.57758" lon="6.87461">
        <ele>2681.1999511719</ele>
        <time>2020-02-18T13:46:31.000Z</time>
      </trkpt>
      <trkpt lat="44.57759" lon="6.8746">
        <ele>2680.8000488281</ele>
        <time>2020-02-18T13:46:33.000Z</time>
      </trkpt>
      <trkpt lat="44.57761" lon="6.87458">
        <ele>2680.1999511719</ele>
        <time>2020-02-18T13:46:37.000Z</time>
      </trkpt>
      <trkpt lat="44.57764" lon="6.87451">
        <ele>2679.8000488281</ele>
        <time>2020-02-18T13:46:39.000Z</time>
      </trkpt>
      <trkpt lat="44.57768" lon="6.87446">
        <ele>2679</ele>
        <time>2020-02-18T13:46:41.000Z</time>
      </trkpt>
      <trkpt lat="44.57774" lon="6.8744">
        <ele>2677.8000488281</ele>
        <time>2020-02-18T13:46:44.000Z</time>
      </trkpt>
      <trkpt lat="44.57784" lon="6.87426">
        <ele>2676.1999511719</ele>
        <time>2020-02-18T13:46:47.000Z</time>
      </trkpt>
      <trkpt lat="44.57787" lon="6.87423">
        <ele>2675.1999511719</ele>
        <time>2020-02-18T13:46:49.000Z</time>
      </trkpt>
      <trkpt lat="44.57786" lon="6.87423">
        <ele>2675</ele>
        <time>2020-02-18T13:46:50.000Z</time>
      </trkpt>
      <trkpt lat="44.57783" lon="6.87416">
        <ele>2674.3999023438</ele>
        <time>2020-02-18T13:46:55.000Z</time>
      </trkpt>
      <trkpt lat="44.57783" lon="6.8741">
        <ele>2673.3999023438</ele>
        <time>2020-02-18T13:46:57.000Z</time>
      </trkpt>
      <trkpt lat="44.57782" lon="6.87405">
        <ele>2672.1999511719</ele>
        <time>2020-02-18T13:47:00.000Z</time>
      </trkpt>
      <trkpt lat="44.57778" lon="6.87397">
        <ele>2671.3999023438</ele>
        <time>2020-02-18T13:47:02.000Z</time>
      </trkpt>
      <trkpt lat="44.57776" lon="6.87394">
        <ele>2670.8000488281</ele>
        <time>2020-02-18T13:47:03.000Z</time>
      </trkpt>
      <trkpt lat="44.57776" lon="6.87392">
        <ele>2669.6000976562</ele>
        <time>2020-02-18T13:47:05.000Z</time>
      </trkpt>
      <trkpt lat="44.57772" lon="6.87387">
        <ele>2669</ele>
        <time>2020-02-18T13:47:09.000Z</time>
      </trkpt>
      <trkpt lat="44.5777" lon="6.87382">
        <ele>2668.3999023438</ele>
        <time>2020-02-18T13:47:11.000Z</time>
      </trkpt>
      <trkpt lat="44.57768" lon="6.87377">
        <ele>2666.8000488281</ele>
        <time>2020-02-18T13:47:14.000Z</time>
      </trkpt>
      <trkpt lat="44.57766" lon="6.87372">
        <ele>2665.6000976562</ele>
        <time>2020-02-18T13:47:17.000Z</time>
      </trkpt>
      <trkpt lat="44.57766" lon="6.8737">
        <ele>2664.8000488281</ele>
        <time>2020-02-18T13:47:19.000Z</time>
      </trkpt>
      <trkpt lat="44.57766" lon="6.8737">
        <ele>2664.3999023438</ele>
        <time>2020-02-18T13:47:21.000Z</time>
      </trkpt>
      <trkpt lat="44.57766" lon="6.87369">
        <ele>2664.1999511719</ele>
        <time>2020-02-18T13:47:26.000Z</time>
      </trkpt>
      <trkpt lat="44.57766" lon="6.87368">
        <ele>2664.1999511719</ele>
        <time>2020-02-18T13:47:29.000Z</time>
      </trkpt>
      <trkpt lat="44.57766" lon="6.87368">
        <ele>2664.1999511719</ele>
        <time>2020-02-18T13:47:30.000Z</time>
      </trkpt>
      <trkpt lat="44.57766" lon="6.87369">
        <ele>2664.1999511719</ele>
        <time>2020-02-18T13:47:38.000Z</time>
      </trkpt>
      <trkpt lat="44.57766" lon="6.8737">
        <ele>2664.1999511719</ele>
        <time>2020-02-18T13:47:40.000Z</time>
      </trkpt>
      <trkpt lat="44.57766" lon="6.8737">
        <ele>2664.1999511719</ele>
        <time>2020-02-18T13:47:42.000Z</time>
      </trkpt>
      <trkpt lat="44.57765" lon="6.8737">
        <ele>2664.1999511719</ele>
        <time>2020-02-18T13:47:46.000Z</time>
      </trkpt>
      <trkpt lat="44.57765" lon="6.87365">
        <ele>2664.1999511719</ele>
        <time>2020-02-18T13:47:56.000Z</time>
      </trkpt>
      <trkpt lat="44.57765" lon="6.87363">
        <ele>2664</ele>
        <time>2020-02-18T13:47:57.000Z</time>
      </trkpt>
      <trkpt lat="44.57763" lon="6.87356">
        <ele>2663</ele>
        <time>2020-02-18T13:48:00.000Z</time>
      </trkpt>
      <trkpt lat="44.57763" lon="6.87353">
        <ele>2662.6000976562</ele>
        <time>2020-02-18T13:48:01.000Z</time>
      </trkpt>
      <trkpt lat="44.57762" lon="6.87353">
        <ele>2662.1999511719</ele>
        <time>2020-02-18T13:48:02.000Z</time>
      </trkpt>
      <trkpt lat="44.5776" lon="6.87353">
        <ele>2661.8000488281</ele>
        <time>2020-02-18T13:48:03.000Z</time>
      </trkpt>
      <trkpt lat="44.57758" lon="6.87355">
        <ele>2661.1999511719</ele>
        <time>2020-02-18T13:48:04.000Z</time>
      </trkpt>
      <trkpt lat="44.57755" lon="6.87355">
        <ele>2660.3999023438</ele>
        <time>2020-02-18T13:48:05.000Z</time>
      </trkpt>
      <trkpt lat="44.57753" lon="6.87353">
        <ele>2659.1999511719</ele>
        <time>2020-02-18T13:48:06.000Z</time>
      </trkpt>
      <trkpt lat="44.57752" lon="6.8735">
        <ele>2658</ele>
        <time>2020-02-18T13:48:07.000Z</time>
      </trkpt>
      <trkpt lat="44.5775" lon="6.87346">
        <ele>2554</ele>
        <time>2020-02-18T13:48:08.000Z</time>
      </trkpt>
      <trkpt lat="44.57747" lon="6.87345">
        <ele>2554</ele>
        <time>2020-02-18T13:48:09.000Z</time>
      </trkpt>
      <trkpt lat="44.57745" lon="6.87345">
        <ele>2554</ele>
        <time>2020-02-18T13:48:10.000Z</time>
      </trkpt>
      <trkpt lat="44.57742" lon="6.87347">
        <ele>2554</ele>
        <time>2020-02-18T13:48:11.000Z</time>
      </trkpt>
      <trkpt lat="44.57739" lon="6.87349">
        <ele>2554</ele>
        <time>2020-02-18T13:48:12.000Z</time>
      </trkpt>
      <trkpt lat="44.57735" lon="6.87346">
        <ele>2554</ele>
        <time>2020-02-18T13:48:13.000Z</time>
      </trkpt>
      <trkpt lat="44.57734" lon="6.87342">
        <ele>2554</ele>
        <time>2020-02-18T13:48:14.000Z</time>
      </trkpt>
      <trkpt lat="44.57733" lon="6.8734">
        <ele>2554</ele>
        <time>2020-02-18T13:48:15.000Z</time>
      </trkpt>
      <trkpt lat="44.57733" lon="6.87337">
        <ele>2554</ele>
        <time>2020-02-18T13:48:16.000Z</time>
      </trkpt>
      <trkpt lat="44.57732" lon="6.87334">
        <ele>2554</ele>
        <time>2020-02-18T13:48:17.000Z</time>
      </trkpt>
      <trkpt lat="44.57729" lon="6.87333">
        <ele>2548</ele>
        <time>2020-02-18T13:48:18.000Z</time>
      </trkpt>
      <trkpt lat="44.57726" lon="6.87334">
        <ele>2554</ele>
        <time>2020-02-18T13:48:19.000Z</time>
      </trkpt>
      <trkpt lat="44.57722" lon="6.87335">
        <ele>2554</ele>
        <time>2020-02-18T13:48:20.000Z</time>
      </trkpt>
      <trkpt lat="44.57718" lon="6.87333">
        <ele>2548</ele>
        <time>2020-02-18T13:48:21.000Z</time>
      </trkpt>
      <trkpt lat="44.57716" lon="6.8733">
        <ele>2548</ele>
        <time>2020-02-18T13:48:22.000Z</time>
      </trkpt>
      <trkpt lat="44.57715" lon="6.87326">
        <ele>2548</ele>
        <time>2020-02-18T13:48:23.000Z</time>
      </trkpt>
      <trkpt lat="44.57713" lon="6.87322">
        <ele>2548</ele>
        <time>2020-02-18T13:48:24.000Z</time>
      </trkpt>
      <trkpt lat="44.5771" lon="6.87319">
        <ele>2548</ele>
        <time>2020-02-18T13:48:25.000Z</time>
      </trkpt>
      <trkpt lat="44.57708" lon="6.87318">
        <ele>2548</ele>
        <time>2020-02-18T13:48:26.000Z</time>
      </trkpt>
      <trkpt lat="44.57706" lon="6.87315">
        <ele>2548</ele>
        <time>2020-02-18T13:48:27.000Z</time>
      </trkpt>
      <trkpt lat="44.57705" lon="6.87311">
        <ele>2548</ele>
        <time>2020-02-18T13:48:28.000Z</time>
      </trkpt>
      <trkpt lat="44.57705" lon="6.87309">
        <ele>2547</ele>
        <time>2020-02-18T13:48:29.000Z</time>
      </trkpt>
      <trkpt lat="44.57705" lon="6.87307">
        <ele>2547</ele>
        <time>2020-02-18T13:48:30.000Z</time>
      </trkpt>
      <trkpt lat="44.57706" lon="6.87304">
        <ele>2547</ele>
        <time>2020-02-18T13:48:31.000Z</time>
      </trkpt>
      <trkpt lat="44.57704" lon="6.87292">
        <ele>2546</ele>
        <time>2020-02-18T13:48:33.000Z</time>
      </trkpt>
      <trkpt lat="44.57697" lon="6.87291">
        <ele>2545</ele>
        <time>2020-02-18T13:48:35.000Z</time>
      </trkpt>
      <trkpt lat="44.57693" lon="6.87289">
        <ele>2545</ele>
        <time>2020-02-18T13:48:36.000Z</time>
      </trkpt>
      <trkpt lat="44.57692" lon="6.87285">
        <ele>2544</ele>
        <time>2020-02-18T13:48:37.000Z</time>
      </trkpt>
      <trkpt lat="44.57692" lon="6.87284">
        <ele>2544</ele>
        <time>2020-02-18T13:48:38.000Z</time>
      </trkpt>
      <trkpt lat="44.57692" lon="6.87283">
        <ele>2544</ele>
        <time>2020-02-18T13:48:39.000Z</time>
      </trkpt>
      <trkpt lat="44.57692" lon="6.87284">
        <ele>2544</ele>
        <time>2020-02-18T13:48:40.000Z</time>
      </trkpt>
      <trkpt lat="44.57692" lon="6.87284">
        <ele>2544</ele>
        <time>2020-02-18T13:48:41.000Z</time>
      </trkpt>
      <trkpt lat="44.57692" lon="6.87284">
        <ele>2544</ele>
        <time>2020-02-18T13:48:49.000Z</time>
      </trkpt>
      <trkpt lat="44.57691" lon="6.87283">
        <ele>2543</ele>
        <time>2020-02-18T13:48:55.000Z</time>
      </trkpt>
      <trkpt lat="44.57691" lon="6.87282">
        <ele>2543</ele>
        <time>2020-02-18T13:48:59.000Z</time>
      </trkpt>
      <trkpt lat="44.57688" lon="6.87281">
        <ele>2543</ele>
        <time>2020-02-18T13:49:07.000Z</time>
      </trkpt>
      <trkpt lat="44.57686" lon="6.87281">
        <ele>2542</ele>
        <time>2020-02-18T13:49:08.000Z</time>
      </trkpt>
      <trkpt lat="44.5768" lon="6.87279">
        <ele>2541</ele>
        <time>2020-02-18T13:49:10.000Z</time>
      </trkpt>
      <trkpt lat="44.57675" lon="6.87279">
        <ele>2541</ele>
        <time>2020-02-18T13:49:12.000Z</time>
      </trkpt>
      <trkpt lat="44.57669" lon="6.87277">
        <ele>2540</ele>
        <time>2020-02-18T13:49:14.000Z</time>
      </trkpt>
      <trkpt lat="44.57663" lon="6.87278">
        <ele>2531</ele>
        <time>2020-02-18T13:49:16.000Z</time>
      </trkpt>
      <trkpt lat="44.5766" lon="6.87276">
        <ele>2530</ele>
        <time>2020-02-18T13:49:17.000Z</time>
      </trkpt>
      <trkpt lat="44.5766" lon="6.87274">
        <ele>2530</ele>
        <time>2020-02-18T13:49:18.000Z</time>
      </trkpt>
      <trkpt lat="44.5766" lon="6.87271">
        <ele>2529</ele>
        <time>2020-02-18T13:49:20.000Z</time>
      </trkpt>
      <trkpt lat="44.57659" lon="6.87268">
        <ele>2529</ele>
        <time>2020-02-18T13:49:21.000Z</time>
      </trkpt>
      <trkpt lat="44.57659" lon="6.87266">
        <ele>2529</ele>
        <time>2020-02-18T13:49:22.000Z</time>
      </trkpt>
      <trkpt lat="44.57658" lon="6.87265">
        <ele>2529</ele>
        <time>2020-02-18T13:49:23.000Z</time>
      </trkpt>
      <trkpt lat="44.57658" lon="6.87264">
        <ele>2528</ele>
        <time>2020-02-18T13:49:24.000Z</time>
      </trkpt>
      <trkpt lat="44.57656" lon="6.87262">
        <ele>2528</ele>
        <time>2020-02-18T13:49:26.000Z</time>
      </trkpt>
      <trkpt lat="44.57654" lon="6.8726">
        <ele>2528</ele>
        <time>2020-02-18T13:49:28.000Z</time>
      </trkpt>
      <trkpt lat="44.57654" lon="6.87261">
        <ele>2528</ele>
        <time>2020-02-18T13:49:29.000Z</time>
      </trkpt>
      <trkpt lat="44.57654" lon="6.8726">
        <ele>2528</ele>
        <time>2020-02-18T13:49:37.000Z</time>
      </trkpt>
      <trkpt lat="44.57654" lon="6.8726">
        <ele>2528</ele>
        <time>2020-02-18T13:49:38.000Z</time>
      </trkpt>
      <trkpt lat="44.57655" lon="6.87259">
        <ele>2528</ele>
        <time>2020-02-18T13:49:47.000Z</time>
      </trkpt>
      <trkpt lat="44.57655" lon="6.87258">
        <ele>2528</ele>
        <time>2020-02-18T13:49:49.000Z</time>
      </trkpt>
      <trkpt lat="44.57654" lon="6.87255">
        <ele>2528</ele>
        <time>2020-02-18T13:49:57.000Z</time>
      </trkpt>
      <trkpt lat="44.5765" lon="6.87254">
        <ele>2528</ele>
        <time>2020-02-18T13:49:59.000Z</time>
      </trkpt>
      <trkpt lat="44.57649" lon="6.87254">
        <ele>2527</ele>
        <time>2020-02-18T13:50:00.000Z</time>
      </trkpt>
      <trkpt lat="44.57649" lon="6.87254">
        <ele>2527</ele>
        <time>2020-02-18T13:50:01.000Z</time>
      </trkpt>
      <trkpt lat="44.57651" lon="6.87252">
        <ele>2527</ele>
        <time>2020-02-18T13:50:05.000Z</time>
      </trkpt>
      <trkpt lat="44.57651" lon="6.87251">
        <ele>2527</ele>
        <time>2020-02-18T13:50:09.000Z</time>
      </trkpt>
      <trkpt lat="44.57649" lon="6.87251">
        <ele>2527</ele>
        <time>2020-02-18T13:50:13.000Z</time>
      </trkpt>
      <trkpt lat="44.57648" lon="6.87251">
        <ele>2527</ele>
        <time>2020-02-18T13:50:14.000Z</time>
      </trkpt>
      <trkpt lat="44.57646" lon="6.87252">
        <ele>2527</ele>
        <time>2020-02-18T13:50:15.000Z</time>
      </trkpt>
      <trkpt lat="44.57645" lon="6.87251">
        <ele>2527</ele>
        <time>2020-02-18T13:50:16.000Z</time>
      </trkpt>
      <trkpt lat="44.57643" lon="6.87251">
        <ele>2527</ele>
        <time>2020-02-18T13:50:18.000Z</time>
      </trkpt>
      <trkpt lat="44.5764" lon="6.87251">
        <ele>2527</ele>
        <time>2020-02-18T13:50:21.000Z</time>
      </trkpt>
      <trkpt lat="44.57639" lon="6.8725">
        <ele>2526</ele>
        <time>2020-02-18T13:50:22.000Z</time>
      </trkpt>
      <trkpt lat="44.57639" lon="6.87245">
        <ele>2510</ele>
        <time>2020-02-18T13:50:24.000Z</time>
      </trkpt>
      <trkpt lat="44.57641" lon="6.87241">
        <ele>2510</ele>
        <time>2020-02-18T13:50:26.000Z</time>
      </trkpt>
      <trkpt lat="44.57642" lon="6.87239">
        <ele>2510</ele>
        <time>2020-02-18T13:50:27.000Z</time>
      </trkpt>
      <trkpt lat="44.57643" lon="6.87235">
        <ele>2510</ele>
        <time>2020-02-18T13:50:29.000Z</time>
      </trkpt>
      <trkpt lat="44.57644" lon="6.87234">
        <ele>2509</ele>
        <time>2020-02-18T13:50:31.000Z</time>
      </trkpt>
      <trkpt lat="44.57644" lon="6.87234">
        <ele>2509</ele>
        <time>2020-02-18T13:50:32.000Z</time>
      </trkpt>
      <trkpt lat="44.57644" lon="6.87233">
        <ele>2509</ele>
        <time>2020-02-18T13:50:33.000Z</time>
      </trkpt>
      <trkpt lat="44.57645" lon="6.87231">
        <ele>2509</ele>
        <time>2020-02-18T13:50:35.000Z</time>
      </trkpt>
      <trkpt lat="44.57645" lon="6.87231">
        <ele>2509</ele>
        <time>2020-02-18T13:50:36.000Z</time>
      </trkpt>
      <trkpt lat="44.57645" lon="6.8723">
        <ele>2509</ele>
        <time>2020-02-18T13:50:38.000Z</time>
      </trkpt>
      <trkpt lat="44.57646" lon="6.87222">
        <ele>2507</ele>
        <time>2020-02-18T13:50:44.000Z</time>
      </trkpt>
      <trkpt lat="44.57647" lon="6.87219">
        <ele>2506</ele>
        <time>2020-02-18T13:50:45.000Z</time>
      </trkpt>
      <trkpt lat="44.57647" lon="6.87217">
        <ele>2506</ele>
        <time>2020-02-18T13:50:46.000Z</time>
      </trkpt>
      <trkpt lat="44.57647" lon="6.87216">
        <ele>2506</ele>
        <time>2020-02-18T13:50:48.000Z</time>
      </trkpt>
      <trkpt lat="44.57646" lon="6.87208">
        <ele>2504</ele>
        <time>2020-02-18T13:50:50.000Z</time>
      </trkpt>
      <trkpt lat="44.57644" lon="6.87205">
        <ele>2503</ele>
        <time>2020-02-18T13:50:51.000Z</time>
      </trkpt>
      <trkpt lat="44.57641" lon="6.87205">
        <ele>2503</ele>
        <time>2020-02-18T13:50:52.000Z</time>
      </trkpt>
      <trkpt lat="44.57638" lon="6.87205">
        <ele>2502</ele>
        <time>2020-02-18T13:50:53.000Z</time>
      </trkpt>
      <trkpt lat="44.57635" lon="6.87203">
        <ele>2502</ele>
        <time>2020-02-18T13:50:54.000Z</time>
      </trkpt>
      <trkpt lat="44.57633" lon="6.87199">
        <ele>2501</ele>
        <time>2020-02-18T13:50:55.000Z</time>
      </trkpt>
      <trkpt lat="44.57634" lon="6.87195">
        <ele>2500</ele>
        <time>2020-02-18T13:50:56.000Z</time>
      </trkpt>
      <trkpt lat="44.57635" lon="6.87192">
        <ele>2500</ele>
        <time>2020-02-18T13:50:57.000Z</time>
      </trkpt>
      <trkpt lat="44.57635" lon="6.87188">
        <ele>2499</ele>
        <time>2020-02-18T13:50:58.000Z</time>
      </trkpt>
      <trkpt lat="44.57633" lon="6.87185">
        <ele>2499</ele>
        <time>2020-02-18T13:50:59.000Z</time>
      </trkpt>
      <trkpt lat="44.57629" lon="6.87184">
        <ele>2498</ele>
        <time>2020-02-18T13:51:00.000Z</time>
      </trkpt>
      <trkpt lat="44.57628" lon="6.8718">
        <ele>2498</ele>
        <time>2020-02-18T13:51:01.000Z</time>
      </trkpt>
      <trkpt lat="44.57629" lon="6.87176">
        <ele>2497</ele>
        <time>2020-02-18T13:51:02.000Z</time>
      </trkpt>
      <trkpt lat="44.57629" lon="6.87173">
        <ele>2497</ele>
        <time>2020-02-18T13:51:03.000Z</time>
      </trkpt>
      <trkpt lat="44.5763" lon="6.87172">
        <ele>2497</ele>
        <time>2020-02-18T13:51:04.000Z</time>
      </trkpt>
      <trkpt lat="44.5763" lon="6.87172">
        <ele>2497</ele>
        <time>2020-02-18T13:51:05.000Z</time>
      </trkpt>
      <trkpt lat="44.57631" lon="6.87169">
        <ele>2497</ele>
        <time>2020-02-18T13:51:07.000Z</time>
      </trkpt>
      <trkpt lat="44.57629" lon="6.87164">
        <ele>2479</ele>
        <time>2020-02-18T13:51:08.000Z</time>
      </trkpt>
      <trkpt lat="44.57624" lon="6.87161">
        <ele>2477</ele>
        <time>2020-02-18T13:51:10.000Z</time>
      </trkpt>
      <trkpt lat="44.57621" lon="6.87156">
        <ele>2477</ele>
        <time>2020-02-18T13:51:11.000Z</time>
      </trkpt>
      <trkpt lat="44.57622" lon="6.87152">
        <ele>2476</ele>
        <time>2020-02-18T13:51:12.000Z</time>
      </trkpt>
      <trkpt lat="44.57623" lon="6.87149">
        <ele>2476</ele>
        <time>2020-02-18T13:51:13.000Z</time>
      </trkpt>
      <trkpt lat="44.57623" lon="6.87144">
        <ele>2476</ele>
        <time>2020-02-18T13:51:14.000Z</time>
      </trkpt>
      <trkpt lat="44.57622" lon="6.87138">
        <ele>2475</ele>
        <time>2020-02-18T13:51:15.000Z</time>
      </trkpt>
      <trkpt lat="44.5762" lon="6.87135">
        <ele>2474</ele>
        <time>2020-02-18T13:51:16.000Z</time>
      </trkpt>
      <trkpt lat="44.57616" lon="6.87134">
        <ele>2473</ele>
        <time>2020-02-18T13:51:17.000Z</time>
      </trkpt>
      <trkpt lat="44.57613" lon="6.87129">
        <ele>2472</ele>
        <time>2020-02-18T13:51:18.000Z</time>
      </trkpt>
      <trkpt lat="44.57612" lon="6.87124">
        <ele>2471</ele>
        <time>2020-02-18T13:51:19.000Z</time>
      </trkpt>
      <trkpt lat="44.57613" lon="6.8712">
        <ele>2471</ele>
        <time>2020-02-18T13:51:20.000Z</time>
      </trkpt>
      <trkpt lat="44.57613" lon="6.87119">
        <ele>2471</ele>
        <time>2020-02-18T13:51:21.000Z</time>
      </trkpt>
      <trkpt lat="44.57613" lon="6.87119">
        <ele>2471</ele>
        <time>2020-02-18T13:51:22.000Z</time>
      </trkpt>
      <trkpt lat="44.57614" lon="6.87121">
        <ele>2471</ele>
        <time>2020-02-18T13:51:24.000Z</time>
      </trkpt>
      <trkpt lat="44.57614" lon="6.87121">
        <ele>2471</ele>
        <time>2020-02-18T13:51:28.000Z</time>
      </trkpt>
      <trkpt lat="44.57615" lon="6.87119">
        <ele>2471</ele>
        <time>2020-02-18T13:51:34.000Z</time>
      </trkpt>
      <trkpt lat="44.57616" lon="6.87114">
        <ele>2470</ele>
        <time>2020-02-18T13:51:35.000Z</time>
      </trkpt>
      <trkpt lat="44.57618" lon="6.87109">
        <ele>2469</ele>
        <time>2020-02-18T13:51:37.000Z</time>
      </trkpt>
      <trkpt lat="44.57618" lon="6.87109">
        <ele>2469</ele>
        <time>2020-02-18T13:51:38.000Z</time>
      </trkpt>
      <trkpt lat="44.57618" lon="6.87109">
        <ele>2469</ele>
        <time>2020-02-18T13:51:39.000Z</time>
      </trkpt>
      <trkpt lat="44.57617" lon="6.87106">
        <ele>2469</ele>
        <time>2020-02-18T13:51:43.000Z</time>
      </trkpt>
      <trkpt lat="44.57617" lon="6.87106">
        <ele>2469</ele>
        <time>2020-02-18T13:51:44.000Z</time>
      </trkpt>
      <trkpt lat="44.57619" lon="6.87108">
        <ele>2469</ele>
        <time>2020-02-18T13:52:03.000Z</time>
      </trkpt>
      <trkpt lat="44.57619" lon="6.87108">
        <ele>2469</ele>
        <time>2020-02-18T13:52:09.000Z</time>
      </trkpt>
      <trkpt lat="44.5762" lon="6.87106">
        <ele>2469</ele>
        <time>2020-02-18T13:52:12.000Z</time>
      </trkpt>
      <trkpt lat="44.5762" lon="6.87106">
        <ele>2469</ele>
        <time>2020-02-18T13:52:14.000Z</time>
      </trkpt>
      <trkpt lat="44.57619" lon="6.87106">
        <ele>2469</ele>
        <time>2020-02-18T13:52:18.000Z</time>
      </trkpt>
      <trkpt lat="44.57619" lon="6.87107">
        <ele>2469</ele>
        <time>2020-02-18T13:52:20.000Z</time>
      </trkpt>
      <trkpt lat="44.5762" lon="6.87106">
        <ele>2469</ele>
        <time>2020-02-18T13:52:23.000Z</time>
      </trkpt>
      <trkpt lat="44.5762" lon="6.87103">
        <ele>2469</ele>
        <time>2020-02-18T13:52:31.000Z</time>
      </trkpt>
      <trkpt lat="44.5762" lon="6.87103">
        <ele>2469</ele>
        <time>2020-02-18T13:52:32.000Z</time>
      </trkpt>
      <trkpt lat="44.5762" lon="6.87103">
        <ele>2469</ele>
        <time>2020-02-18T13:52:33.000Z</time>
      </trkpt>
      <trkpt lat="44.57621" lon="6.87103">
        <ele>2469</ele>
        <time>2020-02-18T13:52:34.000Z</time>
      </trkpt>
      <trkpt lat="44.57621" lon="6.87103">
        <ele>2469</ele>
        <time>2020-02-18T13:52:36.000Z</time>
      </trkpt>
      <trkpt lat="44.57621" lon="6.87102">
        <ele>2469</ele>
        <time>2020-02-18T13:52:37.000Z</time>
      </trkpt>
      <trkpt lat="44.57621" lon="6.87104">
        <ele>2469</ele>
        <time>2020-02-18T13:52:42.000Z</time>
      </trkpt>
      <trkpt lat="44.57621" lon="6.87104">
        <ele>2469</ele>
        <time>2020-02-18T13:52:44.000Z</time>
      </trkpt>
      <trkpt lat="44.57621" lon="6.87103">
        <ele>2469</ele>
        <time>2020-02-18T13:52:47.000Z</time>
      </trkpt>
      <trkpt lat="44.5762" lon="6.87104">
        <ele>2469</ele>
        <time>2020-02-18T13:52:55.000Z</time>
      </trkpt>
      <trkpt lat="44.5762" lon="6.87104">
        <ele>2469</ele>
        <time>2020-02-18T13:52:56.000Z</time>
      </trkpt>
      <trkpt lat="44.5762" lon="6.87104">
        <ele>2469</ele>
        <time>2020-02-18T13:52:59.000Z</time>
      </trkpt>
      <trkpt lat="44.5762" lon="6.87104">
        <ele>2469</ele>
        <time>2020-02-18T13:53:02.000Z</time>
      </trkpt>
      <trkpt lat="44.5762" lon="6.87103">
        <ele>2469</ele>
        <time>2020-02-18T13:53:04.000Z</time>
      </trkpt>
      <trkpt lat="44.57618" lon="6.87105">
        <ele>2469</ele>
        <time>2020-02-18T13:53:10.000Z</time>
      </trkpt>
      <trkpt lat="44.57617" lon="6.87106">
        <ele>2469</ele>
        <time>2020-02-18T13:53:14.000Z</time>
      </trkpt>
      <trkpt lat="44.57617" lon="6.87105">
        <ele>2469</ele>
        <time>2020-02-18T13:53:15.000Z</time>
      </trkpt>
      <trkpt lat="44.57615" lon="6.871">
        <ele>2468</ele>
        <time>2020-02-18T13:53:22.000Z</time>
      </trkpt>
      <trkpt lat="44.57615" lon="6.871">
        <ele>2468</ele>
        <time>2020-02-18T13:53:23.000Z</time>
      </trkpt>
      <trkpt lat="44.57615" lon="6.87097">
        <ele>2467</ele>
        <time>2020-02-18T13:53:26.000Z</time>
      </trkpt>
      <trkpt lat="44.57615" lon="6.87097">
        <ele>2467</ele>
        <time>2020-02-18T13:53:27.000Z</time>
      </trkpt>
      <trkpt lat="44.57618" lon="6.87101">
        <ele>2468</ele>
        <time>2020-02-18T13:53:31.000Z</time>
      </trkpt>
      <trkpt lat="44.57618" lon="6.87102">
        <ele>2468</ele>
        <time>2020-02-18T13:53:32.000Z</time>
      </trkpt>
      <trkpt lat="44.57618" lon="6.87102">
        <ele>2468</ele>
        <time>2020-02-18T13:53:34.000Z</time>
      </trkpt>
      <trkpt lat="44.57619" lon="6.87102">
        <ele>2468</ele>
        <time>2020-02-18T13:53:36.000Z</time>
      </trkpt>
      <trkpt lat="44.57619" lon="6.87101">
        <ele>2468</ele>
        <time>2020-02-18T13:53:37.000Z</time>
      </trkpt>
      <trkpt lat="44.57619" lon="6.87101">
        <ele>2468</ele>
        <time>2020-02-18T13:53:42.000Z</time>
      </trkpt>
      <trkpt lat="44.57619" lon="6.871">
        <ele>2468</ele>
        <time>2020-02-18T13:53:43.000Z</time>
      </trkpt>
      <trkpt lat="44.57619" lon="6.87099">
        <ele>2468</ele>
        <time>2020-02-18T13:53:44.000Z</time>
      </trkpt>
      <trkpt lat="44.57619" lon="6.87098">
        <ele>2468</ele>
        <time>2020-02-18T13:53:45.000Z</time>
      </trkpt>
      <trkpt lat="44.5762" lon="6.87089">
        <ele>2467</ele>
        <time>2020-02-18T13:53:48.000Z</time>
      </trkpt>
      <trkpt lat="44.57616" lon="6.87083">
        <ele>2449</ele>
        <time>2020-02-18T13:53:50.000Z</time>
      </trkpt>
      <trkpt lat="44.57613" lon="6.87083">
        <ele>2449</ele>
        <time>2020-02-18T13:53:51.000Z</time>
      </trkpt>
      <trkpt lat="44.57611" lon="6.8708">
        <ele>2449</ele>
        <time>2020-02-18T13:53:52.000Z</time>
      </trkpt>
      <trkpt lat="44.5761" lon="6.87076">
        <ele>2449</ele>
        <time>2020-02-18T13:53:53.000Z</time>
      </trkpt>
      <trkpt lat="44.57611" lon="6.87071">
        <ele>2448</ele>
        <time>2020-02-18T13:53:54.000Z</time>
      </trkpt>
      <trkpt lat="44.57616" lon="6.87064">
        <ele>2448</ele>
        <time>2020-02-18T13:53:57.000Z</time>
      </trkpt>
      <trkpt lat="44.57617" lon="6.87053">
        <ele>2446</ele>
        <time>2020-02-18T13:53:59.000Z</time>
      </trkpt>
      <trkpt lat="44.57615" lon="6.87047">
        <ele>2445</ele>
        <time>2020-02-18T13:54:01.000Z</time>
      </trkpt>
      <trkpt lat="44.57614" lon="6.87043">
        <ele>2444</ele>
        <time>2020-02-18T13:54:02.000Z</time>
      </trkpt>
      <trkpt lat="44.57615" lon="6.87039">
        <ele>2444</ele>
        <time>2020-02-18T13:54:03.000Z</time>
      </trkpt>
      <trkpt lat="44.57616" lon="6.87038">
        <ele>2444</ele>
        <time>2020-02-18T13:54:04.000Z</time>
      </trkpt>
      <trkpt lat="44.57617" lon="6.87037">
        <ele>2443</ele>
        <time>2020-02-18T13:54:05.000Z</time>
      </trkpt>
      <trkpt lat="44.57618" lon="6.87035">
        <ele>2443</ele>
        <time>2020-02-18T13:54:07.000Z</time>
      </trkpt>
      <trkpt lat="44.57625" lon="6.87027">
        <ele>2442</ele>
        <time>2020-02-18T13:54:10.000Z</time>
      </trkpt>
      <trkpt lat="44.57629" lon="6.87023">
        <ele>2442</ele>
        <time>2020-02-18T13:54:12.000Z</time>
      </trkpt>
      <trkpt lat="44.57636" lon="6.87016">
        <ele>2440</ele>
        <time>2020-02-18T13:54:15.000Z</time>
      </trkpt>
      <trkpt lat="44.5764" lon="6.87014">
        <ele>2440</ele>
        <time>2020-02-18T13:54:17.000Z</time>
      </trkpt>
      <trkpt lat="44.57645" lon="6.87009">
        <ele>2439</ele>
        <time>2020-02-18T13:54:19.000Z</time>
      </trkpt>
      <trkpt lat="44.57651" lon="6.87002">
        <ele>2437</ele>
        <time>2020-02-18T13:54:21.000Z</time>
      </trkpt>
      <trkpt lat="44.57656" lon="6.86998">
        <ele>2427</ele>
        <time>2020-02-18T13:54:23.000Z</time>
      </trkpt>
      <trkpt lat="44.57664" lon="6.86991">
        <ele>2427</ele>
        <time>2020-02-18T13:54:26.000Z</time>
      </trkpt>
      <trkpt lat="44.57671" lon="6.86982">
        <ele>2427</ele>
        <time>2020-02-18T13:54:28.000Z</time>
      </trkpt>
      <trkpt lat="44.57679" lon="6.86976">
        <ele>2426</ele>
        <time>2020-02-18T13:54:30.000Z</time>
      </trkpt>
      <trkpt lat="44.57685" lon="6.8697">
        <ele>2425</ele>
        <time>2020-02-18T13:54:32.000Z</time>
      </trkpt>
      <trkpt lat="44.57689" lon="6.86967">
        <ele>2424</ele>
        <time>2020-02-18T13:54:34.000Z</time>
      </trkpt>
      <trkpt lat="44.57692" lon="6.86963">
        <ele>2424</ele>
        <time>2020-02-18T13:54:37.000Z</time>
      </trkpt>
      <trkpt lat="44.57693" lon="6.86963">
        <ele>2424</ele>
        <time>2020-02-18T13:54:38.000Z</time>
      </trkpt>
      <trkpt lat="44.57692" lon="6.86961">
        <ele>2423</ele>
        <time>2020-02-18T13:54:43.000Z</time>
      </trkpt>
      <trkpt lat="44.57694" lon="6.86961">
        <ele>2423</ele>
        <time>2020-02-18T13:54:48.000Z</time>
      </trkpt>
      <trkpt lat="44.57694" lon="6.86961">
        <ele>2423</ele>
        <time>2020-02-18T13:54:52.000Z</time>
      </trkpt>
      <trkpt lat="44.57694" lon="6.86961">
        <ele>2423</ele>
        <time>2020-02-18T13:54:57.000Z</time>
      </trkpt>
      <trkpt lat="44.57694" lon="6.8696">
        <ele>2423</ele>
        <time>2020-02-18T13:55:00.000Z</time>
      </trkpt>
      <trkpt lat="44.57694" lon="6.8696">
        <ele>2423</ele>
        <time>2020-02-18T13:55:08.000Z</time>
      </trkpt>
      <trkpt lat="44.57695" lon="6.86962">
        <ele>2424</ele>
        <time>2020-02-18T13:55:18.000Z</time>
      </trkpt>
      <trkpt lat="44.57694" lon="6.86961">
        <ele>2423</ele>
        <time>2020-02-18T13:55:31.000Z</time>
      </trkpt>
      <trkpt lat="44.57694" lon="6.86961">
        <ele>2423</ele>
        <time>2020-02-18T13:55:33.000Z</time>
      </trkpt>
      <trkpt lat="44.57694" lon="6.86962">
        <ele>2424</ele>
        <time>2020-02-18T13:55:39.000Z</time>
      </trkpt>
      <trkpt lat="44.57694" lon="6.86962">
        <ele>2424</ele>
        <time>2020-02-18T13:55:42.000Z</time>
      </trkpt>
      <trkpt lat="44.57695" lon="6.86963">
        <ele>2424</ele>
        <time>2020-02-18T13:55:47.000Z</time>
      </trkpt>
      <trkpt lat="44.57695" lon="6.86961">
        <ele>2423</ele>
        <time>2020-02-18T13:55:53.000Z</time>
      </trkpt>
      <trkpt lat="44.57695" lon="6.86963">
        <ele>2424</ele>
        <time>2020-02-18T13:55:55.000Z</time>
      </trkpt>
      <trkpt lat="44.57697" lon="6.86962">
        <ele>2424</ele>
        <time>2020-02-18T13:55:58.000Z</time>
      </trkpt>
      <trkpt lat="44.57702" lon="6.86955">
        <ele>2423</ele>
        <time>2020-02-18T13:56:02.000Z</time>
      </trkpt>
      <trkpt lat="44.57699" lon="6.86948">
        <ele>2421</ele>
        <time>2020-02-18T13:56:03.000Z</time>
      </trkpt>
      <trkpt lat="44.57698" lon="6.86944">
        <ele>2420</ele>
        <time>2020-02-18T13:56:04.000Z</time>
      </trkpt>
      <trkpt lat="44.57697" lon="6.86942">
        <ele>2420</ele>
        <time>2020-02-18T13:56:05.000Z</time>
      </trkpt>
      <trkpt lat="44.57696" lon="6.86941">
        <ele>2419</ele>
        <time>2020-02-18T13:56:06.000Z</time>
      </trkpt>
      <trkpt lat="44.57693" lon="6.86937">
        <ele>2418</ele>
        <time>2020-02-18T13:56:08.000Z</time>
      </trkpt>
      <trkpt lat="44.57691" lon="6.8693">
        <ele>2417</ele>
        <time>2020-02-18T13:56:11.000Z</time>
      </trkpt>
      <trkpt lat="44.57691" lon="6.86928">
        <ele>2416</ele>
        <time>2020-02-18T13:56:12.000Z</time>
      </trkpt>
      <trkpt lat="44.57692" lon="6.86925">
        <ele>2416</ele>
        <time>2020-02-18T13:56:14.000Z</time>
      </trkpt>
      <trkpt lat="44.57693" lon="6.86923">
        <ele>2416</ele>
        <time>2020-02-18T13:56:17.000Z</time>
      </trkpt>
      <trkpt lat="44.57691" lon="6.86917">
        <ele>2415</ele>
        <time>2020-02-18T13:56:22.000Z</time>
      </trkpt>
      <trkpt lat="44.57691" lon="6.86916">
        <ele>2399</ele>
        <time>2020-02-18T13:56:23.000Z</time>
      </trkpt>
      <trkpt lat="44.5769" lon="6.86916">
        <ele>2399</ele>
        <time>2020-02-18T13:56:24.000Z</time>
      </trkpt>
      <trkpt lat="44.57689" lon="6.86914">
        <ele>2399</ele>
        <time>2020-02-18T13:56:31.000Z</time>
      </trkpt>
      <trkpt lat="44.57689" lon="6.86914">
        <ele>2399</ele>
        <time>2020-02-18T13:56:34.000Z</time>
      </trkpt>
      <trkpt lat="44.57683" lon="6.86913">
        <ele>2400</ele>
        <time>2020-02-18T13:56:45.000Z</time>
      </trkpt>
      <trkpt lat="44.57684" lon="6.86902">
        <ele>2398</ele>
        <time>2020-02-18T13:56:48.000Z</time>
      </trkpt>
      <trkpt lat="44.57687" lon="6.86898">
        <ele>2398</ele>
        <time>2020-02-18T13:56:50.000Z</time>
      </trkpt>
      <trkpt lat="44.5769" lon="6.86896">
        <ele>2397</ele>
        <time>2020-02-18T13:56:52.000Z</time>
      </trkpt>
      <trkpt lat="44.5769" lon="6.86895">
        <ele>2397</ele>
        <time>2020-02-18T13:56:53.000Z</time>
      </trkpt>
      <trkpt lat="44.57691" lon="6.86894">
        <ele>2397</ele>
        <time>2020-02-18T13:56:54.000Z</time>
      </trkpt>
      <trkpt lat="44.57695" lon="6.86889">
        <ele>2396</ele>
        <time>2020-02-18T13:56:56.000Z</time>
      </trkpt>
      <trkpt lat="44.57696" lon="6.86887">
        <ele>2396</ele>
        <time>2020-02-18T13:56:57.000Z</time>
      </trkpt>
      <trkpt lat="44.57698" lon="6.86886">
        <ele>2396</ele>
        <time>2020-02-18T13:56:59.000Z</time>
      </trkpt>
      <trkpt lat="44.577" lon="6.86888">
        <ele>2396</ele>
        <time>2020-02-18T13:57:07.000Z</time>
      </trkpt>
      <trkpt lat="44.57701" lon="6.86887">
        <ele>2396</ele>
        <time>2020-02-18T13:57:08.000Z</time>
      </trkpt>
      <trkpt lat="44.57703" lon="6.86885">
        <ele>2396</ele>
        <time>2020-02-18T13:57:09.000Z</time>
      </trkpt>
      <trkpt lat="44.57705" lon="6.86885">
        <ele>2396</ele>
        <time>2020-02-18T13:57:10.000Z</time>
      </trkpt>
      <trkpt lat="44.57709" lon="6.86879">
        <ele>2395</ele>
        <time>2020-02-18T13:57:12.000Z</time>
      </trkpt>
      <trkpt lat="44.5771" lon="6.86878">
        <ele>2395</ele>
        <time>2020-02-18T13:57:13.000Z</time>
      </trkpt>
      <trkpt lat="44.57711" lon="6.86876">
        <ele>2395</ele>
        <time>2020-02-18T13:57:14.000Z</time>
      </trkpt>
      <trkpt lat="44.57715" lon="6.86871">
        <ele>2394</ele>
        <time>2020-02-18T13:57:17.000Z</time>
      </trkpt>
      <trkpt lat="44.57721" lon="6.86866">
        <ele>2393</ele>
        <time>2020-02-18T13:57:20.000Z</time>
      </trkpt>
      <trkpt lat="44.57724" lon="6.86864">
        <ele>2392</ele>
        <time>2020-02-18T13:57:22.000Z</time>
      </trkpt>
      <trkpt lat="44.57727" lon="6.86862">
        <ele>2392</ele>
        <time>2020-02-18T13:57:23.000Z</time>
      </trkpt>
      <trkpt lat="44.57735" lon="6.86859">
        <ele>2391</ele>
        <time>2020-02-18T13:57:26.000Z</time>
      </trkpt>
      <trkpt lat="44.57739" lon="6.86857">
        <ele>2390</ele>
        <time>2020-02-18T13:57:28.000Z</time>
      </trkpt>
      <trkpt lat="44.57741" lon="6.86856">
        <ele>2390</ele>
        <time>2020-02-18T13:57:30.000Z</time>
      </trkpt>
      <trkpt lat="44.5774" lon="6.86857">
        <ele>2390</ele>
        <time>2020-02-18T13:57:35.000Z</time>
      </trkpt>
      <trkpt lat="44.5774" lon="6.86849">
        <ele>2388</ele>
        <time>2020-02-18T13:57:42.000Z</time>
      </trkpt>
      <trkpt lat="44.57746" lon="6.86848">
        <ele>2387</ele>
        <time>2020-02-18T13:57:46.000Z</time>
      </trkpt>
      <trkpt lat="44.57747" lon="6.86848">
        <ele>2386</ele>
        <time>2020-02-18T13:57:47.000Z</time>
      </trkpt>
      <trkpt lat="44.57748" lon="6.86848">
        <ele>2386</ele>
        <time>2020-02-18T13:57:48.000Z</time>
      </trkpt>
      <trkpt lat="44.57751" lon="6.86845">
        <ele>2387</ele>
        <time>2020-02-18T13:57:51.000Z</time>
      </trkpt>
      <trkpt lat="44.57754" lon="6.86841">
        <ele>2385</ele>
        <time>2020-02-18T13:57:53.000Z</time>
      </trkpt>
      <trkpt lat="44.57755" lon="6.86841">
        <ele>2386</ele>
        <time>2020-02-18T13:57:54.000Z</time>
      </trkpt>
      <trkpt lat="44.57755" lon="6.86841">
        <ele>2386</ele>
        <time>2020-02-18T13:57:55.000Z</time>
      </trkpt>
      <trkpt lat="44.57756" lon="6.86839">
        <ele>2385</ele>
        <time>2020-02-18T13:57:57.000Z</time>
      </trkpt>
      <trkpt lat="44.57758" lon="6.86837">
        <ele>2385</ele>
        <time>2020-02-18T13:57:58.000Z</time>
      </trkpt>
      <trkpt lat="44.5776" lon="6.86836">
        <ele>2386</ele>
        <time>2020-02-18T13:58:00.000Z</time>
      </trkpt>
      <trkpt lat="44.57762" lon="6.86833">
        <ele>2377</ele>
        <time>2020-02-18T13:58:03.000Z</time>
      </trkpt>
      <trkpt lat="44.57763" lon="6.86831">
        <ele>2376</ele>
        <time>2020-02-18T13:58:04.000Z</time>
      </trkpt>
      <trkpt lat="44.57767" lon="6.86827">
        <ele>2376</ele>
        <time>2020-02-18T13:58:06.000Z</time>
      </trkpt>
      <trkpt lat="44.57768" lon="6.86823">
        <ele>2375</ele>
        <time>2020-02-18T13:58:08.000Z</time>
      </trkpt>
      <trkpt lat="44.57772" lon="6.86818">
        <ele>2374</ele>
        <time>2020-02-18T13:58:10.000Z</time>
      </trkpt>
      <trkpt lat="44.57775" lon="6.86815">
        <ele>2374</ele>
        <time>2020-02-18T13:58:12.000Z</time>
      </trkpt>
      <trkpt lat="44.57777" lon="6.86814">
        <ele>2374</ele>
        <time>2020-02-18T13:58:14.000Z</time>
      </trkpt>
      <trkpt lat="44.57777" lon="6.86814">
        <ele>2374</ele>
        <time>2020-02-18T13:58:15.000Z</time>
      </trkpt>
      <trkpt lat="44.57778" lon="6.8681">
        <ele>2373</ele>
        <time>2020-02-18T13:58:20.000Z</time>
      </trkpt>
      <trkpt lat="44.57777" lon="6.8681">
        <ele>2373</ele>
        <time>2020-02-18T13:58:28.000Z</time>
      </trkpt>
      <trkpt lat="44.5778" lon="6.86806">
        <ele>2373</ele>
        <time>2020-02-18T13:58:35.000Z</time>
      </trkpt>
      <trkpt lat="44.57784" lon="6.86804">
        <ele>2373</ele>
        <time>2020-02-18T13:58:37.000Z</time>
      </trkpt>
      <trkpt lat="44.57784" lon="6.86801">
        <ele>2372</ele>
        <time>2020-02-18T13:58:38.000Z</time>
      </trkpt>
      <trkpt lat="44.57784" lon="6.86797">
        <ele>2372</ele>
        <time>2020-02-18T13:58:39.000Z</time>
      </trkpt>
      <trkpt lat="44.57782" lon="6.86793">
        <ele>2371</ele>
        <time>2020-02-18T13:58:41.000Z</time>
      </trkpt>
      <trkpt lat="44.57781" lon="6.86792">
        <ele>2371</ele>
        <time>2020-02-18T13:58:43.000Z</time>
      </trkpt>
      <trkpt lat="44.57777" lon="6.86788">
        <ele>2370</ele>
        <time>2020-02-18T13:58:46.000Z</time>
      </trkpt>
      <trkpt lat="44.57774" lon="6.86781">
        <ele>2368</ele>
        <time>2020-02-18T13:58:49.000Z</time>
      </trkpt>
      <trkpt lat="44.57776" lon="6.86779">
        <ele>2368</ele>
        <time>2020-02-18T13:58:50.000Z</time>
      </trkpt>
      <trkpt lat="44.57778" lon="6.86777">
        <ele>2368</ele>
        <time>2020-02-18T13:58:51.000Z</time>
      </trkpt>
      <trkpt lat="44.57782" lon="6.86772">
        <ele>2367</ele>
        <time>2020-02-18T13:58:53.000Z</time>
      </trkpt>
      <trkpt lat="44.57781" lon="6.86765">
        <ele>2366</ele>
        <time>2020-02-18T13:58:55.000Z</time>
      </trkpt>
      <trkpt lat="44.57778" lon="6.86763">
        <ele>2366</ele>
        <time>2020-02-18T13:58:57.000Z</time>
      </trkpt>
      <trkpt lat="44.57773" lon="6.86756">
        <ele>2364</ele>
        <time>2020-02-18T13:58:59.000Z</time>
      </trkpt>
      <trkpt lat="44.57774" lon="6.86745">
        <ele>2354</ele>
        <time>2020-02-18T13:59:01.000Z</time>
      </trkpt>
      <trkpt lat="44.57775" lon="6.86741">
        <ele>2354</ele>
        <time>2020-02-18T13:59:02.000Z</time>
      </trkpt>
      <trkpt lat="44.57776" lon="6.86738">
        <ele>2354</ele>
        <time>2020-02-18T13:59:03.000Z</time>
      </trkpt>
      <trkpt lat="44.57779" lon="6.86738">
        <ele>2354</ele>
        <time>2020-02-18T13:59:04.000Z</time>
      </trkpt>
      <trkpt lat="44.57781" lon="6.86736">
        <ele>2354</ele>
        <time>2020-02-18T13:59:05.000Z</time>
      </trkpt>
      <trkpt lat="44.57784" lon="6.86732">
        <ele>2353</ele>
        <time>2020-02-18T13:59:07.000Z</time>
      </trkpt>
      <trkpt lat="44.57787" lon="6.8673">
        <ele>2353</ele>
        <time>2020-02-18T13:59:09.000Z</time>
      </trkpt>
      <trkpt lat="44.57788" lon="6.8673">
        <ele>2353</ele>
        <time>2020-02-18T13:59:12.000Z</time>
      </trkpt>
      <trkpt lat="44.57786" lon="6.86732">
        <ele>2353</ele>
        <time>2020-02-18T13:59:24.000Z</time>
      </trkpt>
      <trkpt lat="44.57786" lon="6.86733">
        <ele>2353</ele>
        <time>2020-02-18T13:59:27.000Z</time>
      </trkpt>
      <trkpt lat="44.57787" lon="6.86734">
        <ele>2353</ele>
        <time>2020-02-18T13:59:31.000Z</time>
      </trkpt>
      <trkpt lat="44.57788" lon="6.86731">
        <ele>2353</ele>
        <time>2020-02-18T13:59:42.000Z</time>
      </trkpt>
      <trkpt lat="44.57788" lon="6.86735">
        <ele>2353</ele>
        <time>2020-02-18T13:59:52.000Z</time>
      </trkpt>
      <trkpt lat="44.57788" lon="6.86736">
        <ele>2354</ele>
        <time>2020-02-18T13:59:55.000Z</time>
      </trkpt>
      <trkpt lat="44.57788" lon="6.86736">
        <ele>2354</ele>
        <time>2020-02-18T13:59:56.000Z</time>
      </trkpt>
      <trkpt lat="44.57788" lon="6.86738">
        <ele>2354</ele>
        <time>2020-02-18T13:59:58.000Z</time>
      </trkpt>
      <trkpt lat="44.57789" lon="6.86737">
        <ele>2354</ele>
        <time>2020-02-18T14:00:00.000Z</time>
      </trkpt>
      <trkpt lat="44.57789" lon="6.86739">
        <ele>2354</ele>
        <time>2020-02-18T14:00:04.000Z</time>
      </trkpt>
      <trkpt lat="44.57789" lon="6.86739">
        <ele>2354</ele>
        <time>2020-02-18T14:00:05.000Z</time>
      </trkpt>
      <trkpt lat="44.57787" lon="6.86735">
        <ele>2354</ele>
        <time>2020-02-18T14:00:15.000Z</time>
      </trkpt>
      <trkpt lat="44.57787" lon="6.86734">
        <ele>2353</ele>
        <time>2020-02-18T14:00:19.000Z</time>
      </trkpt>
      <trkpt lat="44.57787" lon="6.86734">
        <ele>2353</ele>
        <time>2020-02-18T14:00:20.000Z</time>
      </trkpt>
      <trkpt lat="44.57787" lon="6.86732">
        <ele>2353</ele>
        <time>2020-02-18T14:00:24.000Z</time>
      </trkpt>
      <trkpt lat="44.57787" lon="6.86731">
        <ele>2353</ele>
        <time>2020-02-18T14:00:27.000Z</time>
      </trkpt>
      <trkpt lat="44.57786" lon="6.86731">
        <ele>2353</ele>
        <time>2020-02-18T14:00:34.000Z</time>
      </trkpt>
      <trkpt lat="44.57786" lon="6.86732">
        <ele>2353</ele>
        <time>2020-02-18T14:00:35.000Z</time>
      </trkpt>
      <trkpt lat="44.57785" lon="6.86733">
        <ele>2353</ele>
        <time>2020-02-18T14:00:38.000Z</time>
      </trkpt>
      <trkpt lat="44.57785" lon="6.86734">
        <ele>2354</ele>
        <time>2020-02-18T14:00:39.000Z</time>
      </trkpt>
      <trkpt lat="44.57783" lon="6.86736">
        <ele>2354</ele>
        <time>2020-02-18T14:00:42.000Z</time>
      </trkpt>
      <trkpt lat="44.57783" lon="6.86738">
        <ele>2354</ele>
        <time>2020-02-18T14:00:45.000Z</time>
      </trkpt>
      <trkpt lat="44.57783" lon="6.86741">
        <ele>2354</ele>
        <time>2020-02-18T14:00:49.000Z</time>
      </trkpt>
      <trkpt lat="44.57784" lon="6.86742">
        <ele>2354</ele>
        <time>2020-02-18T14:00:52.000Z</time>
      </trkpt>
      <trkpt lat="44.57786" lon="6.86747">
        <ele>2354</ele>
        <time>2020-02-18T14:00:54.000Z</time>
      </trkpt>
      <trkpt lat="44.57785" lon="6.86747">
        <ele>2354</ele>
        <time>2020-02-18T14:00:55.000Z</time>
      </trkpt>
      <trkpt lat="44.57783" lon="6.86743">
        <ele>2354</ele>
        <time>2020-02-18T14:00:59.000Z</time>
      </trkpt>
      <trkpt lat="44.57783" lon="6.86737">
        <ele>2354</ele>
        <time>2020-02-18T14:01:03.000Z</time>
      </trkpt>
      <trkpt lat="44.57781" lon="6.8673">
        <ele>2353</ele>
        <time>2020-02-18T14:01:07.000Z</time>
      </trkpt>
      <trkpt lat="44.57781" lon="6.86729">
        <ele>2353</ele>
        <time>2020-02-18T14:01:08.000Z</time>
      </trkpt>
      <trkpt lat="44.57783" lon="6.86724">
        <ele>2353</ele>
        <time>2020-02-18T14:01:16.000Z</time>
      </trkpt>
      <trkpt lat="44.57783" lon="6.86723">
        <ele>2353</ele>
        <time>2020-02-18T14:01:18.000Z</time>
      </trkpt>
      <trkpt lat="44.57782" lon="6.86721">
        <ele>2353</ele>
        <time>2020-02-18T14:01:22.000Z</time>
      </trkpt>
      <trkpt lat="44.57782" lon="6.8672">
        <ele>2353</ele>
        <time>2020-02-18T14:01:25.000Z</time>
      </trkpt>
      <trkpt lat="44.57796" lon="6.86725">
        <ele>2353</ele>
        <time>2020-02-18T14:01:34.000Z</time>
      </trkpt>
      <trkpt lat="44.57805" lon="6.8672">
        <ele>2352</ele>
        <time>2020-02-18T14:01:36.000Z</time>
      </trkpt>
      <trkpt lat="44.57806" lon="6.86717">
        <ele>2352</ele>
        <time>2020-02-18T14:01:37.000Z</time>
      </trkpt>
      <trkpt lat="44.57806" lon="6.86712">
        <ele>2352</ele>
        <time>2020-02-18T14:01:38.000Z</time>
      </trkpt>
      <trkpt lat="44.57808" lon="6.86708">
        <ele>2351</ele>
        <time>2020-02-18T14:01:39.000Z</time>
      </trkpt>
      <trkpt lat="44.57812" lon="6.86706">
        <ele>2351</ele>
        <time>2020-02-18T14:01:40.000Z</time>
      </trkpt>
      <trkpt lat="44.57816" lon="6.86705">
        <ele>2350</ele>
        <time>2020-02-18T14:01:41.000Z</time>
      </trkpt>
      <trkpt lat="44.57826" lon="6.86702">
        <ele>2349</ele>
        <time>2020-02-18T14:01:43.000Z</time>
      </trkpt>
      <trkpt lat="44.57837" lon="6.86697">
        <ele>2345</ele>
        <time>2020-02-18T14:01:45.000Z</time>
      </trkpt>
      <trkpt lat="44.5784" lon="6.86686">
        <ele>2343</ele>
        <time>2020-02-18T14:01:47.000Z</time>
      </trkpt>
      <trkpt lat="44.57841" lon="6.86681">
        <ele>2342</ele>
        <time>2020-02-18T14:01:48.000Z</time>
      </trkpt>
      <trkpt lat="44.57845" lon="6.86677">
        <ele>2341</ele>
        <time>2020-02-18T14:01:49.000Z</time>
      </trkpt>
      <trkpt lat="44.57849" lon="6.86675">
        <ele>2342</ele>
        <time>2020-02-18T14:01:50.000Z</time>
      </trkpt>
      <trkpt lat="44.57854" lon="6.8667">
        <ele>2342</ele>
        <time>2020-02-18T14:01:51.000Z</time>
      </trkpt>
      <trkpt lat="44.57858" lon="6.86663">
        <ele>2331</ele>
        <time>2020-02-18T14:01:52.000Z</time>
      </trkpt>
      <trkpt lat="44.57868" lon="6.86652">
        <ele>2329</ele>
        <time>2020-02-18T14:01:54.000Z</time>
      </trkpt>
      <trkpt lat="44.57878" lon="6.86632">
        <ele>2327</ele>
        <time>2020-02-18T14:01:56.000Z</time>
      </trkpt>
      <trkpt lat="44.57883" lon="6.86629">
        <ele>2327</ele>
        <time>2020-02-18T14:01:58.000Z</time>
      </trkpt>
      <trkpt lat="44.57883" lon="6.86629">
        <ele>2327</ele>
        <time>2020-02-18T14:01:59.000Z</time>
      </trkpt>
      <trkpt lat="44.57883" lon="6.86628">
        <ele>2327</ele>
        <time>2020-02-18T14:02:01.000Z</time>
      </trkpt>
      <trkpt lat="44.57888" lon="6.86618">
        <ele>2326</ele>
        <time>2020-02-18T14:02:04.000Z</time>
      </trkpt>
      <trkpt lat="44.57892" lon="6.86617">
        <ele>2325</ele>
        <time>2020-02-18T14:02:06.000Z</time>
      </trkpt>
      <trkpt lat="44.57897" lon="6.86612">
        <ele>2324</ele>
        <time>2020-02-18T14:02:09.000Z</time>
      </trkpt>
      <trkpt lat="44.57901" lon="6.86605">
        <ele>2323</ele>
        <time>2020-02-18T14:02:11.000Z</time>
      </trkpt>
      <trkpt lat="44.57904" lon="6.86602">
        <ele>2322</ele>
        <time>2020-02-18T14:02:13.000Z</time>
      </trkpt>
      <trkpt lat="44.57904" lon="6.86601">
        <ele>2321</ele>
        <time>2020-02-18T14:02:14.000Z</time>
      </trkpt>
      <trkpt lat="44.57904" lon="6.866">
        <ele>2321</ele>
        <time>2020-02-18T14:02:16.000Z</time>
      </trkpt>
      <trkpt lat="44.57903" lon="6.86593">
        <ele>2320</ele>
        <time>2020-02-18T14:02:20.000Z</time>
      </trkpt>
      <trkpt lat="44.57905" lon="6.86585">
        <ele>2318</ele>
        <time>2020-02-18T14:02:21.000Z</time>
      </trkpt>
      <trkpt lat="44.5791" lon="6.86577">
        <ele>2315</ele>
        <time>2020-02-18T14:02:23.000Z</time>
      </trkpt>
      <trkpt lat="44.57911" lon="6.86572">
        <ele>2316</ele>
        <time>2020-02-18T14:02:24.000Z</time>
      </trkpt>
      <trkpt lat="44.57911" lon="6.86567">
        <ele>2317</ele>
        <time>2020-02-18T14:02:25.000Z</time>
      </trkpt>
      <trkpt lat="44.57913" lon="6.86561">
        <ele>2317</ele>
        <time>2020-02-18T14:02:26.000Z</time>
      </trkpt>
      <trkpt lat="44.57917" lon="6.86556">
        <ele>2307</ele>
        <time>2020-02-18T14:02:27.000Z</time>
      </trkpt>
      <trkpt lat="44.57921" lon="6.8655">
        <ele>2306</ele>
        <time>2020-02-18T14:02:28.000Z</time>
      </trkpt>
      <trkpt lat="44.57925" lon="6.86546">
        <ele>2306</ele>
        <time>2020-02-18T14:02:29.000Z</time>
      </trkpt>
      <trkpt lat="44.57931" lon="6.86544">
        <ele>2305</ele>
        <time>2020-02-18T14:02:31.000Z</time>
      </trkpt>
      <trkpt lat="44.57936" lon="6.86535">
        <ele>2305</ele>
        <time>2020-02-18T14:02:34.000Z</time>
      </trkpt>
      <trkpt lat="44.57943" lon="6.86529">
        <ele>2304</ele>
        <time>2020-02-18T14:02:36.000Z</time>
      </trkpt>
      <trkpt lat="44.57953" lon="6.86521">
        <ele>2302</ele>
        <time>2020-02-18T14:02:38.000Z</time>
      </trkpt>
      <trkpt lat="44.57958" lon="6.86518">
        <ele>2302</ele>
        <time>2020-02-18T14:02:39.000Z</time>
      </trkpt>
      <trkpt lat="44.57962" lon="6.86515">
        <ele>2301</ele>
        <time>2020-02-18T14:02:40.000Z</time>
      </trkpt>
      <trkpt lat="44.57965" lon="6.86514">
        <ele>2300</ele>
        <time>2020-02-18T14:02:41.000Z</time>
      </trkpt>
      <trkpt lat="44.57968" lon="6.86513">
        <ele>2300</ele>
        <time>2020-02-18T14:02:43.000Z</time>
      </trkpt>
      <trkpt lat="44.57968" lon="6.8651">
        <ele>2299</ele>
        <time>2020-02-18T14:02:50.000Z</time>
      </trkpt>
      <trkpt lat="44.57967" lon="6.86509">
        <ele>2300</ele>
        <time>2020-02-18T14:02:58.000Z</time>
      </trkpt>
      <trkpt lat="44.57965" lon="6.8651">
        <ele>2300</ele>
        <time>2020-02-18T14:03:09.000Z</time>
      </trkpt>
      <trkpt lat="44.57966" lon="6.8651">
        <ele>2300</ele>
        <time>2020-02-18T14:03:17.000Z</time>
      </trkpt>
      <trkpt lat="44.57967" lon="6.86511">
        <ele>2300</ele>
        <time>2020-02-18T14:03:20.000Z</time>
      </trkpt>
      <trkpt lat="44.57973" lon="6.86509">
        <ele>2298</ele>
        <time>2020-02-18T14:03:26.000Z</time>
      </trkpt>
      <trkpt lat="44.57976" lon="6.8651">
        <ele>2297</ele>
        <time>2020-02-18T14:03:27.000Z</time>
      </trkpt>
      <trkpt lat="44.57979" lon="6.8651">
        <ele>2297</ele>
        <time>2020-02-18T14:03:28.000Z</time>
      </trkpt>
      <trkpt lat="44.57982" lon="6.86508">
        <ele>2296</ele>
        <time>2020-02-18T14:03:30.000Z</time>
      </trkpt>
      <trkpt lat="44.57987" lon="6.86506">
        <ele>2294</ele>
        <time>2020-02-18T14:03:32.000Z</time>
      </trkpt>
      <trkpt lat="44.5799" lon="6.86505">
        <ele>2292</ele>
        <time>2020-02-18T14:03:33.000Z</time>
      </trkpt>
      <trkpt lat="44.57996" lon="6.86504">
        <ele>2290</ele>
        <time>2020-02-18T14:03:35.000Z</time>
      </trkpt>
      <trkpt lat="44.58001" lon="6.86501">
        <ele>2287</ele>
        <time>2020-02-18T14:03:38.000Z</time>
      </trkpt>
      <trkpt lat="44.58006" lon="6.86491">
        <ele>2282</ele>
        <time>2020-02-18T14:03:40.000Z</time>
      </trkpt>
      <trkpt lat="44.5801" lon="6.86487">
        <ele>2281</ele>
        <time>2020-02-18T14:03:41.000Z</time>
      </trkpt>
      <trkpt lat="44.58014" lon="6.86481">
        <ele>2280</ele>
        <time>2020-02-18T14:03:42.000Z</time>
      </trkpt>
      <trkpt lat="44.58019" lon="6.86478">
        <ele>2279</ele>
        <time>2020-02-18T14:03:43.000Z</time>
      </trkpt>
      <trkpt lat="44.58022" lon="6.86477">
        <ele>2279</ele>
        <time>2020-02-18T14:03:44.000Z</time>
      </trkpt>
      <trkpt lat="44.58025" lon="6.86476">
        <ele>2278</ele>
        <time>2020-02-18T14:03:45.000Z</time>
      </trkpt>
      <trkpt lat="44.58031" lon="6.86475">
        <ele>2277</ele>
        <time>2020-02-18T14:03:47.000Z</time>
      </trkpt>
      <trkpt lat="44.58038" lon="6.86475">
        <ele>2277</ele>
        <time>2020-02-18T14:03:49.000Z</time>
      </trkpt>
      <trkpt lat="44.58046" lon="6.86474">
        <ele>2276</ele>
        <time>2020-02-18T14:03:51.000Z</time>
      </trkpt>
      <trkpt lat="44.58051" lon="6.86474">
        <ele>2276</ele>
        <time>2020-02-18T14:03:53.000Z</time>
      </trkpt>
      <trkpt lat="44.58056" lon="6.86472">
        <ele>2276</ele>
        <time>2020-02-18T14:03:55.000Z</time>
      </trkpt>
      <trkpt lat="44.58059" lon="6.86471">
        <ele>2276</ele>
        <time>2020-02-18T14:03:56.000Z</time>
      </trkpt>
      <trkpt lat="44.58064" lon="6.86471">
        <ele>2275</ele>
        <time>2020-02-18T14:03:58.000Z</time>
      </trkpt>
      <trkpt lat="44.58072" lon="6.86467">
        <ele>2274</ele>
        <time>2020-02-18T14:04:00.000Z</time>
      </trkpt>
      <trkpt lat="44.58079" lon="6.86463">
        <ele>2273</ele>
        <time>2020-02-18T14:04:02.000Z</time>
      </trkpt>
      <trkpt lat="44.5808" lon="6.86463">
        <ele>2273</ele>
        <time>2020-02-18T14:04:03.000Z</time>
      </trkpt>
      <trkpt lat="44.5808" lon="6.86462">
        <ele>2273</ele>
        <time>2020-02-18T14:04:05.000Z</time>
      </trkpt>
      <trkpt lat="44.58088" lon="6.86457">
        <ele>2268</ele>
        <time>2020-02-18T14:04:10.000Z</time>
      </trkpt>
      <trkpt lat="44.58094" lon="6.86455">
        <ele>2267</ele>
        <time>2020-02-18T14:04:12.000Z</time>
      </trkpt>
      <trkpt lat="44.58099" lon="6.86451">
        <ele>2267</ele>
        <time>2020-02-18T14:04:14.000Z</time>
      </trkpt>
      <trkpt lat="44.581" lon="6.8645">
        <ele>2267</ele>
        <time>2020-02-18T14:04:16.000Z</time>
      </trkpt>
      <trkpt lat="44.581" lon="6.86449">
        <ele>2266</ele>
        <time>2020-02-18T14:04:17.000Z</time>
      </trkpt>
      <trkpt lat="44.58098" lon="6.86449">
        <ele>2266</ele>
        <time>2020-02-18T14:04:20.000Z</time>
      </trkpt>
      <trkpt lat="44.58097" lon="6.8645">
        <ele>2266</ele>
        <time>2020-02-18T14:04:22.000Z</time>
      </trkpt>
      <trkpt lat="44.58092" lon="6.86449">
        <ele>2266</ele>
        <time>2020-02-18T14:04:24.000Z</time>
      </trkpt>
      <trkpt lat="44.58093" lon="6.86445">
        <ele>2265</ele>
        <time>2020-02-18T14:04:26.000Z</time>
      </trkpt>
      <trkpt lat="44.581" lon="6.86437">
        <ele>2263</ele>
        <time>2020-02-18T14:04:28.000Z</time>
      </trkpt>
      <trkpt lat="44.58108" lon="6.86431">
        <ele>2263</ele>
        <time>2020-02-18T14:04:30.000Z</time>
      </trkpt>
      <trkpt lat="44.58118" lon="6.86425">
        <ele>2263</ele>
        <time>2020-02-18T14:04:32.000Z</time>
      </trkpt>
      <trkpt lat="44.58127" lon="6.86418">
        <ele>2263</ele>
        <time>2020-02-18T14:04:34.000Z</time>
      </trkpt>
      <trkpt lat="44.58135" lon="6.86414">
        <ele>2249</ele>
        <time>2020-02-18T14:04:36.000Z</time>
      </trkpt>
      <trkpt lat="44.58146" lon="6.86407">
        <ele>2249</ele>
        <time>2020-02-18T14:04:38.000Z</time>
      </trkpt>
      <trkpt lat="44.58156" lon="6.864">
        <ele>2249</ele>
        <time>2020-02-18T14:04:40.000Z</time>
      </trkpt>
      <trkpt lat="44.58159" lon="6.86397">
        <ele>2249</ele>
        <time>2020-02-18T14:04:41.000Z</time>
      </trkpt>
      <trkpt lat="44.58163" lon="6.86394">
        <ele>2248</ele>
        <time>2020-02-18T14:04:42.000Z</time>
      </trkpt>
      <trkpt lat="44.58166" lon="6.86391">
        <ele>2248</ele>
        <time>2020-02-18T14:04:43.000Z</time>
      </trkpt>
      <trkpt lat="44.58168" lon="6.8639">
        <ele>2247</ele>
        <time>2020-02-18T14:04:45.000Z</time>
      </trkpt>
      <trkpt lat="44.58169" lon="6.8639">
        <ele>2247</ele>
        <time>2020-02-18T14:04:46.000Z</time>
      </trkpt>
      <trkpt lat="44.5817" lon="6.86391">
        <ele>2247</ele>
        <time>2020-02-18T14:04:48.000Z</time>
      </trkpt>
      <trkpt lat="44.58172" lon="6.86389">
        <ele>2246</ele>
        <time>2020-02-18T14:04:54.000Z</time>
      </trkpt>
      <trkpt lat="44.58173" lon="6.86388">
        <ele>2246</ele>
        <time>2020-02-18T14:05:00.000Z</time>
      </trkpt>
      <trkpt lat="44.5817" lon="6.86391">
        <ele>2247</ele>
        <time>2020-02-18T14:05:06.000Z</time>
      </trkpt>
      <trkpt lat="44.58169" lon="6.86391">
        <ele>2247</ele>
        <time>2020-02-18T14:05:08.000Z</time>
      </trkpt>
      <trkpt lat="44.58169" lon="6.86391">
        <ele>2247</ele>
        <time>2020-02-18T14:05:11.000Z</time>
      </trkpt>
      <trkpt lat="44.58182" lon="6.86389">
        <ele>2246</ele>
        <time>2020-02-18T14:05:31.000Z</time>
      </trkpt>
      <trkpt lat="44.58182" lon="6.86388">
        <ele>2246</ele>
        <time>2020-02-18T14:05:33.000Z</time>
      </trkpt>
      <trkpt lat="44.58183" lon="6.86386">
        <ele>2246</ele>
        <time>2020-02-18T14:05:35.000Z</time>
      </trkpt>
      <trkpt lat="44.58185" lon="6.86384">
        <ele>2245</ele>
        <time>2020-02-18T14:05:36.000Z</time>
      </trkpt>
      <trkpt lat="44.58188" lon="6.86381">
        <ele>2245</ele>
        <time>2020-02-18T14:05:37.000Z</time>
      </trkpt>
      <trkpt lat="44.58191" lon="6.86379">
        <ele>2244</ele>
        <time>2020-02-18T14:05:38.000Z</time>
      </trkpt>
      <trkpt lat="44.58193" lon="6.86378">
        <ele>2244</ele>
        <time>2020-02-18T14:05:39.000Z</time>
      </trkpt>
      <trkpt lat="44.58197" lon="6.86375">
        <ele>2244</ele>
        <time>2020-02-18T14:05:40.000Z</time>
      </trkpt>
      <trkpt lat="44.58201" lon="6.86374">
        <ele>2244</ele>
        <time>2020-02-18T14:05:41.000Z</time>
      </trkpt>
      <trkpt lat="44.58211" lon="6.8637">
        <ele>2243</ele>
        <time>2020-02-18T14:05:43.000Z</time>
      </trkpt>
      <trkpt lat="44.58222" lon="6.86365">
        <ele>2243</ele>
        <time>2020-02-18T14:05:45.000Z</time>
      </trkpt>
      <trkpt lat="44.58232" lon="6.86362">
        <ele>2242</ele>
        <time>2020-02-18T14:05:47.000Z</time>
      </trkpt>
      <trkpt lat="44.58245" lon="6.86357">
        <ele>2241</ele>
        <time>2020-02-18T14:05:50.000Z</time>
      </trkpt>
      <trkpt lat="44.58253" lon="6.86352">
        <ele>2242</ele>
        <time>2020-02-18T14:05:52.000Z</time>
      </trkpt>
      <trkpt lat="44.58261" lon="6.8635">
        <ele>2242</ele>
        <time>2020-02-18T14:05:54.000Z</time>
      </trkpt>
      <trkpt lat="44.58273" lon="6.86347">
        <ele>2243</ele>
        <time>2020-02-18T14:05:57.000Z</time>
      </trkpt>
      <trkpt lat="44.58282" lon="6.86345">
        <ele>2244</ele>
        <time>2020-02-18T14:05:59.000Z</time>
      </trkpt>
      <trkpt lat="44.58292" lon="6.86342">
        <ele>2244</ele>
        <time>2020-02-18T14:06:01.000Z</time>
      </trkpt>
      <trkpt lat="44.58303" lon="6.86335">
        <ele>2243</ele>
        <time>2020-02-18T14:06:03.000Z</time>
      </trkpt>
      <trkpt lat="44.58313" lon="6.86329">
        <ele>2230</ele>
        <time>2020-02-18T14:06:05.000Z</time>
      </trkpt>
      <trkpt lat="44.58326" lon="6.8632">
        <ele>2230</ele>
        <time>2020-02-18T14:06:08.000Z</time>
      </trkpt>
      <trkpt lat="44.58333" lon="6.86316">
        <ele>2230</ele>
        <time>2020-02-18T14:06:10.000Z</time>
      </trkpt>
      <trkpt lat="44.58338" lon="6.86314">
        <ele>2230</ele>
        <time>2020-02-18T14:06:11.000Z</time>
      </trkpt>
      <trkpt lat="44.58348" lon="6.86308">
        <ele>2229</ele>
        <time>2020-02-18T14:06:13.000Z</time>
      </trkpt>
      <trkpt lat="44.5836" lon="6.86305">
        <ele>2228</ele>
        <time>2020-02-18T14:06:15.000Z</time>
      </trkpt>
      <trkpt lat="44.58373" lon="6.863">
        <ele>2228</ele>
        <time>2020-02-18T14:06:17.000Z</time>
      </trkpt>
      <trkpt lat="44.58383" lon="6.86293">
        <ele>2227</ele>
        <time>2020-02-18T14:06:19.000Z</time>
      </trkpt>
      <trkpt lat="44.58392" lon="6.86288">
        <ele>2227</ele>
        <time>2020-02-18T14:06:21.000Z</time>
      </trkpt>
      <trkpt lat="44.58397" lon="6.86285">
        <ele>2226</ele>
        <time>2020-02-18T14:06:22.000Z</time>
      </trkpt>
      <trkpt lat="44.58401" lon="6.86281">
        <ele>2225</ele>
        <time>2020-02-18T14:06:23.000Z</time>
      </trkpt>
      <trkpt lat="44.58406" lon="6.86277">
        <ele>2224</ele>
        <time>2020-02-18T14:06:24.000Z</time>
      </trkpt>
      <trkpt lat="44.58409" lon="6.86276">
        <ele>2224</ele>
        <time>2020-02-18T14:06:25.000Z</time>
      </trkpt>
      <trkpt lat="44.58414" lon="6.86271">
        <ele>2223</ele>
        <time>2020-02-18T14:06:27.000Z</time>
      </trkpt>
      <trkpt lat="44.58417" lon="6.86269">
        <ele>2222</ele>
        <time>2020-02-18T14:06:28.000Z</time>
      </trkpt>
      <trkpt lat="44.58426" lon="6.86262">
        <ele>2221</ele>
        <time>2020-02-18T14:06:31.000Z</time>
      </trkpt>
      <trkpt lat="44.58436" lon="6.86254">
        <ele>2222</ele>
        <time>2020-02-18T14:06:34.000Z</time>
      </trkpt>
      <trkpt lat="44.58441" lon="6.86252">
        <ele>2222</ele>
        <time>2020-02-18T14:06:35.000Z</time>
      </trkpt>
      <trkpt lat="44.58445" lon="6.8625">
        <ele>2209</ele>
        <time>2020-02-18T14:06:36.000Z</time>
      </trkpt>
      <trkpt lat="44.58454" lon="6.86246">
        <ele>2208</ele>
        <time>2020-02-18T14:06:38.000Z</time>
      </trkpt>
      <trkpt lat="44.58465" lon="6.86239">
        <ele>2207</ele>
        <time>2020-02-18T14:06:40.000Z</time>
      </trkpt>
      <trkpt lat="44.58475" lon="6.86236">
        <ele>2207</ele>
        <time>2020-02-18T14:06:42.000Z</time>
      </trkpt>
      <trkpt lat="44.58489" lon="6.8623">
        <ele>2207</ele>
        <time>2020-02-18T14:06:45.000Z</time>
      </trkpt>
      <trkpt lat="44.58504" lon="6.86223">
        <ele>2201</ele>
        <time>2020-02-18T14:06:49.000Z</time>
      </trkpt>
      <trkpt lat="44.58507" lon="6.86222">
        <ele>2200</ele>
        <time>2020-02-18T14:06:50.000Z</time>
      </trkpt>
      <trkpt lat="44.58509" lon="6.86222">
        <ele>2200</ele>
        <time>2020-02-18T14:06:54.000Z</time>
      </trkpt>
      <trkpt lat="44.58507" lon="6.86222">
        <ele>2200</ele>
        <time>2020-02-18T14:07:01.000Z</time>
      </trkpt>
      <trkpt lat="44.58508" lon="6.86222">
        <ele>2200</ele>
        <time>2020-02-18T14:07:17.000Z</time>
      </trkpt>
      <trkpt lat="44.58507" lon="6.86222">
        <ele>2200</ele>
        <time>2020-02-18T14:07:18.000Z</time>
      </trkpt>
      <trkpt lat="44.58513" lon="6.86219">
        <ele>2199</ele>
        <time>2020-02-18T14:07:23.000Z</time>
      </trkpt>
      <trkpt lat="44.58517" lon="6.86219">
        <ele>2199</ele>
        <time>2020-02-18T14:07:27.000Z</time>
      </trkpt>
      <trkpt lat="44.58521" lon="6.86219">
        <ele>2199</ele>
        <time>2020-02-18T14:07:31.000Z</time>
      </trkpt>
      <trkpt lat="44.58522" lon="6.8622">
        <ele>2199</ele>
        <time>2020-02-18T14:07:34.000Z</time>
      </trkpt>
      <trkpt lat="44.58522" lon="6.8622">
        <ele>2198</ele>
        <time>2020-02-18T14:07:38.000Z</time>
      </trkpt>
      <trkpt lat="44.58527" lon="6.8622">
        <ele>2198</ele>
        <time>2020-02-18T14:07:49.000Z</time>
      </trkpt>
      <trkpt lat="44.5853" lon="6.86221">
        <ele>2198</ele>
        <time>2020-02-18T14:07:54.000Z</time>
      </trkpt>
      <trkpt lat="44.58535" lon="6.86223">
        <ele>2198</ele>
        <time>2020-02-18T14:07:56.000Z</time>
      </trkpt>
      <trkpt lat="44.58541" lon="6.86225">
        <ele>2197</ele>
        <time>2020-02-18T14:07:58.000Z</time>
      </trkpt>
      <trkpt lat="44.58548" lon="6.86229">
        <ele>2197</ele>
        <time>2020-02-18T14:08:00.000Z</time>
      </trkpt>
      <trkpt lat="44.58554" lon="6.86234">
        <ele>2197</ele>
        <time>2020-02-18T14:08:02.000Z</time>
      </trkpt>
      <trkpt lat="44.58559" lon="6.86239">
        <ele>2197</ele>
        <time>2020-02-18T14:08:04.000Z</time>
      </trkpt>
      <trkpt lat="44.58561" lon="6.86241">
        <ele>2198</ele>
        <time>2020-02-18T14:08:05.000Z</time>
      </trkpt>
      <trkpt lat="44.58565" lon="6.86244">
        <ele>2198</ele>
        <time>2020-02-18T14:08:08.000Z</time>
      </trkpt>
      <trkpt lat="44.58567" lon="6.86241">
        <ele>2198</ele>
        <time>2020-02-18T14:08:09.000Z</time>
      </trkpt>
      <trkpt lat="44.58567" lon="6.86234">
        <ele>2197</ele>
        <time>2020-02-18T14:08:11.000Z</time>
      </trkpt>
      <trkpt lat="44.58569" lon="6.86227">
        <ele>2196</ele>
        <time>2020-02-18T14:08:13.000Z</time>
      </trkpt>
      <trkpt lat="44.58572" lon="6.86225">
        <ele>2196</ele>
        <time>2020-02-18T14:08:14.000Z</time>
      </trkpt>
      <trkpt lat="44.58575" lon="6.86222">
        <ele>2195</ele>
        <time>2020-02-18T14:08:15.000Z</time>
      </trkpt>
      <trkpt lat="44.58576" lon="6.86215">
        <ele>2194</ele>
        <time>2020-02-18T14:08:17.000Z</time>
      </trkpt>
      <trkpt lat="44.58574" lon="6.86207">
        <ele>2192</ele>
        <time>2020-02-18T14:08:19.000Z</time>
      </trkpt>
      <trkpt lat="44.58574" lon="6.86204">
        <ele>2192</ele>
        <time>2020-02-18T14:08:20.000Z</time>
      </trkpt>
      <trkpt lat="44.58577" lon="6.86202">
        <ele>2191</ele>
        <time>2020-02-18T14:08:21.000Z</time>
      </trkpt>
      <trkpt lat="44.58585" lon="6.86201">
        <ele>2180</ele>
        <time>2020-02-18T14:08:23.000Z</time>
      </trkpt>
      <trkpt lat="44.58588" lon="6.86194">
        <ele>2179</ele>
        <time>2020-02-18T14:08:25.000Z</time>
      </trkpt>
      <trkpt lat="44.58591" lon="6.86188">
        <ele>2178</ele>
        <time>2020-02-18T14:08:27.000Z</time>
      </trkpt>
      <trkpt lat="44.58594" lon="6.86188">
        <ele>2178</ele>
        <time>2020-02-18T14:08:28.000Z</time>
      </trkpt>
      <trkpt lat="44.58599" lon="6.86188">
        <ele>2178</ele>
        <time>2020-02-18T14:08:30.000Z</time>
      </trkpt>
      <trkpt lat="44.58604" lon="6.86191">
        <ele>2178</ele>
        <time>2020-02-18T14:08:33.000Z</time>
      </trkpt>
      <trkpt lat="44.58612" lon="6.86196">
        <ele>2178</ele>
        <time>2020-02-18T14:08:36.000Z</time>
      </trkpt>
      <trkpt lat="44.58613" lon="6.86192">
        <ele>2178</ele>
        <time>2020-02-18T14:08:38.000Z</time>
      </trkpt>
      <trkpt lat="44.58614" lon="6.86188">
        <ele>2177</ele>
        <time>2020-02-18T14:08:39.000Z</time>
      </trkpt>
      <trkpt lat="44.58613" lon="6.86178">
        <ele>2176</ele>
        <time>2020-02-18T14:08:41.000Z</time>
      </trkpt>
      <trkpt lat="44.5861" lon="6.8617">
        <ele>2176</ele>
        <time>2020-02-18T14:08:43.000Z</time>
      </trkpt>
      <trkpt lat="44.58606" lon="6.86162">
        <ele>2165</ele>
        <time>2020-02-18T14:08:45.000Z</time>
      </trkpt>
      <trkpt lat="44.58608" lon="6.86161">
        <ele>2164</ele>
        <time>2020-02-18T14:08:46.000Z</time>
      </trkpt>
      <trkpt lat="44.58613" lon="6.86161">
        <ele>2163</ele>
        <time>2020-02-18T14:08:48.000Z</time>
      </trkpt>
      <trkpt lat="44.58616" lon="6.86162">
        <ele>2163</ele>
        <time>2020-02-18T14:08:49.000Z</time>
      </trkpt>
      <trkpt lat="44.58617" lon="6.86163">
        <ele>2162</ele>
        <time>2020-02-18T14:08:50.000Z</time>
      </trkpt>
      <trkpt lat="44.58617" lon="6.86163">
        <ele>2162</ele>
        <time>2020-02-18T14:08:51.000Z</time>
      </trkpt>
      <trkpt lat="44.58626" lon="6.86163">
        <ele>2161</ele>
        <time>2020-02-18T14:09:06.000Z</time>
      </trkpt>
      <trkpt lat="44.58633" lon="6.86164">
        <ele>2160</ele>
        <time>2020-02-18T14:09:16.000Z</time>
      </trkpt>
      <trkpt lat="44.5863" lon="6.86163">
        <ele>2160</ele>
        <time>2020-02-18T14:09:22.000Z</time>
      </trkpt>
      <trkpt lat="44.58627" lon="6.86166">
        <ele>2161</ele>
        <time>2020-02-18T14:09:31.000Z</time>
      </trkpt>
      <trkpt lat="44.58627" lon="6.86167">
        <ele>2161</ele>
        <time>2020-02-18T14:09:32.000Z</time>
      </trkpt>
      <trkpt lat="44.58626" lon="6.86168">
        <ele>2174</ele>
        <time>2020-02-18T14:09:36.000Z</time>
      </trkpt>
      <trkpt lat="44.58628" lon="6.86165">
        <ele>2161</ele>
        <time>2020-02-18T14:09:40.000Z</time>
      </trkpt>
      <trkpt lat="44.58631" lon="6.86162">
        <ele>2160</ele>
        <time>2020-02-18T14:09:46.000Z</time>
      </trkpt>
      <trkpt lat="44.58634" lon="6.86161">
        <ele>2160</ele>
        <time>2020-02-18T14:09:51.000Z</time>
      </trkpt>
      <trkpt lat="44.58635" lon="6.86163">
        <ele>2160</ele>
        <time>2020-02-18T14:09:56.000Z</time>
      </trkpt>
      <trkpt lat="44.58632" lon="6.86164">
        <ele>2160</ele>
        <time>2020-02-18T14:10:01.000Z</time>
      </trkpt>
      <trkpt lat="44.58629" lon="6.86163">
        <ele>2160</ele>
        <time>2020-02-18T14:10:04.000Z</time>
      </trkpt>
      <trkpt lat="44.58641" lon="6.8616">
        <ele>2159</ele>
        <time>2020-02-18T14:10:08.000Z</time>
      </trkpt>
      <trkpt lat="44.58646" lon="6.86164">
        <ele>2159</ele>
        <time>2020-02-18T14:10:10.000Z</time>
      </trkpt>
      <trkpt lat="44.58647" lon="6.86165">
        <ele>2159</ele>
        <time>2020-02-18T14:10:11.000Z</time>
      </trkpt>
      <trkpt lat="44.58649" lon="6.86167">
        <ele>2168</ele>
        <time>2020-02-18T14:10:12.000Z</time>
      </trkpt>
      <trkpt lat="44.58652" lon="6.86173">
        <ele>2168</ele>
        <time>2020-02-18T14:10:14.000Z</time>
      </trkpt>
      <trkpt lat="44.58656" lon="6.86181">
        <ele>2169</ele>
        <time>2020-02-18T14:10:18.000Z</time>
      </trkpt>
      <trkpt lat="44.58658" lon="6.86181">
        <ele>2168</ele>
        <time>2020-02-18T14:10:19.000Z</time>
      </trkpt>
      <trkpt lat="44.58666" lon="6.86182">
        <ele>2167</ele>
        <time>2020-02-18T14:10:21.000Z</time>
      </trkpt>
      <trkpt lat="44.58668" lon="6.86182">
        <ele>2161</ele>
        <time>2020-02-18T14:10:23.000Z</time>
      </trkpt>
      <trkpt lat="44.58675" lon="6.86181">
        <ele>2160</ele>
        <time>2020-02-18T14:10:26.000Z</time>
      </trkpt>
      <trkpt lat="44.5868" lon="6.86178">
        <ele>2160</ele>
        <time>2020-02-18T14:10:28.000Z</time>
      </trkpt>
      <trkpt lat="44.58683" lon="6.86177">
        <ele>2160</ele>
        <time>2020-02-18T14:10:29.000Z</time>
      </trkpt>
      <trkpt lat="44.58684" lon="6.86176">
        <ele>2160</ele>
        <time>2020-02-18T14:10:30.000Z</time>
      </trkpt>
      <trkpt lat="44.58683" lon="6.8617">
        <ele>2159</ele>
        <time>2020-02-18T14:10:32.000Z</time>
      </trkpt>
      <trkpt lat="44.58685" lon="6.86163">
        <ele>2147</ele>
        <time>2020-02-18T14:10:34.000Z</time>
      </trkpt>
      <trkpt lat="44.58689" lon="6.86163">
        <ele>2146</ele>
        <time>2020-02-18T14:10:35.000Z</time>
      </trkpt>
      <trkpt lat="44.58692" lon="6.86163">
        <ele>2145</ele>
        <time>2020-02-18T14:10:36.000Z</time>
      </trkpt>
      <trkpt lat="44.58695" lon="6.86162">
        <ele>2144</ele>
        <time>2020-02-18T14:10:37.000Z</time>
      </trkpt>
      <trkpt lat="44.58697" lon="6.86163">
        <ele>2144</ele>
        <time>2020-02-18T14:10:39.000Z</time>
      </trkpt>
      <trkpt lat="44.587" lon="6.8616">
        <ele>2143</ele>
        <time>2020-02-18T14:10:50.000Z</time>
      </trkpt>
      <trkpt lat="44.587" lon="6.86154">
        <ele>2142</ele>
        <time>2020-02-18T14:11:02.000Z</time>
      </trkpt>
      <trkpt lat="44.587" lon="6.86154">
        <ele>2142</ele>
        <time>2020-02-18T14:11:03.000Z</time>
      </trkpt>
      <trkpt lat="44.58701" lon="6.86155">
        <ele>2142</ele>
        <time>2020-02-18T14:11:04.000Z</time>
      </trkpt>
      <trkpt lat="44.58708" lon="6.86154">
        <ele>2141</ele>
        <time>2020-02-18T14:11:12.000Z</time>
      </trkpt>
      <trkpt lat="44.58711" lon="6.86154">
        <ele>2140</ele>
        <time>2020-02-18T14:11:13.000Z</time>
      </trkpt>
      <trkpt lat="44.58713" lon="6.86154">
        <ele>2140</ele>
        <time>2020-02-18T14:11:14.000Z</time>
      </trkpt>
      <trkpt lat="44.58718" lon="6.86152">
        <ele>2139</ele>
        <time>2020-02-18T14:11:17.000Z</time>
      </trkpt>
      <trkpt lat="44.58726" lon="6.86155">
        <ele>2139</ele>
        <time>2020-02-18T14:11:20.000Z</time>
      </trkpt>
      <trkpt lat="44.58735" lon="6.86157">
        <ele>2138</ele>
        <time>2020-02-18T14:11:22.000Z</time>
      </trkpt>
      <trkpt lat="44.58742" lon="6.86159">
        <ele>2138</ele>
        <time>2020-02-18T14:11:24.000Z</time>
      </trkpt>
      <trkpt lat="44.58746" lon="6.86162">
        <ele>2139</ele>
        <time>2020-02-18T14:11:26.000Z</time>
      </trkpt>
      <trkpt lat="44.58748" lon="6.86164">
        <ele>2139</ele>
        <time>2020-02-18T14:11:28.000Z</time>
      </trkpt>
      <trkpt lat="44.58752" lon="6.86164">
        <ele>2137</ele>
        <time>2020-02-18T14:11:31.000Z</time>
      </trkpt>
      <trkpt lat="44.58753" lon="6.86163">
        <ele>2136</ele>
        <time>2020-02-18T14:11:32.000Z</time>
      </trkpt>
      <trkpt lat="44.58754" lon="6.86163">
        <ele>2136</ele>
        <time>2020-02-18T14:11:34.000Z</time>
      </trkpt>
      <trkpt lat="44.58767" lon="6.86163">
        <ele>2131</ele>
        <time>2020-02-18T14:11:48.000Z</time>
      </trkpt>
      <trkpt lat="44.58769" lon="6.86163">
        <ele>2130</ele>
        <time>2020-02-18T14:11:50.000Z</time>
      </trkpt>
      <trkpt lat="44.58773" lon="6.86165">
        <ele>2129</ele>
        <time>2020-02-18T14:11:53.000Z</time>
      </trkpt>
      <trkpt lat="44.58776" lon="6.86168">
        <ele>2144</ele>
        <time>2020-02-18T14:11:55.000Z</time>
      </trkpt>
      <trkpt lat="44.58781" lon="6.86171">
        <ele>2144</ele>
        <time>2020-02-18T14:11:57.000Z</time>
      </trkpt>
      <trkpt lat="44.58787" lon="6.86175">
        <ele>2144</ele>
        <time>2020-02-18T14:12:00.000Z</time>
      </trkpt>
      <trkpt lat="44.58787" lon="6.86175">
        <ele>2144</ele>
        <time>2020-02-18T14:12:02.000Z</time>
      </trkpt>
      <trkpt lat="44.58786" lon="6.86174">
        <ele>2144</ele>
        <time>2020-02-18T14:12:05.000Z</time>
      </trkpt>
      <trkpt lat="44.58786" lon="6.86174">
        <ele>2144</ele>
        <time>2020-02-18T14:12:07.000Z</time>
      </trkpt>
      <trkpt lat="44.58786" lon="6.86179">
        <ele>2145</ele>
        <time>2020-02-18T14:12:40.000Z</time>
      </trkpt>
      <trkpt lat="44.58793" lon="6.86183">
        <ele>2145</ele>
        <time>2020-02-18T14:12:42.000Z</time>
      </trkpt>
      <trkpt lat="44.58797" lon="6.86185">
        <ele>2144</ele>
        <time>2020-02-18T14:12:44.000Z</time>
      </trkpt>
      <trkpt lat="44.58805" lon="6.86183">
        <ele>2143</ele>
        <time>2020-02-18T14:12:47.000Z</time>
      </trkpt>
      <trkpt lat="44.58811" lon="6.86181">
        <ele>2142</ele>
        <time>2020-02-18T14:12:50.000Z</time>
      </trkpt>
      <trkpt lat="44.58814" lon="6.8618">
        <ele>2141</ele>
        <time>2020-02-18T14:12:53.000Z</time>
      </trkpt>
      <trkpt lat="44.58818" lon="6.86178">
        <ele>2139</ele>
        <time>2020-02-18T14:12:56.000Z</time>
      </trkpt>
      <trkpt lat="44.58822" lon="6.86177">
        <ele>2138</ele>
        <time>2020-02-18T14:12:58.000Z</time>
      </trkpt>
      <trkpt lat="44.58824" lon="6.86174">
        <ele>2137</ele>
        <time>2020-02-18T14:13:00.000Z</time>
      </trkpt>
      <trkpt lat="44.58823" lon="6.86172">
        <ele>2136</ele>
        <time>2020-02-18T14:13:01.000Z</time>
      </trkpt>
      <trkpt lat="44.58822" lon="6.86172">
        <ele>2137</ele>
        <time>2020-02-18T14:13:02.000Z</time>
      </trkpt>
      <trkpt lat="44.58821" lon="6.86171">
        <ele>2137</ele>
        <time>2020-02-18T14:13:03.000Z</time>
      </trkpt>
      <trkpt lat="44.58817" lon="6.86171">
        <ele>2138</ele>
        <time>2020-02-18T14:13:04.000Z</time>
      </trkpt>
      <trkpt lat="44.58811" lon="6.8617">
        <ele>2140</ele>
        <time>2020-02-18T14:13:06.000Z</time>
      </trkpt>
      <trkpt lat="44.58809" lon="6.86167">
        <ele>2140</ele>
        <time>2020-02-18T14:13:07.000Z</time>
      </trkpt>
      <trkpt lat="44.5881" lon="6.86164">
        <ele>2126</ele>
        <time>2020-02-18T14:13:08.000Z</time>
      </trkpt>
      <trkpt lat="44.58814" lon="6.8616">
        <ele>2126</ele>
        <time>2020-02-18T14:13:10.000Z</time>
      </trkpt>
      <trkpt lat="44.58815" lon="6.86159">
        <ele>2125</ele>
        <time>2020-02-18T14:13:11.000Z</time>
      </trkpt>
      <trkpt lat="44.58814" lon="6.86158">
        <ele>2125</ele>
        <time>2020-02-18T14:13:12.000Z</time>
      </trkpt>
      <trkpt lat="44.58818" lon="6.86154">
        <ele>2125</ele>
        <time>2020-02-18T14:13:15.000Z</time>
      </trkpt>
      <trkpt lat="44.58822" lon="6.86152">
        <ele>2125</ele>
        <time>2020-02-18T14:13:16.000Z</time>
      </trkpt>
      <trkpt lat="44.58824" lon="6.86151">
        <ele>2125</ele>
        <time>2020-02-18T14:13:17.000Z</time>
      </trkpt>
      <trkpt lat="44.58826" lon="6.86151">
        <ele>2125</ele>
        <time>2020-02-18T14:13:18.000Z</time>
      </trkpt>
      <trkpt lat="44.58827" lon="6.8615">
        <ele>2125</ele>
        <time>2020-02-18T14:13:20.000Z</time>
      </trkpt>
      <trkpt lat="44.58831" lon="6.86146">
        <ele>2124</ele>
        <time>2020-02-18T14:13:23.000Z</time>
      </trkpt>
      <trkpt lat="44.58832" lon="6.86145">
        <ele>2124</ele>
        <time>2020-02-18T14:13:24.000Z</time>
      </trkpt>
      <trkpt lat="44.58832" lon="6.86144">
        <ele>2124</ele>
        <time>2020-02-18T14:13:25.000Z</time>
      </trkpt>
      <trkpt lat="44.58829" lon="6.86133">
        <ele>2121</ele>
        <time>2020-02-18T14:13:29.000Z</time>
      </trkpt>
      <trkpt lat="44.5883" lon="6.86128">
        <ele>2120</ele>
        <time>2020-02-18T14:13:30.000Z</time>
      </trkpt>
      <trkpt lat="44.58832" lon="6.86125">
        <ele>2120</ele>
        <time>2020-02-18T14:13:31.000Z</time>
      </trkpt>
      <trkpt lat="44.58835" lon="6.86123">
        <ele>2116</ele>
        <time>2020-02-18T14:13:32.000Z</time>
      </trkpt>
      <trkpt lat="44.58838" lon="6.86122">
        <ele>2115</ele>
        <time>2020-02-18T14:13:34.000Z</time>
      </trkpt>
      <trkpt lat="44.58837" lon="6.86122">
        <ele>2115</ele>
        <time>2020-02-18T14:13:35.000Z</time>
      </trkpt>
      <trkpt lat="44.58835" lon="6.86121">
        <ele>2115</ele>
        <time>2020-02-18T14:13:39.000Z</time>
      </trkpt>
      <trkpt lat="44.58833" lon="6.8612">
        <ele>2118</ele>
        <time>2020-02-18T14:13:54.000Z</time>
      </trkpt>
      <trkpt lat="44.5884" lon="6.86108">
        <ele>2112</ele>
        <time>2020-02-18T14:14:02.000Z</time>
      </trkpt>
      <trkpt lat="44.5884" lon="6.86104">
        <ele>2111</ele>
        <time>2020-02-18T14:14:04.000Z</time>
      </trkpt>
      <trkpt lat="44.5884" lon="6.86103">
        <ele>2111</ele>
        <time>2020-02-18T14:14:06.000Z</time>
      </trkpt>
      <trkpt lat="44.58837" lon="6.86099">
        <ele>2109</ele>
        <time>2020-02-18T14:14:09.000Z</time>
      </trkpt>
      <trkpt lat="44.58833" lon="6.86096">
        <ele>2108</ele>
        <time>2020-02-18T14:14:11.000Z</time>
      </trkpt>
      <trkpt lat="44.58833" lon="6.86092">
        <ele>2108</ele>
        <time>2020-02-18T14:14:12.000Z</time>
      </trkpt>
      <trkpt lat="44.58834" lon="6.86089">
        <ele>2106</ele>
        <time>2020-02-18T14:14:13.000Z</time>
      </trkpt>
      <trkpt lat="44.58835" lon="6.86085">
        <ele>2104</ele>
        <time>2020-02-18T14:14:15.000Z</time>
      </trkpt>
      <trkpt lat="44.58837" lon="6.8608">
        <ele>2100</ele>
        <time>2020-02-18T14:14:17.000Z</time>
      </trkpt>
      <trkpt lat="44.58837" lon="6.86077">
        <ele>2099</ele>
        <time>2020-02-18T14:14:19.000Z</time>
      </trkpt>
      <trkpt lat="44.58832" lon="6.86073">
        <ele>2102</ele>
        <time>2020-02-18T14:14:20.000Z</time>
      </trkpt>
      <trkpt lat="44.58832" lon="6.8607">
        <ele>2101</ele>
        <time>2020-02-18T14:14:21.000Z</time>
      </trkpt>
      <trkpt lat="44.58834" lon="6.86069">
        <ele>2097</ele>
        <time>2020-02-18T14:14:23.000Z</time>
      </trkpt>
      <trkpt lat="44.58833" lon="6.86069">
        <ele>2101</ele>
        <time>2020-02-18T14:14:24.000Z</time>
      </trkpt>
      <trkpt lat="44.58832" lon="6.86069">
        <ele>2101</ele>
        <time>2020-02-18T14:14:25.000Z</time>
      </trkpt>
      <trkpt lat="44.58831" lon="6.86063">
        <ele>2100</ele>
        <time>2020-02-18T14:14:28.000Z</time>
      </trkpt>
      <trkpt lat="44.58829" lon="6.86057">
        <ele>2099</ele>
        <time>2020-02-18T14:14:30.000Z</time>
      </trkpt>
      <trkpt lat="44.58827" lon="6.86048">
        <ele>2098</ele>
        <time>2020-02-18T14:14:32.000Z</time>
      </trkpt>
      <trkpt lat="44.5883" lon="6.86042">
        <ele>2097</ele>
        <time>2020-02-18T14:14:34.000Z</time>
      </trkpt>
      <trkpt lat="44.58835" lon="6.86033">
        <ele>2088</ele>
        <time>2020-02-18T14:14:36.000Z</time>
      </trkpt>
      <trkpt lat="44.58833" lon="6.86029">
        <ele>2087</ele>
        <time>2020-02-18T14:14:37.000Z</time>
      </trkpt>
      <trkpt lat="44.58833" lon="6.86027">
        <ele>2093</ele>
        <time>2020-02-18T14:14:38.000Z</time>
      </trkpt>
      <trkpt lat="44.58833" lon="6.86027">
        <ele>2093</ele>
        <time>2020-02-18T14:14:39.000Z</time>
      </trkpt>
      <trkpt lat="44.58833" lon="6.86027">
        <ele>2093</ele>
        <time>2020-02-18T14:14:40.000Z</time>
      </trkpt>
      <trkpt lat="44.58831" lon="6.86021">
        <ele>2091</ele>
        <time>2020-02-18T14:14:43.000Z</time>
      </trkpt>
      <trkpt lat="44.58835" lon="6.86016">
        <ele>2085</ele>
        <time>2020-02-18T14:14:46.000Z</time>
      </trkpt>
      <trkpt lat="44.58836" lon="6.86016">
        <ele>2085</ele>
        <time>2020-02-18T14:14:48.000Z</time>
      </trkpt>
      <trkpt lat="44.58837" lon="6.86012">
        <ele>2084</ele>
        <time>2020-02-18T14:14:50.000Z</time>
      </trkpt>
      <trkpt lat="44.58837" lon="6.86006">
        <ele>2082</ele>
        <time>2020-02-18T14:14:52.000Z</time>
      </trkpt>
      <trkpt lat="44.58834" lon="6.86">
        <ele>2080</ele>
        <time>2020-02-18T14:14:54.000Z</time>
      </trkpt>
      <trkpt lat="44.58835" lon="6.85994">
        <ele>2078</ele>
        <time>2020-02-18T14:14:55.000Z</time>
      </trkpt>
      <trkpt lat="44.5884" lon="6.85992">
        <ele>2077</ele>
        <time>2020-02-18T14:14:57.000Z</time>
      </trkpt>
      <trkpt lat="44.58845" lon="6.85994">
        <ele>2076</ele>
        <time>2020-02-18T14:14:59.000Z</time>
      </trkpt>
      <trkpt lat="44.58848" lon="6.85998">
        <ele>2076</ele>
        <time>2020-02-18T14:15:02.000Z</time>
      </trkpt>
      <trkpt lat="44.58853" lon="6.85994">
        <ele>2075</ele>
        <time>2020-02-18T14:15:06.000Z</time>
      </trkpt>
      <trkpt lat="44.58859" lon="6.85985">
        <ele>2073</ele>
        <time>2020-02-18T14:15:08.000Z</time>
      </trkpt>
      <trkpt lat="44.58861" lon="6.85984">
        <ele>2073</ele>
        <time>2020-02-18T14:15:09.000Z</time>
      </trkpt>
      <trkpt lat="44.58861" lon="6.85984">
        <ele>2073</ele>
        <time>2020-02-18T14:15:10.000Z</time>
      </trkpt>
      <trkpt lat="44.58862" lon="6.85983">
        <ele>2073</ele>
        <time>2020-02-18T14:15:12.000Z</time>
      </trkpt>
      <trkpt lat="44.58863" lon="6.85982">
        <ele>2073</ele>
        <time>2020-02-18T14:15:13.000Z</time>
      </trkpt>
      <trkpt lat="44.58879" lon="6.85978">
        <ele>2071</ele>
        <time>2020-02-18T14:15:18.000Z</time>
      </trkpt>
      <trkpt lat="44.58886" lon="6.85973">
        <ele>2071</ele>
        <time>2020-02-18T14:15:20.000Z</time>
      </trkpt>
      <trkpt lat="44.5889" lon="6.85973">
        <ele>2070</ele>
        <time>2020-02-18T14:15:23.000Z</time>
      </trkpt>
      <trkpt lat="44.58891" lon="6.85973">
        <ele>2070</ele>
        <time>2020-02-18T14:15:27.000Z</time>
      </trkpt>
      <trkpt lat="44.5889" lon="6.85965">
        <ele>2070</ele>
        <time>2020-02-18T14:15:30.000Z</time>
      </trkpt>
      <trkpt lat="44.5889" lon="6.85962">
        <ele>2069</ele>
        <time>2020-02-18T14:15:31.000Z</time>
      </trkpt>
      <trkpt lat="44.58894" lon="6.85956">
        <ele>2069</ele>
        <time>2020-02-18T14:15:33.000Z</time>
      </trkpt>
      <trkpt lat="44.58898" lon="6.8595">
        <ele>2067</ele>
        <time>2020-02-18T14:15:35.000Z</time>
      </trkpt>
      <trkpt lat="44.58906" lon="6.85947">
        <ele>2067</ele>
        <time>2020-02-18T14:15:37.000Z</time>
      </trkpt>
      <trkpt lat="44.58916" lon="6.85942">
        <ele>2065</ele>
        <time>2020-02-18T14:15:39.000Z</time>
      </trkpt>
      <trkpt lat="44.58921" lon="6.8594">
        <ele>2061</ele>
        <time>2020-02-18T14:15:41.000Z</time>
      </trkpt>
      <trkpt lat="44.5892" lon="6.8594">
        <ele>2061</ele>
        <time>2020-02-18T14:15:42.000Z</time>
      </trkpt>
      <trkpt lat="44.58922" lon="6.8594">
        <ele>2061</ele>
        <time>2020-02-18T14:15:47.000Z</time>
      </trkpt>
      <trkpt lat="44.58926" lon="6.85935">
        <ele>2061</ele>
        <time>2020-02-18T14:15:50.000Z</time>
      </trkpt>
      <trkpt lat="44.5893" lon="6.85931">
        <ele>2060</ele>
        <time>2020-02-18T14:15:52.000Z</time>
      </trkpt>
      <trkpt lat="44.58932" lon="6.8593">
        <ele>2060</ele>
        <time>2020-02-18T14:15:53.000Z</time>
      </trkpt>
      <trkpt lat="44.58935" lon="6.85926">
        <ele>2060</ele>
        <time>2020-02-18T14:15:55.000Z</time>
      </trkpt>
      <trkpt lat="44.58935" lon="6.85924">
        <ele>2060</ele>
        <time>2020-02-18T14:15:57.000Z</time>
      </trkpt>
      <trkpt lat="44.58935" lon="6.85923">
        <ele>2060</ele>
        <time>2020-02-18T14:15:58.000Z</time>
      </trkpt>
      <trkpt lat="44.58934" lon="6.85922">
        <ele>2060</ele>
        <time>2020-02-18T14:16:00.000Z</time>
      </trkpt>
      <trkpt lat="44.58927" lon="6.85922">
        <ele>2059</ele>
        <time>2020-02-18T14:16:12.000Z</time>
      </trkpt>
      <trkpt lat="44.58917" lon="6.85912">
        <ele>2055</ele>
        <time>2020-02-18T14:16:27.000Z</time>
      </trkpt>
      <trkpt lat="44.58922" lon="6.85913">
        <ele>2055</ele>
        <time>2020-02-18T14:16:29.000Z</time>
      </trkpt>
      <trkpt lat="44.58925" lon="6.85913">
        <ele>2054</ele>
        <time>2020-02-18T14:16:30.000Z</time>
      </trkpt>
      <trkpt lat="44.58927" lon="6.85916">
        <ele>2054</ele>
        <time>2020-02-18T14:16:32.000Z</time>
      </trkpt>
      <trkpt lat="44.58929" lon="6.85917">
        <ele>2059</ele>
        <time>2020-02-18T14:16:34.000Z</time>
      </trkpt>
      <trkpt lat="44.58921" lon="6.85922">
        <ele>2058</ele>
        <time>2020-02-18T14:16:40.000Z</time>
      </trkpt>
      <trkpt lat="44.58903" lon="6.85927">
        <ele>2063</ele>
        <time>2020-02-18T14:16:50.000Z</time>
      </trkpt>
      <trkpt lat="44.58905" lon="6.85927">
        <ele>2063</ele>
        <time>2020-02-18T14:17:04.000Z</time>
      </trkpt>
      <trkpt lat="44.58904" lon="6.85926">
        <ele>2063</ele>
        <time>2020-02-18T14:17:10.000Z</time>
      </trkpt>
      <trkpt lat="44.58905" lon="6.85925">
        <ele>2062</ele>
        <time>2020-02-18T14:17:12.000Z</time>
      </trkpt>
      <trkpt lat="44.58922" lon="6.85921">
        <ele>2058</ele>
        <time>2020-02-18T14:17:17.000Z</time>
      </trkpt>
      <trkpt lat="44.58924" lon="6.85922">
        <ele>2058</ele>
        <time>2020-02-18T14:17:20.000Z</time>
      </trkpt>
      <trkpt lat="44.58923" lon="6.85923">
        <ele>2058</ele>
        <time>2020-02-18T14:17:22.000Z</time>
      </trkpt>
      <trkpt lat="44.58931" lon="6.8592">
        <ele>2059</ele>
        <time>2020-02-18T14:17:32.000Z</time>
      </trkpt>
      <trkpt lat="44.58931" lon="6.8592">
        <ele>2059</ele>
        <time>2020-02-18T14:17:33.000Z</time>
      </trkpt>
      <trkpt lat="44.58932" lon="6.85919">
        <ele>2059</ele>
        <time>2020-02-18T14:17:36.000Z</time>
      </trkpt>
      <trkpt lat="44.58932" lon="6.85918">
        <ele>2059</ele>
        <time>2020-02-18T14:17:37.000Z</time>
      </trkpt>
      <trkpt lat="44.58932" lon="6.85917">
        <ele>2059</ele>
        <time>2020-02-18T14:17:38.000Z</time>
      </trkpt>
      <trkpt lat="44.58932" lon="6.85916">
        <ele>2053</ele>
        <time>2020-02-18T14:17:39.000Z</time>
      </trkpt>
      <trkpt lat="44.58934" lon="6.85913">
        <ele>2053</ele>
        <time>2020-02-18T14:17:42.000Z</time>
      </trkpt>
      <trkpt lat="44.58935" lon="6.85911">
        <ele>2053</ele>
        <time>2020-02-18T14:17:44.000Z</time>
      </trkpt>
      <trkpt lat="44.58934" lon="6.85911">
        <ele>2053</ele>
        <time>2020-02-18T14:17:45.000Z</time>
      </trkpt>
      <trkpt lat="44.58934" lon="6.85908">
        <ele>2053</ele>
        <time>2020-02-18T14:17:47.000Z</time>
      </trkpt>
      <trkpt lat="44.58936" lon="6.85908">
        <ele>2053</ele>
        <time>2020-02-18T14:17:49.000Z</time>
      </trkpt>
      <trkpt lat="44.58943" lon="6.85909">
        <ele>2052</ele>
        <time>2020-02-18T14:17:52.000Z</time>
      </trkpt>
      <trkpt lat="44.58952" lon="6.85907">
        <ele>2051</ele>
        <time>2020-02-18T14:17:55.000Z</time>
      </trkpt>
      <trkpt lat="44.58957" lon="6.85905">
        <ele>2051</ele>
        <time>2020-02-18T14:17:57.000Z</time>
      </trkpt>
      <trkpt lat="44.58961" lon="6.85903">
        <ele>2051</ele>
        <time>2020-02-18T14:17:58.000Z</time>
      </trkpt>
      <trkpt lat="44.58965" lon="6.85901">
        <ele>2051</ele>
        <time>2020-02-18T14:17:59.000Z</time>
      </trkpt>
      <trkpt lat="44.5897" lon="6.85901">
        <ele>2050</ele>
        <time>2020-02-18T14:18:01.000Z</time>
      </trkpt>
      <trkpt lat="44.58977" lon="6.85898">
        <ele>2050</ele>
        <time>2020-02-18T14:18:04.000Z</time>
      </trkpt>
      <trkpt lat="44.58982" lon="6.85896">
        <ele>2050</ele>
        <time>2020-02-18T14:18:06.000Z</time>
      </trkpt>
      <trkpt lat="44.58988" lon="6.85891">
        <ele>2050</ele>
        <time>2020-02-18T14:18:09.000Z</time>
      </trkpt>
      <trkpt lat="44.58994" lon="6.85884">
        <ele>2049</ele>
        <time>2020-02-18T14:18:12.000Z</time>
      </trkpt>
      <trkpt lat="44.59002" lon="6.8588">
        <ele>2044</ele>
        <time>2020-02-18T14:18:15.000Z</time>
      </trkpt>
      <trkpt lat="44.59006" lon="6.8588">
        <ele>2043</ele>
        <time>2020-02-18T14:18:17.000Z</time>
      </trkpt>
      <trkpt lat="44.59009" lon="6.85882">
        <ele>2044</ele>
        <time>2020-02-18T14:18:19.000Z</time>
      </trkpt>
      <trkpt lat="44.59013" lon="6.85886">
        <ele>2044</ele>
        <time>2020-02-18T14:18:21.000Z</time>
      </trkpt>
      <trkpt lat="44.59015" lon="6.8589">
        <ele>2044</ele>
        <time>2020-02-18T14:18:23.000Z</time>
      </trkpt>
      <trkpt lat="44.59018" lon="6.85895">
        <ele>2044</ele>
        <time>2020-02-18T14:18:25.000Z</time>
      </trkpt>
      <trkpt lat="44.59019" lon="6.85898">
        <ele>2044</ele>
        <time>2020-02-18T14:18:26.000Z</time>
      </trkpt>
      <trkpt lat="44.5902" lon="6.85901">
        <ele>2045</ele>
        <time>2020-02-18T14:18:27.000Z</time>
      </trkpt>
      <trkpt lat="44.5902" lon="6.85907">
        <ele>2045</ele>
        <time>2020-02-18T14:18:29.000Z</time>
      </trkpt>
      <trkpt lat="44.59019" lon="6.85912">
        <ele>2046</ele>
        <time>2020-02-18T14:18:31.000Z</time>
      </trkpt>
      <trkpt lat="44.5902" lon="6.85918">
        <ele>2053</ele>
        <time>2020-02-18T14:18:33.000Z</time>
      </trkpt>
      <trkpt lat="44.59022" lon="6.8592">
        <ele>2053</ele>
        <time>2020-02-18T14:18:34.000Z</time>
      </trkpt>
      <trkpt lat="44.59035" lon="6.85927">
        <ele>2054</ele>
        <time>2020-02-18T14:18:37.000Z</time>
      </trkpt>
      <trkpt lat="44.5904" lon="6.85928">
        <ele>2054</ele>
        <time>2020-02-18T14:18:38.000Z</time>
      </trkpt>
      <trkpt lat="44.59053" lon="6.85929">
        <ele>2052</ele>
        <time>2020-02-18T14:18:41.000Z</time>
      </trkpt>
      <trkpt lat="44.59065" lon="6.85929">
        <ele>2050</ele>
        <time>2020-02-18T14:18:43.000Z</time>
      </trkpt>
      <trkpt lat="44.59076" lon="6.85926">
        <ele>2048</ele>
        <time>2020-02-18T14:18:45.000Z</time>
      </trkpt>
      <trkpt lat="44.59084" lon="6.8592">
        <ele>2042</ele>
        <time>2020-02-18T14:18:47.000Z</time>
      </trkpt>
      <trkpt lat="44.59092" lon="6.85911">
        <ele>2037</ele>
        <time>2020-02-18T14:18:49.000Z</time>
      </trkpt>
      <trkpt lat="44.59098" lon="6.85904">
        <ele>2033</ele>
        <time>2020-02-18T14:18:51.000Z</time>
      </trkpt>
      <trkpt lat="44.59101" lon="6.85899">
        <ele>2031</ele>
        <time>2020-02-18T14:18:54.000Z</time>
      </trkpt>
      <trkpt lat="44.59102" lon="6.85898">
        <ele>2031</ele>
        <time>2020-02-18T14:18:56.000Z</time>
      </trkpt>
      <trkpt lat="44.59102" lon="6.85897">
        <ele>2031</ele>
        <time>2020-02-18T14:18:58.000Z</time>
      </trkpt>
      <trkpt lat="44.59106" lon="6.85889">
        <ele>2029</ele>
        <time>2020-02-18T14:19:09.000Z</time>
      </trkpt>
      <trkpt lat="44.5911" lon="6.85884">
        <ele>2028</ele>
        <time>2020-02-18T14:19:11.000Z</time>
      </trkpt>
      <trkpt lat="44.59113" lon="6.85876">
        <ele>2027</ele>
        <time>2020-02-18T14:19:13.000Z</time>
      </trkpt>
      <trkpt lat="44.59115" lon="6.85871">
        <ele>2026</ele>
        <time>2020-02-18T14:19:15.000Z</time>
      </trkpt>
      <trkpt lat="44.59115" lon="6.8587">
        <ele>2026</ele>
        <time>2020-02-18T14:19:16.000Z</time>
      </trkpt>
      <trkpt lat="44.59114" lon="6.85867">
        <ele>2026</ele>
        <time>2020-02-18T14:19:19.000Z</time>
      </trkpt>
      <trkpt lat="44.59113" lon="6.85863">
        <ele>2026</ele>
        <time>2020-02-18T14:19:22.000Z</time>
      </trkpt>
      <trkpt lat="44.59114" lon="6.85858">
        <ele>2025</ele>
        <time>2020-02-18T14:19:24.000Z</time>
      </trkpt>
      <trkpt lat="44.59115" lon="6.85856">
        <ele>2025</ele>
        <time>2020-02-18T14:19:25.000Z</time>
      </trkpt>
      <trkpt lat="44.59115" lon="6.8585">
        <ele>2025</ele>
        <time>2020-02-18T14:19:28.000Z</time>
      </trkpt>
      <trkpt lat="44.59115" lon="6.85848">
        <ele>2025</ele>
        <time>2020-02-18T14:19:29.000Z</time>
      </trkpt>
      <trkpt lat="44.59115" lon="6.85846">
        <ele>2025</ele>
        <time>2020-02-18T14:19:30.000Z</time>
      </trkpt>
      <trkpt lat="44.59115" lon="6.85843">
        <ele>2025</ele>
        <time>2020-02-18T14:19:31.000Z</time>
      </trkpt>
      <trkpt lat="44.59112" lon="6.85838">
        <ele>2025</ele>
        <time>2020-02-18T14:19:33.000Z</time>
      </trkpt>
      <trkpt lat="44.59111" lon="6.85836">
        <ele>2025</ele>
        <time>2020-02-18T14:19:34.000Z</time>
      </trkpt>
      <trkpt lat="44.59109" lon="6.85829">
        <ele>2019</ele>
        <time>2020-02-18T14:19:37.000Z</time>
      </trkpt>
      <trkpt lat="44.59108" lon="6.8582">
        <ele>2018</ele>
        <time>2020-02-18T14:19:39.000Z</time>
      </trkpt>
      <trkpt lat="44.59107" lon="6.85818">
        <ele>2019</ele>
        <time>2020-02-18T14:19:40.000Z</time>
      </trkpt>
      <trkpt lat="44.59108" lon="6.85814">
        <ele>2018</ele>
        <time>2020-02-18T14:19:41.000Z</time>
      </trkpt>
      <trkpt lat="44.59108" lon="6.85812">
        <ele>2018</ele>
        <time>2020-02-18T14:19:43.000Z</time>
      </trkpt>
      <trkpt lat="44.59106" lon="6.8581">
        <ele>2018</ele>
        <time>2020-02-18T14:19:48.000Z</time>
      </trkpt>
      <trkpt lat="44.59104" lon="6.85801">
        <ele>2017</ele>
        <time>2020-02-18T14:19:54.000Z</time>
      </trkpt>
      <trkpt lat="44.59103" lon="6.85795">
        <ele>2017</ele>
        <time>2020-02-18T14:19:56.000Z</time>
      </trkpt>
      <trkpt lat="44.59106" lon="6.85786">
        <ele>2016</ele>
        <time>2020-02-18T14:19:59.000Z</time>
      </trkpt>
      <trkpt lat="44.59105" lon="6.85776">
        <ele>2016</ele>
        <time>2020-02-18T14:20:02.000Z</time>
      </trkpt>
      <trkpt lat="44.59106" lon="6.85772">
        <ele>2016</ele>
        <time>2020-02-18T14:20:03.000Z</time>
      </trkpt>
      <trkpt lat="44.59105" lon="6.85769">
        <ele>2017</ele>
        <time>2020-02-18T14:20:04.000Z</time>
      </trkpt>
      <trkpt lat="44.59105" lon="6.85763">
        <ele>2017</ele>
        <time>2020-02-18T14:20:06.000Z</time>
      </trkpt>
      <trkpt lat="44.59109" lon="6.85755">
        <ele>2016</ele>
        <time>2020-02-18T14:20:09.000Z</time>
      </trkpt>
      <trkpt lat="44.5911" lon="6.85755">
        <ele>2016</ele>
        <time>2020-02-18T14:20:10.000Z</time>
      </trkpt>
      <trkpt lat="44.59108" lon="6.8575">
        <ele>2013</ele>
        <time>2020-02-18T14:20:16.000Z</time>
      </trkpt>
      <trkpt lat="44.59111" lon="6.85745">
        <ele>2012</ele>
        <time>2020-02-18T14:20:18.000Z</time>
      </trkpt>
      <trkpt lat="44.59112" lon="6.85743">
        <ele>2011</ele>
        <time>2020-02-18T14:20:19.000Z</time>
      </trkpt>
      <trkpt lat="44.59112" lon="6.85741">
        <ele>2011</ele>
        <time>2020-02-18T14:20:20.000Z</time>
      </trkpt>
      <trkpt lat="44.59115" lon="6.85734">
        <ele>2010</ele>
        <time>2020-02-18T14:20:23.000Z</time>
      </trkpt>
      <trkpt lat="44.59116" lon="6.85726">
        <ele>2009</ele>
        <time>2020-02-18T14:20:26.000Z</time>
      </trkpt>
      <trkpt lat="44.59116" lon="6.85723">
        <ele>2009</ele>
        <time>2020-02-18T14:20:27.000Z</time>
      </trkpt>
      <trkpt lat="44.59119" lon="6.85715">
        <ele>2008</ele>
        <time>2020-02-18T14:20:29.000Z</time>
      </trkpt>
      <trkpt lat="44.59119" lon="6.85712">
        <ele>2007</ele>
        <time>2020-02-18T14:20:31.000Z</time>
      </trkpt>
      <trkpt lat="44.59119" lon="6.85711">
        <ele>2007</ele>
        <time>2020-02-18T14:20:34.000Z</time>
      </trkpt>
      <trkpt lat="44.59122" lon="6.85704">
        <ele>2007</ele>
        <time>2020-02-18T14:20:43.000Z</time>
      </trkpt>
      <trkpt lat="44.59124" lon="6.85701">
        <ele>2006</ele>
        <time>2020-02-18T14:20:44.000Z</time>
      </trkpt>
      <trkpt lat="44.59127" lon="6.85699">
        <ele>2005</ele>
        <time>2020-02-18T14:20:45.000Z</time>
      </trkpt>
      <trkpt lat="44.59134" lon="6.85691">
        <ele>2004</ele>
        <time>2020-02-18T14:20:48.000Z</time>
      </trkpt>
      <trkpt lat="44.59141" lon="6.85683">
        <ele>2001</ele>
        <time>2020-02-18T14:20:51.000Z</time>
      </trkpt>
      <trkpt lat="44.59144" lon="6.85673">
        <ele>1999</ele>
        <time>2020-02-18T14:20:54.000Z</time>
      </trkpt>
      <trkpt lat="44.59148" lon="6.85665">
        <ele>1996</ele>
        <time>2020-02-18T14:20:57.000Z</time>
      </trkpt>
      <trkpt lat="44.59152" lon="6.85656">
        <ele>1995</ele>
        <time>2020-02-18T14:21:01.000Z</time>
      </trkpt>
      <trkpt lat="44.59159" lon="6.85648">
        <ele>1995</ele>
        <time>2020-02-18T14:21:04.000Z</time>
      </trkpt>
      <trkpt lat="44.59164" lon="6.85639">
        <ele>1996</ele>
        <time>2020-02-18T14:21:06.000Z</time>
      </trkpt>
      <trkpt lat="44.59167" lon="6.85637">
        <ele>1982</ele>
        <time>2020-02-18T14:21:07.000Z</time>
      </trkpt>
      <trkpt lat="44.59169" lon="6.85636">
        <ele>1982</ele>
        <time>2020-02-18T14:21:09.000Z</time>
      </trkpt>
      <trkpt lat="44.59168" lon="6.85636">
        <ele>1982</ele>
        <time>2020-02-18T14:21:10.000Z</time>
      </trkpt>
      <trkpt lat="44.59169" lon="6.85637">
        <ele>1982</ele>
        <time>2020-02-18T14:21:13.000Z</time>
      </trkpt>
      <trkpt lat="44.5917" lon="6.85642">
        <ele>1982</ele>
        <time>2020-02-18T14:21:23.000Z</time>
      </trkpt>
      <trkpt lat="44.5917" lon="6.85644">
        <ele>1982</ele>
        <time>2020-02-18T14:21:24.000Z</time>
      </trkpt>
      <trkpt lat="44.59169" lon="6.85651">
        <ele>1983</ele>
        <time>2020-02-18T14:21:27.000Z</time>
      </trkpt>
      <trkpt lat="44.5917" lon="6.85654">
        <ele>1984</ele>
        <time>2020-02-18T14:21:28.000Z</time>
      </trkpt>
      <trkpt lat="44.59169" lon="6.85659">
        <ele>1985</ele>
        <time>2020-02-18T14:21:30.000Z</time>
      </trkpt>
      <trkpt lat="44.59166" lon="6.85666">
        <ele>1989</ele>
        <time>2020-02-18T14:21:33.000Z</time>
      </trkpt>
      <trkpt lat="44.59165" lon="6.85673">
        <ele>1992</ele>
        <time>2020-02-18T14:21:36.000Z</time>
      </trkpt>
      <trkpt lat="44.59165" lon="6.85674">
        <ele>1993</ele>
        <time>2020-02-18T14:21:38.000Z</time>
      </trkpt>
      <trkpt lat="44.59165" lon="6.85676">
        <ele>1994</ele>
        <time>2020-02-18T14:21:40.000Z</time>
      </trkpt>
      <trkpt lat="44.59165" lon="6.85678">
        <ele>1994</ele>
        <time>2020-02-18T14:21:41.000Z</time>
      </trkpt>
      <trkpt lat="44.59165" lon="6.85681">
        <ele>1995</ele>
        <time>2020-02-18T14:21:42.000Z</time>
      </trkpt>
      <trkpt lat="44.59162" lon="6.85689">
        <ele>1998</ele>
        <time>2020-02-18T14:21:45.000Z</time>
      </trkpt>
      <trkpt lat="44.59159" lon="6.857">
        <ele>1999</ele>
        <time>2020-02-18T14:21:48.000Z</time>
      </trkpt>
      <trkpt lat="44.5916" lon="6.85717">
        <ele>1999</ele>
        <time>2020-02-18T14:21:51.000Z</time>
      </trkpt>
      <trkpt lat="44.59159" lon="6.85727">
        <ele>1998</ele>
        <time>2020-02-18T14:21:53.000Z</time>
      </trkpt>
      <trkpt lat="44.59161" lon="6.85728">
        <ele>1998</ele>
        <time>2020-02-18T14:21:54.000Z</time>
      </trkpt>
      <trkpt lat="44.59162" lon="6.8573">
        <ele>1997</ele>
        <time>2020-02-18T14:21:56.000Z</time>
      </trkpt>
      <trkpt lat="44.59165" lon="6.85731">
        <ele>1996</ele>
        <time>2020-02-18T14:22:00.000Z</time>
      </trkpt>
      <trkpt lat="44.5917" lon="6.8573">
        <ele>1983</ele>
        <time>2020-02-18T14:22:05.000Z</time>
      </trkpt>
      <trkpt lat="44.59171" lon="6.85731">
        <ele>1983</ele>
        <time>2020-02-18T14:22:10.000Z</time>
      </trkpt>
      <trkpt lat="44.59174" lon="6.85731">
        <ele>1983</ele>
        <time>2020-02-18T14:22:14.000Z</time>
      </trkpt>
      <trkpt lat="44.5919" lon="6.85731">
        <ele>1981</ele>
        <time>2020-02-18T14:22:23.000Z</time>
      </trkpt>
      <trkpt lat="44.59193" lon="6.8573">
        <ele>1981</ele>
        <time>2020-02-18T14:22:30.000Z</time>
      </trkpt>
      <trkpt lat="44.59185" lon="6.85729">
        <ele>1982</ele>
        <time>2020-02-18T14:22:35.000Z</time>
      </trkpt>
      <trkpt lat="44.59184" lon="6.85727">
        <ele>1981</ele>
        <time>2020-02-18T14:22:36.000Z</time>
      </trkpt>
      <trkpt lat="44.5918" lon="6.85723">
        <ele>1982</ele>
        <time>2020-02-18T14:22:38.000Z</time>
      </trkpt>
      <trkpt lat="44.5918" lon="6.85721">
        <ele>1981</ele>
        <time>2020-02-18T14:22:39.000Z</time>
      </trkpt>
      <trkpt lat="44.59177" lon="6.85717">
        <ele>1981</ele>
        <time>2020-02-18T14:22:41.000Z</time>
      </trkpt>
      <trkpt lat="44.59173" lon="6.85711">
        <ele>1982</ele>
        <time>2020-02-18T14:22:43.000Z</time>
      </trkpt>
      <trkpt lat="44.59172" lon="6.85705">
        <ele>1982</ele>
        <time>2020-02-18T14:22:45.000Z</time>
      </trkpt>
      <trkpt lat="44.59175" lon="6.85699">
        <ele>1982</ele>
        <time>2020-02-18T14:22:47.000Z</time>
      </trkpt>
      <trkpt lat="44.59178" lon="6.85692">
        <ele>1982</ele>
        <time>2020-02-18T14:22:49.000Z</time>
      </trkpt>
      <trkpt lat="44.59183" lon="6.85686">
        <ele>1981</ele>
        <time>2020-02-18T14:22:51.000Z</time>
      </trkpt>
      <trkpt lat="44.59188" lon="6.85681">
        <ele>1981</ele>
        <time>2020-02-18T14:22:53.000Z</time>
      </trkpt>
      <trkpt lat="44.59193" lon="6.85676">
        <ele>1980</ele>
        <time>2020-02-18T14:22:55.000Z</time>
      </trkpt>
      <trkpt lat="44.59196" lon="6.85672">
        <ele>1980</ele>
        <time>2020-02-18T14:22:56.000Z</time>
      </trkpt>
      <trkpt lat="44.59206" lon="6.85661">
        <ele>1976</ele>
        <time>2020-02-18T14:22:59.000Z</time>
      </trkpt>
      <trkpt lat="44.59211" lon="6.85652">
        <ele>1975</ele>
        <time>2020-02-18T14:23:01.000Z</time>
      </trkpt>
      <trkpt lat="44.59216" lon="6.85642">
        <ele>1974</ele>
        <time>2020-02-18T14:23:03.000Z</time>
      </trkpt>
      <trkpt lat="44.59223" lon="6.85635">
        <ele>1973</ele>
        <time>2020-02-18T14:23:05.000Z</time>
      </trkpt>
      <trkpt lat="44.59231" lon="6.85624">
        <ele>1972</ele>
        <time>2020-02-18T14:23:07.000Z</time>
      </trkpt>
      <trkpt lat="44.59238" lon="6.85616">
        <ele>1971</ele>
        <time>2020-02-18T14:23:10.000Z</time>
      </trkpt>
      <trkpt lat="44.59243" lon="6.8561">
        <ele>1970</ele>
        <time>2020-02-18T14:23:12.000Z</time>
      </trkpt>
      <trkpt lat="44.59248" lon="6.85605">
        <ele>1968</ele>
        <time>2020-02-18T14:23:14.000Z</time>
      </trkpt>
      <trkpt lat="44.59253" lon="6.856">
        <ele>1957</ele>
        <time>2020-02-18T14:23:16.000Z</time>
      </trkpt>
      <trkpt lat="44.59258" lon="6.85595">
        <ele>1957</ele>
        <time>2020-02-18T14:23:19.000Z</time>
      </trkpt>
      <trkpt lat="44.59263" lon="6.8559">
        <ele>1956</ele>
        <time>2020-02-18T14:23:23.000Z</time>
      </trkpt>
      <trkpt lat="44.5927" lon="6.85587">
        <ele>1956</ele>
        <time>2020-02-18T14:23:26.000Z</time>
      </trkpt>
      <trkpt lat="44.59276" lon="6.85582">
        <ele>1953</ele>
        <time>2020-02-18T14:23:29.000Z</time>
      </trkpt>
      <trkpt lat="44.59277" lon="6.85581">
        <ele>1953</ele>
        <time>2020-02-18T14:23:30.000Z</time>
      </trkpt>
      <trkpt lat="44.5928" lon="6.85577">
        <ele>1952</ele>
        <time>2020-02-18T14:23:34.000Z</time>
      </trkpt>
      <trkpt lat="44.5929" lon="6.85577">
        <ele>1951</ele>
        <time>2020-02-18T14:23:43.000Z</time>
      </trkpt>
      <trkpt lat="44.59292" lon="6.85571">
        <ele>1950</ele>
        <time>2020-02-18T14:23:48.000Z</time>
      </trkpt>
      <trkpt lat="44.5929" lon="6.8557">
        <ele>1950</ele>
        <time>2020-02-18T14:23:55.000Z</time>
      </trkpt>
      <trkpt lat="44.5929" lon="6.8557">
        <ele>1951</ele>
        <time>2020-02-18T14:23:56.000Z</time>
      </trkpt>
      <trkpt lat="44.59289" lon="6.85571">
        <ele>1951</ele>
        <time>2020-02-18T14:24:00.000Z</time>
      </trkpt>
      <trkpt lat="44.59294" lon="6.85569">
        <ele>1950</ele>
        <time>2020-02-18T14:24:10.000Z</time>
      </trkpt>
      <trkpt lat="44.59292" lon="6.8557">
        <ele>1950</ele>
        <time>2020-02-18T14:24:23.000Z</time>
      </trkpt>
      <trkpt lat="44.59289" lon="6.8557">
        <ele>1951</ele>
        <time>2020-02-18T14:24:24.000Z</time>
      </trkpt>
      <trkpt lat="44.59284" lon="6.8557">
        <ele>1951</ele>
        <time>2020-02-18T14:24:26.000Z</time>
      </trkpt>
      <trkpt lat="44.59281" lon="6.8557">
        <ele>1952</ele>
        <time>2020-02-18T14:24:28.000Z</time>
      </trkpt>
      <trkpt lat="44.59268" lon="6.8558">
        <ele>1954</ele>
        <time>2020-02-18T14:24:34.000Z</time>
      </trkpt>
      <trkpt lat="44.59263" lon="6.85578">
        <ele>1955</ele>
        <time>2020-02-18T14:24:36.000Z</time>
      </trkpt>
      <trkpt lat="44.59262" lon="6.85575">
        <ele>1955</ele>
        <time>2020-02-18T14:24:38.000Z</time>
      </trkpt>
      <trkpt lat="44.59265" lon="6.85576">
        <ele>1955</ele>
        <time>2020-02-18T14:24:40.000Z</time>
      </trkpt>
      <trkpt lat="44.59265" lon="6.85575">
        <ele>1954</ele>
        <time>2020-02-18T14:24:41.000Z</time>
      </trkpt>
      <trkpt lat="44.59265" lon="6.85575">
        <ele>1954</ele>
        <time>2020-02-18T14:24:42.000Z</time>
      </trkpt>
      <trkpt lat="44.59268" lon="6.85574">
        <ele>1954</ele>
        <time>2020-02-18T14:24:43.000Z</time>
      </trkpt>
      <trkpt lat="44.59268" lon="6.85574">
        <ele>1954</ele>
        <time>2020-02-18T14:24:44.000Z</time>
      </trkpt>
      <trkpt lat="44.59269" lon="6.85571">
        <ele>1953</ele>
        <time>2020-02-18T14:24:47.000Z</time>
      </trkpt>
      <trkpt lat="44.5927" lon="6.85571">
        <ele>1953</ele>
        <time>2020-02-18T14:24:48.000Z</time>
      </trkpt>
      <trkpt lat="44.59285" lon="6.85561">
        <ele>1951</ele>
        <time>2020-02-18T14:24:59.000Z</time>
      </trkpt>
      <trkpt lat="44.59286" lon="6.85561">
        <ele>1951</ele>
        <time>2020-02-18T14:25:01.000Z</time>
      </trkpt>
      <trkpt lat="44.59289" lon="6.85561">
        <ele>1950</ele>
        <time>2020-02-18T14:25:02.000Z</time>
      </trkpt>
      <trkpt lat="44.59292" lon="6.85563">
        <ele>1950</ele>
        <time>2020-02-18T14:25:05.000Z</time>
      </trkpt>
      <trkpt lat="44.59289" lon="6.85563">
        <ele>1951</ele>
        <time>2020-02-18T14:25:06.000Z</time>
      </trkpt>
      <trkpt lat="44.59287" lon="6.85564">
        <ele>1951</ele>
        <time>2020-02-18T14:25:07.000Z</time>
      </trkpt>
      <trkpt lat="44.59285" lon="6.85563">
        <ele>1951</ele>
        <time>2020-02-18T14:25:08.000Z</time>
      </trkpt>
      <trkpt lat="44.59283" lon="6.85563">
        <ele>1951</ele>
        <time>2020-02-18T14:25:09.000Z</time>
      </trkpt>
      <trkpt lat="44.5928" lon="6.85564">
        <ele>1952</ele>
        <time>2020-02-18T14:25:11.000Z</time>
      </trkpt>
      <trkpt lat="44.59277" lon="6.85565">
        <ele>1952</ele>
        <time>2020-02-18T14:25:13.000Z</time>
      </trkpt>
      <trkpt lat="44.59272" lon="6.8556">
        <ele>1952</ele>
        <time>2020-02-18T14:25:20.000Z</time>
      </trkpt>
      <trkpt lat="44.59273" lon="6.8556">
        <ele>1952</ele>
        <time>2020-02-18T14:25:21.000Z</time>
      </trkpt>
      <trkpt lat="44.59273" lon="6.85559">
        <ele>1952</ele>
        <time>2020-02-18T14:25:23.000Z</time>
      </trkpt>
      <trkpt lat="44.59272" lon="6.85557">
        <ele>1952</ele>
        <time>2020-02-18T14:25:24.000Z</time>
      </trkpt>
      <trkpt lat="44.59272" lon="6.85556">
        <ele>1952</ele>
        <time>2020-02-18T14:25:26.000Z</time>
      </trkpt>
      <trkpt lat="44.59272" lon="6.85552">
        <ele>1952</ele>
        <time>2020-02-18T14:25:30.000Z</time>
      </trkpt>
      <trkpt lat="44.59273" lon="6.85549">
        <ele>1952</ele>
        <time>2020-02-18T14:25:33.000Z</time>
      </trkpt>
      <trkpt lat="44.59279" lon="6.85539">
        <ele>1951</ele>
        <time>2020-02-18T14:25:35.000Z</time>
      </trkpt>
      <trkpt lat="44.59286" lon="6.8552">
        <ele>1950</ele>
        <time>2020-02-18T14:25:38.000Z</time>
      </trkpt>
      <trkpt lat="44.59286" lon="6.85503">
        <ele>1950</ele>
        <time>2020-02-18T14:25:43.000Z</time>
      </trkpt>
      <trkpt lat="44.59295" lon="6.85499">
        <ele>1944</ele>
        <time>2020-02-18T14:25:46.000Z</time>
      </trkpt>
      <trkpt lat="44.59303" lon="6.85487">
        <ele>1942</ele>
        <time>2020-02-18T14:25:48.000Z</time>
      </trkpt>
      <trkpt lat="44.59306" lon="6.8548">
        <ele>1942</ele>
        <time>2020-02-18T14:25:49.000Z</time>
      </trkpt>
      <trkpt lat="44.59306" lon="6.85472">
        <ele>1942</ele>
        <time>2020-02-18T14:25:50.000Z</time>
      </trkpt>
      <trkpt lat="44.59307" lon="6.85465">
        <ele>1941</ele>
        <time>2020-02-18T14:25:51.000Z</time>
      </trkpt>
      <trkpt lat="44.59308" lon="6.85457">
        <ele>1941</ele>
        <time>2020-02-18T14:25:52.000Z</time>
      </trkpt>
      <trkpt lat="44.59313" lon="6.85445">
        <ele>1939</ele>
        <time>2020-02-18T14:25:54.000Z</time>
      </trkpt>
      <trkpt lat="44.59321" lon="6.85439">
        <ele>1938</ele>
        <time>2020-02-18T14:25:56.000Z</time>
      </trkpt>
      <trkpt lat="44.59323" lon="6.85439">
        <ele>1938</ele>
        <time>2020-02-18T14:25:59.000Z</time>
      </trkpt>
      <trkpt lat="44.59325" lon="6.85438">
        <ele>1938</ele>
        <time>2020-02-18T14:26:04.000Z</time>
      </trkpt>
      <trkpt lat="44.59326" lon="6.85426">
        <ele>1936</ele>
        <time>2020-02-18T14:26:07.000Z</time>
      </trkpt>
      <trkpt lat="44.59328" lon="6.85411">
        <ele>1932</ele>
        <time>2020-02-18T14:26:12.000Z</time>
      </trkpt>
      <trkpt lat="44.59338" lon="6.85395">
        <ele>1931</ele>
        <time>2020-02-18T14:26:17.000Z</time>
      </trkpt>
      <trkpt lat="44.59344" lon="6.8538">
        <ele>1930</ele>
        <time>2020-02-18T14:26:20.000Z</time>
      </trkpt>
      <trkpt lat="44.59343" lon="6.85375">
        <ele>1929</ele>
        <time>2020-02-18T14:26:21.000Z</time>
      </trkpt>
      <trkpt lat="44.59343" lon="6.8537">
        <ele>1929</ele>
        <time>2020-02-18T14:26:22.000Z</time>
      </trkpt>
      <trkpt lat="44.59344" lon="6.85366">
        <ele>1929</ele>
        <time>2020-02-18T14:26:23.000Z</time>
      </trkpt>
      <trkpt lat="44.59348" lon="6.85359">
        <ele>1928</ele>
        <time>2020-02-18T14:26:25.000Z</time>
      </trkpt>
      <trkpt lat="44.59351" lon="6.85348">
        <ele>1928</ele>
        <time>2020-02-18T14:26:28.000Z</time>
      </trkpt>
      <trkpt lat="44.5935" lon="6.85337">
        <ele>1927</ele>
        <time>2020-02-18T14:26:30.000Z</time>
      </trkpt>
      <trkpt lat="44.59349" lon="6.85324">
        <ele>1923</ele>
        <time>2020-02-18T14:26:32.000Z</time>
      </trkpt>
      <trkpt lat="44.59351" lon="6.8532">
        <ele>1923</ele>
        <time>2020-02-18T14:26:33.000Z</time>
      </trkpt>
      <trkpt lat="44.59363" lon="6.85305">
        <ele>1922</ele>
        <time>2020-02-18T14:26:37.000Z</time>
      </trkpt>
      <trkpt lat="44.59363" lon="6.853">
        <ele>1922</ele>
        <time>2020-02-18T14:26:38.000Z</time>
      </trkpt>
      <trkpt lat="44.59363" lon="6.85295">
        <ele>1922</ele>
        <time>2020-02-18T14:26:39.000Z</time>
      </trkpt>
      <trkpt lat="44.59371" lon="6.85283">
        <ele>1921</ele>
        <time>2020-02-18T14:26:42.000Z</time>
      </trkpt>
      <trkpt lat="44.59382" lon="6.85265">
        <ele>1920</ele>
        <time>2020-02-18T14:26:45.000Z</time>
      </trkpt>
      <trkpt lat="44.59392" lon="6.85254">
        <ele>1919</ele>
        <time>2020-02-18T14:26:47.000Z</time>
      </trkpt>
      <trkpt lat="44.59404" lon="6.85243">
        <ele>1916</ele>
        <time>2020-02-18T14:26:49.000Z</time>
      </trkpt>
      <trkpt lat="44.59418" lon="6.85228">
        <ele>1917</ele>
        <time>2020-02-18T14:26:52.000Z</time>
      </trkpt>
      <trkpt lat="44.59422" lon="6.85219">
        <ele>1918</ele>
        <time>2020-02-18T14:26:54.000Z</time>
      </trkpt>
      <trkpt lat="44.59426" lon="6.85209">
        <ele>1918</ele>
        <time>2020-02-18T14:26:56.000Z</time>
      </trkpt>
      <trkpt lat="44.59429" lon="6.85198">
        <ele>1917</ele>
        <time>2020-02-18T14:26:58.000Z</time>
      </trkpt>
      <trkpt lat="44.59434" lon="6.85176">
        <ele>1916</ele>
        <time>2020-02-18T14:27:02.000Z</time>
      </trkpt>
      <trkpt lat="44.59434" lon="6.85152">
        <ele>1919</ele>
        <time>2020-02-18T14:27:09.000Z</time>
      </trkpt>
      <trkpt lat="44.5943" lon="6.85145">
        <ele>1920</ele>
        <time>2020-02-18T14:27:11.000Z</time>
      </trkpt>
      <trkpt lat="44.59427" lon="6.85139">
        <ele>1920</ele>
        <time>2020-02-18T14:27:15.000Z</time>
      </trkpt>
      <trkpt lat="44.59428" lon="6.85136">
        <ele>1920</ele>
        <time>2020-02-18T14:27:28.000Z</time>
      </trkpt>
      <trkpt lat="44.59428" lon="6.85133">
        <ele>1921</ele>
        <time>2020-02-18T14:27:30.000Z</time>
      </trkpt>
      <trkpt lat="44.59427" lon="6.85129">
        <ele>1921</ele>
        <time>2020-02-18T14:27:40.000Z</time>
      </trkpt>
      <trkpt lat="44.59427" lon="6.85128">
        <ele>1921</ele>
        <time>2020-02-18T14:27:41.000Z</time>
      </trkpt>
      <trkpt lat="44.59427" lon="6.85127">
        <ele>1921</ele>
        <time>2020-02-18T14:27:42.000Z</time>
      </trkpt>
      <trkpt lat="44.59427" lon="6.85126">
        <ele>1921</ele>
        <time>2020-02-18T14:27:44.000Z</time>
      </trkpt>
      <trkpt lat="44.59427" lon="6.85125">
        <ele>1921</ele>
        <time>2020-02-18T14:27:45.000Z</time>
      </trkpt>
      <trkpt lat="44.59422" lon="6.85119">
        <ele>1921</ele>
        <time>2020-02-18T14:27:52.000Z</time>
      </trkpt>
      <trkpt lat="44.59418" lon="6.85114">
        <ele>1921</ele>
        <time>2020-02-18T14:27:57.000Z</time>
      </trkpt>
      <trkpt lat="44.59414" lon="6.85108">
        <ele>1913</ele>
        <time>2020-02-18T14:28:02.000Z</time>
      </trkpt>
      <trkpt lat="44.59413" lon="6.85106">
        <ele>1913</ele>
        <time>2020-02-18T14:28:04.000Z</time>
      </trkpt>
      <trkpt lat="44.59409" lon="6.851">
        <ele>1914</ele>
        <time>2020-02-18T14:28:09.000Z</time>
      </trkpt>
      <trkpt lat="44.59409" lon="6.85099">
        <ele>1914</ele>
        <time>2020-02-18T14:28:10.000Z</time>
      </trkpt>
      <trkpt lat="44.59403" lon="6.85091">
        <ele>1914</ele>
        <time>2020-02-18T14:28:15.000Z</time>
      </trkpt>
      <trkpt lat="44.594" lon="6.85086">
        <ele>1914</ele>
        <time>2020-02-18T14:28:18.000Z</time>
      </trkpt>
      <trkpt lat="44.59398" lon="6.8508">
        <ele>1914</ele>
        <time>2020-02-18T14:28:23.000Z</time>
      </trkpt>
      <trkpt lat="44.59396" lon="6.85077">
        <ele>1914</ele>
        <time>2020-02-18T14:28:26.000Z</time>
      </trkpt>
      <trkpt lat="44.59395" lon="6.85073">
        <ele>1914</ele>
        <time>2020-02-18T14:28:29.000Z</time>
      </trkpt>
      <trkpt lat="44.59394" lon="6.8507">
        <ele>1914</ele>
        <time>2020-02-18T14:28:31.000Z</time>
      </trkpt>
      <trkpt lat="44.59392" lon="6.85065">
        <ele>1914</ele>
        <time>2020-02-18T14:28:35.000Z</time>
      </trkpt>
      <trkpt lat="44.59392" lon="6.85062">
        <ele>1914</ele>
        <time>2020-02-18T14:28:37.000Z</time>
      </trkpt>
      <trkpt lat="44.5939" lon="6.8506">
        <ele>1914</ele>
        <time>2020-02-18T14:28:38.000Z</time>
      </trkpt>
      <trkpt lat="44.59384" lon="6.8505">
        <ele>1913</ele>
        <time>2020-02-18T14:28:47.000Z</time>
      </trkpt>
      <trkpt lat="44.59381" lon="6.85045">
        <ele>1913</ele>
        <time>2020-02-18T14:28:50.000Z</time>
      </trkpt>
      <trkpt lat="44.59379" lon="6.85042">
        <ele>1913</ele>
        <time>2020-02-18T14:28:52.000Z</time>
      </trkpt>
      <trkpt lat="44.5937" lon="6.85029">
        <ele>1913</ele>
        <time>2020-02-18T14:29:00.000Z</time>
      </trkpt>
      <trkpt lat="44.59368" lon="6.85025">
        <ele>1913</ele>
        <time>2020-02-18T14:29:02.000Z</time>
      </trkpt>
      <trkpt lat="44.59367" lon="6.85021">
        <ele>1913</ele>
        <time>2020-02-18T14:29:05.000Z</time>
      </trkpt>
      <trkpt lat="44.59366" lon="6.85016">
        <ele>1912</ele>
        <time>2020-02-18T14:29:09.000Z</time>
      </trkpt>
      <trkpt lat="44.59365" lon="6.85014">
        <ele>1912</ele>
        <time>2020-02-18T14:29:10.000Z</time>
      </trkpt>
      <trkpt lat="44.59362" lon="6.85008">
        <ele>1912</ele>
        <time>2020-02-18T14:29:14.000Z</time>
      </trkpt>
      <trkpt lat="44.59355" lon="6.84999">
        <ele>1913</ele>
        <time>2020-02-18T14:29:19.000Z</time>
      </trkpt>
      <trkpt lat="44.59351" lon="6.84993">
        <ele>1912</ele>
        <time>2020-02-18T14:29:22.000Z</time>
      </trkpt>
      <trkpt lat="44.59341" lon="6.84971">
        <ele>1913</ele>
        <time>2020-02-18T14:29:33.000Z</time>
      </trkpt>
      <trkpt lat="44.59337" lon="6.84967">
        <ele>1913</ele>
        <time>2020-02-18T14:29:37.000Z</time>
      </trkpt>
      <trkpt lat="44.59333" lon="6.84963">
        <ele>1913</ele>
        <time>2020-02-18T14:29:41.000Z</time>
      </trkpt>
      <trkpt lat="44.5932" lon="6.84945">
        <ele>1908</ele>
        <time>2020-02-18T14:29:53.000Z</time>
      </trkpt>
      <trkpt lat="44.59319" lon="6.84943">
        <ele>1908</ele>
        <time>2020-02-18T14:29:54.000Z</time>
      </trkpt>
      <trkpt lat="44.59315" lon="6.84924">
        <ele>1908</ele>
        <time>2020-02-18T14:30:01.000Z</time>
      </trkpt>
      <trkpt lat="44.59309" lon="6.84909">
        <ele>1908</ele>
        <time>2020-02-18T14:30:06.000Z</time>
      </trkpt>
      <trkpt lat="44.59309" lon="6.84906">
        <ele>1908</ele>
        <time>2020-02-18T14:30:07.000Z</time>
      </trkpt>
      <trkpt lat="44.59304" lon="6.84894">
        <ele>1908</ele>
        <time>2020-02-18T14:30:11.000Z</time>
      </trkpt>
      <trkpt lat="44.59302" lon="6.84886">
        <ele>1908</ele>
        <time>2020-02-18T14:30:14.000Z</time>
      </trkpt>
      <trkpt lat="44.59302" lon="6.84885">
        <ele>1908</ele>
        <time>2020-02-18T14:30:15.000Z</time>
      </trkpt>
      <trkpt lat="44.59298" lon="6.84874">
        <ele>1908</ele>
        <time>2020-02-18T14:30:20.000Z</time>
      </trkpt>
      <trkpt lat="44.59298" lon="6.84869">
        <ele>1908</ele>
        <time>2020-02-18T14:30:22.000Z</time>
      </trkpt>
      <trkpt lat="44.59294" lon="6.8486">
        <ele>1908</ele>
        <time>2020-02-18T14:30:25.000Z</time>
      </trkpt>
      <trkpt lat="44.59291" lon="6.84854">
        <ele>1908</ele>
        <time>2020-02-18T14:30:27.000Z</time>
      </trkpt>
      <trkpt lat="44.59289" lon="6.84846">
        <ele>1908</ele>
        <time>2020-02-18T14:30:30.000Z</time>
      </trkpt>
      <trkpt lat="44.59284" lon="6.84834">
        <ele>1908</ele>
        <time>2020-02-18T14:30:35.000Z</time>
      </trkpt>
      <trkpt lat="44.59282" lon="6.84812">
        <ele>1909</ele>
        <time>2020-02-18T14:30:44.000Z</time>
      </trkpt>
      <trkpt lat="44.5928" lon="6.84804">
        <ele>1909</ele>
        <time>2020-02-18T14:30:48.000Z</time>
      </trkpt>
      <trkpt lat="44.59277" lon="6.84795">
        <ele>1909</ele>
        <time>2020-02-18T14:30:52.000Z</time>
      </trkpt>
      <trkpt lat="44.59275" lon="6.8479">
        <ele>1909</ele>
        <time>2020-02-18T14:30:55.000Z</time>
      </trkpt>
      <trkpt lat="44.59273" lon="6.84787">
        <ele>1909</ele>
        <time>2020-02-18T14:30:57.000Z</time>
      </trkpt>
      <trkpt lat="44.5927" lon="6.84782">
        <ele>1909</ele>
        <time>2020-02-18T14:30:59.000Z</time>
      </trkpt>
      <trkpt lat="44.59252" lon="6.84746">
        <ele>1906</ele>
        <time>2020-02-18T14:31:11.000Z</time>
      </trkpt>
      <trkpt lat="44.59248" lon="6.84734">
        <ele>1905</ele>
        <time>2020-02-18T14:31:14.000Z</time>
      </trkpt>
      <trkpt lat="44.59247" lon="6.84728">
        <ele>1905</ele>
        <time>2020-02-18T14:31:16.000Z</time>
      </trkpt>
      <trkpt lat="44.59239" lon="6.84701">
        <ele>1905</ele>
        <time>2020-02-18T14:31:23.000Z</time>
      </trkpt>
      <trkpt lat="44.59236" lon="6.84687">
        <ele>1905</ele>
        <time>2020-02-18T14:31:27.000Z</time>
      </trkpt>
      <trkpt lat="44.59234" lon="6.84675">
        <ele>1905</ele>
        <time>2020-02-18T14:31:31.000Z</time>
      </trkpt>
      <trkpt lat="44.5924" lon="6.84623">
        <ele>1902</ele>
        <time>2020-02-18T14:31:48.000Z</time>
      </trkpt>
      <trkpt lat="44.59241" lon="6.84605">
        <ele>1901</ele>
        <time>2020-02-18T14:31:55.000Z</time>
      </trkpt>
      <trkpt lat="44.59239" lon="6.8459">
        <ele>1901</ele>
        <time>2020-02-18T14:32:02.000Z</time>
      </trkpt>
      <trkpt lat="44.59239" lon="6.84585">
        <ele>1900</ele>
        <time>2020-02-18T14:32:04.000Z</time>
      </trkpt>
      <trkpt lat="44.5924" lon="6.84577">
        <ele>1899</ele>
        <time>2020-02-18T14:32:07.000Z</time>
      </trkpt>
      <trkpt lat="44.5924" lon="6.8457">
        <ele>1899</ele>
        <time>2020-02-18T14:32:10.000Z</time>
      </trkpt>
      <trkpt lat="44.59247" lon="6.84557">
        <ele>1899</ele>
        <time>2020-02-18T14:32:15.000Z</time>
      </trkpt>
      <trkpt lat="44.59251" lon="6.84538">
        <ele>1903</ele>
        <time>2020-02-18T14:32:20.000Z</time>
      </trkpt>
      <trkpt lat="44.59249" lon="6.84512">
        <ele>1898</ele>
        <time>2020-02-18T14:32:29.000Z</time>
      </trkpt>
      <trkpt lat="44.5925" lon="6.84503">
        <ele>1898</ele>
        <time>2020-02-18T14:32:32.000Z</time>
      </trkpt>
      <trkpt lat="44.59252" lon="6.84495">
        <ele>1899</ele>
        <time>2020-02-18T14:32:35.000Z</time>
      </trkpt>
      <trkpt lat="44.59258" lon="6.84466">
        <ele>1901</ele>
        <time>2020-02-18T14:32:47.000Z</time>
      </trkpt>
      <trkpt lat="44.59261" lon="6.84461">
        <ele>1901</ele>
        <time>2020-02-18T14:32:52.000Z</time>
      </trkpt>
      <trkpt lat="44.59263" lon="6.84457">
        <ele>1901</ele>
        <time>2020-02-18T14:32:55.000Z</time>
      </trkpt>
      <trkpt lat="44.59266" lon="6.84454">
        <ele>1901</ele>
        <time>2020-02-18T14:32:57.000Z</time>
      </trkpt>
      <trkpt lat="44.59267" lon="6.84448">
        <ele>1900</ele>
        <time>2020-02-18T14:33:01.000Z</time>
      </trkpt>
      <trkpt lat="44.59269" lon="6.84437">
        <ele>1900</ele>
        <time>2020-02-18T14:33:05.000Z</time>
      </trkpt>
      <trkpt lat="44.59271" lon="6.84428">
        <ele>1900</ele>
        <time>2020-02-18T14:33:09.000Z</time>
      </trkpt>
      <trkpt lat="44.59271" lon="6.84426">
        <ele>1900</ele>
        <time>2020-02-18T14:33:10.000Z</time>
      </trkpt>
      <trkpt lat="44.59273" lon="6.8442">
        <ele>1900</ele>
        <time>2020-02-18T14:33:15.000Z</time>
      </trkpt>
      <trkpt lat="44.59273" lon="6.84414">
        <ele>1899</ele>
        <time>2020-02-18T14:33:19.000Z</time>
      </trkpt>
      <trkpt lat="44.59275" lon="6.84411">
        <ele>1900</ele>
        <time>2020-02-18T14:33:21.000Z</time>
      </trkpt>
      <trkpt lat="44.59277" lon="6.84402">
        <ele>1900</ele>
        <time>2020-02-18T14:33:24.000Z</time>
      </trkpt>
      <trkpt lat="44.59277" lon="6.84393">
        <ele>1900</ele>
        <time>2020-02-18T14:33:28.000Z</time>
      </trkpt>
      <trkpt lat="44.59276" lon="6.84382">
        <ele>1901</ele>
        <time>2020-02-18T14:33:34.000Z</time>
      </trkpt>
      <trkpt lat="44.59275" lon="6.84378">
        <ele>1901</ele>
        <time>2020-02-18T14:33:37.000Z</time>
      </trkpt>
      <trkpt lat="44.59275" lon="6.84372">
        <ele>1901</ele>
        <time>2020-02-18T14:33:40.000Z</time>
      </trkpt>
      <trkpt lat="44.59274" lon="6.84366">
        <ele>1901</ele>
        <time>2020-02-18T14:33:44.000Z</time>
      </trkpt>
      <trkpt lat="44.59275" lon="6.84364">
        <ele>1901</ele>
        <time>2020-02-18T14:33:46.000Z</time>
      </trkpt>
      <trkpt lat="44.59275" lon="6.8436">
        <ele>1901</ele>
        <time>2020-02-18T14:33:49.000Z</time>
      </trkpt>
      <trkpt lat="44.59273" lon="6.84356">
        <ele>1901</ele>
        <time>2020-02-18T14:33:51.000Z</time>
      </trkpt>
      <trkpt lat="44.59271" lon="6.84353">
        <ele>1901</ele>
        <time>2020-02-18T14:33:54.000Z</time>
      </trkpt>
      <trkpt lat="44.59271" lon="6.84353">
        <ele>1901</ele>
        <time>2020-02-18T14:33:55.000Z</time>
      </trkpt>
      <trkpt lat="44.59269" lon="6.84346">
        <ele>1901</ele>
        <time>2020-02-18T14:34:00.000Z</time>
      </trkpt>
      <trkpt lat="44.59266" lon="6.84342">
        <ele>1900</ele>
        <time>2020-02-18T14:34:02.000Z</time>
      </trkpt>
      <trkpt lat="44.59265" lon="6.8434">
        <ele>1900</ele>
        <time>2020-02-18T14:34:04.000Z</time>
      </trkpt>
      <trkpt lat="44.59263" lon="6.84333">
        <ele>1900</ele>
        <time>2020-02-18T14:34:10.000Z</time>
      </trkpt>
      <trkpt lat="44.59264" lon="6.84331">
        <ele>1902</ele>
        <time>2020-02-18T14:34:14.000Z</time>
      </trkpt>
      <trkpt lat="44.59265" lon="6.8433">
        <ele>1903</ele>
        <time>2020-02-18T14:34:16.000Z</time>
      </trkpt>
      <trkpt lat="44.59268" lon="6.84327">
        <ele>1903</ele>
        <time>2020-02-18T14:34:20.000Z</time>
      </trkpt>
      <trkpt lat="44.59269" lon="6.84327">
        <ele>1903</ele>
        <time>2020-02-18T14:34:22.000Z</time>
      </trkpt>
      <trkpt lat="44.5927" lon="6.84326">
        <ele>1904</ele>
        <time>2020-02-18T14:34:25.000Z</time>
      </trkpt>
      <trkpt lat="44.59282" lon="6.84312">
        <ele>1906</ele>
        <time>2020-02-18T14:34:46.000Z</time>
      </trkpt>
      <trkpt lat="44.59283" lon="6.84311">
        <ele>1906</ele>
        <time>2020-02-18T14:34:48.000Z</time>
      </trkpt>
      <trkpt lat="44.59282" lon="6.84311">
        <ele>1906</ele>
        <time>2020-02-18T14:34:59.000Z</time>
      </trkpt>
      <trkpt lat="44.59284" lon="6.8431">
        <ele>1906</ele>
        <time>2020-02-18T14:35:02.000Z</time>
      </trkpt>
      <trkpt lat="44.59287" lon="6.84311">
        <ele>1906</ele>
        <time>2020-02-18T14:35:06.000Z</time>
      </trkpt>
      <trkpt lat="44.59288" lon="6.84312">
        <ele>1906</ele>
        <time>2020-02-18T14:35:08.000Z</time>
      </trkpt>
      <trkpt lat="44.59289" lon="6.84314">
        <ele>1906</ele>
        <time>2020-02-18T14:35:10.000Z</time>
      </trkpt>
      <trkpt lat="44.59289" lon="6.84314">
        <ele>1906</ele>
        <time>2020-02-18T14:35:11.000Z</time>
      </trkpt>
      <trkpt lat="44.59289" lon="6.84315">
        <ele>1906</ele>
        <time>2020-02-18T14:35:12.000Z</time>
      </trkpt>
      <trkpt lat="44.59288" lon="6.84315">
        <ele>1906</ele>
        <time>2020-02-18T14:35:13.000Z</time>
      </trkpt>
      <trkpt lat="44.59288" lon="6.84315">
        <ele>1906</ele>
        <time>2020-02-18T14:35:15.000Z</time>
      </trkpt>
      <trkpt lat="44.59288" lon="6.84316">
        <ele>1906</ele>
        <time>2020-02-18T14:35:17.000Z</time>
      </trkpt>
      <trkpt lat="44.59283" lon="6.84313">
        <ele>1906</ele>
        <time>2020-02-18T14:35:33.000Z</time>
      </trkpt>
      <trkpt lat="44.59283" lon="6.8431">
        <ele>1906</ele>
        <time>2020-02-18T14:35:40.000Z</time>
      </trkpt>
      <trkpt lat="44.59282" lon="6.84309">
        <ele>1906</ele>
        <time>2020-02-18T14:35:43.000Z</time>
      </trkpt>
      <trkpt lat="44.59282" lon="6.84309">
        <ele>1906</ele>
        <time>2020-02-18T14:35:44.000Z</time>
      </trkpt>
      <trkpt lat="44.59283" lon="6.84308">
        <ele>1906</ele>
        <time>2020-02-18T14:35:49.000Z</time>
      </trkpt>
      <trkpt lat="44.59283" lon="6.84308">
        <ele>1906</ele>
        <time>2020-02-18T14:35:50.000Z</time>
      </trkpt>
      <trkpt lat="44.59282" lon="6.84308">
        <ele>1906</ele>
        <time>2020-02-18T14:35:51.000Z</time>
      </trkpt>
      <trkpt lat="44.59282" lon="6.84309">
        <ele>1906</ele>
        <time>2020-02-18T14:35:52.000Z</time>
      </trkpt>
      <trkpt lat="44.59282" lon="6.84311">
        <ele>1906</ele>
        <time>2020-02-18T14:35:54.000Z</time>
      </trkpt>
      <trkpt lat="44.59281" lon="6.84312">
        <ele>1905</ele>
        <time>2020-02-18T14:35:56.000Z</time>
      </trkpt>
      <trkpt lat="44.5928" lon="6.84314">
        <ele>1905</ele>
        <time>2020-02-18T14:35:58.000Z</time>
      </trkpt>
      <trkpt lat="44.59278" lon="6.84317">
        <ele>1905</ele>
        <time>2020-02-18T14:36:00.000Z</time>
      </trkpt>
      <trkpt lat="44.59276" lon="6.84319">
        <ele>1905</ele>
        <time>2020-02-18T14:36:03.000Z</time>
      </trkpt>
      <trkpt lat="44.59276" lon="6.8432">
        <ele>1905</ele>
        <time>2020-02-18T14:36:04.000Z</time>
      </trkpt>
      <trkpt lat="44.59277" lon="6.84321">
        <ele>1905</ele>
        <time>2020-02-18T14:36:05.000Z</time>
      </trkpt>
      <trkpt lat="44.59277" lon="6.84322">
        <ele>1905</ele>
        <time>2020-02-18T14:36:07.000Z</time>
      </trkpt>
      <trkpt lat="44.59277" lon="6.84323">
        <ele>1905</ele>
        <time>2020-02-18T14:36:08.000Z</time>
      </trkpt>
      <trkpt lat="44.59277" lon="6.84324">
        <ele>1905</ele>
        <time>2020-02-18T14:36:09.000Z</time>
      </trkpt>
      <trkpt lat="44.59279" lon="6.84323">
        <ele>1905</ele>
        <time>2020-02-18T14:36:11.000Z</time>
      </trkpt>
      <trkpt lat="44.59281" lon="6.84321">
        <ele>1905</ele>
        <time>2020-02-18T14:36:14.000Z</time>
      </trkpt>
      <trkpt lat="44.59282" lon="6.84319">
        <ele>1905</ele>
        <time>2020-02-18T14:36:17.000Z</time>
      </trkpt>
      <trkpt lat="44.59282" lon="6.84319">
        <ele>1905</ele>
        <time>2020-02-18T14:36:19.000Z</time>
      </trkpt>
      <trkpt lat="44.59283" lon="6.84319">
        <ele>1905</ele>
        <time>2020-02-18T14:36:21.000Z</time>
      </trkpt>
      <trkpt lat="44.59283" lon="6.84312">
        <ele>1906</ele>
        <time>2020-02-18T14:36:31.000Z</time>
      </trkpt>
      <trkpt lat="44.59279" lon="6.84303">
        <ele>1906</ele>
        <time>2020-02-18T14:36:33.000Z</time>
      </trkpt>
      <trkpt lat="44.59276" lon="6.84292">
        <ele>1906</ele>
        <time>2020-02-18T14:36:38.000Z</time>
      </trkpt>
      <trkpt lat="44.59276" lon="6.8429">
        <ele>1906</ele>
        <time>2020-02-18T14:36:40.000Z</time>
      </trkpt>
      <trkpt lat="44.59276" lon="6.84286">
        <ele>1906</ele>
        <time>2020-02-18T14:36:43.000Z</time>
      </trkpt>
      <trkpt lat="44.59276" lon="6.84283">
        <ele>1907</ele>
        <time>2020-02-18T14:36:46.000Z</time>
      </trkpt>
      <trkpt lat="44.59277" lon="6.84281">
        <ele>1907</ele>
        <time>2020-02-18T14:36:48.000Z</time>
      </trkpt>
      <trkpt lat="44.59277" lon="6.8428">
        <ele>1907</ele>
        <time>2020-02-18T14:36:50.000Z</time>
      </trkpt>
      <trkpt lat="44.59277" lon="6.84279">
        <ele>1907</ele>
        <time>2020-02-18T14:36:51.000Z</time>
      </trkpt>
      <trkpt lat="44.59278" lon="6.84276">
        <ele>1907</ele>
        <time>2020-02-18T14:36:53.000Z</time>
      </trkpt>
      <trkpt lat="44.5928" lon="6.84271">
        <ele>1907</ele>
        <time>2020-02-18T14:36:57.000Z</time>
      </trkpt>
      <trkpt lat="44.5928" lon="6.84269">
        <ele>1907</ele>
        <time>2020-02-18T14:36:58.000Z</time>
      </trkpt>
      <trkpt lat="44.59283" lon="6.8426">
        <ele>1908</ele>
        <time>2020-02-18T14:37:02.000Z</time>
      </trkpt>
      <trkpt lat="44.59279" lon="6.84215">
        <ele>1914</ele>
        <time>2020-02-18T14:37:26.000Z</time>
      </trkpt>
      <trkpt lat="44.59277" lon="6.84211">
        <ele>1915</ele>
        <time>2020-02-18T14:37:28.000Z</time>
      </trkpt>
      <trkpt lat="44.59278" lon="6.84248">
        <ele>1912</ele>
        <time>2020-02-18T14:37:30.000Z</time>
      </trkpt>
      <trkpt lat="44.59277" lon="6.84253">
        <ele>1907</ele>
        <time>2020-02-18T14:37:31.000Z</time>
      </trkpt>
      <trkpt lat="44.59277" lon="6.84273">
        <ele>1907</ele>
        <time>2020-02-18T14:37:35.000Z</time>
      </trkpt>
      <trkpt lat="44.59277" lon="6.84278">
        <ele>1907</ele>
        <time>2020-02-18T14:37:39.000Z</time>
      </trkpt>
      <trkpt lat="44.59276" lon="6.84285">
        <ele>1906</ele>
        <time>2020-02-18T14:37:47.000Z</time>
      </trkpt>
      <trkpt lat="44.59276" lon="6.84287">
        <ele>1906</ele>
        <time>2020-02-18T14:37:50.000Z</time>
      </trkpt>
      <trkpt lat="44.59279" lon="6.84305">
        <ele>1906</ele>
        <time>2020-02-18T14:37:58.000Z</time>
      </trkpt>
      <trkpt lat="44.5928" lon="6.84307">
        <ele>1906</ele>
        <time>2020-02-18T14:37:59.000Z</time>
      </trkpt>
      <trkpt lat="44.59281" lon="6.84309">
        <ele>1906</ele>
        <time>2020-02-18T14:38:00.000Z</time>
      </trkpt>
      <trkpt lat="44.59282" lon="6.84311">
        <ele>1906</ele>
        <time>2020-02-18T14:38:03.000Z</time>
      </trkpt>
      <trkpt lat="44.59281" lon="6.84322">
        <ele>1905</ele>
        <time>2020-02-18T14:38:04.000Z</time>
      </trkpt>
      <trkpt lat="44.59281" lon="6.84324">
        <ele>1905</ele>
        <time>2020-02-18T14:38:05.000Z</time>
      </trkpt>
      <trkpt lat="44.59283" lon="6.84327">
        <ele>1905</ele>
        <time>2020-02-18T14:38:07.000Z</time>
      </trkpt>
      <trkpt lat="44.59285" lon="6.84332">
        <ele>1905</ele>
        <time>2020-02-18T14:38:10.000Z</time>
      </trkpt>
      <trkpt lat="44.59285" lon="6.84337">
        <ele>1902</ele>
        <time>2020-02-18T14:38:12.000Z</time>
      </trkpt>
      <trkpt lat="44.59285" lon="6.8434">
        <ele>1902</ele>
        <time>2020-02-18T14:38:14.000Z</time>
      </trkpt>
      <trkpt lat="44.59282" lon="6.84357">
        <ele>1901</ele>
        <time>2020-02-18T14:38:23.000Z</time>
      </trkpt>
      <trkpt lat="44.59283" lon="6.84354">
        <ele>1902</ele>
        <time>2020-02-18T14:38:26.000Z</time>
      </trkpt>
      <trkpt lat="44.5928" lon="6.84342">
        <ele>1901</ele>
        <time>2020-02-18T14:38:36.000Z</time>
      </trkpt>
      <trkpt lat="44.59283" lon="6.84329">
        <ele>1905</ele>
        <time>2020-02-18T14:38:42.000Z</time>
      </trkpt>
      <trkpt lat="44.59281" lon="6.84326">
        <ele>1905</ele>
        <time>2020-02-18T14:38:45.000Z</time>
      </trkpt>
      <trkpt lat="44.59279" lon="6.84327">
        <ele>1905</ele>
        <time>2020-02-18T14:38:48.000Z</time>
      </trkpt>
      <trkpt lat="44.5928" lon="6.84326">
        <ele>1905</ele>
        <time>2020-02-18T14:38:49.000Z</time>
      </trkpt>
      <trkpt lat="44.5928" lon="6.84325">
        <ele>1905</ele>
        <time>2020-02-18T14:38:50.000Z</time>
      </trkpt>
      <trkpt lat="44.59279" lon="6.84324">
        <ele>1905</ele>
        <time>2020-02-18T14:38:51.000Z</time>
      </trkpt>
      <trkpt lat="44.59278" lon="6.84324">
        <ele>1905</ele>
        <time>2020-02-18T14:38:53.000Z</time>
      </trkpt>
      <trkpt lat="44.59277" lon="6.84322">
        <ele>1905</ele>
        <time>2020-02-18T14:38:56.000Z</time>
      </trkpt>
      <trkpt lat="44.59277" lon="6.84322">
        <ele>1905</ele>
        <time>2020-02-18T14:38:58.000Z</time>
      </trkpt>
      <trkpt lat="44.59277" lon="6.84322">
        <ele>1905</ele>
        <time>2020-02-18T14:38:59.000Z</time>
      </trkpt>
      <trkpt lat="44.59276" lon="6.84319">
        <ele>1905</ele>
        <time>2020-02-18T14:39:01.000Z</time>
      </trkpt>
      <trkpt lat="44.59276" lon="6.84318">
        <ele>1905</ele>
        <time>2020-02-18T14:39:04.000Z</time>
      </trkpt>
      <trkpt lat="44.59279" lon="6.84321">
        <ele>1905</ele>
        <time>2020-02-18T14:39:10.000Z</time>
      </trkpt>
      <trkpt lat="44.59279" lon="6.84322">
        <ele>1905</ele>
        <time>2020-02-18T14:39:11.000Z</time>
      </trkpt>
      <trkpt lat="44.59279" lon="6.84322">
        <ele>1905</ele>
        <time>2020-02-18T14:39:12.000Z</time>
      </trkpt>
      <trkpt lat="44.59279" lon="6.84324">
        <ele>1905</ele>
        <time>2020-02-18T14:39:14.000Z</time>
      </trkpt>
      <trkpt lat="44.59279" lon="6.84324">
        <ele>1905</ele>
        <time>2020-02-18T14:39:15.000Z</time>
      </trkpt>
      <trkpt lat="44.59278" lon="6.84325">
        <ele>1905</ele>
        <time>2020-02-18T14:39:17.000Z</time>
      </trkpt>
      <trkpt lat="44.59273" lon="6.84326">
        <ele>1904</ele>
        <time>2020-02-18T14:39:20.000Z</time>
      </trkpt>
      <trkpt lat="44.59273" lon="6.84326">
        <ele>1904</ele>
        <time>2020-02-18T14:39:21.000Z</time>
      </trkpt>
      <trkpt lat="44.59275" lon="6.84302">
        <ele>1906</ele>
        <time>2020-02-18T14:39:30.000Z</time>
      </trkpt>
      <trkpt lat="44.59275" lon="6.84298">
        <ele>1906</ele>
        <time>2020-02-18T14:39:31.000Z</time>
      </trkpt>
      <trkpt lat="44.59276" lon="6.84294">
        <ele>1906</ele>
        <time>2020-02-18T14:39:32.000Z</time>
      </trkpt>
      <trkpt lat="44.59279" lon="6.84244">
        <ele>1913</ele>
        <time>2020-02-18T14:40:29.000Z</time>
      </trkpt>
      <trkpt lat="44.59278" lon="6.84249">
        <ele>1912</ele>
        <time>2020-02-18T14:40:37.000Z</time>
      </trkpt>
      <trkpt lat="44.59276" lon="6.84259">
        <ele>1907</ele>
        <time>2020-02-18T14:40:41.000Z</time>
      </trkpt>
      <trkpt lat="44.59274" lon="6.84266">
        <ele>1907</ele>
        <time>2020-02-18T14:40:44.000Z</time>
      </trkpt>
      <trkpt lat="44.59269" lon="6.84277">
        <ele>1906</ele>
        <time>2020-02-18T14:40:48.000Z</time>
      </trkpt>
      <trkpt lat="44.59267" lon="6.84288">
        <ele>1906</ele>
        <time>2020-02-18T14:40:55.000Z</time>
      </trkpt>
      <trkpt lat="44.59271" lon="6.84295">
        <ele>1906</ele>
        <time>2020-02-18T14:41:09.000Z</time>
      </trkpt>
      <trkpt lat="44.59279" lon="6.84294">
        <ele>1906</ele>
        <time>2020-02-18T14:41:30.000Z</time>
      </trkpt>
      <trkpt lat="44.59279" lon="6.84292">
        <ele>1906</ele>
        <time>2020-02-18T14:41:31.000Z</time>
      </trkpt>
      <trkpt lat="44.59279" lon="6.84291">
        <ele>1906</ele>
        <time>2020-02-18T14:41:32.000Z</time>
      </trkpt>
      <trkpt lat="44.59278" lon="6.84295">
        <ele>1906</ele>
        <time>2020-02-18T14:41:33.000Z</time>
      </trkpt>
      <trkpt lat="44.59275" lon="6.84308">
        <ele>1905</ele>
        <time>2020-02-18T14:41:39.000Z</time>
      </trkpt>
      <trkpt lat="44.59271" lon="6.84311">
        <ele>1905</ele>
        <time>2020-02-18T14:41:42.000Z</time>
      </trkpt>
      <trkpt lat="44.5927" lon="6.84321">
        <ele>1904</ele>
        <time>2020-02-18T14:41:48.000Z</time>
      </trkpt>
      <trkpt lat="44.59272" lon="6.8432">
        <ele>1904</ele>
        <time>2020-02-18T14:41:54.000Z</time>
      </trkpt>
      <trkpt lat="44.59272" lon="6.8432">
        <ele>1904</ele>
        <time>2020-02-18T14:41:55.000Z</time>
      </trkpt>
      <trkpt lat="44.59272" lon="6.8432">
        <ele>1904</ele>
        <time>2020-02-18T14:41:57.000Z</time>
      </trkpt>
      <trkpt lat="44.59272" lon="6.84319">
        <ele>1904</ele>
        <time>2020-02-18T14:41:59.000Z</time>
      </trkpt>
      <trkpt lat="44.59273" lon="6.84315">
        <ele>1905</ele>
        <time>2020-02-18T14:42:04.000Z</time>
      </trkpt>
      <trkpt lat="44.59274" lon="6.84314">
        <ele>1905</ele>
        <time>2020-02-18T14:42:05.000Z</time>
      </trkpt>
      <trkpt lat="44.59274" lon="6.84314">
        <ele>1905</ele>
        <time>2020-02-18T14:42:07.000Z</time>
      </trkpt>
      <trkpt lat="44.59274" lon="6.84319">
        <ele>1904</ele>
        <time>2020-02-18T14:42:10.000Z</time>
      </trkpt>
      <trkpt lat="44.59276" lon="6.84326">
        <ele>1904</ele>
        <time>2020-02-18T14:42:13.000Z</time>
      </trkpt>
      <trkpt lat="44.59278" lon="6.84329">
        <ele>1904</ele>
        <time>2020-02-18T14:42:19.000Z</time>
      </trkpt>
      <trkpt lat="44.59275" lon="6.84333">
        <ele>1901</ele>
        <time>2020-02-18T14:42:45.000Z</time>
      </trkpt>
      <trkpt lat="44.59277" lon="6.84328">
        <ele>1904</ele>
        <time>2020-02-18T14:42:52.000Z</time>
      </trkpt>
      <trkpt lat="44.59277" lon="6.84327">
        <ele>1904</ele>
        <time>2020-02-18T14:42:53.000Z</time>
      </trkpt>
      <trkpt lat="44.59277" lon="6.84328">
        <ele>1904</ele>
        <time>2020-02-18T14:42:56.000Z</time>
      </trkpt>
      <trkpt lat="44.59277" lon="6.84328">
        <ele>1904</ele>
        <time>2020-02-18T14:42:57.000Z</time>
      </trkpt>
      <trkpt lat="44.59278" lon="6.84328">
        <ele>1904</ele>
        <time>2020-02-18T14:43:02.000Z</time>
      </trkpt>
      <trkpt lat="44.59277" lon="6.84329">
        <ele>1904</ele>
        <time>2020-02-18T14:43:06.000Z</time>
      </trkpt>
      <trkpt lat="44.59277" lon="6.8433">
        <ele>1904</ele>
        <time>2020-02-18T14:43:07.000Z</time>
      </trkpt>
      <trkpt lat="44.59277" lon="6.84327">
        <ele>1904</ele>
        <time>2020-02-18T14:43:09.000Z</time>
      </trkpt>
      <trkpt lat="44.59278" lon="6.84328">
        <ele>1904</ele>
        <time>2020-02-18T14:43:12.000Z</time>
      </trkpt>
      <trkpt lat="44.59278" lon="6.84328">
        <ele>1905</ele>
        <time>2020-02-18T14:43:13.000Z</time>
      </trkpt>
      <trkpt lat="44.59278" lon="6.84327">
        <ele>1905</ele>
        <time>2020-02-18T14:43:18.000Z</time>
      </trkpt>
      <trkpt lat="44.59278" lon="6.84329">
        <ele>1904</ele>
        <time>2020-02-18T14:43:23.000Z</time>
      </trkpt>
      <trkpt lat="44.59278" lon="6.84327">
        <ele>1905</ele>
        <time>2020-02-18T14:43:27.000Z</time>
      </trkpt>
      <trkpt lat="44.59278" lon="6.84327">
        <ele>1905</ele>
        <time>2020-02-18T14:43:29.000Z</time>
      </trkpt>
      <trkpt lat="44.59278" lon="6.84327">
        <ele>1904</ele>
        <time>2020-02-18T14:43:30.000Z</time>
      </trkpt>
      <trkpt lat="44.59278" lon="6.84324">
        <ele>1905</ele>
        <time>2020-02-18T14:43:34.000Z</time>
      </trkpt>
      <trkpt lat="44.59278" lon="6.84324">
        <ele>1905</ele>
        <time>2020-02-18T14:43:35.000Z</time>
      </trkpt>
      <trkpt lat="44.59279" lon="6.84323">
        <ele>1905</ele>
        <time>2020-02-18T14:43:38.000Z</time>
      </trkpt>
      <trkpt lat="44.59279" lon="6.84323">
        <ele>1905</ele>
        <time>2020-02-18T14:43:40.000Z</time>
      </trkpt>
      <trkpt lat="44.59278" lon="6.84325">
        <ele>1905</ele>
        <time>2020-02-18T14:43:42.000Z</time>
      </trkpt>
      <trkpt lat="44.59278" lon="6.84326">
        <ele>1905</ele>
        <time>2020-02-18T14:43:46.000Z</time>
      </trkpt>
      <trkpt lat="44.59278" lon="6.84327">
        <ele>1904</ele>
        <time>2020-02-18T14:43:51.000Z</time>
      </trkpt>
      <trkpt lat="44.59277" lon="6.84328">
        <ele>1904</ele>
        <time>2020-02-18T14:43:52.000Z</time>
      </trkpt>
      <trkpt lat="44.59277" lon="6.84329">
        <ele>1904</ele>
        <time>2020-02-18T14:43:55.000Z</time>
      </trkpt>
      <trkpt lat="44.59277" lon="6.84329">
        <ele>1904</ele>
        <time>2020-02-18T14:43:56.000Z</time>
      </trkpt>
      <trkpt lat="44.59278" lon="6.84329">
        <ele>1904</ele>
        <time>2020-02-18T14:44:01.000Z</time>
      </trkpt>
      <trkpt lat="44.59278" lon="6.84329">
        <ele>1904</ele>
        <time>2020-02-18T14:44:08.000Z</time>
      </trkpt>
      <trkpt lat="44.59277" lon="6.84332">
        <ele>1904</ele>
        <time>2020-02-18T14:44:21.000Z</time>
      </trkpt>
      <trkpt lat="44.59277" lon="6.84332">
        <ele>1904</ele>
        <time>2020-02-18T14:44:22.000Z</time>
      </trkpt>
      <trkpt lat="44.59277" lon="6.84332">
        <ele>1904</ele>
        <time>2020-02-18T14:44:24.000Z</time>
      </trkpt>
      <trkpt lat="44.59276" lon="6.84334">
        <ele>1901</ele>
        <time>2020-02-18T14:44:27.000Z</time>
      </trkpt>
      <trkpt lat="44.59275" lon="6.84335">
        <ele>1901</ele>
        <time>2020-02-18T14:44:29.000Z</time>
      </trkpt>
      <trkpt lat="44.59274" lon="6.84336">
        <ele>1901</ele>
        <time>2020-02-18T14:44:30.000Z</time>
      </trkpt>
      <trkpt lat="44.59273" lon="6.84338">
        <ele>1901</ele>
        <time>2020-02-18T14:44:32.000Z</time>
      </trkpt>
      <trkpt lat="44.59271" lon="6.84339">
        <ele>1901</ele>
        <time>2020-02-18T14:44:43.000Z</time>
      </trkpt>
      <trkpt lat="44.59271" lon="6.84339">
        <ele>1901</ele>
        <time>2020-02-18T14:44:46.000Z</time>
      </trkpt>
      <trkpt lat="44.59271" lon="6.8434">
        <ele>1901</ele>
        <time>2020-02-18T14:44:47.000Z</time>
      </trkpt>
      <trkpt lat="44.59272" lon="6.8434">
        <ele>1901</ele>
        <time>2020-02-18T14:44:50.000Z</time>
      </trkpt>
      <trkpt lat="44.59273" lon="6.8434">
        <ele>1901</ele>
        <time>2020-02-18T14:44:56.000Z</time>
      </trkpt>
      <trkpt lat="44.59273" lon="6.8434">
        <ele>1901</ele>
        <time>2020-02-18T14:44:58.000Z</time>
      </trkpt>
      <trkpt lat="44.59273" lon="6.8434">
        <ele>1901</ele>
        <time>2020-02-18T14:45:00.000Z</time>
      </trkpt>
      <trkpt lat="44.59274" lon="6.8434">
        <ele>1901</ele>
        <time>2020-02-18T14:45:04.000Z</time>
      </trkpt>
      <trkpt lat="44.59274" lon="6.8434">
        <ele>1901</ele>
        <time>2020-02-18T14:45:05.000Z</time>
      </trkpt>
      <trkpt lat="44.59274" lon="6.8434">
        <ele>1901</ele>
        <time>2020-02-18T14:45:06.000Z</time>
      </trkpt>
      <trkpt lat="44.59275" lon="6.84339">
        <ele>1901</ele>
        <time>2020-02-18T14:45:08.000Z</time>
      </trkpt>
      <trkpt lat="44.59278" lon="6.84336">
        <ele>1901</ele>
        <time>2020-02-18T14:45:12.000Z</time>
      </trkpt>
      <trkpt lat="44.59279" lon="6.84334">
        <ele>1901</ele>
        <time>2020-02-18T14:45:19.000Z</time>
      </trkpt>
      <trkpt lat="44.59279" lon="6.84335">
        <ele>1901</ele>
        <time>2020-02-18T14:45:20.000Z</time>
      </trkpt>
      <trkpt lat="44.5928" lon="6.84335">
        <ele>1901</ele>
        <time>2020-02-18T14:45:21.000Z</time>
      </trkpt>
      <trkpt lat="44.5928" lon="6.84334">
        <ele>1901</ele>
        <time>2020-02-18T14:45:24.000Z</time>
      </trkpt>
      <trkpt lat="44.59281" lon="6.84332">
        <ele>1905</ele>
        <time>2020-02-18T14:45:27.000Z</time>
      </trkpt>
      <trkpt lat="44.59282" lon="6.84331">
        <ele>1905</ele>
        <time>2020-02-18T14:45:28.000Z</time>
      </trkpt>
      <trkpt lat="44.59282" lon="6.8433">
        <ele>1905</ele>
        <time>2020-02-18T14:45:29.000Z</time>
      </trkpt>
      <trkpt lat="44.59282" lon="6.8433">
        <ele>1905</ele>
        <time>2020-02-18T14:45:30.000Z</time>
      </trkpt>
      <trkpt lat="44.59281" lon="6.8433">
        <ele>1905</ele>
        <time>2020-02-18T14:45:31.000Z</time>
      </trkpt>
      <trkpt lat="44.59281" lon="6.84328">
        <ele>1905</ele>
        <time>2020-02-18T14:45:33.000Z</time>
      </trkpt>
      <trkpt lat="44.59281" lon="6.84328">
        <ele>1905</ele>
        <time>2020-02-18T14:45:34.000Z</time>
      </trkpt>
      <trkpt lat="44.59284" lon="6.84331">
        <ele>1905</ele>
        <time>2020-02-18T14:45:42.000Z</time>
      </trkpt>
      <trkpt lat="44.59285" lon="6.84332">
        <ele>1905</ele>
        <time>2020-02-18T14:45:44.000Z</time>
      </trkpt>
      <trkpt lat="44.59287" lon="6.84333">
        <ele>1905</ele>
        <time>2020-02-18T14:45:47.000Z</time>
      </trkpt>
      <trkpt lat="44.59291" lon="6.84326">
        <ele>1906</ele>
        <time>2020-02-18T14:45:54.000Z</time>
      </trkpt>
      <trkpt lat="44.59287" lon="6.84327">
        <ele>1905</ele>
        <time>2020-02-18T14:46:04.000Z</time>
      </trkpt>
      <trkpt lat="44.59286" lon="6.84325">
        <ele>1905</ele>
        <time>2020-02-18T14:46:10.000Z</time>
      </trkpt>
      <trkpt lat="44.59286" lon="6.84323">
        <ele>1905</ele>
        <time>2020-02-18T14:46:15.000Z</time>
      </trkpt>
      <trkpt lat="44.59284" lon="6.84323">
        <ele>1905</ele>
        <time>2020-02-18T14:46:20.000Z</time>
      </trkpt>
      <trkpt lat="44.59284" lon="6.84323">
        <ele>1905</ele>
        <time>2020-02-18T14:46:21.000Z</time>
      </trkpt>
      <trkpt lat="44.59285" lon="6.84323">
        <ele>1905</ele>
        <time>2020-02-18T14:46:26.000Z</time>
      </trkpt>
      <trkpt lat="44.59286" lon="6.84317">
        <ele>1906</ele>
        <time>2020-02-18T14:46:31.000Z</time>
      </trkpt>
      <trkpt lat="44.59286" lon="6.84314">
        <ele>1906</ele>
        <time>2020-02-18T14:46:34.000Z</time>
      </trkpt>
      <trkpt lat="44.59286" lon="6.84319">
        <ele>1906</ele>
        <time>2020-02-18T14:46:37.000Z</time>
      </trkpt>
      <trkpt lat="44.59289" lon="6.84316">
        <ele>1906</ele>
        <time>2020-02-18T14:46:51.000Z</time>
      </trkpt>
      <trkpt lat="44.59289" lon="6.84314">
        <ele>1906</ele>
        <time>2020-02-18T14:46:53.000Z</time>
      </trkpt>
      <trkpt lat="44.59287" lon="6.84314">
        <ele>1906</ele>
        <time>2020-02-18T14:46:55.000Z</time>
      </trkpt>
      <trkpt lat="44.59286" lon="6.84318">
        <ele>1906</ele>
        <time>2020-02-18T14:46:57.000Z</time>
      </trkpt>
      <trkpt lat="44.59285" lon="6.84321">
        <ele>1905</ele>
        <time>2020-02-18T14:46:58.000Z</time>
      </trkpt>
      <trkpt lat="44.59284" lon="6.84322">
        <ele>1905</ele>
        <time>2020-02-18T14:46:59.000Z</time>
      </trkpt>
      <trkpt lat="44.59284" lon="6.84323">
        <ele>1905</ele>
        <time>2020-02-18T14:47:00.000Z</time>
      </trkpt>
      <trkpt lat="44.59277" lon="6.8433">
        <ele>1904</ele>
        <time>2020-02-18T14:47:11.000Z</time>
      </trkpt>
      <trkpt lat="44.59276" lon="6.84329">
        <ele>1904</ele>
        <time>2020-02-18T14:47:13.000Z</time>
      </trkpt>
      <trkpt lat="44.59275" lon="6.84327">
        <ele>1904</ele>
        <time>2020-02-18T14:47:16.000Z</time>
      </trkpt>
      <trkpt lat="44.59277" lon="6.84328">
        <ele>1904</ele>
        <time>2020-02-18T14:47:18.000Z</time>
      </trkpt>
      <trkpt lat="44.59282" lon="6.84325">
        <ele>1905</ele>
        <time>2020-02-18T14:47:20.000Z</time>
      </trkpt>
      <trkpt lat="44.59283" lon="6.84324">
        <ele>1905</ele>
        <time>2020-02-18T14:47:22.000Z</time>
      </trkpt>
      <trkpt lat="44.59283" lon="6.84324">
        <ele>1905</ele>
        <time>2020-02-18T14:47:23.000Z</time>
      </trkpt>
      <trkpt lat="44.59283" lon="6.84325">
        <ele>1905</ele>
        <time>2020-02-18T14:47:26.000Z</time>
      </trkpt>
      <trkpt lat="44.59283" lon="6.84324">
        <ele>1905</ele>
        <time>2020-02-18T14:47:28.000Z</time>
      </trkpt>
      <trkpt lat="44.59283" lon="6.84324">
        <ele>1905</ele>
        <time>2020-02-18T14:47:29.000Z</time>
      </trkpt>
      <trkpt lat="44.59283" lon="6.84324">
        <ele>1905</ele>
        <time>2020-02-18T14:47:31.000Z</time>
      </trkpt>
      <trkpt lat="44.59284" lon="6.84321">
        <ele>1905</ele>
        <time>2020-02-18T14:47:33.000Z</time>
      </trkpt>
      <trkpt lat="44.59285" lon="6.8432">
        <ele>1905</ele>
        <time>2020-02-18T14:47:43.000Z</time>
      </trkpt>
      <trkpt lat="44.59286" lon="6.84321">
        <ele>1905</ele>
        <time>2020-02-18T14:47:47.000Z</time>
      </trkpt>
      <trkpt lat="44.59283" lon="6.84327">
        <ele>1905</ele>
        <time>2020-02-18T14:47:53.000Z</time>
      </trkpt>
      <trkpt lat="44.59281" lon="6.84331">
        <ele>1905</ele>
        <time>2020-02-18T14:48:05.000Z</time>
      </trkpt>
      <trkpt lat="44.59281" lon="6.8433">
        <ele>1905</ele>
        <time>2020-02-18T14:48:06.000Z</time>
      </trkpt>
      <trkpt lat="44.59281" lon="6.8433">
        <ele>1905</ele>
        <time>2020-02-18T14:48:07.000Z</time>
      </trkpt>
      <trkpt lat="44.59281" lon="6.84331">
        <ele>1905</ele>
        <time>2020-02-18T14:48:08.000Z</time>
      </trkpt>
      <trkpt lat="44.59281" lon="6.8433">
        <ele>1905</ele>
        <time>2020-02-18T14:48:09.000Z</time>
      </trkpt>
      <trkpt lat="44.59282" lon="6.8433">
        <ele>1905</ele>
        <time>2020-02-18T14:48:12.000Z</time>
      </trkpt>
      <trkpt lat="44.59282" lon="6.8433">
        <ele>1905</ele>
        <time>2020-02-18T14:48:14.000Z</time>
      </trkpt>
      <trkpt lat="44.5928" lon="6.84331">
        <ele>1905</ele>
        <time>2020-02-18T14:48:17.000Z</time>
      </trkpt>
      <trkpt lat="44.59279" lon="6.84331">
        <ele>1904</ele>
        <time>2020-02-18T14:48:26.000Z</time>
      </trkpt>
      <trkpt lat="44.59276" lon="6.84329">
        <ele>1904</ele>
        <time>2020-02-18T14:48:37.000Z</time>
      </trkpt>
      <trkpt lat="44.59275" lon="6.84329">
        <ele>1904</ele>
        <time>2020-02-18T14:48:41.000Z</time>
      </trkpt>
      <trkpt lat="44.59275" lon="6.84328">
        <ele>1904</ele>
        <time>2020-02-18T14:48:45.000Z</time>
      </trkpt>
      <trkpt lat="44.59277" lon="6.84325">
        <ele>1904</ele>
        <time>2020-02-18T14:48:47.000Z</time>
      </trkpt>
      <trkpt lat="44.59278" lon="6.84324">
        <ele>1905</ele>
        <time>2020-02-18T14:48:49.000Z</time>
      </trkpt>
      <trkpt lat="44.5928" lon="6.84322">
        <ele>1905</ele>
        <time>2020-02-18T14:48:51.000Z</time>
      </trkpt>
      <trkpt lat="44.59283" lon="6.84319">
        <ele>1905</ele>
        <time>2020-02-18T14:48:57.000Z</time>
      </trkpt>
      <trkpt lat="44.59283" lon="6.84317">
        <ele>1905</ele>
        <time>2020-02-18T14:49:00.000Z</time>
      </trkpt>
      <trkpt lat="44.59284" lon="6.84317">
        <ele>1905</ele>
        <time>2020-02-18T14:49:01.000Z</time>
      </trkpt>
      <trkpt lat="44.59284" lon="6.84315">
        <ele>1906</ele>
        <time>2020-02-18T14:49:03.000Z</time>
      </trkpt>
      <trkpt lat="44.59282" lon="6.84316">
        <ele>1905</ele>
        <time>2020-02-18T14:49:07.000Z</time>
      </trkpt>
      <trkpt lat="44.59281" lon="6.84318">
        <ele>1905</ele>
        <time>2020-02-18T14:49:09.000Z</time>
      </trkpt>
      <trkpt lat="44.59282" lon="6.84316">
        <ele>1905</ele>
        <time>2020-02-18T14:49:13.000Z</time>
      </trkpt>
    </trkseg>
  </trk>
</gpx>